<?xml version="1.0" encoding="UTF-8" standalone="no" ?>
<gpx xmlns="http://www.topografix.com/GPX/1/1" xmlns:xsi="http://www.w3.org/2001/XMLSchema-instance" xsi:schemaLocation="http://www.topografix.com/GPX/1/1 http://www.topografix.com/GPX/1/1/gpx.xsd" version="1.1" creator="VisuGPX - https://www.visugpx.com">
  <metadata>
    <name>St Bonnet Col des Brosses</name>
    <desc><![CDATA[Une belle sortie VTTAE depuis Chaponost]]></desc>
  </metadata>
  <trk>
    <name><![CDATA[St Bonet Col des Brosses_1]]></name>
    <extensions>
      <line xmlns="http://www.topografix.com/GPX/gpx_style/0/2">
        <color>0000FF</color>
        <width>4</width>
      </line>
    </extensions>
    <trkseg>
      <trkpt lat="45.71105" lon="4.75549">
        <ele>317</ele>
        <time>2025-03-02T08:19:03Z</time>
      </trkpt>
      <trkpt lat="45.71105" lon="4.75549">
        <ele>317</ele>
        <time>2025-03-02T08:19:04Z</time>
      </trkpt>
      <trkpt lat="45.71096" lon="4.75548">
        <ele>317</ele>
        <time>2025-03-02T08:19:05Z</time>
      </trkpt>
      <trkpt lat="45.711" lon="4.75546">
        <ele>317</ele>
        <time>2025-03-02T08:19:06Z</time>
      </trkpt>
      <trkpt lat="45.71094" lon="4.75547">
        <ele>317</ele>
        <time>2025-03-02T08:19:07Z</time>
      </trkpt>
      <trkpt lat="45.71087" lon="4.75549">
        <ele>317</ele>
        <time>2025-03-02T08:19:08Z</time>
      </trkpt>
      <trkpt lat="45.71094" lon="4.75548">
        <ele>317</ele>
        <time>2025-03-02T08:19:09Z</time>
      </trkpt>
      <trkpt lat="45.71098" lon="4.75546">
        <ele>317</ele>
        <time>2025-03-02T08:19:10Z</time>
      </trkpt>
      <trkpt lat="45.71099" lon="4.75544">
        <ele>317</ele>
        <time>2025-03-02T08:19:11Z</time>
      </trkpt>
      <trkpt lat="45.71094" lon="4.75543">
        <ele>317</ele>
        <time>2025-03-02T08:19:12Z</time>
      </trkpt>
      <trkpt lat="45.71089" lon="4.75542">
        <ele>317</ele>
        <time>2025-03-02T08:19:13Z</time>
      </trkpt>
      <trkpt lat="45.71084" lon="4.75541">
        <ele>317</ele>
        <time>2025-03-02T08:19:14Z</time>
      </trkpt>
      <trkpt lat="45.71083" lon="4.75541">
        <ele>317</ele>
        <time>2025-03-02T08:19:15Z</time>
      </trkpt>
      <trkpt lat="45.71082" lon="4.7554">
        <ele>317</ele>
        <time>2025-03-02T08:19:16Z</time>
      </trkpt>
      <trkpt lat="45.71082" lon="4.7554">
        <ele>317</ele>
        <time>2025-03-02T08:19:17Z</time>
      </trkpt>
      <trkpt lat="45.71082" lon="4.7554">
        <ele>317</ele>
        <time>2025-03-02T08:19:18Z</time>
      </trkpt>
      <trkpt lat="45.71081" lon="4.75539">
        <ele>317</ele>
        <time>2025-03-02T08:19:19Z</time>
      </trkpt>
      <trkpt lat="45.71081" lon="4.75538">
        <ele>317</ele>
        <time>2025-03-02T08:19:20Z</time>
      </trkpt>
      <trkpt lat="45.7108" lon="4.75537">
        <ele>317</ele>
        <time>2025-03-02T08:19:21Z</time>
      </trkpt>
      <trkpt lat="45.7108" lon="4.75537">
        <ele>317</ele>
        <time>2025-03-02T08:19:22Z</time>
      </trkpt>
      <trkpt lat="45.7108" lon="4.75537">
        <ele>317</ele>
        <time>2025-03-02T08:19:23Z</time>
      </trkpt>
      <trkpt lat="45.7108" lon="4.75538">
        <ele>317</ele>
        <time>2025-03-02T08:19:24Z</time>
      </trkpt>
      <trkpt lat="45.7108" lon="4.75537">
        <ele>317</ele>
        <time>2025-03-02T08:19:25Z</time>
      </trkpt>
      <trkpt lat="45.71079" lon="4.75538">
        <ele>317</ele>
        <time>2025-03-02T08:19:26Z</time>
      </trkpt>
      <trkpt lat="45.71079" lon="4.75538">
        <ele>317</ele>
        <time>2025-03-02T08:19:27Z</time>
      </trkpt>
      <trkpt lat="45.71079" lon="4.75538">
        <ele>317</ele>
        <time>2025-03-02T08:19:28Z</time>
      </trkpt>
      <trkpt lat="45.71077" lon="4.75538">
        <ele>317</ele>
        <time>2025-03-02T08:19:29Z</time>
      </trkpt>
      <trkpt lat="45.71074" lon="4.75537">
        <ele>317</ele>
        <time>2025-03-02T08:19:30Z</time>
      </trkpt>
      <trkpt lat="45.71072" lon="4.75537">
        <ele>316.8</ele>
        <time>2025-03-02T08:19:31Z</time>
      </trkpt>
      <trkpt lat="45.7107" lon="4.75537">
        <ele>316.8</ele>
        <time>2025-03-02T08:19:32Z</time>
      </trkpt>
      <trkpt lat="45.71066" lon="4.75538">
        <ele>316.6</ele>
        <time>2025-03-02T08:19:33Z</time>
      </trkpt>
      <trkpt lat="45.71063" lon="4.75539">
        <ele>316.4</ele>
        <time>2025-03-02T08:19:34Z</time>
      </trkpt>
      <trkpt lat="45.7106" lon="4.75539">
        <ele>316.2</ele>
        <time>2025-03-02T08:19:35Z</time>
      </trkpt>
      <trkpt lat="45.71057" lon="4.75538">
        <ele>316</ele>
        <time>2025-03-02T08:19:36Z</time>
      </trkpt>
      <trkpt lat="45.71055" lon="4.75536">
        <ele>315.8</ele>
        <time>2025-03-02T08:19:37Z</time>
      </trkpt>
      <trkpt lat="45.71053" lon="4.75532">
        <ele>315.6</ele>
        <time>2025-03-02T08:19:38Z</time>
      </trkpt>
      <trkpt lat="45.71052" lon="4.75527">
        <ele>315.4</ele>
        <time>2025-03-02T08:19:39Z</time>
      </trkpt>
      <trkpt lat="45.71052" lon="4.75523">
        <ele>315</ele>
        <time>2025-03-02T08:19:40Z</time>
      </trkpt>
      <trkpt lat="45.71053" lon="4.75518">
        <ele>314.8</ele>
        <time>2025-03-02T08:19:41Z</time>
      </trkpt>
      <trkpt lat="45.71053" lon="4.75514">
        <ele>314.8</ele>
        <time>2025-03-02T08:19:42Z</time>
      </trkpt>
      <trkpt lat="45.71053" lon="4.75511">
        <ele>314.8</ele>
        <time>2025-03-02T08:19:43Z</time>
      </trkpt>
      <trkpt lat="45.71054" lon="4.75507">
        <ele>314.8</ele>
        <time>2025-03-02T08:19:44Z</time>
      </trkpt>
      <trkpt lat="45.71055" lon="4.75503">
        <ele>314.8</ele>
        <time>2025-03-02T08:19:45Z</time>
      </trkpt>
      <trkpt lat="45.71055" lon="4.75498">
        <ele>314.8</ele>
        <time>2025-03-02T08:19:46Z</time>
      </trkpt>
      <trkpt lat="45.71056" lon="4.75494">
        <ele>314.8</ele>
        <time>2025-03-02T08:19:47Z</time>
      </trkpt>
      <trkpt lat="45.71056" lon="4.75489">
        <ele>314.8</ele>
        <time>2025-03-02T08:19:48Z</time>
      </trkpt>
      <trkpt lat="45.71057" lon="4.75484">
        <ele>314.8</ele>
        <time>2025-03-02T08:19:49Z</time>
      </trkpt>
      <trkpt lat="45.71057" lon="4.75478">
        <ele>314.6</ele>
        <time>2025-03-02T08:19:50Z</time>
      </trkpt>
      <trkpt lat="45.71057" lon="4.75473">
        <ele>314.6</ele>
        <time>2025-03-02T08:19:51Z</time>
      </trkpt>
      <trkpt lat="45.71058" lon="4.75468">
        <ele>314.6</ele>
        <time>2025-03-02T08:19:52Z</time>
      </trkpt>
      <trkpt lat="45.71058" lon="4.75462">
        <ele>314.6</ele>
        <time>2025-03-02T08:19:53Z</time>
      </trkpt>
      <trkpt lat="45.71058" lon="4.75457">
        <ele>314.6</ele>
        <time>2025-03-02T08:19:54Z</time>
      </trkpt>
      <trkpt lat="45.71058" lon="4.75452">
        <ele>314.6</ele>
        <time>2025-03-02T08:19:55Z</time>
      </trkpt>
      <trkpt lat="45.71058" lon="4.75447">
        <ele>314.8</ele>
        <time>2025-03-02T08:19:56Z</time>
      </trkpt>
      <trkpt lat="45.71058" lon="4.75441">
        <ele>314.8</ele>
        <time>2025-03-02T08:19:57Z</time>
      </trkpt>
      <trkpt lat="45.71058" lon="4.75436">
        <ele>315</ele>
        <time>2025-03-02T08:19:58Z</time>
      </trkpt>
      <trkpt lat="45.71059" lon="4.75431">
        <ele>315</ele>
        <time>2025-03-02T08:19:59Z</time>
      </trkpt>
      <trkpt lat="45.71059" lon="4.75425">
        <ele>315</ele>
        <time>2025-03-02T08:20:00Z</time>
      </trkpt>
      <trkpt lat="45.7106" lon="4.7542">
        <ele>315.2</ele>
        <time>2025-03-02T08:20:01Z</time>
      </trkpt>
      <trkpt lat="45.71061" lon="4.75416">
        <ele>315.4</ele>
        <time>2025-03-02T08:20:02Z</time>
      </trkpt>
      <trkpt lat="45.71061" lon="4.75411">
        <ele>315.4</ele>
        <time>2025-03-02T08:20:03Z</time>
      </trkpt>
      <trkpt lat="45.71061" lon="4.75407">
        <ele>315.4</ele>
        <time>2025-03-02T08:20:04Z</time>
      </trkpt>
      <trkpt lat="45.71062" lon="4.75402">
        <ele>315.6</ele>
        <time>2025-03-02T08:20:05Z</time>
      </trkpt>
      <trkpt lat="45.71063" lon="4.75396">
        <ele>315.6</ele>
        <time>2025-03-02T08:20:06Z</time>
      </trkpt>
      <trkpt lat="45.71065" lon="4.75389">
        <ele>315.6</ele>
        <time>2025-03-02T08:20:07Z</time>
      </trkpt>
      <trkpt lat="45.71067" lon="4.75382">
        <ele>315.6</ele>
        <time>2025-03-02T08:20:08Z</time>
      </trkpt>
      <trkpt lat="45.71069" lon="4.75374">
        <ele>315.2</ele>
        <time>2025-03-02T08:20:09Z</time>
      </trkpt>
      <trkpt lat="45.71072" lon="4.75366">
        <ele>314.6</ele>
        <time>2025-03-02T08:20:10Z</time>
      </trkpt>
      <trkpt lat="45.71075" lon="4.75357">
        <ele>313.8</ele>
        <time>2025-03-02T08:20:11Z</time>
      </trkpt>
      <trkpt lat="45.71078" lon="4.75347">
        <ele>313.2</ele>
        <time>2025-03-02T08:20:12Z</time>
      </trkpt>
      <trkpt lat="45.7108" lon="4.75337">
        <ele>312.4</ele>
        <time>2025-03-02T08:20:13Z</time>
      </trkpt>
      <trkpt lat="45.71083" lon="4.75325">
        <ele>311.4</ele>
        <time>2025-03-02T08:20:14Z</time>
      </trkpt>
      <trkpt lat="45.71086" lon="4.75313">
        <ele>310.2</ele>
        <time>2025-03-02T08:20:15Z</time>
      </trkpt>
      <trkpt lat="45.7109" lon="4.75299">
        <ele>308.6</ele>
        <time>2025-03-02T08:20:16Z</time>
      </trkpt>
      <trkpt lat="45.71097" lon="4.75286">
        <ele>306.8</ele>
        <time>2025-03-02T08:20:17Z</time>
      </trkpt>
      <trkpt lat="45.71102" lon="4.75272">
        <ele>304.8</ele>
        <time>2025-03-02T08:20:18Z</time>
      </trkpt>
      <trkpt lat="45.71107" lon="4.75258">
        <ele>302.8</ele>
        <time>2025-03-02T08:20:19Z</time>
      </trkpt>
      <trkpt lat="45.71111" lon="4.75243">
        <ele>300.8</ele>
        <time>2025-03-02T08:20:20Z</time>
      </trkpt>
      <trkpt lat="45.71115" lon="4.75228">
        <ele>299.2</ele>
        <time>2025-03-02T08:20:21Z</time>
      </trkpt>
      <trkpt lat="45.71116" lon="4.75213">
        <ele>298</ele>
        <time>2025-03-02T08:20:22Z</time>
      </trkpt>
      <trkpt lat="45.71116" lon="4.75199">
        <ele>297.2</ele>
        <time>2025-03-02T08:20:23Z</time>
      </trkpt>
      <trkpt lat="45.71115" lon="4.75185">
        <ele>297.2</ele>
        <time>2025-03-02T08:20:24Z</time>
      </trkpt>
      <trkpt lat="45.71114" lon="4.75172">
        <ele>297.2</ele>
        <time>2025-03-02T08:20:25Z</time>
      </trkpt>
      <trkpt lat="45.71111" lon="4.7516">
        <ele>297.2</ele>
        <time>2025-03-02T08:20:26Z</time>
      </trkpt>
      <trkpt lat="45.71109" lon="4.75149">
        <ele>297.4</ele>
        <time>2025-03-02T08:20:27Z</time>
      </trkpt>
      <trkpt lat="45.71107" lon="4.75139">
        <ele>298.2</ele>
        <time>2025-03-02T08:20:28Z</time>
      </trkpt>
      <trkpt lat="45.71106" lon="4.7513">
        <ele>299</ele>
        <time>2025-03-02T08:20:29Z</time>
      </trkpt>
      <trkpt lat="45.71105" lon="4.75122">
        <ele>300.6</ele>
        <time>2025-03-02T08:20:30Z</time>
      </trkpt>
      <trkpt lat="45.71105" lon="4.75114">
        <ele>301.8</ele>
        <time>2025-03-02T08:20:31Z</time>
      </trkpt>
      <trkpt lat="45.71106" lon="4.75108">
        <ele>302.8</ele>
        <time>2025-03-02T08:20:32Z</time>
      </trkpt>
      <trkpt lat="45.71107" lon="4.75102">
        <ele>303.8</ele>
        <time>2025-03-02T08:20:33Z</time>
      </trkpt>
      <trkpt lat="45.71108" lon="4.75097">
        <ele>305</ele>
        <time>2025-03-02T08:20:34Z</time>
      </trkpt>
      <trkpt lat="45.71109" lon="4.75093">
        <ele>306</ele>
        <time>2025-03-02T08:20:35Z</time>
      </trkpt>
      <trkpt lat="45.7111" lon="4.75088">
        <ele>306.6</ele>
        <time>2025-03-02T08:20:36Z</time>
      </trkpt>
      <trkpt lat="45.71112" lon="4.75084">
        <ele>307.4</ele>
        <time>2025-03-02T08:20:37Z</time>
      </trkpt>
      <trkpt lat="45.71113" lon="4.75079">
        <ele>308.2</ele>
        <time>2025-03-02T08:20:38Z</time>
      </trkpt>
      <trkpt lat="45.71114" lon="4.75075">
        <ele>308.8</ele>
        <time>2025-03-02T08:20:39Z</time>
      </trkpt>
      <trkpt lat="45.71116" lon="4.7507">
        <ele>309.4</ele>
        <time>2025-03-02T08:20:40Z</time>
      </trkpt>
      <trkpt lat="45.71117" lon="4.75065">
        <ele>309.8</ele>
        <time>2025-03-02T08:20:41Z</time>
      </trkpt>
      <trkpt lat="45.71119" lon="4.75061">
        <ele>310.2</ele>
        <time>2025-03-02T08:20:42Z</time>
      </trkpt>
      <trkpt lat="45.71122" lon="4.75056">
        <ele>310.6</ele>
        <time>2025-03-02T08:20:43Z</time>
      </trkpt>
      <trkpt lat="45.71125" lon="4.75052">
        <ele>311</ele>
        <time>2025-03-02T08:20:44Z</time>
      </trkpt>
      <trkpt lat="45.71128" lon="4.75047">
        <ele>311</ele>
        <time>2025-03-02T08:20:45Z</time>
      </trkpt>
      <trkpt lat="45.7113" lon="4.75041">
        <ele>311.4</ele>
        <time>2025-03-02T08:20:46Z</time>
      </trkpt>
      <trkpt lat="45.71132" lon="4.75035">
        <ele>311.6</ele>
        <time>2025-03-02T08:20:47Z</time>
      </trkpt>
      <trkpt lat="45.71133" lon="4.75029">
        <ele>312.2</ele>
        <time>2025-03-02T08:20:48Z</time>
      </trkpt>
      <trkpt lat="45.71134" lon="4.75024">
        <ele>312.4</ele>
        <time>2025-03-02T08:20:49Z</time>
      </trkpt>
      <trkpt lat="45.71136" lon="4.75019">
        <ele>312.8</ele>
        <time>2025-03-02T08:20:50Z</time>
      </trkpt>
      <trkpt lat="45.71137" lon="4.75014">
        <ele>313.4</ele>
        <time>2025-03-02T08:20:51Z</time>
      </trkpt>
      <trkpt lat="45.71138" lon="4.75009">
        <ele>313.8</ele>
        <time>2025-03-02T08:20:52Z</time>
      </trkpt>
      <trkpt lat="45.71139" lon="4.75004">
        <ele>314</ele>
        <time>2025-03-02T08:20:53Z</time>
      </trkpt>
      <trkpt lat="45.71139" lon="4.74998">
        <ele>314</ele>
        <time>2025-03-02T08:20:54Z</time>
      </trkpt>
      <trkpt lat="45.71139" lon="4.74993">
        <ele>314.2</ele>
        <time>2025-03-02T08:20:55Z</time>
      </trkpt>
      <trkpt lat="45.7114" lon="4.74988">
        <ele>314.2</ele>
        <time>2025-03-02T08:20:56Z</time>
      </trkpt>
      <trkpt lat="45.7114" lon="4.74983">
        <ele>314.6</ele>
        <time>2025-03-02T08:20:57Z</time>
      </trkpt>
      <trkpt lat="45.71142" lon="4.74978">
        <ele>315</ele>
        <time>2025-03-02T08:20:58Z</time>
      </trkpt>
      <trkpt lat="45.71144" lon="4.74974">
        <ele>315.4</ele>
        <time>2025-03-02T08:20:59Z</time>
      </trkpt>
      <trkpt lat="45.71147" lon="4.7497">
        <ele>315.8</ele>
        <time>2025-03-02T08:21:00Z</time>
      </trkpt>
      <trkpt lat="45.7115" lon="4.74968">
        <ele>316</ele>
        <time>2025-03-02T08:21:01Z</time>
      </trkpt>
      <trkpt lat="45.71154" lon="4.74966">
        <ele>316</ele>
        <time>2025-03-02T08:21:02Z</time>
      </trkpt>
      <trkpt lat="45.71157" lon="4.74964">
        <ele>316.4</ele>
        <time>2025-03-02T08:21:03Z</time>
      </trkpt>
      <trkpt lat="45.71161" lon="4.74963">
        <ele>316.4</ele>
        <time>2025-03-02T08:21:04Z</time>
      </trkpt>
      <trkpt lat="45.71164" lon="4.74961">
        <ele>317.4</ele>
        <time>2025-03-02T08:21:05Z</time>
      </trkpt>
      <trkpt lat="45.71167" lon="4.7496">
        <ele>317.6</ele>
        <time>2025-03-02T08:21:06Z</time>
      </trkpt>
      <trkpt lat="45.71171" lon="4.74958">
        <ele>317.6</ele>
        <time>2025-03-02T08:21:07Z</time>
      </trkpt>
      <trkpt lat="45.71176" lon="4.74957">
        <ele>317.6</ele>
        <time>2025-03-02T08:21:08Z</time>
      </trkpt>
      <trkpt lat="45.7118" lon="4.74955">
        <ele>317.8</ele>
        <time>2025-03-02T08:21:09Z</time>
      </trkpt>
      <trkpt lat="45.71185" lon="4.74953">
        <ele>317.8</ele>
        <time>2025-03-02T08:21:10Z</time>
      </trkpt>
      <trkpt lat="45.7119" lon="4.74951">
        <ele>318</ele>
        <time>2025-03-02T08:21:11Z</time>
      </trkpt>
      <trkpt lat="45.71193" lon="4.74949">
        <ele>318</ele>
        <time>2025-03-02T08:21:12Z</time>
      </trkpt>
      <trkpt lat="45.71197" lon="4.74947">
        <ele>318.2</ele>
        <time>2025-03-02T08:21:13Z</time>
      </trkpt>
      <trkpt lat="45.71201" lon="4.74945">
        <ele>318.4</ele>
        <time>2025-03-02T08:21:14Z</time>
      </trkpt>
      <trkpt lat="45.71205" lon="4.74943">
        <ele>318.8</ele>
        <time>2025-03-02T08:21:15Z</time>
      </trkpt>
      <trkpt lat="45.71208" lon="4.7494">
        <ele>318.8</ele>
        <time>2025-03-02T08:21:16Z</time>
      </trkpt>
      <trkpt lat="45.71211" lon="4.74937">
        <ele>319</ele>
        <time>2025-03-02T08:21:17Z</time>
      </trkpt>
      <trkpt lat="45.71214" lon="4.74933">
        <ele>319.2</ele>
        <time>2025-03-02T08:21:18Z</time>
      </trkpt>
      <trkpt lat="45.71217" lon="4.7493">
        <ele>319.6</ele>
        <time>2025-03-02T08:21:19Z</time>
      </trkpt>
      <trkpt lat="45.7122" lon="4.74927">
        <ele>319.8</ele>
        <time>2025-03-02T08:21:20Z</time>
      </trkpt>
      <trkpt lat="45.71223" lon="4.74925">
        <ele>319.8</ele>
        <time>2025-03-02T08:21:21Z</time>
      </trkpt>
      <trkpt lat="45.71226" lon="4.74921">
        <ele>320</ele>
        <time>2025-03-02T08:21:22Z</time>
      </trkpt>
      <trkpt lat="45.71229" lon="4.74916">
        <ele>320.2</ele>
        <time>2025-03-02T08:21:23Z</time>
      </trkpt>
      <trkpt lat="45.71232" lon="4.7491">
        <ele>320.2</ele>
        <time>2025-03-02T08:21:24Z</time>
      </trkpt>
      <trkpt lat="45.71234" lon="4.74904">
        <ele>320.2</ele>
        <time>2025-03-02T08:21:25Z</time>
      </trkpt>
      <trkpt lat="45.71235" lon="4.74897">
        <ele>320.2</ele>
        <time>2025-03-02T08:21:26Z</time>
      </trkpt>
      <trkpt lat="45.71235" lon="4.74888">
        <ele>320</ele>
        <time>2025-03-02T08:21:27Z</time>
      </trkpt>
      <trkpt lat="45.71236" lon="4.7488">
        <ele>319.6</ele>
        <time>2025-03-02T08:21:28Z</time>
      </trkpt>
      <trkpt lat="45.71236" lon="4.74872">
        <ele>319.4</ele>
        <time>2025-03-02T08:21:29Z</time>
      </trkpt>
      <trkpt lat="45.71236" lon="4.74863">
        <ele>319</ele>
        <time>2025-03-02T08:21:30Z</time>
      </trkpt>
      <trkpt lat="45.71237" lon="4.74855">
        <ele>318.6</ele>
        <time>2025-03-02T08:21:31Z</time>
      </trkpt>
      <trkpt lat="45.71236" lon="4.74846">
        <ele>318.4</ele>
        <time>2025-03-02T08:21:32Z</time>
      </trkpt>
      <trkpt lat="45.71235" lon="4.74838">
        <ele>318</ele>
        <time>2025-03-02T08:21:33Z</time>
      </trkpt>
      <trkpt lat="45.71232" lon="4.7483">
        <ele>317.8</ele>
        <time>2025-03-02T08:21:34Z</time>
      </trkpt>
      <trkpt lat="45.7123" lon="4.74823">
        <ele>317.6</ele>
        <time>2025-03-02T08:21:35Z</time>
      </trkpt>
      <trkpt lat="45.71227" lon="4.74815">
        <ele>317.6</ele>
        <time>2025-03-02T08:21:36Z</time>
      </trkpt>
      <trkpt lat="45.71225" lon="4.74807">
        <ele>317.4</ele>
        <time>2025-03-02T08:21:37Z</time>
      </trkpt>
      <trkpt lat="45.71223" lon="4.74799">
        <ele>317.4</ele>
        <time>2025-03-02T08:21:38Z</time>
      </trkpt>
      <trkpt lat="45.71221" lon="4.74791">
        <ele>317.4</ele>
        <time>2025-03-02T08:21:39Z</time>
      </trkpt>
      <trkpt lat="45.71219" lon="4.74783">
        <ele>317.4</ele>
        <time>2025-03-02T08:21:40Z</time>
      </trkpt>
      <trkpt lat="45.71217" lon="4.74776">
        <ele>317.4</ele>
        <time>2025-03-02T08:21:41Z</time>
      </trkpt>
      <trkpt lat="45.71215" lon="4.74768">
        <ele>317.4</ele>
        <time>2025-03-02T08:21:42Z</time>
      </trkpt>
      <trkpt lat="45.71212" lon="4.74761">
        <ele>317.4</ele>
        <time>2025-03-02T08:21:43Z</time>
      </trkpt>
      <trkpt lat="45.7121" lon="4.74754">
        <ele>317.4</ele>
        <time>2025-03-02T08:21:44Z</time>
      </trkpt>
      <trkpt lat="45.71208" lon="4.74747">
        <ele>317.4</ele>
        <time>2025-03-02T08:21:45Z</time>
      </trkpt>
      <trkpt lat="45.71206" lon="4.74741">
        <ele>317.4</ele>
        <time>2025-03-02T08:21:46Z</time>
      </trkpt>
      <trkpt lat="45.71205" lon="4.74734">
        <ele>317.4</ele>
        <time>2025-03-02T08:21:47Z</time>
      </trkpt>
      <trkpt lat="45.71204" lon="4.74727">
        <ele>317.8</ele>
        <time>2025-03-02T08:21:48Z</time>
      </trkpt>
      <trkpt lat="45.71203" lon="4.74719">
        <ele>318.2</ele>
        <time>2025-03-02T08:21:49Z</time>
      </trkpt>
      <trkpt lat="45.71202" lon="4.74712">
        <ele>318.6</ele>
        <time>2025-03-02T08:21:50Z</time>
      </trkpt>
      <trkpt lat="45.71202" lon="4.74705">
        <ele>319</ele>
        <time>2025-03-02T08:21:51Z</time>
      </trkpt>
      <trkpt lat="45.71202" lon="4.74699">
        <ele>319.2</ele>
        <time>2025-03-02T08:21:52Z</time>
      </trkpt>
      <trkpt lat="45.71202" lon="4.74692">
        <ele>319.2</ele>
        <time>2025-03-02T08:21:53Z</time>
      </trkpt>
      <trkpt lat="45.71202" lon="4.74685">
        <ele>319.4</ele>
        <time>2025-03-02T08:21:54Z</time>
      </trkpt>
      <trkpt lat="45.71203" lon="4.74678">
        <ele>319.6</ele>
        <time>2025-03-02T08:21:55Z</time>
      </trkpt>
      <trkpt lat="45.71204" lon="4.74671">
        <ele>320</ele>
        <time>2025-03-02T08:21:56Z</time>
      </trkpt>
      <trkpt lat="45.71204" lon="4.74664">
        <ele>320</ele>
        <time>2025-03-02T08:21:57Z</time>
      </trkpt>
      <trkpt lat="45.71205" lon="4.74656">
        <ele>320</ele>
        <time>2025-03-02T08:21:58Z</time>
      </trkpt>
      <trkpt lat="45.71205" lon="4.74649">
        <ele>320</ele>
        <time>2025-03-02T08:21:59Z</time>
      </trkpt>
      <trkpt lat="45.71205" lon="4.74642">
        <ele>320</ele>
        <time>2025-03-02T08:22:00Z</time>
      </trkpt>
      <trkpt lat="45.71206" lon="4.74634">
        <ele>319.8</ele>
        <time>2025-03-02T08:22:01Z</time>
      </trkpt>
      <trkpt lat="45.71206" lon="4.74627">
        <ele>319.8</ele>
        <time>2025-03-02T08:22:02Z</time>
      </trkpt>
      <trkpt lat="45.71207" lon="4.7462">
        <ele>319.8</ele>
        <time>2025-03-02T08:22:03Z</time>
      </trkpt>
      <trkpt lat="45.71207" lon="4.74613">
        <ele>319.6</ele>
        <time>2025-03-02T08:22:04Z</time>
      </trkpt>
      <trkpt lat="45.71207" lon="4.74605">
        <ele>319.6</ele>
        <time>2025-03-02T08:22:05Z</time>
      </trkpt>
      <trkpt lat="45.71208" lon="4.74598">
        <ele>319.6</ele>
        <time>2025-03-02T08:22:06Z</time>
      </trkpt>
      <trkpt lat="45.71209" lon="4.74591">
        <ele>319.6</ele>
        <time>2025-03-02T08:22:07Z</time>
      </trkpt>
      <trkpt lat="45.7121" lon="4.74584">
        <ele>319.6</ele>
        <time>2025-03-02T08:22:08Z</time>
      </trkpt>
      <trkpt lat="45.71211" lon="4.74577">
        <ele>319.8</ele>
        <time>2025-03-02T08:22:09Z</time>
      </trkpt>
      <trkpt lat="45.71213" lon="4.74571">
        <ele>320</ele>
        <time>2025-03-02T08:22:10Z</time>
      </trkpt>
      <trkpt lat="45.71214" lon="4.74564">
        <ele>320.2</ele>
        <time>2025-03-02T08:22:11Z</time>
      </trkpt>
      <trkpt lat="45.71216" lon="4.74558">
        <ele>320.4</ele>
        <time>2025-03-02T08:22:12Z</time>
      </trkpt>
      <trkpt lat="45.71218" lon="4.74552">
        <ele>320.6</ele>
        <time>2025-03-02T08:22:13Z</time>
      </trkpt>
      <trkpt lat="45.71219" lon="4.74546">
        <ele>321</ele>
        <time>2025-03-02T08:22:14Z</time>
      </trkpt>
      <trkpt lat="45.7122" lon="4.74539">
        <ele>321.2</ele>
        <time>2025-03-02T08:22:15Z</time>
      </trkpt>
      <trkpt lat="45.71221" lon="4.74531">
        <ele>321.2</ele>
        <time>2025-03-02T08:22:16Z</time>
      </trkpt>
      <trkpt lat="45.71222" lon="4.74524">
        <ele>321.2</ele>
        <time>2025-03-02T08:22:17Z</time>
      </trkpt>
      <trkpt lat="45.71223" lon="4.74517">
        <ele>321.2</ele>
        <time>2025-03-02T08:22:18Z</time>
      </trkpt>
      <trkpt lat="45.71223" lon="4.74511">
        <ele>321.2</ele>
        <time>2025-03-02T08:22:19Z</time>
      </trkpt>
      <trkpt lat="45.71224" lon="4.74504">
        <ele>321.2</ele>
        <time>2025-03-02T08:22:20Z</time>
      </trkpt>
      <trkpt lat="45.71225" lon="4.74497">
        <ele>321.2</ele>
        <time>2025-03-02T08:22:21Z</time>
      </trkpt>
      <trkpt lat="45.71225" lon="4.74489">
        <ele>321.2</ele>
        <time>2025-03-02T08:22:22Z</time>
      </trkpt>
      <trkpt lat="45.71225" lon="4.74482">
        <ele>321.4</ele>
        <time>2025-03-02T08:22:23Z</time>
      </trkpt>
      <trkpt lat="45.71225" lon="4.74475">
        <ele>321.4</ele>
        <time>2025-03-02T08:22:24Z</time>
      </trkpt>
      <trkpt lat="45.71225" lon="4.74468">
        <ele>321.4</ele>
        <time>2025-03-02T08:22:25Z</time>
      </trkpt>
      <trkpt lat="45.71225" lon="4.7446">
        <ele>321.2</ele>
        <time>2025-03-02T08:22:26Z</time>
      </trkpt>
      <trkpt lat="45.71224" lon="4.74453">
        <ele>321.2</ele>
        <time>2025-03-02T08:22:27Z</time>
      </trkpt>
      <trkpt lat="45.71223" lon="4.74446">
        <ele>321</ele>
        <time>2025-03-02T08:22:28Z</time>
      </trkpt>
      <trkpt lat="45.71224" lon="4.74438">
        <ele>320.8</ele>
        <time>2025-03-02T08:22:29Z</time>
      </trkpt>
      <trkpt lat="45.71225" lon="4.74431">
        <ele>320.6</ele>
        <time>2025-03-02T08:22:30Z</time>
      </trkpt>
      <trkpt lat="45.71225" lon="4.74423">
        <ele>320.4</ele>
        <time>2025-03-02T08:22:31Z</time>
      </trkpt>
      <trkpt lat="45.71226" lon="4.74415">
        <ele>320.2</ele>
        <time>2025-03-02T08:22:32Z</time>
      </trkpt>
      <trkpt lat="45.71226" lon="4.74407">
        <ele>320.2</ele>
        <time>2025-03-02T08:22:33Z</time>
      </trkpt>
      <trkpt lat="45.71226" lon="4.74398">
        <ele>319.8</ele>
        <time>2025-03-02T08:22:34Z</time>
      </trkpt>
      <trkpt lat="45.71225" lon="4.7439">
        <ele>319.8</ele>
        <time>2025-03-02T08:22:35Z</time>
      </trkpt>
      <trkpt lat="45.71223" lon="4.74381">
        <ele>319.6</ele>
        <time>2025-03-02T08:22:36Z</time>
      </trkpt>
      <trkpt lat="45.71222" lon="4.74372">
        <ele>319.4</ele>
        <time>2025-03-02T08:22:37Z</time>
      </trkpt>
      <trkpt lat="45.71221" lon="4.74363">
        <ele>319.2</ele>
        <time>2025-03-02T08:22:38Z</time>
      </trkpt>
      <trkpt lat="45.71219" lon="4.74354">
        <ele>318.8</ele>
        <time>2025-03-02T08:22:39Z</time>
      </trkpt>
      <trkpt lat="45.71218" lon="4.74345">
        <ele>318.4</ele>
        <time>2025-03-02T08:22:40Z</time>
      </trkpt>
      <trkpt lat="45.71216" lon="4.74337">
        <ele>318.2</ele>
        <time>2025-03-02T08:22:41Z</time>
      </trkpt>
      <trkpt lat="45.71214" lon="4.74328">
        <ele>318</ele>
        <time>2025-03-02T08:22:42Z</time>
      </trkpt>
      <trkpt lat="45.71211" lon="4.7432">
        <ele>317.6</ele>
        <time>2025-03-02T08:22:43Z</time>
      </trkpt>
      <trkpt lat="45.71209" lon="4.74312">
        <ele>317.4</ele>
        <time>2025-03-02T08:22:44Z</time>
      </trkpt>
      <trkpt lat="45.71207" lon="4.74303">
        <ele>317.4</ele>
        <time>2025-03-02T08:22:45Z</time>
      </trkpt>
      <trkpt lat="45.71205" lon="4.74295">
        <ele>317.2</ele>
        <time>2025-03-02T08:22:46Z</time>
      </trkpt>
      <trkpt lat="45.71203" lon="4.74287">
        <ele>317.2</ele>
        <time>2025-03-02T08:22:47Z</time>
      </trkpt>
      <trkpt lat="45.71201" lon="4.7428">
        <ele>317.2</ele>
        <time>2025-03-02T08:22:48Z</time>
      </trkpt>
      <trkpt lat="45.71199" lon="4.74272">
        <ele>317.2</ele>
        <time>2025-03-02T08:22:49Z</time>
      </trkpt>
      <trkpt lat="45.71196" lon="4.74264">
        <ele>317.2</ele>
        <time>2025-03-02T08:22:50Z</time>
      </trkpt>
      <trkpt lat="45.71195" lon="4.74256">
        <ele>317.2</ele>
        <time>2025-03-02T08:22:51Z</time>
      </trkpt>
      <trkpt lat="45.71193" lon="4.74249">
        <ele>317.2</ele>
        <time>2025-03-02T08:22:52Z</time>
      </trkpt>
      <trkpt lat="45.71192" lon="4.74241">
        <ele>317.2</ele>
        <time>2025-03-02T08:22:53Z</time>
      </trkpt>
      <trkpt lat="45.7119" lon="4.74234">
        <ele>317.2</ele>
        <time>2025-03-02T08:22:54Z</time>
      </trkpt>
      <trkpt lat="45.71188" lon="4.74226">
        <ele>317.2</ele>
        <time>2025-03-02T08:22:55Z</time>
      </trkpt>
      <trkpt lat="45.71187" lon="4.74219">
        <ele>317.4</ele>
        <time>2025-03-02T08:22:56Z</time>
      </trkpt>
      <trkpt lat="45.71186" lon="4.74211">
        <ele>317.6</ele>
        <time>2025-03-02T08:22:57Z</time>
      </trkpt>
      <trkpt lat="45.71184" lon="4.74204">
        <ele>317.8</ele>
        <time>2025-03-02T08:22:58Z</time>
      </trkpt>
      <trkpt lat="45.71183" lon="4.74197">
        <ele>318</ele>
        <time>2025-03-02T08:22:59Z</time>
      </trkpt>
      <trkpt lat="45.71182" lon="4.7419">
        <ele>318</ele>
        <time>2025-03-02T08:23:00Z</time>
      </trkpt>
      <trkpt lat="45.71181" lon="4.74183">
        <ele>318</ele>
        <time>2025-03-02T08:23:01Z</time>
      </trkpt>
      <trkpt lat="45.71179" lon="4.74176">
        <ele>318.2</ele>
        <time>2025-03-02T08:23:02Z</time>
      </trkpt>
      <trkpt lat="45.71178" lon="4.7417">
        <ele>318.4</ele>
        <time>2025-03-02T08:23:03Z</time>
      </trkpt>
      <trkpt lat="45.71177" lon="4.74163">
        <ele>318.6</ele>
        <time>2025-03-02T08:23:04Z</time>
      </trkpt>
      <trkpt lat="45.71175" lon="4.74156">
        <ele>318.6</ele>
        <time>2025-03-02T08:23:05Z</time>
      </trkpt>
      <trkpt lat="45.71174" lon="4.7415">
        <ele>318.8</ele>
        <time>2025-03-02T08:23:06Z</time>
      </trkpt>
      <trkpt lat="45.71173" lon="4.74143">
        <ele>319</ele>
        <time>2025-03-02T08:23:07Z</time>
      </trkpt>
      <trkpt lat="45.71173" lon="4.74136">
        <ele>319.2</ele>
        <time>2025-03-02T08:23:08Z</time>
      </trkpt>
      <trkpt lat="45.71172" lon="4.7413">
        <ele>319.4</ele>
        <time>2025-03-02T08:23:09Z</time>
      </trkpt>
      <trkpt lat="45.71171" lon="4.74124">
        <ele>319.6</ele>
        <time>2025-03-02T08:23:10Z</time>
      </trkpt>
      <trkpt lat="45.7117" lon="4.74117">
        <ele>320</ele>
        <time>2025-03-02T08:23:11Z</time>
      </trkpt>
      <trkpt lat="45.71169" lon="4.74111">
        <ele>320.2</ele>
        <time>2025-03-02T08:23:12Z</time>
      </trkpt>
      <trkpt lat="45.71168" lon="4.74105">
        <ele>320.2</ele>
        <time>2025-03-02T08:23:13Z</time>
      </trkpt>
      <trkpt lat="45.71167" lon="4.74099">
        <ele>320.4</ele>
        <time>2025-03-02T08:23:14Z</time>
      </trkpt>
      <trkpt lat="45.71166" lon="4.74092">
        <ele>320.4</ele>
        <time>2025-03-02T08:23:15Z</time>
      </trkpt>
      <trkpt lat="45.71165" lon="4.74086">
        <ele>320.6</ele>
        <time>2025-03-02T08:23:16Z</time>
      </trkpt>
      <trkpt lat="45.71164" lon="4.7408">
        <ele>320.6</ele>
        <time>2025-03-02T08:23:17Z</time>
      </trkpt>
      <trkpt lat="45.71163" lon="4.74074">
        <ele>320.8</ele>
        <time>2025-03-02T08:23:18Z</time>
      </trkpt>
      <trkpt lat="45.71164" lon="4.74069">
        <ele>321</ele>
        <time>2025-03-02T08:23:19Z</time>
      </trkpt>
      <trkpt lat="45.71164" lon="4.74063">
        <ele>321.2</ele>
        <time>2025-03-02T08:23:20Z</time>
      </trkpt>
      <trkpt lat="45.71164" lon="4.74058">
        <ele>321.6</ele>
        <time>2025-03-02T08:23:21Z</time>
      </trkpt>
      <trkpt lat="45.71164" lon="4.74052">
        <ele>321.6</ele>
        <time>2025-03-02T08:23:22Z</time>
      </trkpt>
      <trkpt lat="45.71166" lon="4.74047">
        <ele>321.8</ele>
        <time>2025-03-02T08:23:23Z</time>
      </trkpt>
      <trkpt lat="45.71167" lon="4.74042">
        <ele>322</ele>
        <time>2025-03-02T08:23:24Z</time>
      </trkpt>
      <trkpt lat="45.71167" lon="4.74036">
        <ele>322</ele>
        <time>2025-03-02T08:23:25Z</time>
      </trkpt>
      <trkpt lat="45.71168" lon="4.74031">
        <ele>322.2</ele>
        <time>2025-03-02T08:23:26Z</time>
      </trkpt>
      <trkpt lat="45.71169" lon="4.74026">
        <ele>322.2</ele>
        <time>2025-03-02T08:23:27Z</time>
      </trkpt>
      <trkpt lat="45.7117" lon="4.74021">
        <ele>322.4</ele>
        <time>2025-03-02T08:23:28Z</time>
      </trkpt>
      <trkpt lat="45.7117" lon="4.74015">
        <ele>322.6</ele>
        <time>2025-03-02T08:23:29Z</time>
      </trkpt>
      <trkpt lat="45.71171" lon="4.7401">
        <ele>322.8</ele>
        <time>2025-03-02T08:23:30Z</time>
      </trkpt>
      <trkpt lat="45.71171" lon="4.74005">
        <ele>322.8</ele>
        <time>2025-03-02T08:23:31Z</time>
      </trkpt>
      <trkpt lat="45.71171" lon="4.73999">
        <ele>322.8</ele>
        <time>2025-03-02T08:23:32Z</time>
      </trkpt>
      <trkpt lat="45.71171" lon="4.73993">
        <ele>322.8</ele>
        <time>2025-03-02T08:23:33Z</time>
      </trkpt>
      <trkpt lat="45.71172" lon="4.73988">
        <ele>322.6</ele>
        <time>2025-03-02T08:23:34Z</time>
      </trkpt>
      <trkpt lat="45.71173" lon="4.73983">
        <ele>322.6</ele>
        <time>2025-03-02T08:23:35Z</time>
      </trkpt>
      <trkpt lat="45.71174" lon="4.73977">
        <ele>322.4</ele>
        <time>2025-03-02T08:23:36Z</time>
      </trkpt>
      <trkpt lat="45.71174" lon="4.73972">
        <ele>322.4</ele>
        <time>2025-03-02T08:23:37Z</time>
      </trkpt>
      <trkpt lat="45.71174" lon="4.73966">
        <ele>322.4</ele>
        <time>2025-03-02T08:23:38Z</time>
      </trkpt>
      <trkpt lat="45.71173" lon="4.7396">
        <ele>322.4</ele>
        <time>2025-03-02T08:23:39Z</time>
      </trkpt>
      <trkpt lat="45.7117" lon="4.73955">
        <ele>322.4</ele>
        <time>2025-03-02T08:23:40Z</time>
      </trkpt>
      <trkpt lat="45.71167" lon="4.73951">
        <ele>322.4</ele>
        <time>2025-03-02T08:23:41Z</time>
      </trkpt>
      <trkpt lat="45.71163" lon="4.73947">
        <ele>322.2</ele>
        <time>2025-03-02T08:23:42Z</time>
      </trkpt>
      <trkpt lat="45.71159" lon="4.73944">
        <ele>322</ele>
        <time>2025-03-02T08:23:43Z</time>
      </trkpt>
      <trkpt lat="45.71155" lon="4.7394">
        <ele>322</ele>
        <time>2025-03-02T08:23:44Z</time>
      </trkpt>
      <trkpt lat="45.71151" lon="4.73937">
        <ele>322</ele>
        <time>2025-03-02T08:23:45Z</time>
      </trkpt>
      <trkpt lat="45.71146" lon="4.73933">
        <ele>322</ele>
        <time>2025-03-02T08:23:46Z</time>
      </trkpt>
      <trkpt lat="45.71142" lon="4.73929">
        <ele>322</ele>
        <time>2025-03-02T08:23:47Z</time>
      </trkpt>
      <trkpt lat="45.71138" lon="4.73926">
        <ele>321.8</ele>
        <time>2025-03-02T08:23:48Z</time>
      </trkpt>
      <trkpt lat="45.71133" lon="4.73922">
        <ele>321.8</ele>
        <time>2025-03-02T08:23:49Z</time>
      </trkpt>
      <trkpt lat="45.71129" lon="4.73918">
        <ele>321.8</ele>
        <time>2025-03-02T08:23:50Z</time>
      </trkpt>
      <trkpt lat="45.71125" lon="4.73914">
        <ele>321.8</ele>
        <time>2025-03-02T08:23:51Z</time>
      </trkpt>
      <trkpt lat="45.71121" lon="4.7391">
        <ele>321.6</ele>
        <time>2025-03-02T08:23:52Z</time>
      </trkpt>
      <trkpt lat="45.71118" lon="4.73908">
        <ele>321.6</ele>
        <time>2025-03-02T08:23:53Z</time>
      </trkpt>
      <trkpt lat="45.71115" lon="4.73905">
        <ele>321.6</ele>
        <time>2025-03-02T08:23:54Z</time>
      </trkpt>
      <trkpt lat="45.71113" lon="4.73902">
        <ele>321.4</ele>
        <time>2025-03-02T08:23:55Z</time>
      </trkpt>
      <trkpt lat="45.71112" lon="4.73901">
        <ele>321.4</ele>
        <time>2025-03-02T08:23:56Z</time>
      </trkpt>
      <trkpt lat="45.71111" lon="4.739">
        <ele>321.4</ele>
        <time>2025-03-02T08:23:57Z</time>
      </trkpt>
      <trkpt lat="45.71111" lon="4.739">
        <ele>321.4</ele>
        <time>2025-03-02T08:23:58Z</time>
      </trkpt>
      <trkpt lat="45.71111" lon="4.739">
        <ele>321.6</ele>
        <time>2025-03-02T08:23:59Z</time>
      </trkpt>
      <trkpt lat="45.71111" lon="4.739">
        <ele>321.6</ele>
        <time>2025-03-02T08:24:00Z</time>
      </trkpt>
      <trkpt lat="45.71111" lon="4.739">
        <ele>321.6</ele>
        <time>2025-03-02T08:24:01Z</time>
      </trkpt>
      <trkpt lat="45.71111" lon="4.739">
        <ele>321.6</ele>
        <time>2025-03-02T08:24:02Z</time>
      </trkpt>
      <trkpt lat="45.71111" lon="4.739">
        <ele>321.6</ele>
        <time>2025-03-02T08:24:03Z</time>
      </trkpt>
      <trkpt lat="45.71111" lon="4.739">
        <ele>321.6</ele>
        <time>2025-03-02T08:24:04Z</time>
      </trkpt>
      <trkpt lat="45.71111" lon="4.739">
        <ele>321.6</ele>
        <time>2025-03-02T08:24:05Z</time>
      </trkpt>
      <trkpt lat="45.71111" lon="4.739">
        <ele>321.6</ele>
        <time>2025-03-02T08:24:06Z</time>
      </trkpt>
      <trkpt lat="45.71111" lon="4.739">
        <ele>321.6</ele>
        <time>2025-03-02T08:24:07Z</time>
      </trkpt>
      <trkpt lat="45.71111" lon="4.739">
        <ele>321.6</ele>
        <time>2025-03-02T08:24:08Z</time>
      </trkpt>
      <trkpt lat="45.71111" lon="4.739">
        <ele>321.6</ele>
        <time>2025-03-02T08:24:09Z</time>
      </trkpt>
      <trkpt lat="45.71111" lon="4.739">
        <ele>321.6</ele>
        <time>2025-03-02T08:24:10Z</time>
      </trkpt>
      <trkpt lat="45.71111" lon="4.739">
        <ele>321.6</ele>
        <time>2025-03-02T08:24:11Z</time>
      </trkpt>
      <trkpt lat="45.71111" lon="4.739">
        <ele>321.6</ele>
        <time>2025-03-02T08:24:12Z</time>
      </trkpt>
      <trkpt lat="45.71111" lon="4.739">
        <ele>321.6</ele>
        <time>2025-03-02T08:24:13Z</time>
      </trkpt>
      <trkpt lat="45.71111" lon="4.739">
        <ele>321.2</ele>
        <time>2025-03-02T08:24:14Z</time>
      </trkpt>
      <trkpt lat="45.71111" lon="4.739">
        <ele>321.2</ele>
        <time>2025-03-02T08:24:15Z</time>
      </trkpt>
      <trkpt lat="45.71111" lon="4.739">
        <ele>321.4</ele>
        <time>2025-03-02T08:24:16Z</time>
      </trkpt>
      <trkpt lat="45.71111" lon="4.739">
        <ele>321.4</ele>
        <time>2025-03-02T08:24:17Z</time>
      </trkpt>
      <trkpt lat="45.71111" lon="4.739">
        <ele>321.4</ele>
        <time>2025-03-02T08:24:18Z</time>
      </trkpt>
      <trkpt lat="45.71111" lon="4.739">
        <ele>321.4</ele>
        <time>2025-03-02T08:24:19Z</time>
      </trkpt>
      <trkpt lat="45.71111" lon="4.739">
        <ele>321.4</ele>
        <time>2025-03-02T08:24:20Z</time>
      </trkpt>
      <trkpt lat="45.71111" lon="4.739">
        <ele>321.4</ele>
        <time>2025-03-02T08:24:21Z</time>
      </trkpt>
      <trkpt lat="45.71111" lon="4.739">
        <ele>321.4</ele>
        <time>2025-03-02T08:24:22Z</time>
      </trkpt>
      <trkpt lat="45.71111" lon="4.739">
        <ele>321.4</ele>
        <time>2025-03-02T08:24:23Z</time>
      </trkpt>
      <trkpt lat="45.71111" lon="4.739">
        <ele>321.4</ele>
        <time>2025-03-02T08:24:24Z</time>
      </trkpt>
      <trkpt lat="45.71111" lon="4.739">
        <ele>321.4</ele>
        <time>2025-03-02T08:24:25Z</time>
      </trkpt>
      <trkpt lat="45.71111" lon="4.739">
        <ele>321.4</ele>
        <time>2025-03-02T08:24:26Z</time>
      </trkpt>
      <trkpt lat="45.71111" lon="4.739">
        <ele>321.4</ele>
        <time>2025-03-02T08:24:27Z</time>
      </trkpt>
      <trkpt lat="45.71111" lon="4.739">
        <ele>321.4</ele>
        <time>2025-03-02T08:24:28Z</time>
      </trkpt>
      <trkpt lat="45.71111" lon="4.739">
        <ele>321.4</ele>
        <time>2025-03-02T08:24:29Z</time>
      </trkpt>
      <trkpt lat="45.71111" lon="4.739">
        <ele>321.4</ele>
        <time>2025-03-02T08:24:30Z</time>
      </trkpt>
      <trkpt lat="45.71111" lon="4.739">
        <ele>321.4</ele>
        <time>2025-03-02T08:24:31Z</time>
      </trkpt>
      <trkpt lat="45.7111" lon="4.739">
        <ele>321.4</ele>
        <time>2025-03-02T08:24:32Z</time>
      </trkpt>
      <trkpt lat="45.71109" lon="4.73899">
        <ele>321.4</ele>
        <time>2025-03-02T08:24:33Z</time>
      </trkpt>
      <trkpt lat="45.71107" lon="4.73897">
        <ele>321.2</ele>
        <time>2025-03-02T08:24:34Z</time>
      </trkpt>
      <trkpt lat="45.71104" lon="4.73897">
        <ele>321.2</ele>
        <time>2025-03-02T08:24:35Z</time>
      </trkpt>
      <trkpt lat="45.71102" lon="4.73898">
        <ele>321.2</ele>
        <time>2025-03-02T08:24:36Z</time>
      </trkpt>
      <trkpt lat="45.711" lon="4.73901">
        <ele>320.8</ele>
        <time>2025-03-02T08:24:37Z</time>
      </trkpt>
      <trkpt lat="45.71098" lon="4.73904">
        <ele>320.6</ele>
        <time>2025-03-02T08:24:38Z</time>
      </trkpt>
      <trkpt lat="45.71096" lon="4.73908">
        <ele>320.6</ele>
        <time>2025-03-02T08:24:39Z</time>
      </trkpt>
      <trkpt lat="45.71096" lon="4.73912">
        <ele>320.4</ele>
        <time>2025-03-02T08:24:40Z</time>
      </trkpt>
      <trkpt lat="45.71097" lon="4.73916">
        <ele>320.4</ele>
        <time>2025-03-02T08:24:41Z</time>
      </trkpt>
      <trkpt lat="45.711" lon="4.73916">
        <ele>320.2</ele>
        <time>2025-03-02T08:24:42Z</time>
      </trkpt>
      <trkpt lat="45.71103" lon="4.73915">
        <ele>320.2</ele>
        <time>2025-03-02T08:24:43Z</time>
      </trkpt>
      <trkpt lat="45.71104" lon="4.73911">
        <ele>320.2</ele>
        <time>2025-03-02T08:24:44Z</time>
      </trkpt>
      <trkpt lat="45.71103" lon="4.73908">
        <ele>320.4</ele>
        <time>2025-03-02T08:24:45Z</time>
      </trkpt>
      <trkpt lat="45.71101" lon="4.73904">
        <ele>320.4</ele>
        <time>2025-03-02T08:24:46Z</time>
      </trkpt>
      <trkpt lat="45.71098" lon="4.73899">
        <ele>320.4</ele>
        <time>2025-03-02T08:24:47Z</time>
      </trkpt>
      <trkpt lat="45.71095" lon="4.73894">
        <ele>320.4</ele>
        <time>2025-03-02T08:24:48Z</time>
      </trkpt>
      <trkpt lat="45.71093" lon="4.73888">
        <ele>320.4</ele>
        <time>2025-03-02T08:24:49Z</time>
      </trkpt>
      <trkpt lat="45.7109" lon="4.73881">
        <ele>320.4</ele>
        <time>2025-03-02T08:24:50Z</time>
      </trkpt>
      <trkpt lat="45.71087" lon="4.73875">
        <ele>320.4</ele>
        <time>2025-03-02T08:24:51Z</time>
      </trkpt>
      <trkpt lat="45.71084" lon="4.73871">
        <ele>320.2</ele>
        <time>2025-03-02T08:24:52Z</time>
      </trkpt>
      <trkpt lat="45.7108" lon="4.73868">
        <ele>320</ele>
        <time>2025-03-02T08:24:53Z</time>
      </trkpt>
      <trkpt lat="45.71075" lon="4.73866">
        <ele>319.8</ele>
        <time>2025-03-02T08:24:54Z</time>
      </trkpt>
      <trkpt lat="45.7107" lon="4.73864">
        <ele>319.8</ele>
        <time>2025-03-02T08:24:55Z</time>
      </trkpt>
      <trkpt lat="45.71065" lon="4.73861">
        <ele>319.6</ele>
        <time>2025-03-02T08:24:56Z</time>
      </trkpt>
      <trkpt lat="45.7106" lon="4.73857">
        <ele>319.4</ele>
        <time>2025-03-02T08:24:57Z</time>
      </trkpt>
      <trkpt lat="45.71056" lon="4.73852">
        <ele>319.2</ele>
        <time>2025-03-02T08:24:58Z</time>
      </trkpt>
      <trkpt lat="45.71052" lon="4.73847">
        <ele>319</ele>
        <time>2025-03-02T08:24:59Z</time>
      </trkpt>
      <trkpt lat="45.71048" lon="4.73843">
        <ele>318.8</ele>
        <time>2025-03-02T08:25:00Z</time>
      </trkpt>
      <trkpt lat="45.71043" lon="4.73838">
        <ele>318.6</ele>
        <time>2025-03-02T08:25:01Z</time>
      </trkpt>
      <trkpt lat="45.71039" lon="4.73833">
        <ele>318.4</ele>
        <time>2025-03-02T08:25:02Z</time>
      </trkpt>
      <trkpt lat="45.71035" lon="4.73829">
        <ele>318.4</ele>
        <time>2025-03-02T08:25:03Z</time>
      </trkpt>
      <trkpt lat="45.71031" lon="4.73825">
        <ele>318.4</ele>
        <time>2025-03-02T08:25:04Z</time>
      </trkpt>
      <trkpt lat="45.71027" lon="4.73821">
        <ele>318.2</ele>
        <time>2025-03-02T08:25:05Z</time>
      </trkpt>
      <trkpt lat="45.71024" lon="4.73817">
        <ele>318.2</ele>
        <time>2025-03-02T08:25:06Z</time>
      </trkpt>
      <trkpt lat="45.7102" lon="4.73813">
        <ele>318</ele>
        <time>2025-03-02T08:25:07Z</time>
      </trkpt>
      <trkpt lat="45.71017" lon="4.73809">
        <ele>318</ele>
        <time>2025-03-02T08:25:08Z</time>
      </trkpt>
      <trkpt lat="45.71014" lon="4.73805">
        <ele>318</ele>
        <time>2025-03-02T08:25:09Z</time>
      </trkpt>
      <trkpt lat="45.71011" lon="4.73801">
        <ele>318</ele>
        <time>2025-03-02T08:25:10Z</time>
      </trkpt>
      <trkpt lat="45.71008" lon="4.73797">
        <ele>317.8</ele>
        <time>2025-03-02T08:25:11Z</time>
      </trkpt>
      <trkpt lat="45.71004" lon="4.73793">
        <ele>317.8</ele>
        <time>2025-03-02T08:25:12Z</time>
      </trkpt>
      <trkpt lat="45.71001" lon="4.73789">
        <ele>317.8</ele>
        <time>2025-03-02T08:25:13Z</time>
      </trkpt>
      <trkpt lat="45.70997" lon="4.73785">
        <ele>317.4</ele>
        <time>2025-03-02T08:25:14Z</time>
      </trkpt>
      <trkpt lat="45.70993" lon="4.73781">
        <ele>317.4</ele>
        <time>2025-03-02T08:25:15Z</time>
      </trkpt>
      <trkpt lat="45.70988" lon="4.73777">
        <ele>317.2</ele>
        <time>2025-03-02T08:25:16Z</time>
      </trkpt>
      <trkpt lat="45.70984" lon="4.73773">
        <ele>317</ele>
        <time>2025-03-02T08:25:17Z</time>
      </trkpt>
      <trkpt lat="45.7098" lon="4.73768">
        <ele>316.8</ele>
        <time>2025-03-02T08:25:18Z</time>
      </trkpt>
      <trkpt lat="45.70976" lon="4.73762">
        <ele>316.6</ele>
        <time>2025-03-02T08:25:19Z</time>
      </trkpt>
      <trkpt lat="45.70972" lon="4.73757">
        <ele>316.4</ele>
        <time>2025-03-02T08:25:20Z</time>
      </trkpt>
      <trkpt lat="45.70968" lon="4.73752">
        <ele>316</ele>
        <time>2025-03-02T08:25:21Z</time>
      </trkpt>
      <trkpt lat="45.70963" lon="4.73747">
        <ele>316</ele>
        <time>2025-03-02T08:25:22Z</time>
      </trkpt>
      <trkpt lat="45.70959" lon="4.73741">
        <ele>315.8</ele>
        <time>2025-03-02T08:25:23Z</time>
      </trkpt>
      <trkpt lat="45.70954" lon="4.73735">
        <ele>315.8</ele>
        <time>2025-03-02T08:25:24Z</time>
      </trkpt>
      <trkpt lat="45.7095" lon="4.7373">
        <ele>315.6</ele>
        <time>2025-03-02T08:25:25Z</time>
      </trkpt>
      <trkpt lat="45.70946" lon="4.73724">
        <ele>315.4</ele>
        <time>2025-03-02T08:25:26Z</time>
      </trkpt>
      <trkpt lat="45.70942" lon="4.73719">
        <ele>315.2</ele>
        <time>2025-03-02T08:25:27Z</time>
      </trkpt>
      <trkpt lat="45.70937" lon="4.73714">
        <ele>315.2</ele>
        <time>2025-03-02T08:25:28Z</time>
      </trkpt>
      <trkpt lat="45.70933" lon="4.73709">
        <ele>315.2</ele>
        <time>2025-03-02T08:25:29Z</time>
      </trkpt>
      <trkpt lat="45.70928" lon="4.73705">
        <ele>315.2</ele>
        <time>2025-03-02T08:25:30Z</time>
      </trkpt>
      <trkpt lat="45.70924" lon="4.737">
        <ele>315.2</ele>
        <time>2025-03-02T08:25:31Z</time>
      </trkpt>
      <trkpt lat="45.7092" lon="4.73696">
        <ele>315.2</ele>
        <time>2025-03-02T08:25:32Z</time>
      </trkpt>
      <trkpt lat="45.70916" lon="4.73691">
        <ele>315</ele>
        <time>2025-03-02T08:25:33Z</time>
      </trkpt>
      <trkpt lat="45.70912" lon="4.73685">
        <ele>315</ele>
        <time>2025-03-02T08:25:34Z</time>
      </trkpt>
      <trkpt lat="45.70909" lon="4.73681">
        <ele>315</ele>
        <time>2025-03-02T08:25:35Z</time>
      </trkpt>
      <trkpt lat="45.70905" lon="4.73677">
        <ele>315</ele>
        <time>2025-03-02T08:25:36Z</time>
      </trkpt>
      <trkpt lat="45.70902" lon="4.73674">
        <ele>315</ele>
        <time>2025-03-02T08:25:37Z</time>
      </trkpt>
      <trkpt lat="45.70899" lon="4.73672">
        <ele>315</ele>
        <time>2025-03-02T08:25:38Z</time>
      </trkpt>
      <trkpt lat="45.70897" lon="4.73672">
        <ele>315.2</ele>
        <time>2025-03-02T08:25:39Z</time>
      </trkpt>
      <trkpt lat="45.70896" lon="4.73671">
        <ele>315.2</ele>
        <time>2025-03-02T08:25:40Z</time>
      </trkpt>
      <trkpt lat="45.70896" lon="4.73671">
        <ele>315.4</ele>
        <time>2025-03-02T08:25:41Z</time>
      </trkpt>
      <trkpt lat="45.70896" lon="4.73671">
        <ele>315.6</ele>
        <time>2025-03-02T08:25:42Z</time>
      </trkpt>
      <trkpt lat="45.70896" lon="4.73671">
        <ele>315.6</ele>
        <time>2025-03-02T08:25:43Z</time>
      </trkpt>
      <trkpt lat="45.70896" lon="4.73671">
        <ele>315.6</ele>
        <time>2025-03-02T08:25:44Z</time>
      </trkpt>
      <trkpt lat="45.70896" lon="4.73671">
        <ele>315.6</ele>
        <time>2025-03-02T08:25:45Z</time>
      </trkpt>
      <trkpt lat="45.70896" lon="4.73671">
        <ele>315.6</ele>
        <time>2025-03-02T08:25:46Z</time>
      </trkpt>
      <trkpt lat="45.70896" lon="4.73671">
        <ele>315.6</ele>
        <time>2025-03-02T08:25:47Z</time>
      </trkpt>
      <trkpt lat="45.70896" lon="4.73671">
        <ele>315.6</ele>
        <time>2025-03-02T08:25:48Z</time>
      </trkpt>
      <trkpt lat="45.70896" lon="4.73671">
        <ele>315.6</ele>
        <time>2025-03-02T08:25:49Z</time>
      </trkpt>
      <trkpt lat="45.70896" lon="4.73671">
        <ele>315.6</ele>
        <time>2025-03-02T08:25:50Z</time>
      </trkpt>
      <trkpt lat="45.70896" lon="4.73671">
        <ele>315.6</ele>
        <time>2025-03-02T08:25:51Z</time>
      </trkpt>
      <trkpt lat="45.70896" lon="4.73671">
        <ele>315.6</ele>
        <time>2025-03-02T08:25:52Z</time>
      </trkpt>
      <trkpt lat="45.70896" lon="4.73671">
        <ele>315.6</ele>
        <time>2025-03-02T08:25:53Z</time>
      </trkpt>
      <trkpt lat="45.70896" lon="4.73671">
        <ele>315.4</ele>
        <time>2025-03-02T08:25:54Z</time>
      </trkpt>
      <trkpt lat="45.70896" lon="4.73671">
        <ele>315.4</ele>
        <time>2025-03-02T08:25:55Z</time>
      </trkpt>
      <trkpt lat="45.70896" lon="4.73671">
        <ele>315.4</ele>
        <time>2025-03-02T08:25:56Z</time>
      </trkpt>
      <trkpt lat="45.70896" lon="4.73671">
        <ele>315.4</ele>
        <time>2025-03-02T08:25:57Z</time>
      </trkpt>
      <trkpt lat="45.70896" lon="4.73671">
        <ele>315.4</ele>
        <time>2025-03-02T08:25:58Z</time>
      </trkpt>
      <trkpt lat="45.70896" lon="4.73671">
        <ele>315.4</ele>
        <time>2025-03-02T08:25:59Z</time>
      </trkpt>
      <trkpt lat="45.70896" lon="4.73671">
        <ele>315.4</ele>
        <time>2025-03-02T08:26:00Z</time>
      </trkpt>
      <trkpt lat="45.70896" lon="4.73671">
        <ele>315.4</ele>
        <time>2025-03-02T08:26:01Z</time>
      </trkpt>
      <trkpt lat="45.70896" lon="4.73671">
        <ele>315.4</ele>
        <time>2025-03-02T08:26:02Z</time>
      </trkpt>
      <trkpt lat="45.70896" lon="4.73671">
        <ele>315.4</ele>
        <time>2025-03-02T08:26:03Z</time>
      </trkpt>
      <trkpt lat="45.70896" lon="4.73671">
        <ele>315.4</ele>
        <time>2025-03-02T08:26:04Z</time>
      </trkpt>
      <trkpt lat="45.70896" lon="4.73671">
        <ele>315.4</ele>
        <time>2025-03-02T08:26:05Z</time>
      </trkpt>
      <trkpt lat="45.70896" lon="4.73671">
        <ele>315.4</ele>
        <time>2025-03-02T08:26:06Z</time>
      </trkpt>
      <trkpt lat="45.70896" lon="4.73671">
        <ele>315.4</ele>
        <time>2025-03-02T08:26:07Z</time>
      </trkpt>
      <trkpt lat="45.70896" lon="4.73671">
        <ele>315.4</ele>
        <time>2025-03-02T08:26:08Z</time>
      </trkpt>
      <trkpt lat="45.70896" lon="4.73671">
        <ele>315.4</ele>
        <time>2025-03-02T08:26:09Z</time>
      </trkpt>
      <trkpt lat="45.70896" lon="4.73671">
        <ele>315.4</ele>
        <time>2025-03-02T08:26:10Z</time>
      </trkpt>
      <trkpt lat="45.70896" lon="4.73671">
        <ele>315.2</ele>
        <time>2025-03-02T08:26:11Z</time>
      </trkpt>
      <trkpt lat="45.70896" lon="4.73671">
        <ele>315.2</ele>
        <time>2025-03-02T08:26:12Z</time>
      </trkpt>
      <trkpt lat="45.70896" lon="4.73671">
        <ele>315.4</ele>
        <time>2025-03-02T08:26:13Z</time>
      </trkpt>
      <trkpt lat="45.70896" lon="4.73671">
        <ele>315.2</ele>
        <time>2025-03-02T08:26:14Z</time>
      </trkpt>
      <trkpt lat="45.70896" lon="4.73671">
        <ele>315.4</ele>
        <time>2025-03-02T08:26:15Z</time>
      </trkpt>
      <trkpt lat="45.70896" lon="4.73671">
        <ele>315.4</ele>
        <time>2025-03-02T08:26:16Z</time>
      </trkpt>
      <trkpt lat="45.70896" lon="4.73671">
        <ele>315.4</ele>
        <time>2025-03-02T08:26:17Z</time>
      </trkpt>
      <trkpt lat="45.70896" lon="4.73671">
        <ele>315.2</ele>
        <time>2025-03-02T08:26:18Z</time>
      </trkpt>
      <trkpt lat="45.70896" lon="4.73671">
        <ele>315.2</ele>
        <time>2025-03-02T08:26:19Z</time>
      </trkpt>
      <trkpt lat="45.70896" lon="4.73671">
        <ele>315.2</ele>
        <time>2025-03-02T08:26:20Z</time>
      </trkpt>
      <trkpt lat="45.70896" lon="4.73671">
        <ele>315.2</ele>
        <time>2025-03-02T08:26:21Z</time>
      </trkpt>
      <trkpt lat="45.70896" lon="4.73671">
        <ele>315.2</ele>
        <time>2025-03-02T08:26:22Z</time>
      </trkpt>
      <trkpt lat="45.70896" lon="4.73671">
        <ele>315.2</ele>
        <time>2025-03-02T08:26:23Z</time>
      </trkpt>
      <trkpt lat="45.70896" lon="4.73671">
        <ele>315.2</ele>
        <time>2025-03-02T08:26:24Z</time>
      </trkpt>
      <trkpt lat="45.70896" lon="4.73671">
        <ele>315.2</ele>
        <time>2025-03-02T08:26:25Z</time>
      </trkpt>
      <trkpt lat="45.70896" lon="4.73671">
        <ele>315.2</ele>
        <time>2025-03-02T08:26:26Z</time>
      </trkpt>
      <trkpt lat="45.70896" lon="4.73671">
        <ele>315.2</ele>
        <time>2025-03-02T08:26:27Z</time>
      </trkpt>
      <trkpt lat="45.70896" lon="4.73671">
        <ele>315.2</ele>
        <time>2025-03-02T08:26:28Z</time>
      </trkpt>
      <trkpt lat="45.70896" lon="4.73671">
        <ele>315.2</ele>
        <time>2025-03-02T08:26:29Z</time>
      </trkpt>
      <trkpt lat="45.70896" lon="4.73671">
        <ele>315.2</ele>
        <time>2025-03-02T08:26:30Z</time>
      </trkpt>
      <trkpt lat="45.70896" lon="4.73671">
        <ele>315.2</ele>
        <time>2025-03-02T08:26:31Z</time>
      </trkpt>
      <trkpt lat="45.70896" lon="4.73671">
        <ele>315.2</ele>
        <time>2025-03-02T08:26:32Z</time>
      </trkpt>
      <trkpt lat="45.70896" lon="4.73671">
        <ele>315.2</ele>
        <time>2025-03-02T08:26:33Z</time>
      </trkpt>
      <trkpt lat="45.70896" lon="4.73671">
        <ele>315.2</ele>
        <time>2025-03-02T08:26:34Z</time>
      </trkpt>
      <trkpt lat="45.70896" lon="4.73671">
        <ele>315.2</ele>
        <time>2025-03-02T08:26:35Z</time>
      </trkpt>
      <trkpt lat="45.70896" lon="4.73671">
        <ele>315.2</ele>
        <time>2025-03-02T08:26:36Z</time>
      </trkpt>
      <trkpt lat="45.70896" lon="4.73671">
        <ele>315.2</ele>
        <time>2025-03-02T08:26:37Z</time>
      </trkpt>
      <trkpt lat="45.70896" lon="4.73671">
        <ele>315.2</ele>
        <time>2025-03-02T08:26:38Z</time>
      </trkpt>
      <trkpt lat="45.70896" lon="4.73671">
        <ele>315.2</ele>
        <time>2025-03-02T08:26:39Z</time>
      </trkpt>
      <trkpt lat="45.70896" lon="4.73671">
        <ele>315.2</ele>
        <time>2025-03-02T08:26:40Z</time>
      </trkpt>
      <trkpt lat="45.70896" lon="4.73671">
        <ele>315.2</ele>
        <time>2025-03-02T08:26:41Z</time>
      </trkpt>
      <trkpt lat="45.70896" lon="4.73671">
        <ele>315.2</ele>
        <time>2025-03-02T08:26:42Z</time>
      </trkpt>
      <trkpt lat="45.70896" lon="4.73671">
        <ele>315.2</ele>
        <time>2025-03-02T08:26:43Z</time>
      </trkpt>
      <trkpt lat="45.70896" lon="4.73671">
        <ele>315.2</ele>
        <time>2025-03-02T08:26:44Z</time>
      </trkpt>
      <trkpt lat="45.70896" lon="4.73671">
        <ele>315.2</ele>
        <time>2025-03-02T08:26:45Z</time>
      </trkpt>
      <trkpt lat="45.70896" lon="4.73671">
        <ele>315.2</ele>
        <time>2025-03-02T08:26:46Z</time>
      </trkpt>
      <trkpt lat="45.70896" lon="4.73671">
        <ele>315.2</ele>
        <time>2025-03-02T08:26:47Z</time>
      </trkpt>
      <trkpt lat="45.70896" lon="4.73671">
        <ele>315.2</ele>
        <time>2025-03-02T08:26:48Z</time>
      </trkpt>
      <trkpt lat="45.70896" lon="4.73671">
        <ele>315.2</ele>
        <time>2025-03-02T08:26:49Z</time>
      </trkpt>
      <trkpt lat="45.70896" lon="4.73671">
        <ele>315.2</ele>
        <time>2025-03-02T08:26:50Z</time>
      </trkpt>
      <trkpt lat="45.70896" lon="4.73671">
        <ele>315.2</ele>
        <time>2025-03-02T08:26:51Z</time>
      </trkpt>
      <trkpt lat="45.70896" lon="4.73671">
        <ele>315.2</ele>
        <time>2025-03-02T08:26:52Z</time>
      </trkpt>
      <trkpt lat="45.70896" lon="4.73671">
        <ele>315.2</ele>
        <time>2025-03-02T08:26:53Z</time>
      </trkpt>
      <trkpt lat="45.70896" lon="4.73671">
        <ele>315.2</ele>
        <time>2025-03-02T08:26:54Z</time>
      </trkpt>
      <trkpt lat="45.70896" lon="4.73671">
        <ele>315.2</ele>
        <time>2025-03-02T08:26:55Z</time>
      </trkpt>
      <trkpt lat="45.70896" lon="4.73671">
        <ele>315.2</ele>
        <time>2025-03-02T08:26:56Z</time>
      </trkpt>
      <trkpt lat="45.70896" lon="4.73671">
        <ele>315.2</ele>
        <time>2025-03-02T08:26:57Z</time>
      </trkpt>
      <trkpt lat="45.70896" lon="4.73671">
        <ele>315.2</ele>
        <time>2025-03-02T08:26:58Z</time>
      </trkpt>
      <trkpt lat="45.70896" lon="4.73671">
        <ele>315.2</ele>
        <time>2025-03-02T08:26:59Z</time>
      </trkpt>
      <trkpt lat="45.70896" lon="4.73671">
        <ele>315.2</ele>
        <time>2025-03-02T08:27:00Z</time>
      </trkpt>
      <trkpt lat="45.70896" lon="4.73671">
        <ele>315.2</ele>
        <time>2025-03-02T08:27:01Z</time>
      </trkpt>
      <trkpt lat="45.70896" lon="4.73671">
        <ele>315.2</ele>
        <time>2025-03-02T08:27:02Z</time>
      </trkpt>
      <trkpt lat="45.70896" lon="4.73671">
        <ele>315.2</ele>
        <time>2025-03-02T08:27:03Z</time>
      </trkpt>
      <trkpt lat="45.70896" lon="4.73671">
        <ele>315.2</ele>
        <time>2025-03-02T08:27:04Z</time>
      </trkpt>
      <trkpt lat="45.70896" lon="4.73671">
        <ele>315.2</ele>
        <time>2025-03-02T08:27:05Z</time>
      </trkpt>
      <trkpt lat="45.70896" lon="4.73671">
        <ele>315.2</ele>
        <time>2025-03-02T08:27:06Z</time>
      </trkpt>
      <trkpt lat="45.70896" lon="4.73671">
        <ele>315.2</ele>
        <time>2025-03-02T08:27:07Z</time>
      </trkpt>
      <trkpt lat="45.70896" lon="4.73671">
        <ele>315.2</ele>
        <time>2025-03-02T08:27:08Z</time>
      </trkpt>
      <trkpt lat="45.70896" lon="4.73671">
        <ele>315.2</ele>
        <time>2025-03-02T08:27:09Z</time>
      </trkpt>
      <trkpt lat="45.70896" lon="4.73671">
        <ele>315.2</ele>
        <time>2025-03-02T08:27:10Z</time>
      </trkpt>
      <trkpt lat="45.70896" lon="4.73671">
        <ele>315.2</ele>
        <time>2025-03-02T08:27:11Z</time>
      </trkpt>
      <trkpt lat="45.70896" lon="4.73671">
        <ele>315.2</ele>
        <time>2025-03-02T08:27:12Z</time>
      </trkpt>
      <trkpt lat="45.70896" lon="4.73671">
        <ele>315.2</ele>
        <time>2025-03-02T08:27:13Z</time>
      </trkpt>
      <trkpt lat="45.70896" lon="4.73671">
        <ele>315.2</ele>
        <time>2025-03-02T08:27:14Z</time>
      </trkpt>
      <trkpt lat="45.70896" lon="4.73671">
        <ele>315.2</ele>
        <time>2025-03-02T08:27:15Z</time>
      </trkpt>
      <trkpt lat="45.70896" lon="4.73671">
        <ele>315.2</ele>
        <time>2025-03-02T08:27:16Z</time>
      </trkpt>
      <trkpt lat="45.70896" lon="4.73671">
        <ele>315.2</ele>
        <time>2025-03-02T08:27:17Z</time>
      </trkpt>
      <trkpt lat="45.70896" lon="4.73671">
        <ele>315.2</ele>
        <time>2025-03-02T08:27:18Z</time>
      </trkpt>
      <trkpt lat="45.70896" lon="4.73671">
        <ele>315.2</ele>
        <time>2025-03-02T08:27:19Z</time>
      </trkpt>
      <trkpt lat="45.70896" lon="4.73671">
        <ele>315.2</ele>
        <time>2025-03-02T08:27:20Z</time>
      </trkpt>
      <trkpt lat="45.70896" lon="4.73671">
        <ele>315.2</ele>
        <time>2025-03-02T08:27:21Z</time>
      </trkpt>
      <trkpt lat="45.70896" lon="4.73671">
        <ele>315.2</ele>
        <time>2025-03-02T08:27:22Z</time>
      </trkpt>
      <trkpt lat="45.70896" lon="4.73671">
        <ele>315.2</ele>
        <time>2025-03-02T08:27:23Z</time>
      </trkpt>
      <trkpt lat="45.70896" lon="4.73671">
        <ele>315.2</ele>
        <time>2025-03-02T08:27:24Z</time>
      </trkpt>
      <trkpt lat="45.70896" lon="4.73671">
        <ele>315.2</ele>
        <time>2025-03-02T08:27:25Z</time>
      </trkpt>
      <trkpt lat="45.70896" lon="4.73671">
        <ele>315.2</ele>
        <time>2025-03-02T08:27:26Z</time>
      </trkpt>
      <trkpt lat="45.70895" lon="4.73669">
        <ele>315.2</ele>
        <time>2025-03-02T08:27:27Z</time>
      </trkpt>
      <trkpt lat="45.70895" lon="4.73668">
        <ele>315.6</ele>
        <time>2025-03-02T08:27:28Z</time>
      </trkpt>
      <trkpt lat="45.70895" lon="4.73665">
        <ele>315.6</ele>
        <time>2025-03-02T08:27:29Z</time>
      </trkpt>
      <trkpt lat="45.70895" lon="4.73663">
        <ele>315.4</ele>
        <time>2025-03-02T08:27:30Z</time>
      </trkpt>
      <trkpt lat="45.70893" lon="4.73661">
        <ele>315.2</ele>
        <time>2025-03-02T08:27:31Z</time>
      </trkpt>
      <trkpt lat="45.70892" lon="4.7366">
        <ele>315.2</ele>
        <time>2025-03-02T08:27:32Z</time>
      </trkpt>
      <trkpt lat="45.70891" lon="4.73658">
        <ele>315.2</ele>
        <time>2025-03-02T08:27:33Z</time>
      </trkpt>
      <trkpt lat="45.7089" lon="4.73658">
        <ele>315.2</ele>
        <time>2025-03-02T08:27:34Z</time>
      </trkpt>
      <trkpt lat="45.70889" lon="4.73658">
        <ele>315.2</ele>
        <time>2025-03-02T08:27:35Z</time>
      </trkpt>
      <trkpt lat="45.70888" lon="4.73659">
        <ele>315.2</ele>
        <time>2025-03-02T08:27:36Z</time>
      </trkpt>
      <trkpt lat="45.70887" lon="4.73661">
        <ele>315.2</ele>
        <time>2025-03-02T08:27:37Z</time>
      </trkpt>
      <trkpt lat="45.70886" lon="4.73663">
        <ele>315.2</ele>
        <time>2025-03-02T08:27:38Z</time>
      </trkpt>
      <trkpt lat="45.70885" lon="4.73666">
        <ele>315.2</ele>
        <time>2025-03-02T08:27:39Z</time>
      </trkpt>
      <trkpt lat="45.70884" lon="4.73669">
        <ele>315.4</ele>
        <time>2025-03-02T08:27:40Z</time>
      </trkpt>
      <trkpt lat="45.70883" lon="4.73671">
        <ele>315.4</ele>
        <time>2025-03-02T08:27:41Z</time>
      </trkpt>
      <trkpt lat="45.70882" lon="4.73675">
        <ele>315.4</ele>
        <time>2025-03-02T08:27:42Z</time>
      </trkpt>
      <trkpt lat="45.7088" lon="4.73678">
        <ele>315.4</ele>
        <time>2025-03-02T08:27:43Z</time>
      </trkpt>
      <trkpt lat="45.70879" lon="4.73682">
        <ele>315.4</ele>
        <time>2025-03-02T08:27:44Z</time>
      </trkpt>
      <trkpt lat="45.70879" lon="4.73685">
        <ele>315.4</ele>
        <time>2025-03-02T08:27:45Z</time>
      </trkpt>
      <trkpt lat="45.70879" lon="4.73689">
        <ele>315.4</ele>
        <time>2025-03-02T08:27:46Z</time>
      </trkpt>
      <trkpt lat="45.70881" lon="4.73693">
        <ele>315.4</ele>
        <time>2025-03-02T08:27:47Z</time>
      </trkpt>
      <trkpt lat="45.70883" lon="4.73695">
        <ele>315.4</ele>
        <time>2025-03-02T08:27:48Z</time>
      </trkpt>
      <trkpt lat="45.70885" lon="4.73695">
        <ele>315.4</ele>
        <time>2025-03-02T08:27:49Z</time>
      </trkpt>
      <trkpt lat="45.70888" lon="4.73694">
        <ele>315.2</ele>
        <time>2025-03-02T08:27:50Z</time>
      </trkpt>
      <trkpt lat="45.7089" lon="4.73693">
        <ele>315</ele>
        <time>2025-03-02T08:27:51Z</time>
      </trkpt>
      <trkpt lat="45.70891" lon="4.7369">
        <ele>315</ele>
        <time>2025-03-02T08:27:52Z</time>
      </trkpt>
      <trkpt lat="45.70893" lon="4.73688">
        <ele>315</ele>
        <time>2025-03-02T08:27:53Z</time>
      </trkpt>
      <trkpt lat="45.70893" lon="4.73686">
        <ele>315</ele>
        <time>2025-03-02T08:27:54Z</time>
      </trkpt>
      <trkpt lat="45.70894" lon="4.73683">
        <ele>315.2</ele>
        <time>2025-03-02T08:27:55Z</time>
      </trkpt>
      <trkpt lat="45.70894" lon="4.73683">
        <ele>315.2</ele>
        <time>2025-03-02T08:27:56Z</time>
      </trkpt>
      <trkpt lat="45.70894" lon="4.73683">
        <ele>315.2</ele>
        <time>2025-03-02T08:27:57Z</time>
      </trkpt>
      <trkpt lat="45.70895" lon="4.73682">
        <ele>315.2</ele>
        <time>2025-03-02T08:27:58Z</time>
      </trkpt>
      <trkpt lat="45.70895" lon="4.73681">
        <ele>315.4</ele>
        <time>2025-03-02T08:27:59Z</time>
      </trkpt>
      <trkpt lat="45.70896" lon="4.7368">
        <ele>315.6</ele>
        <time>2025-03-02T08:28:00Z</time>
      </trkpt>
      <trkpt lat="45.70897" lon="4.73679">
        <ele>315.6</ele>
        <time>2025-03-02T08:28:01Z</time>
      </trkpt>
      <trkpt lat="45.70898" lon="4.73677">
        <ele>315.6</ele>
        <time>2025-03-02T08:28:02Z</time>
      </trkpt>
      <trkpt lat="45.70898" lon="4.73676">
        <ele>315.6</ele>
        <time>2025-03-02T08:28:03Z</time>
      </trkpt>
      <trkpt lat="45.70899" lon="4.73675">
        <ele>315.6</ele>
        <time>2025-03-02T08:28:04Z</time>
      </trkpt>
      <trkpt lat="45.709" lon="4.73673">
        <ele>315.6</ele>
        <time>2025-03-02T08:28:05Z</time>
      </trkpt>
      <trkpt lat="45.70901" lon="4.73672">
        <ele>315.6</ele>
        <time>2025-03-02T08:28:06Z</time>
      </trkpt>
      <trkpt lat="45.70901" lon="4.7367">
        <ele>315.6</ele>
        <time>2025-03-02T08:28:07Z</time>
      </trkpt>
      <trkpt lat="45.709" lon="4.73669">
        <ele>315.6</ele>
        <time>2025-03-02T08:28:08Z</time>
      </trkpt>
      <trkpt lat="45.70899" lon="4.73667">
        <ele>315.6</ele>
        <time>2025-03-02T08:28:09Z</time>
      </trkpt>
      <trkpt lat="45.70898" lon="4.73665">
        <ele>315.6</ele>
        <time>2025-03-02T08:28:10Z</time>
      </trkpt>
      <trkpt lat="45.70897" lon="4.73664">
        <ele>315.6</ele>
        <time>2025-03-02T08:28:11Z</time>
      </trkpt>
      <trkpt lat="45.70896" lon="4.73662">
        <ele>315.6</ele>
        <time>2025-03-02T08:28:12Z</time>
      </trkpt>
      <trkpt lat="45.70895" lon="4.73661">
        <ele>315.4</ele>
        <time>2025-03-02T08:28:13Z</time>
      </trkpt>
      <trkpt lat="45.70896" lon="4.7366">
        <ele>315.4</ele>
        <time>2025-03-02T08:28:14Z</time>
      </trkpt>
      <trkpt lat="45.70896" lon="4.73661">
        <ele>315.4</ele>
        <time>2025-03-02T08:28:15Z</time>
      </trkpt>
      <trkpt lat="45.70896" lon="4.73661">
        <ele>315.4</ele>
        <time>2025-03-02T08:28:16Z</time>
      </trkpt>
      <trkpt lat="45.70896" lon="4.73661">
        <ele>315.4</ele>
        <time>2025-03-02T08:28:17Z</time>
      </trkpt>
      <trkpt lat="45.70896" lon="4.73661">
        <ele>315.4</ele>
        <time>2025-03-02T08:28:18Z</time>
      </trkpt>
      <trkpt lat="45.70896" lon="4.73661">
        <ele>315.4</ele>
        <time>2025-03-02T08:28:19Z</time>
      </trkpt>
      <trkpt lat="45.70896" lon="4.73661">
        <ele>315.2</ele>
        <time>2025-03-02T08:28:20Z</time>
      </trkpt>
      <trkpt lat="45.70896" lon="4.73661">
        <ele>315.2</ele>
        <time>2025-03-02T08:28:21Z</time>
      </trkpt>
      <trkpt lat="45.70896" lon="4.7366">
        <ele>315.2</ele>
        <time>2025-03-02T08:28:22Z</time>
      </trkpt>
      <trkpt lat="45.70895" lon="4.7366">
        <ele>315.2</ele>
        <time>2025-03-02T08:28:23Z</time>
      </trkpt>
      <trkpt lat="45.70894" lon="4.73659">
        <ele>315.2</ele>
        <time>2025-03-02T08:28:24Z</time>
      </trkpt>
      <trkpt lat="45.70893" lon="4.7366">
        <ele>315.2</ele>
        <time>2025-03-02T08:28:25Z</time>
      </trkpt>
      <trkpt lat="45.70893" lon="4.7366">
        <ele>315.2</ele>
        <time>2025-03-02T08:28:26Z</time>
      </trkpt>
      <trkpt lat="45.70893" lon="4.7366">
        <ele>315.4</ele>
        <time>2025-03-02T08:28:27Z</time>
      </trkpt>
      <trkpt lat="45.70893" lon="4.7366">
        <ele>315.4</ele>
        <time>2025-03-02T08:28:28Z</time>
      </trkpt>
      <trkpt lat="45.70893" lon="4.7366">
        <ele>315.4</ele>
        <time>2025-03-02T08:28:29Z</time>
      </trkpt>
      <trkpt lat="45.70893" lon="4.7366">
        <ele>315.4</ele>
        <time>2025-03-02T08:28:30Z</time>
      </trkpt>
      <trkpt lat="45.70893" lon="4.7366">
        <ele>315.4</ele>
        <time>2025-03-02T08:28:31Z</time>
      </trkpt>
      <trkpt lat="45.70893" lon="4.7366">
        <ele>315.4</ele>
        <time>2025-03-02T08:28:32Z</time>
      </trkpt>
      <trkpt lat="45.70893" lon="4.7366">
        <ele>315.4</ele>
        <time>2025-03-02T08:28:33Z</time>
      </trkpt>
      <trkpt lat="45.70893" lon="4.7366">
        <ele>315.4</ele>
        <time>2025-03-02T08:28:34Z</time>
      </trkpt>
      <trkpt lat="45.70893" lon="4.7366">
        <ele>315.4</ele>
        <time>2025-03-02T08:28:35Z</time>
      </trkpt>
      <trkpt lat="45.70893" lon="4.7366">
        <ele>315.4</ele>
        <time>2025-03-02T08:28:36Z</time>
      </trkpt>
      <trkpt lat="45.70893" lon="4.7366">
        <ele>315.4</ele>
        <time>2025-03-02T08:28:37Z</time>
      </trkpt>
      <trkpt lat="45.70893" lon="4.7366">
        <ele>315.4</ele>
        <time>2025-03-02T08:28:38Z</time>
      </trkpt>
      <trkpt lat="45.70893" lon="4.7366">
        <ele>315.4</ele>
        <time>2025-03-02T08:28:39Z</time>
      </trkpt>
      <trkpt lat="45.70893" lon="4.7366">
        <ele>315.4</ele>
        <time>2025-03-02T08:28:40Z</time>
      </trkpt>
      <trkpt lat="45.70893" lon="4.7366">
        <ele>315.4</ele>
        <time>2025-03-02T08:28:41Z</time>
      </trkpt>
      <trkpt lat="45.70893" lon="4.7366">
        <ele>315.4</ele>
        <time>2025-03-02T08:28:42Z</time>
      </trkpt>
      <trkpt lat="45.70893" lon="4.7366">
        <ele>315.4</ele>
        <time>2025-03-02T08:28:43Z</time>
      </trkpt>
      <trkpt lat="45.70893" lon="4.7366">
        <ele>315.4</ele>
        <time>2025-03-02T08:28:44Z</time>
      </trkpt>
      <trkpt lat="45.70893" lon="4.7366">
        <ele>315.4</ele>
        <time>2025-03-02T08:28:45Z</time>
      </trkpt>
      <trkpt lat="45.70893" lon="4.7366">
        <ele>315.4</ele>
        <time>2025-03-02T08:28:46Z</time>
      </trkpt>
      <trkpt lat="45.70893" lon="4.7366">
        <ele>315.4</ele>
        <time>2025-03-02T08:28:47Z</time>
      </trkpt>
      <trkpt lat="45.70893" lon="4.7366">
        <ele>315.4</ele>
        <time>2025-03-02T08:28:48Z</time>
      </trkpt>
      <trkpt lat="45.70893" lon="4.7366">
        <ele>315.4</ele>
        <time>2025-03-02T08:28:49Z</time>
      </trkpt>
      <trkpt lat="45.70893" lon="4.7366">
        <ele>315.4</ele>
        <time>2025-03-02T08:28:50Z</time>
      </trkpt>
      <trkpt lat="45.70893" lon="4.7366">
        <ele>315.4</ele>
        <time>2025-03-02T08:28:51Z</time>
      </trkpt>
      <trkpt lat="45.70893" lon="4.7366">
        <ele>315.4</ele>
        <time>2025-03-02T08:28:52Z</time>
      </trkpt>
      <trkpt lat="45.70893" lon="4.7366">
        <ele>315.4</ele>
        <time>2025-03-02T08:28:53Z</time>
      </trkpt>
      <trkpt lat="45.70893" lon="4.7366">
        <ele>315.4</ele>
        <time>2025-03-02T08:28:54Z</time>
      </trkpt>
      <trkpt lat="45.70893" lon="4.7366">
        <ele>315.4</ele>
        <time>2025-03-02T08:28:55Z</time>
      </trkpt>
      <trkpt lat="45.70893" lon="4.7366">
        <ele>315.4</ele>
        <time>2025-03-02T08:28:56Z</time>
      </trkpt>
      <trkpt lat="45.70893" lon="4.7366">
        <ele>315.4</ele>
        <time>2025-03-02T08:28:57Z</time>
      </trkpt>
      <trkpt lat="45.70893" lon="4.7366">
        <ele>315.4</ele>
        <time>2025-03-02T08:28:58Z</time>
      </trkpt>
      <trkpt lat="45.70893" lon="4.7366">
        <ele>315.4</ele>
        <time>2025-03-02T08:28:59Z</time>
      </trkpt>
      <trkpt lat="45.70893" lon="4.7366">
        <ele>315.4</ele>
        <time>2025-03-02T08:29:00Z</time>
      </trkpt>
      <trkpt lat="45.70893" lon="4.7366">
        <ele>315.4</ele>
        <time>2025-03-02T08:29:01Z</time>
      </trkpt>
      <trkpt lat="45.70893" lon="4.7366">
        <ele>315.4</ele>
        <time>2025-03-02T08:29:02Z</time>
      </trkpt>
      <trkpt lat="45.70893" lon="4.7366">
        <ele>315.4</ele>
        <time>2025-03-02T08:29:03Z</time>
      </trkpt>
      <trkpt lat="45.70893" lon="4.7366">
        <ele>315.4</ele>
        <time>2025-03-02T08:29:04Z</time>
      </trkpt>
      <trkpt lat="45.70893" lon="4.7366">
        <ele>315.4</ele>
        <time>2025-03-02T08:29:05Z</time>
      </trkpt>
      <trkpt lat="45.70893" lon="4.7366">
        <ele>315.4</ele>
        <time>2025-03-02T08:29:06Z</time>
      </trkpt>
      <trkpt lat="45.70893" lon="4.7366">
        <ele>315.4</ele>
        <time>2025-03-02T08:29:07Z</time>
      </trkpt>
      <trkpt lat="45.70893" lon="4.7366">
        <ele>315.4</ele>
        <time>2025-03-02T08:29:08Z</time>
      </trkpt>
      <trkpt lat="45.70893" lon="4.7366">
        <ele>315.4</ele>
        <time>2025-03-02T08:29:09Z</time>
      </trkpt>
      <trkpt lat="45.70893" lon="4.7366">
        <ele>315.4</ele>
        <time>2025-03-02T08:29:10Z</time>
      </trkpt>
      <trkpt lat="45.70893" lon="4.7366">
        <ele>315.4</ele>
        <time>2025-03-02T08:29:11Z</time>
      </trkpt>
      <trkpt lat="45.70893" lon="4.7366">
        <ele>315.4</ele>
        <time>2025-03-02T08:29:12Z</time>
      </trkpt>
      <trkpt lat="45.70893" lon="4.7366">
        <ele>315.4</ele>
        <time>2025-03-02T08:29:13Z</time>
      </trkpt>
      <trkpt lat="45.70893" lon="4.7366">
        <ele>315.4</ele>
        <time>2025-03-02T08:29:14Z</time>
      </trkpt>
      <trkpt lat="45.70893" lon="4.7366">
        <ele>315.4</ele>
        <time>2025-03-02T08:29:15Z</time>
      </trkpt>
      <trkpt lat="45.70893" lon="4.7366">
        <ele>315.4</ele>
        <time>2025-03-02T08:29:16Z</time>
      </trkpt>
      <trkpt lat="45.70893" lon="4.7366">
        <ele>315.4</ele>
        <time>2025-03-02T08:29:17Z</time>
      </trkpt>
      <trkpt lat="45.70893" lon="4.7366">
        <ele>315.4</ele>
        <time>2025-03-02T08:29:18Z</time>
      </trkpt>
      <trkpt lat="45.70893" lon="4.7366">
        <ele>315.4</ele>
        <time>2025-03-02T08:29:19Z</time>
      </trkpt>
      <trkpt lat="45.70893" lon="4.7366">
        <ele>315.4</ele>
        <time>2025-03-02T08:29:20Z</time>
      </trkpt>
      <trkpt lat="45.70893" lon="4.7366">
        <ele>315.4</ele>
        <time>2025-03-02T08:29:21Z</time>
      </trkpt>
      <trkpt lat="45.70893" lon="4.7366">
        <ele>315.4</ele>
        <time>2025-03-02T08:29:22Z</time>
      </trkpt>
      <trkpt lat="45.70893" lon="4.7366">
        <ele>315.4</ele>
        <time>2025-03-02T08:29:23Z</time>
      </trkpt>
      <trkpt lat="45.70893" lon="4.7366">
        <ele>315.4</ele>
        <time>2025-03-02T08:29:24Z</time>
      </trkpt>
      <trkpt lat="45.70893" lon="4.7366">
        <ele>315.4</ele>
        <time>2025-03-02T08:29:25Z</time>
      </trkpt>
      <trkpt lat="45.70893" lon="4.7366">
        <ele>315.4</ele>
        <time>2025-03-02T08:29:26Z</time>
      </trkpt>
      <trkpt lat="45.70893" lon="4.7366">
        <ele>315.4</ele>
        <time>2025-03-02T08:29:27Z</time>
      </trkpt>
      <trkpt lat="45.70893" lon="4.7366">
        <ele>315.4</ele>
        <time>2025-03-02T08:29:28Z</time>
      </trkpt>
      <trkpt lat="45.70893" lon="4.7366">
        <ele>315.4</ele>
        <time>2025-03-02T08:29:29Z</time>
      </trkpt>
      <trkpt lat="45.70893" lon="4.7366">
        <ele>315.4</ele>
        <time>2025-03-02T08:29:30Z</time>
      </trkpt>
      <trkpt lat="45.70893" lon="4.7366">
        <ele>315.4</ele>
        <time>2025-03-02T08:29:31Z</time>
      </trkpt>
      <trkpt lat="45.70893" lon="4.7366">
        <ele>315.4</ele>
        <time>2025-03-02T08:29:32Z</time>
      </trkpt>
      <trkpt lat="45.70893" lon="4.7366">
        <ele>315.4</ele>
        <time>2025-03-02T08:29:33Z</time>
      </trkpt>
      <trkpt lat="45.70893" lon="4.7366">
        <ele>315.4</ele>
        <time>2025-03-02T08:29:34Z</time>
      </trkpt>
      <trkpt lat="45.70893" lon="4.7366">
        <ele>315.4</ele>
        <time>2025-03-02T08:29:35Z</time>
      </trkpt>
      <trkpt lat="45.70893" lon="4.7366">
        <ele>315.4</ele>
        <time>2025-03-02T08:29:36Z</time>
      </trkpt>
      <trkpt lat="45.70893" lon="4.7366">
        <ele>315.4</ele>
        <time>2025-03-02T08:29:37Z</time>
      </trkpt>
      <trkpt lat="45.70893" lon="4.7366">
        <ele>315.4</ele>
        <time>2025-03-02T08:29:38Z</time>
      </trkpt>
      <trkpt lat="45.70893" lon="4.7366">
        <ele>315.4</ele>
        <time>2025-03-02T08:29:39Z</time>
      </trkpt>
      <trkpt lat="45.70893" lon="4.7366">
        <ele>315.4</ele>
        <time>2025-03-02T08:29:40Z</time>
      </trkpt>
      <trkpt lat="45.70893" lon="4.7366">
        <ele>315.4</ele>
        <time>2025-03-02T08:29:41Z</time>
      </trkpt>
      <trkpt lat="45.70893" lon="4.7366">
        <ele>315.4</ele>
        <time>2025-03-02T08:29:42Z</time>
      </trkpt>
      <trkpt lat="45.70893" lon="4.7366">
        <ele>315.4</ele>
        <time>2025-03-02T08:29:43Z</time>
      </trkpt>
      <trkpt lat="45.70893" lon="4.7366">
        <ele>315.4</ele>
        <time>2025-03-02T08:29:44Z</time>
      </trkpt>
      <trkpt lat="45.70893" lon="4.7366">
        <ele>315.4</ele>
        <time>2025-03-02T08:29:45Z</time>
      </trkpt>
      <trkpt lat="45.70893" lon="4.7366">
        <ele>315.4</ele>
        <time>2025-03-02T08:29:46Z</time>
      </trkpt>
      <trkpt lat="45.70893" lon="4.7366">
        <ele>315.4</ele>
        <time>2025-03-02T08:29:47Z</time>
      </trkpt>
      <trkpt lat="45.70893" lon="4.7366">
        <ele>315.4</ele>
        <time>2025-03-02T08:29:48Z</time>
      </trkpt>
      <trkpt lat="45.70893" lon="4.7366">
        <ele>315.4</ele>
        <time>2025-03-02T08:29:49Z</time>
      </trkpt>
      <trkpt lat="45.70893" lon="4.7366">
        <ele>315.4</ele>
        <time>2025-03-02T08:29:50Z</time>
      </trkpt>
      <trkpt lat="45.70893" lon="4.7366">
        <ele>315.4</ele>
        <time>2025-03-02T08:29:51Z</time>
      </trkpt>
      <trkpt lat="45.70893" lon="4.7366">
        <ele>315.4</ele>
        <time>2025-03-02T08:29:52Z</time>
      </trkpt>
      <trkpt lat="45.70893" lon="4.7366">
        <ele>315.4</ele>
        <time>2025-03-02T08:29:53Z</time>
      </trkpt>
      <trkpt lat="45.70893" lon="4.7366">
        <ele>315.4</ele>
        <time>2025-03-02T08:29:54Z</time>
      </trkpt>
      <trkpt lat="45.70893" lon="4.7366">
        <ele>315.4</ele>
        <time>2025-03-02T08:29:55Z</time>
      </trkpt>
      <trkpt lat="45.70893" lon="4.7366">
        <ele>315.4</ele>
        <time>2025-03-02T08:29:56Z</time>
      </trkpt>
      <trkpt lat="45.70893" lon="4.7366">
        <ele>315.4</ele>
        <time>2025-03-02T08:29:57Z</time>
      </trkpt>
      <trkpt lat="45.70893" lon="4.7366">
        <ele>315.4</ele>
        <time>2025-03-02T08:29:58Z</time>
      </trkpt>
      <trkpt lat="45.70893" lon="4.7366">
        <ele>315.4</ele>
        <time>2025-03-02T08:29:59Z</time>
      </trkpt>
      <trkpt lat="45.70893" lon="4.7366">
        <ele>315.4</ele>
        <time>2025-03-02T08:30:00Z</time>
      </trkpt>
      <trkpt lat="45.70893" lon="4.7366">
        <ele>315.4</ele>
        <time>2025-03-02T08:30:01Z</time>
      </trkpt>
      <trkpt lat="45.70892" lon="4.73661">
        <ele>315.4</ele>
        <time>2025-03-02T08:30:02Z</time>
      </trkpt>
      <trkpt lat="45.70892" lon="4.73663">
        <ele>315.6</ele>
        <time>2025-03-02T08:30:03Z</time>
      </trkpt>
      <trkpt lat="45.70892" lon="4.73665">
        <ele>315.6</ele>
        <time>2025-03-02T08:30:04Z</time>
      </trkpt>
      <trkpt lat="45.70893" lon="4.73666">
        <ele>315.6</ele>
        <time>2025-03-02T08:30:05Z</time>
      </trkpt>
      <trkpt lat="45.70894" lon="4.73667">
        <ele>315.6</ele>
        <time>2025-03-02T08:30:06Z</time>
      </trkpt>
      <trkpt lat="45.70895" lon="4.73669">
        <ele>315.6</ele>
        <time>2025-03-02T08:30:07Z</time>
      </trkpt>
      <trkpt lat="45.70897" lon="4.7367">
        <ele>315.6</ele>
        <time>2025-03-02T08:30:08Z</time>
      </trkpt>
      <trkpt lat="45.70898" lon="4.73671">
        <ele>315.6</ele>
        <time>2025-03-02T08:30:09Z</time>
      </trkpt>
      <trkpt lat="45.70899" lon="4.73673">
        <ele>315.6</ele>
        <time>2025-03-02T08:30:10Z</time>
      </trkpt>
      <trkpt lat="45.709" lon="4.73674">
        <ele>315.6</ele>
        <time>2025-03-02T08:30:11Z</time>
      </trkpt>
      <trkpt lat="45.70901" lon="4.73676">
        <ele>315.6</ele>
        <time>2025-03-02T08:30:12Z</time>
      </trkpt>
      <trkpt lat="45.70902" lon="4.73676">
        <ele>315.6</ele>
        <time>2025-03-02T08:30:13Z</time>
      </trkpt>
      <trkpt lat="45.70904" lon="4.73674">
        <ele>315.6</ele>
        <time>2025-03-02T08:30:14Z</time>
      </trkpt>
      <trkpt lat="45.70904" lon="4.73672">
        <ele>315.6</ele>
        <time>2025-03-02T08:30:15Z</time>
      </trkpt>
      <trkpt lat="45.70903" lon="4.73671">
        <ele>315.6</ele>
        <time>2025-03-02T08:30:16Z</time>
      </trkpt>
      <trkpt lat="45.70902" lon="4.7367">
        <ele>315.6</ele>
        <time>2025-03-02T08:30:17Z</time>
      </trkpt>
      <trkpt lat="45.709" lon="4.73669">
        <ele>315.8</ele>
        <time>2025-03-02T08:30:18Z</time>
      </trkpt>
      <trkpt lat="45.70898" lon="4.73669">
        <ele>315.8</ele>
        <time>2025-03-02T08:30:19Z</time>
      </trkpt>
      <trkpt lat="45.70896" lon="4.73668">
        <ele>315.8</ele>
        <time>2025-03-02T08:30:20Z</time>
      </trkpt>
      <trkpt lat="45.70895" lon="4.73665">
        <ele>315.8</ele>
        <time>2025-03-02T08:30:21Z</time>
      </trkpt>
      <trkpt lat="45.70894" lon="4.73663">
        <ele>315.8</ele>
        <time>2025-03-02T08:30:22Z</time>
      </trkpt>
      <trkpt lat="45.70894" lon="4.7366">
        <ele>315.8</ele>
        <time>2025-03-02T08:30:23Z</time>
      </trkpt>
      <trkpt lat="45.70892" lon="4.73658">
        <ele>315.8</ele>
        <time>2025-03-02T08:30:24Z</time>
      </trkpt>
      <trkpt lat="45.70891" lon="4.73656">
        <ele>315.6</ele>
        <time>2025-03-02T08:30:25Z</time>
      </trkpt>
      <trkpt lat="45.7089" lon="4.73655">
        <ele>315.6</ele>
        <time>2025-03-02T08:30:26Z</time>
      </trkpt>
      <trkpt lat="45.70888" lon="4.73655">
        <ele>315.6</ele>
        <time>2025-03-02T08:30:27Z</time>
      </trkpt>
      <trkpt lat="45.70887" lon="4.73656">
        <ele>315.6</ele>
        <time>2025-03-02T08:30:28Z</time>
      </trkpt>
      <trkpt lat="45.70887" lon="4.73658">
        <ele>315.6</ele>
        <time>2025-03-02T08:30:29Z</time>
      </trkpt>
      <trkpt lat="45.70887" lon="4.73659">
        <ele>315.6</ele>
        <time>2025-03-02T08:30:30Z</time>
      </trkpt>
      <trkpt lat="45.70887" lon="4.7366">
        <ele>315.8</ele>
        <time>2025-03-02T08:30:31Z</time>
      </trkpt>
      <trkpt lat="45.70887" lon="4.7366">
        <ele>315.8</ele>
        <time>2025-03-02T08:30:32Z</time>
      </trkpt>
      <trkpt lat="45.70887" lon="4.7366">
        <ele>315.8</ele>
        <time>2025-03-02T08:30:33Z</time>
      </trkpt>
      <trkpt lat="45.70887" lon="4.7366">
        <ele>315.8</ele>
        <time>2025-03-02T08:30:34Z</time>
      </trkpt>
      <trkpt lat="45.70887" lon="4.7366">
        <ele>315.8</ele>
        <time>2025-03-02T08:30:35Z</time>
      </trkpt>
      <trkpt lat="45.70887" lon="4.7366">
        <ele>315.8</ele>
        <time>2025-03-02T08:30:36Z</time>
      </trkpt>
      <trkpt lat="45.70887" lon="4.7366">
        <ele>315.8</ele>
        <time>2025-03-02T08:30:37Z</time>
      </trkpt>
      <trkpt lat="45.70887" lon="4.7366">
        <ele>315.8</ele>
        <time>2025-03-02T08:30:38Z</time>
      </trkpt>
      <trkpt lat="45.70887" lon="4.7366">
        <ele>315.8</ele>
        <time>2025-03-02T08:30:39Z</time>
      </trkpt>
      <trkpt lat="45.70887" lon="4.7366">
        <ele>315.8</ele>
        <time>2025-03-02T08:30:40Z</time>
      </trkpt>
      <trkpt lat="45.70887" lon="4.7366">
        <ele>315.8</ele>
        <time>2025-03-02T08:30:41Z</time>
      </trkpt>
      <trkpt lat="45.70887" lon="4.7366">
        <ele>315.8</ele>
        <time>2025-03-02T08:30:42Z</time>
      </trkpt>
      <trkpt lat="45.70887" lon="4.7366">
        <ele>315.8</ele>
        <time>2025-03-02T08:30:43Z</time>
      </trkpt>
      <trkpt lat="45.70887" lon="4.7366">
        <ele>315.8</ele>
        <time>2025-03-02T08:30:44Z</time>
      </trkpt>
      <trkpt lat="45.70887" lon="4.7366">
        <ele>315.8</ele>
        <time>2025-03-02T08:30:45Z</time>
      </trkpt>
      <trkpt lat="45.70887" lon="4.7366">
        <ele>316</ele>
        <time>2025-03-02T08:30:46Z</time>
      </trkpt>
      <trkpt lat="45.70887" lon="4.7366">
        <ele>316</ele>
        <time>2025-03-02T08:30:47Z</time>
      </trkpt>
      <trkpt lat="45.70887" lon="4.7366">
        <ele>316</ele>
        <time>2025-03-02T08:30:48Z</time>
      </trkpt>
      <trkpt lat="45.70887" lon="4.7366">
        <ele>316</ele>
        <time>2025-03-02T08:30:49Z</time>
      </trkpt>
      <trkpt lat="45.70887" lon="4.7366">
        <ele>316</ele>
        <time>2025-03-02T08:30:50Z</time>
      </trkpt>
      <trkpt lat="45.70887" lon="4.7366">
        <ele>316</ele>
        <time>2025-03-02T08:30:51Z</time>
      </trkpt>
      <trkpt lat="45.70887" lon="4.7366">
        <ele>316</ele>
        <time>2025-03-02T08:30:52Z</time>
      </trkpt>
      <trkpt lat="45.70887" lon="4.7366">
        <ele>316</ele>
        <time>2025-03-02T08:30:53Z</time>
      </trkpt>
      <trkpt lat="45.70887" lon="4.7366">
        <ele>316</ele>
        <time>2025-03-02T08:30:54Z</time>
      </trkpt>
      <trkpt lat="45.70887" lon="4.7366">
        <ele>315.8</ele>
        <time>2025-03-02T08:30:55Z</time>
      </trkpt>
      <trkpt lat="45.70887" lon="4.7366">
        <ele>315.8</ele>
        <time>2025-03-02T08:30:56Z</time>
      </trkpt>
      <trkpt lat="45.70887" lon="4.7366">
        <ele>315.8</ele>
        <time>2025-03-02T08:30:57Z</time>
      </trkpt>
      <trkpt lat="45.70887" lon="4.7366">
        <ele>315.8</ele>
        <time>2025-03-02T08:30:58Z</time>
      </trkpt>
      <trkpt lat="45.70887" lon="4.7366">
        <ele>315.8</ele>
        <time>2025-03-02T08:30:59Z</time>
      </trkpt>
      <trkpt lat="45.70887" lon="4.7366">
        <ele>315.8</ele>
        <time>2025-03-02T08:31:00Z</time>
      </trkpt>
      <trkpt lat="45.70887" lon="4.7366">
        <ele>316</ele>
        <time>2025-03-02T08:31:01Z</time>
      </trkpt>
      <trkpt lat="45.70887" lon="4.7366">
        <ele>316</ele>
        <time>2025-03-02T08:31:02Z</time>
      </trkpt>
      <trkpt lat="45.70887" lon="4.7366">
        <ele>316</ele>
        <time>2025-03-02T08:31:03Z</time>
      </trkpt>
      <trkpt lat="45.70887" lon="4.7366">
        <ele>316</ele>
        <time>2025-03-02T08:31:04Z</time>
      </trkpt>
      <trkpt lat="45.70887" lon="4.7366">
        <ele>316</ele>
        <time>2025-03-02T08:31:05Z</time>
      </trkpt>
      <trkpt lat="45.70887" lon="4.7366">
        <ele>316</ele>
        <time>2025-03-02T08:31:06Z</time>
      </trkpt>
      <trkpt lat="45.70887" lon="4.7366">
        <ele>316</ele>
        <time>2025-03-02T08:31:07Z</time>
      </trkpt>
      <trkpt lat="45.70887" lon="4.7366">
        <ele>315.8</ele>
        <time>2025-03-02T08:31:08Z</time>
      </trkpt>
      <trkpt lat="45.70887" lon="4.73661">
        <ele>315.8</ele>
        <time>2025-03-02T08:31:09Z</time>
      </trkpt>
      <trkpt lat="45.70888" lon="4.73662">
        <ele>315.8</ele>
        <time>2025-03-02T08:31:10Z</time>
      </trkpt>
      <trkpt lat="45.70888" lon="4.73664">
        <ele>315.8</ele>
        <time>2025-03-02T08:31:11Z</time>
      </trkpt>
      <trkpt lat="45.70889" lon="4.73666">
        <ele>315.8</ele>
        <time>2025-03-02T08:31:12Z</time>
      </trkpt>
      <trkpt lat="45.7089" lon="4.73667">
        <ele>315.8</ele>
        <time>2025-03-02T08:31:13Z</time>
      </trkpt>
      <trkpt lat="45.70892" lon="4.73668">
        <ele>315.8</ele>
        <time>2025-03-02T08:31:14Z</time>
      </trkpt>
      <trkpt lat="45.70894" lon="4.73669">
        <ele>315.6</ele>
        <time>2025-03-02T08:31:15Z</time>
      </trkpt>
      <trkpt lat="45.70896" lon="4.7367">
        <ele>315.6</ele>
        <time>2025-03-02T08:31:16Z</time>
      </trkpt>
      <trkpt lat="45.70897" lon="4.7367">
        <ele>315.6</ele>
        <time>2025-03-02T08:31:17Z</time>
      </trkpt>
      <trkpt lat="45.70899" lon="4.7367">
        <ele>315.6</ele>
        <time>2025-03-02T08:31:18Z</time>
      </trkpt>
      <trkpt lat="45.70901" lon="4.73671">
        <ele>315.6</ele>
        <time>2025-03-02T08:31:19Z</time>
      </trkpt>
      <trkpt lat="45.70902" lon="4.73671">
        <ele>315.6</ele>
        <time>2025-03-02T08:31:20Z</time>
      </trkpt>
      <trkpt lat="45.70903" lon="4.73673">
        <ele>315.6</ele>
        <time>2025-03-02T08:31:21Z</time>
      </trkpt>
      <trkpt lat="45.70904" lon="4.73674">
        <ele>315.6</ele>
        <time>2025-03-02T08:31:22Z</time>
      </trkpt>
      <trkpt lat="45.70905" lon="4.73675">
        <ele>315.6</ele>
        <time>2025-03-02T08:31:23Z</time>
      </trkpt>
      <trkpt lat="45.70905" lon="4.73676">
        <ele>315.8</ele>
        <time>2025-03-02T08:31:24Z</time>
      </trkpt>
      <trkpt lat="45.70906" lon="4.73677">
        <ele>315.8</ele>
        <time>2025-03-02T08:31:25Z</time>
      </trkpt>
      <trkpt lat="45.70906" lon="4.73677">
        <ele>316</ele>
        <time>2025-03-02T08:31:26Z</time>
      </trkpt>
      <trkpt lat="45.70906" lon="4.73677">
        <ele>316</ele>
        <time>2025-03-02T08:31:27Z</time>
      </trkpt>
      <trkpt lat="45.70906" lon="4.73677">
        <ele>316.2</ele>
        <time>2025-03-02T08:31:28Z</time>
      </trkpt>
      <trkpt lat="45.70906" lon="4.73677">
        <ele>316.2</ele>
        <time>2025-03-02T08:31:29Z</time>
      </trkpt>
      <trkpt lat="45.70906" lon="4.73677">
        <ele>316.2</ele>
        <time>2025-03-02T08:31:30Z</time>
      </trkpt>
      <trkpt lat="45.70906" lon="4.73677">
        <ele>316.2</ele>
        <time>2025-03-02T08:31:31Z</time>
      </trkpt>
      <trkpt lat="45.70907" lon="4.73678">
        <ele>316.2</ele>
        <time>2025-03-02T08:31:32Z</time>
      </trkpt>
      <trkpt lat="45.70908" lon="4.73677">
        <ele>316.2</ele>
        <time>2025-03-02T08:31:33Z</time>
      </trkpt>
      <trkpt lat="45.70908" lon="4.73675">
        <ele>316.2</ele>
        <time>2025-03-02T08:31:34Z</time>
      </trkpt>
      <trkpt lat="45.70907" lon="4.73675">
        <ele>316.2</ele>
        <time>2025-03-02T08:31:35Z</time>
      </trkpt>
      <trkpt lat="45.70907" lon="4.73675">
        <ele>316.2</ele>
        <time>2025-03-02T08:31:36Z</time>
      </trkpt>
      <trkpt lat="45.70907" lon="4.73675">
        <ele>316.2</ele>
        <time>2025-03-02T08:31:37Z</time>
      </trkpt>
      <trkpt lat="45.70907" lon="4.73675">
        <ele>316.2</ele>
        <time>2025-03-02T08:31:38Z</time>
      </trkpt>
      <trkpt lat="45.70907" lon="4.73675">
        <ele>316.2</ele>
        <time>2025-03-02T08:31:39Z</time>
      </trkpt>
      <trkpt lat="45.70907" lon="4.73675">
        <ele>316.2</ele>
        <time>2025-03-02T08:31:40Z</time>
      </trkpt>
      <trkpt lat="45.70907" lon="4.73675">
        <ele>316.2</ele>
        <time>2025-03-02T08:31:41Z</time>
      </trkpt>
      <trkpt lat="45.70907" lon="4.73675">
        <ele>316.2</ele>
        <time>2025-03-02T08:31:42Z</time>
      </trkpt>
      <trkpt lat="45.70907" lon="4.73675">
        <ele>316.2</ele>
        <time>2025-03-02T08:31:43Z</time>
      </trkpt>
      <trkpt lat="45.70907" lon="4.73675">
        <ele>316.2</ele>
        <time>2025-03-02T08:31:44Z</time>
      </trkpt>
      <trkpt lat="45.70907" lon="4.73675">
        <ele>316.2</ele>
        <time>2025-03-02T08:31:45Z</time>
      </trkpt>
      <trkpt lat="45.70907" lon="4.73675">
        <ele>316.2</ele>
        <time>2025-03-02T08:31:46Z</time>
      </trkpt>
      <trkpt lat="45.70907" lon="4.73675">
        <ele>316.2</ele>
        <time>2025-03-02T08:31:47Z</time>
      </trkpt>
      <trkpt lat="45.70907" lon="4.73675">
        <ele>316.2</ele>
        <time>2025-03-02T08:31:48Z</time>
      </trkpt>
      <trkpt lat="45.70907" lon="4.73675">
        <ele>316</ele>
        <time>2025-03-02T08:31:49Z</time>
      </trkpt>
      <trkpt lat="45.70907" lon="4.73675">
        <ele>316</ele>
        <time>2025-03-02T08:31:50Z</time>
      </trkpt>
      <trkpt lat="45.70907" lon="4.73675">
        <ele>316</ele>
        <time>2025-03-02T08:31:51Z</time>
      </trkpt>
      <trkpt lat="45.70907" lon="4.73675">
        <ele>316</ele>
        <time>2025-03-02T08:31:52Z</time>
      </trkpt>
      <trkpt lat="45.70908" lon="4.73675">
        <ele>316.2</ele>
        <time>2025-03-02T08:31:53Z</time>
      </trkpt>
      <trkpt lat="45.70908" lon="4.73675">
        <ele>316</ele>
        <time>2025-03-02T08:31:54Z</time>
      </trkpt>
      <trkpt lat="45.70908" lon="4.73675">
        <ele>316</ele>
        <time>2025-03-02T08:31:55Z</time>
      </trkpt>
      <trkpt lat="45.70908" lon="4.73675">
        <ele>316</ele>
        <time>2025-03-02T08:31:56Z</time>
      </trkpt>
      <trkpt lat="45.70908" lon="4.73675">
        <ele>316</ele>
        <time>2025-03-02T08:31:57Z</time>
      </trkpt>
      <trkpt lat="45.70908" lon="4.73675">
        <ele>316</ele>
        <time>2025-03-02T08:31:58Z</time>
      </trkpt>
      <trkpt lat="45.70908" lon="4.73675">
        <ele>316</ele>
        <time>2025-03-02T08:31:59Z</time>
      </trkpt>
      <trkpt lat="45.70908" lon="4.73675">
        <ele>316</ele>
        <time>2025-03-02T08:32:00Z</time>
      </trkpt>
      <trkpt lat="45.70908" lon="4.73675">
        <ele>316</ele>
        <time>2025-03-02T08:32:01Z</time>
      </trkpt>
      <trkpt lat="45.70908" lon="4.73675">
        <ele>316</ele>
        <time>2025-03-02T08:32:02Z</time>
      </trkpt>
      <trkpt lat="45.70908" lon="4.73675">
        <ele>316</ele>
        <time>2025-03-02T08:32:03Z</time>
      </trkpt>
      <trkpt lat="45.70908" lon="4.73675">
        <ele>316</ele>
        <time>2025-03-02T08:32:04Z</time>
      </trkpt>
      <trkpt lat="45.70908" lon="4.73675">
        <ele>316</ele>
        <time>2025-03-02T08:32:05Z</time>
      </trkpt>
      <trkpt lat="45.70908" lon="4.73675">
        <ele>316</ele>
        <time>2025-03-02T08:32:06Z</time>
      </trkpt>
      <trkpt lat="45.70908" lon="4.73675">
        <ele>316</ele>
        <time>2025-03-02T08:32:07Z</time>
      </trkpt>
      <trkpt lat="45.70908" lon="4.73675">
        <ele>316</ele>
        <time>2025-03-02T08:32:08Z</time>
      </trkpt>
      <trkpt lat="45.70908" lon="4.73675">
        <ele>315.8</ele>
        <time>2025-03-02T08:32:09Z</time>
      </trkpt>
      <trkpt lat="45.70908" lon="4.73675">
        <ele>315.8</ele>
        <time>2025-03-02T08:32:10Z</time>
      </trkpt>
      <trkpt lat="45.70908" lon="4.73675">
        <ele>315.8</ele>
        <time>2025-03-02T08:32:11Z</time>
      </trkpt>
      <trkpt lat="45.70908" lon="4.73675">
        <ele>315.8</ele>
        <time>2025-03-02T08:32:12Z</time>
      </trkpt>
      <trkpt lat="45.70908" lon="4.73675">
        <ele>315.8</ele>
        <time>2025-03-02T08:32:13Z</time>
      </trkpt>
      <trkpt lat="45.70908" lon="4.73675">
        <ele>315.8</ele>
        <time>2025-03-02T08:32:14Z</time>
      </trkpt>
      <trkpt lat="45.70908" lon="4.73675">
        <ele>315.8</ele>
        <time>2025-03-02T08:32:15Z</time>
      </trkpt>
      <trkpt lat="45.70908" lon="4.73675">
        <ele>315.8</ele>
        <time>2025-03-02T08:32:16Z</time>
      </trkpt>
      <trkpt lat="45.70908" lon="4.73675">
        <ele>315.8</ele>
        <time>2025-03-02T08:32:17Z</time>
      </trkpt>
      <trkpt lat="45.70908" lon="4.73675">
        <ele>315.8</ele>
        <time>2025-03-02T08:32:18Z</time>
      </trkpt>
      <trkpt lat="45.70908" lon="4.73675">
        <ele>315.8</ele>
        <time>2025-03-02T08:32:19Z</time>
      </trkpt>
      <trkpt lat="45.70908" lon="4.73675">
        <ele>315.8</ele>
        <time>2025-03-02T08:32:20Z</time>
      </trkpt>
      <trkpt lat="45.70908" lon="4.73675">
        <ele>315.8</ele>
        <time>2025-03-02T08:32:21Z</time>
      </trkpt>
      <trkpt lat="45.70908" lon="4.73675">
        <ele>315.8</ele>
        <time>2025-03-02T08:32:22Z</time>
      </trkpt>
      <trkpt lat="45.70908" lon="4.73675">
        <ele>315.8</ele>
        <time>2025-03-02T08:32:23Z</time>
      </trkpt>
      <trkpt lat="45.70908" lon="4.73675">
        <ele>315.8</ele>
        <time>2025-03-02T08:32:24Z</time>
      </trkpt>
      <trkpt lat="45.70908" lon="4.73675">
        <ele>315.8</ele>
        <time>2025-03-02T08:32:25Z</time>
      </trkpt>
      <trkpt lat="45.70908" lon="4.73675">
        <ele>315.8</ele>
        <time>2025-03-02T08:32:26Z</time>
      </trkpt>
      <trkpt lat="45.70908" lon="4.73675">
        <ele>315.8</ele>
        <time>2025-03-02T08:32:27Z</time>
      </trkpt>
      <trkpt lat="45.70908" lon="4.73675">
        <ele>315.8</ele>
        <time>2025-03-02T08:32:28Z</time>
      </trkpt>
      <trkpt lat="45.70908" lon="4.73675">
        <ele>315.8</ele>
        <time>2025-03-02T08:32:29Z</time>
      </trkpt>
      <trkpt lat="45.70908" lon="4.73675">
        <ele>315.8</ele>
        <time>2025-03-02T08:32:30Z</time>
      </trkpt>
      <trkpt lat="45.70908" lon="4.73675">
        <ele>315.8</ele>
        <time>2025-03-02T08:32:31Z</time>
      </trkpt>
      <trkpt lat="45.70908" lon="4.73675">
        <ele>315.8</ele>
        <time>2025-03-02T08:32:32Z</time>
      </trkpt>
      <trkpt lat="45.70908" lon="4.73675">
        <ele>315.8</ele>
        <time>2025-03-02T08:32:33Z</time>
      </trkpt>
      <trkpt lat="45.70908" lon="4.73675">
        <ele>315.8</ele>
        <time>2025-03-02T08:32:34Z</time>
      </trkpt>
      <trkpt lat="45.70908" lon="4.73675">
        <ele>315.8</ele>
        <time>2025-03-02T08:32:35Z</time>
      </trkpt>
      <trkpt lat="45.70908" lon="4.73675">
        <ele>315.8</ele>
        <time>2025-03-02T08:32:36Z</time>
      </trkpt>
      <trkpt lat="45.70908" lon="4.73675">
        <ele>315.8</ele>
        <time>2025-03-02T08:32:37Z</time>
      </trkpt>
      <trkpt lat="45.70908" lon="4.73675">
        <ele>315.8</ele>
        <time>2025-03-02T08:32:38Z</time>
      </trkpt>
      <trkpt lat="45.70908" lon="4.73675">
        <ele>315.8</ele>
        <time>2025-03-02T08:32:39Z</time>
      </trkpt>
      <trkpt lat="45.70908" lon="4.73675">
        <ele>315.8</ele>
        <time>2025-03-02T08:32:40Z</time>
      </trkpt>
      <trkpt lat="45.70908" lon="4.73675">
        <ele>315.8</ele>
        <time>2025-03-02T08:32:41Z</time>
      </trkpt>
      <trkpt lat="45.70908" lon="4.73675">
        <ele>315.8</ele>
        <time>2025-03-02T08:32:42Z</time>
      </trkpt>
      <trkpt lat="45.70908" lon="4.73675">
        <ele>315.8</ele>
        <time>2025-03-02T08:32:43Z</time>
      </trkpt>
      <trkpt lat="45.70908" lon="4.73675">
        <ele>315.8</ele>
        <time>2025-03-02T08:32:44Z</time>
      </trkpt>
      <trkpt lat="45.70908" lon="4.73675">
        <ele>315.8</ele>
        <time>2025-03-02T08:32:45Z</time>
      </trkpt>
      <trkpt lat="45.70908" lon="4.73675">
        <ele>315.8</ele>
        <time>2025-03-02T08:32:46Z</time>
      </trkpt>
      <trkpt lat="45.70908" lon="4.73675">
        <ele>315.8</ele>
        <time>2025-03-02T08:32:47Z</time>
      </trkpt>
      <trkpt lat="45.70908" lon="4.73675">
        <ele>315.8</ele>
        <time>2025-03-02T08:32:48Z</time>
      </trkpt>
      <trkpt lat="45.70908" lon="4.73675">
        <ele>315.8</ele>
        <time>2025-03-02T08:32:49Z</time>
      </trkpt>
      <trkpt lat="45.70908" lon="4.73675">
        <ele>315.8</ele>
        <time>2025-03-02T08:32:50Z</time>
      </trkpt>
      <trkpt lat="45.70908" lon="4.73675">
        <ele>315.8</ele>
        <time>2025-03-02T08:32:51Z</time>
      </trkpt>
      <trkpt lat="45.70908" lon="4.73675">
        <ele>315.8</ele>
        <time>2025-03-02T08:32:52Z</time>
      </trkpt>
      <trkpt lat="45.70907" lon="4.73674">
        <ele>315.8</ele>
        <time>2025-03-02T08:32:53Z</time>
      </trkpt>
      <trkpt lat="45.70906" lon="4.73673">
        <ele>315.8</ele>
        <time>2025-03-02T08:32:54Z</time>
      </trkpt>
      <trkpt lat="45.70904" lon="4.73673">
        <ele>316</ele>
        <time>2025-03-02T08:32:55Z</time>
      </trkpt>
      <trkpt lat="45.70904" lon="4.73674">
        <ele>316</ele>
        <time>2025-03-02T08:32:56Z</time>
      </trkpt>
      <trkpt lat="45.70904" lon="4.73676">
        <ele>316</ele>
        <time>2025-03-02T08:32:57Z</time>
      </trkpt>
      <trkpt lat="45.70905" lon="4.73679">
        <ele>316</ele>
        <time>2025-03-02T08:32:58Z</time>
      </trkpt>
      <trkpt lat="45.70906" lon="4.73682">
        <ele>315.8</ele>
        <time>2025-03-02T08:32:59Z</time>
      </trkpt>
      <trkpt lat="45.70908" lon="4.73685">
        <ele>315.8</ele>
        <time>2025-03-02T08:33:00Z</time>
      </trkpt>
      <trkpt lat="45.7091" lon="4.73688">
        <ele>315.8</ele>
        <time>2025-03-02T08:33:01Z</time>
      </trkpt>
      <trkpt lat="45.70913" lon="4.73692">
        <ele>315.6</ele>
        <time>2025-03-02T08:33:02Z</time>
      </trkpt>
      <trkpt lat="45.70916" lon="4.73695">
        <ele>315.6</ele>
        <time>2025-03-02T08:33:03Z</time>
      </trkpt>
      <trkpt lat="45.70919" lon="4.73698">
        <ele>315.4</ele>
        <time>2025-03-02T08:33:04Z</time>
      </trkpt>
      <trkpt lat="45.70923" lon="4.73702">
        <ele>315.2</ele>
        <time>2025-03-02T08:33:05Z</time>
      </trkpt>
      <trkpt lat="45.70926" lon="4.73706">
        <ele>315</ele>
        <time>2025-03-02T08:33:06Z</time>
      </trkpt>
      <trkpt lat="45.7093" lon="4.7371">
        <ele>314.8</ele>
        <time>2025-03-02T08:33:07Z</time>
      </trkpt>
      <trkpt lat="45.70933" lon="4.73714">
        <ele>314.8</ele>
        <time>2025-03-02T08:33:08Z</time>
      </trkpt>
      <trkpt lat="45.70937" lon="4.73718">
        <ele>314.6</ele>
        <time>2025-03-02T08:33:09Z</time>
      </trkpt>
      <trkpt lat="45.7094" lon="4.73723">
        <ele>314.6</ele>
        <time>2025-03-02T08:33:10Z</time>
      </trkpt>
      <trkpt lat="45.70943" lon="4.73727">
        <ele>314.6</ele>
        <time>2025-03-02T08:33:11Z</time>
      </trkpt>
      <trkpt lat="45.70946" lon="4.73731">
        <ele>314.6</ele>
        <time>2025-03-02T08:33:12Z</time>
      </trkpt>
      <trkpt lat="45.7095" lon="4.73736">
        <ele>314.8</ele>
        <time>2025-03-02T08:33:13Z</time>
      </trkpt>
      <trkpt lat="45.70953" lon="4.7374">
        <ele>315</ele>
        <time>2025-03-02T08:33:14Z</time>
      </trkpt>
      <trkpt lat="45.70956" lon="4.73745">
        <ele>315.2</ele>
        <time>2025-03-02T08:33:15Z</time>
      </trkpt>
      <trkpt lat="45.70959" lon="4.73749">
        <ele>315.4</ele>
        <time>2025-03-02T08:33:16Z</time>
      </trkpt>
      <trkpt lat="45.70963" lon="4.73752">
        <ele>315.6</ele>
        <time>2025-03-02T08:33:17Z</time>
      </trkpt>
      <trkpt lat="45.70966" lon="4.73756">
        <ele>315.8</ele>
        <time>2025-03-02T08:33:18Z</time>
      </trkpt>
      <trkpt lat="45.70969" lon="4.7376">
        <ele>316.2</ele>
        <time>2025-03-02T08:33:19Z</time>
      </trkpt>
      <trkpt lat="45.70972" lon="4.73764">
        <ele>316.4</ele>
        <time>2025-03-02T08:33:20Z</time>
      </trkpt>
      <trkpt lat="45.70976" lon="4.73769">
        <ele>316.6</ele>
        <time>2025-03-02T08:33:21Z</time>
      </trkpt>
      <trkpt lat="45.7098" lon="4.73773">
        <ele>316.6</ele>
        <time>2025-03-02T08:33:22Z</time>
      </trkpt>
      <trkpt lat="45.70983" lon="4.73777">
        <ele>316.6</ele>
        <time>2025-03-02T08:33:23Z</time>
      </trkpt>
      <trkpt lat="45.70986" lon="4.73781">
        <ele>316.8</ele>
        <time>2025-03-02T08:33:24Z</time>
      </trkpt>
      <trkpt lat="45.70989" lon="4.73785">
        <ele>317</ele>
        <time>2025-03-02T08:33:25Z</time>
      </trkpt>
      <trkpt lat="45.70992" lon="4.73789">
        <ele>317</ele>
        <time>2025-03-02T08:33:26Z</time>
      </trkpt>
      <trkpt lat="45.70995" lon="4.73793">
        <ele>317.2</ele>
        <time>2025-03-02T08:33:27Z</time>
      </trkpt>
      <trkpt lat="45.70998" lon="4.73797">
        <ele>317.2</ele>
        <time>2025-03-02T08:33:28Z</time>
      </trkpt>
      <trkpt lat="45.71002" lon="4.738">
        <ele>317.4</ele>
        <time>2025-03-02T08:33:29Z</time>
      </trkpt>
      <trkpt lat="45.71005" lon="4.73804">
        <ele>317.6</ele>
        <time>2025-03-02T08:33:30Z</time>
      </trkpt>
      <trkpt lat="45.71008" lon="4.73808">
        <ele>317.8</ele>
        <time>2025-03-02T08:33:31Z</time>
      </trkpt>
      <trkpt lat="45.71011" lon="4.73811">
        <ele>317.8</ele>
        <time>2025-03-02T08:33:32Z</time>
      </trkpt>
      <trkpt lat="45.71015" lon="4.73815">
        <ele>318</ele>
        <time>2025-03-02T08:33:33Z</time>
      </trkpt>
      <trkpt lat="45.71018" lon="4.73819">
        <ele>318</ele>
        <time>2025-03-02T08:33:34Z</time>
      </trkpt>
      <trkpt lat="45.71022" lon="4.73823">
        <ele>318</ele>
        <time>2025-03-02T08:33:35Z</time>
      </trkpt>
      <trkpt lat="45.71025" lon="4.73827">
        <ele>318.2</ele>
        <time>2025-03-02T08:33:36Z</time>
      </trkpt>
      <trkpt lat="45.71028" lon="4.7383">
        <ele>318.4</ele>
        <time>2025-03-02T08:33:37Z</time>
      </trkpt>
      <trkpt lat="45.71032" lon="4.73834">
        <ele>318.6</ele>
        <time>2025-03-02T08:33:38Z</time>
      </trkpt>
      <trkpt lat="45.71035" lon="4.73837">
        <ele>318.8</ele>
        <time>2025-03-02T08:33:39Z</time>
      </trkpt>
      <trkpt lat="45.71039" lon="4.73841">
        <ele>319</ele>
        <time>2025-03-02T08:33:40Z</time>
      </trkpt>
      <trkpt lat="45.71042" lon="4.73844">
        <ele>319</ele>
        <time>2025-03-02T08:33:41Z</time>
      </trkpt>
      <trkpt lat="45.71045" lon="4.73847">
        <ele>319</ele>
        <time>2025-03-02T08:33:42Z</time>
      </trkpt>
      <trkpt lat="45.71049" lon="4.73852">
        <ele>319.2</ele>
        <time>2025-03-02T08:33:43Z</time>
      </trkpt>
      <trkpt lat="45.71052" lon="4.73855">
        <ele>319.4</ele>
        <time>2025-03-02T08:33:44Z</time>
      </trkpt>
      <trkpt lat="45.71055" lon="4.73858">
        <ele>319.4</ele>
        <time>2025-03-02T08:33:45Z</time>
      </trkpt>
      <trkpt lat="45.71058" lon="4.73861">
        <ele>319.6</ele>
        <time>2025-03-02T08:33:46Z</time>
      </trkpt>
      <trkpt lat="45.7106" lon="4.73863">
        <ele>319.6</ele>
        <time>2025-03-02T08:33:47Z</time>
      </trkpt>
      <trkpt lat="45.71062" lon="4.73866">
        <ele>319.8</ele>
        <time>2025-03-02T08:33:48Z</time>
      </trkpt>
      <trkpt lat="45.71065" lon="4.73868">
        <ele>320</ele>
        <time>2025-03-02T08:33:49Z</time>
      </trkpt>
      <trkpt lat="45.71068" lon="4.7387">
        <ele>320</ele>
        <time>2025-03-02T08:33:50Z</time>
      </trkpt>
      <trkpt lat="45.71072" lon="4.73872">
        <ele>320</ele>
        <time>2025-03-02T08:33:51Z</time>
      </trkpt>
      <trkpt lat="45.71075" lon="4.73875">
        <ele>320</ele>
        <time>2025-03-02T08:33:52Z</time>
      </trkpt>
      <trkpt lat="45.71078" lon="4.73879">
        <ele>320.2</ele>
        <time>2025-03-02T08:33:53Z</time>
      </trkpt>
      <trkpt lat="45.71081" lon="4.73882">
        <ele>320.2</ele>
        <time>2025-03-02T08:33:54Z</time>
      </trkpt>
      <trkpt lat="45.71084" lon="4.73886">
        <ele>320.2</ele>
        <time>2025-03-02T08:33:55Z</time>
      </trkpt>
      <trkpt lat="45.71086" lon="4.7389">
        <ele>320.2</ele>
        <time>2025-03-02T08:33:56Z</time>
      </trkpt>
      <trkpt lat="45.71089" lon="4.73895">
        <ele>320.4</ele>
        <time>2025-03-02T08:33:57Z</time>
      </trkpt>
      <trkpt lat="45.71091" lon="4.739">
        <ele>320.8</ele>
        <time>2025-03-02T08:33:58Z</time>
      </trkpt>
      <trkpt lat="45.71093" lon="4.73905">
        <ele>321</ele>
        <time>2025-03-02T08:33:59Z</time>
      </trkpt>
      <trkpt lat="45.71096" lon="4.73909">
        <ele>321</ele>
        <time>2025-03-02T08:34:00Z</time>
      </trkpt>
      <trkpt lat="45.711" lon="4.73912">
        <ele>321.2</ele>
        <time>2025-03-02T08:34:01Z</time>
      </trkpt>
      <trkpt lat="45.71105" lon="4.73913">
        <ele>321.2</ele>
        <time>2025-03-02T08:34:02Z</time>
      </trkpt>
      <trkpt lat="45.71109" lon="4.73914">
        <ele>321.2</ele>
        <time>2025-03-02T08:34:03Z</time>
      </trkpt>
      <trkpt lat="45.71114" lon="4.73915">
        <ele>321.2</ele>
        <time>2025-03-02T08:34:04Z</time>
      </trkpt>
      <trkpt lat="45.71119" lon="4.73916">
        <ele>321.2</ele>
        <time>2025-03-02T08:34:05Z</time>
      </trkpt>
      <trkpt lat="45.71123" lon="4.73918">
        <ele>321.2</ele>
        <time>2025-03-02T08:34:06Z</time>
      </trkpt>
      <trkpt lat="45.71126" lon="4.73921">
        <ele>321.2</ele>
        <time>2025-03-02T08:34:07Z</time>
      </trkpt>
      <trkpt lat="45.7113" lon="4.73925">
        <ele>321.2</ele>
        <time>2025-03-02T08:34:08Z</time>
      </trkpt>
      <trkpt lat="45.71134" lon="4.73928">
        <ele>321.4</ele>
        <time>2025-03-02T08:34:09Z</time>
      </trkpt>
      <trkpt lat="45.71137" lon="4.73932">
        <ele>321.6</ele>
        <time>2025-03-02T08:34:10Z</time>
      </trkpt>
      <trkpt lat="45.71141" lon="4.73935">
        <ele>321.6</ele>
        <time>2025-03-02T08:34:11Z</time>
      </trkpt>
      <trkpt lat="45.71145" lon="4.73938">
        <ele>321.6</ele>
        <time>2025-03-02T08:34:12Z</time>
      </trkpt>
      <trkpt lat="45.71148" lon="4.73942">
        <ele>321.6</ele>
        <time>2025-03-02T08:34:13Z</time>
      </trkpt>
      <trkpt lat="45.71152" lon="4.73945">
        <ele>321.8</ele>
        <time>2025-03-02T08:34:14Z</time>
      </trkpt>
      <trkpt lat="45.71156" lon="4.73948">
        <ele>321.8</ele>
        <time>2025-03-02T08:34:15Z</time>
      </trkpt>
      <trkpt lat="45.7116" lon="4.73951">
        <ele>321.8</ele>
        <time>2025-03-02T08:34:16Z</time>
      </trkpt>
      <trkpt lat="45.71163" lon="4.73954">
        <ele>321.8</ele>
        <time>2025-03-02T08:34:17Z</time>
      </trkpt>
      <trkpt lat="45.71167" lon="4.73958">
        <ele>321.8</ele>
        <time>2025-03-02T08:34:18Z</time>
      </trkpt>
      <trkpt lat="45.71171" lon="4.7396">
        <ele>321.8</ele>
        <time>2025-03-02T08:34:19Z</time>
      </trkpt>
      <trkpt lat="45.71175" lon="4.73962">
        <ele>322</ele>
        <time>2025-03-02T08:34:20Z</time>
      </trkpt>
      <trkpt lat="45.71179" lon="4.73963">
        <ele>322</ele>
        <time>2025-03-02T08:34:21Z</time>
      </trkpt>
      <trkpt lat="45.71183" lon="4.73962">
        <ele>322.2</ele>
        <time>2025-03-02T08:34:22Z</time>
      </trkpt>
      <trkpt lat="45.71186" lon="4.7396">
        <ele>322.4</ele>
        <time>2025-03-02T08:34:23Z</time>
      </trkpt>
      <trkpt lat="45.7119" lon="4.73957">
        <ele>322.6</ele>
        <time>2025-03-02T08:34:24Z</time>
      </trkpt>
      <trkpt lat="45.71192" lon="4.73954">
        <ele>322.8</ele>
        <time>2025-03-02T08:34:25Z</time>
      </trkpt>
      <trkpt lat="45.71197" lon="4.73949">
        <ele>322.8</ele>
        <time>2025-03-02T08:34:26Z</time>
      </trkpt>
      <trkpt lat="45.712" lon="4.73945">
        <ele>323.2</ele>
        <time>2025-03-02T08:34:27Z</time>
      </trkpt>
      <trkpt lat="45.71204" lon="4.73942">
        <ele>323.2</ele>
        <time>2025-03-02T08:34:28Z</time>
      </trkpt>
      <trkpt lat="45.71208" lon="4.73938">
        <ele>323.2</ele>
        <time>2025-03-02T08:34:29Z</time>
      </trkpt>
      <trkpt lat="45.71212" lon="4.73935">
        <ele>323.2</ele>
        <time>2025-03-02T08:34:30Z</time>
      </trkpt>
      <trkpt lat="45.71216" lon="4.73931">
        <ele>323.2</ele>
        <time>2025-03-02T08:34:31Z</time>
      </trkpt>
      <trkpt lat="45.71219" lon="4.73928">
        <ele>323.2</ele>
        <time>2025-03-02T08:34:32Z</time>
      </trkpt>
      <trkpt lat="45.71223" lon="4.73925">
        <ele>323.4</ele>
        <time>2025-03-02T08:34:33Z</time>
      </trkpt>
      <trkpt lat="45.71227" lon="4.73921">
        <ele>323.6</ele>
        <time>2025-03-02T08:34:34Z</time>
      </trkpt>
      <trkpt lat="45.7123" lon="4.73918">
        <ele>323.6</ele>
        <time>2025-03-02T08:34:35Z</time>
      </trkpt>
      <trkpt lat="45.71234" lon="4.73914">
        <ele>323.8</ele>
        <time>2025-03-02T08:34:36Z</time>
      </trkpt>
      <trkpt lat="45.71237" lon="4.73911">
        <ele>323.8</ele>
        <time>2025-03-02T08:34:37Z</time>
      </trkpt>
      <trkpt lat="45.71241" lon="4.73908">
        <ele>324</ele>
        <time>2025-03-02T08:34:38Z</time>
      </trkpt>
      <trkpt lat="45.71245" lon="4.73905">
        <ele>324.2</ele>
        <time>2025-03-02T08:34:39Z</time>
      </trkpt>
      <trkpt lat="45.71248" lon="4.73901">
        <ele>324.2</ele>
        <time>2025-03-02T08:34:40Z</time>
      </trkpt>
      <trkpt lat="45.71252" lon="4.73898">
        <ele>324.4</ele>
        <time>2025-03-02T08:34:41Z</time>
      </trkpt>
      <trkpt lat="45.71256" lon="4.73894">
        <ele>324.4</ele>
        <time>2025-03-02T08:34:42Z</time>
      </trkpt>
      <trkpt lat="45.71259" lon="4.73891">
        <ele>324.6</ele>
        <time>2025-03-02T08:34:43Z</time>
      </trkpt>
      <trkpt lat="45.71263" lon="4.73887">
        <ele>324.6</ele>
        <time>2025-03-02T08:34:44Z</time>
      </trkpt>
      <trkpt lat="45.71268" lon="4.73883">
        <ele>324.6</ele>
        <time>2025-03-02T08:34:45Z</time>
      </trkpt>
      <trkpt lat="45.71271" lon="4.7388">
        <ele>324.6</ele>
        <time>2025-03-02T08:34:46Z</time>
      </trkpt>
      <trkpt lat="45.71275" lon="4.73877">
        <ele>324.6</ele>
        <time>2025-03-02T08:34:47Z</time>
      </trkpt>
      <trkpt lat="45.71279" lon="4.73874">
        <ele>324.6</ele>
        <time>2025-03-02T08:34:48Z</time>
      </trkpt>
      <trkpt lat="45.71283" lon="4.73871">
        <ele>324.6</ele>
        <time>2025-03-02T08:34:49Z</time>
      </trkpt>
      <trkpt lat="45.71288" lon="4.73868">
        <ele>324.4</ele>
        <time>2025-03-02T08:34:50Z</time>
      </trkpt>
      <trkpt lat="45.71292" lon="4.73864">
        <ele>324.4</ele>
        <time>2025-03-02T08:34:51Z</time>
      </trkpt>
      <trkpt lat="45.71296" lon="4.73862">
        <ele>324.4</ele>
        <time>2025-03-02T08:34:52Z</time>
      </trkpt>
      <trkpt lat="45.71301" lon="4.73859">
        <ele>324.4</ele>
        <time>2025-03-02T08:34:53Z</time>
      </trkpt>
      <trkpt lat="45.71305" lon="4.73856">
        <ele>324.4</ele>
        <time>2025-03-02T08:34:54Z</time>
      </trkpt>
      <trkpt lat="45.71309" lon="4.73853">
        <ele>324.4</ele>
        <time>2025-03-02T08:34:55Z</time>
      </trkpt>
      <trkpt lat="45.71314" lon="4.73849">
        <ele>324.4</ele>
        <time>2025-03-02T08:34:56Z</time>
      </trkpt>
      <trkpt lat="45.71318" lon="4.73846">
        <ele>324.4</ele>
        <time>2025-03-02T08:34:57Z</time>
      </trkpt>
      <trkpt lat="45.71323" lon="4.73843">
        <ele>324.4</ele>
        <time>2025-03-02T08:34:58Z</time>
      </trkpt>
      <trkpt lat="45.71327" lon="4.73839">
        <ele>324.4</ele>
        <time>2025-03-02T08:34:59Z</time>
      </trkpt>
      <trkpt lat="45.71331" lon="4.73835">
        <ele>324.4</ele>
        <time>2025-03-02T08:35:00Z</time>
      </trkpt>
      <trkpt lat="45.71335" lon="4.7383">
        <ele>324.2</ele>
        <time>2025-03-02T08:35:01Z</time>
      </trkpt>
      <trkpt lat="45.71338" lon="4.73826">
        <ele>324</ele>
        <time>2025-03-02T08:35:02Z</time>
      </trkpt>
      <trkpt lat="45.71342" lon="4.73822">
        <ele>324</ele>
        <time>2025-03-02T08:35:03Z</time>
      </trkpt>
      <trkpt lat="45.71346" lon="4.73818">
        <ele>323.8</ele>
        <time>2025-03-02T08:35:04Z</time>
      </trkpt>
      <trkpt lat="45.7135" lon="4.73813">
        <ele>323.8</ele>
        <time>2025-03-02T08:35:05Z</time>
      </trkpt>
      <trkpt lat="45.71353" lon="4.73809">
        <ele>323.8</ele>
        <time>2025-03-02T08:35:06Z</time>
      </trkpt>
      <trkpt lat="45.71357" lon="4.73805">
        <ele>323.8</ele>
        <time>2025-03-02T08:35:07Z</time>
      </trkpt>
      <trkpt lat="45.7136" lon="4.73801">
        <ele>323.6</ele>
        <time>2025-03-02T08:35:08Z</time>
      </trkpt>
      <trkpt lat="45.71364" lon="4.73796">
        <ele>323.6</ele>
        <time>2025-03-02T08:35:09Z</time>
      </trkpt>
      <trkpt lat="45.71368" lon="4.73791">
        <ele>323.6</ele>
        <time>2025-03-02T08:35:10Z</time>
      </trkpt>
      <trkpt lat="45.71372" lon="4.73786">
        <ele>323.4</ele>
        <time>2025-03-02T08:35:11Z</time>
      </trkpt>
      <trkpt lat="45.71375" lon="4.73781">
        <ele>323.2</ele>
        <time>2025-03-02T08:35:12Z</time>
      </trkpt>
      <trkpt lat="45.71379" lon="4.73776">
        <ele>323.2</ele>
        <time>2025-03-02T08:35:13Z</time>
      </trkpt>
      <trkpt lat="45.71382" lon="4.7377">
        <ele>323</ele>
        <time>2025-03-02T08:35:14Z</time>
      </trkpt>
      <trkpt lat="45.71385" lon="4.73764">
        <ele>322.8</ele>
        <time>2025-03-02T08:35:15Z</time>
      </trkpt>
      <trkpt lat="45.71389" lon="4.73758">
        <ele>322.6</ele>
        <time>2025-03-02T08:35:16Z</time>
      </trkpt>
      <trkpt lat="45.71392" lon="4.73752">
        <ele>322.4</ele>
        <time>2025-03-02T08:35:17Z</time>
      </trkpt>
      <trkpt lat="45.71396" lon="4.73747">
        <ele>322.4</ele>
        <time>2025-03-02T08:35:18Z</time>
      </trkpt>
      <trkpt lat="45.71399" lon="4.73741">
        <ele>322.4</ele>
        <time>2025-03-02T08:35:19Z</time>
      </trkpt>
      <trkpt lat="45.71402" lon="4.73735">
        <ele>322.2</ele>
        <time>2025-03-02T08:35:20Z</time>
      </trkpt>
      <trkpt lat="45.71405" lon="4.73729">
        <ele>322.2</ele>
        <time>2025-03-02T08:35:21Z</time>
      </trkpt>
      <trkpt lat="45.71408" lon="4.73723">
        <ele>322.2</ele>
        <time>2025-03-02T08:35:22Z</time>
      </trkpt>
      <trkpt lat="45.71412" lon="4.73717">
        <ele>322.2</ele>
        <time>2025-03-02T08:35:23Z</time>
      </trkpt>
      <trkpt lat="45.71415" lon="4.73711">
        <ele>322</ele>
        <time>2025-03-02T08:35:24Z</time>
      </trkpt>
      <trkpt lat="45.71418" lon="4.73705">
        <ele>322</ele>
        <time>2025-03-02T08:35:25Z</time>
      </trkpt>
      <trkpt lat="45.71421" lon="4.73699">
        <ele>321.8</ele>
        <time>2025-03-02T08:35:26Z</time>
      </trkpt>
      <trkpt lat="45.71424" lon="4.73694">
        <ele>321.8</ele>
        <time>2025-03-02T08:35:27Z</time>
      </trkpt>
      <trkpt lat="45.71427" lon="4.73688">
        <ele>321.6</ele>
        <time>2025-03-02T08:35:28Z</time>
      </trkpt>
      <trkpt lat="45.7143" lon="4.73682">
        <ele>321.6</ele>
        <time>2025-03-02T08:35:29Z</time>
      </trkpt>
      <trkpt lat="45.71433" lon="4.73677">
        <ele>321.6</ele>
        <time>2025-03-02T08:35:30Z</time>
      </trkpt>
      <trkpt lat="45.71437" lon="4.73671">
        <ele>321.6</ele>
        <time>2025-03-02T08:35:31Z</time>
      </trkpt>
      <trkpt lat="45.7144" lon="4.73665">
        <ele>321.4</ele>
        <time>2025-03-02T08:35:32Z</time>
      </trkpt>
      <trkpt lat="45.71443" lon="4.73659">
        <ele>321.4</ele>
        <time>2025-03-02T08:35:33Z</time>
      </trkpt>
      <trkpt lat="45.71446" lon="4.73653">
        <ele>321.2</ele>
        <time>2025-03-02T08:35:34Z</time>
      </trkpt>
      <trkpt lat="45.7145" lon="4.73647">
        <ele>321</ele>
        <time>2025-03-02T08:35:35Z</time>
      </trkpt>
      <trkpt lat="45.71454" lon="4.73642">
        <ele>321</ele>
        <time>2025-03-02T08:35:36Z</time>
      </trkpt>
      <trkpt lat="45.71457" lon="4.73636">
        <ele>320.6</ele>
        <time>2025-03-02T08:35:37Z</time>
      </trkpt>
      <trkpt lat="45.71461" lon="4.7363">
        <ele>320.4</ele>
        <time>2025-03-02T08:35:38Z</time>
      </trkpt>
      <trkpt lat="45.71465" lon="4.73624">
        <ele>320</ele>
        <time>2025-03-02T08:35:39Z</time>
      </trkpt>
      <trkpt lat="45.71468" lon="4.73619">
        <ele>319.6</ele>
        <time>2025-03-02T08:35:40Z</time>
      </trkpt>
      <trkpt lat="45.71472" lon="4.73614">
        <ele>319.6</ele>
        <time>2025-03-02T08:35:41Z</time>
      </trkpt>
      <trkpt lat="45.71476" lon="4.73608">
        <ele>319</ele>
        <time>2025-03-02T08:35:42Z</time>
      </trkpt>
      <trkpt lat="45.71479" lon="4.73602">
        <ele>318.8</ele>
        <time>2025-03-02T08:35:43Z</time>
      </trkpt>
      <trkpt lat="45.71484" lon="4.73596">
        <ele>318.4</ele>
        <time>2025-03-02T08:35:44Z</time>
      </trkpt>
      <trkpt lat="45.71489" lon="4.7359">
        <ele>318.2</ele>
        <time>2025-03-02T08:35:45Z</time>
      </trkpt>
      <trkpt lat="45.71494" lon="4.73584">
        <ele>317.4</ele>
        <time>2025-03-02T08:35:46Z</time>
      </trkpt>
      <trkpt lat="45.71499" lon="4.73578">
        <ele>316.6</ele>
        <time>2025-03-02T08:35:47Z</time>
      </trkpt>
      <trkpt lat="45.71504" lon="4.73571">
        <ele>316</ele>
        <time>2025-03-02T08:35:48Z</time>
      </trkpt>
      <trkpt lat="45.7151" lon="4.73564">
        <ele>315</ele>
        <time>2025-03-02T08:35:49Z</time>
      </trkpt>
      <trkpt lat="45.71516" lon="4.73558">
        <ele>314.6</ele>
        <time>2025-03-02T08:35:50Z</time>
      </trkpt>
      <trkpt lat="45.7152" lon="4.73553">
        <ele>313.6</ele>
        <time>2025-03-02T08:35:51Z</time>
      </trkpt>
      <trkpt lat="45.71526" lon="4.73546">
        <ele>313.4</ele>
        <time>2025-03-02T08:35:52Z</time>
      </trkpt>
      <trkpt lat="45.71532" lon="4.7354">
        <ele>313</ele>
        <time>2025-03-02T08:35:53Z</time>
      </trkpt>
      <trkpt lat="45.71537" lon="4.73535">
        <ele>312.8</ele>
        <time>2025-03-02T08:35:54Z</time>
      </trkpt>
      <trkpt lat="45.71542" lon="4.7353">
        <ele>312.4</ele>
        <time>2025-03-02T08:35:55Z</time>
      </trkpt>
      <trkpt lat="45.71546" lon="4.73525">
        <ele>312.2</ele>
        <time>2025-03-02T08:35:56Z</time>
      </trkpt>
      <trkpt lat="45.71551" lon="4.73521">
        <ele>312.2</ele>
        <time>2025-03-02T08:35:57Z</time>
      </trkpt>
      <trkpt lat="45.71556" lon="4.73517">
        <ele>312</ele>
        <time>2025-03-02T08:35:58Z</time>
      </trkpt>
      <trkpt lat="45.7156" lon="4.73513">
        <ele>312</ele>
        <time>2025-03-02T08:35:59Z</time>
      </trkpt>
      <trkpt lat="45.71565" lon="4.73509">
        <ele>312</ele>
        <time>2025-03-02T08:36:00Z</time>
      </trkpt>
      <trkpt lat="45.7157" lon="4.73505">
        <ele>311.8</ele>
        <time>2025-03-02T08:36:01Z</time>
      </trkpt>
      <trkpt lat="45.71574" lon="4.73501">
        <ele>311.8</ele>
        <time>2025-03-02T08:36:02Z</time>
      </trkpt>
      <trkpt lat="45.71579" lon="4.73497">
        <ele>311.4</ele>
        <time>2025-03-02T08:36:03Z</time>
      </trkpt>
      <trkpt lat="45.71585" lon="4.73493">
        <ele>311.2</ele>
        <time>2025-03-02T08:36:04Z</time>
      </trkpt>
      <trkpt lat="45.7159" lon="4.73489">
        <ele>311.2</ele>
        <time>2025-03-02T08:36:05Z</time>
      </trkpt>
      <trkpt lat="45.71595" lon="4.73485">
        <ele>311</ele>
        <time>2025-03-02T08:36:06Z</time>
      </trkpt>
      <trkpt lat="45.716" lon="4.73481">
        <ele>310.6</ele>
        <time>2025-03-02T08:36:07Z</time>
      </trkpt>
      <trkpt lat="45.71604" lon="4.73477">
        <ele>310.2</ele>
        <time>2025-03-02T08:36:08Z</time>
      </trkpt>
      <trkpt lat="45.71609" lon="4.73473">
        <ele>310</ele>
        <time>2025-03-02T08:36:09Z</time>
      </trkpt>
      <trkpt lat="45.71614" lon="4.73469">
        <ele>310</ele>
        <time>2025-03-02T08:36:10Z</time>
      </trkpt>
      <trkpt lat="45.71619" lon="4.73465">
        <ele>309.8</ele>
        <time>2025-03-02T08:36:11Z</time>
      </trkpt>
      <trkpt lat="45.71624" lon="4.73461">
        <ele>309.6</ele>
        <time>2025-03-02T08:36:12Z</time>
      </trkpt>
      <trkpt lat="45.71629" lon="4.73457">
        <ele>309.4</ele>
        <time>2025-03-02T08:36:13Z</time>
      </trkpt>
      <trkpt lat="45.71634" lon="4.73453">
        <ele>309.4</ele>
        <time>2025-03-02T08:36:14Z</time>
      </trkpt>
      <trkpt lat="45.71639" lon="4.73449">
        <ele>309.4</ele>
        <time>2025-03-02T08:36:15Z</time>
      </trkpt>
      <trkpt lat="45.71644" lon="4.73445">
        <ele>309.2</ele>
        <time>2025-03-02T08:36:16Z</time>
      </trkpt>
      <trkpt lat="45.7165" lon="4.73441">
        <ele>308.8</ele>
        <time>2025-03-02T08:36:17Z</time>
      </trkpt>
      <trkpt lat="45.71655" lon="4.73436">
        <ele>308.4</ele>
        <time>2025-03-02T08:36:18Z</time>
      </trkpt>
      <trkpt lat="45.71661" lon="4.73431">
        <ele>308</ele>
        <time>2025-03-02T08:36:19Z</time>
      </trkpt>
      <trkpt lat="45.71666" lon="4.73427">
        <ele>307.2</ele>
        <time>2025-03-02T08:36:20Z</time>
      </trkpt>
      <trkpt lat="45.71672" lon="4.73422">
        <ele>306.4</ele>
        <time>2025-03-02T08:36:21Z</time>
      </trkpt>
      <trkpt lat="45.71678" lon="4.73417">
        <ele>305.8</ele>
        <time>2025-03-02T08:36:22Z</time>
      </trkpt>
      <trkpt lat="45.71683" lon="4.73413">
        <ele>305.2</ele>
        <time>2025-03-02T08:36:23Z</time>
      </trkpt>
      <trkpt lat="45.71688" lon="4.73409">
        <ele>304.8</ele>
        <time>2025-03-02T08:36:24Z</time>
      </trkpt>
      <trkpt lat="45.71694" lon="4.73405">
        <ele>304.6</ele>
        <time>2025-03-02T08:36:25Z</time>
      </trkpt>
      <trkpt lat="45.71699" lon="4.73401">
        <ele>304.6</ele>
        <time>2025-03-02T08:36:26Z</time>
      </trkpt>
      <trkpt lat="45.71704" lon="4.73397">
        <ele>304.6</ele>
        <time>2025-03-02T08:36:27Z</time>
      </trkpt>
      <trkpt lat="45.71709" lon="4.73392">
        <ele>304</ele>
        <time>2025-03-02T08:36:28Z</time>
      </trkpt>
      <trkpt lat="45.71714" lon="4.73387">
        <ele>303.6</ele>
        <time>2025-03-02T08:36:29Z</time>
      </trkpt>
      <trkpt lat="45.71719" lon="4.73382">
        <ele>303.2</ele>
        <time>2025-03-02T08:36:30Z</time>
      </trkpt>
      <trkpt lat="45.71724" lon="4.73377">
        <ele>302.8</ele>
        <time>2025-03-02T08:36:31Z</time>
      </trkpt>
      <trkpt lat="45.71729" lon="4.73372">
        <ele>302.4</ele>
        <time>2025-03-02T08:36:32Z</time>
      </trkpt>
      <trkpt lat="45.71734" lon="4.73366">
        <ele>301.8</ele>
        <time>2025-03-02T08:36:33Z</time>
      </trkpt>
      <trkpt lat="45.71738" lon="4.7336">
        <ele>301.2</ele>
        <time>2025-03-02T08:36:34Z</time>
      </trkpt>
      <trkpt lat="45.71744" lon="4.73353">
        <ele>300.8</ele>
        <time>2025-03-02T08:36:35Z</time>
      </trkpt>
      <trkpt lat="45.71749" lon="4.73345">
        <ele>300.4</ele>
        <time>2025-03-02T08:36:36Z</time>
      </trkpt>
      <trkpt lat="45.71755" lon="4.73338">
        <ele>299.6</ele>
        <time>2025-03-02T08:36:37Z</time>
      </trkpt>
      <trkpt lat="45.71761" lon="4.7333">
        <ele>299</ele>
        <time>2025-03-02T08:36:38Z</time>
      </trkpt>
      <trkpt lat="45.71766" lon="4.73321">
        <ele>298.2</ele>
        <time>2025-03-02T08:36:39Z</time>
      </trkpt>
      <trkpt lat="45.71772" lon="4.73313">
        <ele>297.6</ele>
        <time>2025-03-02T08:36:40Z</time>
      </trkpt>
      <trkpt lat="45.71779" lon="4.73305">
        <ele>296.6</ele>
        <time>2025-03-02T08:36:41Z</time>
      </trkpt>
      <trkpt lat="45.71784" lon="4.73297">
        <ele>295.8</ele>
        <time>2025-03-02T08:36:42Z</time>
      </trkpt>
      <trkpt lat="45.71789" lon="4.73289">
        <ele>295</ele>
        <time>2025-03-02T08:36:43Z</time>
      </trkpt>
      <trkpt lat="45.71794" lon="4.7328">
        <ele>294.2</ele>
        <time>2025-03-02T08:36:44Z</time>
      </trkpt>
      <trkpt lat="45.71798" lon="4.73271">
        <ele>293.6</ele>
        <time>2025-03-02T08:36:45Z</time>
      </trkpt>
      <trkpt lat="45.71802" lon="4.73261">
        <ele>293.4</ele>
        <time>2025-03-02T08:36:46Z</time>
      </trkpt>
      <trkpt lat="45.71807" lon="4.73253">
        <ele>293.2</ele>
        <time>2025-03-02T08:36:47Z</time>
      </trkpt>
      <trkpt lat="45.7181" lon="4.73243">
        <ele>293</ele>
        <time>2025-03-02T08:36:48Z</time>
      </trkpt>
      <trkpt lat="45.71814" lon="4.73235">
        <ele>292.8</ele>
        <time>2025-03-02T08:36:49Z</time>
      </trkpt>
      <trkpt lat="45.71818" lon="4.73227">
        <ele>292.8</ele>
        <time>2025-03-02T08:36:50Z</time>
      </trkpt>
      <trkpt lat="45.71821" lon="4.73219">
        <ele>292.8</ele>
        <time>2025-03-02T08:36:51Z</time>
      </trkpt>
      <trkpt lat="45.71823" lon="4.73211">
        <ele>292.8</ele>
        <time>2025-03-02T08:36:52Z</time>
      </trkpt>
      <trkpt lat="45.71823" lon="4.73202">
        <ele>293.4</ele>
        <time>2025-03-02T08:36:53Z</time>
      </trkpt>
      <trkpt lat="45.71823" lon="4.73194">
        <ele>293.4</ele>
        <time>2025-03-02T08:36:54Z</time>
      </trkpt>
      <trkpt lat="45.71823" lon="4.73186">
        <ele>293.8</ele>
        <time>2025-03-02T08:36:55Z</time>
      </trkpt>
      <trkpt lat="45.71824" lon="4.73179">
        <ele>294.2</ele>
        <time>2025-03-02T08:36:56Z</time>
      </trkpt>
      <trkpt lat="45.71824" lon="4.7317">
        <ele>294.6</ele>
        <time>2025-03-02T08:36:57Z</time>
      </trkpt>
      <trkpt lat="45.71824" lon="4.73163">
        <ele>294.8</ele>
        <time>2025-03-02T08:36:58Z</time>
      </trkpt>
      <trkpt lat="45.71825" lon="4.73156">
        <ele>295.2</ele>
        <time>2025-03-02T08:36:59Z</time>
      </trkpt>
      <trkpt lat="45.71825" lon="4.73149">
        <ele>295.6</ele>
        <time>2025-03-02T08:37:00Z</time>
      </trkpt>
      <trkpt lat="45.71826" lon="4.73142">
        <ele>296</ele>
        <time>2025-03-02T08:37:01Z</time>
      </trkpt>
      <trkpt lat="45.71827" lon="4.73136">
        <ele>296.6</ele>
        <time>2025-03-02T08:37:02Z</time>
      </trkpt>
      <trkpt lat="45.71827" lon="4.73129">
        <ele>297</ele>
        <time>2025-03-02T08:37:03Z</time>
      </trkpt>
      <trkpt lat="45.71828" lon="4.73123">
        <ele>297.2</ele>
        <time>2025-03-02T08:37:04Z</time>
      </trkpt>
      <trkpt lat="45.71828" lon="4.73117">
        <ele>297.6</ele>
        <time>2025-03-02T08:37:05Z</time>
      </trkpt>
      <trkpt lat="45.71829" lon="4.73111">
        <ele>298</ele>
        <time>2025-03-02T08:37:06Z</time>
      </trkpt>
      <trkpt lat="45.7183" lon="4.73105">
        <ele>298.2</ele>
        <time>2025-03-02T08:37:07Z</time>
      </trkpt>
      <trkpt lat="45.7183" lon="4.73099">
        <ele>298.4</ele>
        <time>2025-03-02T08:37:08Z</time>
      </trkpt>
      <trkpt lat="45.71831" lon="4.73093">
        <ele>298.8</ele>
        <time>2025-03-02T08:37:09Z</time>
      </trkpt>
      <trkpt lat="45.71832" lon="4.73086">
        <ele>298.8</ele>
        <time>2025-03-02T08:37:10Z</time>
      </trkpt>
      <trkpt lat="45.71832" lon="4.7308">
        <ele>299</ele>
        <time>2025-03-02T08:37:11Z</time>
      </trkpt>
      <trkpt lat="45.71832" lon="4.73074">
        <ele>299</ele>
        <time>2025-03-02T08:37:12Z</time>
      </trkpt>
      <trkpt lat="45.71833" lon="4.73067">
        <ele>299</ele>
        <time>2025-03-02T08:37:13Z</time>
      </trkpt>
      <trkpt lat="45.71833" lon="4.7306">
        <ele>299</ele>
        <time>2025-03-02T08:37:14Z</time>
      </trkpt>
      <trkpt lat="45.71833" lon="4.73054">
        <ele>299</ele>
        <time>2025-03-02T08:37:15Z</time>
      </trkpt>
      <trkpt lat="45.71833" lon="4.73047">
        <ele>299</ele>
        <time>2025-03-02T08:37:16Z</time>
      </trkpt>
      <trkpt lat="45.71833" lon="4.73042">
        <ele>299</ele>
        <time>2025-03-02T08:37:17Z</time>
      </trkpt>
      <trkpt lat="45.71833" lon="4.73033">
        <ele>299</ele>
        <time>2025-03-02T08:37:18Z</time>
      </trkpt>
      <trkpt lat="45.71834" lon="4.73026">
        <ele>299</ele>
        <time>2025-03-02T08:37:19Z</time>
      </trkpt>
      <trkpt lat="45.71834" lon="4.73019">
        <ele>299</ele>
        <time>2025-03-02T08:37:20Z</time>
      </trkpt>
      <trkpt lat="45.71835" lon="4.73012">
        <ele>299</ele>
        <time>2025-03-02T08:37:21Z</time>
      </trkpt>
      <trkpt lat="45.71835" lon="4.73004">
        <ele>299</ele>
        <time>2025-03-02T08:37:22Z</time>
      </trkpt>
      <trkpt lat="45.71835" lon="4.72997">
        <ele>299</ele>
        <time>2025-03-02T08:37:23Z</time>
      </trkpt>
      <trkpt lat="45.71836" lon="4.7299">
        <ele>299</ele>
        <time>2025-03-02T08:37:24Z</time>
      </trkpt>
      <trkpt lat="45.71836" lon="4.72982">
        <ele>299</ele>
        <time>2025-03-02T08:37:25Z</time>
      </trkpt>
      <trkpt lat="45.71836" lon="4.72975">
        <ele>298.8</ele>
        <time>2025-03-02T08:37:26Z</time>
      </trkpt>
      <trkpt lat="45.71837" lon="4.72967">
        <ele>298.8</ele>
        <time>2025-03-02T08:37:27Z</time>
      </trkpt>
      <trkpt lat="45.71837" lon="4.7296">
        <ele>298.6</ele>
        <time>2025-03-02T08:37:28Z</time>
      </trkpt>
      <trkpt lat="45.71838" lon="4.72953">
        <ele>298.6</ele>
        <time>2025-03-02T08:37:29Z</time>
      </trkpt>
      <trkpt lat="45.71838" lon="4.72945">
        <ele>298.6</ele>
        <time>2025-03-02T08:37:30Z</time>
      </trkpt>
      <trkpt lat="45.71838" lon="4.72938">
        <ele>298.6</ele>
        <time>2025-03-02T08:37:31Z</time>
      </trkpt>
      <trkpt lat="45.71838" lon="4.72931">
        <ele>298.6</ele>
        <time>2025-03-02T08:37:32Z</time>
      </trkpt>
      <trkpt lat="45.71839" lon="4.72923">
        <ele>298.6</ele>
        <time>2025-03-02T08:37:33Z</time>
      </trkpt>
      <trkpt lat="45.71839" lon="4.72916">
        <ele>298.6</ele>
        <time>2025-03-02T08:37:34Z</time>
      </trkpt>
      <trkpt lat="45.7184" lon="4.72908">
        <ele>298.6</ele>
        <time>2025-03-02T08:37:35Z</time>
      </trkpt>
      <trkpt lat="45.7184" lon="4.72901">
        <ele>298.4</ele>
        <time>2025-03-02T08:37:36Z</time>
      </trkpt>
      <trkpt lat="45.71841" lon="4.72893">
        <ele>298.4</ele>
        <time>2025-03-02T08:37:37Z</time>
      </trkpt>
      <trkpt lat="45.71841" lon="4.72885">
        <ele>298.4</ele>
        <time>2025-03-02T08:37:38Z</time>
      </trkpt>
      <trkpt lat="45.71842" lon="4.72879">
        <ele>298.4</ele>
        <time>2025-03-02T08:37:39Z</time>
      </trkpt>
      <trkpt lat="45.71842" lon="4.7287">
        <ele>298.6</ele>
        <time>2025-03-02T08:37:40Z</time>
      </trkpt>
      <trkpt lat="45.71843" lon="4.72862">
        <ele>298.6</ele>
        <time>2025-03-02T08:37:41Z</time>
      </trkpt>
      <trkpt lat="45.71843" lon="4.72855">
        <ele>298.6</ele>
        <time>2025-03-02T08:37:42Z</time>
      </trkpt>
      <trkpt lat="45.71844" lon="4.72847">
        <ele>298.6</ele>
        <time>2025-03-02T08:37:43Z</time>
      </trkpt>
      <trkpt lat="45.71844" lon="4.72839">
        <ele>298.6</ele>
        <time>2025-03-02T08:37:44Z</time>
      </trkpt>
      <trkpt lat="45.71845" lon="4.72831">
        <ele>298.6</ele>
        <time>2025-03-02T08:37:45Z</time>
      </trkpt>
      <trkpt lat="45.71846" lon="4.72824">
        <ele>298.6</ele>
        <time>2025-03-02T08:37:46Z</time>
      </trkpt>
      <trkpt lat="45.71846" lon="4.72816">
        <ele>298.6</ele>
        <time>2025-03-02T08:37:47Z</time>
      </trkpt>
      <trkpt lat="45.71847" lon="4.72809">
        <ele>298.6</ele>
        <time>2025-03-02T08:37:48Z</time>
      </trkpt>
      <trkpt lat="45.71848" lon="4.72801">
        <ele>298.6</ele>
        <time>2025-03-02T08:37:49Z</time>
      </trkpt>
      <trkpt lat="45.71849" lon="4.72794">
        <ele>298.6</ele>
        <time>2025-03-02T08:37:50Z</time>
      </trkpt>
      <trkpt lat="45.71849" lon="4.72786">
        <ele>298.6</ele>
        <time>2025-03-02T08:37:51Z</time>
      </trkpt>
      <trkpt lat="45.7185" lon="4.72779">
        <ele>298.6</ele>
        <time>2025-03-02T08:37:52Z</time>
      </trkpt>
      <trkpt lat="45.71851" lon="4.72772">
        <ele>298.8</ele>
        <time>2025-03-02T08:37:53Z</time>
      </trkpt>
      <trkpt lat="45.71853" lon="4.72765">
        <ele>298.8</ele>
        <time>2025-03-02T08:37:54Z</time>
      </trkpt>
      <trkpt lat="45.71854" lon="4.72758">
        <ele>298.8</ele>
        <time>2025-03-02T08:37:55Z</time>
      </trkpt>
      <trkpt lat="45.71855" lon="4.72752">
        <ele>299.2</ele>
        <time>2025-03-02T08:37:56Z</time>
      </trkpt>
      <trkpt lat="45.71857" lon="4.72745">
        <ele>299.4</ele>
        <time>2025-03-02T08:37:57Z</time>
      </trkpt>
      <trkpt lat="45.71859" lon="4.72739">
        <ele>299.4</ele>
        <time>2025-03-02T08:37:58Z</time>
      </trkpt>
      <trkpt lat="45.71862" lon="4.72734">
        <ele>299.6</ele>
        <time>2025-03-02T08:37:59Z</time>
      </trkpt>
      <trkpt lat="45.71863" lon="4.72729">
        <ele>299.8</ele>
        <time>2025-03-02T08:38:00Z</time>
      </trkpt>
      <trkpt lat="45.71866" lon="4.72721">
        <ele>299.8</ele>
        <time>2025-03-02T08:38:01Z</time>
      </trkpt>
      <trkpt lat="45.71868" lon="4.72716">
        <ele>299.8</ele>
        <time>2025-03-02T08:38:02Z</time>
      </trkpt>
      <trkpt lat="45.71871" lon="4.7271">
        <ele>300</ele>
        <time>2025-03-02T08:38:03Z</time>
      </trkpt>
      <trkpt lat="45.71873" lon="4.72704">
        <ele>300.4</ele>
        <time>2025-03-02T08:38:04Z</time>
      </trkpt>
      <trkpt lat="45.71875" lon="4.72698">
        <ele>300.4</ele>
        <time>2025-03-02T08:38:05Z</time>
      </trkpt>
      <trkpt lat="45.71877" lon="4.72692">
        <ele>300.4</ele>
        <time>2025-03-02T08:38:06Z</time>
      </trkpt>
      <trkpt lat="45.71879" lon="4.72686">
        <ele>300.4</ele>
        <time>2025-03-02T08:38:07Z</time>
      </trkpt>
      <trkpt lat="45.71881" lon="4.72679">
        <ele>300.4</ele>
        <time>2025-03-02T08:38:08Z</time>
      </trkpt>
      <trkpt lat="45.71883" lon="4.72673">
        <ele>300.4</ele>
        <time>2025-03-02T08:38:09Z</time>
      </trkpt>
      <trkpt lat="45.71884" lon="4.72666">
        <ele>300.4</ele>
        <time>2025-03-02T08:38:10Z</time>
      </trkpt>
      <trkpt lat="45.71885" lon="4.72659">
        <ele>300.4</ele>
        <time>2025-03-02T08:38:11Z</time>
      </trkpt>
      <trkpt lat="45.71887" lon="4.72652">
        <ele>300.4</ele>
        <time>2025-03-02T08:38:12Z</time>
      </trkpt>
      <trkpt lat="45.71888" lon="4.72645">
        <ele>300.4</ele>
        <time>2025-03-02T08:38:13Z</time>
      </trkpt>
      <trkpt lat="45.7189" lon="4.72638">
        <ele>300.2</ele>
        <time>2025-03-02T08:38:14Z</time>
      </trkpt>
      <trkpt lat="45.71892" lon="4.7263">
        <ele>300</ele>
        <time>2025-03-02T08:38:15Z</time>
      </trkpt>
      <trkpt lat="45.71893" lon="4.72623">
        <ele>299.8</ele>
        <time>2025-03-02T08:38:16Z</time>
      </trkpt>
      <trkpt lat="45.71895" lon="4.72615">
        <ele>299.6</ele>
        <time>2025-03-02T08:38:17Z</time>
      </trkpt>
      <trkpt lat="45.71896" lon="4.72607">
        <ele>299.2</ele>
        <time>2025-03-02T08:38:18Z</time>
      </trkpt>
      <trkpt lat="45.71898" lon="4.72598">
        <ele>298.8</ele>
        <time>2025-03-02T08:38:19Z</time>
      </trkpt>
      <trkpt lat="45.719" lon="4.7259">
        <ele>298.2</ele>
        <time>2025-03-02T08:38:20Z</time>
      </trkpt>
      <trkpt lat="45.71901" lon="4.72582">
        <ele>297.8</ele>
        <time>2025-03-02T08:38:21Z</time>
      </trkpt>
      <trkpt lat="45.71903" lon="4.72575">
        <ele>297.4</ele>
        <time>2025-03-02T08:38:22Z</time>
      </trkpt>
      <trkpt lat="45.71905" lon="4.72565">
        <ele>297</ele>
        <time>2025-03-02T08:38:23Z</time>
      </trkpt>
      <trkpt lat="45.71906" lon="4.72557">
        <ele>296.6</ele>
        <time>2025-03-02T08:38:24Z</time>
      </trkpt>
      <trkpt lat="45.71907" lon="4.72549">
        <ele>296.2</ele>
        <time>2025-03-02T08:38:25Z</time>
      </trkpt>
      <trkpt lat="45.71909" lon="4.72542">
        <ele>295.8</ele>
        <time>2025-03-02T08:38:26Z</time>
      </trkpt>
      <trkpt lat="45.7191" lon="4.72535">
        <ele>295.6</ele>
        <time>2025-03-02T08:38:27Z</time>
      </trkpt>
      <trkpt lat="45.71911" lon="4.72527">
        <ele>295.6</ele>
        <time>2025-03-02T08:38:28Z</time>
      </trkpt>
      <trkpt lat="45.71912" lon="4.72521">
        <ele>295.4</ele>
        <time>2025-03-02T08:38:29Z</time>
      </trkpt>
      <trkpt lat="45.71914" lon="4.72514">
        <ele>295.4</ele>
        <time>2025-03-02T08:38:30Z</time>
      </trkpt>
      <trkpt lat="45.71916" lon="4.72506">
        <ele>295.2</ele>
        <time>2025-03-02T08:38:31Z</time>
      </trkpt>
      <trkpt lat="45.71918" lon="4.72499">
        <ele>295.2</ele>
        <time>2025-03-02T08:38:32Z</time>
      </trkpt>
      <trkpt lat="45.7192" lon="4.72491">
        <ele>295</ele>
        <time>2025-03-02T08:38:33Z</time>
      </trkpt>
      <trkpt lat="45.71923" lon="4.72484">
        <ele>294.6</ele>
        <time>2025-03-02T08:38:34Z</time>
      </trkpt>
      <trkpt lat="45.71926" lon="4.72477">
        <ele>294.4</ele>
        <time>2025-03-02T08:38:35Z</time>
      </trkpt>
      <trkpt lat="45.71929" lon="4.7247">
        <ele>293.8</ele>
        <time>2025-03-02T08:38:36Z</time>
      </trkpt>
      <trkpt lat="45.71933" lon="4.72462">
        <ele>293.4</ele>
        <time>2025-03-02T08:38:37Z</time>
      </trkpt>
      <trkpt lat="45.71937" lon="4.72455">
        <ele>292.8</ele>
        <time>2025-03-02T08:38:38Z</time>
      </trkpt>
      <trkpt lat="45.71942" lon="4.72447">
        <ele>292.2</ele>
        <time>2025-03-02T08:38:39Z</time>
      </trkpt>
      <trkpt lat="45.71947" lon="4.72438">
        <ele>291.2</ele>
        <time>2025-03-02T08:38:40Z</time>
      </trkpt>
      <trkpt lat="45.71952" lon="4.72429">
        <ele>290.6</ele>
        <time>2025-03-02T08:38:41Z</time>
      </trkpt>
      <trkpt lat="45.71956" lon="4.7242">
        <ele>289.4</ele>
        <time>2025-03-02T08:38:42Z</time>
      </trkpt>
      <trkpt lat="45.71959" lon="4.72411">
        <ele>288.4</ele>
        <time>2025-03-02T08:38:43Z</time>
      </trkpt>
      <trkpt lat="45.71961" lon="4.72405">
        <ele>287.2</ele>
        <time>2025-03-02T08:38:44Z</time>
      </trkpt>
      <trkpt lat="45.71964" lon="4.72396">
        <ele>286.6</ele>
        <time>2025-03-02T08:38:45Z</time>
      </trkpt>
      <trkpt lat="45.71966" lon="4.72393">
        <ele>286</ele>
        <time>2025-03-02T08:38:46Z</time>
      </trkpt>
      <trkpt lat="45.71967" lon="4.72391">
        <ele>286</ele>
        <time>2025-03-02T08:38:47Z</time>
      </trkpt>
      <trkpt lat="45.71967" lon="4.72391">
        <ele>286</ele>
        <time>2025-03-02T08:38:48Z</time>
      </trkpt>
      <trkpt lat="45.71967" lon="4.72391">
        <ele>286</ele>
        <time>2025-03-02T08:38:49Z</time>
      </trkpt>
      <trkpt lat="45.71967" lon="4.72391">
        <ele>286.4</ele>
        <time>2025-03-02T08:38:50Z</time>
      </trkpt>
      <trkpt lat="45.71967" lon="4.72391">
        <ele>286.6</ele>
        <time>2025-03-02T08:38:51Z</time>
      </trkpt>
      <trkpt lat="45.71967" lon="4.72391">
        <ele>286.8</ele>
        <time>2025-03-02T08:38:52Z</time>
      </trkpt>
      <trkpt lat="45.71967" lon="4.72391">
        <ele>286.8</ele>
        <time>2025-03-02T08:38:53Z</time>
      </trkpt>
      <trkpt lat="45.71967" lon="4.72391">
        <ele>286.8</ele>
        <time>2025-03-02T08:38:54Z</time>
      </trkpt>
      <trkpt lat="45.71967" lon="4.72391">
        <ele>286.8</ele>
        <time>2025-03-02T08:38:55Z</time>
      </trkpt>
      <trkpt lat="45.71967" lon="4.72391">
        <ele>286.8</ele>
        <time>2025-03-02T08:38:56Z</time>
      </trkpt>
      <trkpt lat="45.71967" lon="4.72391">
        <ele>286.8</ele>
        <time>2025-03-02T08:38:57Z</time>
      </trkpt>
      <trkpt lat="45.71967" lon="4.72391">
        <ele>286.8</ele>
        <time>2025-03-02T08:38:58Z</time>
      </trkpt>
      <trkpt lat="45.71967" lon="4.72391">
        <ele>286.8</ele>
        <time>2025-03-02T08:38:59Z</time>
      </trkpt>
      <trkpt lat="45.71968" lon="4.7239">
        <ele>286.8</ele>
        <time>2025-03-02T08:39:00Z</time>
      </trkpt>
      <trkpt lat="45.71968" lon="4.7239">
        <ele>286.8</ele>
        <time>2025-03-02T08:39:01Z</time>
      </trkpt>
      <trkpt lat="45.71968" lon="4.7239">
        <ele>286.6</ele>
        <time>2025-03-02T08:39:02Z</time>
      </trkpt>
      <trkpt lat="45.71968" lon="4.72389">
        <ele>286.6</ele>
        <time>2025-03-02T08:39:03Z</time>
      </trkpt>
      <trkpt lat="45.71969" lon="4.72386">
        <ele>286.6</ele>
        <time>2025-03-02T08:39:04Z</time>
      </trkpt>
      <trkpt lat="45.71969" lon="4.72384">
        <ele>286.6</ele>
        <time>2025-03-02T08:39:05Z</time>
      </trkpt>
      <trkpt lat="45.71971" lon="4.72379">
        <ele>286.4</ele>
        <time>2025-03-02T08:39:06Z</time>
      </trkpt>
      <trkpt lat="45.71973" lon="4.72374">
        <ele>286.2</ele>
        <time>2025-03-02T08:39:07Z</time>
      </trkpt>
      <trkpt lat="45.71975" lon="4.72369">
        <ele>286</ele>
        <time>2025-03-02T08:39:08Z</time>
      </trkpt>
      <trkpt lat="45.71977" lon="4.72362">
        <ele>285.8</ele>
        <time>2025-03-02T08:39:09Z</time>
      </trkpt>
      <trkpt lat="45.71978" lon="4.72355">
        <ele>285.6</ele>
        <time>2025-03-02T08:39:10Z</time>
      </trkpt>
      <trkpt lat="45.71979" lon="4.72347">
        <ele>285.2</ele>
        <time>2025-03-02T08:39:11Z</time>
      </trkpt>
      <trkpt lat="45.7198" lon="4.72339">
        <ele>284.8</ele>
        <time>2025-03-02T08:39:12Z</time>
      </trkpt>
      <trkpt lat="45.71981" lon="4.72329">
        <ele>284</ele>
        <time>2025-03-02T08:39:13Z</time>
      </trkpt>
      <trkpt lat="45.71982" lon="4.7232">
        <ele>283.2</ele>
        <time>2025-03-02T08:39:14Z</time>
      </trkpt>
      <trkpt lat="45.71984" lon="4.7231">
        <ele>282</ele>
        <time>2025-03-02T08:39:15Z</time>
      </trkpt>
      <trkpt lat="45.71985" lon="4.72299">
        <ele>281.4</ele>
        <time>2025-03-02T08:39:16Z</time>
      </trkpt>
      <trkpt lat="45.71987" lon="4.72288">
        <ele>280.6</ele>
        <time>2025-03-02T08:39:17Z</time>
      </trkpt>
      <trkpt lat="45.71989" lon="4.72277">
        <ele>280.2</ele>
        <time>2025-03-02T08:39:18Z</time>
      </trkpt>
      <trkpt lat="45.71991" lon="4.72266">
        <ele>279.8</ele>
        <time>2025-03-02T08:39:19Z</time>
      </trkpt>
      <trkpt lat="45.71992" lon="4.72255">
        <ele>279.2</ele>
        <time>2025-03-02T08:39:20Z</time>
      </trkpt>
      <trkpt lat="45.71993" lon="4.72243">
        <ele>278.8</ele>
        <time>2025-03-02T08:39:21Z</time>
      </trkpt>
      <trkpt lat="45.71994" lon="4.72232">
        <ele>278.6</ele>
        <time>2025-03-02T08:39:22Z</time>
      </trkpt>
      <trkpt lat="45.71994" lon="4.7222">
        <ele>278.2</ele>
        <time>2025-03-02T08:39:23Z</time>
      </trkpt>
      <trkpt lat="45.71995" lon="4.72208">
        <ele>277.8</ele>
        <time>2025-03-02T08:39:24Z</time>
      </trkpt>
      <trkpt lat="45.71996" lon="4.72197">
        <ele>277.6</ele>
        <time>2025-03-02T08:39:25Z</time>
      </trkpt>
      <trkpt lat="45.71996" lon="4.72185">
        <ele>277.4</ele>
        <time>2025-03-02T08:39:26Z</time>
      </trkpt>
      <trkpt lat="45.71997" lon="4.72176">
        <ele>277</ele>
        <time>2025-03-02T08:39:27Z</time>
      </trkpt>
      <trkpt lat="45.71998" lon="4.72162">
        <ele>277</ele>
        <time>2025-03-02T08:39:28Z</time>
      </trkpt>
      <trkpt lat="45.71998" lon="4.72152">
        <ele>276.8</ele>
        <time>2025-03-02T08:39:29Z</time>
      </trkpt>
      <trkpt lat="45.71999" lon="4.72143">
        <ele>276.6</ele>
        <time>2025-03-02T08:39:30Z</time>
      </trkpt>
      <trkpt lat="45.72" lon="4.72134">
        <ele>276.6</ele>
        <time>2025-03-02T08:39:31Z</time>
      </trkpt>
      <trkpt lat="45.72001" lon="4.72125">
        <ele>276.6</ele>
        <time>2025-03-02T08:39:32Z</time>
      </trkpt>
      <trkpt lat="45.72001" lon="4.72116">
        <ele>276.6</ele>
        <time>2025-03-02T08:39:33Z</time>
      </trkpt>
      <trkpt lat="45.72002" lon="4.72107">
        <ele>276.6</ele>
        <time>2025-03-02T08:39:34Z</time>
      </trkpt>
      <trkpt lat="45.72003" lon="4.72098">
        <ele>276.8</ele>
        <time>2025-03-02T08:39:35Z</time>
      </trkpt>
      <trkpt lat="45.72003" lon="4.72089">
        <ele>276.8</ele>
        <time>2025-03-02T08:39:36Z</time>
      </trkpt>
      <trkpt lat="45.72004" lon="4.7208">
        <ele>276.6</ele>
        <time>2025-03-02T08:39:37Z</time>
      </trkpt>
      <trkpt lat="45.72005" lon="4.72071">
        <ele>276.6</ele>
        <time>2025-03-02T08:39:38Z</time>
      </trkpt>
      <trkpt lat="45.72006" lon="4.72062">
        <ele>276.6</ele>
        <time>2025-03-02T08:39:39Z</time>
      </trkpt>
      <trkpt lat="45.72006" lon="4.72052">
        <ele>276.2</ele>
        <time>2025-03-02T08:39:40Z</time>
      </trkpt>
      <trkpt lat="45.72007" lon="4.72043">
        <ele>276.2</ele>
        <time>2025-03-02T08:39:41Z</time>
      </trkpt>
      <trkpt lat="45.72007" lon="4.72034">
        <ele>276</ele>
        <time>2025-03-02T08:39:42Z</time>
      </trkpt>
      <trkpt lat="45.72008" lon="4.72025">
        <ele>276</ele>
        <time>2025-03-02T08:39:43Z</time>
      </trkpt>
      <trkpt lat="45.72009" lon="4.72016">
        <ele>275.8</ele>
        <time>2025-03-02T08:39:44Z</time>
      </trkpt>
      <trkpt lat="45.72009" lon="4.72008">
        <ele>275.8</ele>
        <time>2025-03-02T08:39:45Z</time>
      </trkpt>
      <trkpt lat="45.7201" lon="4.71999">
        <ele>275.8</ele>
        <time>2025-03-02T08:39:46Z</time>
      </trkpt>
      <trkpt lat="45.72011" lon="4.71991">
        <ele>275.8</ele>
        <time>2025-03-02T08:39:47Z</time>
      </trkpt>
      <trkpt lat="45.72012" lon="4.71982">
        <ele>275.8</ele>
        <time>2025-03-02T08:39:48Z</time>
      </trkpt>
      <trkpt lat="45.72012" lon="4.71974">
        <ele>276</ele>
        <time>2025-03-02T08:39:49Z</time>
      </trkpt>
      <trkpt lat="45.72013" lon="4.71967">
        <ele>276</ele>
        <time>2025-03-02T08:39:50Z</time>
      </trkpt>
      <trkpt lat="45.72014" lon="4.71959">
        <ele>276.4</ele>
        <time>2025-03-02T08:39:51Z</time>
      </trkpt>
      <trkpt lat="45.72014" lon="4.71951">
        <ele>276.6</ele>
        <time>2025-03-02T08:39:52Z</time>
      </trkpt>
      <trkpt lat="45.72015" lon="4.71943">
        <ele>276.8</ele>
        <time>2025-03-02T08:39:53Z</time>
      </trkpt>
      <trkpt lat="45.72015" lon="4.71935">
        <ele>277.2</ele>
        <time>2025-03-02T08:39:54Z</time>
      </trkpt>
      <trkpt lat="45.72016" lon="4.71928">
        <ele>277.4</ele>
        <time>2025-03-02T08:39:55Z</time>
      </trkpt>
      <trkpt lat="45.72016" lon="4.7192">
        <ele>277.8</ele>
        <time>2025-03-02T08:39:56Z</time>
      </trkpt>
      <trkpt lat="45.72017" lon="4.71911">
        <ele>277.8</ele>
        <time>2025-03-02T08:39:57Z</time>
      </trkpt>
      <trkpt lat="45.72018" lon="4.71905">
        <ele>277.8</ele>
        <time>2025-03-02T08:39:58Z</time>
      </trkpt>
      <trkpt lat="45.72019" lon="4.71895">
        <ele>277.8</ele>
        <time>2025-03-02T08:39:59Z</time>
      </trkpt>
      <trkpt lat="45.72019" lon="4.71886">
        <ele>277.6</ele>
        <time>2025-03-02T08:40:00Z</time>
      </trkpt>
      <trkpt lat="45.7202" lon="4.71877">
        <ele>277.2</ele>
        <time>2025-03-02T08:40:01Z</time>
      </trkpt>
      <trkpt lat="45.72021" lon="4.71867">
        <ele>276.8</ele>
        <time>2025-03-02T08:40:02Z</time>
      </trkpt>
      <trkpt lat="45.72022" lon="4.71857">
        <ele>276.4</ele>
        <time>2025-03-02T08:40:03Z</time>
      </trkpt>
      <trkpt lat="45.72024" lon="4.71847">
        <ele>275.8</ele>
        <time>2025-03-02T08:40:04Z</time>
      </trkpt>
      <trkpt lat="45.72026" lon="4.71837">
        <ele>275.4</ele>
        <time>2025-03-02T08:40:05Z</time>
      </trkpt>
      <trkpt lat="45.72029" lon="4.71826">
        <ele>274.8</ele>
        <time>2025-03-02T08:40:06Z</time>
      </trkpt>
      <trkpt lat="45.72033" lon="4.71817">
        <ele>274.4</ele>
        <time>2025-03-02T08:40:07Z</time>
      </trkpt>
      <trkpt lat="45.72037" lon="4.71809">
        <ele>274</ele>
        <time>2025-03-02T08:40:08Z</time>
      </trkpt>
      <trkpt lat="45.72042" lon="4.71802">
        <ele>273.6</ele>
        <time>2025-03-02T08:40:09Z</time>
      </trkpt>
      <trkpt lat="45.72045" lon="4.71797">
        <ele>273.6</ele>
        <time>2025-03-02T08:40:10Z</time>
      </trkpt>
      <trkpt lat="45.7205" lon="4.71789">
        <ele>273.6</ele>
        <time>2025-03-02T08:40:11Z</time>
      </trkpt>
      <trkpt lat="45.72054" lon="4.71784">
        <ele>273.6</ele>
        <time>2025-03-02T08:40:12Z</time>
      </trkpt>
      <trkpt lat="45.72058" lon="4.71778">
        <ele>274</ele>
        <time>2025-03-02T08:40:13Z</time>
      </trkpt>
      <trkpt lat="45.72062" lon="4.71772">
        <ele>274.2</ele>
        <time>2025-03-02T08:40:14Z</time>
      </trkpt>
      <trkpt lat="45.72065" lon="4.71767">
        <ele>274.8</ele>
        <time>2025-03-02T08:40:15Z</time>
      </trkpt>
      <trkpt lat="45.72068" lon="4.71761">
        <ele>275.4</ele>
        <time>2025-03-02T08:40:16Z</time>
      </trkpt>
      <trkpt lat="45.72071" lon="4.71756">
        <ele>275.8</ele>
        <time>2025-03-02T08:40:17Z</time>
      </trkpt>
      <trkpt lat="45.72074" lon="4.7175">
        <ele>276.2</ele>
        <time>2025-03-02T08:40:18Z</time>
      </trkpt>
      <trkpt lat="45.72076" lon="4.71745">
        <ele>276.6</ele>
        <time>2025-03-02T08:40:19Z</time>
      </trkpt>
      <trkpt lat="45.72079" lon="4.7174">
        <ele>277</ele>
        <time>2025-03-02T08:40:20Z</time>
      </trkpt>
      <trkpt lat="45.72081" lon="4.71734">
        <ele>277.6</ele>
        <time>2025-03-02T08:40:21Z</time>
      </trkpt>
      <trkpt lat="45.72083" lon="4.71729">
        <ele>278</ele>
        <time>2025-03-02T08:40:22Z</time>
      </trkpt>
      <trkpt lat="45.72085" lon="4.71723">
        <ele>278.6</ele>
        <time>2025-03-02T08:40:23Z</time>
      </trkpt>
      <trkpt lat="45.72087" lon="4.71717">
        <ele>279</ele>
        <time>2025-03-02T08:40:24Z</time>
      </trkpt>
      <trkpt lat="45.72089" lon="4.71711">
        <ele>279.4</ele>
        <time>2025-03-02T08:40:25Z</time>
      </trkpt>
      <trkpt lat="45.7209" lon="4.71704">
        <ele>279.8</ele>
        <time>2025-03-02T08:40:26Z</time>
      </trkpt>
      <trkpt lat="45.72092" lon="4.71698">
        <ele>280</ele>
        <time>2025-03-02T08:40:27Z</time>
      </trkpt>
      <trkpt lat="45.72093" lon="4.71691">
        <ele>280.2</ele>
        <time>2025-03-02T08:40:28Z</time>
      </trkpt>
      <trkpt lat="45.72094" lon="4.71685">
        <ele>280.4</ele>
        <time>2025-03-02T08:40:29Z</time>
      </trkpt>
      <trkpt lat="45.72096" lon="4.71678">
        <ele>280.6</ele>
        <time>2025-03-02T08:40:30Z</time>
      </trkpt>
      <trkpt lat="45.72097" lon="4.71672">
        <ele>280.6</ele>
        <time>2025-03-02T08:40:31Z</time>
      </trkpt>
      <trkpt lat="45.72098" lon="4.71665">
        <ele>280.6</ele>
        <time>2025-03-02T08:40:32Z</time>
      </trkpt>
      <trkpt lat="45.72099" lon="4.71658">
        <ele>280.8</ele>
        <time>2025-03-02T08:40:33Z</time>
      </trkpt>
      <trkpt lat="45.721" lon="4.71652">
        <ele>281</ele>
        <time>2025-03-02T08:40:34Z</time>
      </trkpt>
      <trkpt lat="45.72101" lon="4.71645">
        <ele>281.2</ele>
        <time>2025-03-02T08:40:35Z</time>
      </trkpt>
      <trkpt lat="45.72102" lon="4.71638">
        <ele>281.4</ele>
        <time>2025-03-02T08:40:36Z</time>
      </trkpt>
      <trkpt lat="45.72102" lon="4.71632">
        <ele>281.6</ele>
        <time>2025-03-02T08:40:37Z</time>
      </trkpt>
      <trkpt lat="45.72103" lon="4.71625">
        <ele>282</ele>
        <time>2025-03-02T08:40:38Z</time>
      </trkpt>
      <trkpt lat="45.72103" lon="4.71618">
        <ele>282.2</ele>
        <time>2025-03-02T08:40:39Z</time>
      </trkpt>
      <trkpt lat="45.72104" lon="4.71611">
        <ele>282.4</ele>
        <time>2025-03-02T08:40:40Z</time>
      </trkpt>
      <trkpt lat="45.72104" lon="4.71604">
        <ele>282.4</ele>
        <time>2025-03-02T08:40:41Z</time>
      </trkpt>
      <trkpt lat="45.72104" lon="4.71597">
        <ele>282.6</ele>
        <time>2025-03-02T08:40:42Z</time>
      </trkpt>
      <trkpt lat="45.72104" lon="4.7159">
        <ele>282.6</ele>
        <time>2025-03-02T08:40:43Z</time>
      </trkpt>
      <trkpt lat="45.72104" lon="4.71583">
        <ele>282.8</ele>
        <time>2025-03-02T08:40:44Z</time>
      </trkpt>
      <trkpt lat="45.72104" lon="4.71576">
        <ele>283.2</ele>
        <time>2025-03-02T08:40:45Z</time>
      </trkpt>
      <trkpt lat="45.72104" lon="4.71569">
        <ele>283.4</ele>
        <time>2025-03-02T08:40:46Z</time>
      </trkpt>
      <trkpt lat="45.72104" lon="4.71562">
        <ele>283.4</ele>
        <time>2025-03-02T08:40:47Z</time>
      </trkpt>
      <trkpt lat="45.72104" lon="4.71554">
        <ele>283.6</ele>
        <time>2025-03-02T08:40:48Z</time>
      </trkpt>
      <trkpt lat="45.72104" lon="4.71547">
        <ele>283.6</ele>
        <time>2025-03-02T08:40:49Z</time>
      </trkpt>
      <trkpt lat="45.72103" lon="4.7154">
        <ele>283.8</ele>
        <time>2025-03-02T08:40:50Z</time>
      </trkpt>
      <trkpt lat="45.72103" lon="4.71533">
        <ele>284</ele>
        <time>2025-03-02T08:40:51Z</time>
      </trkpt>
      <trkpt lat="45.72103" lon="4.71525">
        <ele>284.2</ele>
        <time>2025-03-02T08:40:52Z</time>
      </trkpt>
      <trkpt lat="45.72103" lon="4.71518">
        <ele>284.2</ele>
        <time>2025-03-02T08:40:53Z</time>
      </trkpt>
      <trkpt lat="45.72102" lon="4.7151">
        <ele>284.4</ele>
        <time>2025-03-02T08:40:54Z</time>
      </trkpt>
      <trkpt lat="45.72102" lon="4.71503">
        <ele>284.4</ele>
        <time>2025-03-02T08:40:55Z</time>
      </trkpt>
      <trkpt lat="45.72102" lon="4.71496">
        <ele>284.4</ele>
        <time>2025-03-02T08:40:56Z</time>
      </trkpt>
      <trkpt lat="45.72102" lon="4.71489">
        <ele>284.4</ele>
        <time>2025-03-02T08:40:57Z</time>
      </trkpt>
      <trkpt lat="45.72102" lon="4.71481">
        <ele>284.6</ele>
        <time>2025-03-02T08:40:58Z</time>
      </trkpt>
      <trkpt lat="45.72101" lon="4.71474">
        <ele>284.6</ele>
        <time>2025-03-02T08:40:59Z</time>
      </trkpt>
      <trkpt lat="45.72101" lon="4.71467">
        <ele>284.8</ele>
        <time>2025-03-02T08:41:00Z</time>
      </trkpt>
      <trkpt lat="45.72101" lon="4.71459">
        <ele>285</ele>
        <time>2025-03-02T08:41:01Z</time>
      </trkpt>
      <trkpt lat="45.72101" lon="4.71452">
        <ele>285.2</ele>
        <time>2025-03-02T08:41:02Z</time>
      </trkpt>
      <trkpt lat="45.721" lon="4.71444">
        <ele>285.2</ele>
        <time>2025-03-02T08:41:03Z</time>
      </trkpt>
      <trkpt lat="45.721" lon="4.71437">
        <ele>285.2</ele>
        <time>2025-03-02T08:41:04Z</time>
      </trkpt>
      <trkpt lat="45.721" lon="4.71429">
        <ele>285.4</ele>
        <time>2025-03-02T08:41:05Z</time>
      </trkpt>
      <trkpt lat="45.72099" lon="4.71421">
        <ele>285.4</ele>
        <time>2025-03-02T08:41:06Z</time>
      </trkpt>
      <trkpt lat="45.72099" lon="4.71413">
        <ele>285.4</ele>
        <time>2025-03-02T08:41:07Z</time>
      </trkpt>
      <trkpt lat="45.72099" lon="4.71405">
        <ele>285.4</ele>
        <time>2025-03-02T08:41:08Z</time>
      </trkpt>
      <trkpt lat="45.72098" lon="4.71397">
        <ele>285.4</ele>
        <time>2025-03-02T08:41:09Z</time>
      </trkpt>
      <trkpt lat="45.72097" lon="4.71389">
        <ele>285.4</ele>
        <time>2025-03-02T08:41:10Z</time>
      </trkpt>
      <trkpt lat="45.72096" lon="4.7138">
        <ele>285.4</ele>
        <time>2025-03-02T08:41:11Z</time>
      </trkpt>
      <trkpt lat="45.72095" lon="4.71372">
        <ele>285.2</ele>
        <time>2025-03-02T08:41:12Z</time>
      </trkpt>
      <trkpt lat="45.72094" lon="4.71364">
        <ele>285</ele>
        <time>2025-03-02T08:41:13Z</time>
      </trkpt>
      <trkpt lat="45.72093" lon="4.71357">
        <ele>285</ele>
        <time>2025-03-02T08:41:14Z</time>
      </trkpt>
      <trkpt lat="45.72093" lon="4.7135">
        <ele>285</ele>
        <time>2025-03-02T08:41:15Z</time>
      </trkpt>
      <trkpt lat="45.72092" lon="4.71343">
        <ele>285</ele>
        <time>2025-03-02T08:41:16Z</time>
      </trkpt>
      <trkpt lat="45.72092" lon="4.71338">
        <ele>285.2</ele>
        <time>2025-03-02T08:41:17Z</time>
      </trkpt>
      <trkpt lat="45.72093" lon="4.71333">
        <ele>285.2</ele>
        <time>2025-03-02T08:41:18Z</time>
      </trkpt>
      <trkpt lat="45.72094" lon="4.71329">
        <ele>285.6</ele>
        <time>2025-03-02T08:41:19Z</time>
      </trkpt>
      <trkpt lat="45.72095" lon="4.71326">
        <ele>285.8</ele>
        <time>2025-03-02T08:41:20Z</time>
      </trkpt>
      <trkpt lat="45.72095" lon="4.71324">
        <ele>286.2</ele>
        <time>2025-03-02T08:41:21Z</time>
      </trkpt>
      <trkpt lat="45.72095" lon="4.71321">
        <ele>286.4</ele>
        <time>2025-03-02T08:41:22Z</time>
      </trkpt>
      <trkpt lat="45.72094" lon="4.71319">
        <ele>286.6</ele>
        <time>2025-03-02T08:41:23Z</time>
      </trkpt>
      <trkpt lat="45.72094" lon="4.71315">
        <ele>286.6</ele>
        <time>2025-03-02T08:41:24Z</time>
      </trkpt>
      <trkpt lat="45.72093" lon="4.71312">
        <ele>286.6</ele>
        <time>2025-03-02T08:41:25Z</time>
      </trkpt>
      <trkpt lat="45.72092" lon="4.71308">
        <ele>286.6</ele>
        <time>2025-03-02T08:41:26Z</time>
      </trkpt>
      <trkpt lat="45.72091" lon="4.71304">
        <ele>286.6</ele>
        <time>2025-03-02T08:41:27Z</time>
      </trkpt>
      <trkpt lat="45.7209" lon="4.71298">
        <ele>286.6</ele>
        <time>2025-03-02T08:41:28Z</time>
      </trkpt>
      <trkpt lat="45.72089" lon="4.71292">
        <ele>286.4</ele>
        <time>2025-03-02T08:41:29Z</time>
      </trkpt>
      <trkpt lat="45.72088" lon="4.71286">
        <ele>286.4</ele>
        <time>2025-03-02T08:41:30Z</time>
      </trkpt>
      <trkpt lat="45.72087" lon="4.7128">
        <ele>286.4</ele>
        <time>2025-03-02T08:41:31Z</time>
      </trkpt>
      <trkpt lat="45.72086" lon="4.71273">
        <ele>286</ele>
        <time>2025-03-02T08:41:32Z</time>
      </trkpt>
      <trkpt lat="45.72085" lon="4.71266">
        <ele>285.8</ele>
        <time>2025-03-02T08:41:33Z</time>
      </trkpt>
      <trkpt lat="45.72084" lon="4.71258">
        <ele>285.8</ele>
        <time>2025-03-02T08:41:34Z</time>
      </trkpt>
      <trkpt lat="45.72082" lon="4.71251">
        <ele>285.6</ele>
        <time>2025-03-02T08:41:35Z</time>
      </trkpt>
      <trkpt lat="45.72081" lon="4.71243">
        <ele>285.6</ele>
        <time>2025-03-02T08:41:36Z</time>
      </trkpt>
      <trkpt lat="45.7208" lon="4.71236">
        <ele>285.6</ele>
        <time>2025-03-02T08:41:37Z</time>
      </trkpt>
      <trkpt lat="45.72078" lon="4.71228">
        <ele>285.6</ele>
        <time>2025-03-02T08:41:38Z</time>
      </trkpt>
      <trkpt lat="45.72077" lon="4.71221">
        <ele>285.2</ele>
        <time>2025-03-02T08:41:39Z</time>
      </trkpt>
      <trkpt lat="45.72075" lon="4.71213">
        <ele>285</ele>
        <time>2025-03-02T08:41:40Z</time>
      </trkpt>
      <trkpt lat="45.72074" lon="4.71205">
        <ele>285</ele>
        <time>2025-03-02T08:41:41Z</time>
      </trkpt>
      <trkpt lat="45.72073" lon="4.71197">
        <ele>284.8</ele>
        <time>2025-03-02T08:41:42Z</time>
      </trkpt>
      <trkpt lat="45.72072" lon="4.7119">
        <ele>284.6</ele>
        <time>2025-03-02T08:41:43Z</time>
      </trkpt>
      <trkpt lat="45.7207" lon="4.71182">
        <ele>284.6</ele>
        <time>2025-03-02T08:41:44Z</time>
      </trkpt>
      <trkpt lat="45.72069" lon="4.71174">
        <ele>284.6</ele>
        <time>2025-03-02T08:41:45Z</time>
      </trkpt>
      <trkpt lat="45.72068" lon="4.71167">
        <ele>284.6</ele>
        <time>2025-03-02T08:41:46Z</time>
      </trkpt>
      <trkpt lat="45.72067" lon="4.7116">
        <ele>284.6</ele>
        <time>2025-03-02T08:41:47Z</time>
      </trkpt>
      <trkpt lat="45.72066" lon="4.71152">
        <ele>284.6</ele>
        <time>2025-03-02T08:41:48Z</time>
      </trkpt>
      <trkpt lat="45.72066" lon="4.71145">
        <ele>284.8</ele>
        <time>2025-03-02T08:41:49Z</time>
      </trkpt>
      <trkpt lat="45.72065" lon="4.71138">
        <ele>285</ele>
        <time>2025-03-02T08:41:50Z</time>
      </trkpt>
      <trkpt lat="45.72064" lon="4.7113">
        <ele>285.2</ele>
        <time>2025-03-02T08:41:51Z</time>
      </trkpt>
      <trkpt lat="45.72063" lon="4.71123">
        <ele>285.2</ele>
        <time>2025-03-02T08:41:52Z</time>
      </trkpt>
      <trkpt lat="45.72062" lon="4.71116">
        <ele>285.4</ele>
        <time>2025-03-02T08:41:53Z</time>
      </trkpt>
      <trkpt lat="45.72062" lon="4.71109">
        <ele>285.4</ele>
        <time>2025-03-02T08:41:54Z</time>
      </trkpt>
      <trkpt lat="45.72061" lon="4.71101">
        <ele>285.6</ele>
        <time>2025-03-02T08:41:55Z</time>
      </trkpt>
      <trkpt lat="45.7206" lon="4.71094">
        <ele>285.8</ele>
        <time>2025-03-02T08:41:56Z</time>
      </trkpt>
      <trkpt lat="45.72059" lon="4.71087">
        <ele>285.8</ele>
        <time>2025-03-02T08:41:57Z</time>
      </trkpt>
      <trkpt lat="45.72058" lon="4.7108">
        <ele>286</ele>
        <time>2025-03-02T08:41:58Z</time>
      </trkpt>
      <trkpt lat="45.72057" lon="4.71073">
        <ele>286.2</ele>
        <time>2025-03-02T08:41:59Z</time>
      </trkpt>
      <trkpt lat="45.72055" lon="4.71066">
        <ele>286.4</ele>
        <time>2025-03-02T08:42:00Z</time>
      </trkpt>
      <trkpt lat="45.72054" lon="4.71059">
        <ele>286.6</ele>
        <time>2025-03-02T08:42:01Z</time>
      </trkpt>
      <trkpt lat="45.72052" lon="4.71052">
        <ele>286.8</ele>
        <time>2025-03-02T08:42:02Z</time>
      </trkpt>
      <trkpt lat="45.7205" lon="4.71045">
        <ele>286.8</ele>
        <time>2025-03-02T08:42:03Z</time>
      </trkpt>
      <trkpt lat="45.72048" lon="4.71038">
        <ele>286.8</ele>
        <time>2025-03-02T08:42:04Z</time>
      </trkpt>
      <trkpt lat="45.72047" lon="4.71031">
        <ele>287</ele>
        <time>2025-03-02T08:42:05Z</time>
      </trkpt>
      <trkpt lat="45.72045" lon="4.71024">
        <ele>287</ele>
        <time>2025-03-02T08:42:06Z</time>
      </trkpt>
      <trkpt lat="45.72043" lon="4.71017">
        <ele>287</ele>
        <time>2025-03-02T08:42:07Z</time>
      </trkpt>
      <trkpt lat="45.7204" lon="4.71011">
        <ele>287</ele>
        <time>2025-03-02T08:42:08Z</time>
      </trkpt>
      <trkpt lat="45.72038" lon="4.71004">
        <ele>287.2</ele>
        <time>2025-03-02T08:42:09Z</time>
      </trkpt>
      <trkpt lat="45.72035" lon="4.70997">
        <ele>287.2</ele>
        <time>2025-03-02T08:42:10Z</time>
      </trkpt>
      <trkpt lat="45.72033" lon="4.70991">
        <ele>287.2</ele>
        <time>2025-03-02T08:42:11Z</time>
      </trkpt>
      <trkpt lat="45.7203" lon="4.70984">
        <ele>287.2</ele>
        <time>2025-03-02T08:42:12Z</time>
      </trkpt>
      <trkpt lat="45.72028" lon="4.70977">
        <ele>287</ele>
        <time>2025-03-02T08:42:13Z</time>
      </trkpt>
      <trkpt lat="45.72026" lon="4.70971">
        <ele>286.8</ele>
        <time>2025-03-02T08:42:14Z</time>
      </trkpt>
      <trkpt lat="45.72024" lon="4.70964">
        <ele>286.6</ele>
        <time>2025-03-02T08:42:15Z</time>
      </trkpt>
      <trkpt lat="45.72021" lon="4.70958">
        <ele>286.4</ele>
        <time>2025-03-02T08:42:16Z</time>
      </trkpt>
      <trkpt lat="45.72019" lon="4.70951">
        <ele>286.4</ele>
        <time>2025-03-02T08:42:17Z</time>
      </trkpt>
      <trkpt lat="45.72017" lon="4.70944">
        <ele>286.2</ele>
        <time>2025-03-02T08:42:18Z</time>
      </trkpt>
      <trkpt lat="45.72016" lon="4.70936">
        <ele>286.2</ele>
        <time>2025-03-02T08:42:19Z</time>
      </trkpt>
      <trkpt lat="45.72015" lon="4.70928">
        <ele>286.2</ele>
        <time>2025-03-02T08:42:20Z</time>
      </trkpt>
      <trkpt lat="45.72016" lon="4.70921">
        <ele>286.2</ele>
        <time>2025-03-02T08:42:21Z</time>
      </trkpt>
      <trkpt lat="45.72017" lon="4.70914">
        <ele>286.2</ele>
        <time>2025-03-02T08:42:22Z</time>
      </trkpt>
      <trkpt lat="45.72018" lon="4.70907">
        <ele>286.2</ele>
        <time>2025-03-02T08:42:23Z</time>
      </trkpt>
      <trkpt lat="45.72019" lon="4.70899">
        <ele>286.2</ele>
        <time>2025-03-02T08:42:24Z</time>
      </trkpt>
      <trkpt lat="45.7202" lon="4.70892">
        <ele>286.2</ele>
        <time>2025-03-02T08:42:25Z</time>
      </trkpt>
      <trkpt lat="45.72021" lon="4.70884">
        <ele>286.2</ele>
        <time>2025-03-02T08:42:26Z</time>
      </trkpt>
      <trkpt lat="45.72022" lon="4.70877">
        <ele>286.2</ele>
        <time>2025-03-02T08:42:27Z</time>
      </trkpt>
      <trkpt lat="45.72023" lon="4.70869">
        <ele>286.2</ele>
        <time>2025-03-02T08:42:28Z</time>
      </trkpt>
      <trkpt lat="45.72024" lon="4.70861">
        <ele>286.2</ele>
        <time>2025-03-02T08:42:29Z</time>
      </trkpt>
      <trkpt lat="45.72025" lon="4.70854">
        <ele>286.4</ele>
        <time>2025-03-02T08:42:30Z</time>
      </trkpt>
      <trkpt lat="45.72026" lon="4.70846">
        <ele>286.4</ele>
        <time>2025-03-02T08:42:31Z</time>
      </trkpt>
      <trkpt lat="45.72027" lon="4.70838">
        <ele>286.4</ele>
        <time>2025-03-02T08:42:32Z</time>
      </trkpt>
      <trkpt lat="45.72028" lon="4.7083">
        <ele>286.4</ele>
        <time>2025-03-02T08:42:33Z</time>
      </trkpt>
      <trkpt lat="45.72029" lon="4.70822">
        <ele>286.4</ele>
        <time>2025-03-02T08:42:34Z</time>
      </trkpt>
      <trkpt lat="45.7203" lon="4.70814">
        <ele>286.4</ele>
        <time>2025-03-02T08:42:35Z</time>
      </trkpt>
      <trkpt lat="45.7203" lon="4.70807">
        <ele>286.4</ele>
        <time>2025-03-02T08:42:36Z</time>
      </trkpt>
      <trkpt lat="45.72031" lon="4.70799">
        <ele>286.4</ele>
        <time>2025-03-02T08:42:37Z</time>
      </trkpt>
      <trkpt lat="45.72032" lon="4.7079">
        <ele>286.6</ele>
        <time>2025-03-02T08:42:38Z</time>
      </trkpt>
      <trkpt lat="45.72033" lon="4.70782">
        <ele>286.6</ele>
        <time>2025-03-02T08:42:39Z</time>
      </trkpt>
      <trkpt lat="45.72034" lon="4.70775">
        <ele>286.6</ele>
        <time>2025-03-02T08:42:40Z</time>
      </trkpt>
      <trkpt lat="45.72035" lon="4.70767">
        <ele>286.8</ele>
        <time>2025-03-02T08:42:41Z</time>
      </trkpt>
      <trkpt lat="45.72035" lon="4.70758">
        <ele>286.8</ele>
        <time>2025-03-02T08:42:42Z</time>
      </trkpt>
      <trkpt lat="45.72035" lon="4.7075">
        <ele>286.8</ele>
        <time>2025-03-02T08:42:43Z</time>
      </trkpt>
      <trkpt lat="45.72035" lon="4.70742">
        <ele>286.8</ele>
        <time>2025-03-02T08:42:44Z</time>
      </trkpt>
      <trkpt lat="45.72036" lon="4.70733">
        <ele>286.6</ele>
        <time>2025-03-02T08:42:45Z</time>
      </trkpt>
      <trkpt lat="45.72036" lon="4.70725">
        <ele>286.6</ele>
        <time>2025-03-02T08:42:46Z</time>
      </trkpt>
      <trkpt lat="45.72036" lon="4.70716">
        <ele>286.6</ele>
        <time>2025-03-02T08:42:47Z</time>
      </trkpt>
      <trkpt lat="45.72036" lon="4.70708">
        <ele>286.4</ele>
        <time>2025-03-02T08:42:48Z</time>
      </trkpt>
      <trkpt lat="45.72036" lon="4.707">
        <ele>286.4</ele>
        <time>2025-03-02T08:42:49Z</time>
      </trkpt>
      <trkpt lat="45.72037" lon="4.70692">
        <ele>286.4</ele>
        <time>2025-03-02T08:42:50Z</time>
      </trkpt>
      <trkpt lat="45.72037" lon="4.70684">
        <ele>286.4</ele>
        <time>2025-03-02T08:42:51Z</time>
      </trkpt>
      <trkpt lat="45.72037" lon="4.70676">
        <ele>286.6</ele>
        <time>2025-03-02T08:42:52Z</time>
      </trkpt>
      <trkpt lat="45.72037" lon="4.70668">
        <ele>286.6</ele>
        <time>2025-03-02T08:42:53Z</time>
      </trkpt>
      <trkpt lat="45.72038" lon="4.7066">
        <ele>286.6</ele>
        <time>2025-03-02T08:42:54Z</time>
      </trkpt>
      <trkpt lat="45.72039" lon="4.70652">
        <ele>286.6</ele>
        <time>2025-03-02T08:42:55Z</time>
      </trkpt>
      <trkpt lat="45.7204" lon="4.70644">
        <ele>286.8</ele>
        <time>2025-03-02T08:42:56Z</time>
      </trkpt>
      <trkpt lat="45.72042" lon="4.70636">
        <ele>287</ele>
        <time>2025-03-02T08:42:57Z</time>
      </trkpt>
      <trkpt lat="45.72043" lon="4.70628">
        <ele>287</ele>
        <time>2025-03-02T08:42:58Z</time>
      </trkpt>
      <trkpt lat="45.72046" lon="4.70621">
        <ele>287</ele>
        <time>2025-03-02T08:42:59Z</time>
      </trkpt>
      <trkpt lat="45.72048" lon="4.70614">
        <ele>287.2</ele>
        <time>2025-03-02T08:43:00Z</time>
      </trkpt>
      <trkpt lat="45.72051" lon="4.70607">
        <ele>287.2</ele>
        <time>2025-03-02T08:43:01Z</time>
      </trkpt>
      <trkpt lat="45.72054" lon="4.70601">
        <ele>287.2</ele>
        <time>2025-03-02T08:43:02Z</time>
      </trkpt>
      <trkpt lat="45.72058" lon="4.70595">
        <ele>287.4</ele>
        <time>2025-03-02T08:43:03Z</time>
      </trkpt>
      <trkpt lat="45.72061" lon="4.70589">
        <ele>287.6</ele>
        <time>2025-03-02T08:43:04Z</time>
      </trkpt>
      <trkpt lat="45.72065" lon="4.70583">
        <ele>287.6</ele>
        <time>2025-03-02T08:43:05Z</time>
      </trkpt>
      <trkpt lat="45.72069" lon="4.70577">
        <ele>287.6</ele>
        <time>2025-03-02T08:43:06Z</time>
      </trkpt>
      <trkpt lat="45.72072" lon="4.70571">
        <ele>287.6</ele>
        <time>2025-03-02T08:43:07Z</time>
      </trkpt>
      <trkpt lat="45.72076" lon="4.70565">
        <ele>287.8</ele>
        <time>2025-03-02T08:43:08Z</time>
      </trkpt>
      <trkpt lat="45.72079" lon="4.70559">
        <ele>287.8</ele>
        <time>2025-03-02T08:43:09Z</time>
      </trkpt>
      <trkpt lat="45.72082" lon="4.70552">
        <ele>287.8</ele>
        <time>2025-03-02T08:43:10Z</time>
      </trkpt>
      <trkpt lat="45.72085" lon="4.70545">
        <ele>287.8</ele>
        <time>2025-03-02T08:43:11Z</time>
      </trkpt>
      <trkpt lat="45.72088" lon="4.70539">
        <ele>288</ele>
        <time>2025-03-02T08:43:12Z</time>
      </trkpt>
      <trkpt lat="45.72091" lon="4.70532">
        <ele>288</ele>
        <time>2025-03-02T08:43:13Z</time>
      </trkpt>
      <trkpt lat="45.72093" lon="4.70525">
        <ele>288</ele>
        <time>2025-03-02T08:43:14Z</time>
      </trkpt>
      <trkpt lat="45.72095" lon="4.70517">
        <ele>288.2</ele>
        <time>2025-03-02T08:43:15Z</time>
      </trkpt>
      <trkpt lat="45.72096" lon="4.7051">
        <ele>288.2</ele>
        <time>2025-03-02T08:43:16Z</time>
      </trkpt>
      <trkpt lat="45.72097" lon="4.70502">
        <ele>288.4</ele>
        <time>2025-03-02T08:43:17Z</time>
      </trkpt>
      <trkpt lat="45.72099" lon="4.70495">
        <ele>288.4</ele>
        <time>2025-03-02T08:43:18Z</time>
      </trkpt>
      <trkpt lat="45.721" lon="4.70488">
        <ele>288.6</ele>
        <time>2025-03-02T08:43:19Z</time>
      </trkpt>
      <trkpt lat="45.72101" lon="4.70481">
        <ele>288.8</ele>
        <time>2025-03-02T08:43:20Z</time>
      </trkpt>
      <trkpt lat="45.72103" lon="4.70473">
        <ele>289</ele>
        <time>2025-03-02T08:43:21Z</time>
      </trkpt>
      <trkpt lat="45.72104" lon="4.70466">
        <ele>289.2</ele>
        <time>2025-03-02T08:43:22Z</time>
      </trkpt>
      <trkpt lat="45.72105" lon="4.70459">
        <ele>289.4</ele>
        <time>2025-03-02T08:43:23Z</time>
      </trkpt>
      <trkpt lat="45.72106" lon="4.70452">
        <ele>289.4</ele>
        <time>2025-03-02T08:43:24Z</time>
      </trkpt>
      <trkpt lat="45.72108" lon="4.70445">
        <ele>289.6</ele>
        <time>2025-03-02T08:43:25Z</time>
      </trkpt>
      <trkpt lat="45.72109" lon="4.70438">
        <ele>289.8</ele>
        <time>2025-03-02T08:43:26Z</time>
      </trkpt>
      <trkpt lat="45.72111" lon="4.70432">
        <ele>290</ele>
        <time>2025-03-02T08:43:27Z</time>
      </trkpt>
      <trkpt lat="45.72112" lon="4.70425">
        <ele>290.2</ele>
        <time>2025-03-02T08:43:28Z</time>
      </trkpt>
      <trkpt lat="45.72114" lon="4.70418">
        <ele>290.4</ele>
        <time>2025-03-02T08:43:29Z</time>
      </trkpt>
      <trkpt lat="45.72115" lon="4.70411">
        <ele>290.6</ele>
        <time>2025-03-02T08:43:30Z</time>
      </trkpt>
      <trkpt lat="45.72116" lon="4.70405">
        <ele>290.8</ele>
        <time>2025-03-02T08:43:31Z</time>
      </trkpt>
      <trkpt lat="45.72118" lon="4.70398">
        <ele>291</ele>
        <time>2025-03-02T08:43:32Z</time>
      </trkpt>
      <trkpt lat="45.72119" lon="4.70392">
        <ele>291</ele>
        <time>2025-03-02T08:43:33Z</time>
      </trkpt>
      <trkpt lat="45.72121" lon="4.70386">
        <ele>291.4</ele>
        <time>2025-03-02T08:43:34Z</time>
      </trkpt>
      <trkpt lat="45.72123" lon="4.7038">
        <ele>291.6</ele>
        <time>2025-03-02T08:43:35Z</time>
      </trkpt>
      <trkpt lat="45.72125" lon="4.70374">
        <ele>291.8</ele>
        <time>2025-03-02T08:43:36Z</time>
      </trkpt>
      <trkpt lat="45.72126" lon="4.70368">
        <ele>291.8</ele>
        <time>2025-03-02T08:43:37Z</time>
      </trkpt>
      <trkpt lat="45.72127" lon="4.70361">
        <ele>292</ele>
        <time>2025-03-02T08:43:38Z</time>
      </trkpt>
      <trkpt lat="45.72128" lon="4.70355">
        <ele>292</ele>
        <time>2025-03-02T08:43:39Z</time>
      </trkpt>
      <trkpt lat="45.72128" lon="4.70348">
        <ele>292.2</ele>
        <time>2025-03-02T08:43:40Z</time>
      </trkpt>
      <trkpt lat="45.72129" lon="4.70342">
        <ele>292.2</ele>
        <time>2025-03-02T08:43:41Z</time>
      </trkpt>
      <trkpt lat="45.7213" lon="4.70335">
        <ele>292.4</ele>
        <time>2025-03-02T08:43:42Z</time>
      </trkpt>
      <trkpt lat="45.72131" lon="4.70329">
        <ele>292.4</ele>
        <time>2025-03-02T08:43:43Z</time>
      </trkpt>
      <trkpt lat="45.72132" lon="4.70323">
        <ele>292.8</ele>
        <time>2025-03-02T08:43:44Z</time>
      </trkpt>
      <trkpt lat="45.72134" lon="4.70317">
        <ele>293</ele>
        <time>2025-03-02T08:43:45Z</time>
      </trkpt>
      <trkpt lat="45.72135" lon="4.70311">
        <ele>293</ele>
        <time>2025-03-02T08:43:46Z</time>
      </trkpt>
      <trkpt lat="45.72136" lon="4.70305">
        <ele>293.2</ele>
        <time>2025-03-02T08:43:47Z</time>
      </trkpt>
      <trkpt lat="45.72138" lon="4.70298">
        <ele>293.4</ele>
        <time>2025-03-02T08:43:48Z</time>
      </trkpt>
      <trkpt lat="45.72138" lon="4.70291">
        <ele>293.6</ele>
        <time>2025-03-02T08:43:49Z</time>
      </trkpt>
      <trkpt lat="45.72139" lon="4.70285">
        <ele>293.8</ele>
        <time>2025-03-02T08:43:50Z</time>
      </trkpt>
      <trkpt lat="45.72141" lon="4.70278">
        <ele>293.8</ele>
        <time>2025-03-02T08:43:51Z</time>
      </trkpt>
      <trkpt lat="45.72142" lon="4.70272">
        <ele>294</ele>
        <time>2025-03-02T08:43:52Z</time>
      </trkpt>
      <trkpt lat="45.72144" lon="4.70265">
        <ele>294.2</ele>
        <time>2025-03-02T08:43:53Z</time>
      </trkpt>
      <trkpt lat="45.72145" lon="4.70258">
        <ele>294.2</ele>
        <time>2025-03-02T08:43:54Z</time>
      </trkpt>
      <trkpt lat="45.72146" lon="4.70251">
        <ele>294.4</ele>
        <time>2025-03-02T08:43:55Z</time>
      </trkpt>
      <trkpt lat="45.72147" lon="4.70244">
        <ele>294.4</ele>
        <time>2025-03-02T08:43:56Z</time>
      </trkpt>
      <trkpt lat="45.72149" lon="4.70238">
        <ele>294.6</ele>
        <time>2025-03-02T08:43:57Z</time>
      </trkpt>
      <trkpt lat="45.7215" lon="4.70231">
        <ele>294.6</ele>
        <time>2025-03-02T08:43:58Z</time>
      </trkpt>
      <trkpt lat="45.72152" lon="4.70224">
        <ele>294.8</ele>
        <time>2025-03-02T08:43:59Z</time>
      </trkpt>
      <trkpt lat="45.72153" lon="4.70217">
        <ele>294.8</ele>
        <time>2025-03-02T08:44:00Z</time>
      </trkpt>
      <trkpt lat="45.72154" lon="4.70211">
        <ele>295</ele>
        <time>2025-03-02T08:44:01Z</time>
      </trkpt>
      <trkpt lat="45.72156" lon="4.70204">
        <ele>295.2</ele>
        <time>2025-03-02T08:44:02Z</time>
      </trkpt>
      <trkpt lat="45.72157" lon="4.70197">
        <ele>295.2</ele>
        <time>2025-03-02T08:44:03Z</time>
      </trkpt>
      <trkpt lat="45.72158" lon="4.7019">
        <ele>295.4</ele>
        <time>2025-03-02T08:44:04Z</time>
      </trkpt>
      <trkpt lat="45.7216" lon="4.70183">
        <ele>295.4</ele>
        <time>2025-03-02T08:44:05Z</time>
      </trkpt>
      <trkpt lat="45.72161" lon="4.70176">
        <ele>295.6</ele>
        <time>2025-03-02T08:44:06Z</time>
      </trkpt>
      <trkpt lat="45.72162" lon="4.70169">
        <ele>295.8</ele>
        <time>2025-03-02T08:44:07Z</time>
      </trkpt>
      <trkpt lat="45.72163" lon="4.70162">
        <ele>295.8</ele>
        <time>2025-03-02T08:44:08Z</time>
      </trkpt>
      <trkpt lat="45.72165" lon="4.70155">
        <ele>295.8</ele>
        <time>2025-03-02T08:44:09Z</time>
      </trkpt>
      <trkpt lat="45.72166" lon="4.70147">
        <ele>295.8</ele>
        <time>2025-03-02T08:44:10Z</time>
      </trkpt>
      <trkpt lat="45.72167" lon="4.7014">
        <ele>296</ele>
        <time>2025-03-02T08:44:11Z</time>
      </trkpt>
      <trkpt lat="45.72168" lon="4.70133">
        <ele>296</ele>
        <time>2025-03-02T08:44:12Z</time>
      </trkpt>
      <trkpt lat="45.72169" lon="4.70126">
        <ele>296</ele>
        <time>2025-03-02T08:44:13Z</time>
      </trkpt>
      <trkpt lat="45.7217" lon="4.70119">
        <ele>296.2</ele>
        <time>2025-03-02T08:44:14Z</time>
      </trkpt>
      <trkpt lat="45.72172" lon="4.70112">
        <ele>296.4</ele>
        <time>2025-03-02T08:44:15Z</time>
      </trkpt>
      <trkpt lat="45.72173" lon="4.70105">
        <ele>296.4</ele>
        <time>2025-03-02T08:44:16Z</time>
      </trkpt>
      <trkpt lat="45.72175" lon="4.70099">
        <ele>296.6</ele>
        <time>2025-03-02T08:44:17Z</time>
      </trkpt>
      <trkpt lat="45.72176" lon="4.70092">
        <ele>296.6</ele>
        <time>2025-03-02T08:44:18Z</time>
      </trkpt>
      <trkpt lat="45.72178" lon="4.70085">
        <ele>296.8</ele>
        <time>2025-03-02T08:44:19Z</time>
      </trkpt>
      <trkpt lat="45.72179" lon="4.70078">
        <ele>296.8</ele>
        <time>2025-03-02T08:44:20Z</time>
      </trkpt>
      <trkpt lat="45.72181" lon="4.70071">
        <ele>297</ele>
        <time>2025-03-02T08:44:21Z</time>
      </trkpt>
      <trkpt lat="45.72182" lon="4.70064">
        <ele>297.2</ele>
        <time>2025-03-02T08:44:22Z</time>
      </trkpt>
      <trkpt lat="45.72183" lon="4.70057">
        <ele>297.2</ele>
        <time>2025-03-02T08:44:23Z</time>
      </trkpt>
      <trkpt lat="45.72185" lon="4.7005">
        <ele>297.2</ele>
        <time>2025-03-02T08:44:24Z</time>
      </trkpt>
      <trkpt lat="45.72186" lon="4.70043">
        <ele>297.4</ele>
        <time>2025-03-02T08:44:25Z</time>
      </trkpt>
      <trkpt lat="45.72187" lon="4.70036">
        <ele>297.4</ele>
        <time>2025-03-02T08:44:26Z</time>
      </trkpt>
      <trkpt lat="45.72189" lon="4.7003">
        <ele>297.4</ele>
        <time>2025-03-02T08:44:27Z</time>
      </trkpt>
      <trkpt lat="45.7219" lon="4.70023">
        <ele>297.6</ele>
        <time>2025-03-02T08:44:28Z</time>
      </trkpt>
      <trkpt lat="45.72191" lon="4.70016">
        <ele>297.6</ele>
        <time>2025-03-02T08:44:29Z</time>
      </trkpt>
      <trkpt lat="45.72193" lon="4.7001">
        <ele>297.6</ele>
        <time>2025-03-02T08:44:30Z</time>
      </trkpt>
      <trkpt lat="45.72194" lon="4.70003">
        <ele>297.8</ele>
        <time>2025-03-02T08:44:31Z</time>
      </trkpt>
      <trkpt lat="45.72196" lon="4.69997">
        <ele>298</ele>
        <time>2025-03-02T08:44:32Z</time>
      </trkpt>
      <trkpt lat="45.72197" lon="4.6999">
        <ele>298</ele>
        <time>2025-03-02T08:44:33Z</time>
      </trkpt>
      <trkpt lat="45.72199" lon="4.69984">
        <ele>298.2</ele>
        <time>2025-03-02T08:44:34Z</time>
      </trkpt>
      <trkpt lat="45.722" lon="4.69977">
        <ele>298.4</ele>
        <time>2025-03-02T08:44:35Z</time>
      </trkpt>
      <trkpt lat="45.72201" lon="4.69971">
        <ele>298.4</ele>
        <time>2025-03-02T08:44:36Z</time>
      </trkpt>
      <trkpt lat="45.72203" lon="4.69965">
        <ele>298.6</ele>
        <time>2025-03-02T08:44:37Z</time>
      </trkpt>
      <trkpt lat="45.72204" lon="4.69958">
        <ele>298.8</ele>
        <time>2025-03-02T08:44:38Z</time>
      </trkpt>
      <trkpt lat="45.72206" lon="4.69952">
        <ele>298.8</ele>
        <time>2025-03-02T08:44:39Z</time>
      </trkpt>
      <trkpt lat="45.72207" lon="4.69946">
        <ele>299</ele>
        <time>2025-03-02T08:44:40Z</time>
      </trkpt>
      <trkpt lat="45.72209" lon="4.6994">
        <ele>299.2</ele>
        <time>2025-03-02T08:44:41Z</time>
      </trkpt>
      <trkpt lat="45.72211" lon="4.69934">
        <ele>299.4</ele>
        <time>2025-03-02T08:44:42Z</time>
      </trkpt>
      <trkpt lat="45.72212" lon="4.69928">
        <ele>299.6</ele>
        <time>2025-03-02T08:44:43Z</time>
      </trkpt>
      <trkpt lat="45.72214" lon="4.69922">
        <ele>299.6</ele>
        <time>2025-03-02T08:44:44Z</time>
      </trkpt>
      <trkpt lat="45.72216" lon="4.69917">
        <ele>299.8</ele>
        <time>2025-03-02T08:44:45Z</time>
      </trkpt>
      <trkpt lat="45.72218" lon="4.69912">
        <ele>300</ele>
        <time>2025-03-02T08:44:46Z</time>
      </trkpt>
      <trkpt lat="45.72219" lon="4.69907">
        <ele>300.2</ele>
        <time>2025-03-02T08:44:47Z</time>
      </trkpt>
      <trkpt lat="45.72221" lon="4.69902">
        <ele>300.4</ele>
        <time>2025-03-02T08:44:48Z</time>
      </trkpt>
      <trkpt lat="45.72223" lon="4.69897">
        <ele>300.8</ele>
        <time>2025-03-02T08:44:49Z</time>
      </trkpt>
      <trkpt lat="45.72224" lon="4.69891">
        <ele>301.2</ele>
        <time>2025-03-02T08:44:50Z</time>
      </trkpt>
      <trkpt lat="45.72225" lon="4.69886">
        <ele>301.6</ele>
        <time>2025-03-02T08:44:51Z</time>
      </trkpt>
      <trkpt lat="45.72225" lon="4.69881">
        <ele>301.8</ele>
        <time>2025-03-02T08:44:52Z</time>
      </trkpt>
      <trkpt lat="45.72225" lon="4.69876">
        <ele>302.2</ele>
        <time>2025-03-02T08:44:53Z</time>
      </trkpt>
      <trkpt lat="45.72224" lon="4.69871">
        <ele>302.4</ele>
        <time>2025-03-02T08:44:54Z</time>
      </trkpt>
      <trkpt lat="45.72223" lon="4.69865">
        <ele>302.6</ele>
        <time>2025-03-02T08:44:55Z</time>
      </trkpt>
      <trkpt lat="45.72221" lon="4.6986">
        <ele>302.8</ele>
        <time>2025-03-02T08:44:56Z</time>
      </trkpt>
      <trkpt lat="45.7222" lon="4.69856">
        <ele>303</ele>
        <time>2025-03-02T08:44:57Z</time>
      </trkpt>
      <trkpt lat="45.72219" lon="4.69851">
        <ele>303.6</ele>
        <time>2025-03-02T08:44:58Z</time>
      </trkpt>
      <trkpt lat="45.7222" lon="4.69846">
        <ele>304</ele>
        <time>2025-03-02T08:44:59Z</time>
      </trkpt>
      <trkpt lat="45.72221" lon="4.69841">
        <ele>304.4</ele>
        <time>2025-03-02T08:45:00Z</time>
      </trkpt>
      <trkpt lat="45.72222" lon="4.69835">
        <ele>304.8</ele>
        <time>2025-03-02T08:45:01Z</time>
      </trkpt>
      <trkpt lat="45.72224" lon="4.69829">
        <ele>305</ele>
        <time>2025-03-02T08:45:02Z</time>
      </trkpt>
      <trkpt lat="45.72225" lon="4.69823">
        <ele>305</ele>
        <time>2025-03-02T08:45:03Z</time>
      </trkpt>
      <trkpt lat="45.72225" lon="4.69817">
        <ele>305</ele>
        <time>2025-03-02T08:45:04Z</time>
      </trkpt>
      <trkpt lat="45.72225" lon="4.6981">
        <ele>305.2</ele>
        <time>2025-03-02T08:45:05Z</time>
      </trkpt>
      <trkpt lat="45.72223" lon="4.69804">
        <ele>305.2</ele>
        <time>2025-03-02T08:45:06Z</time>
      </trkpt>
      <trkpt lat="45.72219" lon="4.69798">
        <ele>305.2</ele>
        <time>2025-03-02T08:45:07Z</time>
      </trkpt>
      <trkpt lat="45.72216" lon="4.69793">
        <ele>305.2</ele>
        <time>2025-03-02T08:45:08Z</time>
      </trkpt>
      <trkpt lat="45.72212" lon="4.69787">
        <ele>305.2</ele>
        <time>2025-03-02T08:45:09Z</time>
      </trkpt>
      <trkpt lat="45.72208" lon="4.69782">
        <ele>305.2</ele>
        <time>2025-03-02T08:45:10Z</time>
      </trkpt>
      <trkpt lat="45.72205" lon="4.69777">
        <ele>305.2</ele>
        <time>2025-03-02T08:45:11Z</time>
      </trkpt>
      <trkpt lat="45.72202" lon="4.69771">
        <ele>305.2</ele>
        <time>2025-03-02T08:45:12Z</time>
      </trkpt>
      <trkpt lat="45.72199" lon="4.69764">
        <ele>305</ele>
        <time>2025-03-02T08:45:13Z</time>
      </trkpt>
      <trkpt lat="45.72196" lon="4.69758">
        <ele>304.8</ele>
        <time>2025-03-02T08:45:14Z</time>
      </trkpt>
      <trkpt lat="45.72194" lon="4.69752">
        <ele>304.8</ele>
        <time>2025-03-02T08:45:15Z</time>
      </trkpt>
      <trkpt lat="45.72191" lon="4.69746">
        <ele>304.8</ele>
        <time>2025-03-02T08:45:16Z</time>
      </trkpt>
      <trkpt lat="45.72189" lon="4.69741">
        <ele>305</ele>
        <time>2025-03-02T08:45:17Z</time>
      </trkpt>
      <trkpt lat="45.72187" lon="4.69735">
        <ele>305.2</ele>
        <time>2025-03-02T08:45:18Z</time>
      </trkpt>
      <trkpt lat="45.72184" lon="4.6973">
        <ele>305.8</ele>
        <time>2025-03-02T08:45:19Z</time>
      </trkpt>
      <trkpt lat="45.72182" lon="4.69724">
        <ele>306.2</ele>
        <time>2025-03-02T08:45:20Z</time>
      </trkpt>
      <trkpt lat="45.72179" lon="4.69719">
        <ele>306.2</ele>
        <time>2025-03-02T08:45:21Z</time>
      </trkpt>
      <trkpt lat="45.72177" lon="4.69713">
        <ele>306.8</ele>
        <time>2025-03-02T08:45:22Z</time>
      </trkpt>
      <trkpt lat="45.72175" lon="4.69708">
        <ele>306.8</ele>
        <time>2025-03-02T08:45:23Z</time>
      </trkpt>
      <trkpt lat="45.72172" lon="4.69703">
        <ele>307</ele>
        <time>2025-03-02T08:45:24Z</time>
      </trkpt>
      <trkpt lat="45.7217" lon="4.69698">
        <ele>307.4</ele>
        <time>2025-03-02T08:45:25Z</time>
      </trkpt>
      <trkpt lat="45.72168" lon="4.69693">
        <ele>307.6</ele>
        <time>2025-03-02T08:45:26Z</time>
      </trkpt>
      <trkpt lat="45.72165" lon="4.69687">
        <ele>308</ele>
        <time>2025-03-02T08:45:27Z</time>
      </trkpt>
      <trkpt lat="45.72163" lon="4.69682">
        <ele>308.4</ele>
        <time>2025-03-02T08:45:28Z</time>
      </trkpt>
      <trkpt lat="45.72161" lon="4.69677">
        <ele>308.6</ele>
        <time>2025-03-02T08:45:29Z</time>
      </trkpt>
      <trkpt lat="45.72159" lon="4.69672">
        <ele>308.8</ele>
        <time>2025-03-02T08:45:30Z</time>
      </trkpt>
      <trkpt lat="45.72157" lon="4.69668">
        <ele>309</ele>
        <time>2025-03-02T08:45:31Z</time>
      </trkpt>
      <trkpt lat="45.72155" lon="4.69663">
        <ele>309.4</ele>
        <time>2025-03-02T08:45:32Z</time>
      </trkpt>
      <trkpt lat="45.72153" lon="4.69658">
        <ele>309.8</ele>
        <time>2025-03-02T08:45:33Z</time>
      </trkpt>
      <trkpt lat="45.72151" lon="4.69654">
        <ele>310</ele>
        <time>2025-03-02T08:45:34Z</time>
      </trkpt>
      <trkpt lat="45.72149" lon="4.69649">
        <ele>310.4</ele>
        <time>2025-03-02T08:45:35Z</time>
      </trkpt>
      <trkpt lat="45.72146" lon="4.69645">
        <ele>310.8</ele>
        <time>2025-03-02T08:45:36Z</time>
      </trkpt>
      <trkpt lat="45.72144" lon="4.69641">
        <ele>311.4</ele>
        <time>2025-03-02T08:45:37Z</time>
      </trkpt>
      <trkpt lat="45.72142" lon="4.69636">
        <ele>311.6</ele>
        <time>2025-03-02T08:45:38Z</time>
      </trkpt>
      <trkpt lat="45.7214" lon="4.69631">
        <ele>312</ele>
        <time>2025-03-02T08:45:39Z</time>
      </trkpt>
      <trkpt lat="45.72138" lon="4.69626">
        <ele>312.4</ele>
        <time>2025-03-02T08:45:40Z</time>
      </trkpt>
      <trkpt lat="45.72136" lon="4.69622">
        <ele>312.8</ele>
        <time>2025-03-02T08:45:41Z</time>
      </trkpt>
      <trkpt lat="45.72134" lon="4.69617">
        <ele>313</ele>
        <time>2025-03-02T08:45:42Z</time>
      </trkpt>
      <trkpt lat="45.72132" lon="4.69612">
        <ele>313.4</ele>
        <time>2025-03-02T08:45:43Z</time>
      </trkpt>
      <trkpt lat="45.72131" lon="4.69608">
        <ele>313.6</ele>
        <time>2025-03-02T08:45:44Z</time>
      </trkpt>
      <trkpt lat="45.72129" lon="4.69603">
        <ele>314</ele>
        <time>2025-03-02T08:45:45Z</time>
      </trkpt>
      <trkpt lat="45.72127" lon="4.69599">
        <ele>314.2</ele>
        <time>2025-03-02T08:45:46Z</time>
      </trkpt>
      <trkpt lat="45.72125" lon="4.69594">
        <ele>314.6</ele>
        <time>2025-03-02T08:45:47Z</time>
      </trkpt>
      <trkpt lat="45.72123" lon="4.6959">
        <ele>315</ele>
        <time>2025-03-02T08:45:48Z</time>
      </trkpt>
      <trkpt lat="45.72122" lon="4.69585">
        <ele>315.4</ele>
        <time>2025-03-02T08:45:49Z</time>
      </trkpt>
      <trkpt lat="45.7212" lon="4.69581">
        <ele>315.8</ele>
        <time>2025-03-02T08:45:50Z</time>
      </trkpt>
      <trkpt lat="45.72118" lon="4.69576">
        <ele>316</ele>
        <time>2025-03-02T08:45:51Z</time>
      </trkpt>
      <trkpt lat="45.72116" lon="4.69572">
        <ele>316.4</ele>
        <time>2025-03-02T08:45:52Z</time>
      </trkpt>
      <trkpt lat="45.72114" lon="4.69568">
        <ele>316.8</ele>
        <time>2025-03-02T08:45:53Z</time>
      </trkpt>
      <trkpt lat="45.72112" lon="4.69563">
        <ele>317</ele>
        <time>2025-03-02T08:45:54Z</time>
      </trkpt>
      <trkpt lat="45.7211" lon="4.69559">
        <ele>317.4</ele>
        <time>2025-03-02T08:45:55Z</time>
      </trkpt>
      <trkpt lat="45.72109" lon="4.69555">
        <ele>317.8</ele>
        <time>2025-03-02T08:45:56Z</time>
      </trkpt>
      <trkpt lat="45.72107" lon="4.69551">
        <ele>318.4</ele>
        <time>2025-03-02T08:45:57Z</time>
      </trkpt>
      <trkpt lat="45.72104" lon="4.69547">
        <ele>319</ele>
        <time>2025-03-02T08:45:58Z</time>
      </trkpt>
      <trkpt lat="45.72102" lon="4.69543">
        <ele>319.6</ele>
        <time>2025-03-02T08:45:59Z</time>
      </trkpt>
      <trkpt lat="45.72099" lon="4.69539">
        <ele>320</ele>
        <time>2025-03-02T08:46:00Z</time>
      </trkpt>
      <trkpt lat="45.72097" lon="4.69536">
        <ele>320.4</ele>
        <time>2025-03-02T08:46:01Z</time>
      </trkpt>
      <trkpt lat="45.72095" lon="4.69532">
        <ele>320.8</ele>
        <time>2025-03-02T08:46:02Z</time>
      </trkpt>
      <trkpt lat="45.72094" lon="4.69529">
        <ele>321.2</ele>
        <time>2025-03-02T08:46:03Z</time>
      </trkpt>
      <trkpt lat="45.72092" lon="4.69526">
        <ele>321.6</ele>
        <time>2025-03-02T08:46:04Z</time>
      </trkpt>
      <trkpt lat="45.72091" lon="4.69522">
        <ele>322.2</ele>
        <time>2025-03-02T08:46:05Z</time>
      </trkpt>
      <trkpt lat="45.72089" lon="4.69519">
        <ele>322.4</ele>
        <time>2025-03-02T08:46:06Z</time>
      </trkpt>
      <trkpt lat="45.72087" lon="4.69515">
        <ele>322.6</ele>
        <time>2025-03-02T08:46:07Z</time>
      </trkpt>
      <trkpt lat="45.72085" lon="4.69511">
        <ele>322.8</ele>
        <time>2025-03-02T08:46:08Z</time>
      </trkpt>
      <trkpt lat="45.72082" lon="4.69508">
        <ele>323</ele>
        <time>2025-03-02T08:46:09Z</time>
      </trkpt>
      <trkpt lat="45.7208" lon="4.69504">
        <ele>323.4</ele>
        <time>2025-03-02T08:46:10Z</time>
      </trkpt>
      <trkpt lat="45.72078" lon="4.695">
        <ele>323.8</ele>
        <time>2025-03-02T08:46:11Z</time>
      </trkpt>
      <trkpt lat="45.72075" lon="4.69496">
        <ele>324</ele>
        <time>2025-03-02T08:46:12Z</time>
      </trkpt>
      <trkpt lat="45.72073" lon="4.69492">
        <ele>324.4</ele>
        <time>2025-03-02T08:46:13Z</time>
      </trkpt>
      <trkpt lat="45.72072" lon="4.69488">
        <ele>324.8</ele>
        <time>2025-03-02T08:46:14Z</time>
      </trkpt>
      <trkpt lat="45.72071" lon="4.69483">
        <ele>325</ele>
        <time>2025-03-02T08:46:15Z</time>
      </trkpt>
      <trkpt lat="45.7207" lon="4.6948">
        <ele>325.4</ele>
        <time>2025-03-02T08:46:16Z</time>
      </trkpt>
      <trkpt lat="45.72068" lon="4.69475">
        <ele>325.8</ele>
        <time>2025-03-02T08:46:17Z</time>
      </trkpt>
      <trkpt lat="45.72067" lon="4.69471">
        <ele>326.2</ele>
        <time>2025-03-02T08:46:18Z</time>
      </trkpt>
      <trkpt lat="45.72066" lon="4.69466">
        <ele>326.6</ele>
        <time>2025-03-02T08:46:19Z</time>
      </trkpt>
      <trkpt lat="45.72065" lon="4.6946">
        <ele>327</ele>
        <time>2025-03-02T08:46:20Z</time>
      </trkpt>
      <trkpt lat="45.72064" lon="4.69455">
        <ele>327.2</ele>
        <time>2025-03-02T08:46:21Z</time>
      </trkpt>
      <trkpt lat="45.72063" lon="4.6945">
        <ele>327.4</ele>
        <time>2025-03-02T08:46:22Z</time>
      </trkpt>
      <trkpt lat="45.72061" lon="4.69445">
        <ele>327.4</ele>
        <time>2025-03-02T08:46:23Z</time>
      </trkpt>
      <trkpt lat="45.72059" lon="4.6944">
        <ele>327.6</ele>
        <time>2025-03-02T08:46:24Z</time>
      </trkpt>
      <trkpt lat="45.72057" lon="4.69436">
        <ele>327.6</ele>
        <time>2025-03-02T08:46:25Z</time>
      </trkpt>
      <trkpt lat="45.72055" lon="4.69431">
        <ele>327.6</ele>
        <time>2025-03-02T08:46:26Z</time>
      </trkpt>
      <trkpt lat="45.72054" lon="4.69426">
        <ele>327.6</ele>
        <time>2025-03-02T08:46:27Z</time>
      </trkpt>
      <trkpt lat="45.72053" lon="4.69422">
        <ele>327.8</ele>
        <time>2025-03-02T08:46:28Z</time>
      </trkpt>
      <trkpt lat="45.72053" lon="4.69417">
        <ele>327.8</ele>
        <time>2025-03-02T08:46:29Z</time>
      </trkpt>
      <trkpt lat="45.72053" lon="4.69411">
        <ele>328</ele>
        <time>2025-03-02T08:46:30Z</time>
      </trkpt>
      <trkpt lat="45.72052" lon="4.69406">
        <ele>328.2</ele>
        <time>2025-03-02T08:46:31Z</time>
      </trkpt>
      <trkpt lat="45.72053" lon="4.69401">
        <ele>328.4</ele>
        <time>2025-03-02T08:46:32Z</time>
      </trkpt>
      <trkpt lat="45.72053" lon="4.69395">
        <ele>328.6</ele>
        <time>2025-03-02T08:46:33Z</time>
      </trkpt>
      <trkpt lat="45.72054" lon="4.69391">
        <ele>328.8</ele>
        <time>2025-03-02T08:46:34Z</time>
      </trkpt>
      <trkpt lat="45.72054" lon="4.69385">
        <ele>328.8</ele>
        <time>2025-03-02T08:46:35Z</time>
      </trkpt>
      <trkpt lat="45.72056" lon="4.69381">
        <ele>329</ele>
        <time>2025-03-02T08:46:36Z</time>
      </trkpt>
      <trkpt lat="45.72058" lon="4.69377">
        <ele>329</ele>
        <time>2025-03-02T08:46:37Z</time>
      </trkpt>
      <trkpt lat="45.72061" lon="4.69375">
        <ele>329.2</ele>
        <time>2025-03-02T08:46:38Z</time>
      </trkpt>
      <trkpt lat="45.72063" lon="4.69374">
        <ele>329.6</ele>
        <time>2025-03-02T08:46:39Z</time>
      </trkpt>
      <trkpt lat="45.72067" lon="4.69373">
        <ele>329.6</ele>
        <time>2025-03-02T08:46:40Z</time>
      </trkpt>
      <trkpt lat="45.7207" lon="4.6937">
        <ele>329.8</ele>
        <time>2025-03-02T08:46:41Z</time>
      </trkpt>
      <trkpt lat="45.72072" lon="4.69366">
        <ele>330</ele>
        <time>2025-03-02T08:46:42Z</time>
      </trkpt>
      <trkpt lat="45.72074" lon="4.6936">
        <ele>330</ele>
        <time>2025-03-02T08:46:43Z</time>
      </trkpt>
      <trkpt lat="45.72075" lon="4.69355">
        <ele>330</ele>
        <time>2025-03-02T08:46:44Z</time>
      </trkpt>
      <trkpt lat="45.72076" lon="4.69349">
        <ele>330.2</ele>
        <time>2025-03-02T08:46:45Z</time>
      </trkpt>
      <trkpt lat="45.72077" lon="4.69344">
        <ele>330.2</ele>
        <time>2025-03-02T08:46:46Z</time>
      </trkpt>
      <trkpt lat="45.72078" lon="4.69339">
        <ele>330.4</ele>
        <time>2025-03-02T08:46:47Z</time>
      </trkpt>
      <trkpt lat="45.72079" lon="4.69333">
        <ele>330.6</ele>
        <time>2025-03-02T08:46:48Z</time>
      </trkpt>
      <trkpt lat="45.7208" lon="4.69328">
        <ele>330.8</ele>
        <time>2025-03-02T08:46:49Z</time>
      </trkpt>
      <trkpt lat="45.72081" lon="4.69323">
        <ele>330.8</ele>
        <time>2025-03-02T08:46:50Z</time>
      </trkpt>
      <trkpt lat="45.72082" lon="4.69317">
        <ele>331</ele>
        <time>2025-03-02T08:46:51Z</time>
      </trkpt>
      <trkpt lat="45.72083" lon="4.69312">
        <ele>331.2</ele>
        <time>2025-03-02T08:46:52Z</time>
      </trkpt>
      <trkpt lat="45.72084" lon="4.69306">
        <ele>331.4</ele>
        <time>2025-03-02T08:46:53Z</time>
      </trkpt>
      <trkpt lat="45.72085" lon="4.69301">
        <ele>331.4</ele>
        <time>2025-03-02T08:46:54Z</time>
      </trkpt>
      <trkpt lat="45.72087" lon="4.69296">
        <ele>331.4</ele>
        <time>2025-03-02T08:46:55Z</time>
      </trkpt>
      <trkpt lat="45.72089" lon="4.69292">
        <ele>331.6</ele>
        <time>2025-03-02T08:46:56Z</time>
      </trkpt>
      <trkpt lat="45.72092" lon="4.69288">
        <ele>331.8</ele>
        <time>2025-03-02T08:46:57Z</time>
      </trkpt>
      <trkpt lat="45.72096" lon="4.69285">
        <ele>332</ele>
        <time>2025-03-02T08:46:58Z</time>
      </trkpt>
      <trkpt lat="45.72099" lon="4.69282">
        <ele>332.2</ele>
        <time>2025-03-02T08:46:59Z</time>
      </trkpt>
      <trkpt lat="45.72103" lon="4.69279">
        <ele>332.2</ele>
        <time>2025-03-02T08:47:00Z</time>
      </trkpt>
      <trkpt lat="45.72107" lon="4.69276">
        <ele>332.2</ele>
        <time>2025-03-02T08:47:01Z</time>
      </trkpt>
      <trkpt lat="45.7211" lon="4.69272">
        <ele>332.4</ele>
        <time>2025-03-02T08:47:02Z</time>
      </trkpt>
      <trkpt lat="45.72113" lon="4.69268">
        <ele>332.4</ele>
        <time>2025-03-02T08:47:03Z</time>
      </trkpt>
      <trkpt lat="45.72116" lon="4.69263">
        <ele>332.4</ele>
        <time>2025-03-02T08:47:04Z</time>
      </trkpt>
      <trkpt lat="45.72117" lon="4.69258">
        <ele>332.4</ele>
        <time>2025-03-02T08:47:05Z</time>
      </trkpt>
      <trkpt lat="45.72118" lon="4.69252">
        <ele>332.6</ele>
        <time>2025-03-02T08:47:06Z</time>
      </trkpt>
      <trkpt lat="45.72118" lon="4.69247">
        <ele>332.6</ele>
        <time>2025-03-02T08:47:07Z</time>
      </trkpt>
      <trkpt lat="45.72119" lon="4.69241">
        <ele>332.6</ele>
        <time>2025-03-02T08:47:08Z</time>
      </trkpt>
      <trkpt lat="45.72119" lon="4.69236">
        <ele>332.8</ele>
        <time>2025-03-02T08:47:09Z</time>
      </trkpt>
      <trkpt lat="45.7212" lon="4.69232">
        <ele>332.8</ele>
        <time>2025-03-02T08:47:10Z</time>
      </trkpt>
      <trkpt lat="45.7212" lon="4.69226">
        <ele>332.8</ele>
        <time>2025-03-02T08:47:11Z</time>
      </trkpt>
      <trkpt lat="45.7212" lon="4.69221">
        <ele>332.8</ele>
        <time>2025-03-02T08:47:12Z</time>
      </trkpt>
      <trkpt lat="45.7212" lon="4.69216">
        <ele>332.8</ele>
        <time>2025-03-02T08:47:13Z</time>
      </trkpt>
      <trkpt lat="45.72121" lon="4.69211">
        <ele>333</ele>
        <time>2025-03-02T08:47:14Z</time>
      </trkpt>
      <trkpt lat="45.72121" lon="4.69206">
        <ele>333.2</ele>
        <time>2025-03-02T08:47:15Z</time>
      </trkpt>
      <trkpt lat="45.72121" lon="4.692">
        <ele>333.2</ele>
        <time>2025-03-02T08:47:16Z</time>
      </trkpt>
      <trkpt lat="45.72121" lon="4.69195">
        <ele>333.4</ele>
        <time>2025-03-02T08:47:17Z</time>
      </trkpt>
      <trkpt lat="45.72122" lon="4.69189">
        <ele>333.4</ele>
        <time>2025-03-02T08:47:18Z</time>
      </trkpt>
      <trkpt lat="45.72122" lon="4.69184">
        <ele>333.6</ele>
        <time>2025-03-02T08:47:19Z</time>
      </trkpt>
      <trkpt lat="45.72123" lon="4.69178">
        <ele>333.6</ele>
        <time>2025-03-02T08:47:20Z</time>
      </trkpt>
      <trkpt lat="45.72123" lon="4.69173">
        <ele>333.6</ele>
        <time>2025-03-02T08:47:21Z</time>
      </trkpt>
      <trkpt lat="45.72123" lon="4.69167">
        <ele>333.8</ele>
        <time>2025-03-02T08:47:22Z</time>
      </trkpt>
      <trkpt lat="45.72124" lon="4.69161">
        <ele>333.8</ele>
        <time>2025-03-02T08:47:23Z</time>
      </trkpt>
      <trkpt lat="45.72124" lon="4.69156">
        <ele>333.8</ele>
        <time>2025-03-02T08:47:24Z</time>
      </trkpt>
      <trkpt lat="45.72124" lon="4.69151">
        <ele>333.8</ele>
        <time>2025-03-02T08:47:25Z</time>
      </trkpt>
      <trkpt lat="45.72124" lon="4.69145">
        <ele>334</ele>
        <time>2025-03-02T08:47:26Z</time>
      </trkpt>
      <trkpt lat="45.72125" lon="4.6914">
        <ele>334.2</ele>
        <time>2025-03-02T08:47:27Z</time>
      </trkpt>
      <trkpt lat="45.72125" lon="4.69135">
        <ele>334.4</ele>
        <time>2025-03-02T08:47:28Z</time>
      </trkpt>
      <trkpt lat="45.72125" lon="4.6913">
        <ele>334.8</ele>
        <time>2025-03-02T08:47:29Z</time>
      </trkpt>
      <trkpt lat="45.72126" lon="4.69124">
        <ele>334.8</ele>
        <time>2025-03-02T08:47:30Z</time>
      </trkpt>
      <trkpt lat="45.72126" lon="4.69119">
        <ele>335.2</ele>
        <time>2025-03-02T08:47:31Z</time>
      </trkpt>
      <trkpt lat="45.72127" lon="4.69114">
        <ele>335.4</ele>
        <time>2025-03-02T08:47:32Z</time>
      </trkpt>
      <trkpt lat="45.72127" lon="4.69108">
        <ele>335.4</ele>
        <time>2025-03-02T08:47:33Z</time>
      </trkpt>
      <trkpt lat="45.72128" lon="4.69103">
        <ele>335.6</ele>
        <time>2025-03-02T08:47:34Z</time>
      </trkpt>
      <trkpt lat="45.72128" lon="4.69098">
        <ele>335.8</ele>
        <time>2025-03-02T08:47:35Z</time>
      </trkpt>
      <trkpt lat="45.72129" lon="4.69092">
        <ele>336</ele>
        <time>2025-03-02T08:47:36Z</time>
      </trkpt>
      <trkpt lat="45.7213" lon="4.69087">
        <ele>336</ele>
        <time>2025-03-02T08:47:37Z</time>
      </trkpt>
      <trkpt lat="45.7213" lon="4.69082">
        <ele>336</ele>
        <time>2025-03-02T08:47:38Z</time>
      </trkpt>
      <trkpt lat="45.72131" lon="4.69077">
        <ele>336.2</ele>
        <time>2025-03-02T08:47:39Z</time>
      </trkpt>
      <trkpt lat="45.72131" lon="4.69071">
        <ele>336.4</ele>
        <time>2025-03-02T08:47:40Z</time>
      </trkpt>
      <trkpt lat="45.72131" lon="4.69066">
        <ele>336.6</ele>
        <time>2025-03-02T08:47:41Z</time>
      </trkpt>
      <trkpt lat="45.72132" lon="4.69061">
        <ele>336.8</ele>
        <time>2025-03-02T08:47:42Z</time>
      </trkpt>
      <trkpt lat="45.72132" lon="4.69056">
        <ele>336.8</ele>
        <time>2025-03-02T08:47:43Z</time>
      </trkpt>
      <trkpt lat="45.72133" lon="4.69051">
        <ele>337.2</ele>
        <time>2025-03-02T08:47:44Z</time>
      </trkpt>
      <trkpt lat="45.72133" lon="4.69046">
        <ele>337.4</ele>
        <time>2025-03-02T08:47:45Z</time>
      </trkpt>
      <trkpt lat="45.72133" lon="4.69041">
        <ele>337.6</ele>
        <time>2025-03-02T08:47:46Z</time>
      </trkpt>
      <trkpt lat="45.72132" lon="4.69037">
        <ele>337.8</ele>
        <time>2025-03-02T08:47:47Z</time>
      </trkpt>
      <trkpt lat="45.7213" lon="4.69032">
        <ele>338</ele>
        <time>2025-03-02T08:47:48Z</time>
      </trkpt>
      <trkpt lat="45.72128" lon="4.69028">
        <ele>338.4</ele>
        <time>2025-03-02T08:47:49Z</time>
      </trkpt>
      <trkpt lat="45.72125" lon="4.69025">
        <ele>338.4</ele>
        <time>2025-03-02T08:47:50Z</time>
      </trkpt>
      <trkpt lat="45.72121" lon="4.69022">
        <ele>338.4</ele>
        <time>2025-03-02T08:47:51Z</time>
      </trkpt>
      <trkpt lat="45.72117" lon="4.69019">
        <ele>338.4</ele>
        <time>2025-03-02T08:47:52Z</time>
      </trkpt>
      <trkpt lat="45.72113" lon="4.69016">
        <ele>338.4</ele>
        <time>2025-03-02T08:47:53Z</time>
      </trkpt>
      <trkpt lat="45.72109" lon="4.69013">
        <ele>338.4</ele>
        <time>2025-03-02T08:47:54Z</time>
      </trkpt>
      <trkpt lat="45.72103" lon="4.69011">
        <ele>338.4</ele>
        <time>2025-03-02T08:47:55Z</time>
      </trkpt>
      <trkpt lat="45.72099" lon="4.69008">
        <ele>338.4</ele>
        <time>2025-03-02T08:47:56Z</time>
      </trkpt>
      <trkpt lat="45.72095" lon="4.69006">
        <ele>338.4</ele>
        <time>2025-03-02T08:47:57Z</time>
      </trkpt>
      <trkpt lat="45.72092" lon="4.69003">
        <ele>338.4</ele>
        <time>2025-03-02T08:47:58Z</time>
      </trkpt>
      <trkpt lat="45.72088" lon="4.68999">
        <ele>338.4</ele>
        <time>2025-03-02T08:47:59Z</time>
      </trkpt>
      <trkpt lat="45.72085" lon="4.68996">
        <ele>338.4</ele>
        <time>2025-03-02T08:48:00Z</time>
      </trkpt>
      <trkpt lat="45.72083" lon="4.68993">
        <ele>338.8</ele>
        <time>2025-03-02T08:48:01Z</time>
      </trkpt>
      <trkpt lat="45.72082" lon="4.68989">
        <ele>339</ele>
        <time>2025-03-02T08:48:02Z</time>
      </trkpt>
      <trkpt lat="45.72083" lon="4.68985">
        <ele>339.4</ele>
        <time>2025-03-02T08:48:03Z</time>
      </trkpt>
      <trkpt lat="45.72085" lon="4.68981">
        <ele>339.4</ele>
        <time>2025-03-02T08:48:04Z</time>
      </trkpt>
      <trkpt lat="45.72087" lon="4.68977">
        <ele>339.6</ele>
        <time>2025-03-02T08:48:05Z</time>
      </trkpt>
      <trkpt lat="45.72089" lon="4.68972">
        <ele>339.8</ele>
        <time>2025-03-02T08:48:06Z</time>
      </trkpt>
      <trkpt lat="45.72091" lon="4.68967">
        <ele>339.8</ele>
        <time>2025-03-02T08:48:07Z</time>
      </trkpt>
      <trkpt lat="45.72093" lon="4.68963">
        <ele>340</ele>
        <time>2025-03-02T08:48:08Z</time>
      </trkpt>
      <trkpt lat="45.72095" lon="4.68959">
        <ele>340</ele>
        <time>2025-03-02T08:48:09Z</time>
      </trkpt>
      <trkpt lat="45.72097" lon="4.68954">
        <ele>340.2</ele>
        <time>2025-03-02T08:48:10Z</time>
      </trkpt>
      <trkpt lat="45.72099" lon="4.68949">
        <ele>340.4</ele>
        <time>2025-03-02T08:48:11Z</time>
      </trkpt>
      <trkpt lat="45.72101" lon="4.68945">
        <ele>340.4</ele>
        <time>2025-03-02T08:48:12Z</time>
      </trkpt>
      <trkpt lat="45.72103" lon="4.6894">
        <ele>340.6</ele>
        <time>2025-03-02T08:48:13Z</time>
      </trkpt>
      <trkpt lat="45.72104" lon="4.68935">
        <ele>340.6</ele>
        <time>2025-03-02T08:48:14Z</time>
      </trkpt>
      <trkpt lat="45.72106" lon="4.6893">
        <ele>340.6</ele>
        <time>2025-03-02T08:48:15Z</time>
      </trkpt>
      <trkpt lat="45.72108" lon="4.68925">
        <ele>340.6</ele>
        <time>2025-03-02T08:48:16Z</time>
      </trkpt>
      <trkpt lat="45.7211" lon="4.68919">
        <ele>340.8</ele>
        <time>2025-03-02T08:48:17Z</time>
      </trkpt>
      <trkpt lat="45.72112" lon="4.68914">
        <ele>340.8</ele>
        <time>2025-03-02T08:48:18Z</time>
      </trkpt>
      <trkpt lat="45.72114" lon="4.68909">
        <ele>340.8</ele>
        <time>2025-03-02T08:48:19Z</time>
      </trkpt>
      <trkpt lat="45.72116" lon="4.68904">
        <ele>341</ele>
        <time>2025-03-02T08:48:20Z</time>
      </trkpt>
      <trkpt lat="45.72118" lon="4.689">
        <ele>341</ele>
        <time>2025-03-02T08:48:21Z</time>
      </trkpt>
      <trkpt lat="45.72121" lon="4.68895">
        <ele>341.2</ele>
        <time>2025-03-02T08:48:22Z</time>
      </trkpt>
      <trkpt lat="45.72123" lon="4.68891">
        <ele>341.2</ele>
        <time>2025-03-02T08:48:23Z</time>
      </trkpt>
      <trkpt lat="45.72125" lon="4.68887">
        <ele>341.4</ele>
        <time>2025-03-02T08:48:24Z</time>
      </trkpt>
      <trkpt lat="45.72128" lon="4.68883">
        <ele>341.6</ele>
        <time>2025-03-02T08:48:25Z</time>
      </trkpt>
      <trkpt lat="45.7213" lon="4.68879">
        <ele>341.8</ele>
        <time>2025-03-02T08:48:26Z</time>
      </trkpt>
      <trkpt lat="45.72132" lon="4.68874">
        <ele>341.8</ele>
        <time>2025-03-02T08:48:27Z</time>
      </trkpt>
      <trkpt lat="45.72135" lon="4.6887">
        <ele>341.8</ele>
        <time>2025-03-02T08:48:28Z</time>
      </trkpt>
      <trkpt lat="45.72137" lon="4.68865">
        <ele>341.8</ele>
        <time>2025-03-02T08:48:29Z</time>
      </trkpt>
      <trkpt lat="45.72139" lon="4.6886">
        <ele>342</ele>
        <time>2025-03-02T08:48:30Z</time>
      </trkpt>
      <trkpt lat="45.72141" lon="4.68855">
        <ele>342</ele>
        <time>2025-03-02T08:48:31Z</time>
      </trkpt>
      <trkpt lat="45.72142" lon="4.68851">
        <ele>342</ele>
        <time>2025-03-02T08:48:32Z</time>
      </trkpt>
      <trkpt lat="45.72144" lon="4.68847">
        <ele>342.2</ele>
        <time>2025-03-02T08:48:33Z</time>
      </trkpt>
      <trkpt lat="45.72146" lon="4.68843">
        <ele>342.4</ele>
        <time>2025-03-02T08:48:34Z</time>
      </trkpt>
      <trkpt lat="45.72148" lon="4.68838">
        <ele>342.4</ele>
        <time>2025-03-02T08:48:35Z</time>
      </trkpt>
      <trkpt lat="45.7215" lon="4.68833">
        <ele>342.4</ele>
        <time>2025-03-02T08:48:36Z</time>
      </trkpt>
      <trkpt lat="45.72152" lon="4.68828">
        <ele>342.4</ele>
        <time>2025-03-02T08:48:37Z</time>
      </trkpt>
      <trkpt lat="45.72154" lon="4.68823">
        <ele>342.2</ele>
        <time>2025-03-02T08:48:38Z</time>
      </trkpt>
      <trkpt lat="45.72155" lon="4.68817">
        <ele>342.2</ele>
        <time>2025-03-02T08:48:39Z</time>
      </trkpt>
      <trkpt lat="45.72156" lon="4.68812">
        <ele>342.2</ele>
        <time>2025-03-02T08:48:40Z</time>
      </trkpt>
      <trkpt lat="45.72158" lon="4.68806">
        <ele>342</ele>
        <time>2025-03-02T08:48:41Z</time>
      </trkpt>
      <trkpt lat="45.72159" lon="4.688">
        <ele>342</ele>
        <time>2025-03-02T08:48:42Z</time>
      </trkpt>
      <trkpt lat="45.7216" lon="4.68794">
        <ele>342</ele>
        <time>2025-03-02T08:48:43Z</time>
      </trkpt>
      <trkpt lat="45.72161" lon="4.68789">
        <ele>341.8</ele>
        <time>2025-03-02T08:48:44Z</time>
      </trkpt>
      <trkpt lat="45.72162" lon="4.68784">
        <ele>341.6</ele>
        <time>2025-03-02T08:48:45Z</time>
      </trkpt>
      <trkpt lat="45.72163" lon="4.68779">
        <ele>341.6</ele>
        <time>2025-03-02T08:48:46Z</time>
      </trkpt>
      <trkpt lat="45.72164" lon="4.68774">
        <ele>341.6</ele>
        <time>2025-03-02T08:48:47Z</time>
      </trkpt>
      <trkpt lat="45.72165" lon="4.68768">
        <ele>341.4</ele>
        <time>2025-03-02T08:48:48Z</time>
      </trkpt>
      <trkpt lat="45.72167" lon="4.68762">
        <ele>341.2</ele>
        <time>2025-03-02T08:48:49Z</time>
      </trkpt>
      <trkpt lat="45.72169" lon="4.68756">
        <ele>341</ele>
        <time>2025-03-02T08:48:50Z</time>
      </trkpt>
      <trkpt lat="45.72171" lon="4.6875">
        <ele>341</ele>
        <time>2025-03-02T08:48:51Z</time>
      </trkpt>
      <trkpt lat="45.72174" lon="4.68743">
        <ele>341</ele>
        <time>2025-03-02T08:48:52Z</time>
      </trkpt>
      <trkpt lat="45.72176" lon="4.68736">
        <ele>340.8</ele>
        <time>2025-03-02T08:48:53Z</time>
      </trkpt>
      <trkpt lat="45.72179" lon="4.68729">
        <ele>340.4</ele>
        <time>2025-03-02T08:48:54Z</time>
      </trkpt>
      <trkpt lat="45.72181" lon="4.68723">
        <ele>340</ele>
        <time>2025-03-02T08:48:55Z</time>
      </trkpt>
      <trkpt lat="45.72184" lon="4.68716">
        <ele>339.6</ele>
        <time>2025-03-02T08:48:56Z</time>
      </trkpt>
      <trkpt lat="45.72186" lon="4.68709">
        <ele>339.4</ele>
        <time>2025-03-02T08:48:57Z</time>
      </trkpt>
      <trkpt lat="45.72189" lon="4.68701">
        <ele>339.4</ele>
        <time>2025-03-02T08:48:58Z</time>
      </trkpt>
      <trkpt lat="45.72192" lon="4.68694">
        <ele>339.2</ele>
        <time>2025-03-02T08:48:59Z</time>
      </trkpt>
      <trkpt lat="45.72195" lon="4.68686">
        <ele>339</ele>
        <time>2025-03-02T08:49:00Z</time>
      </trkpt>
      <trkpt lat="45.72197" lon="4.68679">
        <ele>338.8</ele>
        <time>2025-03-02T08:49:01Z</time>
      </trkpt>
      <trkpt lat="45.722" lon="4.68672">
        <ele>338.4</ele>
        <time>2025-03-02T08:49:02Z</time>
      </trkpt>
      <trkpt lat="45.72203" lon="4.68665">
        <ele>338.4</ele>
        <time>2025-03-02T08:49:03Z</time>
      </trkpt>
      <trkpt lat="45.72206" lon="4.68658">
        <ele>338.2</ele>
        <time>2025-03-02T08:49:04Z</time>
      </trkpt>
      <trkpt lat="45.72209" lon="4.68651">
        <ele>338.2</ele>
        <time>2025-03-02T08:49:05Z</time>
      </trkpt>
      <trkpt lat="45.72211" lon="4.68644">
        <ele>338.2</ele>
        <time>2025-03-02T08:49:06Z</time>
      </trkpt>
      <trkpt lat="45.72214" lon="4.68636">
        <ele>338.2</ele>
        <time>2025-03-02T08:49:07Z</time>
      </trkpt>
      <trkpt lat="45.72217" lon="4.68629">
        <ele>338.2</ele>
        <time>2025-03-02T08:49:08Z</time>
      </trkpt>
      <trkpt lat="45.7222" lon="4.68623">
        <ele>338.2</ele>
        <time>2025-03-02T08:49:09Z</time>
      </trkpt>
      <trkpt lat="45.72222" lon="4.68616">
        <ele>338.2</ele>
        <time>2025-03-02T08:49:10Z</time>
      </trkpt>
      <trkpt lat="45.72225" lon="4.68609">
        <ele>338.2</ele>
        <time>2025-03-02T08:49:11Z</time>
      </trkpt>
      <trkpt lat="45.72228" lon="4.68602">
        <ele>338</ele>
        <time>2025-03-02T08:49:12Z</time>
      </trkpt>
      <trkpt lat="45.72231" lon="4.68595">
        <ele>338</ele>
        <time>2025-03-02T08:49:13Z</time>
      </trkpt>
      <trkpt lat="45.72233" lon="4.68588">
        <ele>338</ele>
        <time>2025-03-02T08:49:14Z</time>
      </trkpt>
      <trkpt lat="45.72236" lon="4.68581">
        <ele>338</ele>
        <time>2025-03-02T08:49:15Z</time>
      </trkpt>
      <trkpt lat="45.72239" lon="4.68575">
        <ele>337.8</ele>
        <time>2025-03-02T08:49:16Z</time>
      </trkpt>
      <trkpt lat="45.72242" lon="4.68568">
        <ele>337.8</ele>
        <time>2025-03-02T08:49:17Z</time>
      </trkpt>
      <trkpt lat="45.72245" lon="4.68561">
        <ele>337.6</ele>
        <time>2025-03-02T08:49:18Z</time>
      </trkpt>
      <trkpt lat="45.72248" lon="4.68554">
        <ele>337.6</ele>
        <time>2025-03-02T08:49:19Z</time>
      </trkpt>
      <trkpt lat="45.72251" lon="4.68547">
        <ele>337.6</ele>
        <time>2025-03-02T08:49:20Z</time>
      </trkpt>
      <trkpt lat="45.72253" lon="4.6854">
        <ele>337.4</ele>
        <time>2025-03-02T08:49:21Z</time>
      </trkpt>
      <trkpt lat="45.72255" lon="4.68533">
        <ele>337.4</ele>
        <time>2025-03-02T08:49:22Z</time>
      </trkpt>
      <trkpt lat="45.72257" lon="4.68526">
        <ele>337.4</ele>
        <time>2025-03-02T08:49:23Z</time>
      </trkpt>
      <trkpt lat="45.72257" lon="4.68518">
        <ele>337.4</ele>
        <time>2025-03-02T08:49:24Z</time>
      </trkpt>
      <trkpt lat="45.72258" lon="4.68511">
        <ele>337.4</ele>
        <time>2025-03-02T08:49:25Z</time>
      </trkpt>
      <trkpt lat="45.72258" lon="4.68503">
        <ele>337.2</ele>
        <time>2025-03-02T08:49:26Z</time>
      </trkpt>
      <trkpt lat="45.72258" lon="4.68495">
        <ele>337.2</ele>
        <time>2025-03-02T08:49:27Z</time>
      </trkpt>
      <trkpt lat="45.72258" lon="4.68487">
        <ele>337</ele>
        <time>2025-03-02T08:49:28Z</time>
      </trkpt>
      <trkpt lat="45.72259" lon="4.68478">
        <ele>336.8</ele>
        <time>2025-03-02T08:49:29Z</time>
      </trkpt>
      <trkpt lat="45.7226" lon="4.6847">
        <ele>336.4</ele>
        <time>2025-03-02T08:49:30Z</time>
      </trkpt>
      <trkpt lat="45.72261" lon="4.68461">
        <ele>335.8</ele>
        <time>2025-03-02T08:49:31Z</time>
      </trkpt>
      <trkpt lat="45.72263" lon="4.68453">
        <ele>335.6</ele>
        <time>2025-03-02T08:49:32Z</time>
      </trkpt>
      <trkpt lat="45.72266" lon="4.68445">
        <ele>335.2</ele>
        <time>2025-03-02T08:49:33Z</time>
      </trkpt>
      <trkpt lat="45.72268" lon="4.68436">
        <ele>335</ele>
        <time>2025-03-02T08:49:34Z</time>
      </trkpt>
      <trkpt lat="45.7227" lon="4.68428">
        <ele>334.6</ele>
        <time>2025-03-02T08:49:35Z</time>
      </trkpt>
      <trkpt lat="45.72273" lon="4.68419">
        <ele>334</ele>
        <time>2025-03-02T08:49:36Z</time>
      </trkpt>
      <trkpt lat="45.72275" lon="4.6841">
        <ele>334</ele>
        <time>2025-03-02T08:49:37Z</time>
      </trkpt>
      <trkpt lat="45.72277" lon="4.68401">
        <ele>333.4</ele>
        <time>2025-03-02T08:49:38Z</time>
      </trkpt>
      <trkpt lat="45.7228" lon="4.68391">
        <ele>333</ele>
        <time>2025-03-02T08:49:39Z</time>
      </trkpt>
      <trkpt lat="45.72282" lon="4.68382">
        <ele>332.6</ele>
        <time>2025-03-02T08:49:40Z</time>
      </trkpt>
      <trkpt lat="45.72284" lon="4.68372">
        <ele>332</ele>
        <time>2025-03-02T08:49:41Z</time>
      </trkpt>
      <trkpt lat="45.72287" lon="4.68363">
        <ele>331.6</ele>
        <time>2025-03-02T08:49:42Z</time>
      </trkpt>
      <trkpt lat="45.72289" lon="4.68353">
        <ele>330.6</ele>
        <time>2025-03-02T08:49:43Z</time>
      </trkpt>
      <trkpt lat="45.72291" lon="4.68343">
        <ele>330.2</ele>
        <time>2025-03-02T08:49:44Z</time>
      </trkpt>
      <trkpt lat="45.72294" lon="4.68334">
        <ele>329.8</ele>
        <time>2025-03-02T08:49:45Z</time>
      </trkpt>
      <trkpt lat="45.72296" lon="4.68324">
        <ele>329.6</ele>
        <time>2025-03-02T08:49:46Z</time>
      </trkpt>
      <trkpt lat="45.72298" lon="4.68315">
        <ele>329.4</ele>
        <time>2025-03-02T08:49:47Z</time>
      </trkpt>
      <trkpt lat="45.723" lon="4.68307">
        <ele>329.2</ele>
        <time>2025-03-02T08:49:48Z</time>
      </trkpt>
      <trkpt lat="45.72302" lon="4.68298">
        <ele>329.2</ele>
        <time>2025-03-02T08:49:49Z</time>
      </trkpt>
      <trkpt lat="45.72304" lon="4.6829">
        <ele>329</ele>
        <time>2025-03-02T08:49:50Z</time>
      </trkpt>
      <trkpt lat="45.72306" lon="4.68281">
        <ele>328.6</ele>
        <time>2025-03-02T08:49:51Z</time>
      </trkpt>
      <trkpt lat="45.72309" lon="4.68272">
        <ele>328</ele>
        <time>2025-03-02T08:49:52Z</time>
      </trkpt>
      <trkpt lat="45.72311" lon="4.68263">
        <ele>327.8</ele>
        <time>2025-03-02T08:49:53Z</time>
      </trkpt>
      <trkpt lat="45.72314" lon="4.68253">
        <ele>326.8</ele>
        <time>2025-03-02T08:49:54Z</time>
      </trkpt>
      <trkpt lat="45.72316" lon="4.68244">
        <ele>326.2</ele>
        <time>2025-03-02T08:49:55Z</time>
      </trkpt>
      <trkpt lat="45.72319" lon="4.68234">
        <ele>325.6</ele>
        <time>2025-03-02T08:49:56Z</time>
      </trkpt>
      <trkpt lat="45.72321" lon="4.68224">
        <ele>324.8</ele>
        <time>2025-03-02T08:49:57Z</time>
      </trkpt>
      <trkpt lat="45.72323" lon="4.68214">
        <ele>324.4</ele>
        <time>2025-03-02T08:49:58Z</time>
      </trkpt>
      <trkpt lat="45.72325" lon="4.68204">
        <ele>323.6</ele>
        <time>2025-03-02T08:49:59Z</time>
      </trkpt>
      <trkpt lat="45.72327" lon="4.68194">
        <ele>323.4</ele>
        <time>2025-03-02T08:50:00Z</time>
      </trkpt>
      <trkpt lat="45.7233" lon="4.68185">
        <ele>323</ele>
        <time>2025-03-02T08:50:01Z</time>
      </trkpt>
      <trkpt lat="45.72332" lon="4.68176">
        <ele>323</ele>
        <time>2025-03-02T08:50:02Z</time>
      </trkpt>
      <trkpt lat="45.72334" lon="4.68166">
        <ele>322.8</ele>
        <time>2025-03-02T08:50:03Z</time>
      </trkpt>
      <trkpt lat="45.72336" lon="4.68158">
        <ele>322.8</ele>
        <time>2025-03-02T08:50:04Z</time>
      </trkpt>
      <trkpt lat="45.72337" lon="4.68149">
        <ele>322.8</ele>
        <time>2025-03-02T08:50:05Z</time>
      </trkpt>
      <trkpt lat="45.72339" lon="4.68141">
        <ele>322.8</ele>
        <time>2025-03-02T08:50:06Z</time>
      </trkpt>
      <trkpt lat="45.72341" lon="4.68133">
        <ele>323</ele>
        <time>2025-03-02T08:50:07Z</time>
      </trkpt>
      <trkpt lat="45.72342" lon="4.68125">
        <ele>323</ele>
        <time>2025-03-02T08:50:08Z</time>
      </trkpt>
      <trkpt lat="45.72344" lon="4.68118">
        <ele>323.2</ele>
        <time>2025-03-02T08:50:09Z</time>
      </trkpt>
      <trkpt lat="45.72345" lon="4.6811">
        <ele>323.2</ele>
        <time>2025-03-02T08:50:10Z</time>
      </trkpt>
      <trkpt lat="45.72347" lon="4.68102">
        <ele>323.2</ele>
        <time>2025-03-02T08:50:11Z</time>
      </trkpt>
      <trkpt lat="45.72348" lon="4.68094">
        <ele>323.2</ele>
        <time>2025-03-02T08:50:12Z</time>
      </trkpt>
      <trkpt lat="45.72348" lon="4.68086">
        <ele>323.2</ele>
        <time>2025-03-02T08:50:13Z</time>
      </trkpt>
      <trkpt lat="45.72349" lon="4.68079">
        <ele>323.2</ele>
        <time>2025-03-02T08:50:14Z</time>
      </trkpt>
      <trkpt lat="45.72349" lon="4.68071">
        <ele>323.2</ele>
        <time>2025-03-02T08:50:15Z</time>
      </trkpt>
      <trkpt lat="45.7235" lon="4.68063">
        <ele>323.4</ele>
        <time>2025-03-02T08:50:16Z</time>
      </trkpt>
      <trkpt lat="45.72351" lon="4.68056">
        <ele>323.4</ele>
        <time>2025-03-02T08:50:17Z</time>
      </trkpt>
      <trkpt lat="45.72352" lon="4.68049">
        <ele>323.4</ele>
        <time>2025-03-02T08:50:18Z</time>
      </trkpt>
      <trkpt lat="45.72353" lon="4.68041">
        <ele>323.4</ele>
        <time>2025-03-02T08:50:19Z</time>
      </trkpt>
      <trkpt lat="45.72354" lon="4.68034">
        <ele>323.6</ele>
        <time>2025-03-02T08:50:20Z</time>
      </trkpt>
      <trkpt lat="45.72355" lon="4.68027">
        <ele>323.6</ele>
        <time>2025-03-02T08:50:21Z</time>
      </trkpt>
      <trkpt lat="45.72357" lon="4.6802">
        <ele>323.6</ele>
        <time>2025-03-02T08:50:22Z</time>
      </trkpt>
      <trkpt lat="45.72359" lon="4.68013">
        <ele>323.6</ele>
        <time>2025-03-02T08:50:23Z</time>
      </trkpt>
      <trkpt lat="45.7236" lon="4.68006">
        <ele>323.6</ele>
        <time>2025-03-02T08:50:24Z</time>
      </trkpt>
      <trkpt lat="45.72362" lon="4.67999">
        <ele>323.6</ele>
        <time>2025-03-02T08:50:25Z</time>
      </trkpt>
      <trkpt lat="45.72364" lon="4.67992">
        <ele>323.6</ele>
        <time>2025-03-02T08:50:26Z</time>
      </trkpt>
      <trkpt lat="45.72366" lon="4.67986">
        <ele>323.6</ele>
        <time>2025-03-02T08:50:27Z</time>
      </trkpt>
      <trkpt lat="45.72369" lon="4.6798">
        <ele>323.6</ele>
        <time>2025-03-02T08:50:28Z</time>
      </trkpt>
      <trkpt lat="45.72371" lon="4.67975">
        <ele>323.8</ele>
        <time>2025-03-02T08:50:29Z</time>
      </trkpt>
      <trkpt lat="45.72374" lon="4.67971">
        <ele>323.8</ele>
        <time>2025-03-02T08:50:30Z</time>
      </trkpt>
      <trkpt lat="45.72376" lon="4.67966">
        <ele>324</ele>
        <time>2025-03-02T08:50:31Z</time>
      </trkpt>
      <trkpt lat="45.72378" lon="4.67961">
        <ele>324.2</ele>
        <time>2025-03-02T08:50:32Z</time>
      </trkpt>
      <trkpt lat="45.72379" lon="4.67956">
        <ele>324.4</ele>
        <time>2025-03-02T08:50:33Z</time>
      </trkpt>
      <trkpt lat="45.72381" lon="4.67951">
        <ele>324.6</ele>
        <time>2025-03-02T08:50:34Z</time>
      </trkpt>
      <trkpt lat="45.72383" lon="4.67945">
        <ele>324.6</ele>
        <time>2025-03-02T08:50:35Z</time>
      </trkpt>
      <trkpt lat="45.72386" lon="4.67939">
        <ele>324.6</ele>
        <time>2025-03-02T08:50:36Z</time>
      </trkpt>
      <trkpt lat="45.72389" lon="4.67933">
        <ele>324.6</ele>
        <time>2025-03-02T08:50:37Z</time>
      </trkpt>
      <trkpt lat="45.72391" lon="4.67926">
        <ele>324.6</ele>
        <time>2025-03-02T08:50:38Z</time>
      </trkpt>
      <trkpt lat="45.72394" lon="4.6792">
        <ele>324.2</ele>
        <time>2025-03-02T08:50:39Z</time>
      </trkpt>
      <trkpt lat="45.72397" lon="4.67914">
        <ele>324</ele>
        <time>2025-03-02T08:50:40Z</time>
      </trkpt>
      <trkpt lat="45.72399" lon="4.67907">
        <ele>324</ele>
        <time>2025-03-02T08:50:41Z</time>
      </trkpt>
      <trkpt lat="45.72402" lon="4.679">
        <ele>323.8</ele>
        <time>2025-03-02T08:50:42Z</time>
      </trkpt>
      <trkpt lat="45.72404" lon="4.67893">
        <ele>323.6</ele>
        <time>2025-03-02T08:50:43Z</time>
      </trkpt>
      <trkpt lat="45.72405" lon="4.67886">
        <ele>323.6</ele>
        <time>2025-03-02T08:50:44Z</time>
      </trkpt>
      <trkpt lat="45.72407" lon="4.67879">
        <ele>323.6</ele>
        <time>2025-03-02T08:50:45Z</time>
      </trkpt>
      <trkpt lat="45.72408" lon="4.67872">
        <ele>323.6</ele>
        <time>2025-03-02T08:50:46Z</time>
      </trkpt>
      <trkpt lat="45.72409" lon="4.67865">
        <ele>323.6</ele>
        <time>2025-03-02T08:50:47Z</time>
      </trkpt>
      <trkpt lat="45.72411" lon="4.67858">
        <ele>323.4</ele>
        <time>2025-03-02T08:50:48Z</time>
      </trkpt>
      <trkpt lat="45.72411" lon="4.67851">
        <ele>323.4</ele>
        <time>2025-03-02T08:50:49Z</time>
      </trkpt>
      <trkpt lat="45.72412" lon="4.67843">
        <ele>323.2</ele>
        <time>2025-03-02T08:50:50Z</time>
      </trkpt>
      <trkpt lat="45.72413" lon="4.67835">
        <ele>323</ele>
        <time>2025-03-02T08:50:51Z</time>
      </trkpt>
      <trkpt lat="45.72413" lon="4.67827">
        <ele>322.8</ele>
        <time>2025-03-02T08:50:52Z</time>
      </trkpt>
      <trkpt lat="45.72414" lon="4.67819">
        <ele>322.4</ele>
        <time>2025-03-02T08:50:53Z</time>
      </trkpt>
      <trkpt lat="45.72414" lon="4.67811">
        <ele>322</ele>
        <time>2025-03-02T08:50:54Z</time>
      </trkpt>
      <trkpt lat="45.72414" lon="4.67804">
        <ele>321.6</ele>
        <time>2025-03-02T08:50:55Z</time>
      </trkpt>
      <trkpt lat="45.72415" lon="4.67797">
        <ele>321.4</ele>
        <time>2025-03-02T08:50:56Z</time>
      </trkpt>
      <trkpt lat="45.72416" lon="4.67791">
        <ele>321.4</ele>
        <time>2025-03-02T08:50:57Z</time>
      </trkpt>
      <trkpt lat="45.72417" lon="4.67786">
        <ele>321.4</ele>
        <time>2025-03-02T08:50:58Z</time>
      </trkpt>
      <trkpt lat="45.72417" lon="4.67782">
        <ele>321.2</ele>
        <time>2025-03-02T08:50:59Z</time>
      </trkpt>
      <trkpt lat="45.72418" lon="4.67778">
        <ele>321.2</ele>
        <time>2025-03-02T08:51:00Z</time>
      </trkpt>
      <trkpt lat="45.72419" lon="4.67774">
        <ele>321.2</ele>
        <time>2025-03-02T08:51:01Z</time>
      </trkpt>
      <trkpt lat="45.7242" lon="4.67769">
        <ele>321</ele>
        <time>2025-03-02T08:51:02Z</time>
      </trkpt>
      <trkpt lat="45.72421" lon="4.67764">
        <ele>320.4</ele>
        <time>2025-03-02T08:51:03Z</time>
      </trkpt>
      <trkpt lat="45.72423" lon="4.67759">
        <ele>320</ele>
        <time>2025-03-02T08:51:04Z</time>
      </trkpt>
      <trkpt lat="45.72425" lon="4.67754">
        <ele>319.4</ele>
        <time>2025-03-02T08:51:05Z</time>
      </trkpt>
      <trkpt lat="45.72426" lon="4.67749">
        <ele>318.4</ele>
        <time>2025-03-02T08:51:06Z</time>
      </trkpt>
      <trkpt lat="45.72428" lon="4.67744">
        <ele>318</ele>
        <time>2025-03-02T08:51:07Z</time>
      </trkpt>
      <trkpt lat="45.7243" lon="4.67739">
        <ele>317</ele>
        <time>2025-03-02T08:51:08Z</time>
      </trkpt>
      <trkpt lat="45.72431" lon="4.67735">
        <ele>316.6</ele>
        <time>2025-03-02T08:51:09Z</time>
      </trkpt>
      <trkpt lat="45.72431" lon="4.67731">
        <ele>316.2</ele>
        <time>2025-03-02T08:51:10Z</time>
      </trkpt>
      <trkpt lat="45.72431" lon="4.67726">
        <ele>315.8</ele>
        <time>2025-03-02T08:51:11Z</time>
      </trkpt>
      <trkpt lat="45.72431" lon="4.67723">
        <ele>315.4</ele>
        <time>2025-03-02T08:51:12Z</time>
      </trkpt>
      <trkpt lat="45.72431" lon="4.67719">
        <ele>315</ele>
        <time>2025-03-02T08:51:13Z</time>
      </trkpt>
      <trkpt lat="45.72431" lon="4.67715">
        <ele>314.4</ele>
        <time>2025-03-02T08:51:14Z</time>
      </trkpt>
      <trkpt lat="45.7243" lon="4.67712">
        <ele>314.2</ele>
        <time>2025-03-02T08:51:15Z</time>
      </trkpt>
      <trkpt lat="45.72428" lon="4.67708">
        <ele>313.8</ele>
        <time>2025-03-02T08:51:16Z</time>
      </trkpt>
      <trkpt lat="45.72427" lon="4.67704">
        <ele>313</ele>
        <time>2025-03-02T08:51:17Z</time>
      </trkpt>
      <trkpt lat="45.72426" lon="4.677">
        <ele>312.2</ele>
        <time>2025-03-02T08:51:18Z</time>
      </trkpt>
      <trkpt lat="45.72426" lon="4.67697">
        <ele>311.6</ele>
        <time>2025-03-02T08:51:19Z</time>
      </trkpt>
      <trkpt lat="45.72427" lon="4.67695">
        <ele>311.2</ele>
        <time>2025-03-02T08:51:20Z</time>
      </trkpt>
      <trkpt lat="45.72428" lon="4.67694">
        <ele>310.8</ele>
        <time>2025-03-02T08:51:21Z</time>
      </trkpt>
      <trkpt lat="45.72431" lon="4.67693">
        <ele>310.2</ele>
        <time>2025-03-02T08:51:22Z</time>
      </trkpt>
      <trkpt lat="45.72432" lon="4.67693">
        <ele>309.8</ele>
        <time>2025-03-02T08:51:23Z</time>
      </trkpt>
      <trkpt lat="45.72434" lon="4.67694">
        <ele>309.2</ele>
        <time>2025-03-02T08:51:24Z</time>
      </trkpt>
      <trkpt lat="45.72436" lon="4.67695">
        <ele>308.8</ele>
        <time>2025-03-02T08:51:25Z</time>
      </trkpt>
      <trkpt lat="45.72438" lon="4.67696">
        <ele>308.2</ele>
        <time>2025-03-02T08:51:26Z</time>
      </trkpt>
      <trkpt lat="45.7244" lon="4.67697">
        <ele>307.6</ele>
        <time>2025-03-02T08:51:27Z</time>
      </trkpt>
      <trkpt lat="45.72443" lon="4.67698">
        <ele>307.2</ele>
        <time>2025-03-02T08:51:28Z</time>
      </trkpt>
      <trkpt lat="45.72446" lon="4.67699">
        <ele>306.6</ele>
        <time>2025-03-02T08:51:29Z</time>
      </trkpt>
      <trkpt lat="45.72448" lon="4.677">
        <ele>306.4</ele>
        <time>2025-03-02T08:51:30Z</time>
      </trkpt>
      <trkpt lat="45.7245" lon="4.67701">
        <ele>306</ele>
        <time>2025-03-02T08:51:31Z</time>
      </trkpt>
      <trkpt lat="45.72453" lon="4.67702">
        <ele>305.4</ele>
        <time>2025-03-02T08:51:32Z</time>
      </trkpt>
      <trkpt lat="45.72456" lon="4.67704">
        <ele>305</ele>
        <time>2025-03-02T08:51:33Z</time>
      </trkpt>
      <trkpt lat="45.72459" lon="4.67706">
        <ele>304.6</ele>
        <time>2025-03-02T08:51:34Z</time>
      </trkpt>
      <trkpt lat="45.72462" lon="4.67708">
        <ele>304</ele>
        <time>2025-03-02T08:51:35Z</time>
      </trkpt>
      <trkpt lat="45.72465" lon="4.6771">
        <ele>303.8</ele>
        <time>2025-03-02T08:51:36Z</time>
      </trkpt>
      <trkpt lat="45.72468" lon="4.67713">
        <ele>303.2</ele>
        <time>2025-03-02T08:51:37Z</time>
      </trkpt>
      <trkpt lat="45.7247" lon="4.67716">
        <ele>303</ele>
        <time>2025-03-02T08:51:38Z</time>
      </trkpt>
      <trkpt lat="45.72472" lon="4.67718">
        <ele>302.6</ele>
        <time>2025-03-02T08:51:39Z</time>
      </trkpt>
      <trkpt lat="45.72474" lon="4.6772">
        <ele>302</ele>
        <time>2025-03-02T08:51:40Z</time>
      </trkpt>
      <trkpt lat="45.72476" lon="4.67722">
        <ele>302</ele>
        <time>2025-03-02T08:51:41Z</time>
      </trkpt>
      <trkpt lat="45.72478" lon="4.67725">
        <ele>301.8</ele>
        <time>2025-03-02T08:51:42Z</time>
      </trkpt>
      <trkpt lat="45.72481" lon="4.67727">
        <ele>301.4</ele>
        <time>2025-03-02T08:51:43Z</time>
      </trkpt>
      <trkpt lat="45.72482" lon="4.67729">
        <ele>301.2</ele>
        <time>2025-03-02T08:51:44Z</time>
      </trkpt>
      <trkpt lat="45.72484" lon="4.67731">
        <ele>301</ele>
        <time>2025-03-02T08:51:45Z</time>
      </trkpt>
      <trkpt lat="45.72486" lon="4.67732">
        <ele>301</ele>
        <time>2025-03-02T08:51:46Z</time>
      </trkpt>
      <trkpt lat="45.72487" lon="4.67733">
        <ele>301</ele>
        <time>2025-03-02T08:51:47Z</time>
      </trkpt>
      <trkpt lat="45.72489" lon="4.67733">
        <ele>301</ele>
        <time>2025-03-02T08:51:48Z</time>
      </trkpt>
      <trkpt lat="45.7249" lon="4.67732">
        <ele>301</ele>
        <time>2025-03-02T08:51:49Z</time>
      </trkpt>
      <trkpt lat="45.72492" lon="4.67731">
        <ele>301</ele>
        <time>2025-03-02T08:51:50Z</time>
      </trkpt>
      <trkpt lat="45.72494" lon="4.67729">
        <ele>301</ele>
        <time>2025-03-02T08:51:51Z</time>
      </trkpt>
      <trkpt lat="45.72495" lon="4.67727">
        <ele>301</ele>
        <time>2025-03-02T08:51:52Z</time>
      </trkpt>
      <trkpt lat="45.72498" lon="4.67724">
        <ele>301</ele>
        <time>2025-03-02T08:51:53Z</time>
      </trkpt>
      <trkpt lat="45.72499" lon="4.67721">
        <ele>301</ele>
        <time>2025-03-02T08:51:54Z</time>
      </trkpt>
      <trkpt lat="45.72501" lon="4.67718">
        <ele>301</ele>
        <time>2025-03-02T08:51:55Z</time>
      </trkpt>
      <trkpt lat="45.72503" lon="4.67715">
        <ele>301</ele>
        <time>2025-03-02T08:51:56Z</time>
      </trkpt>
      <trkpt lat="45.72504" lon="4.67712">
        <ele>301.2</ele>
        <time>2025-03-02T08:51:57Z</time>
      </trkpt>
      <trkpt lat="45.72505" lon="4.67709">
        <ele>301.4</ele>
        <time>2025-03-02T08:51:58Z</time>
      </trkpt>
      <trkpt lat="45.72506" lon="4.67706">
        <ele>301.4</ele>
        <time>2025-03-02T08:51:59Z</time>
      </trkpt>
      <trkpt lat="45.72507" lon="4.67702">
        <ele>301.6</ele>
        <time>2025-03-02T08:52:00Z</time>
      </trkpt>
      <trkpt lat="45.72509" lon="4.67698">
        <ele>301.8</ele>
        <time>2025-03-02T08:52:01Z</time>
      </trkpt>
      <trkpt lat="45.72511" lon="4.67695">
        <ele>301.8</ele>
        <time>2025-03-02T08:52:02Z</time>
      </trkpt>
      <trkpt lat="45.72513" lon="4.67692">
        <ele>301.8</ele>
        <time>2025-03-02T08:52:03Z</time>
      </trkpt>
      <trkpt lat="45.72515" lon="4.6769">
        <ele>302</ele>
        <time>2025-03-02T08:52:04Z</time>
      </trkpt>
      <trkpt lat="45.72517" lon="4.67687">
        <ele>302</ele>
        <time>2025-03-02T08:52:05Z</time>
      </trkpt>
      <trkpt lat="45.72519" lon="4.67684">
        <ele>302.2</ele>
        <time>2025-03-02T08:52:06Z</time>
      </trkpt>
      <trkpt lat="45.72521" lon="4.67682">
        <ele>302.2</ele>
        <time>2025-03-02T08:52:07Z</time>
      </trkpt>
      <trkpt lat="45.72524" lon="4.6768">
        <ele>302.2</ele>
        <time>2025-03-02T08:52:08Z</time>
      </trkpt>
      <trkpt lat="45.72526" lon="4.67676">
        <ele>302.2</ele>
        <time>2025-03-02T08:52:09Z</time>
      </trkpt>
      <trkpt lat="45.72528" lon="4.67672">
        <ele>302.2</ele>
        <time>2025-03-02T08:52:10Z</time>
      </trkpt>
      <trkpt lat="45.72528" lon="4.67671">
        <ele>302.2</ele>
        <time>2025-03-02T08:52:11Z</time>
      </trkpt>
      <trkpt lat="45.72528" lon="4.67671">
        <ele>302.2</ele>
        <time>2025-03-02T08:52:12Z</time>
      </trkpt>
      <trkpt lat="45.7253" lon="4.67671">
        <ele>302.2</ele>
        <time>2025-03-02T08:52:13Z</time>
      </trkpt>
      <trkpt lat="45.72532" lon="4.67672">
        <ele>302.2</ele>
        <time>2025-03-02T08:52:14Z</time>
      </trkpt>
      <trkpt lat="45.72533" lon="4.67672">
        <ele>302.2</ele>
        <time>2025-03-02T08:52:15Z</time>
      </trkpt>
      <trkpt lat="45.72535" lon="4.67671">
        <ele>302.2</ele>
        <time>2025-03-02T08:52:16Z</time>
      </trkpt>
      <trkpt lat="45.72536" lon="4.67669">
        <ele>302.2</ele>
        <time>2025-03-02T08:52:17Z</time>
      </trkpt>
      <trkpt lat="45.72537" lon="4.67667">
        <ele>302.2</ele>
        <time>2025-03-02T08:52:18Z</time>
      </trkpt>
      <trkpt lat="45.72539" lon="4.67664">
        <ele>302.2</ele>
        <time>2025-03-02T08:52:19Z</time>
      </trkpt>
      <trkpt lat="45.7254" lon="4.67661">
        <ele>302.2</ele>
        <time>2025-03-02T08:52:20Z</time>
      </trkpt>
      <trkpt lat="45.72542" lon="4.67658">
        <ele>302.4</ele>
        <time>2025-03-02T08:52:21Z</time>
      </trkpt>
      <trkpt lat="45.72544" lon="4.67654">
        <ele>302.4</ele>
        <time>2025-03-02T08:52:22Z</time>
      </trkpt>
      <trkpt lat="45.72546" lon="4.6765">
        <ele>302.4</ele>
        <time>2025-03-02T08:52:23Z</time>
      </trkpt>
      <trkpt lat="45.72547" lon="4.67646">
        <ele>302.4</ele>
        <time>2025-03-02T08:52:24Z</time>
      </trkpt>
      <trkpt lat="45.7255" lon="4.67643">
        <ele>302.6</ele>
        <time>2025-03-02T08:52:25Z</time>
      </trkpt>
      <trkpt lat="45.72552" lon="4.67639">
        <ele>302.6</ele>
        <time>2025-03-02T08:52:26Z</time>
      </trkpt>
      <trkpt lat="45.72553" lon="4.67636">
        <ele>302.8</ele>
        <time>2025-03-02T08:52:27Z</time>
      </trkpt>
      <trkpt lat="45.72555" lon="4.67633">
        <ele>303</ele>
        <time>2025-03-02T08:52:28Z</time>
      </trkpt>
      <trkpt lat="45.72558" lon="4.6763">
        <ele>303.2</ele>
        <time>2025-03-02T08:52:29Z</time>
      </trkpt>
      <trkpt lat="45.7256" lon="4.67627">
        <ele>303.8</ele>
        <time>2025-03-02T08:52:30Z</time>
      </trkpt>
      <trkpt lat="45.72563" lon="4.67626">
        <ele>304.2</ele>
        <time>2025-03-02T08:52:31Z</time>
      </trkpt>
      <trkpt lat="45.72565" lon="4.67623">
        <ele>304.6</ele>
        <time>2025-03-02T08:52:32Z</time>
      </trkpt>
      <trkpt lat="45.72567" lon="4.6762">
        <ele>305</ele>
        <time>2025-03-02T08:52:33Z</time>
      </trkpt>
      <trkpt lat="45.72569" lon="4.67617">
        <ele>305.6</ele>
        <time>2025-03-02T08:52:34Z</time>
      </trkpt>
      <trkpt lat="45.72571" lon="4.67615">
        <ele>305.8</ele>
        <time>2025-03-02T08:52:35Z</time>
      </trkpt>
      <trkpt lat="45.72574" lon="4.67613">
        <ele>306.2</ele>
        <time>2025-03-02T08:52:36Z</time>
      </trkpt>
      <trkpt lat="45.72577" lon="4.67612">
        <ele>306.4</ele>
        <time>2025-03-02T08:52:37Z</time>
      </trkpt>
      <trkpt lat="45.72579" lon="4.6761">
        <ele>306.6</ele>
        <time>2025-03-02T08:52:38Z</time>
      </trkpt>
      <trkpt lat="45.7258" lon="4.67608">
        <ele>307</ele>
        <time>2025-03-02T08:52:39Z</time>
      </trkpt>
      <trkpt lat="45.72581" lon="4.67605">
        <ele>307.2</ele>
        <time>2025-03-02T08:52:40Z</time>
      </trkpt>
      <trkpt lat="45.72583" lon="4.67604">
        <ele>307.6</ele>
        <time>2025-03-02T08:52:41Z</time>
      </trkpt>
      <trkpt lat="45.72585" lon="4.67602">
        <ele>307.8</ele>
        <time>2025-03-02T08:52:42Z</time>
      </trkpt>
      <trkpt lat="45.72588" lon="4.676">
        <ele>307.8</ele>
        <time>2025-03-02T08:52:43Z</time>
      </trkpt>
      <trkpt lat="45.7259" lon="4.67598">
        <ele>308</ele>
        <time>2025-03-02T08:52:44Z</time>
      </trkpt>
      <trkpt lat="45.72592" lon="4.67597">
        <ele>308.6</ele>
        <time>2025-03-02T08:52:45Z</time>
      </trkpt>
      <trkpt lat="45.72595" lon="4.67596">
        <ele>308.6</ele>
        <time>2025-03-02T08:52:46Z</time>
      </trkpt>
      <trkpt lat="45.72598" lon="4.67596">
        <ele>308.8</ele>
        <time>2025-03-02T08:52:47Z</time>
      </trkpt>
      <trkpt lat="45.726" lon="4.67596">
        <ele>309.2</ele>
        <time>2025-03-02T08:52:48Z</time>
      </trkpt>
      <trkpt lat="45.72602" lon="4.67595">
        <ele>309.4</ele>
        <time>2025-03-02T08:52:49Z</time>
      </trkpt>
      <trkpt lat="45.72603" lon="4.67595">
        <ele>309.8</ele>
        <time>2025-03-02T08:52:50Z</time>
      </trkpt>
      <trkpt lat="45.72605" lon="4.67595">
        <ele>310.2</ele>
        <time>2025-03-02T08:52:51Z</time>
      </trkpt>
      <trkpt lat="45.72606" lon="4.67595">
        <ele>310.4</ele>
        <time>2025-03-02T08:52:52Z</time>
      </trkpt>
      <trkpt lat="45.72608" lon="4.67594">
        <ele>310.8</ele>
        <time>2025-03-02T08:52:53Z</time>
      </trkpt>
      <trkpt lat="45.72609" lon="4.67593">
        <ele>311.2</ele>
        <time>2025-03-02T08:52:54Z</time>
      </trkpt>
      <trkpt lat="45.7261" lon="4.67592">
        <ele>311.4</ele>
        <time>2025-03-02T08:52:55Z</time>
      </trkpt>
      <trkpt lat="45.72612" lon="4.67592">
        <ele>311.8</ele>
        <time>2025-03-02T08:52:56Z</time>
      </trkpt>
      <trkpt lat="45.72614" lon="4.67592">
        <ele>312</ele>
        <time>2025-03-02T08:52:57Z</time>
      </trkpt>
      <trkpt lat="45.72616" lon="4.67591">
        <ele>312.2</ele>
        <time>2025-03-02T08:52:58Z</time>
      </trkpt>
      <trkpt lat="45.72617" lon="4.67591">
        <ele>312.4</ele>
        <time>2025-03-02T08:52:59Z</time>
      </trkpt>
      <trkpt lat="45.72619" lon="4.6759">
        <ele>312.6</ele>
        <time>2025-03-02T08:53:00Z</time>
      </trkpt>
      <trkpt lat="45.72621" lon="4.6759">
        <ele>313</ele>
        <time>2025-03-02T08:53:01Z</time>
      </trkpt>
      <trkpt lat="45.72623" lon="4.6759">
        <ele>313.4</ele>
        <time>2025-03-02T08:53:02Z</time>
      </trkpt>
      <trkpt lat="45.72624" lon="4.67589">
        <ele>313.6</ele>
        <time>2025-03-02T08:53:03Z</time>
      </trkpt>
      <trkpt lat="45.72625" lon="4.67589">
        <ele>314</ele>
        <time>2025-03-02T08:53:04Z</time>
      </trkpt>
      <trkpt lat="45.72627" lon="4.67588">
        <ele>314.4</ele>
        <time>2025-03-02T08:53:05Z</time>
      </trkpt>
      <trkpt lat="45.72628" lon="4.67588">
        <ele>314.8</ele>
        <time>2025-03-02T08:53:06Z</time>
      </trkpt>
      <trkpt lat="45.7263" lon="4.67587">
        <ele>315</ele>
        <time>2025-03-02T08:53:07Z</time>
      </trkpt>
      <trkpt lat="45.72631" lon="4.67587">
        <ele>315.4</ele>
        <time>2025-03-02T08:53:08Z</time>
      </trkpt>
      <trkpt lat="45.72633" lon="4.67587">
        <ele>315.6</ele>
        <time>2025-03-02T08:53:09Z</time>
      </trkpt>
      <trkpt lat="45.72636" lon="4.67586">
        <ele>316</ele>
        <time>2025-03-02T08:53:10Z</time>
      </trkpt>
      <trkpt lat="45.72638" lon="4.67585">
        <ele>316.2</ele>
        <time>2025-03-02T08:53:11Z</time>
      </trkpt>
      <trkpt lat="45.7264" lon="4.67584">
        <ele>316.6</ele>
        <time>2025-03-02T08:53:12Z</time>
      </trkpt>
      <trkpt lat="45.72642" lon="4.67584">
        <ele>316.8</ele>
        <time>2025-03-02T08:53:13Z</time>
      </trkpt>
      <trkpt lat="45.72645" lon="4.67583">
        <ele>317</ele>
        <time>2025-03-02T08:53:14Z</time>
      </trkpt>
      <trkpt lat="45.72647" lon="4.67582">
        <ele>317.2</ele>
        <time>2025-03-02T08:53:15Z</time>
      </trkpt>
      <trkpt lat="45.72648" lon="4.67581">
        <ele>317.4</ele>
        <time>2025-03-02T08:53:16Z</time>
      </trkpt>
      <trkpt lat="45.7265" lon="4.6758">
        <ele>317.8</ele>
        <time>2025-03-02T08:53:17Z</time>
      </trkpt>
      <trkpt lat="45.72652" lon="4.67578">
        <ele>318</ele>
        <time>2025-03-02T08:53:18Z</time>
      </trkpt>
      <trkpt lat="45.72653" lon="4.67578">
        <ele>318.6</ele>
        <time>2025-03-02T08:53:19Z</time>
      </trkpt>
      <trkpt lat="45.72655" lon="4.67577">
        <ele>318.6</ele>
        <time>2025-03-02T08:53:20Z</time>
      </trkpt>
      <trkpt lat="45.72657" lon="4.67576">
        <ele>318.8</ele>
        <time>2025-03-02T08:53:21Z</time>
      </trkpt>
      <trkpt lat="45.72658" lon="4.67575">
        <ele>319</ele>
        <time>2025-03-02T08:53:22Z</time>
      </trkpt>
      <trkpt lat="45.7266" lon="4.67575">
        <ele>319.2</ele>
        <time>2025-03-02T08:53:23Z</time>
      </trkpt>
      <trkpt lat="45.72661" lon="4.67574">
        <ele>319.6</ele>
        <time>2025-03-02T08:53:24Z</time>
      </trkpt>
      <trkpt lat="45.72663" lon="4.67573">
        <ele>319.8</ele>
        <time>2025-03-02T08:53:25Z</time>
      </trkpt>
      <trkpt lat="45.72665" lon="4.67572">
        <ele>320</ele>
        <time>2025-03-02T08:53:26Z</time>
      </trkpt>
      <trkpt lat="45.72667" lon="4.67572">
        <ele>320.2</ele>
        <time>2025-03-02T08:53:27Z</time>
      </trkpt>
      <trkpt lat="45.72669" lon="4.6757">
        <ele>320.4</ele>
        <time>2025-03-02T08:53:28Z</time>
      </trkpt>
      <trkpt lat="45.72671" lon="4.67569">
        <ele>320.6</ele>
        <time>2025-03-02T08:53:29Z</time>
      </trkpt>
      <trkpt lat="45.72674" lon="4.67569">
        <ele>320.8</ele>
        <time>2025-03-02T08:53:30Z</time>
      </trkpt>
      <trkpt lat="45.72677" lon="4.67568">
        <ele>321</ele>
        <time>2025-03-02T08:53:31Z</time>
      </trkpt>
      <trkpt lat="45.72679" lon="4.67568">
        <ele>321.2</ele>
        <time>2025-03-02T08:53:32Z</time>
      </trkpt>
      <trkpt lat="45.72681" lon="4.67567">
        <ele>321.4</ele>
        <time>2025-03-02T08:53:33Z</time>
      </trkpt>
      <trkpt lat="45.72683" lon="4.67567">
        <ele>321.8</ele>
        <time>2025-03-02T08:53:34Z</time>
      </trkpt>
      <trkpt lat="45.72686" lon="4.67566">
        <ele>322</ele>
        <time>2025-03-02T08:53:35Z</time>
      </trkpt>
      <trkpt lat="45.72688" lon="4.67566">
        <ele>322.4</ele>
        <time>2025-03-02T08:53:36Z</time>
      </trkpt>
      <trkpt lat="45.7269" lon="4.67566">
        <ele>322.8</ele>
        <time>2025-03-02T08:53:37Z</time>
      </trkpt>
      <trkpt lat="45.72693" lon="4.67565">
        <ele>323</ele>
        <time>2025-03-02T08:53:38Z</time>
      </trkpt>
      <trkpt lat="45.72695" lon="4.67564">
        <ele>323.4</ele>
        <time>2025-03-02T08:53:39Z</time>
      </trkpt>
      <trkpt lat="45.72698" lon="4.67564">
        <ele>323.8</ele>
        <time>2025-03-02T08:53:40Z</time>
      </trkpt>
      <trkpt lat="45.727" lon="4.67564">
        <ele>324.2</ele>
        <time>2025-03-02T08:53:41Z</time>
      </trkpt>
      <trkpt lat="45.72702" lon="4.67565">
        <ele>324.6</ele>
        <time>2025-03-02T08:53:42Z</time>
      </trkpt>
      <trkpt lat="45.72704" lon="4.67564">
        <ele>325</ele>
        <time>2025-03-02T08:53:43Z</time>
      </trkpt>
      <trkpt lat="45.72706" lon="4.67563">
        <ele>325.4</ele>
        <time>2025-03-02T08:53:44Z</time>
      </trkpt>
      <trkpt lat="45.72708" lon="4.67563">
        <ele>325.8</ele>
        <time>2025-03-02T08:53:45Z</time>
      </trkpt>
      <trkpt lat="45.7271" lon="4.67562">
        <ele>326.2</ele>
        <time>2025-03-02T08:53:46Z</time>
      </trkpt>
      <trkpt lat="45.72713" lon="4.67561">
        <ele>326.4</ele>
        <time>2025-03-02T08:53:47Z</time>
      </trkpt>
      <trkpt lat="45.72715" lon="4.67559">
        <ele>326.8</ele>
        <time>2025-03-02T08:53:48Z</time>
      </trkpt>
      <trkpt lat="45.72717" lon="4.67558">
        <ele>327.2</ele>
        <time>2025-03-02T08:53:49Z</time>
      </trkpt>
      <trkpt lat="45.7272" lon="4.67557">
        <ele>327.6</ele>
        <time>2025-03-02T08:53:50Z</time>
      </trkpt>
      <trkpt lat="45.72722" lon="4.67555">
        <ele>327.8</ele>
        <time>2025-03-02T08:53:51Z</time>
      </trkpt>
      <trkpt lat="45.72724" lon="4.67553">
        <ele>328.4</ele>
        <time>2025-03-02T08:53:52Z</time>
      </trkpt>
      <trkpt lat="45.72726" lon="4.6755">
        <ele>328.4</ele>
        <time>2025-03-02T08:53:53Z</time>
      </trkpt>
      <trkpt lat="45.72728" lon="4.67548">
        <ele>328.8</ele>
        <time>2025-03-02T08:53:54Z</time>
      </trkpt>
      <trkpt lat="45.7273" lon="4.67545">
        <ele>329.2</ele>
        <time>2025-03-02T08:53:55Z</time>
      </trkpt>
      <trkpt lat="45.72732" lon="4.67543">
        <ele>329.2</ele>
        <time>2025-03-02T08:53:56Z</time>
      </trkpt>
      <trkpt lat="45.72734" lon="4.6754">
        <ele>329.4</ele>
        <time>2025-03-02T08:53:57Z</time>
      </trkpt>
      <trkpt lat="45.72735" lon="4.67537">
        <ele>329.8</ele>
        <time>2025-03-02T08:53:58Z</time>
      </trkpt>
      <trkpt lat="45.72737" lon="4.67533">
        <ele>329.8</ele>
        <time>2025-03-02T08:53:59Z</time>
      </trkpt>
      <trkpt lat="45.72738" lon="4.67529">
        <ele>330.2</ele>
        <time>2025-03-02T08:54:00Z</time>
      </trkpt>
      <trkpt lat="45.72739" lon="4.67526">
        <ele>330.4</ele>
        <time>2025-03-02T08:54:01Z</time>
      </trkpt>
      <trkpt lat="45.72741" lon="4.67522">
        <ele>330.8</ele>
        <time>2025-03-02T08:54:02Z</time>
      </trkpt>
      <trkpt lat="45.72742" lon="4.67519">
        <ele>331</ele>
        <time>2025-03-02T08:54:03Z</time>
      </trkpt>
      <trkpt lat="45.72743" lon="4.67516">
        <ele>331.4</ele>
        <time>2025-03-02T08:54:04Z</time>
      </trkpt>
      <trkpt lat="45.72745" lon="4.67513">
        <ele>331.4</ele>
        <time>2025-03-02T08:54:05Z</time>
      </trkpt>
      <trkpt lat="45.72746" lon="4.6751">
        <ele>331.8</ele>
        <time>2025-03-02T08:54:06Z</time>
      </trkpt>
      <trkpt lat="45.72748" lon="4.67506">
        <ele>332</ele>
        <time>2025-03-02T08:54:07Z</time>
      </trkpt>
      <trkpt lat="45.72749" lon="4.67502">
        <ele>332.4</ele>
        <time>2025-03-02T08:54:08Z</time>
      </trkpt>
      <trkpt lat="45.72751" lon="4.67499">
        <ele>332.6</ele>
        <time>2025-03-02T08:54:09Z</time>
      </trkpt>
      <trkpt lat="45.72753" lon="4.67496">
        <ele>332.6</ele>
        <time>2025-03-02T08:54:10Z</time>
      </trkpt>
      <trkpt lat="45.72755" lon="4.67494">
        <ele>333</ele>
        <time>2025-03-02T08:54:11Z</time>
      </trkpt>
      <trkpt lat="45.72757" lon="4.67491">
        <ele>333.2</ele>
        <time>2025-03-02T08:54:12Z</time>
      </trkpt>
      <trkpt lat="45.72759" lon="4.67488">
        <ele>333.4</ele>
        <time>2025-03-02T08:54:13Z</time>
      </trkpt>
      <trkpt lat="45.72762" lon="4.67486">
        <ele>333.6</ele>
        <time>2025-03-02T08:54:14Z</time>
      </trkpt>
      <trkpt lat="45.72765" lon="4.67484">
        <ele>333.8</ele>
        <time>2025-03-02T08:54:15Z</time>
      </trkpt>
      <trkpt lat="45.72767" lon="4.67482">
        <ele>334</ele>
        <time>2025-03-02T08:54:16Z</time>
      </trkpt>
      <trkpt lat="45.72769" lon="4.67481">
        <ele>334</ele>
        <time>2025-03-02T08:54:17Z</time>
      </trkpt>
      <trkpt lat="45.72771" lon="4.67479">
        <ele>334</ele>
        <time>2025-03-02T08:54:18Z</time>
      </trkpt>
      <trkpt lat="45.72773" lon="4.67478">
        <ele>334.2</ele>
        <time>2025-03-02T08:54:19Z</time>
      </trkpt>
      <trkpt lat="45.72775" lon="4.67478">
        <ele>334.4</ele>
        <time>2025-03-02T08:54:20Z</time>
      </trkpt>
      <trkpt lat="45.72778" lon="4.67477">
        <ele>334.6</ele>
        <time>2025-03-02T08:54:21Z</time>
      </trkpt>
      <trkpt lat="45.72781" lon="4.67477">
        <ele>334.6</ele>
        <time>2025-03-02T08:54:22Z</time>
      </trkpt>
      <trkpt lat="45.72783" lon="4.67476">
        <ele>334.8</ele>
        <time>2025-03-02T08:54:23Z</time>
      </trkpt>
      <trkpt lat="45.72785" lon="4.67474">
        <ele>335</ele>
        <time>2025-03-02T08:54:24Z</time>
      </trkpt>
      <trkpt lat="45.72787" lon="4.67473">
        <ele>335</ele>
        <time>2025-03-02T08:54:25Z</time>
      </trkpt>
      <trkpt lat="45.7279" lon="4.67471">
        <ele>335</ele>
        <time>2025-03-02T08:54:26Z</time>
      </trkpt>
      <trkpt lat="45.72792" lon="4.6747">
        <ele>335</ele>
        <time>2025-03-02T08:54:27Z</time>
      </trkpt>
      <trkpt lat="45.72795" lon="4.6747">
        <ele>335</ele>
        <time>2025-03-02T08:54:28Z</time>
      </trkpt>
      <trkpt lat="45.72798" lon="4.6747">
        <ele>334.8</ele>
        <time>2025-03-02T08:54:29Z</time>
      </trkpt>
      <trkpt lat="45.72802" lon="4.67469">
        <ele>334.8</ele>
        <time>2025-03-02T08:54:30Z</time>
      </trkpt>
      <trkpt lat="45.72805" lon="4.67468">
        <ele>334.8</ele>
        <time>2025-03-02T08:54:31Z</time>
      </trkpt>
      <trkpt lat="45.72809" lon="4.67467">
        <ele>334.8</ele>
        <time>2025-03-02T08:54:32Z</time>
      </trkpt>
      <trkpt lat="45.72812" lon="4.67465">
        <ele>334.8</ele>
        <time>2025-03-02T08:54:33Z</time>
      </trkpt>
      <trkpt lat="45.72815" lon="4.67462">
        <ele>334.8</ele>
        <time>2025-03-02T08:54:34Z</time>
      </trkpt>
      <trkpt lat="45.72817" lon="4.6746">
        <ele>335</ele>
        <time>2025-03-02T08:54:35Z</time>
      </trkpt>
      <trkpt lat="45.7282" lon="4.67458">
        <ele>335.4</ele>
        <time>2025-03-02T08:54:36Z</time>
      </trkpt>
      <trkpt lat="45.72822" lon="4.67456">
        <ele>335.8</ele>
        <time>2025-03-02T08:54:37Z</time>
      </trkpt>
      <trkpt lat="45.72825" lon="4.67454">
        <ele>336.4</ele>
        <time>2025-03-02T08:54:38Z</time>
      </trkpt>
      <trkpt lat="45.72827" lon="4.67451">
        <ele>336.8</ele>
        <time>2025-03-02T08:54:39Z</time>
      </trkpt>
      <trkpt lat="45.7283" lon="4.67448">
        <ele>337</ele>
        <time>2025-03-02T08:54:40Z</time>
      </trkpt>
      <trkpt lat="45.72832" lon="4.67445">
        <ele>337.4</ele>
        <time>2025-03-02T08:54:41Z</time>
      </trkpt>
      <trkpt lat="45.72835" lon="4.67442">
        <ele>337.6</ele>
        <time>2025-03-02T08:54:42Z</time>
      </trkpt>
      <trkpt lat="45.72837" lon="4.67439">
        <ele>337.8</ele>
        <time>2025-03-02T08:54:43Z</time>
      </trkpt>
      <trkpt lat="45.7284" lon="4.67436">
        <ele>337.8</ele>
        <time>2025-03-02T08:54:44Z</time>
      </trkpt>
      <trkpt lat="45.72842" lon="4.67433">
        <ele>338</ele>
        <time>2025-03-02T08:54:45Z</time>
      </trkpt>
      <trkpt lat="45.72845" lon="4.67431">
        <ele>338.2</ele>
        <time>2025-03-02T08:54:46Z</time>
      </trkpt>
      <trkpt lat="45.72848" lon="4.67428">
        <ele>338.4</ele>
        <time>2025-03-02T08:54:47Z</time>
      </trkpt>
      <trkpt lat="45.72851" lon="4.67426">
        <ele>338.4</ele>
        <time>2025-03-02T08:54:48Z</time>
      </trkpt>
      <trkpt lat="45.72853" lon="4.67423">
        <ele>338.6</ele>
        <time>2025-03-02T08:54:49Z</time>
      </trkpt>
      <trkpt lat="45.72856" lon="4.6742">
        <ele>338.8</ele>
        <time>2025-03-02T08:54:50Z</time>
      </trkpt>
      <trkpt lat="45.72858" lon="4.67417">
        <ele>339</ele>
        <time>2025-03-02T08:54:51Z</time>
      </trkpt>
      <trkpt lat="45.72861" lon="4.67414">
        <ele>339.2</ele>
        <time>2025-03-02T08:54:52Z</time>
      </trkpt>
      <trkpt lat="45.72863" lon="4.67411">
        <ele>339.4</ele>
        <time>2025-03-02T08:54:53Z</time>
      </trkpt>
      <trkpt lat="45.72866" lon="4.67407">
        <ele>339.4</ele>
        <time>2025-03-02T08:54:54Z</time>
      </trkpt>
      <trkpt lat="45.72868" lon="4.67403">
        <ele>339.6</ele>
        <time>2025-03-02T08:54:55Z</time>
      </trkpt>
      <trkpt lat="45.7287" lon="4.674">
        <ele>339.6</ele>
        <time>2025-03-02T08:54:56Z</time>
      </trkpt>
      <trkpt lat="45.72873" lon="4.67396">
        <ele>339.8</ele>
        <time>2025-03-02T08:54:57Z</time>
      </trkpt>
      <trkpt lat="45.72875" lon="4.67393">
        <ele>339.8</ele>
        <time>2025-03-02T08:54:58Z</time>
      </trkpt>
      <trkpt lat="45.72878" lon="4.67388">
        <ele>339.8</ele>
        <time>2025-03-02T08:54:59Z</time>
      </trkpt>
      <trkpt lat="45.7288" lon="4.67384">
        <ele>340</ele>
        <time>2025-03-02T08:55:00Z</time>
      </trkpt>
      <trkpt lat="45.72882" lon="4.6738">
        <ele>340.2</ele>
        <time>2025-03-02T08:55:01Z</time>
      </trkpt>
      <trkpt lat="45.72884" lon="4.67376">
        <ele>340.2</ele>
        <time>2025-03-02T08:55:02Z</time>
      </trkpt>
      <trkpt lat="45.72886" lon="4.67372">
        <ele>340.4</ele>
        <time>2025-03-02T08:55:03Z</time>
      </trkpt>
      <trkpt lat="45.72889" lon="4.67368">
        <ele>340.4</ele>
        <time>2025-03-02T08:55:04Z</time>
      </trkpt>
      <trkpt lat="45.72891" lon="4.67364">
        <ele>340.6</ele>
        <time>2025-03-02T08:55:05Z</time>
      </trkpt>
      <trkpt lat="45.72893" lon="4.6736">
        <ele>340.8</ele>
        <time>2025-03-02T08:55:06Z</time>
      </trkpt>
      <trkpt lat="45.72894" lon="4.67356">
        <ele>340.8</ele>
        <time>2025-03-02T08:55:07Z</time>
      </trkpt>
      <trkpt lat="45.72896" lon="4.67352">
        <ele>341</ele>
        <time>2025-03-02T08:55:08Z</time>
      </trkpt>
      <trkpt lat="45.72899" lon="4.67347">
        <ele>341</ele>
        <time>2025-03-02T08:55:09Z</time>
      </trkpt>
      <trkpt lat="45.72901" lon="4.67343">
        <ele>341</ele>
        <time>2025-03-02T08:55:10Z</time>
      </trkpt>
      <trkpt lat="45.72903" lon="4.67339">
        <ele>341.2</ele>
        <time>2025-03-02T08:55:11Z</time>
      </trkpt>
      <trkpt lat="45.72905" lon="4.67334">
        <ele>341.4</ele>
        <time>2025-03-02T08:55:12Z</time>
      </trkpt>
      <trkpt lat="45.72907" lon="4.6733">
        <ele>341.4</ele>
        <time>2025-03-02T08:55:13Z</time>
      </trkpt>
      <trkpt lat="45.72909" lon="4.67326">
        <ele>341.4</ele>
        <time>2025-03-02T08:55:14Z</time>
      </trkpt>
      <trkpt lat="45.72911" lon="4.67322">
        <ele>341.6</ele>
        <time>2025-03-02T08:55:15Z</time>
      </trkpt>
      <trkpt lat="45.72913" lon="4.67318">
        <ele>341.8</ele>
        <time>2025-03-02T08:55:16Z</time>
      </trkpt>
      <trkpt lat="45.72915" lon="4.67313">
        <ele>342</ele>
        <time>2025-03-02T08:55:17Z</time>
      </trkpt>
      <trkpt lat="45.72917" lon="4.67309">
        <ele>342.2</ele>
        <time>2025-03-02T08:55:18Z</time>
      </trkpt>
      <trkpt lat="45.72918" lon="4.67305">
        <ele>342.2</ele>
        <time>2025-03-02T08:55:19Z</time>
      </trkpt>
      <trkpt lat="45.7292" lon="4.673">
        <ele>342.2</ele>
        <time>2025-03-02T08:55:20Z</time>
      </trkpt>
      <trkpt lat="45.72922" lon="4.67295">
        <ele>342.4</ele>
        <time>2025-03-02T08:55:21Z</time>
      </trkpt>
      <trkpt lat="45.72923" lon="4.6729">
        <ele>342.6</ele>
        <time>2025-03-02T08:55:22Z</time>
      </trkpt>
      <trkpt lat="45.72925" lon="4.67285">
        <ele>342.8</ele>
        <time>2025-03-02T08:55:23Z</time>
      </trkpt>
      <trkpt lat="45.72927" lon="4.67281">
        <ele>343</ele>
        <time>2025-03-02T08:55:24Z</time>
      </trkpt>
      <trkpt lat="45.72929" lon="4.67276">
        <ele>343.4</ele>
        <time>2025-03-02T08:55:25Z</time>
      </trkpt>
      <trkpt lat="45.72931" lon="4.67272">
        <ele>343.6</ele>
        <time>2025-03-02T08:55:26Z</time>
      </trkpt>
      <trkpt lat="45.72932" lon="4.67267">
        <ele>343.6</ele>
        <time>2025-03-02T08:55:27Z</time>
      </trkpt>
      <trkpt lat="45.72934" lon="4.67262">
        <ele>344</ele>
        <time>2025-03-02T08:55:28Z</time>
      </trkpt>
      <trkpt lat="45.72935" lon="4.67257">
        <ele>344</ele>
        <time>2025-03-02T08:55:29Z</time>
      </trkpt>
      <trkpt lat="45.72937" lon="4.67253">
        <ele>344.2</ele>
        <time>2025-03-02T08:55:30Z</time>
      </trkpt>
      <trkpt lat="45.72938" lon="4.67248">
        <ele>344.4</ele>
        <time>2025-03-02T08:55:31Z</time>
      </trkpt>
      <trkpt lat="45.7294" lon="4.67243">
        <ele>344.4</ele>
        <time>2025-03-02T08:55:32Z</time>
      </trkpt>
      <trkpt lat="45.72942" lon="4.67239">
        <ele>344.6</ele>
        <time>2025-03-02T08:55:33Z</time>
      </trkpt>
      <trkpt lat="45.72944" lon="4.67235">
        <ele>344.8</ele>
        <time>2025-03-02T08:55:34Z</time>
      </trkpt>
      <trkpt lat="45.72946" lon="4.6723">
        <ele>345</ele>
        <time>2025-03-02T08:55:35Z</time>
      </trkpt>
      <trkpt lat="45.72947" lon="4.67226">
        <ele>345.2</ele>
        <time>2025-03-02T08:55:36Z</time>
      </trkpt>
      <trkpt lat="45.72949" lon="4.67222">
        <ele>345.6</ele>
        <time>2025-03-02T08:55:37Z</time>
      </trkpt>
      <trkpt lat="45.7295" lon="4.67217">
        <ele>345.8</ele>
        <time>2025-03-02T08:55:38Z</time>
      </trkpt>
      <trkpt lat="45.72951" lon="4.67213">
        <ele>346</ele>
        <time>2025-03-02T08:55:39Z</time>
      </trkpt>
      <trkpt lat="45.72953" lon="4.67209">
        <ele>346.2</ele>
        <time>2025-03-02T08:55:40Z</time>
      </trkpt>
      <trkpt lat="45.72955" lon="4.67204">
        <ele>346.4</ele>
        <time>2025-03-02T08:55:41Z</time>
      </trkpt>
      <trkpt lat="45.72956" lon="4.672">
        <ele>346.6</ele>
        <time>2025-03-02T08:55:42Z</time>
      </trkpt>
      <trkpt lat="45.72958" lon="4.67195">
        <ele>346.8</ele>
        <time>2025-03-02T08:55:43Z</time>
      </trkpt>
      <trkpt lat="45.7296" lon="4.6719">
        <ele>346.8</ele>
        <time>2025-03-02T08:55:44Z</time>
      </trkpt>
      <trkpt lat="45.72961" lon="4.67185">
        <ele>346.8</ele>
        <time>2025-03-02T08:55:45Z</time>
      </trkpt>
      <trkpt lat="45.72963" lon="4.67181">
        <ele>347.2</ele>
        <time>2025-03-02T08:55:46Z</time>
      </trkpt>
      <trkpt lat="45.72965" lon="4.67176">
        <ele>347.2</ele>
        <time>2025-03-02T08:55:47Z</time>
      </trkpt>
      <trkpt lat="45.72967" lon="4.67172">
        <ele>347.4</ele>
        <time>2025-03-02T08:55:48Z</time>
      </trkpt>
      <trkpt lat="45.72969" lon="4.67167">
        <ele>347.6</ele>
        <time>2025-03-02T08:55:49Z</time>
      </trkpt>
      <trkpt lat="45.72972" lon="4.67163">
        <ele>347.6</ele>
        <time>2025-03-02T08:55:50Z</time>
      </trkpt>
      <trkpt lat="45.72974" lon="4.67159">
        <ele>347.8</ele>
        <time>2025-03-02T08:55:51Z</time>
      </trkpt>
      <trkpt lat="45.72975" lon="4.67154">
        <ele>347.8</ele>
        <time>2025-03-02T08:55:52Z</time>
      </trkpt>
      <trkpt lat="45.72978" lon="4.6715">
        <ele>348</ele>
        <time>2025-03-02T08:55:53Z</time>
      </trkpt>
      <trkpt lat="45.7298" lon="4.67145">
        <ele>348.2</ele>
        <time>2025-03-02T08:55:54Z</time>
      </trkpt>
      <trkpt lat="45.72982" lon="4.67141">
        <ele>348.4</ele>
        <time>2025-03-02T08:55:55Z</time>
      </trkpt>
      <trkpt lat="45.72984" lon="4.67137">
        <ele>348.6</ele>
        <time>2025-03-02T08:55:56Z</time>
      </trkpt>
      <trkpt lat="45.72987" lon="4.67132">
        <ele>348.8</ele>
        <time>2025-03-02T08:55:57Z</time>
      </trkpt>
      <trkpt lat="45.72989" lon="4.67128">
        <ele>348.8</ele>
        <time>2025-03-02T08:55:58Z</time>
      </trkpt>
      <trkpt lat="45.72991" lon="4.67124">
        <ele>349</ele>
        <time>2025-03-02T08:55:59Z</time>
      </trkpt>
      <trkpt lat="45.72994" lon="4.67119">
        <ele>349.2</ele>
        <time>2025-03-02T08:56:00Z</time>
      </trkpt>
      <trkpt lat="45.72996" lon="4.67115">
        <ele>349.2</ele>
        <time>2025-03-02T08:56:01Z</time>
      </trkpt>
      <trkpt lat="45.72999" lon="4.67111">
        <ele>349.4</ele>
        <time>2025-03-02T08:56:02Z</time>
      </trkpt>
      <trkpt lat="45.73002" lon="4.67108">
        <ele>349.6</ele>
        <time>2025-03-02T08:56:03Z</time>
      </trkpt>
      <trkpt lat="45.73004" lon="4.67104">
        <ele>349.8</ele>
        <time>2025-03-02T08:56:04Z</time>
      </trkpt>
      <trkpt lat="45.73007" lon="4.67101">
        <ele>350</ele>
        <time>2025-03-02T08:56:05Z</time>
      </trkpt>
      <trkpt lat="45.73009" lon="4.67098">
        <ele>350.2</ele>
        <time>2025-03-02T08:56:06Z</time>
      </trkpt>
      <trkpt lat="45.73011" lon="4.67095">
        <ele>350.4</ele>
        <time>2025-03-02T08:56:07Z</time>
      </trkpt>
      <trkpt lat="45.73013" lon="4.67092">
        <ele>350.6</ele>
        <time>2025-03-02T08:56:08Z</time>
      </trkpt>
      <trkpt lat="45.73016" lon="4.6709">
        <ele>351</ele>
        <time>2025-03-02T08:56:09Z</time>
      </trkpt>
      <trkpt lat="45.73019" lon="4.67087">
        <ele>351.2</ele>
        <time>2025-03-02T08:56:10Z</time>
      </trkpt>
      <trkpt lat="45.73021" lon="4.67084">
        <ele>351.4</ele>
        <time>2025-03-02T08:56:11Z</time>
      </trkpt>
      <trkpt lat="45.73024" lon="4.67081">
        <ele>351.6</ele>
        <time>2025-03-02T08:56:12Z</time>
      </trkpt>
      <trkpt lat="45.73026" lon="4.67079">
        <ele>351.6</ele>
        <time>2025-03-02T08:56:13Z</time>
      </trkpt>
      <trkpt lat="45.73029" lon="4.67076">
        <ele>351.8</ele>
        <time>2025-03-02T08:56:14Z</time>
      </trkpt>
      <trkpt lat="45.73032" lon="4.67074">
        <ele>352.2</ele>
        <time>2025-03-02T08:56:15Z</time>
      </trkpt>
      <trkpt lat="45.73034" lon="4.67071">
        <ele>352.4</ele>
        <time>2025-03-02T08:56:16Z</time>
      </trkpt>
      <trkpt lat="45.73037" lon="4.67069">
        <ele>352.4</ele>
        <time>2025-03-02T08:56:17Z</time>
      </trkpt>
      <trkpt lat="45.73039" lon="4.67067">
        <ele>352.8</ele>
        <time>2025-03-02T08:56:18Z</time>
      </trkpt>
      <trkpt lat="45.73041" lon="4.67064">
        <ele>352.8</ele>
        <time>2025-03-02T08:56:19Z</time>
      </trkpt>
      <trkpt lat="45.73044" lon="4.67062">
        <ele>353.2</ele>
        <time>2025-03-02T08:56:20Z</time>
      </trkpt>
      <trkpt lat="45.73047" lon="4.67059">
        <ele>353.4</ele>
        <time>2025-03-02T08:56:21Z</time>
      </trkpt>
      <trkpt lat="45.73049" lon="4.67057">
        <ele>353.8</ele>
        <time>2025-03-02T08:56:22Z</time>
      </trkpt>
      <trkpt lat="45.73052" lon="4.67055">
        <ele>354.2</ele>
        <time>2025-03-02T08:56:23Z</time>
      </trkpt>
      <trkpt lat="45.73055" lon="4.67052">
        <ele>354.2</ele>
        <time>2025-03-02T08:56:24Z</time>
      </trkpt>
      <trkpt lat="45.73057" lon="4.6705">
        <ele>354.4</ele>
        <time>2025-03-02T08:56:25Z</time>
      </trkpt>
      <trkpt lat="45.7306" lon="4.67047">
        <ele>354.6</ele>
        <time>2025-03-02T08:56:26Z</time>
      </trkpt>
      <trkpt lat="45.73062" lon="4.67045">
        <ele>355</ele>
        <time>2025-03-02T08:56:27Z</time>
      </trkpt>
      <trkpt lat="45.73065" lon="4.67042">
        <ele>355.4</ele>
        <time>2025-03-02T08:56:28Z</time>
      </trkpt>
      <trkpt lat="45.73067" lon="4.6704">
        <ele>355.6</ele>
        <time>2025-03-02T08:56:29Z</time>
      </trkpt>
      <trkpt lat="45.7307" lon="4.67037">
        <ele>355.8</ele>
        <time>2025-03-02T08:56:30Z</time>
      </trkpt>
      <trkpt lat="45.73072" lon="4.67035">
        <ele>356.2</ele>
        <time>2025-03-02T08:56:31Z</time>
      </trkpt>
      <trkpt lat="45.73075" lon="4.67033">
        <ele>356.4</ele>
        <time>2025-03-02T08:56:32Z</time>
      </trkpt>
      <trkpt lat="45.73077" lon="4.6703">
        <ele>356.8</ele>
        <time>2025-03-02T08:56:33Z</time>
      </trkpt>
      <trkpt lat="45.7308" lon="4.67028">
        <ele>357</ele>
        <time>2025-03-02T08:56:34Z</time>
      </trkpt>
      <trkpt lat="45.73082" lon="4.67026">
        <ele>357.4</ele>
        <time>2025-03-02T08:56:35Z</time>
      </trkpt>
      <trkpt lat="45.73084" lon="4.67024">
        <ele>357.6</ele>
        <time>2025-03-02T08:56:36Z</time>
      </trkpt>
      <trkpt lat="45.73087" lon="4.67021">
        <ele>358</ele>
        <time>2025-03-02T08:56:37Z</time>
      </trkpt>
      <trkpt lat="45.7309" lon="4.67019">
        <ele>358.2</ele>
        <time>2025-03-02T08:56:38Z</time>
      </trkpt>
      <trkpt lat="45.73092" lon="4.67016">
        <ele>358.4</ele>
        <time>2025-03-02T08:56:39Z</time>
      </trkpt>
      <trkpt lat="45.73095" lon="4.67014">
        <ele>358.8</ele>
        <time>2025-03-02T08:56:40Z</time>
      </trkpt>
      <trkpt lat="45.73098" lon="4.67012">
        <ele>358.8</ele>
        <time>2025-03-02T08:56:41Z</time>
      </trkpt>
      <trkpt lat="45.73101" lon="4.6701">
        <ele>359.2</ele>
        <time>2025-03-02T08:56:42Z</time>
      </trkpt>
      <trkpt lat="45.73103" lon="4.67008">
        <ele>359.4</ele>
        <time>2025-03-02T08:56:43Z</time>
      </trkpt>
      <trkpt lat="45.73106" lon="4.67006">
        <ele>359.8</ele>
        <time>2025-03-02T08:56:44Z</time>
      </trkpt>
      <trkpt lat="45.73109" lon="4.67004">
        <ele>360</ele>
        <time>2025-03-02T08:56:45Z</time>
      </trkpt>
      <trkpt lat="45.73112" lon="4.67001">
        <ele>360.2</ele>
        <time>2025-03-02T08:56:46Z</time>
      </trkpt>
      <trkpt lat="45.73114" lon="4.66999">
        <ele>360.6</ele>
        <time>2025-03-02T08:56:47Z</time>
      </trkpt>
      <trkpt lat="45.73117" lon="4.66997">
        <ele>360.8</ele>
        <time>2025-03-02T08:56:48Z</time>
      </trkpt>
      <trkpt lat="45.73119" lon="4.66995">
        <ele>361.2</ele>
        <time>2025-03-02T08:56:49Z</time>
      </trkpt>
      <trkpt lat="45.73122" lon="4.66992">
        <ele>361.4</ele>
        <time>2025-03-02T08:56:50Z</time>
      </trkpt>
      <trkpt lat="45.73125" lon="4.6699">
        <ele>361.6</ele>
        <time>2025-03-02T08:56:51Z</time>
      </trkpt>
      <trkpt lat="45.73127" lon="4.66988">
        <ele>362</ele>
        <time>2025-03-02T08:56:52Z</time>
      </trkpt>
      <trkpt lat="45.7313" lon="4.66985">
        <ele>362.2</ele>
        <time>2025-03-02T08:56:53Z</time>
      </trkpt>
      <trkpt lat="45.73133" lon="4.66983">
        <ele>362.4</ele>
        <time>2025-03-02T08:56:54Z</time>
      </trkpt>
      <trkpt lat="45.73136" lon="4.66981">
        <ele>362.6</ele>
        <time>2025-03-02T08:56:55Z</time>
      </trkpt>
      <trkpt lat="45.73138" lon="4.66979">
        <ele>363</ele>
        <time>2025-03-02T08:56:56Z</time>
      </trkpt>
      <trkpt lat="45.73141" lon="4.66976">
        <ele>363.2</ele>
        <time>2025-03-02T08:56:57Z</time>
      </trkpt>
      <trkpt lat="45.73144" lon="4.66974">
        <ele>363.4</ele>
        <time>2025-03-02T08:56:58Z</time>
      </trkpt>
      <trkpt lat="45.73147" lon="4.66972">
        <ele>363.6</ele>
        <time>2025-03-02T08:56:59Z</time>
      </trkpt>
      <trkpt lat="45.7315" lon="4.6697">
        <ele>363.8</ele>
        <time>2025-03-02T08:57:00Z</time>
      </trkpt>
      <trkpt lat="45.73153" lon="4.66968">
        <ele>364</ele>
        <time>2025-03-02T08:57:01Z</time>
      </trkpt>
      <trkpt lat="45.73156" lon="4.66966">
        <ele>364.2</ele>
        <time>2025-03-02T08:57:02Z</time>
      </trkpt>
      <trkpt lat="45.73159" lon="4.66963">
        <ele>364.2</ele>
        <time>2025-03-02T08:57:03Z</time>
      </trkpt>
      <trkpt lat="45.73162" lon="4.66961">
        <ele>364.4</ele>
        <time>2025-03-02T08:57:04Z</time>
      </trkpt>
      <trkpt lat="45.73165" lon="4.66959">
        <ele>364.6</ele>
        <time>2025-03-02T08:57:05Z</time>
      </trkpt>
      <trkpt lat="45.73168" lon="4.66957">
        <ele>364.8</ele>
        <time>2025-03-02T08:57:06Z</time>
      </trkpt>
      <trkpt lat="45.73172" lon="4.66955">
        <ele>365</ele>
        <time>2025-03-02T08:57:07Z</time>
      </trkpt>
      <trkpt lat="45.73175" lon="4.66953">
        <ele>365</ele>
        <time>2025-03-02T08:57:08Z</time>
      </trkpt>
      <trkpt lat="45.73177" lon="4.66951">
        <ele>365.2</ele>
        <time>2025-03-02T08:57:09Z</time>
      </trkpt>
      <trkpt lat="45.7318" lon="4.66949">
        <ele>365.2</ele>
        <time>2025-03-02T08:57:10Z</time>
      </trkpt>
      <trkpt lat="45.73182" lon="4.66947">
        <ele>365.4</ele>
        <time>2025-03-02T08:57:11Z</time>
      </trkpt>
      <trkpt lat="45.73185" lon="4.66946">
        <ele>365.6</ele>
        <time>2025-03-02T08:57:12Z</time>
      </trkpt>
      <trkpt lat="45.73187" lon="4.66946">
        <ele>365.6</ele>
        <time>2025-03-02T08:57:13Z</time>
      </trkpt>
      <trkpt lat="45.7319" lon="4.66945">
        <ele>365.6</ele>
        <time>2025-03-02T08:57:14Z</time>
      </trkpt>
      <trkpt lat="45.73192" lon="4.66945">
        <ele>365.8</ele>
        <time>2025-03-02T08:57:15Z</time>
      </trkpt>
      <trkpt lat="45.73194" lon="4.66943">
        <ele>365.8</ele>
        <time>2025-03-02T08:57:16Z</time>
      </trkpt>
      <trkpt lat="45.73197" lon="4.6694">
        <ele>365.8</ele>
        <time>2025-03-02T08:57:17Z</time>
      </trkpt>
      <trkpt lat="45.73199" lon="4.66937">
        <ele>366</ele>
        <time>2025-03-02T08:57:18Z</time>
      </trkpt>
      <trkpt lat="45.73202" lon="4.66934">
        <ele>366</ele>
        <time>2025-03-02T08:57:19Z</time>
      </trkpt>
      <trkpt lat="45.73205" lon="4.66931">
        <ele>366.2</ele>
        <time>2025-03-02T08:57:20Z</time>
      </trkpt>
      <trkpt lat="45.73208" lon="4.66928">
        <ele>366.2</ele>
        <time>2025-03-02T08:57:21Z</time>
      </trkpt>
      <trkpt lat="45.7321" lon="4.66925">
        <ele>366.6</ele>
        <time>2025-03-02T08:57:22Z</time>
      </trkpt>
      <trkpt lat="45.73213" lon="4.66922">
        <ele>366.8</ele>
        <time>2025-03-02T08:57:23Z</time>
      </trkpt>
      <trkpt lat="45.73215" lon="4.66919">
        <ele>367</ele>
        <time>2025-03-02T08:57:24Z</time>
      </trkpt>
      <trkpt lat="45.73218" lon="4.66916">
        <ele>367.4</ele>
        <time>2025-03-02T08:57:25Z</time>
      </trkpt>
      <trkpt lat="45.7322" lon="4.66913">
        <ele>367.6</ele>
        <time>2025-03-02T08:57:26Z</time>
      </trkpt>
      <trkpt lat="45.73222" lon="4.6691">
        <ele>367.8</ele>
        <time>2025-03-02T08:57:27Z</time>
      </trkpt>
      <trkpt lat="45.73225" lon="4.66907">
        <ele>368.2</ele>
        <time>2025-03-02T08:57:28Z</time>
      </trkpt>
      <trkpt lat="45.73227" lon="4.66904">
        <ele>368.4</ele>
        <time>2025-03-02T08:57:29Z</time>
      </trkpt>
      <trkpt lat="45.73229" lon="4.66901">
        <ele>368.8</ele>
        <time>2025-03-02T08:57:30Z</time>
      </trkpt>
      <trkpt lat="45.73232" lon="4.66898">
        <ele>369</ele>
        <time>2025-03-02T08:57:31Z</time>
      </trkpt>
      <trkpt lat="45.73234" lon="4.66895">
        <ele>369.4</ele>
        <time>2025-03-02T08:57:32Z</time>
      </trkpt>
      <trkpt lat="45.73236" lon="4.66892">
        <ele>369.6</ele>
        <time>2025-03-02T08:57:33Z</time>
      </trkpt>
      <trkpt lat="45.73238" lon="4.66889">
        <ele>369.8</ele>
        <time>2025-03-02T08:57:34Z</time>
      </trkpt>
      <trkpt lat="45.7324" lon="4.66886">
        <ele>370.4</ele>
        <time>2025-03-02T08:57:35Z</time>
      </trkpt>
      <trkpt lat="45.73242" lon="4.66883">
        <ele>370.6</ele>
        <time>2025-03-02T08:57:36Z</time>
      </trkpt>
      <trkpt lat="45.73245" lon="4.66881">
        <ele>370.6</ele>
        <time>2025-03-02T08:57:37Z</time>
      </trkpt>
      <trkpt lat="45.73248" lon="4.66878">
        <ele>371</ele>
        <time>2025-03-02T08:57:38Z</time>
      </trkpt>
      <trkpt lat="45.7325" lon="4.66875">
        <ele>371.2</ele>
        <time>2025-03-02T08:57:39Z</time>
      </trkpt>
      <trkpt lat="45.73253" lon="4.66873">
        <ele>371.4</ele>
        <time>2025-03-02T08:57:40Z</time>
      </trkpt>
      <trkpt lat="45.73255" lon="4.66869">
        <ele>371.6</ele>
        <time>2025-03-02T08:57:41Z</time>
      </trkpt>
      <trkpt lat="45.73258" lon="4.66866">
        <ele>372</ele>
        <time>2025-03-02T08:57:42Z</time>
      </trkpt>
      <trkpt lat="45.73261" lon="4.66863">
        <ele>372.2</ele>
        <time>2025-03-02T08:57:43Z</time>
      </trkpt>
      <trkpt lat="45.73263" lon="4.6686">
        <ele>372.4</ele>
        <time>2025-03-02T08:57:44Z</time>
      </trkpt>
      <trkpt lat="45.73266" lon="4.66857">
        <ele>372.6</ele>
        <time>2025-03-02T08:57:45Z</time>
      </trkpt>
      <trkpt lat="45.73269" lon="4.66854">
        <ele>372.8</ele>
        <time>2025-03-02T08:57:46Z</time>
      </trkpt>
      <trkpt lat="45.73271" lon="4.66851">
        <ele>373.2</ele>
        <time>2025-03-02T08:57:47Z</time>
      </trkpt>
      <trkpt lat="45.73274" lon="4.66848">
        <ele>373.4</ele>
        <time>2025-03-02T08:57:48Z</time>
      </trkpt>
      <trkpt lat="45.73276" lon="4.66845">
        <ele>373.8</ele>
        <time>2025-03-02T08:57:49Z</time>
      </trkpt>
      <trkpt lat="45.73279" lon="4.66843">
        <ele>374</ele>
        <time>2025-03-02T08:57:50Z</time>
      </trkpt>
      <trkpt lat="45.73282" lon="4.6684">
        <ele>374.2</ele>
        <time>2025-03-02T08:57:51Z</time>
      </trkpt>
      <trkpt lat="45.73285" lon="4.66837">
        <ele>374.4</ele>
        <time>2025-03-02T08:57:52Z</time>
      </trkpt>
      <trkpt lat="45.73287" lon="4.66834">
        <ele>374.6</ele>
        <time>2025-03-02T08:57:53Z</time>
      </trkpt>
      <trkpt lat="45.7329" lon="4.66832">
        <ele>375</ele>
        <time>2025-03-02T08:57:54Z</time>
      </trkpt>
      <trkpt lat="45.73293" lon="4.66829">
        <ele>375.4</ele>
        <time>2025-03-02T08:57:55Z</time>
      </trkpt>
      <trkpt lat="45.73296" lon="4.66826">
        <ele>375.6</ele>
        <time>2025-03-02T08:57:56Z</time>
      </trkpt>
      <trkpt lat="45.73298" lon="4.66823">
        <ele>375.8</ele>
        <time>2025-03-02T08:57:57Z</time>
      </trkpt>
      <trkpt lat="45.733" lon="4.6682">
        <ele>376.2</ele>
        <time>2025-03-02T08:57:58Z</time>
      </trkpt>
      <trkpt lat="45.73302" lon="4.66817">
        <ele>376.6</ele>
        <time>2025-03-02T08:57:59Z</time>
      </trkpt>
      <trkpt lat="45.73305" lon="4.66814">
        <ele>377</ele>
        <time>2025-03-02T08:58:00Z</time>
      </trkpt>
      <trkpt lat="45.73307" lon="4.66811">
        <ele>377.2</ele>
        <time>2025-03-02T08:58:01Z</time>
      </trkpt>
      <trkpt lat="45.73309" lon="4.66808">
        <ele>377.6</ele>
        <time>2025-03-02T08:58:02Z</time>
      </trkpt>
      <trkpt lat="45.73311" lon="4.66805">
        <ele>378</ele>
        <time>2025-03-02T08:58:03Z</time>
      </trkpt>
      <trkpt lat="45.73314" lon="4.66803">
        <ele>378.2</ele>
        <time>2025-03-02T08:58:04Z</time>
      </trkpt>
      <trkpt lat="45.73316" lon="4.668">
        <ele>378.6</ele>
        <time>2025-03-02T08:58:05Z</time>
      </trkpt>
      <trkpt lat="45.73318" lon="4.66797">
        <ele>378.8</ele>
        <time>2025-03-02T08:58:06Z</time>
      </trkpt>
      <trkpt lat="45.7332" lon="4.66794">
        <ele>379</ele>
        <time>2025-03-02T08:58:07Z</time>
      </trkpt>
      <trkpt lat="45.73322" lon="4.66792">
        <ele>379.4</ele>
        <time>2025-03-02T08:58:08Z</time>
      </trkpt>
      <trkpt lat="45.73324" lon="4.66789">
        <ele>379.8</ele>
        <time>2025-03-02T08:58:09Z</time>
      </trkpt>
      <trkpt lat="45.73325" lon="4.66787">
        <ele>380.4</ele>
        <time>2025-03-02T08:58:10Z</time>
      </trkpt>
      <trkpt lat="45.73327" lon="4.66784">
        <ele>380.6</ele>
        <time>2025-03-02T08:58:11Z</time>
      </trkpt>
      <trkpt lat="45.73328" lon="4.66781">
        <ele>381</ele>
        <time>2025-03-02T08:58:12Z</time>
      </trkpt>
      <trkpt lat="45.73329" lon="4.66779">
        <ele>381.4</ele>
        <time>2025-03-02T08:58:13Z</time>
      </trkpt>
      <trkpt lat="45.73331" lon="4.66775">
        <ele>381.8</ele>
        <time>2025-03-02T08:58:14Z</time>
      </trkpt>
      <trkpt lat="45.73332" lon="4.66772">
        <ele>382</ele>
        <time>2025-03-02T08:58:15Z</time>
      </trkpt>
      <trkpt lat="45.73334" lon="4.66769">
        <ele>382.4</ele>
        <time>2025-03-02T08:58:16Z</time>
      </trkpt>
      <trkpt lat="45.73336" lon="4.66765">
        <ele>382.6</ele>
        <time>2025-03-02T08:58:17Z</time>
      </trkpt>
      <trkpt lat="45.73338" lon="4.66762">
        <ele>382.8</ele>
        <time>2025-03-02T08:58:18Z</time>
      </trkpt>
      <trkpt lat="45.7334" lon="4.66759">
        <ele>383</ele>
        <time>2025-03-02T08:58:19Z</time>
      </trkpt>
      <trkpt lat="45.73342" lon="4.66756">
        <ele>383.2</ele>
        <time>2025-03-02T08:58:20Z</time>
      </trkpt>
      <trkpt lat="45.73344" lon="4.66753">
        <ele>383.6</ele>
        <time>2025-03-02T08:58:21Z</time>
      </trkpt>
      <trkpt lat="45.73346" lon="4.6675">
        <ele>383.8</ele>
        <time>2025-03-02T08:58:22Z</time>
      </trkpt>
      <trkpt lat="45.73347" lon="4.66748">
        <ele>384.4</ele>
        <time>2025-03-02T08:58:23Z</time>
      </trkpt>
      <trkpt lat="45.73349" lon="4.66746">
        <ele>384.8</ele>
        <time>2025-03-02T08:58:24Z</time>
      </trkpt>
      <trkpt lat="45.73351" lon="4.66744">
        <ele>385</ele>
        <time>2025-03-02T08:58:25Z</time>
      </trkpt>
      <trkpt lat="45.73353" lon="4.66743">
        <ele>385.4</ele>
        <time>2025-03-02T08:58:26Z</time>
      </trkpt>
      <trkpt lat="45.73356" lon="4.6674">
        <ele>385.6</ele>
        <time>2025-03-02T08:58:27Z</time>
      </trkpt>
      <trkpt lat="45.73358" lon="4.66738">
        <ele>386</ele>
        <time>2025-03-02T08:58:28Z</time>
      </trkpt>
      <trkpt lat="45.73361" lon="4.66737">
        <ele>386.2</ele>
        <time>2025-03-02T08:58:29Z</time>
      </trkpt>
      <trkpt lat="45.73363" lon="4.66735">
        <ele>386.6</ele>
        <time>2025-03-02T08:58:30Z</time>
      </trkpt>
      <trkpt lat="45.73365" lon="4.66733">
        <ele>387</ele>
        <time>2025-03-02T08:58:31Z</time>
      </trkpt>
      <trkpt lat="45.73367" lon="4.66732">
        <ele>387.2</ele>
        <time>2025-03-02T08:58:32Z</time>
      </trkpt>
      <trkpt lat="45.7337" lon="4.6673">
        <ele>387.8</ele>
        <time>2025-03-02T08:58:33Z</time>
      </trkpt>
      <trkpt lat="45.73372" lon="4.66728">
        <ele>388</ele>
        <time>2025-03-02T08:58:34Z</time>
      </trkpt>
      <trkpt lat="45.73374" lon="4.66726">
        <ele>388.4</ele>
        <time>2025-03-02T08:58:35Z</time>
      </trkpt>
      <trkpt lat="45.73377" lon="4.66724">
        <ele>388.6</ele>
        <time>2025-03-02T08:58:36Z</time>
      </trkpt>
      <trkpt lat="45.73379" lon="4.66722">
        <ele>389</ele>
        <time>2025-03-02T08:58:37Z</time>
      </trkpt>
      <trkpt lat="45.73382" lon="4.6672">
        <ele>389.4</ele>
        <time>2025-03-02T08:58:38Z</time>
      </trkpt>
      <trkpt lat="45.73384" lon="4.66718">
        <ele>389.6</ele>
        <time>2025-03-02T08:58:39Z</time>
      </trkpt>
      <trkpt lat="45.73387" lon="4.66716">
        <ele>389.8</ele>
        <time>2025-03-02T08:58:40Z</time>
      </trkpt>
      <trkpt lat="45.73389" lon="4.66713">
        <ele>390.2</ele>
        <time>2025-03-02T08:58:41Z</time>
      </trkpt>
      <trkpt lat="45.73391" lon="4.66711">
        <ele>390.4</ele>
        <time>2025-03-02T08:58:42Z</time>
      </trkpt>
      <trkpt lat="45.73394" lon="4.66709">
        <ele>390.8</ele>
        <time>2025-03-02T08:58:43Z</time>
      </trkpt>
      <trkpt lat="45.73396" lon="4.66707">
        <ele>391</ele>
        <time>2025-03-02T08:58:44Z</time>
      </trkpt>
      <trkpt lat="45.73398" lon="4.66705">
        <ele>391.4</ele>
        <time>2025-03-02T08:58:45Z</time>
      </trkpt>
      <trkpt lat="45.73401" lon="4.66703">
        <ele>391.6</ele>
        <time>2025-03-02T08:58:46Z</time>
      </trkpt>
      <trkpt lat="45.73403" lon="4.66701">
        <ele>391.8</ele>
        <time>2025-03-02T08:58:47Z</time>
      </trkpt>
      <trkpt lat="45.73405" lon="4.66699">
        <ele>392</ele>
        <time>2025-03-02T08:58:48Z</time>
      </trkpt>
      <trkpt lat="45.73407" lon="4.66698">
        <ele>392.4</ele>
        <time>2025-03-02T08:58:49Z</time>
      </trkpt>
      <trkpt lat="45.73409" lon="4.66696">
        <ele>392.6</ele>
        <time>2025-03-02T08:58:50Z</time>
      </trkpt>
      <trkpt lat="45.73411" lon="4.66695">
        <ele>393</ele>
        <time>2025-03-02T08:58:51Z</time>
      </trkpt>
      <trkpt lat="45.73412" lon="4.66693">
        <ele>393.2</ele>
        <time>2025-03-02T08:58:52Z</time>
      </trkpt>
      <trkpt lat="45.73414" lon="4.66691">
        <ele>393.6</ele>
        <time>2025-03-02T08:58:53Z</time>
      </trkpt>
      <trkpt lat="45.73415" lon="4.66689">
        <ele>393.8</ele>
        <time>2025-03-02T08:58:54Z</time>
      </trkpt>
      <trkpt lat="45.73416" lon="4.66688">
        <ele>394.2</ele>
        <time>2025-03-02T08:58:55Z</time>
      </trkpt>
      <trkpt lat="45.73418" lon="4.66686">
        <ele>394.4</ele>
        <time>2025-03-02T08:58:56Z</time>
      </trkpt>
      <trkpt lat="45.73419" lon="4.66685">
        <ele>395</ele>
        <time>2025-03-02T08:58:57Z</time>
      </trkpt>
      <trkpt lat="45.73421" lon="4.66683">
        <ele>395.2</ele>
        <time>2025-03-02T08:58:58Z</time>
      </trkpt>
      <trkpt lat="45.73423" lon="4.66682">
        <ele>395.4</ele>
        <time>2025-03-02T08:58:59Z</time>
      </trkpt>
      <trkpt lat="45.73424" lon="4.6668">
        <ele>395.4</ele>
        <time>2025-03-02T08:59:00Z</time>
      </trkpt>
      <trkpt lat="45.73426" lon="4.66678">
        <ele>395.4</ele>
        <time>2025-03-02T08:59:01Z</time>
      </trkpt>
      <trkpt lat="45.73428" lon="4.66676">
        <ele>395.4</ele>
        <time>2025-03-02T08:59:02Z</time>
      </trkpt>
      <trkpt lat="45.73431" lon="4.66674">
        <ele>395.6</ele>
        <time>2025-03-02T08:59:03Z</time>
      </trkpt>
      <trkpt lat="45.73434" lon="4.66672">
        <ele>395.8</ele>
        <time>2025-03-02T08:59:04Z</time>
      </trkpt>
      <trkpt lat="45.73436" lon="4.6667">
        <ele>396</ele>
        <time>2025-03-02T08:59:05Z</time>
      </trkpt>
      <trkpt lat="45.73439" lon="4.66668">
        <ele>396.2</ele>
        <time>2025-03-02T08:59:06Z</time>
      </trkpt>
      <trkpt lat="45.73441" lon="4.66667">
        <ele>396.6</ele>
        <time>2025-03-02T08:59:07Z</time>
      </trkpt>
      <trkpt lat="45.73443" lon="4.66665">
        <ele>396.8</ele>
        <time>2025-03-02T08:59:08Z</time>
      </trkpt>
      <trkpt lat="45.73445" lon="4.66663">
        <ele>397</ele>
        <time>2025-03-02T08:59:09Z</time>
      </trkpt>
      <trkpt lat="45.73448" lon="4.66661">
        <ele>397.4</ele>
        <time>2025-03-02T08:59:10Z</time>
      </trkpt>
      <trkpt lat="45.7345" lon="4.66659">
        <ele>397.6</ele>
        <time>2025-03-02T08:59:11Z</time>
      </trkpt>
      <trkpt lat="45.73453" lon="4.66657">
        <ele>397.8</ele>
        <time>2025-03-02T08:59:12Z</time>
      </trkpt>
      <trkpt lat="45.73455" lon="4.66656">
        <ele>398.2</ele>
        <time>2025-03-02T08:59:13Z</time>
      </trkpt>
      <trkpt lat="45.73457" lon="4.66654">
        <ele>398.4</ele>
        <time>2025-03-02T08:59:14Z</time>
      </trkpt>
      <trkpt lat="45.73459" lon="4.66653">
        <ele>398.8</ele>
        <time>2025-03-02T08:59:15Z</time>
      </trkpt>
      <trkpt lat="45.73461" lon="4.66652">
        <ele>399</ele>
        <time>2025-03-02T08:59:16Z</time>
      </trkpt>
      <trkpt lat="45.73463" lon="4.6665">
        <ele>399.4</ele>
        <time>2025-03-02T08:59:17Z</time>
      </trkpt>
      <trkpt lat="45.73465" lon="4.66648">
        <ele>399.6</ele>
        <time>2025-03-02T08:59:18Z</time>
      </trkpt>
      <trkpt lat="45.73467" lon="4.66646">
        <ele>400</ele>
        <time>2025-03-02T08:59:19Z</time>
      </trkpt>
      <trkpt lat="45.73469" lon="4.66644">
        <ele>400.4</ele>
        <time>2025-03-02T08:59:20Z</time>
      </trkpt>
      <trkpt lat="45.73471" lon="4.66642">
        <ele>400.8</ele>
        <time>2025-03-02T08:59:21Z</time>
      </trkpt>
      <trkpt lat="45.73473" lon="4.6664">
        <ele>401.2</ele>
        <time>2025-03-02T08:59:22Z</time>
      </trkpt>
      <trkpt lat="45.73475" lon="4.66639">
        <ele>401.4</ele>
        <time>2025-03-02T08:59:23Z</time>
      </trkpt>
      <trkpt lat="45.73477" lon="4.66638">
        <ele>401.6</ele>
        <time>2025-03-02T08:59:24Z</time>
      </trkpt>
      <trkpt lat="45.73479" lon="4.66637">
        <ele>402</ele>
        <time>2025-03-02T08:59:25Z</time>
      </trkpt>
      <trkpt lat="45.73482" lon="4.66635">
        <ele>402.2</ele>
        <time>2025-03-02T08:59:26Z</time>
      </trkpt>
      <trkpt lat="45.73484" lon="4.66632">
        <ele>402.6</ele>
        <time>2025-03-02T08:59:27Z</time>
      </trkpt>
      <trkpt lat="45.73486" lon="4.66631">
        <ele>402.8</ele>
        <time>2025-03-02T08:59:28Z</time>
      </trkpt>
      <trkpt lat="45.73489" lon="4.66629">
        <ele>403.2</ele>
        <time>2025-03-02T08:59:29Z</time>
      </trkpt>
      <trkpt lat="45.73491" lon="4.66627">
        <ele>403.4</ele>
        <time>2025-03-02T08:59:30Z</time>
      </trkpt>
      <trkpt lat="45.73494" lon="4.66625">
        <ele>403.8</ele>
        <time>2025-03-02T08:59:31Z</time>
      </trkpt>
      <trkpt lat="45.73496" lon="4.66623">
        <ele>404.2</ele>
        <time>2025-03-02T08:59:32Z</time>
      </trkpt>
      <trkpt lat="45.73499" lon="4.66622">
        <ele>404.4</ele>
        <time>2025-03-02T08:59:33Z</time>
      </trkpt>
      <trkpt lat="45.73501" lon="4.6662">
        <ele>404.6</ele>
        <time>2025-03-02T08:59:34Z</time>
      </trkpt>
      <trkpt lat="45.73504" lon="4.66618">
        <ele>405</ele>
        <time>2025-03-02T08:59:35Z</time>
      </trkpt>
      <trkpt lat="45.73506" lon="4.66616">
        <ele>405.2</ele>
        <time>2025-03-02T08:59:36Z</time>
      </trkpt>
      <trkpt lat="45.73508" lon="4.66614">
        <ele>405.6</ele>
        <time>2025-03-02T08:59:37Z</time>
      </trkpt>
      <trkpt lat="45.73511" lon="4.66612">
        <ele>405.8</ele>
        <time>2025-03-02T08:59:38Z</time>
      </trkpt>
      <trkpt lat="45.73513" lon="4.6661">
        <ele>406.2</ele>
        <time>2025-03-02T08:59:39Z</time>
      </trkpt>
      <trkpt lat="45.73516" lon="4.66607">
        <ele>406.6</ele>
        <time>2025-03-02T08:59:40Z</time>
      </trkpt>
      <trkpt lat="45.73518" lon="4.66605">
        <ele>406.8</ele>
        <time>2025-03-02T08:59:41Z</time>
      </trkpt>
      <trkpt lat="45.7352" lon="4.66603">
        <ele>407</ele>
        <time>2025-03-02T08:59:42Z</time>
      </trkpt>
      <trkpt lat="45.73523" lon="4.66601">
        <ele>407.2</ele>
        <time>2025-03-02T08:59:43Z</time>
      </trkpt>
      <trkpt lat="45.73525" lon="4.66598">
        <ele>407.4</ele>
        <time>2025-03-02T08:59:44Z</time>
      </trkpt>
      <trkpt lat="45.73527" lon="4.66596">
        <ele>408</ele>
        <time>2025-03-02T08:59:45Z</time>
      </trkpt>
      <trkpt lat="45.7353" lon="4.66595">
        <ele>408.2</ele>
        <time>2025-03-02T08:59:46Z</time>
      </trkpt>
      <trkpt lat="45.73532" lon="4.66593">
        <ele>408.4</ele>
        <time>2025-03-02T08:59:47Z</time>
      </trkpt>
      <trkpt lat="45.73534" lon="4.6659">
        <ele>408.8</ele>
        <time>2025-03-02T08:59:48Z</time>
      </trkpt>
      <trkpt lat="45.73536" lon="4.66587">
        <ele>409.2</ele>
        <time>2025-03-02T08:59:49Z</time>
      </trkpt>
      <trkpt lat="45.73537" lon="4.66585">
        <ele>409.6</ele>
        <time>2025-03-02T08:59:50Z</time>
      </trkpt>
      <trkpt lat="45.73539" lon="4.66583">
        <ele>409.8</ele>
        <time>2025-03-02T08:59:51Z</time>
      </trkpt>
      <trkpt lat="45.73541" lon="4.66581">
        <ele>410.2</ele>
        <time>2025-03-02T08:59:52Z</time>
      </trkpt>
      <trkpt lat="45.73543" lon="4.66579">
        <ele>410.4</ele>
        <time>2025-03-02T08:59:53Z</time>
      </trkpt>
      <trkpt lat="45.73545" lon="4.66577">
        <ele>410.8</ele>
        <time>2025-03-02T08:59:54Z</time>
      </trkpt>
      <trkpt lat="45.73547" lon="4.66576">
        <ele>411.2</ele>
        <time>2025-03-02T08:59:55Z</time>
      </trkpt>
      <trkpt lat="45.73549" lon="4.66574">
        <ele>411.6</ele>
        <time>2025-03-02T08:59:56Z</time>
      </trkpt>
      <trkpt lat="45.73551" lon="4.66571">
        <ele>412</ele>
        <time>2025-03-02T08:59:57Z</time>
      </trkpt>
      <trkpt lat="45.73552" lon="4.66568">
        <ele>412.2</ele>
        <time>2025-03-02T08:59:58Z</time>
      </trkpt>
      <trkpt lat="45.73553" lon="4.66565">
        <ele>412.6</ele>
        <time>2025-03-02T08:59:59Z</time>
      </trkpt>
      <trkpt lat="45.73554" lon="4.66561">
        <ele>413</ele>
        <time>2025-03-02T09:00:00Z</time>
      </trkpt>
      <trkpt lat="45.73555" lon="4.66559">
        <ele>413.4</ele>
        <time>2025-03-02T09:00:01Z</time>
      </trkpt>
      <trkpt lat="45.73556" lon="4.66556">
        <ele>413.8</ele>
        <time>2025-03-02T09:00:02Z</time>
      </trkpt>
      <trkpt lat="45.73557" lon="4.66553">
        <ele>414.2</ele>
        <time>2025-03-02T09:00:03Z</time>
      </trkpt>
      <trkpt lat="45.73558" lon="4.6655">
        <ele>414.6</ele>
        <time>2025-03-02T09:00:04Z</time>
      </trkpt>
      <trkpt lat="45.73558" lon="4.66547">
        <ele>415</ele>
        <time>2025-03-02T09:00:05Z</time>
      </trkpt>
      <trkpt lat="45.73559" lon="4.66544">
        <ele>415.4</ele>
        <time>2025-03-02T09:00:06Z</time>
      </trkpt>
      <trkpt lat="45.73559" lon="4.66541">
        <ele>415.8</ele>
        <time>2025-03-02T09:00:07Z</time>
      </trkpt>
      <trkpt lat="45.73559" lon="4.66539">
        <ele>416</ele>
        <time>2025-03-02T09:00:08Z</time>
      </trkpt>
      <trkpt lat="45.7356" lon="4.66538">
        <ele>416.4</ele>
        <time>2025-03-02T09:00:09Z</time>
      </trkpt>
      <trkpt lat="45.7356" lon="4.66538">
        <ele>416.8</ele>
        <time>2025-03-02T09:00:10Z</time>
      </trkpt>
      <trkpt lat="45.7356" lon="4.66538">
        <ele>417</ele>
        <time>2025-03-02T09:00:11Z</time>
      </trkpt>
      <trkpt lat="45.7356" lon="4.66538">
        <ele>417.2</ele>
        <time>2025-03-02T09:00:12Z</time>
      </trkpt>
      <trkpt lat="45.7356" lon="4.66537">
        <ele>417.2</ele>
        <time>2025-03-02T09:00:13Z</time>
      </trkpt>
      <trkpt lat="45.73561" lon="4.66535">
        <ele>417.2</ele>
        <time>2025-03-02T09:00:14Z</time>
      </trkpt>
      <trkpt lat="45.73563" lon="4.66532">
        <ele>417.2</ele>
        <time>2025-03-02T09:00:15Z</time>
      </trkpt>
      <trkpt lat="45.73565" lon="4.66529">
        <ele>417.2</ele>
        <time>2025-03-02T09:00:16Z</time>
      </trkpt>
      <trkpt lat="45.73567" lon="4.66526">
        <ele>417.2</ele>
        <time>2025-03-02T09:00:17Z</time>
      </trkpt>
      <trkpt lat="45.7357" lon="4.66523">
        <ele>417.2</ele>
        <time>2025-03-02T09:00:18Z</time>
      </trkpt>
      <trkpt lat="45.73572" lon="4.66521">
        <ele>417.4</ele>
        <time>2025-03-02T09:00:19Z</time>
      </trkpt>
      <trkpt lat="45.73575" lon="4.66519">
        <ele>417.6</ele>
        <time>2025-03-02T09:00:20Z</time>
      </trkpt>
      <trkpt lat="45.73577" lon="4.66516">
        <ele>418</ele>
        <time>2025-03-02T09:00:21Z</time>
      </trkpt>
      <trkpt lat="45.73579" lon="4.66514">
        <ele>418.2</ele>
        <time>2025-03-02T09:00:22Z</time>
      </trkpt>
      <trkpt lat="45.73581" lon="4.66512">
        <ele>418.6</ele>
        <time>2025-03-02T09:00:23Z</time>
      </trkpt>
      <trkpt lat="45.73584" lon="4.6651">
        <ele>418.8</ele>
        <time>2025-03-02T09:00:24Z</time>
      </trkpt>
      <trkpt lat="45.73586" lon="4.66508">
        <ele>419</ele>
        <time>2025-03-02T09:00:25Z</time>
      </trkpt>
      <trkpt lat="45.73589" lon="4.66506">
        <ele>419.4</ele>
        <time>2025-03-02T09:00:26Z</time>
      </trkpt>
      <trkpt lat="45.73591" lon="4.66504">
        <ele>419.6</ele>
        <time>2025-03-02T09:00:27Z</time>
      </trkpt>
      <trkpt lat="45.73593" lon="4.66502">
        <ele>420</ele>
        <time>2025-03-02T09:00:28Z</time>
      </trkpt>
      <trkpt lat="45.73595" lon="4.665">
        <ele>420.2</ele>
        <time>2025-03-02T09:00:29Z</time>
      </trkpt>
      <trkpt lat="45.73598" lon="4.66498">
        <ele>420.6</ele>
        <time>2025-03-02T09:00:30Z</time>
      </trkpt>
      <trkpt lat="45.736" lon="4.66496">
        <ele>420.8</ele>
        <time>2025-03-02T09:00:31Z</time>
      </trkpt>
      <trkpt lat="45.73602" lon="4.66495">
        <ele>421.2</ele>
        <time>2025-03-02T09:00:32Z</time>
      </trkpt>
      <trkpt lat="45.73605" lon="4.66493">
        <ele>421.4</ele>
        <time>2025-03-02T09:00:33Z</time>
      </trkpt>
      <trkpt lat="45.73607" lon="4.66491">
        <ele>421.6</ele>
        <time>2025-03-02T09:00:34Z</time>
      </trkpt>
      <trkpt lat="45.73609" lon="4.66489">
        <ele>422</ele>
        <time>2025-03-02T09:00:35Z</time>
      </trkpt>
      <trkpt lat="45.73612" lon="4.66488">
        <ele>422.4</ele>
        <time>2025-03-02T09:00:36Z</time>
      </trkpt>
      <trkpt lat="45.73614" lon="4.66486">
        <ele>422.6</ele>
        <time>2025-03-02T09:00:37Z</time>
      </trkpt>
      <trkpt lat="45.73617" lon="4.66484">
        <ele>423</ele>
        <time>2025-03-02T09:00:38Z</time>
      </trkpt>
      <trkpt lat="45.73619" lon="4.66482">
        <ele>423.2</ele>
        <time>2025-03-02T09:00:39Z</time>
      </trkpt>
      <trkpt lat="45.73621" lon="4.66481">
        <ele>423.6</ele>
        <time>2025-03-02T09:00:40Z</time>
      </trkpt>
      <trkpt lat="45.73624" lon="4.66479">
        <ele>423.8</ele>
        <time>2025-03-02T09:00:41Z</time>
      </trkpt>
      <trkpt lat="45.73625" lon="4.66477">
        <ele>424</ele>
        <time>2025-03-02T09:00:42Z</time>
      </trkpt>
      <trkpt lat="45.73627" lon="4.66475">
        <ele>424.2</ele>
        <time>2025-03-02T09:00:43Z</time>
      </trkpt>
      <trkpt lat="45.7363" lon="4.66474">
        <ele>424.6</ele>
        <time>2025-03-02T09:00:44Z</time>
      </trkpt>
      <trkpt lat="45.73632" lon="4.66472">
        <ele>425</ele>
        <time>2025-03-02T09:00:45Z</time>
      </trkpt>
      <trkpt lat="45.73634" lon="4.6647">
        <ele>425.2</ele>
        <time>2025-03-02T09:00:46Z</time>
      </trkpt>
      <trkpt lat="45.73636" lon="4.66468">
        <ele>425.4</ele>
        <time>2025-03-02T09:00:47Z</time>
      </trkpt>
      <trkpt lat="45.73638" lon="4.66467">
        <ele>425.6</ele>
        <time>2025-03-02T09:00:48Z</time>
      </trkpt>
      <trkpt lat="45.73641" lon="4.66465">
        <ele>426</ele>
        <time>2025-03-02T09:00:49Z</time>
      </trkpt>
      <trkpt lat="45.73643" lon="4.66463">
        <ele>426.2</ele>
        <time>2025-03-02T09:00:50Z</time>
      </trkpt>
      <trkpt lat="45.73646" lon="4.66462">
        <ele>426.8</ele>
        <time>2025-03-02T09:00:51Z</time>
      </trkpt>
      <trkpt lat="45.73648" lon="4.6646">
        <ele>427</ele>
        <time>2025-03-02T09:00:52Z</time>
      </trkpt>
      <trkpt lat="45.7365" lon="4.66458">
        <ele>427.4</ele>
        <time>2025-03-02T09:00:53Z</time>
      </trkpt>
      <trkpt lat="45.73652" lon="4.66456">
        <ele>427.8</ele>
        <time>2025-03-02T09:00:54Z</time>
      </trkpt>
      <trkpt lat="45.73655" lon="4.66455">
        <ele>428.2</ele>
        <time>2025-03-02T09:00:55Z</time>
      </trkpt>
      <trkpt lat="45.73657" lon="4.66453">
        <ele>428.6</ele>
        <time>2025-03-02T09:00:56Z</time>
      </trkpt>
      <trkpt lat="45.7366" lon="4.66452">
        <ele>429</ele>
        <time>2025-03-02T09:00:57Z</time>
      </trkpt>
      <trkpt lat="45.73662" lon="4.66451">
        <ele>429.2</ele>
        <time>2025-03-02T09:00:58Z</time>
      </trkpt>
      <trkpt lat="45.73664" lon="4.66449">
        <ele>429.4</ele>
        <time>2025-03-02T09:00:59Z</time>
      </trkpt>
      <trkpt lat="45.73666" lon="4.66447">
        <ele>429.8</ele>
        <time>2025-03-02T09:01:00Z</time>
      </trkpt>
      <trkpt lat="45.73668" lon="4.66445">
        <ele>430.2</ele>
        <time>2025-03-02T09:01:01Z</time>
      </trkpt>
      <trkpt lat="45.7367" lon="4.66443">
        <ele>430.6</ele>
        <time>2025-03-02T09:01:02Z</time>
      </trkpt>
      <trkpt lat="45.73672" lon="4.66442">
        <ele>431</ele>
        <time>2025-03-02T09:01:03Z</time>
      </trkpt>
      <trkpt lat="45.73675" lon="4.66441">
        <ele>431.2</ele>
        <time>2025-03-02T09:01:04Z</time>
      </trkpt>
      <trkpt lat="45.73677" lon="4.66439">
        <ele>431.6</ele>
        <time>2025-03-02T09:01:05Z</time>
      </trkpt>
      <trkpt lat="45.73679" lon="4.66438">
        <ele>432</ele>
        <time>2025-03-02T09:01:06Z</time>
      </trkpt>
      <trkpt lat="45.73681" lon="4.66436">
        <ele>432.4</ele>
        <time>2025-03-02T09:01:07Z</time>
      </trkpt>
      <trkpt lat="45.73683" lon="4.66434">
        <ele>432.6</ele>
        <time>2025-03-02T09:01:08Z</time>
      </trkpt>
      <trkpt lat="45.73686" lon="4.66433">
        <ele>433.2</ele>
        <time>2025-03-02T09:01:09Z</time>
      </trkpt>
      <trkpt lat="45.73688" lon="4.66431">
        <ele>433.4</ele>
        <time>2025-03-02T09:01:10Z</time>
      </trkpt>
      <trkpt lat="45.7369" lon="4.66429">
        <ele>433.8</ele>
        <time>2025-03-02T09:01:11Z</time>
      </trkpt>
      <trkpt lat="45.73691" lon="4.66427">
        <ele>434.2</ele>
        <time>2025-03-02T09:01:12Z</time>
      </trkpt>
      <trkpt lat="45.73693" lon="4.66425">
        <ele>434.6</ele>
        <time>2025-03-02T09:01:13Z</time>
      </trkpt>
      <trkpt lat="45.73695" lon="4.66423">
        <ele>434.8</ele>
        <time>2025-03-02T09:01:14Z</time>
      </trkpt>
      <trkpt lat="45.73696" lon="4.66421">
        <ele>435.2</ele>
        <time>2025-03-02T09:01:15Z</time>
      </trkpt>
      <trkpt lat="45.73698" lon="4.66419">
        <ele>435.6</ele>
        <time>2025-03-02T09:01:16Z</time>
      </trkpt>
      <trkpt lat="45.737" lon="4.66418">
        <ele>436</ele>
        <time>2025-03-02T09:01:17Z</time>
      </trkpt>
      <trkpt lat="45.73702" lon="4.66416">
        <ele>436.2</ele>
        <time>2025-03-02T09:01:18Z</time>
      </trkpt>
      <trkpt lat="45.73704" lon="4.66415">
        <ele>436.6</ele>
        <time>2025-03-02T09:01:19Z</time>
      </trkpt>
      <trkpt lat="45.73706" lon="4.66413">
        <ele>436.8</ele>
        <time>2025-03-02T09:01:20Z</time>
      </trkpt>
      <trkpt lat="45.73707" lon="4.66411">
        <ele>437.2</ele>
        <time>2025-03-02T09:01:21Z</time>
      </trkpt>
      <trkpt lat="45.73709" lon="4.66408">
        <ele>437.4</ele>
        <time>2025-03-02T09:01:22Z</time>
      </trkpt>
      <trkpt lat="45.7371" lon="4.66405">
        <ele>437.6</ele>
        <time>2025-03-02T09:01:23Z</time>
      </trkpt>
      <trkpt lat="45.73712" lon="4.66403">
        <ele>437.8</ele>
        <time>2025-03-02T09:01:24Z</time>
      </trkpt>
      <trkpt lat="45.73714" lon="4.66401">
        <ele>437.8</ele>
        <time>2025-03-02T09:01:25Z</time>
      </trkpt>
      <trkpt lat="45.73716" lon="4.66399">
        <ele>438</ele>
        <time>2025-03-02T09:01:26Z</time>
      </trkpt>
      <trkpt lat="45.73718" lon="4.66397">
        <ele>438.2</ele>
        <time>2025-03-02T09:01:27Z</time>
      </trkpt>
      <trkpt lat="45.7372" lon="4.66395">
        <ele>438.4</ele>
        <time>2025-03-02T09:01:28Z</time>
      </trkpt>
      <trkpt lat="45.73722" lon="4.66394">
        <ele>438.8</ele>
        <time>2025-03-02T09:01:29Z</time>
      </trkpt>
      <trkpt lat="45.73724" lon="4.66393">
        <ele>439</ele>
        <time>2025-03-02T09:01:30Z</time>
      </trkpt>
      <trkpt lat="45.73726" lon="4.66391">
        <ele>439.2</ele>
        <time>2025-03-02T09:01:31Z</time>
      </trkpt>
      <trkpt lat="45.73728" lon="4.6639">
        <ele>439.6</ele>
        <time>2025-03-02T09:01:32Z</time>
      </trkpt>
      <trkpt lat="45.7373" lon="4.66388">
        <ele>440</ele>
        <time>2025-03-02T09:01:33Z</time>
      </trkpt>
      <trkpt lat="45.73732" lon="4.66387">
        <ele>440.4</ele>
        <time>2025-03-02T09:01:34Z</time>
      </trkpt>
      <trkpt lat="45.73734" lon="4.66385">
        <ele>441</ele>
        <time>2025-03-02T09:01:35Z</time>
      </trkpt>
      <trkpt lat="45.73736" lon="4.66384">
        <ele>441.2</ele>
        <time>2025-03-02T09:01:36Z</time>
      </trkpt>
      <trkpt lat="45.73739" lon="4.66383">
        <ele>441.6</ele>
        <time>2025-03-02T09:01:37Z</time>
      </trkpt>
      <trkpt lat="45.7374" lon="4.66381">
        <ele>442</ele>
        <time>2025-03-02T09:01:38Z</time>
      </trkpt>
      <trkpt lat="45.73742" lon="4.6638">
        <ele>442.4</ele>
        <time>2025-03-02T09:01:39Z</time>
      </trkpt>
      <trkpt lat="45.73744" lon="4.66378">
        <ele>442.6</ele>
        <time>2025-03-02T09:01:40Z</time>
      </trkpt>
      <trkpt lat="45.73746" lon="4.66376">
        <ele>443.2</ele>
        <time>2025-03-02T09:01:41Z</time>
      </trkpt>
      <trkpt lat="45.73748" lon="4.66374">
        <ele>443.4</ele>
        <time>2025-03-02T09:01:42Z</time>
      </trkpt>
      <trkpt lat="45.73749" lon="4.66373">
        <ele>443.8</ele>
        <time>2025-03-02T09:01:43Z</time>
      </trkpt>
      <trkpt lat="45.73752" lon="4.66371">
        <ele>444.2</ele>
        <time>2025-03-02T09:01:44Z</time>
      </trkpt>
      <trkpt lat="45.73754" lon="4.6637">
        <ele>444.4</ele>
        <time>2025-03-02T09:01:45Z</time>
      </trkpt>
      <trkpt lat="45.73756" lon="4.66367">
        <ele>444.8</ele>
        <time>2025-03-02T09:01:46Z</time>
      </trkpt>
      <trkpt lat="45.73758" lon="4.66365">
        <ele>445</ele>
        <time>2025-03-02T09:01:47Z</time>
      </trkpt>
      <trkpt lat="45.73759" lon="4.66363">
        <ele>445.4</ele>
        <time>2025-03-02T09:01:48Z</time>
      </trkpt>
      <trkpt lat="45.73761" lon="4.66361">
        <ele>445.6</ele>
        <time>2025-03-02T09:01:49Z</time>
      </trkpt>
      <trkpt lat="45.73763" lon="4.66359">
        <ele>445.8</ele>
        <time>2025-03-02T09:01:50Z</time>
      </trkpt>
      <trkpt lat="45.73765" lon="4.66357">
        <ele>446.2</ele>
        <time>2025-03-02T09:01:51Z</time>
      </trkpt>
      <trkpt lat="45.73767" lon="4.66355">
        <ele>446.6</ele>
        <time>2025-03-02T09:01:52Z</time>
      </trkpt>
      <trkpt lat="45.73769" lon="4.66353">
        <ele>446.8</ele>
        <time>2025-03-02T09:01:53Z</time>
      </trkpt>
      <trkpt lat="45.7377" lon="4.6635">
        <ele>447.2</ele>
        <time>2025-03-02T09:01:54Z</time>
      </trkpt>
      <trkpt lat="45.73772" lon="4.66347">
        <ele>447.4</ele>
        <time>2025-03-02T09:01:55Z</time>
      </trkpt>
      <trkpt lat="45.73774" lon="4.66345">
        <ele>447.6</ele>
        <time>2025-03-02T09:01:56Z</time>
      </trkpt>
      <trkpt lat="45.73775" lon="4.66342">
        <ele>448</ele>
        <time>2025-03-02T09:01:57Z</time>
      </trkpt>
      <trkpt lat="45.73777" lon="4.6634">
        <ele>448.4</ele>
        <time>2025-03-02T09:01:58Z</time>
      </trkpt>
      <trkpt lat="45.73778" lon="4.66337">
        <ele>448.8</ele>
        <time>2025-03-02T09:01:59Z</time>
      </trkpt>
      <trkpt lat="45.7378" lon="4.66334">
        <ele>449</ele>
        <time>2025-03-02T09:02:00Z</time>
      </trkpt>
      <trkpt lat="45.73781" lon="4.66331">
        <ele>449.2</ele>
        <time>2025-03-02T09:02:01Z</time>
      </trkpt>
      <trkpt lat="45.73782" lon="4.66328">
        <ele>449.4</ele>
        <time>2025-03-02T09:02:02Z</time>
      </trkpt>
      <trkpt lat="45.73783" lon="4.66325">
        <ele>449.8</ele>
        <time>2025-03-02T09:02:03Z</time>
      </trkpt>
      <trkpt lat="45.73785" lon="4.66323">
        <ele>450.2</ele>
        <time>2025-03-02T09:02:04Z</time>
      </trkpt>
      <trkpt lat="45.73786" lon="4.66321">
        <ele>450.4</ele>
        <time>2025-03-02T09:02:05Z</time>
      </trkpt>
      <trkpt lat="45.73788" lon="4.66319">
        <ele>450.6</ele>
        <time>2025-03-02T09:02:06Z</time>
      </trkpt>
      <trkpt lat="45.73789" lon="4.66317">
        <ele>451</ele>
        <time>2025-03-02T09:02:07Z</time>
      </trkpt>
      <trkpt lat="45.73791" lon="4.66315">
        <ele>451.4</ele>
        <time>2025-03-02T09:02:08Z</time>
      </trkpt>
      <trkpt lat="45.73794" lon="4.66314">
        <ele>451.6</ele>
        <time>2025-03-02T09:02:09Z</time>
      </trkpt>
      <trkpt lat="45.73796" lon="4.66313">
        <ele>452</ele>
        <time>2025-03-02T09:02:10Z</time>
      </trkpt>
      <trkpt lat="45.73798" lon="4.66312">
        <ele>452.2</ele>
        <time>2025-03-02T09:02:11Z</time>
      </trkpt>
      <trkpt lat="45.738" lon="4.66311">
        <ele>452.4</ele>
        <time>2025-03-02T09:02:12Z</time>
      </trkpt>
      <trkpt lat="45.73801" lon="4.6631">
        <ele>452.6</ele>
        <time>2025-03-02T09:02:13Z</time>
      </trkpt>
      <trkpt lat="45.73803" lon="4.66309">
        <ele>452.8</ele>
        <time>2025-03-02T09:02:14Z</time>
      </trkpt>
      <trkpt lat="45.73805" lon="4.66309">
        <ele>453.2</ele>
        <time>2025-03-02T09:02:15Z</time>
      </trkpt>
      <trkpt lat="45.73807" lon="4.66309">
        <ele>453.6</ele>
        <time>2025-03-02T09:02:16Z</time>
      </trkpt>
      <trkpt lat="45.73808" lon="4.66308">
        <ele>453.6</ele>
        <time>2025-03-02T09:02:17Z</time>
      </trkpt>
      <trkpt lat="45.73809" lon="4.66307">
        <ele>453.8</ele>
        <time>2025-03-02T09:02:18Z</time>
      </trkpt>
      <trkpt lat="45.73809" lon="4.66305">
        <ele>454.2</ele>
        <time>2025-03-02T09:02:19Z</time>
      </trkpt>
      <trkpt lat="45.73807" lon="4.66303">
        <ele>454.2</ele>
        <time>2025-03-02T09:02:20Z</time>
      </trkpt>
      <trkpt lat="45.73804" lon="4.66303">
        <ele>454.2</ele>
        <time>2025-03-02T09:02:21Z</time>
      </trkpt>
      <trkpt lat="45.73801" lon="4.66306">
        <ele>454.2</ele>
        <time>2025-03-02T09:02:22Z</time>
      </trkpt>
      <trkpt lat="45.738" lon="4.66309">
        <ele>454</ele>
        <time>2025-03-02T09:02:23Z</time>
      </trkpt>
      <trkpt lat="45.73799" lon="4.66312">
        <ele>453.8</ele>
        <time>2025-03-02T09:02:24Z</time>
      </trkpt>
      <trkpt lat="45.73798" lon="4.66315">
        <ele>453.4</ele>
        <time>2025-03-02T09:02:25Z</time>
      </trkpt>
      <trkpt lat="45.73798" lon="4.66316">
        <ele>453.4</ele>
        <time>2025-03-02T09:02:26Z</time>
      </trkpt>
      <trkpt lat="45.73798" lon="4.66316">
        <ele>453.4</ele>
        <time>2025-03-02T09:02:27Z</time>
      </trkpt>
      <trkpt lat="45.73798" lon="4.66316">
        <ele>453.4</ele>
        <time>2025-03-02T09:02:28Z</time>
      </trkpt>
      <trkpt lat="45.73798" lon="4.66316">
        <ele>453.4</ele>
        <time>2025-03-02T09:02:29Z</time>
      </trkpt>
      <trkpt lat="45.73798" lon="4.66316">
        <ele>453.4</ele>
        <time>2025-03-02T09:02:30Z</time>
      </trkpt>
      <trkpt lat="45.73798" lon="4.66316">
        <ele>453.4</ele>
        <time>2025-03-02T09:02:31Z</time>
      </trkpt>
      <trkpt lat="45.73798" lon="4.66315">
        <ele>453.4</ele>
        <time>2025-03-02T09:02:32Z</time>
      </trkpt>
      <trkpt lat="45.73798" lon="4.66314">
        <ele>453.4</ele>
        <time>2025-03-02T09:02:33Z</time>
      </trkpt>
      <trkpt lat="45.73798" lon="4.66314">
        <ele>453.4</ele>
        <time>2025-03-02T09:02:34Z</time>
      </trkpt>
      <trkpt lat="45.73798" lon="4.66314">
        <ele>453.4</ele>
        <time>2025-03-02T09:02:35Z</time>
      </trkpt>
      <trkpt lat="45.73798" lon="4.66314">
        <ele>453.4</ele>
        <time>2025-03-02T09:02:36Z</time>
      </trkpt>
      <trkpt lat="45.73798" lon="4.66314">
        <ele>453.2</ele>
        <time>2025-03-02T09:02:37Z</time>
      </trkpt>
      <trkpt lat="45.73798" lon="4.66314">
        <ele>453.2</ele>
        <time>2025-03-02T09:02:38Z</time>
      </trkpt>
      <trkpt lat="45.73798" lon="4.66314">
        <ele>453.2</ele>
        <time>2025-03-02T09:02:39Z</time>
      </trkpt>
      <trkpt lat="45.73798" lon="4.66314">
        <ele>453.2</ele>
        <time>2025-03-02T09:02:40Z</time>
      </trkpt>
      <trkpt lat="45.73798" lon="4.66314">
        <ele>453.2</ele>
        <time>2025-03-02T09:02:41Z</time>
      </trkpt>
      <trkpt lat="45.73798" lon="4.66314">
        <ele>453.2</ele>
        <time>2025-03-02T09:02:42Z</time>
      </trkpt>
      <trkpt lat="45.73799" lon="4.66313">
        <ele>453.2</ele>
        <time>2025-03-02T09:02:43Z</time>
      </trkpt>
      <trkpt lat="45.73801" lon="4.66312">
        <ele>453.2</ele>
        <time>2025-03-02T09:02:44Z</time>
      </trkpt>
      <trkpt lat="45.73803" lon="4.66311">
        <ele>453.2</ele>
        <time>2025-03-02T09:02:45Z</time>
      </trkpt>
      <trkpt lat="45.73806" lon="4.66311">
        <ele>453.2</ele>
        <time>2025-03-02T09:02:46Z</time>
      </trkpt>
      <trkpt lat="45.73808" lon="4.66311">
        <ele>453.4</ele>
        <time>2025-03-02T09:02:47Z</time>
      </trkpt>
      <trkpt lat="45.73811" lon="4.66312">
        <ele>453.6</ele>
        <time>2025-03-02T09:02:48Z</time>
      </trkpt>
      <trkpt lat="45.73813" lon="4.66313">
        <ele>453.8</ele>
        <time>2025-03-02T09:02:49Z</time>
      </trkpt>
      <trkpt lat="45.73816" lon="4.66313">
        <ele>454.4</ele>
        <time>2025-03-02T09:02:50Z</time>
      </trkpt>
      <trkpt lat="45.73819" lon="4.66313">
        <ele>454.8</ele>
        <time>2025-03-02T09:02:51Z</time>
      </trkpt>
      <trkpt lat="45.73821" lon="4.66313">
        <ele>455.2</ele>
        <time>2025-03-02T09:02:52Z</time>
      </trkpt>
      <trkpt lat="45.73824" lon="4.66313">
        <ele>455.6</ele>
        <time>2025-03-02T09:02:53Z</time>
      </trkpt>
      <trkpt lat="45.73826" lon="4.66313">
        <ele>456</ele>
        <time>2025-03-02T09:02:54Z</time>
      </trkpt>
      <trkpt lat="45.73829" lon="4.66312">
        <ele>456.4</ele>
        <time>2025-03-02T09:02:55Z</time>
      </trkpt>
      <trkpt lat="45.73831" lon="4.66312">
        <ele>456.8</ele>
        <time>2025-03-02T09:02:56Z</time>
      </trkpt>
      <trkpt lat="45.73834" lon="4.66311">
        <ele>457</ele>
        <time>2025-03-02T09:02:57Z</time>
      </trkpt>
      <trkpt lat="45.73837" lon="4.66311">
        <ele>457.2</ele>
        <time>2025-03-02T09:02:58Z</time>
      </trkpt>
      <trkpt lat="45.73839" lon="4.6631">
        <ele>457.4</ele>
        <time>2025-03-02T09:02:59Z</time>
      </trkpt>
      <trkpt lat="45.73842" lon="4.66309">
        <ele>457.6</ele>
        <time>2025-03-02T09:03:00Z</time>
      </trkpt>
      <trkpt lat="45.73844" lon="4.66309">
        <ele>457.8</ele>
        <time>2025-03-02T09:03:01Z</time>
      </trkpt>
      <trkpt lat="45.73845" lon="4.66308">
        <ele>458</ele>
        <time>2025-03-02T09:03:02Z</time>
      </trkpt>
      <trkpt lat="45.73846" lon="4.66306">
        <ele>458.2</ele>
        <time>2025-03-02T09:03:03Z</time>
      </trkpt>
      <trkpt lat="45.73845" lon="4.66304">
        <ele>458.4</ele>
        <time>2025-03-02T09:03:04Z</time>
      </trkpt>
      <trkpt lat="45.73844" lon="4.66302">
        <ele>458.6</ele>
        <time>2025-03-02T09:03:05Z</time>
      </trkpt>
      <trkpt lat="45.73844" lon="4.663">
        <ele>458.6</ele>
        <time>2025-03-02T09:03:06Z</time>
      </trkpt>
      <trkpt lat="45.73844" lon="4.66297">
        <ele>458.6</ele>
        <time>2025-03-02T09:03:07Z</time>
      </trkpt>
      <trkpt lat="45.73845" lon="4.66293">
        <ele>458.6</ele>
        <time>2025-03-02T09:03:08Z</time>
      </trkpt>
      <trkpt lat="45.73846" lon="4.66289">
        <ele>458.4</ele>
        <time>2025-03-02T09:03:09Z</time>
      </trkpt>
      <trkpt lat="45.73847" lon="4.66285">
        <ele>458.4</ele>
        <time>2025-03-02T09:03:10Z</time>
      </trkpt>
      <trkpt lat="45.73849" lon="4.66281">
        <ele>458.2</ele>
        <time>2025-03-02T09:03:11Z</time>
      </trkpt>
      <trkpt lat="45.7385" lon="4.66276">
        <ele>458.2</ele>
        <time>2025-03-02T09:03:12Z</time>
      </trkpt>
      <trkpt lat="45.73851" lon="4.66272">
        <ele>458.2</ele>
        <time>2025-03-02T09:03:13Z</time>
      </trkpt>
      <trkpt lat="45.73852" lon="4.66267">
        <ele>457.8</ele>
        <time>2025-03-02T09:03:14Z</time>
      </trkpt>
      <trkpt lat="45.73854" lon="4.66263">
        <ele>457.8</ele>
        <time>2025-03-02T09:03:15Z</time>
      </trkpt>
      <trkpt lat="45.73855" lon="4.66259">
        <ele>457.6</ele>
        <time>2025-03-02T09:03:16Z</time>
      </trkpt>
      <trkpt lat="45.73856" lon="4.66254">
        <ele>457.6</ele>
        <time>2025-03-02T09:03:17Z</time>
      </trkpt>
      <trkpt lat="45.73857" lon="4.6625">
        <ele>457.4</ele>
        <time>2025-03-02T09:03:18Z</time>
      </trkpt>
      <trkpt lat="45.73858" lon="4.66246">
        <ele>457.4</ele>
        <time>2025-03-02T09:03:19Z</time>
      </trkpt>
      <trkpt lat="45.73859" lon="4.66242">
        <ele>457.4</ele>
        <time>2025-03-02T09:03:20Z</time>
      </trkpt>
      <trkpt lat="45.7386" lon="4.66238">
        <ele>457.4</ele>
        <time>2025-03-02T09:03:21Z</time>
      </trkpt>
      <trkpt lat="45.73862" lon="4.66233">
        <ele>457.4</ele>
        <time>2025-03-02T09:03:22Z</time>
      </trkpt>
      <trkpt lat="45.73863" lon="4.66229">
        <ele>457.4</ele>
        <time>2025-03-02T09:03:23Z</time>
      </trkpt>
      <trkpt lat="45.73865" lon="4.66224">
        <ele>457.2</ele>
        <time>2025-03-02T09:03:24Z</time>
      </trkpt>
      <trkpt lat="45.73866" lon="4.66218">
        <ele>457</ele>
        <time>2025-03-02T09:03:25Z</time>
      </trkpt>
      <trkpt lat="45.73868" lon="4.66212">
        <ele>456.6</ele>
        <time>2025-03-02T09:03:26Z</time>
      </trkpt>
      <trkpt lat="45.73871" lon="4.66206">
        <ele>456.4</ele>
        <time>2025-03-02T09:03:27Z</time>
      </trkpt>
      <trkpt lat="45.73873" lon="4.66199">
        <ele>456</ele>
        <time>2025-03-02T09:03:28Z</time>
      </trkpt>
      <trkpt lat="45.73875" lon="4.66192">
        <ele>455.6</ele>
        <time>2025-03-02T09:03:29Z</time>
      </trkpt>
      <trkpt lat="45.73877" lon="4.66185">
        <ele>455.4</ele>
        <time>2025-03-02T09:03:30Z</time>
      </trkpt>
      <trkpt lat="45.73879" lon="4.66179">
        <ele>455</ele>
        <time>2025-03-02T09:03:31Z</time>
      </trkpt>
      <trkpt lat="45.7388" lon="4.66171">
        <ele>454.4</ele>
        <time>2025-03-02T09:03:32Z</time>
      </trkpt>
      <trkpt lat="45.73882" lon="4.66164">
        <ele>453.8</ele>
        <time>2025-03-02T09:03:33Z</time>
      </trkpt>
      <trkpt lat="45.73884" lon="4.66156">
        <ele>453.4</ele>
        <time>2025-03-02T09:03:34Z</time>
      </trkpt>
      <trkpt lat="45.73887" lon="4.66149">
        <ele>453.2</ele>
        <time>2025-03-02T09:03:35Z</time>
      </trkpt>
      <trkpt lat="45.7389" lon="4.66142">
        <ele>453</ele>
        <time>2025-03-02T09:03:36Z</time>
      </trkpt>
      <trkpt lat="45.73892" lon="4.66134">
        <ele>452.8</ele>
        <time>2025-03-02T09:03:37Z</time>
      </trkpt>
      <trkpt lat="45.73894" lon="4.66126">
        <ele>452.4</ele>
        <time>2025-03-02T09:03:38Z</time>
      </trkpt>
      <trkpt lat="45.73896" lon="4.66118">
        <ele>452</ele>
        <time>2025-03-02T09:03:39Z</time>
      </trkpt>
      <trkpt lat="45.73899" lon="4.6611">
        <ele>451.6</ele>
        <time>2025-03-02T09:03:40Z</time>
      </trkpt>
      <trkpt lat="45.73901" lon="4.66101">
        <ele>451.4</ele>
        <time>2025-03-02T09:03:41Z</time>
      </trkpt>
      <trkpt lat="45.73903" lon="4.66093">
        <ele>451</ele>
        <time>2025-03-02T09:03:42Z</time>
      </trkpt>
      <trkpt lat="45.73905" lon="4.66086">
        <ele>450.8</ele>
        <time>2025-03-02T09:03:43Z</time>
      </trkpt>
      <trkpt lat="45.73907" lon="4.6608">
        <ele>450.4</ele>
        <time>2025-03-02T09:03:44Z</time>
      </trkpt>
      <trkpt lat="45.73909" lon="4.66075">
        <ele>450.4</ele>
        <time>2025-03-02T09:03:45Z</time>
      </trkpt>
      <trkpt lat="45.73912" lon="4.6607">
        <ele>450.4</ele>
        <time>2025-03-02T09:03:46Z</time>
      </trkpt>
      <trkpt lat="45.73914" lon="4.66065">
        <ele>450.4</ele>
        <time>2025-03-02T09:03:47Z</time>
      </trkpt>
      <trkpt lat="45.73917" lon="4.6606">
        <ele>450.2</ele>
        <time>2025-03-02T09:03:48Z</time>
      </trkpt>
      <trkpt lat="45.73919" lon="4.66056">
        <ele>450.2</ele>
        <time>2025-03-02T09:03:49Z</time>
      </trkpt>
      <trkpt lat="45.73921" lon="4.66053">
        <ele>450.4</ele>
        <time>2025-03-02T09:03:50Z</time>
      </trkpt>
      <trkpt lat="45.73923" lon="4.6605">
        <ele>450.4</ele>
        <time>2025-03-02T09:03:51Z</time>
      </trkpt>
      <trkpt lat="45.73925" lon="4.66046">
        <ele>450.2</ele>
        <time>2025-03-02T09:03:52Z</time>
      </trkpt>
      <trkpt lat="45.73927" lon="4.66043">
        <ele>450.2</ele>
        <time>2025-03-02T09:03:53Z</time>
      </trkpt>
      <trkpt lat="45.73928" lon="4.66039">
        <ele>450.2</ele>
        <time>2025-03-02T09:03:54Z</time>
      </trkpt>
      <trkpt lat="45.7393" lon="4.66035">
        <ele>450</ele>
        <time>2025-03-02T09:03:55Z</time>
      </trkpt>
      <trkpt lat="45.73932" lon="4.66031">
        <ele>450</ele>
        <time>2025-03-02T09:03:56Z</time>
      </trkpt>
      <trkpt lat="45.73934" lon="4.66027">
        <ele>449.8</ele>
        <time>2025-03-02T09:03:57Z</time>
      </trkpt>
      <trkpt lat="45.73936" lon="4.66023">
        <ele>449.6</ele>
        <time>2025-03-02T09:03:58Z</time>
      </trkpt>
      <trkpt lat="45.73938" lon="4.66019">
        <ele>449.4</ele>
        <time>2025-03-02T09:03:59Z</time>
      </trkpt>
      <trkpt lat="45.7394" lon="4.66014">
        <ele>449.4</ele>
        <time>2025-03-02T09:04:00Z</time>
      </trkpt>
      <trkpt lat="45.73943" lon="4.6601">
        <ele>449</ele>
        <time>2025-03-02T09:04:01Z</time>
      </trkpt>
      <trkpt lat="45.73945" lon="4.66006">
        <ele>448.8</ele>
        <time>2025-03-02T09:04:02Z</time>
      </trkpt>
      <trkpt lat="45.73947" lon="4.66001">
        <ele>448.6</ele>
        <time>2025-03-02T09:04:03Z</time>
      </trkpt>
      <trkpt lat="45.73949" lon="4.65997">
        <ele>448.4</ele>
        <time>2025-03-02T09:04:04Z</time>
      </trkpt>
      <trkpt lat="45.73951" lon="4.65991">
        <ele>448.2</ele>
        <time>2025-03-02T09:04:05Z</time>
      </trkpt>
      <trkpt lat="45.73954" lon="4.65986">
        <ele>448</ele>
        <time>2025-03-02T09:04:06Z</time>
      </trkpt>
      <trkpt lat="45.73957" lon="4.6598">
        <ele>447.4</ele>
        <time>2025-03-02T09:04:07Z</time>
      </trkpt>
      <trkpt lat="45.7396" lon="4.65975">
        <ele>446.8</ele>
        <time>2025-03-02T09:04:08Z</time>
      </trkpt>
      <trkpt lat="45.73963" lon="4.65971">
        <ele>446.6</ele>
        <time>2025-03-02T09:04:09Z</time>
      </trkpt>
      <trkpt lat="45.73966" lon="4.65966">
        <ele>446.6</ele>
        <time>2025-03-02T09:04:10Z</time>
      </trkpt>
      <trkpt lat="45.73969" lon="4.65961">
        <ele>446.6</ele>
        <time>2025-03-02T09:04:11Z</time>
      </trkpt>
      <trkpt lat="45.73972" lon="4.65956">
        <ele>446.8</ele>
        <time>2025-03-02T09:04:12Z</time>
      </trkpt>
      <trkpt lat="45.73975" lon="4.65951">
        <ele>447</ele>
        <time>2025-03-02T09:04:13Z</time>
      </trkpt>
      <trkpt lat="45.73977" lon="4.65947">
        <ele>447.2</ele>
        <time>2025-03-02T09:04:14Z</time>
      </trkpt>
      <trkpt lat="45.7398" lon="4.65942">
        <ele>447.4</ele>
        <time>2025-03-02T09:04:15Z</time>
      </trkpt>
      <trkpt lat="45.73982" lon="4.65939">
        <ele>447.8</ele>
        <time>2025-03-02T09:04:16Z</time>
      </trkpt>
      <trkpt lat="45.73984" lon="4.65935">
        <ele>448</ele>
        <time>2025-03-02T09:04:17Z</time>
      </trkpt>
      <trkpt lat="45.73987" lon="4.65932">
        <ele>448.4</ele>
        <time>2025-03-02T09:04:18Z</time>
      </trkpt>
      <trkpt lat="45.73989" lon="4.65928">
        <ele>448.4</ele>
        <time>2025-03-02T09:04:19Z</time>
      </trkpt>
      <trkpt lat="45.73991" lon="4.65924">
        <ele>448.6</ele>
        <time>2025-03-02T09:04:20Z</time>
      </trkpt>
      <trkpt lat="45.73994" lon="4.6592">
        <ele>448.8</ele>
        <time>2025-03-02T09:04:21Z</time>
      </trkpt>
      <trkpt lat="45.73996" lon="4.65917">
        <ele>449</ele>
        <time>2025-03-02T09:04:22Z</time>
      </trkpt>
      <trkpt lat="45.73998" lon="4.65913">
        <ele>449.2</ele>
        <time>2025-03-02T09:04:23Z</time>
      </trkpt>
      <trkpt lat="45.73999" lon="4.65909">
        <ele>449.2</ele>
        <time>2025-03-02T09:04:24Z</time>
      </trkpt>
      <trkpt lat="45.74" lon="4.65906">
        <ele>449.4</ele>
        <time>2025-03-02T09:04:25Z</time>
      </trkpt>
      <trkpt lat="45.74001" lon="4.65903">
        <ele>449.8</ele>
        <time>2025-03-02T09:04:26Z</time>
      </trkpt>
      <trkpt lat="45.74001" lon="4.659">
        <ele>450.2</ele>
        <time>2025-03-02T09:04:27Z</time>
      </trkpt>
      <trkpt lat="45.74002" lon="4.65898">
        <ele>450.6</ele>
        <time>2025-03-02T09:04:28Z</time>
      </trkpt>
      <trkpt lat="45.74002" lon="4.65894">
        <ele>451</ele>
        <time>2025-03-02T09:04:29Z</time>
      </trkpt>
      <trkpt lat="45.74003" lon="4.65891">
        <ele>451</ele>
        <time>2025-03-02T09:04:30Z</time>
      </trkpt>
      <trkpt lat="45.74004" lon="4.65887">
        <ele>451.2</ele>
        <time>2025-03-02T09:04:31Z</time>
      </trkpt>
      <trkpt lat="45.74005" lon="4.65882">
        <ele>451.2</ele>
        <time>2025-03-02T09:04:32Z</time>
      </trkpt>
      <trkpt lat="45.74005" lon="4.65877">
        <ele>451.2</ele>
        <time>2025-03-02T09:04:33Z</time>
      </trkpt>
      <trkpt lat="45.74005" lon="4.65872">
        <ele>451.4</ele>
        <time>2025-03-02T09:04:34Z</time>
      </trkpt>
      <trkpt lat="45.74006" lon="4.65867">
        <ele>451.4</ele>
        <time>2025-03-02T09:04:35Z</time>
      </trkpt>
      <trkpt lat="45.74006" lon="4.65862">
        <ele>451.6</ele>
        <time>2025-03-02T09:04:36Z</time>
      </trkpt>
      <trkpt lat="45.74006" lon="4.65857">
        <ele>451.6</ele>
        <time>2025-03-02T09:04:37Z</time>
      </trkpt>
      <trkpt lat="45.74007" lon="4.65853">
        <ele>451.8</ele>
        <time>2025-03-02T09:04:38Z</time>
      </trkpt>
      <trkpt lat="45.74007" lon="4.65848">
        <ele>452</ele>
        <time>2025-03-02T09:04:39Z</time>
      </trkpt>
      <trkpt lat="45.74007" lon="4.65843">
        <ele>452</ele>
        <time>2025-03-02T09:04:40Z</time>
      </trkpt>
      <trkpt lat="45.74008" lon="4.65839">
        <ele>452.2</ele>
        <time>2025-03-02T09:04:41Z</time>
      </trkpt>
      <trkpt lat="45.74008" lon="4.65835">
        <ele>452.4</ele>
        <time>2025-03-02T09:04:42Z</time>
      </trkpt>
      <trkpt lat="45.74009" lon="4.65832">
        <ele>452.6</ele>
        <time>2025-03-02T09:04:43Z</time>
      </trkpt>
      <trkpt lat="45.74008" lon="4.65829">
        <ele>452.8</ele>
        <time>2025-03-02T09:04:44Z</time>
      </trkpt>
      <trkpt lat="45.74008" lon="4.65826">
        <ele>453</ele>
        <time>2025-03-02T09:04:45Z</time>
      </trkpt>
      <trkpt lat="45.74008" lon="4.65823">
        <ele>453.4</ele>
        <time>2025-03-02T09:04:46Z</time>
      </trkpt>
      <trkpt lat="45.74009" lon="4.6582">
        <ele>453.4</ele>
        <time>2025-03-02T09:04:47Z</time>
      </trkpt>
      <trkpt lat="45.74009" lon="4.65817">
        <ele>453.4</ele>
        <time>2025-03-02T09:04:48Z</time>
      </trkpt>
      <trkpt lat="45.7401" lon="4.65813">
        <ele>453.4</ele>
        <time>2025-03-02T09:04:49Z</time>
      </trkpt>
      <trkpt lat="45.7401" lon="4.6581">
        <ele>453.4</ele>
        <time>2025-03-02T09:04:50Z</time>
      </trkpt>
      <trkpt lat="45.7401" lon="4.65806">
        <ele>453.4</ele>
        <time>2025-03-02T09:04:51Z</time>
      </trkpt>
      <trkpt lat="45.7401" lon="4.65802">
        <ele>453.4</ele>
        <time>2025-03-02T09:04:52Z</time>
      </trkpt>
      <trkpt lat="45.74011" lon="4.65798">
        <ele>453.4</ele>
        <time>2025-03-02T09:04:53Z</time>
      </trkpt>
      <trkpt lat="45.74011" lon="4.65795">
        <ele>453.4</ele>
        <time>2025-03-02T09:04:54Z</time>
      </trkpt>
      <trkpt lat="45.74012" lon="4.65791">
        <ele>453.4</ele>
        <time>2025-03-02T09:04:55Z</time>
      </trkpt>
      <trkpt lat="45.74012" lon="4.65787">
        <ele>453.4</ele>
        <time>2025-03-02T09:04:56Z</time>
      </trkpt>
      <trkpt lat="45.74012" lon="4.65782">
        <ele>453.4</ele>
        <time>2025-03-02T09:04:57Z</time>
      </trkpt>
      <trkpt lat="45.74013" lon="4.65778">
        <ele>453.4</ele>
        <time>2025-03-02T09:04:58Z</time>
      </trkpt>
      <trkpt lat="45.74013" lon="4.65775">
        <ele>453.4</ele>
        <time>2025-03-02T09:04:59Z</time>
      </trkpt>
      <trkpt lat="45.74015" lon="4.65771">
        <ele>453.6</ele>
        <time>2025-03-02T09:05:00Z</time>
      </trkpt>
      <trkpt lat="45.74017" lon="4.65768">
        <ele>453.6</ele>
        <time>2025-03-02T09:05:01Z</time>
      </trkpt>
      <trkpt lat="45.74019" lon="4.65764">
        <ele>453.6</ele>
        <time>2025-03-02T09:05:02Z</time>
      </trkpt>
      <trkpt lat="45.74021" lon="4.6576">
        <ele>453.6</ele>
        <time>2025-03-02T09:05:03Z</time>
      </trkpt>
      <trkpt lat="45.74023" lon="4.65756">
        <ele>453.6</ele>
        <time>2025-03-02T09:05:04Z</time>
      </trkpt>
      <trkpt lat="45.74025" lon="4.65752">
        <ele>453.6</ele>
        <time>2025-03-02T09:05:05Z</time>
      </trkpt>
      <trkpt lat="45.74027" lon="4.65748">
        <ele>453.6</ele>
        <time>2025-03-02T09:05:06Z</time>
      </trkpt>
      <trkpt lat="45.74029" lon="4.65745">
        <ele>453.8</ele>
        <time>2025-03-02T09:05:07Z</time>
      </trkpt>
      <trkpt lat="45.74031" lon="4.65741">
        <ele>453.8</ele>
        <time>2025-03-02T09:05:08Z</time>
      </trkpt>
      <trkpt lat="45.74033" lon="4.65738">
        <ele>454</ele>
        <time>2025-03-02T09:05:09Z</time>
      </trkpt>
      <trkpt lat="45.74034" lon="4.65734">
        <ele>454</ele>
        <time>2025-03-02T09:05:10Z</time>
      </trkpt>
      <trkpt lat="45.74037" lon="4.65731">
        <ele>454</ele>
        <time>2025-03-02T09:05:11Z</time>
      </trkpt>
      <trkpt lat="45.74039" lon="4.65728">
        <ele>454.2</ele>
        <time>2025-03-02T09:05:12Z</time>
      </trkpt>
      <trkpt lat="45.7404" lon="4.65725">
        <ele>454.4</ele>
        <time>2025-03-02T09:05:13Z</time>
      </trkpt>
      <trkpt lat="45.74042" lon="4.65722">
        <ele>454.6</ele>
        <time>2025-03-02T09:05:14Z</time>
      </trkpt>
      <trkpt lat="45.74044" lon="4.65719">
        <ele>454.8</ele>
        <time>2025-03-02T09:05:15Z</time>
      </trkpt>
      <trkpt lat="45.74046" lon="4.65716">
        <ele>454.8</ele>
        <time>2025-03-02T09:05:16Z</time>
      </trkpt>
      <trkpt lat="45.74049" lon="4.65713">
        <ele>454.8</ele>
        <time>2025-03-02T09:05:17Z</time>
      </trkpt>
      <trkpt lat="45.74051" lon="4.65709">
        <ele>454.8</ele>
        <time>2025-03-02T09:05:18Z</time>
      </trkpt>
      <trkpt lat="45.74053" lon="4.65705">
        <ele>454.8</ele>
        <time>2025-03-02T09:05:19Z</time>
      </trkpt>
      <trkpt lat="45.74055" lon="4.65701">
        <ele>454.8</ele>
        <time>2025-03-02T09:05:20Z</time>
      </trkpt>
      <trkpt lat="45.74057" lon="4.65698">
        <ele>454.8</ele>
        <time>2025-03-02T09:05:21Z</time>
      </trkpt>
      <trkpt lat="45.74059" lon="4.65694">
        <ele>454.8</ele>
        <time>2025-03-02T09:05:22Z</time>
      </trkpt>
      <trkpt lat="45.7406" lon="4.65691">
        <ele>454.8</ele>
        <time>2025-03-02T09:05:23Z</time>
      </trkpt>
      <trkpt lat="45.7406" lon="4.6569">
        <ele>454.8</ele>
        <time>2025-03-02T09:05:24Z</time>
      </trkpt>
      <trkpt lat="45.7406" lon="4.6569">
        <ele>454.8</ele>
        <time>2025-03-02T09:05:25Z</time>
      </trkpt>
      <trkpt lat="45.7406" lon="4.6569">
        <ele>455</ele>
        <time>2025-03-02T09:05:26Z</time>
      </trkpt>
      <trkpt lat="45.7406" lon="4.6569">
        <ele>455.2</ele>
        <time>2025-03-02T09:05:27Z</time>
      </trkpt>
      <trkpt lat="45.7406" lon="4.6569">
        <ele>455.4</ele>
        <time>2025-03-02T09:05:28Z</time>
      </trkpt>
      <trkpt lat="45.7406" lon="4.6569">
        <ele>455.4</ele>
        <time>2025-03-02T09:05:29Z</time>
      </trkpt>
      <trkpt lat="45.7406" lon="4.6569">
        <ele>455.4</ele>
        <time>2025-03-02T09:05:30Z</time>
      </trkpt>
      <trkpt lat="45.7406" lon="4.6569">
        <ele>455.4</ele>
        <time>2025-03-02T09:05:31Z</time>
      </trkpt>
      <trkpt lat="45.7406" lon="4.6569">
        <ele>455.4</ele>
        <time>2025-03-02T09:05:32Z</time>
      </trkpt>
      <trkpt lat="45.7406" lon="4.6569">
        <ele>455.4</ele>
        <time>2025-03-02T09:05:33Z</time>
      </trkpt>
      <trkpt lat="45.74061" lon="4.65687">
        <ele>455.4</ele>
        <time>2025-03-02T09:05:34Z</time>
      </trkpt>
      <trkpt lat="45.74061" lon="4.65684">
        <ele>455.4</ele>
        <time>2025-03-02T09:05:35Z</time>
      </trkpt>
      <trkpt lat="45.74061" lon="4.6568">
        <ele>455.4</ele>
        <time>2025-03-02T09:05:36Z</time>
      </trkpt>
      <trkpt lat="45.7406" lon="4.65675">
        <ele>455.2</ele>
        <time>2025-03-02T09:05:37Z</time>
      </trkpt>
      <trkpt lat="45.7406" lon="4.65671">
        <ele>455</ele>
        <time>2025-03-02T09:05:38Z</time>
      </trkpt>
      <trkpt lat="45.7406" lon="4.65665">
        <ele>454.8</ele>
        <time>2025-03-02T09:05:39Z</time>
      </trkpt>
      <trkpt lat="45.7406" lon="4.6566">
        <ele>454.6</ele>
        <time>2025-03-02T09:05:40Z</time>
      </trkpt>
      <trkpt lat="45.7406" lon="4.65654">
        <ele>454.2</ele>
        <time>2025-03-02T09:05:41Z</time>
      </trkpt>
      <trkpt lat="45.7406" lon="4.65647">
        <ele>454</ele>
        <time>2025-03-02T09:05:42Z</time>
      </trkpt>
      <trkpt lat="45.7406" lon="4.65641">
        <ele>453.8</ele>
        <time>2025-03-02T09:05:43Z</time>
      </trkpt>
      <trkpt lat="45.7406" lon="4.65634">
        <ele>453.2</ele>
        <time>2025-03-02T09:05:44Z</time>
      </trkpt>
      <trkpt lat="45.7406" lon="4.65626">
        <ele>452.6</ele>
        <time>2025-03-02T09:05:45Z</time>
      </trkpt>
      <trkpt lat="45.7406" lon="4.65619">
        <ele>452.4</ele>
        <time>2025-03-02T09:05:46Z</time>
      </trkpt>
      <trkpt lat="45.7406" lon="4.65612">
        <ele>452.2</ele>
        <time>2025-03-02T09:05:47Z</time>
      </trkpt>
      <trkpt lat="45.74061" lon="4.65607">
        <ele>452</ele>
        <time>2025-03-02T09:05:48Z</time>
      </trkpt>
      <trkpt lat="45.74061" lon="4.65603">
        <ele>451.6</ele>
        <time>2025-03-02T09:05:49Z</time>
      </trkpt>
      <trkpt lat="45.74062" lon="4.65601">
        <ele>451.4</ele>
        <time>2025-03-02T09:05:50Z</time>
      </trkpt>
      <trkpt lat="45.74064" lon="4.656">
        <ele>451.4</ele>
        <time>2025-03-02T09:05:51Z</time>
      </trkpt>
      <trkpt lat="45.74067" lon="4.65599">
        <ele>451.4</ele>
        <time>2025-03-02T09:05:52Z</time>
      </trkpt>
      <trkpt lat="45.7407" lon="4.65597">
        <ele>451.4</ele>
        <time>2025-03-02T09:05:53Z</time>
      </trkpt>
      <trkpt lat="45.74072" lon="4.65594">
        <ele>451.4</ele>
        <time>2025-03-02T09:05:54Z</time>
      </trkpt>
      <trkpt lat="45.74074" lon="4.65591">
        <ele>451.8</ele>
        <time>2025-03-02T09:05:55Z</time>
      </trkpt>
      <trkpt lat="45.74076" lon="4.65588">
        <ele>452.2</ele>
        <time>2025-03-02T09:05:56Z</time>
      </trkpt>
      <trkpt lat="45.74078" lon="4.65585">
        <ele>452.6</ele>
        <time>2025-03-02T09:05:57Z</time>
      </trkpt>
      <trkpt lat="45.7408" lon="4.65583">
        <ele>453</ele>
        <time>2025-03-02T09:05:58Z</time>
      </trkpt>
      <trkpt lat="45.74081" lon="4.6558">
        <ele>453.6</ele>
        <time>2025-03-02T09:05:59Z</time>
      </trkpt>
      <trkpt lat="45.74082" lon="4.65578">
        <ele>454</ele>
        <time>2025-03-02T09:06:00Z</time>
      </trkpt>
      <trkpt lat="45.74083" lon="4.65577">
        <ele>454.4</ele>
        <time>2025-03-02T09:06:01Z</time>
      </trkpt>
      <trkpt lat="45.74083" lon="4.65577">
        <ele>454.6</ele>
        <time>2025-03-02T09:06:02Z</time>
      </trkpt>
      <trkpt lat="45.74083" lon="4.65577">
        <ele>455</ele>
        <time>2025-03-02T09:06:03Z</time>
      </trkpt>
      <trkpt lat="45.74083" lon="4.65577">
        <ele>455.2</ele>
        <time>2025-03-02T09:06:04Z</time>
      </trkpt>
      <trkpt lat="45.74083" lon="4.65577">
        <ele>455.4</ele>
        <time>2025-03-02T09:06:05Z</time>
      </trkpt>
      <trkpt lat="45.74083" lon="4.65577">
        <ele>455.4</ele>
        <time>2025-03-02T09:06:06Z</time>
      </trkpt>
      <trkpt lat="45.74083" lon="4.65577">
        <ele>455.4</ele>
        <time>2025-03-02T09:06:07Z</time>
      </trkpt>
      <trkpt lat="45.74083" lon="4.65577">
        <ele>455.4</ele>
        <time>2025-03-02T09:06:08Z</time>
      </trkpt>
      <trkpt lat="45.74083" lon="4.65577">
        <ele>455.4</ele>
        <time>2025-03-02T09:06:09Z</time>
      </trkpt>
      <trkpt lat="45.74083" lon="4.65577">
        <ele>455.4</ele>
        <time>2025-03-02T09:06:10Z</time>
      </trkpt>
      <trkpt lat="45.74083" lon="4.65577">
        <ele>455.4</ele>
        <time>2025-03-02T09:06:11Z</time>
      </trkpt>
      <trkpt lat="45.74083" lon="4.65577">
        <ele>455.4</ele>
        <time>2025-03-02T09:06:12Z</time>
      </trkpt>
      <trkpt lat="45.74083" lon="4.65577">
        <ele>455.4</ele>
        <time>2025-03-02T09:06:13Z</time>
      </trkpt>
      <trkpt lat="45.74083" lon="4.65577">
        <ele>455.4</ele>
        <time>2025-03-02T09:06:14Z</time>
      </trkpt>
      <trkpt lat="45.74083" lon="4.65577">
        <ele>455.4</ele>
        <time>2025-03-02T09:06:15Z</time>
      </trkpt>
      <trkpt lat="45.74083" lon="4.65577">
        <ele>455.4</ele>
        <time>2025-03-02T09:06:16Z</time>
      </trkpt>
      <trkpt lat="45.74083" lon="4.65577">
        <ele>455.4</ele>
        <time>2025-03-02T09:06:17Z</time>
      </trkpt>
      <trkpt lat="45.74083" lon="4.65577">
        <ele>455.4</ele>
        <time>2025-03-02T09:06:18Z</time>
      </trkpt>
      <trkpt lat="45.74083" lon="4.65577">
        <ele>455.4</ele>
        <time>2025-03-02T09:06:19Z</time>
      </trkpt>
      <trkpt lat="45.74083" lon="4.65577">
        <ele>455.4</ele>
        <time>2025-03-02T09:06:20Z</time>
      </trkpt>
      <trkpt lat="45.74083" lon="4.65577">
        <ele>455.4</ele>
        <time>2025-03-02T09:06:21Z</time>
      </trkpt>
      <trkpt lat="45.74083" lon="4.65577">
        <ele>455.4</ele>
        <time>2025-03-02T09:06:22Z</time>
      </trkpt>
      <trkpt lat="45.74083" lon="4.65577">
        <ele>455.4</ele>
        <time>2025-03-02T09:06:23Z</time>
      </trkpt>
      <trkpt lat="45.74083" lon="4.65577">
        <ele>455.4</ele>
        <time>2025-03-02T09:06:24Z</time>
      </trkpt>
      <trkpt lat="45.74083" lon="4.65577">
        <ele>455.4</ele>
        <time>2025-03-02T09:06:25Z</time>
      </trkpt>
      <trkpt lat="45.74083" lon="4.65577">
        <ele>455.4</ele>
        <time>2025-03-02T09:06:26Z</time>
      </trkpt>
      <trkpt lat="45.74083" lon="4.65577">
        <ele>455.4</ele>
        <time>2025-03-02T09:06:27Z</time>
      </trkpt>
      <trkpt lat="45.74083" lon="4.65577">
        <ele>455.4</ele>
        <time>2025-03-02T09:06:28Z</time>
      </trkpt>
      <trkpt lat="45.74083" lon="4.65577">
        <ele>455.4</ele>
        <time>2025-03-02T09:06:29Z</time>
      </trkpt>
      <trkpt lat="45.74083" lon="4.65577">
        <ele>455.4</ele>
        <time>2025-03-02T09:06:30Z</time>
      </trkpt>
      <trkpt lat="45.74083" lon="4.65577">
        <ele>455.4</ele>
        <time>2025-03-02T09:06:31Z</time>
      </trkpt>
      <trkpt lat="45.74083" lon="4.65577">
        <ele>455.4</ele>
        <time>2025-03-02T09:06:32Z</time>
      </trkpt>
      <trkpt lat="45.74083" lon="4.65577">
        <ele>455.4</ele>
        <time>2025-03-02T09:06:33Z</time>
      </trkpt>
      <trkpt lat="45.74083" lon="4.65577">
        <ele>455.4</ele>
        <time>2025-03-02T09:06:34Z</time>
      </trkpt>
      <trkpt lat="45.74083" lon="4.65577">
        <ele>455.4</ele>
        <time>2025-03-02T09:06:35Z</time>
      </trkpt>
      <trkpt lat="45.74083" lon="4.65577">
        <ele>455.4</ele>
        <time>2025-03-02T09:06:36Z</time>
      </trkpt>
      <trkpt lat="45.74083" lon="4.65577">
        <ele>455.4</ele>
        <time>2025-03-02T09:06:37Z</time>
      </trkpt>
      <trkpt lat="45.74084" lon="4.65575">
        <ele>455.4</ele>
        <time>2025-03-02T09:06:38Z</time>
      </trkpt>
      <trkpt lat="45.74084" lon="4.65572">
        <ele>455.8</ele>
        <time>2025-03-02T09:06:39Z</time>
      </trkpt>
      <trkpt lat="45.74086" lon="4.65569">
        <ele>455.6</ele>
        <time>2025-03-02T09:06:40Z</time>
      </trkpt>
      <trkpt lat="45.74087" lon="4.65566">
        <ele>455.6</ele>
        <time>2025-03-02T09:06:41Z</time>
      </trkpt>
      <trkpt lat="45.74089" lon="4.65563">
        <ele>455.6</ele>
        <time>2025-03-02T09:06:42Z</time>
      </trkpt>
      <trkpt lat="45.74091" lon="4.6556">
        <ele>455.4</ele>
        <time>2025-03-02T09:06:43Z</time>
      </trkpt>
      <trkpt lat="45.74093" lon="4.65556">
        <ele>455.4</ele>
        <time>2025-03-02T09:06:44Z</time>
      </trkpt>
      <trkpt lat="45.74096" lon="4.65552">
        <ele>455.4</ele>
        <time>2025-03-02T09:06:45Z</time>
      </trkpt>
      <trkpt lat="45.74098" lon="4.65548">
        <ele>455.4</ele>
        <time>2025-03-02T09:06:46Z</time>
      </trkpt>
      <trkpt lat="45.74101" lon="4.65544">
        <ele>455.4</ele>
        <time>2025-03-02T09:06:47Z</time>
      </trkpt>
      <trkpt lat="45.74104" lon="4.6554">
        <ele>455.4</ele>
        <time>2025-03-02T09:06:48Z</time>
      </trkpt>
      <trkpt lat="45.74106" lon="4.65536">
        <ele>455.4</ele>
        <time>2025-03-02T09:06:49Z</time>
      </trkpt>
      <trkpt lat="45.74108" lon="4.65533">
        <ele>455.4</ele>
        <time>2025-03-02T09:06:50Z</time>
      </trkpt>
      <trkpt lat="45.74111" lon="4.65529">
        <ele>455.4</ele>
        <time>2025-03-02T09:06:51Z</time>
      </trkpt>
      <trkpt lat="45.74113" lon="4.65526">
        <ele>455.4</ele>
        <time>2025-03-02T09:06:52Z</time>
      </trkpt>
      <trkpt lat="45.74115" lon="4.65522">
        <ele>455.4</ele>
        <time>2025-03-02T09:06:53Z</time>
      </trkpt>
      <trkpt lat="45.74118" lon="4.65518">
        <ele>455.6</ele>
        <time>2025-03-02T09:06:54Z</time>
      </trkpt>
      <trkpt lat="45.74121" lon="4.65514">
        <ele>455.6</ele>
        <time>2025-03-02T09:06:55Z</time>
      </trkpt>
      <trkpt lat="45.74124" lon="4.6551">
        <ele>455.6</ele>
        <time>2025-03-02T09:06:56Z</time>
      </trkpt>
      <trkpt lat="45.74127" lon="4.65506">
        <ele>455.6</ele>
        <time>2025-03-02T09:06:57Z</time>
      </trkpt>
      <trkpt lat="45.7413" lon="4.65503">
        <ele>455.4</ele>
        <time>2025-03-02T09:06:58Z</time>
      </trkpt>
      <trkpt lat="45.74134" lon="4.65499">
        <ele>455.2</ele>
        <time>2025-03-02T09:06:59Z</time>
      </trkpt>
      <trkpt lat="45.74137" lon="4.65496">
        <ele>455.2</ele>
        <time>2025-03-02T09:07:00Z</time>
      </trkpt>
      <trkpt lat="45.74141" lon="4.65492">
        <ele>455</ele>
        <time>2025-03-02T09:07:01Z</time>
      </trkpt>
      <trkpt lat="45.74144" lon="4.65488">
        <ele>454.8</ele>
        <time>2025-03-02T09:07:02Z</time>
      </trkpt>
      <trkpt lat="45.74148" lon="4.65485">
        <ele>454.8</ele>
        <time>2025-03-02T09:07:03Z</time>
      </trkpt>
      <trkpt lat="45.74152" lon="4.65481">
        <ele>454.6</ele>
        <time>2025-03-02T09:07:04Z</time>
      </trkpt>
      <trkpt lat="45.74156" lon="4.65478">
        <ele>454.6</ele>
        <time>2025-03-02T09:07:05Z</time>
      </trkpt>
      <trkpt lat="45.74159" lon="4.65474">
        <ele>454.6</ele>
        <time>2025-03-02T09:07:06Z</time>
      </trkpt>
      <trkpt lat="45.74163" lon="4.65471">
        <ele>454.6</ele>
        <time>2025-03-02T09:07:07Z</time>
      </trkpt>
      <trkpt lat="45.74166" lon="4.65468">
        <ele>454.6</ele>
        <time>2025-03-02T09:07:08Z</time>
      </trkpt>
      <trkpt lat="45.7417" lon="4.65464">
        <ele>454.6</ele>
        <time>2025-03-02T09:07:09Z</time>
      </trkpt>
      <trkpt lat="45.74174" lon="4.6546">
        <ele>454.8</ele>
        <time>2025-03-02T09:07:10Z</time>
      </trkpt>
      <trkpt lat="45.74178" lon="4.65456">
        <ele>454.8</ele>
        <time>2025-03-02T09:07:11Z</time>
      </trkpt>
      <trkpt lat="45.74182" lon="4.65452">
        <ele>454.8</ele>
        <time>2025-03-02T09:07:12Z</time>
      </trkpt>
      <trkpt lat="45.74186" lon="4.65448">
        <ele>454.8</ele>
        <time>2025-03-02T09:07:13Z</time>
      </trkpt>
      <trkpt lat="45.7419" lon="4.65444">
        <ele>455</ele>
        <time>2025-03-02T09:07:14Z</time>
      </trkpt>
      <trkpt lat="45.74193" lon="4.6544">
        <ele>455</ele>
        <time>2025-03-02T09:07:15Z</time>
      </trkpt>
      <trkpt lat="45.74197" lon="4.65436">
        <ele>455.2</ele>
        <time>2025-03-02T09:07:16Z</time>
      </trkpt>
      <trkpt lat="45.742" lon="4.65432">
        <ele>455.4</ele>
        <time>2025-03-02T09:07:17Z</time>
      </trkpt>
      <trkpt lat="45.74204" lon="4.65429">
        <ele>455.8</ele>
        <time>2025-03-02T09:07:18Z</time>
      </trkpt>
      <trkpt lat="45.74208" lon="4.65425">
        <ele>455.8</ele>
        <time>2025-03-02T09:07:19Z</time>
      </trkpt>
      <trkpt lat="45.74211" lon="4.65421">
        <ele>456.2</ele>
        <time>2025-03-02T09:07:20Z</time>
      </trkpt>
      <trkpt lat="45.74215" lon="4.65417">
        <ele>456.4</ele>
        <time>2025-03-02T09:07:21Z</time>
      </trkpt>
      <trkpt lat="45.74218" lon="4.65412">
        <ele>456.8</ele>
        <time>2025-03-02T09:07:22Z</time>
      </trkpt>
      <trkpt lat="45.74222" lon="4.65407">
        <ele>456.8</ele>
        <time>2025-03-02T09:07:23Z</time>
      </trkpt>
      <trkpt lat="45.74225" lon="4.65402">
        <ele>457</ele>
        <time>2025-03-02T09:07:24Z</time>
      </trkpt>
      <trkpt lat="45.74228" lon="4.65397">
        <ele>457</ele>
        <time>2025-03-02T09:07:25Z</time>
      </trkpt>
      <trkpt lat="45.74231" lon="4.65391">
        <ele>457.2</ele>
        <time>2025-03-02T09:07:26Z</time>
      </trkpt>
      <trkpt lat="45.74234" lon="4.65386">
        <ele>457.2</ele>
        <time>2025-03-02T09:07:27Z</time>
      </trkpt>
      <trkpt lat="45.74237" lon="4.6538">
        <ele>457.4</ele>
        <time>2025-03-02T09:07:28Z</time>
      </trkpt>
      <trkpt lat="45.74239" lon="4.65375">
        <ele>457.8</ele>
        <time>2025-03-02T09:07:29Z</time>
      </trkpt>
      <trkpt lat="45.74242" lon="4.6537">
        <ele>458.2</ele>
        <time>2025-03-02T09:07:30Z</time>
      </trkpt>
      <trkpt lat="45.74244" lon="4.65365">
        <ele>458.4</ele>
        <time>2025-03-02T09:07:31Z</time>
      </trkpt>
      <trkpt lat="45.74247" lon="4.6536">
        <ele>458.6</ele>
        <time>2025-03-02T09:07:32Z</time>
      </trkpt>
      <trkpt lat="45.74249" lon="4.65355">
        <ele>458.8</ele>
        <time>2025-03-02T09:07:33Z</time>
      </trkpt>
      <trkpt lat="45.74252" lon="4.65349">
        <ele>458.8</ele>
        <time>2025-03-02T09:07:34Z</time>
      </trkpt>
      <trkpt lat="45.74255" lon="4.65344">
        <ele>458.8</ele>
        <time>2025-03-02T09:07:35Z</time>
      </trkpt>
      <trkpt lat="45.74258" lon="4.65338">
        <ele>458.8</ele>
        <time>2025-03-02T09:07:36Z</time>
      </trkpt>
      <trkpt lat="45.74261" lon="4.65333">
        <ele>458.6</ele>
        <time>2025-03-02T09:07:37Z</time>
      </trkpt>
      <trkpt lat="45.74265" lon="4.65328">
        <ele>458.4</ele>
        <time>2025-03-02T09:07:38Z</time>
      </trkpt>
      <trkpt lat="45.74268" lon="4.65323">
        <ele>458.2</ele>
        <time>2025-03-02T09:07:39Z</time>
      </trkpt>
      <trkpt lat="45.74272" lon="4.65318">
        <ele>458</ele>
        <time>2025-03-02T09:07:40Z</time>
      </trkpt>
      <trkpt lat="45.74275" lon="4.65314">
        <ele>457.8</ele>
        <time>2025-03-02T09:07:41Z</time>
      </trkpt>
      <trkpt lat="45.74279" lon="4.65309">
        <ele>457.8</ele>
        <time>2025-03-02T09:07:42Z</time>
      </trkpt>
      <trkpt lat="45.74283" lon="4.65306">
        <ele>457.4</ele>
        <time>2025-03-02T09:07:43Z</time>
      </trkpt>
      <trkpt lat="45.74287" lon="4.65302">
        <ele>457.2</ele>
        <time>2025-03-02T09:07:44Z</time>
      </trkpt>
      <trkpt lat="45.74291" lon="4.653">
        <ele>457</ele>
        <time>2025-03-02T09:07:45Z</time>
      </trkpt>
      <trkpt lat="45.74296" lon="4.65299">
        <ele>457</ele>
        <time>2025-03-02T09:07:46Z</time>
      </trkpt>
      <trkpt lat="45.743" lon="4.65298">
        <ele>456.8</ele>
        <time>2025-03-02T09:07:47Z</time>
      </trkpt>
      <trkpt lat="45.74305" lon="4.65297">
        <ele>456.8</ele>
        <time>2025-03-02T09:07:48Z</time>
      </trkpt>
      <trkpt lat="45.7431" lon="4.65297">
        <ele>456.8</ele>
        <time>2025-03-02T09:07:49Z</time>
      </trkpt>
      <trkpt lat="45.74314" lon="4.65297">
        <ele>456.8</ele>
        <time>2025-03-02T09:07:50Z</time>
      </trkpt>
      <trkpt lat="45.74318" lon="4.65298">
        <ele>456.8</ele>
        <time>2025-03-02T09:07:51Z</time>
      </trkpt>
      <trkpt lat="45.74322" lon="4.65298">
        <ele>457.2</ele>
        <time>2025-03-02T09:07:52Z</time>
      </trkpt>
      <trkpt lat="45.74326" lon="4.65298">
        <ele>457.4</ele>
        <time>2025-03-02T09:07:53Z</time>
      </trkpt>
      <trkpt lat="45.74331" lon="4.65298">
        <ele>457.8</ele>
        <time>2025-03-02T09:07:54Z</time>
      </trkpt>
      <trkpt lat="45.74335" lon="4.65299">
        <ele>458.2</ele>
        <time>2025-03-02T09:07:55Z</time>
      </trkpt>
      <trkpt lat="45.74339" lon="4.653">
        <ele>458.4</ele>
        <time>2025-03-02T09:07:56Z</time>
      </trkpt>
      <trkpt lat="45.74343" lon="4.65301">
        <ele>458.6</ele>
        <time>2025-03-02T09:07:57Z</time>
      </trkpt>
      <trkpt lat="45.74346" lon="4.65302">
        <ele>459</ele>
        <time>2025-03-02T09:07:58Z</time>
      </trkpt>
      <trkpt lat="45.7435" lon="4.65303">
        <ele>459.4</ele>
        <time>2025-03-02T09:07:59Z</time>
      </trkpt>
      <trkpt lat="45.74354" lon="4.65303">
        <ele>459.8</ele>
        <time>2025-03-02T09:08:00Z</time>
      </trkpt>
      <trkpt lat="45.74357" lon="4.65304">
        <ele>460.2</ele>
        <time>2025-03-02T09:08:01Z</time>
      </trkpt>
      <trkpt lat="45.74361" lon="4.65305">
        <ele>460.4</ele>
        <time>2025-03-02T09:08:02Z</time>
      </trkpt>
      <trkpt lat="45.74364" lon="4.65305">
        <ele>461</ele>
        <time>2025-03-02T09:08:03Z</time>
      </trkpt>
      <trkpt lat="45.74367" lon="4.65304">
        <ele>461.2</ele>
        <time>2025-03-02T09:08:04Z</time>
      </trkpt>
      <trkpt lat="45.7437" lon="4.65302">
        <ele>462</ele>
        <time>2025-03-02T09:08:05Z</time>
      </trkpt>
      <trkpt lat="45.74373" lon="4.65299">
        <ele>462.6</ele>
        <time>2025-03-02T09:08:06Z</time>
      </trkpt>
      <trkpt lat="45.74376" lon="4.65296">
        <ele>463</ele>
        <time>2025-03-02T09:08:07Z</time>
      </trkpt>
      <trkpt lat="45.74379" lon="4.65294">
        <ele>463.6</ele>
        <time>2025-03-02T09:08:08Z</time>
      </trkpt>
      <trkpt lat="45.74381" lon="4.6529">
        <ele>464.2</ele>
        <time>2025-03-02T09:08:09Z</time>
      </trkpt>
      <trkpt lat="45.74384" lon="4.65287">
        <ele>464.8</ele>
        <time>2025-03-02T09:08:10Z</time>
      </trkpt>
      <trkpt lat="45.74387" lon="4.65284">
        <ele>465.4</ele>
        <time>2025-03-02T09:08:11Z</time>
      </trkpt>
      <trkpt lat="45.7439" lon="4.6528">
        <ele>465.8</ele>
        <time>2025-03-02T09:08:12Z</time>
      </trkpt>
      <trkpt lat="45.74392" lon="4.65277">
        <ele>466.4</ele>
        <time>2025-03-02T09:08:13Z</time>
      </trkpt>
      <trkpt lat="45.74394" lon="4.65273">
        <ele>467</ele>
        <time>2025-03-02T09:08:14Z</time>
      </trkpt>
      <trkpt lat="45.74396" lon="4.65269">
        <ele>467.6</ele>
        <time>2025-03-02T09:08:15Z</time>
      </trkpt>
      <trkpt lat="45.74398" lon="4.65265">
        <ele>468.2</ele>
        <time>2025-03-02T09:08:16Z</time>
      </trkpt>
      <trkpt lat="45.74399" lon="4.65261">
        <ele>468.8</ele>
        <time>2025-03-02T09:08:17Z</time>
      </trkpt>
      <trkpt lat="45.744" lon="4.65257">
        <ele>469.6</ele>
        <time>2025-03-02T09:08:18Z</time>
      </trkpt>
      <trkpt lat="45.74401" lon="4.65253">
        <ele>470.4</ele>
        <time>2025-03-02T09:08:19Z</time>
      </trkpt>
      <trkpt lat="45.74402" lon="4.65249">
        <ele>471</ele>
        <time>2025-03-02T09:08:20Z</time>
      </trkpt>
      <trkpt lat="45.74402" lon="4.65246">
        <ele>471.6</ele>
        <time>2025-03-02T09:08:21Z</time>
      </trkpt>
      <trkpt lat="45.74402" lon="4.65242">
        <ele>472.2</ele>
        <time>2025-03-02T09:08:22Z</time>
      </trkpt>
      <trkpt lat="45.74401" lon="4.65238">
        <ele>472.8</ele>
        <time>2025-03-02T09:08:23Z</time>
      </trkpt>
      <trkpt lat="45.74401" lon="4.65234">
        <ele>473.2</ele>
        <time>2025-03-02T09:08:24Z</time>
      </trkpt>
      <trkpt lat="45.744" lon="4.6523">
        <ele>473.8</ele>
        <time>2025-03-02T09:08:25Z</time>
      </trkpt>
      <trkpt lat="45.74398" lon="4.65227">
        <ele>474</ele>
        <time>2025-03-02T09:08:26Z</time>
      </trkpt>
      <trkpt lat="45.74396" lon="4.65223">
        <ele>474.4</ele>
        <time>2025-03-02T09:08:27Z</time>
      </trkpt>
      <trkpt lat="45.74394" lon="4.65219">
        <ele>474.4</ele>
        <time>2025-03-02T09:08:28Z</time>
      </trkpt>
      <trkpt lat="45.74393" lon="4.65215">
        <ele>474.4</ele>
        <time>2025-03-02T09:08:29Z</time>
      </trkpt>
      <trkpt lat="45.74392" lon="4.65212">
        <ele>474.4</ele>
        <time>2025-03-02T09:08:30Z</time>
      </trkpt>
      <trkpt lat="45.7439" lon="4.65208">
        <ele>474.4</ele>
        <time>2025-03-02T09:08:31Z</time>
      </trkpt>
      <trkpt lat="45.74388" lon="4.65204">
        <ele>474.4</ele>
        <time>2025-03-02T09:08:32Z</time>
      </trkpt>
      <trkpt lat="45.74386" lon="4.65198">
        <ele>474.4</ele>
        <time>2025-03-02T09:08:33Z</time>
      </trkpt>
      <trkpt lat="45.74384" lon="4.65193">
        <ele>474.2</ele>
        <time>2025-03-02T09:08:34Z</time>
      </trkpt>
      <trkpt lat="45.74382" lon="4.65189">
        <ele>474.4</ele>
        <time>2025-03-02T09:08:35Z</time>
      </trkpt>
      <trkpt lat="45.7438" lon="4.65184">
        <ele>474.4</ele>
        <time>2025-03-02T09:08:36Z</time>
      </trkpt>
      <trkpt lat="45.74379" lon="4.65179">
        <ele>474.4</ele>
        <time>2025-03-02T09:08:37Z</time>
      </trkpt>
      <trkpt lat="45.74377" lon="4.65175">
        <ele>474.8</ele>
        <time>2025-03-02T09:08:38Z</time>
      </trkpt>
      <trkpt lat="45.74377" lon="4.6517">
        <ele>475</ele>
        <time>2025-03-02T09:08:39Z</time>
      </trkpt>
      <trkpt lat="45.74376" lon="4.65166">
        <ele>475.2</ele>
        <time>2025-03-02T09:08:40Z</time>
      </trkpt>
      <trkpt lat="45.74376" lon="4.65161">
        <ele>475.6</ele>
        <time>2025-03-02T09:08:41Z</time>
      </trkpt>
      <trkpt lat="45.74376" lon="4.65156">
        <ele>476</ele>
        <time>2025-03-02T09:08:42Z</time>
      </trkpt>
      <trkpt lat="45.74376" lon="4.65151">
        <ele>476.2</ele>
        <time>2025-03-02T09:08:43Z</time>
      </trkpt>
      <trkpt lat="45.74376" lon="4.65147">
        <ele>476.8</ele>
        <time>2025-03-02T09:08:44Z</time>
      </trkpt>
      <trkpt lat="45.74376" lon="4.65142">
        <ele>477.4</ele>
        <time>2025-03-02T09:08:45Z</time>
      </trkpt>
      <trkpt lat="45.74375" lon="4.65138">
        <ele>478</ele>
        <time>2025-03-02T09:08:46Z</time>
      </trkpt>
      <trkpt lat="45.74375" lon="4.65133">
        <ele>478.6</ele>
        <time>2025-03-02T09:08:47Z</time>
      </trkpt>
      <trkpt lat="45.74374" lon="4.65129">
        <ele>479</ele>
        <time>2025-03-02T09:08:48Z</time>
      </trkpt>
      <trkpt lat="45.74374" lon="4.65124">
        <ele>479.6</ele>
        <time>2025-03-02T09:08:49Z</time>
      </trkpt>
      <trkpt lat="45.74374" lon="4.6512">
        <ele>479.8</ele>
        <time>2025-03-02T09:08:50Z</time>
      </trkpt>
      <trkpt lat="45.74374" lon="4.65116">
        <ele>480.2</ele>
        <time>2025-03-02T09:08:51Z</time>
      </trkpt>
      <trkpt lat="45.74375" lon="4.65112">
        <ele>480.6</ele>
        <time>2025-03-02T09:08:52Z</time>
      </trkpt>
      <trkpt lat="45.74375" lon="4.65108">
        <ele>481.2</ele>
        <time>2025-03-02T09:08:53Z</time>
      </trkpt>
      <trkpt lat="45.74376" lon="4.65104">
        <ele>481.6</ele>
        <time>2025-03-02T09:08:54Z</time>
      </trkpt>
      <trkpt lat="45.74376" lon="4.651">
        <ele>482.2</ele>
        <time>2025-03-02T09:08:55Z</time>
      </trkpt>
      <trkpt lat="45.74376" lon="4.65096">
        <ele>482.8</ele>
        <time>2025-03-02T09:08:56Z</time>
      </trkpt>
      <trkpt lat="45.74375" lon="4.65091">
        <ele>483.2</ele>
        <time>2025-03-02T09:08:57Z</time>
      </trkpt>
      <trkpt lat="45.74374" lon="4.65086">
        <ele>483.2</ele>
        <time>2025-03-02T09:08:58Z</time>
      </trkpt>
      <trkpt lat="45.74372" lon="4.65081">
        <ele>483.2</ele>
        <time>2025-03-02T09:08:59Z</time>
      </trkpt>
      <trkpt lat="45.7437" lon="4.65076">
        <ele>483.2</ele>
        <time>2025-03-02T09:09:00Z</time>
      </trkpt>
      <trkpt lat="45.74368" lon="4.65071">
        <ele>483</ele>
        <time>2025-03-02T09:09:01Z</time>
      </trkpt>
      <trkpt lat="45.74366" lon="4.65066">
        <ele>482.6</ele>
        <time>2025-03-02T09:09:02Z</time>
      </trkpt>
      <trkpt lat="45.74364" lon="4.65061">
        <ele>482.6</ele>
        <time>2025-03-02T09:09:03Z</time>
      </trkpt>
      <trkpt lat="45.74362" lon="4.65057">
        <ele>482.4</ele>
        <time>2025-03-02T09:09:04Z</time>
      </trkpt>
      <trkpt lat="45.74361" lon="4.65052">
        <ele>482.4</ele>
        <time>2025-03-02T09:09:05Z</time>
      </trkpt>
      <trkpt lat="45.74359" lon="4.65046">
        <ele>482.4</ele>
        <time>2025-03-02T09:09:06Z</time>
      </trkpt>
      <trkpt lat="45.74358" lon="4.6504">
        <ele>482.4</ele>
        <time>2025-03-02T09:09:07Z</time>
      </trkpt>
      <trkpt lat="45.74358" lon="4.65036">
        <ele>482.4</ele>
        <time>2025-03-02T09:09:08Z</time>
      </trkpt>
      <trkpt lat="45.74358" lon="4.65032">
        <ele>482.6</ele>
        <time>2025-03-02T09:09:09Z</time>
      </trkpt>
      <trkpt lat="45.74358" lon="4.65027">
        <ele>482.8</ele>
        <time>2025-03-02T09:09:10Z</time>
      </trkpt>
      <trkpt lat="45.74359" lon="4.65022">
        <ele>483</ele>
        <time>2025-03-02T09:09:11Z</time>
      </trkpt>
      <trkpt lat="45.74359" lon="4.65017">
        <ele>483.2</ele>
        <time>2025-03-02T09:09:12Z</time>
      </trkpt>
      <trkpt lat="45.7436" lon="4.65013">
        <ele>483.8</ele>
        <time>2025-03-02T09:09:13Z</time>
      </trkpt>
      <trkpt lat="45.74361" lon="4.65009">
        <ele>484.4</ele>
        <time>2025-03-02T09:09:14Z</time>
      </trkpt>
      <trkpt lat="45.74361" lon="4.65005">
        <ele>484.8</ele>
        <time>2025-03-02T09:09:15Z</time>
      </trkpt>
      <trkpt lat="45.74362" lon="4.65001">
        <ele>485.6</ele>
        <time>2025-03-02T09:09:16Z</time>
      </trkpt>
      <trkpt lat="45.74363" lon="4.64997">
        <ele>486.4</ele>
        <time>2025-03-02T09:09:17Z</time>
      </trkpt>
      <trkpt lat="45.74363" lon="4.64994">
        <ele>487</ele>
        <time>2025-03-02T09:09:18Z</time>
      </trkpt>
      <trkpt lat="45.74363" lon="4.64991">
        <ele>487.4</ele>
        <time>2025-03-02T09:09:19Z</time>
      </trkpt>
      <trkpt lat="45.74364" lon="4.64988">
        <ele>488</ele>
        <time>2025-03-02T09:09:20Z</time>
      </trkpt>
      <trkpt lat="45.74364" lon="4.64985">
        <ele>488.8</ele>
        <time>2025-03-02T09:09:21Z</time>
      </trkpt>
      <trkpt lat="45.74364" lon="4.64982">
        <ele>489.2</ele>
        <time>2025-03-02T09:09:22Z</time>
      </trkpt>
      <trkpt lat="45.74365" lon="4.64979">
        <ele>489.6</ele>
        <time>2025-03-02T09:09:23Z</time>
      </trkpt>
      <trkpt lat="45.74365" lon="4.64977">
        <ele>490.4</ele>
        <time>2025-03-02T09:09:24Z</time>
      </trkpt>
      <trkpt lat="45.74365" lon="4.64974">
        <ele>490.8</ele>
        <time>2025-03-02T09:09:25Z</time>
      </trkpt>
      <trkpt lat="45.74366" lon="4.64972">
        <ele>491.4</ele>
        <time>2025-03-02T09:09:26Z</time>
      </trkpt>
      <trkpt lat="45.74366" lon="4.64969">
        <ele>492.2</ele>
        <time>2025-03-02T09:09:27Z</time>
      </trkpt>
      <trkpt lat="45.74367" lon="4.64966">
        <ele>492.6</ele>
        <time>2025-03-02T09:09:28Z</time>
      </trkpt>
      <trkpt lat="45.74368" lon="4.64963">
        <ele>493</ele>
        <time>2025-03-02T09:09:29Z</time>
      </trkpt>
      <trkpt lat="45.74367" lon="4.6496">
        <ele>493.6</ele>
        <time>2025-03-02T09:09:30Z</time>
      </trkpt>
      <trkpt lat="45.74368" lon="4.64957">
        <ele>494</ele>
        <time>2025-03-02T09:09:31Z</time>
      </trkpt>
      <trkpt lat="45.74368" lon="4.64955">
        <ele>494.6</ele>
        <time>2025-03-02T09:09:32Z</time>
      </trkpt>
      <trkpt lat="45.74368" lon="4.64952">
        <ele>495</ele>
        <time>2025-03-02T09:09:33Z</time>
      </trkpt>
      <trkpt lat="45.74369" lon="4.64949">
        <ele>495.6</ele>
        <time>2025-03-02T09:09:34Z</time>
      </trkpt>
      <trkpt lat="45.74369" lon="4.64946">
        <ele>495.8</ele>
        <time>2025-03-02T09:09:35Z</time>
      </trkpt>
      <trkpt lat="45.74369" lon="4.64943">
        <ele>496.2</ele>
        <time>2025-03-02T09:09:36Z</time>
      </trkpt>
      <trkpt lat="45.74369" lon="4.6494">
        <ele>496.8</ele>
        <time>2025-03-02T09:09:37Z</time>
      </trkpt>
      <trkpt lat="45.74369" lon="4.64937">
        <ele>497.4</ele>
        <time>2025-03-02T09:09:38Z</time>
      </trkpt>
      <trkpt lat="45.74369" lon="4.64934">
        <ele>498</ele>
        <time>2025-03-02T09:09:39Z</time>
      </trkpt>
      <trkpt lat="45.7437" lon="4.64931">
        <ele>498.2</ele>
        <time>2025-03-02T09:09:40Z</time>
      </trkpt>
      <trkpt lat="45.7437" lon="4.64928">
        <ele>499</ele>
        <time>2025-03-02T09:09:41Z</time>
      </trkpt>
      <trkpt lat="45.74369" lon="4.64925">
        <ele>499.4</ele>
        <time>2025-03-02T09:09:42Z</time>
      </trkpt>
      <trkpt lat="45.74369" lon="4.64922">
        <ele>500</ele>
        <time>2025-03-02T09:09:43Z</time>
      </trkpt>
      <trkpt lat="45.74368" lon="4.64919">
        <ele>500.2</ele>
        <time>2025-03-02T09:09:44Z</time>
      </trkpt>
      <trkpt lat="45.74369" lon="4.64916">
        <ele>500.6</ele>
        <time>2025-03-02T09:09:45Z</time>
      </trkpt>
      <trkpt lat="45.74369" lon="4.64913">
        <ele>501</ele>
        <time>2025-03-02T09:09:46Z</time>
      </trkpt>
      <trkpt lat="45.74368" lon="4.6491">
        <ele>501.6</ele>
        <time>2025-03-02T09:09:47Z</time>
      </trkpt>
      <trkpt lat="45.74369" lon="4.64907">
        <ele>501.8</ele>
        <time>2025-03-02T09:09:48Z</time>
      </trkpt>
      <trkpt lat="45.74368" lon="4.64904">
        <ele>502.2</ele>
        <time>2025-03-02T09:09:49Z</time>
      </trkpt>
      <trkpt lat="45.74368" lon="4.649">
        <ele>502.6</ele>
        <time>2025-03-02T09:09:50Z</time>
      </trkpt>
      <trkpt lat="45.74368" lon="4.64897">
        <ele>502.8</ele>
        <time>2025-03-02T09:09:51Z</time>
      </trkpt>
      <trkpt lat="45.74368" lon="4.64894">
        <ele>503.2</ele>
        <time>2025-03-02T09:09:52Z</time>
      </trkpt>
      <trkpt lat="45.74368" lon="4.64892">
        <ele>503.4</ele>
        <time>2025-03-02T09:09:53Z</time>
      </trkpt>
      <trkpt lat="45.74368" lon="4.6489">
        <ele>504</ele>
        <time>2025-03-02T09:09:54Z</time>
      </trkpt>
      <trkpt lat="45.74367" lon="4.64887">
        <ele>504.4</ele>
        <time>2025-03-02T09:09:55Z</time>
      </trkpt>
      <trkpt lat="45.74367" lon="4.64884">
        <ele>504.8</ele>
        <time>2025-03-02T09:09:56Z</time>
      </trkpt>
      <trkpt lat="45.74367" lon="4.64881">
        <ele>505</ele>
        <time>2025-03-02T09:09:57Z</time>
      </trkpt>
      <trkpt lat="45.74366" lon="4.64878">
        <ele>505.4</ele>
        <time>2025-03-02T09:09:58Z</time>
      </trkpt>
      <trkpt lat="45.74366" lon="4.64874">
        <ele>505.6</ele>
        <time>2025-03-02T09:09:59Z</time>
      </trkpt>
      <trkpt lat="45.74365" lon="4.64871">
        <ele>506</ele>
        <time>2025-03-02T09:10:00Z</time>
      </trkpt>
      <trkpt lat="45.74365" lon="4.64868">
        <ele>506.2</ele>
        <time>2025-03-02T09:10:01Z</time>
      </trkpt>
      <trkpt lat="45.74365" lon="4.64865">
        <ele>506.4</ele>
        <time>2025-03-02T09:10:02Z</time>
      </trkpt>
      <trkpt lat="45.74365" lon="4.64862">
        <ele>506.6</ele>
        <time>2025-03-02T09:10:03Z</time>
      </trkpt>
      <trkpt lat="45.74365" lon="4.64859">
        <ele>507</ele>
        <time>2025-03-02T09:10:04Z</time>
      </trkpt>
      <trkpt lat="45.74364" lon="4.64856">
        <ele>507.4</ele>
        <time>2025-03-02T09:10:05Z</time>
      </trkpt>
      <trkpt lat="45.74364" lon="4.64853">
        <ele>507.6</ele>
        <time>2025-03-02T09:10:06Z</time>
      </trkpt>
      <trkpt lat="45.74363" lon="4.6485">
        <ele>508</ele>
        <time>2025-03-02T09:10:07Z</time>
      </trkpt>
      <trkpt lat="45.74363" lon="4.64846">
        <ele>508.4</ele>
        <time>2025-03-02T09:10:08Z</time>
      </trkpt>
      <trkpt lat="45.74363" lon="4.64843">
        <ele>508.8</ele>
        <time>2025-03-02T09:10:09Z</time>
      </trkpt>
      <trkpt lat="45.74362" lon="4.6484">
        <ele>509</ele>
        <time>2025-03-02T09:10:10Z</time>
      </trkpt>
      <trkpt lat="45.74362" lon="4.64837">
        <ele>509.6</ele>
        <time>2025-03-02T09:10:11Z</time>
      </trkpt>
      <trkpt lat="45.74361" lon="4.64834">
        <ele>509.8</ele>
        <time>2025-03-02T09:10:12Z</time>
      </trkpt>
      <trkpt lat="45.74361" lon="4.64831">
        <ele>510</ele>
        <time>2025-03-02T09:10:13Z</time>
      </trkpt>
      <trkpt lat="45.74361" lon="4.64828">
        <ele>510.4</ele>
        <time>2025-03-02T09:10:14Z</time>
      </trkpt>
      <trkpt lat="45.7436" lon="4.64825">
        <ele>510.8</ele>
        <time>2025-03-02T09:10:15Z</time>
      </trkpt>
      <trkpt lat="45.7436" lon="4.64822">
        <ele>511.2</ele>
        <time>2025-03-02T09:10:16Z</time>
      </trkpt>
      <trkpt lat="45.7436" lon="4.64819">
        <ele>511.6</ele>
        <time>2025-03-02T09:10:17Z</time>
      </trkpt>
      <trkpt lat="45.74359" lon="4.64815">
        <ele>512</ele>
        <time>2025-03-02T09:10:18Z</time>
      </trkpt>
      <trkpt lat="45.74359" lon="4.64813">
        <ele>512.2</ele>
        <time>2025-03-02T09:10:19Z</time>
      </trkpt>
      <trkpt lat="45.7436" lon="4.6481">
        <ele>512.6</ele>
        <time>2025-03-02T09:10:20Z</time>
      </trkpt>
      <trkpt lat="45.7436" lon="4.64807">
        <ele>512.8</ele>
        <time>2025-03-02T09:10:21Z</time>
      </trkpt>
      <trkpt lat="45.7436" lon="4.64805">
        <ele>513.2</ele>
        <time>2025-03-02T09:10:22Z</time>
      </trkpt>
      <trkpt lat="45.7436" lon="4.64803">
        <ele>513.4</ele>
        <time>2025-03-02T09:10:23Z</time>
      </trkpt>
      <trkpt lat="45.7436" lon="4.648">
        <ele>513.6</ele>
        <time>2025-03-02T09:10:24Z</time>
      </trkpt>
      <trkpt lat="45.74361" lon="4.64798">
        <ele>513.8</ele>
        <time>2025-03-02T09:10:25Z</time>
      </trkpt>
      <trkpt lat="45.74363" lon="4.64796">
        <ele>513.8</ele>
        <time>2025-03-02T09:10:26Z</time>
      </trkpt>
      <trkpt lat="45.74364" lon="4.64793">
        <ele>514</ele>
        <time>2025-03-02T09:10:27Z</time>
      </trkpt>
      <trkpt lat="45.74366" lon="4.64791">
        <ele>514.4</ele>
        <time>2025-03-02T09:10:28Z</time>
      </trkpt>
      <trkpt lat="45.74368" lon="4.64789">
        <ele>514.6</ele>
        <time>2025-03-02T09:10:29Z</time>
      </trkpt>
      <trkpt lat="45.74369" lon="4.64787">
        <ele>515</ele>
        <time>2025-03-02T09:10:30Z</time>
      </trkpt>
      <trkpt lat="45.74371" lon="4.64785">
        <ele>515.2</ele>
        <time>2025-03-02T09:10:31Z</time>
      </trkpt>
      <trkpt lat="45.74372" lon="4.64782">
        <ele>515.6</ele>
        <time>2025-03-02T09:10:32Z</time>
      </trkpt>
      <trkpt lat="45.74372" lon="4.64779">
        <ele>516</ele>
        <time>2025-03-02T09:10:33Z</time>
      </trkpt>
      <trkpt lat="45.74372" lon="4.64776">
        <ele>516.2</ele>
        <time>2025-03-02T09:10:34Z</time>
      </trkpt>
      <trkpt lat="45.74372" lon="4.64772">
        <ele>516.4</ele>
        <time>2025-03-02T09:10:35Z</time>
      </trkpt>
      <trkpt lat="45.74372" lon="4.6477">
        <ele>516.6</ele>
        <time>2025-03-02T09:10:36Z</time>
      </trkpt>
      <trkpt lat="45.74372" lon="4.64767">
        <ele>517</ele>
        <time>2025-03-02T09:10:37Z</time>
      </trkpt>
      <trkpt lat="45.74372" lon="4.64764">
        <ele>517.4</ele>
        <time>2025-03-02T09:10:38Z</time>
      </trkpt>
      <trkpt lat="45.74373" lon="4.64761">
        <ele>517.8</ele>
        <time>2025-03-02T09:10:39Z</time>
      </trkpt>
      <trkpt lat="45.74373" lon="4.64758">
        <ele>518</ele>
        <time>2025-03-02T09:10:40Z</time>
      </trkpt>
      <trkpt lat="45.74373" lon="4.64755">
        <ele>518.4</ele>
        <time>2025-03-02T09:10:41Z</time>
      </trkpt>
      <trkpt lat="45.74374" lon="4.64751">
        <ele>518.8</ele>
        <time>2025-03-02T09:10:42Z</time>
      </trkpt>
      <trkpt lat="45.74374" lon="4.64747">
        <ele>519</ele>
        <time>2025-03-02T09:10:43Z</time>
      </trkpt>
      <trkpt lat="45.74374" lon="4.64744">
        <ele>519.4</ele>
        <time>2025-03-02T09:10:44Z</time>
      </trkpt>
      <trkpt lat="45.74375" lon="4.64741">
        <ele>519.4</ele>
        <time>2025-03-02T09:10:45Z</time>
      </trkpt>
      <trkpt lat="45.74376" lon="4.64738">
        <ele>519.6</ele>
        <time>2025-03-02T09:10:46Z</time>
      </trkpt>
      <trkpt lat="45.74378" lon="4.64737">
        <ele>519.8</ele>
        <time>2025-03-02T09:10:47Z</time>
      </trkpt>
      <trkpt lat="45.7438" lon="4.64736">
        <ele>520</ele>
        <time>2025-03-02T09:10:48Z</time>
      </trkpt>
      <trkpt lat="45.74382" lon="4.64735">
        <ele>520.4</ele>
        <time>2025-03-02T09:10:49Z</time>
      </trkpt>
      <trkpt lat="45.74383" lon="4.64735">
        <ele>520.6</ele>
        <time>2025-03-02T09:10:50Z</time>
      </trkpt>
      <trkpt lat="45.74386" lon="4.64735">
        <ele>520.8</ele>
        <time>2025-03-02T09:10:51Z</time>
      </trkpt>
      <trkpt lat="45.74388" lon="4.64736">
        <ele>521</ele>
        <time>2025-03-02T09:10:52Z</time>
      </trkpt>
      <trkpt lat="45.7439" lon="4.64736">
        <ele>521.4</ele>
        <time>2025-03-02T09:10:53Z</time>
      </trkpt>
      <trkpt lat="45.74392" lon="4.64735">
        <ele>521.6</ele>
        <time>2025-03-02T09:10:54Z</time>
      </trkpt>
      <trkpt lat="45.74394" lon="4.64734">
        <ele>522</ele>
        <time>2025-03-02T09:10:55Z</time>
      </trkpt>
      <trkpt lat="45.74396" lon="4.64733">
        <ele>522.4</ele>
        <time>2025-03-02T09:10:56Z</time>
      </trkpt>
      <trkpt lat="45.74398" lon="4.64732">
        <ele>522.8</ele>
        <time>2025-03-02T09:10:57Z</time>
      </trkpt>
      <trkpt lat="45.744" lon="4.64731">
        <ele>523</ele>
        <time>2025-03-02T09:10:58Z</time>
      </trkpt>
      <trkpt lat="45.74402" lon="4.6473">
        <ele>523.2</ele>
        <time>2025-03-02T09:10:59Z</time>
      </trkpt>
      <trkpt lat="45.74404" lon="4.64729">
        <ele>523.6</ele>
        <time>2025-03-02T09:11:00Z</time>
      </trkpt>
      <trkpt lat="45.74406" lon="4.64729">
        <ele>523.8</ele>
        <time>2025-03-02T09:11:01Z</time>
      </trkpt>
      <trkpt lat="45.74408" lon="4.64728">
        <ele>524</ele>
        <time>2025-03-02T09:11:02Z</time>
      </trkpt>
      <trkpt lat="45.7441" lon="4.64727">
        <ele>524.2</ele>
        <time>2025-03-02T09:11:03Z</time>
      </trkpt>
      <trkpt lat="45.74412" lon="4.64726">
        <ele>524.4</ele>
        <time>2025-03-02T09:11:04Z</time>
      </trkpt>
      <trkpt lat="45.74414" lon="4.64725">
        <ele>524.8</ele>
        <time>2025-03-02T09:11:05Z</time>
      </trkpt>
      <trkpt lat="45.74416" lon="4.64724">
        <ele>525.2</ele>
        <time>2025-03-02T09:11:06Z</time>
      </trkpt>
      <trkpt lat="45.74418" lon="4.64723">
        <ele>525.4</ele>
        <time>2025-03-02T09:11:07Z</time>
      </trkpt>
      <trkpt lat="45.7442" lon="4.64723">
        <ele>525.8</ele>
        <time>2025-03-02T09:11:08Z</time>
      </trkpt>
      <trkpt lat="45.74422" lon="4.64722">
        <ele>526.2</ele>
        <time>2025-03-02T09:11:09Z</time>
      </trkpt>
      <trkpt lat="45.74424" lon="4.64721">
        <ele>526.6</ele>
        <time>2025-03-02T09:11:10Z</time>
      </trkpt>
      <trkpt lat="45.74426" lon="4.6472">
        <ele>527</ele>
        <time>2025-03-02T09:11:11Z</time>
      </trkpt>
      <trkpt lat="45.74429" lon="4.64719">
        <ele>527.4</ele>
        <time>2025-03-02T09:11:12Z</time>
      </trkpt>
      <trkpt lat="45.7443" lon="4.64719">
        <ele>527.6</ele>
        <time>2025-03-02T09:11:13Z</time>
      </trkpt>
      <trkpt lat="45.74431" lon="4.64718">
        <ele>528.2</ele>
        <time>2025-03-02T09:11:14Z</time>
      </trkpt>
      <trkpt lat="45.74431" lon="4.64718">
        <ele>528.8</ele>
        <time>2025-03-02T09:11:15Z</time>
      </trkpt>
      <trkpt lat="45.74431" lon="4.64718">
        <ele>529.4</ele>
        <time>2025-03-02T09:11:16Z</time>
      </trkpt>
      <trkpt lat="45.74431" lon="4.64718">
        <ele>529.8</ele>
        <time>2025-03-02T09:11:17Z</time>
      </trkpt>
      <trkpt lat="45.74432" lon="4.64718">
        <ele>530</ele>
        <time>2025-03-02T09:11:18Z</time>
      </trkpt>
      <trkpt lat="45.74434" lon="4.64717">
        <ele>530.2</ele>
        <time>2025-03-02T09:11:19Z</time>
      </trkpt>
      <trkpt lat="45.74436" lon="4.64716">
        <ele>530.2</ele>
        <time>2025-03-02T09:11:20Z</time>
      </trkpt>
      <trkpt lat="45.74438" lon="4.64716">
        <ele>530.2</ele>
        <time>2025-03-02T09:11:21Z</time>
      </trkpt>
      <trkpt lat="45.7444" lon="4.64715">
        <ele>530.4</ele>
        <time>2025-03-02T09:11:22Z</time>
      </trkpt>
      <trkpt lat="45.74441" lon="4.64713">
        <ele>530.6</ele>
        <time>2025-03-02T09:11:23Z</time>
      </trkpt>
      <trkpt lat="45.74443" lon="4.64712">
        <ele>531.2</ele>
        <time>2025-03-02T09:11:24Z</time>
      </trkpt>
      <trkpt lat="45.74444" lon="4.64711">
        <ele>531.8</ele>
        <time>2025-03-02T09:11:25Z</time>
      </trkpt>
      <trkpt lat="45.74446" lon="4.6471">
        <ele>532.2</ele>
        <time>2025-03-02T09:11:26Z</time>
      </trkpt>
      <trkpt lat="45.74448" lon="4.64709">
        <ele>532.4</ele>
        <time>2025-03-02T09:11:27Z</time>
      </trkpt>
      <trkpt lat="45.74449" lon="4.64708">
        <ele>532.8</ele>
        <time>2025-03-02T09:11:28Z</time>
      </trkpt>
      <trkpt lat="45.74451" lon="4.64707">
        <ele>533</ele>
        <time>2025-03-02T09:11:29Z</time>
      </trkpt>
      <trkpt lat="45.74452" lon="4.64708">
        <ele>533.4</ele>
        <time>2025-03-02T09:11:30Z</time>
      </trkpt>
      <trkpt lat="45.74454" lon="4.64709">
        <ele>533.8</ele>
        <time>2025-03-02T09:11:31Z</time>
      </trkpt>
      <trkpt lat="45.74456" lon="4.64709">
        <ele>534</ele>
        <time>2025-03-02T09:11:32Z</time>
      </trkpt>
      <trkpt lat="45.74457" lon="4.6471">
        <ele>534.6</ele>
        <time>2025-03-02T09:11:33Z</time>
      </trkpt>
      <trkpt lat="45.74459" lon="4.64711">
        <ele>534.6</ele>
        <time>2025-03-02T09:11:34Z</time>
      </trkpt>
      <trkpt lat="45.74459" lon="4.64712">
        <ele>534.8</ele>
        <time>2025-03-02T09:11:35Z</time>
      </trkpt>
      <trkpt lat="45.7446" lon="4.64714">
        <ele>535</ele>
        <time>2025-03-02T09:11:36Z</time>
      </trkpt>
      <trkpt lat="45.74461" lon="4.64716">
        <ele>535.2</ele>
        <time>2025-03-02T09:11:37Z</time>
      </trkpt>
      <trkpt lat="45.74462" lon="4.64718">
        <ele>535.6</ele>
        <time>2025-03-02T09:11:38Z</time>
      </trkpt>
      <trkpt lat="45.74463" lon="4.6472">
        <ele>536</ele>
        <time>2025-03-02T09:11:39Z</time>
      </trkpt>
      <trkpt lat="45.74464" lon="4.64721">
        <ele>536.2</ele>
        <time>2025-03-02T09:11:40Z</time>
      </trkpt>
      <trkpt lat="45.74465" lon="4.64722">
        <ele>536.2</ele>
        <time>2025-03-02T09:11:41Z</time>
      </trkpt>
      <trkpt lat="45.74467" lon="4.64724">
        <ele>536.6</ele>
        <time>2025-03-02T09:11:42Z</time>
      </trkpt>
      <trkpt lat="45.74468" lon="4.64725">
        <ele>536.8</ele>
        <time>2025-03-02T09:11:43Z</time>
      </trkpt>
      <trkpt lat="45.74469" lon="4.64726">
        <ele>537</ele>
        <time>2025-03-02T09:11:44Z</time>
      </trkpt>
      <trkpt lat="45.74471" lon="4.64728">
        <ele>537.2</ele>
        <time>2025-03-02T09:11:45Z</time>
      </trkpt>
      <trkpt lat="45.74473" lon="4.64728">
        <ele>537.4</ele>
        <time>2025-03-02T09:11:46Z</time>
      </trkpt>
      <trkpt lat="45.74475" lon="4.64729">
        <ele>537.6</ele>
        <time>2025-03-02T09:11:47Z</time>
      </trkpt>
      <trkpt lat="45.74476" lon="4.64729">
        <ele>537.8</ele>
        <time>2025-03-02T09:11:48Z</time>
      </trkpt>
      <trkpt lat="45.74478" lon="4.64729">
        <ele>538</ele>
        <time>2025-03-02T09:11:49Z</time>
      </trkpt>
      <trkpt lat="45.74479" lon="4.64729">
        <ele>538.2</ele>
        <time>2025-03-02T09:11:50Z</time>
      </trkpt>
      <trkpt lat="45.74481" lon="4.64729">
        <ele>538.4</ele>
        <time>2025-03-02T09:11:51Z</time>
      </trkpt>
      <trkpt lat="45.74482" lon="4.64729">
        <ele>538.8</ele>
        <time>2025-03-02T09:11:52Z</time>
      </trkpt>
      <trkpt lat="45.74484" lon="4.64729">
        <ele>539</ele>
        <time>2025-03-02T09:11:53Z</time>
      </trkpt>
      <trkpt lat="45.74486" lon="4.64729">
        <ele>539.2</ele>
        <time>2025-03-02T09:11:54Z</time>
      </trkpt>
      <trkpt lat="45.74488" lon="4.64729">
        <ele>539.4</ele>
        <time>2025-03-02T09:11:55Z</time>
      </trkpt>
      <trkpt lat="45.7449" lon="4.64729">
        <ele>539.6</ele>
        <time>2025-03-02T09:11:56Z</time>
      </trkpt>
      <trkpt lat="45.74492" lon="4.64729">
        <ele>539.8</ele>
        <time>2025-03-02T09:11:57Z</time>
      </trkpt>
      <trkpt lat="45.74494" lon="4.64728">
        <ele>540</ele>
        <time>2025-03-02T09:11:58Z</time>
      </trkpt>
      <trkpt lat="45.74496" lon="4.64728">
        <ele>540.4</ele>
        <time>2025-03-02T09:11:59Z</time>
      </trkpt>
      <trkpt lat="45.74498" lon="4.64727">
        <ele>540.6</ele>
        <time>2025-03-02T09:12:00Z</time>
      </trkpt>
      <trkpt lat="45.745" lon="4.64727">
        <ele>540.6</ele>
        <time>2025-03-02T09:12:01Z</time>
      </trkpt>
      <trkpt lat="45.74502" lon="4.64726">
        <ele>540.8</ele>
        <time>2025-03-02T09:12:02Z</time>
      </trkpt>
      <trkpt lat="45.74504" lon="4.64725">
        <ele>541</ele>
        <time>2025-03-02T09:12:03Z</time>
      </trkpt>
      <trkpt lat="45.74506" lon="4.64725">
        <ele>541.2</ele>
        <time>2025-03-02T09:12:04Z</time>
      </trkpt>
      <trkpt lat="45.74509" lon="4.64724">
        <ele>541.6</ele>
        <time>2025-03-02T09:12:05Z</time>
      </trkpt>
      <trkpt lat="45.74511" lon="4.64723">
        <ele>541.6</ele>
        <time>2025-03-02T09:12:06Z</time>
      </trkpt>
      <trkpt lat="45.74513" lon="4.64723">
        <ele>542</ele>
        <time>2025-03-02T09:12:07Z</time>
      </trkpt>
      <trkpt lat="45.74515" lon="4.64722">
        <ele>542.2</ele>
        <time>2025-03-02T09:12:08Z</time>
      </trkpt>
      <trkpt lat="45.74517" lon="4.64722">
        <ele>542.4</ele>
        <time>2025-03-02T09:12:09Z</time>
      </trkpt>
      <trkpt lat="45.7452" lon="4.64721">
        <ele>542.4</ele>
        <time>2025-03-02T09:12:10Z</time>
      </trkpt>
      <trkpt lat="45.74522" lon="4.64721">
        <ele>542.6</ele>
        <time>2025-03-02T09:12:11Z</time>
      </trkpt>
      <trkpt lat="45.74524" lon="4.6472">
        <ele>543</ele>
        <time>2025-03-02T09:12:12Z</time>
      </trkpt>
      <trkpt lat="45.74526" lon="4.64719">
        <ele>543.4</ele>
        <time>2025-03-02T09:12:13Z</time>
      </trkpt>
      <trkpt lat="45.74528" lon="4.64718">
        <ele>543.4</ele>
        <time>2025-03-02T09:12:14Z</time>
      </trkpt>
      <trkpt lat="45.7453" lon="4.64717">
        <ele>543.6</ele>
        <time>2025-03-02T09:12:15Z</time>
      </trkpt>
      <trkpt lat="45.74532" lon="4.64717">
        <ele>544</ele>
        <time>2025-03-02T09:12:16Z</time>
      </trkpt>
      <trkpt lat="45.74534" lon="4.64715">
        <ele>544.2</ele>
        <time>2025-03-02T09:12:17Z</time>
      </trkpt>
      <trkpt lat="45.74537" lon="4.64714">
        <ele>544.4</ele>
        <time>2025-03-02T09:12:18Z</time>
      </trkpt>
      <trkpt lat="45.74539" lon="4.64713">
        <ele>544.8</ele>
        <time>2025-03-02T09:12:19Z</time>
      </trkpt>
      <trkpt lat="45.74542" lon="4.64712">
        <ele>544.8</ele>
        <time>2025-03-02T09:12:20Z</time>
      </trkpt>
      <trkpt lat="45.74544" lon="4.64711">
        <ele>545.2</ele>
        <time>2025-03-02T09:12:21Z</time>
      </trkpt>
      <trkpt lat="45.74546" lon="4.6471">
        <ele>545.2</ele>
        <time>2025-03-02T09:12:22Z</time>
      </trkpt>
      <trkpt lat="45.74548" lon="4.64708">
        <ele>545.4</ele>
        <time>2025-03-02T09:12:23Z</time>
      </trkpt>
      <trkpt lat="45.7455" lon="4.64707">
        <ele>545.6</ele>
        <time>2025-03-02T09:12:24Z</time>
      </trkpt>
      <trkpt lat="45.74553" lon="4.64706">
        <ele>545.8</ele>
        <time>2025-03-02T09:12:25Z</time>
      </trkpt>
      <trkpt lat="45.74554" lon="4.64705">
        <ele>546</ele>
        <time>2025-03-02T09:12:26Z</time>
      </trkpt>
      <trkpt lat="45.74556" lon="4.64703">
        <ele>546</ele>
        <time>2025-03-02T09:12:27Z</time>
      </trkpt>
      <trkpt lat="45.74556" lon="4.64701">
        <ele>546.4</ele>
        <time>2025-03-02T09:12:28Z</time>
      </trkpt>
      <trkpt lat="45.74556" lon="4.64699">
        <ele>546.8</ele>
        <time>2025-03-02T09:12:29Z</time>
      </trkpt>
      <trkpt lat="45.74555" lon="4.64696">
        <ele>546.8</ele>
        <time>2025-03-02T09:12:30Z</time>
      </trkpt>
      <trkpt lat="45.74554" lon="4.64693">
        <ele>547</ele>
        <time>2025-03-02T09:12:31Z</time>
      </trkpt>
      <trkpt lat="45.74553" lon="4.64691">
        <ele>547.2</ele>
        <time>2025-03-02T09:12:32Z</time>
      </trkpt>
      <trkpt lat="45.74552" lon="4.64688">
        <ele>547.2</ele>
        <time>2025-03-02T09:12:33Z</time>
      </trkpt>
      <trkpt lat="45.74552" lon="4.64686">
        <ele>547.6</ele>
        <time>2025-03-02T09:12:34Z</time>
      </trkpt>
      <trkpt lat="45.74551" lon="4.64683">
        <ele>547.8</ele>
        <time>2025-03-02T09:12:35Z</time>
      </trkpt>
      <trkpt lat="45.74551" lon="4.6468">
        <ele>547.8</ele>
        <time>2025-03-02T09:12:36Z</time>
      </trkpt>
      <trkpt lat="45.7455" lon="4.64677">
        <ele>548</ele>
        <time>2025-03-02T09:12:37Z</time>
      </trkpt>
      <trkpt lat="45.74548" lon="4.64675">
        <ele>548.2</ele>
        <time>2025-03-02T09:12:38Z</time>
      </trkpt>
      <trkpt lat="45.74547" lon="4.64672">
        <ele>548.6</ele>
        <time>2025-03-02T09:12:39Z</time>
      </trkpt>
      <trkpt lat="45.74546" lon="4.64669">
        <ele>548.8</ele>
        <time>2025-03-02T09:12:40Z</time>
      </trkpt>
      <trkpt lat="45.74545" lon="4.64666">
        <ele>549.2</ele>
        <time>2025-03-02T09:12:41Z</time>
      </trkpt>
      <trkpt lat="45.74544" lon="4.64663">
        <ele>549.4</ele>
        <time>2025-03-02T09:12:42Z</time>
      </trkpt>
      <trkpt lat="45.74543" lon="4.6466">
        <ele>549.8</ele>
        <time>2025-03-02T09:12:43Z</time>
      </trkpt>
      <trkpt lat="45.74542" lon="4.64657">
        <ele>550</ele>
        <time>2025-03-02T09:12:44Z</time>
      </trkpt>
      <trkpt lat="45.74541" lon="4.64653">
        <ele>550.2</ele>
        <time>2025-03-02T09:12:45Z</time>
      </trkpt>
      <trkpt lat="45.7454" lon="4.6465">
        <ele>550.4</ele>
        <time>2025-03-02T09:12:46Z</time>
      </trkpt>
      <trkpt lat="45.74539" lon="4.64647">
        <ele>550.6</ele>
        <time>2025-03-02T09:12:47Z</time>
      </trkpt>
      <trkpt lat="45.74537" lon="4.64643">
        <ele>550.8</ele>
        <time>2025-03-02T09:12:48Z</time>
      </trkpt>
      <trkpt lat="45.74535" lon="4.6464">
        <ele>550.8</ele>
        <time>2025-03-02T09:12:49Z</time>
      </trkpt>
      <trkpt lat="45.74534" lon="4.64637">
        <ele>551.2</ele>
        <time>2025-03-02T09:12:50Z</time>
      </trkpt>
      <trkpt lat="45.74533" lon="4.64633">
        <ele>551.4</ele>
        <time>2025-03-02T09:12:51Z</time>
      </trkpt>
      <trkpt lat="45.74532" lon="4.6463">
        <ele>551.6</ele>
        <time>2025-03-02T09:12:52Z</time>
      </trkpt>
      <trkpt lat="45.7453" lon="4.64626">
        <ele>551.8</ele>
        <time>2025-03-02T09:12:53Z</time>
      </trkpt>
      <trkpt lat="45.7453" lon="4.64623">
        <ele>552</ele>
        <time>2025-03-02T09:12:54Z</time>
      </trkpt>
      <trkpt lat="45.74529" lon="4.64619">
        <ele>552</ele>
        <time>2025-03-02T09:12:55Z</time>
      </trkpt>
      <trkpt lat="45.74528" lon="4.64616">
        <ele>552.2</ele>
        <time>2025-03-02T09:12:56Z</time>
      </trkpt>
      <trkpt lat="45.74527" lon="4.64613">
        <ele>552.6</ele>
        <time>2025-03-02T09:12:57Z</time>
      </trkpt>
      <trkpt lat="45.74526" lon="4.64609">
        <ele>552.8</ele>
        <time>2025-03-02T09:12:58Z</time>
      </trkpt>
      <trkpt lat="45.74526" lon="4.64605">
        <ele>553.2</ele>
        <time>2025-03-02T09:12:59Z</time>
      </trkpt>
      <trkpt lat="45.74525" lon="4.64602">
        <ele>553.4</ele>
        <time>2025-03-02T09:13:00Z</time>
      </trkpt>
      <trkpt lat="45.74524" lon="4.64598">
        <ele>553.8</ele>
        <time>2025-03-02T09:13:01Z</time>
      </trkpt>
      <trkpt lat="45.74523" lon="4.64595">
        <ele>554</ele>
        <time>2025-03-02T09:13:02Z</time>
      </trkpt>
      <trkpt lat="45.74523" lon="4.64592">
        <ele>554.4</ele>
        <time>2025-03-02T09:13:03Z</time>
      </trkpt>
      <trkpt lat="45.74522" lon="4.64588">
        <ele>554.8</ele>
        <time>2025-03-02T09:13:04Z</time>
      </trkpt>
      <trkpt lat="45.74521" lon="4.64585">
        <ele>555</ele>
        <time>2025-03-02T09:13:05Z</time>
      </trkpt>
      <trkpt lat="45.7452" lon="4.64582">
        <ele>555.4</ele>
        <time>2025-03-02T09:13:06Z</time>
      </trkpt>
      <trkpt lat="45.74519" lon="4.64578">
        <ele>555.6</ele>
        <time>2025-03-02T09:13:07Z</time>
      </trkpt>
      <trkpt lat="45.74518" lon="4.64575">
        <ele>555.8</ele>
        <time>2025-03-02T09:13:08Z</time>
      </trkpt>
      <trkpt lat="45.74516" lon="4.64571">
        <ele>556.2</ele>
        <time>2025-03-02T09:13:09Z</time>
      </trkpt>
      <trkpt lat="45.74515" lon="4.64568">
        <ele>556.2</ele>
        <time>2025-03-02T09:13:10Z</time>
      </trkpt>
      <trkpt lat="45.74514" lon="4.64564">
        <ele>556.6</ele>
        <time>2025-03-02T09:13:11Z</time>
      </trkpt>
      <trkpt lat="45.74513" lon="4.64561">
        <ele>556.8</ele>
        <time>2025-03-02T09:13:12Z</time>
      </trkpt>
      <trkpt lat="45.74512" lon="4.64557">
        <ele>557</ele>
        <time>2025-03-02T09:13:13Z</time>
      </trkpt>
      <trkpt lat="45.74511" lon="4.64554">
        <ele>557.4</ele>
        <time>2025-03-02T09:13:14Z</time>
      </trkpt>
      <trkpt lat="45.7451" lon="4.64551">
        <ele>557.6</ele>
        <time>2025-03-02T09:13:15Z</time>
      </trkpt>
      <trkpt lat="45.74509" lon="4.64548">
        <ele>558</ele>
        <time>2025-03-02T09:13:16Z</time>
      </trkpt>
      <trkpt lat="45.74508" lon="4.64545">
        <ele>558.2</ele>
        <time>2025-03-02T09:13:17Z</time>
      </trkpt>
      <trkpt lat="45.74508" lon="4.64542">
        <ele>558.6</ele>
        <time>2025-03-02T09:13:18Z</time>
      </trkpt>
      <trkpt lat="45.74507" lon="4.64539">
        <ele>559</ele>
        <time>2025-03-02T09:13:19Z</time>
      </trkpt>
      <trkpt lat="45.74507" lon="4.64536">
        <ele>559.4</ele>
        <time>2025-03-02T09:13:20Z</time>
      </trkpt>
      <trkpt lat="45.74506" lon="4.64533">
        <ele>559.8</ele>
        <time>2025-03-02T09:13:21Z</time>
      </trkpt>
      <trkpt lat="45.74506" lon="4.64529">
        <ele>560</ele>
        <time>2025-03-02T09:13:22Z</time>
      </trkpt>
      <trkpt lat="45.74505" lon="4.64525">
        <ele>560.4</ele>
        <time>2025-03-02T09:13:23Z</time>
      </trkpt>
      <trkpt lat="45.74505" lon="4.64522">
        <ele>560.6</ele>
        <time>2025-03-02T09:13:24Z</time>
      </trkpt>
      <trkpt lat="45.74504" lon="4.64518">
        <ele>560.8</ele>
        <time>2025-03-02T09:13:25Z</time>
      </trkpt>
      <trkpt lat="45.74503" lon="4.64515">
        <ele>561</ele>
        <time>2025-03-02T09:13:26Z</time>
      </trkpt>
      <trkpt lat="45.74503" lon="4.64512">
        <ele>561.2</ele>
        <time>2025-03-02T09:13:27Z</time>
      </trkpt>
      <trkpt lat="45.74503" lon="4.64508">
        <ele>561.6</ele>
        <time>2025-03-02T09:13:28Z</time>
      </trkpt>
      <trkpt lat="45.74502" lon="4.64505">
        <ele>561.8</ele>
        <time>2025-03-02T09:13:29Z</time>
      </trkpt>
      <trkpt lat="45.74502" lon="4.64501">
        <ele>562</ele>
        <time>2025-03-02T09:13:30Z</time>
      </trkpt>
      <trkpt lat="45.74502" lon="4.64498">
        <ele>562.2</ele>
        <time>2025-03-02T09:13:31Z</time>
      </trkpt>
      <trkpt lat="45.74502" lon="4.64494">
        <ele>562.4</ele>
        <time>2025-03-02T09:13:32Z</time>
      </trkpt>
      <trkpt lat="45.74502" lon="4.64491">
        <ele>562.6</ele>
        <time>2025-03-02T09:13:33Z</time>
      </trkpt>
      <trkpt lat="45.74502" lon="4.64487">
        <ele>562.8</ele>
        <time>2025-03-02T09:13:34Z</time>
      </trkpt>
      <trkpt lat="45.74502" lon="4.64484">
        <ele>563.2</ele>
        <time>2025-03-02T09:13:35Z</time>
      </trkpt>
      <trkpt lat="45.74501" lon="4.64481">
        <ele>563.4</ele>
        <time>2025-03-02T09:13:36Z</time>
      </trkpt>
      <trkpt lat="45.74501" lon="4.64478">
        <ele>563.6</ele>
        <time>2025-03-02T09:13:37Z</time>
      </trkpt>
      <trkpt lat="45.745" lon="4.64474">
        <ele>564</ele>
        <time>2025-03-02T09:13:38Z</time>
      </trkpt>
      <trkpt lat="45.74499" lon="4.64471">
        <ele>564.2</ele>
        <time>2025-03-02T09:13:39Z</time>
      </trkpt>
      <trkpt lat="45.74499" lon="4.64468">
        <ele>564.6</ele>
        <time>2025-03-02T09:13:40Z</time>
      </trkpt>
      <trkpt lat="45.74498" lon="4.64464">
        <ele>565</ele>
        <time>2025-03-02T09:13:41Z</time>
      </trkpt>
      <trkpt lat="45.74497" lon="4.64461">
        <ele>565.2</ele>
        <time>2025-03-02T09:13:42Z</time>
      </trkpt>
      <trkpt lat="45.74496" lon="4.64458">
        <ele>565.4</ele>
        <time>2025-03-02T09:13:43Z</time>
      </trkpt>
      <trkpt lat="45.74496" lon="4.64454">
        <ele>565.6</ele>
        <time>2025-03-02T09:13:44Z</time>
      </trkpt>
      <trkpt lat="45.74496" lon="4.64451">
        <ele>565.8</ele>
        <time>2025-03-02T09:13:45Z</time>
      </trkpt>
      <trkpt lat="45.74496" lon="4.64448">
        <ele>566</ele>
        <time>2025-03-02T09:13:46Z</time>
      </trkpt>
      <trkpt lat="45.74496" lon="4.64444">
        <ele>566.2</ele>
        <time>2025-03-02T09:13:47Z</time>
      </trkpt>
      <trkpt lat="45.74496" lon="4.64441">
        <ele>566.4</ele>
        <time>2025-03-02T09:13:48Z</time>
      </trkpt>
      <trkpt lat="45.74496" lon="4.64438">
        <ele>566.8</ele>
        <time>2025-03-02T09:13:49Z</time>
      </trkpt>
      <trkpt lat="45.74496" lon="4.64435">
        <ele>567</ele>
        <time>2025-03-02T09:13:50Z</time>
      </trkpt>
      <trkpt lat="45.74496" lon="4.64431">
        <ele>567.4</ele>
        <time>2025-03-02T09:13:51Z</time>
      </trkpt>
      <trkpt lat="45.74496" lon="4.64428">
        <ele>567.6</ele>
        <time>2025-03-02T09:13:52Z</time>
      </trkpt>
      <trkpt lat="45.74496" lon="4.64424">
        <ele>568</ele>
        <time>2025-03-02T09:13:53Z</time>
      </trkpt>
      <trkpt lat="45.74496" lon="4.64421">
        <ele>568.4</ele>
        <time>2025-03-02T09:13:54Z</time>
      </trkpt>
      <trkpt lat="45.74495" lon="4.64417">
        <ele>568.8</ele>
        <time>2025-03-02T09:13:55Z</time>
      </trkpt>
      <trkpt lat="45.74495" lon="4.64414">
        <ele>568.8</ele>
        <time>2025-03-02T09:13:56Z</time>
      </trkpt>
      <trkpt lat="45.74494" lon="4.64411">
        <ele>569</ele>
        <time>2025-03-02T09:13:57Z</time>
      </trkpt>
      <trkpt lat="45.74494" lon="4.64408">
        <ele>569.2</ele>
        <time>2025-03-02T09:13:58Z</time>
      </trkpt>
      <trkpt lat="45.74493" lon="4.64405">
        <ele>569.4</ele>
        <time>2025-03-02T09:13:59Z</time>
      </trkpt>
      <trkpt lat="45.74492" lon="4.64403">
        <ele>569.6</ele>
        <time>2025-03-02T09:14:00Z</time>
      </trkpt>
      <trkpt lat="45.74492" lon="4.64401">
        <ele>569.8</ele>
        <time>2025-03-02T09:14:01Z</time>
      </trkpt>
      <trkpt lat="45.74491" lon="4.644">
        <ele>570</ele>
        <time>2025-03-02T09:14:02Z</time>
      </trkpt>
      <trkpt lat="45.74491" lon="4.644">
        <ele>570.2</ele>
        <time>2025-03-02T09:14:03Z</time>
      </trkpt>
      <trkpt lat="45.74491" lon="4.644">
        <ele>570.4</ele>
        <time>2025-03-02T09:14:04Z</time>
      </trkpt>
      <trkpt lat="45.74491" lon="4.644">
        <ele>570.4</ele>
        <time>2025-03-02T09:14:05Z</time>
      </trkpt>
      <trkpt lat="45.74491" lon="4.644">
        <ele>570.6</ele>
        <time>2025-03-02T09:14:06Z</time>
      </trkpt>
      <trkpt lat="45.74491" lon="4.644">
        <ele>570.6</ele>
        <time>2025-03-02T09:14:07Z</time>
      </trkpt>
      <trkpt lat="45.74491" lon="4.644">
        <ele>570.6</ele>
        <time>2025-03-02T09:14:08Z</time>
      </trkpt>
      <trkpt lat="45.74491" lon="4.644">
        <ele>570.8</ele>
        <time>2025-03-02T09:14:09Z</time>
      </trkpt>
      <trkpt lat="45.74491" lon="4.644">
        <ele>570.8</ele>
        <time>2025-03-02T09:14:10Z</time>
      </trkpt>
      <trkpt lat="45.74491" lon="4.644">
        <ele>570.8</ele>
        <time>2025-03-02T09:14:11Z</time>
      </trkpt>
      <trkpt lat="45.74491" lon="4.644">
        <ele>570.8</ele>
        <time>2025-03-02T09:14:12Z</time>
      </trkpt>
      <trkpt lat="45.74491" lon="4.644">
        <ele>570.8</ele>
        <time>2025-03-02T09:14:13Z</time>
      </trkpt>
      <trkpt lat="45.74491" lon="4.644">
        <ele>570.8</ele>
        <time>2025-03-02T09:14:14Z</time>
      </trkpt>
      <trkpt lat="45.74491" lon="4.644">
        <ele>570.8</ele>
        <time>2025-03-02T09:14:15Z</time>
      </trkpt>
      <trkpt lat="45.74491" lon="4.644">
        <ele>570.8</ele>
        <time>2025-03-02T09:14:16Z</time>
      </trkpt>
      <trkpt lat="45.74491" lon="4.644">
        <ele>570.8</ele>
        <time>2025-03-02T09:14:17Z</time>
      </trkpt>
      <trkpt lat="45.74491" lon="4.644">
        <ele>570.8</ele>
        <time>2025-03-02T09:14:18Z</time>
      </trkpt>
      <trkpt lat="45.74491" lon="4.644">
        <ele>570.8</ele>
        <time>2025-03-02T09:14:19Z</time>
      </trkpt>
      <trkpt lat="45.74491" lon="4.644">
        <ele>570.8</ele>
        <time>2025-03-02T09:14:20Z</time>
      </trkpt>
      <trkpt lat="45.74491" lon="4.644">
        <ele>570.8</ele>
        <time>2025-03-02T09:14:21Z</time>
      </trkpt>
      <trkpt lat="45.74491" lon="4.644">
        <ele>570.8</ele>
        <time>2025-03-02T09:14:22Z</time>
      </trkpt>
      <trkpt lat="45.74491" lon="4.644">
        <ele>570.8</ele>
        <time>2025-03-02T09:14:23Z</time>
      </trkpt>
      <trkpt lat="45.74491" lon="4.644">
        <ele>570.8</ele>
        <time>2025-03-02T09:14:24Z</time>
      </trkpt>
      <trkpt lat="45.74491" lon="4.644">
        <ele>570.8</ele>
        <time>2025-03-02T09:14:25Z</time>
      </trkpt>
      <trkpt lat="45.74491" lon="4.644">
        <ele>570.8</ele>
        <time>2025-03-02T09:14:26Z</time>
      </trkpt>
      <trkpt lat="45.74491" lon="4.644">
        <ele>570.8</ele>
        <time>2025-03-02T09:14:27Z</time>
      </trkpt>
      <trkpt lat="45.74491" lon="4.644">
        <ele>570.8</ele>
        <time>2025-03-02T09:14:28Z</time>
      </trkpt>
      <trkpt lat="45.74491" lon="4.644">
        <ele>570.8</ele>
        <time>2025-03-02T09:14:29Z</time>
      </trkpt>
      <trkpt lat="45.74491" lon="4.644">
        <ele>570.8</ele>
        <time>2025-03-02T09:14:30Z</time>
      </trkpt>
      <trkpt lat="45.74491" lon="4.644">
        <ele>570.8</ele>
        <time>2025-03-02T09:14:31Z</time>
      </trkpt>
      <trkpt lat="45.74491" lon="4.644">
        <ele>570.8</ele>
        <time>2025-03-02T09:14:32Z</time>
      </trkpt>
      <trkpt lat="45.74491" lon="4.644">
        <ele>570.8</ele>
        <time>2025-03-02T09:14:33Z</time>
      </trkpt>
      <trkpt lat="45.74491" lon="4.644">
        <ele>570.6</ele>
        <time>2025-03-02T09:14:34Z</time>
      </trkpt>
      <trkpt lat="45.74491" lon="4.644">
        <ele>570.6</ele>
        <time>2025-03-02T09:14:35Z</time>
      </trkpt>
      <trkpt lat="45.74491" lon="4.644">
        <ele>570.6</ele>
        <time>2025-03-02T09:14:36Z</time>
      </trkpt>
      <trkpt lat="45.74491" lon="4.644">
        <ele>570.6</ele>
        <time>2025-03-02T09:14:37Z</time>
      </trkpt>
      <trkpt lat="45.74491" lon="4.644">
        <ele>570.8</ele>
        <time>2025-03-02T09:14:38Z</time>
      </trkpt>
      <trkpt lat="45.74491" lon="4.644">
        <ele>570.8</ele>
        <time>2025-03-02T09:14:39Z</time>
      </trkpt>
      <trkpt lat="45.74491" lon="4.644">
        <ele>570.8</ele>
        <time>2025-03-02T09:14:40Z</time>
      </trkpt>
      <trkpt lat="45.74491" lon="4.644">
        <ele>570.8</ele>
        <time>2025-03-02T09:14:41Z</time>
      </trkpt>
      <trkpt lat="45.74491" lon="4.644">
        <ele>570.8</ele>
        <time>2025-03-02T09:14:42Z</time>
      </trkpt>
      <trkpt lat="45.74491" lon="4.644">
        <ele>570.8</ele>
        <time>2025-03-02T09:14:43Z</time>
      </trkpt>
      <trkpt lat="45.74491" lon="4.644">
        <ele>570.6</ele>
        <time>2025-03-02T09:14:44Z</time>
      </trkpt>
      <trkpt lat="45.74491" lon="4.644">
        <ele>570.6</ele>
        <time>2025-03-02T09:14:45Z</time>
      </trkpt>
      <trkpt lat="45.74491" lon="4.644">
        <ele>570.6</ele>
        <time>2025-03-02T09:14:46Z</time>
      </trkpt>
      <trkpt lat="45.74491" lon="4.644">
        <ele>570.6</ele>
        <time>2025-03-02T09:14:47Z</time>
      </trkpt>
      <trkpt lat="45.74491" lon="4.644">
        <ele>570.6</ele>
        <time>2025-03-02T09:14:48Z</time>
      </trkpt>
      <trkpt lat="45.74491" lon="4.644">
        <ele>570.6</ele>
        <time>2025-03-02T09:14:49Z</time>
      </trkpt>
      <trkpt lat="45.74491" lon="4.644">
        <ele>570.8</ele>
        <time>2025-03-02T09:14:50Z</time>
      </trkpt>
      <trkpt lat="45.74491" lon="4.644">
        <ele>570.8</ele>
        <time>2025-03-02T09:14:51Z</time>
      </trkpt>
      <trkpt lat="45.74491" lon="4.644">
        <ele>570.6</ele>
        <time>2025-03-02T09:14:52Z</time>
      </trkpt>
      <trkpt lat="45.74491" lon="4.644">
        <ele>570.6</ele>
        <time>2025-03-02T09:14:53Z</time>
      </trkpt>
      <trkpt lat="45.74491" lon="4.644">
        <ele>570.6</ele>
        <time>2025-03-02T09:14:54Z</time>
      </trkpt>
      <trkpt lat="45.74491" lon="4.644">
        <ele>570.6</ele>
        <time>2025-03-02T09:14:55Z</time>
      </trkpt>
      <trkpt lat="45.74491" lon="4.644">
        <ele>570.6</ele>
        <time>2025-03-02T09:14:56Z</time>
      </trkpt>
      <trkpt lat="45.74491" lon="4.644">
        <ele>570.6</ele>
        <time>2025-03-02T09:14:57Z</time>
      </trkpt>
      <trkpt lat="45.74491" lon="4.644">
        <ele>570.6</ele>
        <time>2025-03-02T09:14:58Z</time>
      </trkpt>
      <trkpt lat="45.74491" lon="4.644">
        <ele>570.6</ele>
        <time>2025-03-02T09:14:59Z</time>
      </trkpt>
      <trkpt lat="45.74491" lon="4.644">
        <ele>570.6</ele>
        <time>2025-03-02T09:15:00Z</time>
      </trkpt>
      <trkpt lat="45.74491" lon="4.644">
        <ele>570.6</ele>
        <time>2025-03-02T09:15:01Z</time>
      </trkpt>
      <trkpt lat="45.74491" lon="4.644">
        <ele>570.6</ele>
        <time>2025-03-02T09:15:02Z</time>
      </trkpt>
      <trkpt lat="45.74491" lon="4.644">
        <ele>570.6</ele>
        <time>2025-03-02T09:15:03Z</time>
      </trkpt>
      <trkpt lat="45.74491" lon="4.644">
        <ele>570.4</ele>
        <time>2025-03-02T09:15:04Z</time>
      </trkpt>
      <trkpt lat="45.74491" lon="4.644">
        <ele>570.4</ele>
        <time>2025-03-02T09:15:05Z</time>
      </trkpt>
      <trkpt lat="45.74491" lon="4.644">
        <ele>570.4</ele>
        <time>2025-03-02T09:15:06Z</time>
      </trkpt>
      <trkpt lat="45.74491" lon="4.644">
        <ele>570.4</ele>
        <time>2025-03-02T09:15:07Z</time>
      </trkpt>
      <trkpt lat="45.74491" lon="4.644">
        <ele>570.4</ele>
        <time>2025-03-02T09:15:08Z</time>
      </trkpt>
      <trkpt lat="45.74491" lon="4.644">
        <ele>570.4</ele>
        <time>2025-03-02T09:15:09Z</time>
      </trkpt>
      <trkpt lat="45.74491" lon="4.644">
        <ele>570.4</ele>
        <time>2025-03-02T09:15:10Z</time>
      </trkpt>
      <trkpt lat="45.74491" lon="4.644">
        <ele>570.4</ele>
        <time>2025-03-02T09:15:11Z</time>
      </trkpt>
      <trkpt lat="45.74491" lon="4.644">
        <ele>570.4</ele>
        <time>2025-03-02T09:15:12Z</time>
      </trkpt>
      <trkpt lat="45.74491" lon="4.644">
        <ele>570.4</ele>
        <time>2025-03-02T09:15:13Z</time>
      </trkpt>
      <trkpt lat="45.74491" lon="4.644">
        <ele>570.4</ele>
        <time>2025-03-02T09:15:14Z</time>
      </trkpt>
      <trkpt lat="45.74491" lon="4.644">
        <ele>570.4</ele>
        <time>2025-03-02T09:15:15Z</time>
      </trkpt>
      <trkpt lat="45.74491" lon="4.644">
        <ele>570.4</ele>
        <time>2025-03-02T09:15:16Z</time>
      </trkpt>
      <trkpt lat="45.74491" lon="4.644">
        <ele>570.4</ele>
        <time>2025-03-02T09:15:17Z</time>
      </trkpt>
      <trkpt lat="45.74491" lon="4.644">
        <ele>570.4</ele>
        <time>2025-03-02T09:15:18Z</time>
      </trkpt>
      <trkpt lat="45.74491" lon="4.644">
        <ele>570.4</ele>
        <time>2025-03-02T09:15:19Z</time>
      </trkpt>
      <trkpt lat="45.74491" lon="4.644">
        <ele>570.4</ele>
        <time>2025-03-02T09:15:20Z</time>
      </trkpt>
      <trkpt lat="45.74491" lon="4.644">
        <ele>570.4</ele>
        <time>2025-03-02T09:15:21Z</time>
      </trkpt>
      <trkpt lat="45.74491" lon="4.644">
        <ele>570.4</ele>
        <time>2025-03-02T09:15:22Z</time>
      </trkpt>
      <trkpt lat="45.74491" lon="4.644">
        <ele>570.4</ele>
        <time>2025-03-02T09:15:23Z</time>
      </trkpt>
      <trkpt lat="45.74491" lon="4.644">
        <ele>570.4</ele>
        <time>2025-03-02T09:15:24Z</time>
      </trkpt>
      <trkpt lat="45.74491" lon="4.644">
        <ele>570.4</ele>
        <time>2025-03-02T09:15:25Z</time>
      </trkpt>
      <trkpt lat="45.74491" lon="4.644">
        <ele>570.4</ele>
        <time>2025-03-02T09:15:26Z</time>
      </trkpt>
      <trkpt lat="45.74491" lon="4.644">
        <ele>570.4</ele>
        <time>2025-03-02T09:15:27Z</time>
      </trkpt>
      <trkpt lat="45.74491" lon="4.644">
        <ele>570.4</ele>
        <time>2025-03-02T09:15:28Z</time>
      </trkpt>
      <trkpt lat="45.74491" lon="4.644">
        <ele>570.4</ele>
        <time>2025-03-02T09:15:29Z</time>
      </trkpt>
      <trkpt lat="45.74491" lon="4.644">
        <ele>570.4</ele>
        <time>2025-03-02T09:15:30Z</time>
      </trkpt>
      <trkpt lat="45.74491" lon="4.644">
        <ele>570.4</ele>
        <time>2025-03-02T09:15:31Z</time>
      </trkpt>
      <trkpt lat="45.74491" lon="4.644">
        <ele>570.4</ele>
        <time>2025-03-02T09:15:32Z</time>
      </trkpt>
      <trkpt lat="45.74491" lon="4.644">
        <ele>570.4</ele>
        <time>2025-03-02T09:15:33Z</time>
      </trkpt>
      <trkpt lat="45.74491" lon="4.644">
        <ele>570.4</ele>
        <time>2025-03-02T09:15:34Z</time>
      </trkpt>
      <trkpt lat="45.74491" lon="4.644">
        <ele>570.4</ele>
        <time>2025-03-02T09:15:35Z</time>
      </trkpt>
      <trkpt lat="45.74491" lon="4.644">
        <ele>570.4</ele>
        <time>2025-03-02T09:15:36Z</time>
      </trkpt>
      <trkpt lat="45.74491" lon="4.644">
        <ele>570.4</ele>
        <time>2025-03-02T09:15:37Z</time>
      </trkpt>
      <trkpt lat="45.74491" lon="4.644">
        <ele>570.4</ele>
        <time>2025-03-02T09:15:38Z</time>
      </trkpt>
      <trkpt lat="45.74491" lon="4.644">
        <ele>570.4</ele>
        <time>2025-03-02T09:15:39Z</time>
      </trkpt>
      <trkpt lat="45.74491" lon="4.644">
        <ele>570.4</ele>
        <time>2025-03-02T09:15:40Z</time>
      </trkpt>
      <trkpt lat="45.74491" lon="4.644">
        <ele>570.4</ele>
        <time>2025-03-02T09:15:41Z</time>
      </trkpt>
      <trkpt lat="45.74491" lon="4.644">
        <ele>570.4</ele>
        <time>2025-03-02T09:15:42Z</time>
      </trkpt>
      <trkpt lat="45.74491" lon="4.644">
        <ele>570.4</ele>
        <time>2025-03-02T09:15:43Z</time>
      </trkpt>
      <trkpt lat="45.74491" lon="4.644">
        <ele>570.4</ele>
        <time>2025-03-02T09:15:44Z</time>
      </trkpt>
      <trkpt lat="45.74491" lon="4.644">
        <ele>570.4</ele>
        <time>2025-03-02T09:15:45Z</time>
      </trkpt>
      <trkpt lat="45.74491" lon="4.644">
        <ele>570.4</ele>
        <time>2025-03-02T09:15:46Z</time>
      </trkpt>
      <trkpt lat="45.74491" lon="4.644">
        <ele>570.4</ele>
        <time>2025-03-02T09:15:47Z</time>
      </trkpt>
      <trkpt lat="45.74491" lon="4.644">
        <ele>570.4</ele>
        <time>2025-03-02T09:15:48Z</time>
      </trkpt>
      <trkpt lat="45.74491" lon="4.644">
        <ele>570.4</ele>
        <time>2025-03-02T09:15:49Z</time>
      </trkpt>
      <trkpt lat="45.74491" lon="4.644">
        <ele>570.4</ele>
        <time>2025-03-02T09:15:50Z</time>
      </trkpt>
      <trkpt lat="45.74491" lon="4.644">
        <ele>570.4</ele>
        <time>2025-03-02T09:15:51Z</time>
      </trkpt>
      <trkpt lat="45.74491" lon="4.644">
        <ele>570.4</ele>
        <time>2025-03-02T09:15:52Z</time>
      </trkpt>
      <trkpt lat="45.74491" lon="4.644">
        <ele>570.4</ele>
        <time>2025-03-02T09:15:53Z</time>
      </trkpt>
      <trkpt lat="45.74491" lon="4.644">
        <ele>570.4</ele>
        <time>2025-03-02T09:15:54Z</time>
      </trkpt>
      <trkpt lat="45.74491" lon="4.644">
        <ele>570.4</ele>
        <time>2025-03-02T09:15:55Z</time>
      </trkpt>
      <trkpt lat="45.74491" lon="4.644">
        <ele>570.4</ele>
        <time>2025-03-02T09:15:56Z</time>
      </trkpt>
      <trkpt lat="45.74491" lon="4.644">
        <ele>570.4</ele>
        <time>2025-03-02T09:15:57Z</time>
      </trkpt>
      <trkpt lat="45.74491" lon="4.644">
        <ele>570.4</ele>
        <time>2025-03-02T09:15:58Z</time>
      </trkpt>
      <trkpt lat="45.74491" lon="4.644">
        <ele>570.4</ele>
        <time>2025-03-02T09:15:59Z</time>
      </trkpt>
      <trkpt lat="45.74491" lon="4.644">
        <ele>570.4</ele>
        <time>2025-03-02T09:16:00Z</time>
      </trkpt>
      <trkpt lat="45.74491" lon="4.644">
        <ele>570.4</ele>
        <time>2025-03-02T09:16:01Z</time>
      </trkpt>
      <trkpt lat="45.74491" lon="4.644">
        <ele>570.4</ele>
        <time>2025-03-02T09:16:02Z</time>
      </trkpt>
      <trkpt lat="45.74491" lon="4.644">
        <ele>570.4</ele>
        <time>2025-03-02T09:16:03Z</time>
      </trkpt>
      <trkpt lat="45.74491" lon="4.644">
        <ele>570.4</ele>
        <time>2025-03-02T09:16:04Z</time>
      </trkpt>
      <trkpt lat="45.74491" lon="4.644">
        <ele>570.4</ele>
        <time>2025-03-02T09:16:05Z</time>
      </trkpt>
      <trkpt lat="45.74491" lon="4.644">
        <ele>570.4</ele>
        <time>2025-03-02T09:16:06Z</time>
      </trkpt>
      <trkpt lat="45.74491" lon="4.644">
        <ele>570.4</ele>
        <time>2025-03-02T09:16:07Z</time>
      </trkpt>
      <trkpt lat="45.74491" lon="4.644">
        <ele>570.4</ele>
        <time>2025-03-02T09:16:08Z</time>
      </trkpt>
      <trkpt lat="45.74491" lon="4.644">
        <ele>570.4</ele>
        <time>2025-03-02T09:16:09Z</time>
      </trkpt>
      <trkpt lat="45.74491" lon="4.644">
        <ele>570.4</ele>
        <time>2025-03-02T09:16:10Z</time>
      </trkpt>
      <trkpt lat="45.74491" lon="4.644">
        <ele>570.4</ele>
        <time>2025-03-02T09:16:11Z</time>
      </trkpt>
      <trkpt lat="45.74491" lon="4.644">
        <ele>570.4</ele>
        <time>2025-03-02T09:16:12Z</time>
      </trkpt>
      <trkpt lat="45.74491" lon="4.644">
        <ele>570.4</ele>
        <time>2025-03-02T09:16:13Z</time>
      </trkpt>
      <trkpt lat="45.74491" lon="4.644">
        <ele>570.4</ele>
        <time>2025-03-02T09:16:14Z</time>
      </trkpt>
      <trkpt lat="45.74491" lon="4.644">
        <ele>570.4</ele>
        <time>2025-03-02T09:16:15Z</time>
      </trkpt>
      <trkpt lat="45.74491" lon="4.644">
        <ele>570.4</ele>
        <time>2025-03-02T09:16:16Z</time>
      </trkpt>
      <trkpt lat="45.74491" lon="4.644">
        <ele>570.4</ele>
        <time>2025-03-02T09:16:17Z</time>
      </trkpt>
      <trkpt lat="45.74491" lon="4.644">
        <ele>570.4</ele>
        <time>2025-03-02T09:16:18Z</time>
      </trkpt>
      <trkpt lat="45.74491" lon="4.644">
        <ele>570.4</ele>
        <time>2025-03-02T09:16:19Z</time>
      </trkpt>
      <trkpt lat="45.74491" lon="4.644">
        <ele>570.4</ele>
        <time>2025-03-02T09:16:20Z</time>
      </trkpt>
      <trkpt lat="45.74491" lon="4.644">
        <ele>570.4</ele>
        <time>2025-03-02T09:16:21Z</time>
      </trkpt>
      <trkpt lat="45.74491" lon="4.644">
        <ele>570.4</ele>
        <time>2025-03-02T09:16:22Z</time>
      </trkpt>
      <trkpt lat="45.74491" lon="4.644">
        <ele>570.4</ele>
        <time>2025-03-02T09:16:23Z</time>
      </trkpt>
      <trkpt lat="45.74491" lon="4.644">
        <ele>570.4</ele>
        <time>2025-03-02T09:16:24Z</time>
      </trkpt>
      <trkpt lat="45.74491" lon="4.644">
        <ele>570.4</ele>
        <time>2025-03-02T09:16:25Z</time>
      </trkpt>
      <trkpt lat="45.74491" lon="4.644">
        <ele>570.4</ele>
        <time>2025-03-02T09:16:26Z</time>
      </trkpt>
      <trkpt lat="45.74491" lon="4.644">
        <ele>570.4</ele>
        <time>2025-03-02T09:16:27Z</time>
      </trkpt>
      <trkpt lat="45.74491" lon="4.644">
        <ele>570.4</ele>
        <time>2025-03-02T09:16:28Z</time>
      </trkpt>
      <trkpt lat="45.74491" lon="4.644">
        <ele>570.4</ele>
        <time>2025-03-02T09:16:29Z</time>
      </trkpt>
      <trkpt lat="45.74491" lon="4.644">
        <ele>570.4</ele>
        <time>2025-03-02T09:16:30Z</time>
      </trkpt>
      <trkpt lat="45.74491" lon="4.644">
        <ele>570.4</ele>
        <time>2025-03-02T09:16:31Z</time>
      </trkpt>
      <trkpt lat="45.74491" lon="4.644">
        <ele>570.4</ele>
        <time>2025-03-02T09:16:32Z</time>
      </trkpt>
      <trkpt lat="45.74491" lon="4.644">
        <ele>570.4</ele>
        <time>2025-03-02T09:16:33Z</time>
      </trkpt>
      <trkpt lat="45.74491" lon="4.644">
        <ele>570.4</ele>
        <time>2025-03-02T09:16:34Z</time>
      </trkpt>
      <trkpt lat="45.74491" lon="4.644">
        <ele>570.4</ele>
        <time>2025-03-02T09:16:35Z</time>
      </trkpt>
      <trkpt lat="45.74491" lon="4.644">
        <ele>570.4</ele>
        <time>2025-03-02T09:16:36Z</time>
      </trkpt>
      <trkpt lat="45.74491" lon="4.644">
        <ele>570.4</ele>
        <time>2025-03-02T09:16:37Z</time>
      </trkpt>
      <trkpt lat="45.74491" lon="4.644">
        <ele>570.4</ele>
        <time>2025-03-02T09:16:38Z</time>
      </trkpt>
      <trkpt lat="45.74491" lon="4.644">
        <ele>570.4</ele>
        <time>2025-03-02T09:16:39Z</time>
      </trkpt>
      <trkpt lat="45.74491" lon="4.644">
        <ele>570.4</ele>
        <time>2025-03-02T09:16:40Z</time>
      </trkpt>
      <trkpt lat="45.74491" lon="4.644">
        <ele>570.4</ele>
        <time>2025-03-02T09:16:41Z</time>
      </trkpt>
      <trkpt lat="45.74491" lon="4.644">
        <ele>570.4</ele>
        <time>2025-03-02T09:16:42Z</time>
      </trkpt>
      <trkpt lat="45.74491" lon="4.644">
        <ele>570.4</ele>
        <time>2025-03-02T09:16:43Z</time>
      </trkpt>
      <trkpt lat="45.74491" lon="4.644">
        <ele>570.4</ele>
        <time>2025-03-02T09:16:44Z</time>
      </trkpt>
      <trkpt lat="45.74491" lon="4.644">
        <ele>570.4</ele>
        <time>2025-03-02T09:16:45Z</time>
      </trkpt>
      <trkpt lat="45.74491" lon="4.644">
        <ele>570.4</ele>
        <time>2025-03-02T09:16:46Z</time>
      </trkpt>
      <trkpt lat="45.74491" lon="4.644">
        <ele>570.4</ele>
        <time>2025-03-02T09:16:47Z</time>
      </trkpt>
      <trkpt lat="45.74491" lon="4.644">
        <ele>570.4</ele>
        <time>2025-03-02T09:16:48Z</time>
      </trkpt>
      <trkpt lat="45.74491" lon="4.644">
        <ele>570.4</ele>
        <time>2025-03-02T09:16:49Z</time>
      </trkpt>
      <trkpt lat="45.74491" lon="4.644">
        <ele>570.4</ele>
        <time>2025-03-02T09:16:50Z</time>
      </trkpt>
      <trkpt lat="45.74491" lon="4.644">
        <ele>570.4</ele>
        <time>2025-03-02T09:16:51Z</time>
      </trkpt>
      <trkpt lat="45.74491" lon="4.644">
        <ele>570.4</ele>
        <time>2025-03-02T09:16:52Z</time>
      </trkpt>
      <trkpt lat="45.74491" lon="4.644">
        <ele>570.4</ele>
        <time>2025-03-02T09:16:53Z</time>
      </trkpt>
      <trkpt lat="45.74491" lon="4.64398">
        <ele>570.4</ele>
        <time>2025-03-02T09:16:54Z</time>
      </trkpt>
      <trkpt lat="45.74492" lon="4.64395">
        <ele>570.4</ele>
        <time>2025-03-02T09:16:55Z</time>
      </trkpt>
      <trkpt lat="45.74492" lon="4.64392">
        <ele>570.4</ele>
        <time>2025-03-02T09:16:56Z</time>
      </trkpt>
      <trkpt lat="45.74494" lon="4.64389">
        <ele>570.4</ele>
        <time>2025-03-02T09:16:57Z</time>
      </trkpt>
      <trkpt lat="45.74495" lon="4.64387">
        <ele>570.4</ele>
        <time>2025-03-02T09:16:58Z</time>
      </trkpt>
      <trkpt lat="45.74497" lon="4.64386">
        <ele>570.6</ele>
        <time>2025-03-02T09:16:59Z</time>
      </trkpt>
      <trkpt lat="45.74499" lon="4.64386">
        <ele>570.8</ele>
        <time>2025-03-02T09:17:00Z</time>
      </trkpt>
      <trkpt lat="45.74501" lon="4.64387">
        <ele>571</ele>
        <time>2025-03-02T09:17:01Z</time>
      </trkpt>
      <trkpt lat="45.74503" lon="4.64389">
        <ele>571.2</ele>
        <time>2025-03-02T09:17:02Z</time>
      </trkpt>
      <trkpt lat="45.74505" lon="4.64391">
        <ele>571.8</ele>
        <time>2025-03-02T09:17:03Z</time>
      </trkpt>
      <trkpt lat="45.74506" lon="4.64393">
        <ele>572.2</ele>
        <time>2025-03-02T09:17:04Z</time>
      </trkpt>
      <trkpt lat="45.74509" lon="4.64396">
        <ele>572.6</ele>
        <time>2025-03-02T09:17:05Z</time>
      </trkpt>
      <trkpt lat="45.74511" lon="4.64398">
        <ele>573.2</ele>
        <time>2025-03-02T09:17:06Z</time>
      </trkpt>
      <trkpt lat="45.74513" lon="4.64401">
        <ele>573.4</ele>
        <time>2025-03-02T09:17:07Z</time>
      </trkpt>
      <trkpt lat="45.74515" lon="4.64404">
        <ele>573.8</ele>
        <time>2025-03-02T09:17:08Z</time>
      </trkpt>
      <trkpt lat="45.74518" lon="4.64407">
        <ele>574</ele>
        <time>2025-03-02T09:17:09Z</time>
      </trkpt>
      <trkpt lat="45.7452" lon="4.6441">
        <ele>574.2</ele>
        <time>2025-03-02T09:17:10Z</time>
      </trkpt>
      <trkpt lat="45.74522" lon="4.64413">
        <ele>574.2</ele>
        <time>2025-03-02T09:17:11Z</time>
      </trkpt>
      <trkpt lat="45.74524" lon="4.64417">
        <ele>574.6</ele>
        <time>2025-03-02T09:17:12Z</time>
      </trkpt>
      <trkpt lat="45.74526" lon="4.64421">
        <ele>574.8</ele>
        <time>2025-03-02T09:17:13Z</time>
      </trkpt>
      <trkpt lat="45.74527" lon="4.64424">
        <ele>575.2</ele>
        <time>2025-03-02T09:17:14Z</time>
      </trkpt>
      <trkpt lat="45.74528" lon="4.64427">
        <ele>575.4</ele>
        <time>2025-03-02T09:17:15Z</time>
      </trkpt>
      <trkpt lat="45.7453" lon="4.64431">
        <ele>575.8</ele>
        <time>2025-03-02T09:17:16Z</time>
      </trkpt>
      <trkpt lat="45.74531" lon="4.64434">
        <ele>576</ele>
        <time>2025-03-02T09:17:17Z</time>
      </trkpt>
      <trkpt lat="45.74532" lon="4.64437">
        <ele>576.4</ele>
        <time>2025-03-02T09:17:18Z</time>
      </trkpt>
      <trkpt lat="45.74534" lon="4.64441">
        <ele>576.8</ele>
        <time>2025-03-02T09:17:19Z</time>
      </trkpt>
      <trkpt lat="45.74536" lon="4.64444">
        <ele>577.2</ele>
        <time>2025-03-02T09:17:20Z</time>
      </trkpt>
      <trkpt lat="45.74537" lon="4.64446">
        <ele>577.4</ele>
        <time>2025-03-02T09:17:21Z</time>
      </trkpt>
      <trkpt lat="45.74539" lon="4.64449">
        <ele>577.8</ele>
        <time>2025-03-02T09:17:22Z</time>
      </trkpt>
      <trkpt lat="45.74541" lon="4.64452">
        <ele>578.2</ele>
        <time>2025-03-02T09:17:23Z</time>
      </trkpt>
      <trkpt lat="45.74543" lon="4.64455">
        <ele>578.6</ele>
        <time>2025-03-02T09:17:24Z</time>
      </trkpt>
      <trkpt lat="45.74545" lon="4.64457">
        <ele>579</ele>
        <time>2025-03-02T09:17:25Z</time>
      </trkpt>
      <trkpt lat="45.74548" lon="4.6446">
        <ele>579.2</ele>
        <time>2025-03-02T09:17:26Z</time>
      </trkpt>
      <trkpt lat="45.7455" lon="4.64463">
        <ele>579.4</ele>
        <time>2025-03-02T09:17:27Z</time>
      </trkpt>
      <trkpt lat="45.74552" lon="4.64465">
        <ele>579.8</ele>
        <time>2025-03-02T09:17:28Z</time>
      </trkpt>
      <trkpt lat="45.74554" lon="4.64468">
        <ele>580</ele>
        <time>2025-03-02T09:17:29Z</time>
      </trkpt>
      <trkpt lat="45.74556" lon="4.6447">
        <ele>580.2</ele>
        <time>2025-03-02T09:17:30Z</time>
      </trkpt>
      <trkpt lat="45.74559" lon="4.64473">
        <ele>580.4</ele>
        <time>2025-03-02T09:17:31Z</time>
      </trkpt>
      <trkpt lat="45.74561" lon="4.64474">
        <ele>580.6</ele>
        <time>2025-03-02T09:17:32Z</time>
      </trkpt>
      <trkpt lat="45.74564" lon="4.64476">
        <ele>580.8</ele>
        <time>2025-03-02T09:17:33Z</time>
      </trkpt>
      <trkpt lat="45.74567" lon="4.64477">
        <ele>581</ele>
        <time>2025-03-02T09:17:34Z</time>
      </trkpt>
      <trkpt lat="45.74569" lon="4.64479">
        <ele>581.2</ele>
        <time>2025-03-02T09:17:35Z</time>
      </trkpt>
      <trkpt lat="45.74572" lon="4.6448">
        <ele>581.4</ele>
        <time>2025-03-02T09:17:36Z</time>
      </trkpt>
      <trkpt lat="45.74574" lon="4.64481">
        <ele>581.6</ele>
        <time>2025-03-02T09:17:37Z</time>
      </trkpt>
      <trkpt lat="45.74577" lon="4.64483">
        <ele>581.6</ele>
        <time>2025-03-02T09:17:38Z</time>
      </trkpt>
      <trkpt lat="45.74579" lon="4.64484">
        <ele>582</ele>
        <time>2025-03-02T09:17:39Z</time>
      </trkpt>
      <trkpt lat="45.74581" lon="4.64485">
        <ele>582</ele>
        <time>2025-03-02T09:17:40Z</time>
      </trkpt>
      <trkpt lat="45.74583" lon="4.64487">
        <ele>582.6</ele>
        <time>2025-03-02T09:17:41Z</time>
      </trkpt>
      <trkpt lat="45.74585" lon="4.64488">
        <ele>582.8</ele>
        <time>2025-03-02T09:17:42Z</time>
      </trkpt>
      <trkpt lat="45.74587" lon="4.64489">
        <ele>583.2</ele>
        <time>2025-03-02T09:17:43Z</time>
      </trkpt>
      <trkpt lat="45.74589" lon="4.6449">
        <ele>583.8</ele>
        <time>2025-03-02T09:17:44Z</time>
      </trkpt>
      <trkpt lat="45.74591" lon="4.64491">
        <ele>584</ele>
        <time>2025-03-02T09:17:45Z</time>
      </trkpt>
      <trkpt lat="45.74593" lon="4.64492">
        <ele>584.2</ele>
        <time>2025-03-02T09:17:46Z</time>
      </trkpt>
      <trkpt lat="45.74596" lon="4.64492">
        <ele>584.6</ele>
        <time>2025-03-02T09:17:47Z</time>
      </trkpt>
      <trkpt lat="45.74598" lon="4.64493">
        <ele>585</ele>
        <time>2025-03-02T09:17:48Z</time>
      </trkpt>
      <trkpt lat="45.74601" lon="4.64492">
        <ele>585.2</ele>
        <time>2025-03-02T09:17:49Z</time>
      </trkpt>
      <trkpt lat="45.74603" lon="4.64492">
        <ele>585.6</ele>
        <time>2025-03-02T09:17:50Z</time>
      </trkpt>
      <trkpt lat="45.74606" lon="4.64492">
        <ele>585.8</ele>
        <time>2025-03-02T09:17:51Z</time>
      </trkpt>
      <trkpt lat="45.74609" lon="4.64492">
        <ele>586</ele>
        <time>2025-03-02T09:17:52Z</time>
      </trkpt>
      <trkpt lat="45.74612" lon="4.64491">
        <ele>586.2</ele>
        <time>2025-03-02T09:17:53Z</time>
      </trkpt>
      <trkpt lat="45.74615" lon="4.6449">
        <ele>586.2</ele>
        <time>2025-03-02T09:17:54Z</time>
      </trkpt>
      <trkpt lat="45.74617" lon="4.64489">
        <ele>586.4</ele>
        <time>2025-03-02T09:17:55Z</time>
      </trkpt>
      <trkpt lat="45.7462" lon="4.64489">
        <ele>586.6</ele>
        <time>2025-03-02T09:17:56Z</time>
      </trkpt>
      <trkpt lat="45.74623" lon="4.64489">
        <ele>586.6</ele>
        <time>2025-03-02T09:17:57Z</time>
      </trkpt>
      <trkpt lat="45.74626" lon="4.64488">
        <ele>587</ele>
        <time>2025-03-02T09:17:58Z</time>
      </trkpt>
      <trkpt lat="45.74629" lon="4.64488">
        <ele>587</ele>
        <time>2025-03-02T09:17:59Z</time>
      </trkpt>
      <trkpt lat="45.74632" lon="4.64487">
        <ele>587.2</ele>
        <time>2025-03-02T09:18:00Z</time>
      </trkpt>
      <trkpt lat="45.74634" lon="4.64487">
        <ele>587.6</ele>
        <time>2025-03-02T09:18:01Z</time>
      </trkpt>
      <trkpt lat="45.74637" lon="4.64487">
        <ele>587.8</ele>
        <time>2025-03-02T09:18:02Z</time>
      </trkpt>
      <trkpt lat="45.74639" lon="4.64486">
        <ele>588.2</ele>
        <time>2025-03-02T09:18:03Z</time>
      </trkpt>
      <trkpt lat="45.74641" lon="4.64486">
        <ele>588.4</ele>
        <time>2025-03-02T09:18:04Z</time>
      </trkpt>
      <trkpt lat="45.74644" lon="4.64485">
        <ele>588.8</ele>
        <time>2025-03-02T09:18:05Z</time>
      </trkpt>
      <trkpt lat="45.74646" lon="4.64485">
        <ele>589</ele>
        <time>2025-03-02T09:18:06Z</time>
      </trkpt>
      <trkpt lat="45.74648" lon="4.64484">
        <ele>589.2</ele>
        <time>2025-03-02T09:18:07Z</time>
      </trkpt>
      <trkpt lat="45.7465" lon="4.64484">
        <ele>589.8</ele>
        <time>2025-03-02T09:18:08Z</time>
      </trkpt>
      <trkpt lat="45.74652" lon="4.64484">
        <ele>590</ele>
        <time>2025-03-02T09:18:09Z</time>
      </trkpt>
      <trkpt lat="45.74655" lon="4.64484">
        <ele>590.6</ele>
        <time>2025-03-02T09:18:10Z</time>
      </trkpt>
      <trkpt lat="45.74657" lon="4.64483">
        <ele>591</ele>
        <time>2025-03-02T09:18:11Z</time>
      </trkpt>
      <trkpt lat="45.7466" lon="4.64482">
        <ele>591.2</ele>
        <time>2025-03-02T09:18:12Z</time>
      </trkpt>
      <trkpt lat="45.74662" lon="4.6448">
        <ele>591.6</ele>
        <time>2025-03-02T09:18:13Z</time>
      </trkpt>
      <trkpt lat="45.74665" lon="4.64478">
        <ele>591.8</ele>
        <time>2025-03-02T09:18:14Z</time>
      </trkpt>
      <trkpt lat="45.74667" lon="4.64477">
        <ele>592.2</ele>
        <time>2025-03-02T09:18:15Z</time>
      </trkpt>
      <trkpt lat="45.74669" lon="4.64475">
        <ele>592.4</ele>
        <time>2025-03-02T09:18:16Z</time>
      </trkpt>
      <trkpt lat="45.74671" lon="4.64474">
        <ele>592.8</ele>
        <time>2025-03-02T09:18:17Z</time>
      </trkpt>
      <trkpt lat="45.74673" lon="4.64471">
        <ele>593</ele>
        <time>2025-03-02T09:18:18Z</time>
      </trkpt>
      <trkpt lat="45.74676" lon="4.64469">
        <ele>593.4</ele>
        <time>2025-03-02T09:18:19Z</time>
      </trkpt>
      <trkpt lat="45.74678" lon="4.64467">
        <ele>593.6</ele>
        <time>2025-03-02T09:18:20Z</time>
      </trkpt>
      <trkpt lat="45.7468" lon="4.64465">
        <ele>593.8</ele>
        <time>2025-03-02T09:18:21Z</time>
      </trkpt>
      <trkpt lat="45.74682" lon="4.64462">
        <ele>594</ele>
        <time>2025-03-02T09:18:22Z</time>
      </trkpt>
      <trkpt lat="45.74684" lon="4.6446">
        <ele>594.2</ele>
        <time>2025-03-02T09:18:23Z</time>
      </trkpt>
      <trkpt lat="45.74685" lon="4.64458">
        <ele>594.8</ele>
        <time>2025-03-02T09:18:24Z</time>
      </trkpt>
      <trkpt lat="45.74687" lon="4.64456">
        <ele>595.2</ele>
        <time>2025-03-02T09:18:25Z</time>
      </trkpt>
      <trkpt lat="45.74689" lon="4.64454">
        <ele>595.4</ele>
        <time>2025-03-02T09:18:26Z</time>
      </trkpt>
      <trkpt lat="45.74691" lon="4.64452">
        <ele>595.8</ele>
        <time>2025-03-02T09:18:27Z</time>
      </trkpt>
      <trkpt lat="45.74693" lon="4.64449">
        <ele>596.2</ele>
        <time>2025-03-02T09:18:28Z</time>
      </trkpt>
      <trkpt lat="45.74695" lon="4.64447">
        <ele>596.4</ele>
        <time>2025-03-02T09:18:29Z</time>
      </trkpt>
      <trkpt lat="45.74696" lon="4.64446">
        <ele>596.8</ele>
        <time>2025-03-02T09:18:30Z</time>
      </trkpt>
      <trkpt lat="45.74698" lon="4.64443">
        <ele>597.2</ele>
        <time>2025-03-02T09:18:31Z</time>
      </trkpt>
      <trkpt lat="45.74699" lon="4.6444">
        <ele>597.6</ele>
        <time>2025-03-02T09:18:32Z</time>
      </trkpt>
      <trkpt lat="45.74701" lon="4.64438">
        <ele>598</ele>
        <time>2025-03-02T09:18:33Z</time>
      </trkpt>
      <trkpt lat="45.74702" lon="4.64436">
        <ele>598.4</ele>
        <time>2025-03-02T09:18:34Z</time>
      </trkpt>
      <trkpt lat="45.74704" lon="4.64433">
        <ele>598.8</ele>
        <time>2025-03-02T09:18:35Z</time>
      </trkpt>
      <trkpt lat="45.74705" lon="4.64431">
        <ele>599</ele>
        <time>2025-03-02T09:18:36Z</time>
      </trkpt>
      <trkpt lat="45.74707" lon="4.64428">
        <ele>599.4</ele>
        <time>2025-03-02T09:18:37Z</time>
      </trkpt>
      <trkpt lat="45.74708" lon="4.64425">
        <ele>599.8</ele>
        <time>2025-03-02T09:18:38Z</time>
      </trkpt>
      <trkpt lat="45.74709" lon="4.64422">
        <ele>600.4</ele>
        <time>2025-03-02T09:18:39Z</time>
      </trkpt>
      <trkpt lat="45.74711" lon="4.64419">
        <ele>600.6</ele>
        <time>2025-03-02T09:18:40Z</time>
      </trkpt>
      <trkpt lat="45.74712" lon="4.64417">
        <ele>601</ele>
        <time>2025-03-02T09:18:41Z</time>
      </trkpt>
      <trkpt lat="45.74714" lon="4.64414">
        <ele>601.4</ele>
        <time>2025-03-02T09:18:42Z</time>
      </trkpt>
      <trkpt lat="45.74715" lon="4.64411">
        <ele>601.6</ele>
        <time>2025-03-02T09:18:43Z</time>
      </trkpt>
      <trkpt lat="45.74717" lon="4.64408">
        <ele>602</ele>
        <time>2025-03-02T09:18:44Z</time>
      </trkpt>
      <trkpt lat="45.74719" lon="4.64406">
        <ele>602.2</ele>
        <time>2025-03-02T09:18:45Z</time>
      </trkpt>
      <trkpt lat="45.74721" lon="4.64403">
        <ele>602.4</ele>
        <time>2025-03-02T09:18:46Z</time>
      </trkpt>
      <trkpt lat="45.74723" lon="4.644">
        <ele>602.6</ele>
        <time>2025-03-02T09:18:47Z</time>
      </trkpt>
      <trkpt lat="45.74725" lon="4.64397">
        <ele>602.8</ele>
        <time>2025-03-02T09:18:48Z</time>
      </trkpt>
      <trkpt lat="45.74727" lon="4.64395">
        <ele>603</ele>
        <time>2025-03-02T09:18:49Z</time>
      </trkpt>
      <trkpt lat="45.74729" lon="4.64392">
        <ele>603.2</ele>
        <time>2025-03-02T09:18:50Z</time>
      </trkpt>
      <trkpt lat="45.74731" lon="4.64389">
        <ele>603.2</ele>
        <time>2025-03-02T09:18:51Z</time>
      </trkpt>
      <trkpt lat="45.74733" lon="4.64387">
        <ele>603.4</ele>
        <time>2025-03-02T09:18:52Z</time>
      </trkpt>
      <trkpt lat="45.74735" lon="4.64384">
        <ele>603.4</ele>
        <time>2025-03-02T09:18:53Z</time>
      </trkpt>
      <trkpt lat="45.74737" lon="4.64381">
        <ele>603.8</ele>
        <time>2025-03-02T09:18:54Z</time>
      </trkpt>
      <trkpt lat="45.74739" lon="4.64378">
        <ele>604</ele>
        <time>2025-03-02T09:18:55Z</time>
      </trkpt>
      <trkpt lat="45.74741" lon="4.64375">
        <ele>604.2</ele>
        <time>2025-03-02T09:18:56Z</time>
      </trkpt>
      <trkpt lat="45.74743" lon="4.64373">
        <ele>604.4</ele>
        <time>2025-03-02T09:18:57Z</time>
      </trkpt>
      <trkpt lat="45.74745" lon="4.6437">
        <ele>604.6</ele>
        <time>2025-03-02T09:18:58Z</time>
      </trkpt>
      <trkpt lat="45.74748" lon="4.64368">
        <ele>604.8</ele>
        <time>2025-03-02T09:18:59Z</time>
      </trkpt>
      <trkpt lat="45.7475" lon="4.64365">
        <ele>605</ele>
        <time>2025-03-02T09:19:00Z</time>
      </trkpt>
      <trkpt lat="45.74752" lon="4.64362">
        <ele>605.2</ele>
        <time>2025-03-02T09:19:01Z</time>
      </trkpt>
      <trkpt lat="45.74754" lon="4.64359">
        <ele>605.4</ele>
        <time>2025-03-02T09:19:02Z</time>
      </trkpt>
      <trkpt lat="45.74755" lon="4.64356">
        <ele>605.6</ele>
        <time>2025-03-02T09:19:03Z</time>
      </trkpt>
      <trkpt lat="45.74758" lon="4.64353">
        <ele>605.8</ele>
        <time>2025-03-02T09:19:04Z</time>
      </trkpt>
      <trkpt lat="45.7476" lon="4.64351">
        <ele>606</ele>
        <time>2025-03-02T09:19:05Z</time>
      </trkpt>
      <trkpt lat="45.74762" lon="4.64349">
        <ele>606.2</ele>
        <time>2025-03-02T09:19:06Z</time>
      </trkpt>
      <trkpt lat="45.74764" lon="4.64346">
        <ele>606.2</ele>
        <time>2025-03-02T09:19:07Z</time>
      </trkpt>
      <trkpt lat="45.74766" lon="4.64344">
        <ele>606.4</ele>
        <time>2025-03-02T09:19:08Z</time>
      </trkpt>
      <trkpt lat="45.74768" lon="4.64342">
        <ele>606.6</ele>
        <time>2025-03-02T09:19:09Z</time>
      </trkpt>
      <trkpt lat="45.74769" lon="4.6434">
        <ele>607</ele>
        <time>2025-03-02T09:19:10Z</time>
      </trkpt>
      <trkpt lat="45.74771" lon="4.64337">
        <ele>607.2</ele>
        <time>2025-03-02T09:19:11Z</time>
      </trkpt>
      <trkpt lat="45.74773" lon="4.64335">
        <ele>607.4</ele>
        <time>2025-03-02T09:19:12Z</time>
      </trkpt>
      <trkpt lat="45.74775" lon="4.64332">
        <ele>607.6</ele>
        <time>2025-03-02T09:19:13Z</time>
      </trkpt>
      <trkpt lat="45.74777" lon="4.6433">
        <ele>607.8</ele>
        <time>2025-03-02T09:19:14Z</time>
      </trkpt>
      <trkpt lat="45.74779" lon="4.64328">
        <ele>607.8</ele>
        <time>2025-03-02T09:19:15Z</time>
      </trkpt>
      <trkpt lat="45.74781" lon="4.64326">
        <ele>608</ele>
        <time>2025-03-02T09:19:16Z</time>
      </trkpt>
      <trkpt lat="45.74783" lon="4.64324">
        <ele>608.2</ele>
        <time>2025-03-02T09:19:17Z</time>
      </trkpt>
      <trkpt lat="45.74784" lon="4.64321">
        <ele>608.4</ele>
        <time>2025-03-02T09:19:18Z</time>
      </trkpt>
      <trkpt lat="45.74786" lon="4.6432">
        <ele>608.8</ele>
        <time>2025-03-02T09:19:19Z</time>
      </trkpt>
      <trkpt lat="45.74787" lon="4.64317">
        <ele>608.8</ele>
        <time>2025-03-02T09:19:20Z</time>
      </trkpt>
      <trkpt lat="45.74789" lon="4.64315">
        <ele>609.4</ele>
        <time>2025-03-02T09:19:21Z</time>
      </trkpt>
      <trkpt lat="45.74791" lon="4.64312">
        <ele>609.6</ele>
        <time>2025-03-02T09:19:22Z</time>
      </trkpt>
      <trkpt lat="45.74793" lon="4.64309">
        <ele>610</ele>
        <time>2025-03-02T09:19:23Z</time>
      </trkpt>
      <trkpt lat="45.74794" lon="4.64307">
        <ele>610.2</ele>
        <time>2025-03-02T09:19:24Z</time>
      </trkpt>
      <trkpt lat="45.74796" lon="4.64304">
        <ele>610.4</ele>
        <time>2025-03-02T09:19:25Z</time>
      </trkpt>
      <trkpt lat="45.74797" lon="4.64302">
        <ele>610.6</ele>
        <time>2025-03-02T09:19:26Z</time>
      </trkpt>
      <trkpt lat="45.74799" lon="4.643">
        <ele>611</ele>
        <time>2025-03-02T09:19:27Z</time>
      </trkpt>
      <trkpt lat="45.748" lon="4.64298">
        <ele>611.2</ele>
        <time>2025-03-02T09:19:28Z</time>
      </trkpt>
      <trkpt lat="45.74801" lon="4.64297">
        <ele>611.6</ele>
        <time>2025-03-02T09:19:29Z</time>
      </trkpt>
      <trkpt lat="45.74802" lon="4.64295">
        <ele>611.8</ele>
        <time>2025-03-02T09:19:30Z</time>
      </trkpt>
      <trkpt lat="45.74804" lon="4.64293">
        <ele>612</ele>
        <time>2025-03-02T09:19:31Z</time>
      </trkpt>
      <trkpt lat="45.74805" lon="4.64291">
        <ele>612.2</ele>
        <time>2025-03-02T09:19:32Z</time>
      </trkpt>
      <trkpt lat="45.74807" lon="4.64289">
        <ele>612.4</ele>
        <time>2025-03-02T09:19:33Z</time>
      </trkpt>
      <trkpt lat="45.74808" lon="4.64286">
        <ele>612.4</ele>
        <time>2025-03-02T09:19:34Z</time>
      </trkpt>
      <trkpt lat="45.7481" lon="4.64284">
        <ele>612.6</ele>
        <time>2025-03-02T09:19:35Z</time>
      </trkpt>
      <trkpt lat="45.74812" lon="4.64281">
        <ele>612.6</ele>
        <time>2025-03-02T09:19:36Z</time>
      </trkpt>
      <trkpt lat="45.74814" lon="4.64278">
        <ele>612.8</ele>
        <time>2025-03-02T09:19:37Z</time>
      </trkpt>
      <trkpt lat="45.74816" lon="4.64275">
        <ele>613</ele>
        <time>2025-03-02T09:19:38Z</time>
      </trkpt>
      <trkpt lat="45.74818" lon="4.64273">
        <ele>613.2</ele>
        <time>2025-03-02T09:19:39Z</time>
      </trkpt>
      <trkpt lat="45.7482" lon="4.64271">
        <ele>613.4</ele>
        <time>2025-03-02T09:19:40Z</time>
      </trkpt>
      <trkpt lat="45.74822" lon="4.64269">
        <ele>613.8</ele>
        <time>2025-03-02T09:19:41Z</time>
      </trkpt>
      <trkpt lat="45.74824" lon="4.64267">
        <ele>614.2</ele>
        <time>2025-03-02T09:19:42Z</time>
      </trkpt>
      <trkpt lat="45.74825" lon="4.64265">
        <ele>614.4</ele>
        <time>2025-03-02T09:19:43Z</time>
      </trkpt>
      <trkpt lat="45.74828" lon="4.64263">
        <ele>614.6</ele>
        <time>2025-03-02T09:19:44Z</time>
      </trkpt>
      <trkpt lat="45.7483" lon="4.64261">
        <ele>614.8</ele>
        <time>2025-03-02T09:19:45Z</time>
      </trkpt>
      <trkpt lat="45.74832" lon="4.64259">
        <ele>615</ele>
        <time>2025-03-02T09:19:46Z</time>
      </trkpt>
      <trkpt lat="45.74834" lon="4.64257">
        <ele>615.2</ele>
        <time>2025-03-02T09:19:47Z</time>
      </trkpt>
      <trkpt lat="45.74836" lon="4.64254">
        <ele>615.4</ele>
        <time>2025-03-02T09:19:48Z</time>
      </trkpt>
      <trkpt lat="45.74838" lon="4.64251">
        <ele>615.6</ele>
        <time>2025-03-02T09:19:49Z</time>
      </trkpt>
      <trkpt lat="45.7484" lon="4.64248">
        <ele>615.8</ele>
        <time>2025-03-02T09:19:50Z</time>
      </trkpt>
      <trkpt lat="45.74842" lon="4.64245">
        <ele>616</ele>
        <time>2025-03-02T09:19:51Z</time>
      </trkpt>
      <trkpt lat="45.74844" lon="4.64242">
        <ele>616.2</ele>
        <time>2025-03-02T09:19:52Z</time>
      </trkpt>
      <trkpt lat="45.74846" lon="4.64239">
        <ele>616.4</ele>
        <time>2025-03-02T09:19:53Z</time>
      </trkpt>
      <trkpt lat="45.74849" lon="4.64236">
        <ele>616.6</ele>
        <time>2025-03-02T09:19:54Z</time>
      </trkpt>
      <trkpt lat="45.74851" lon="4.64232">
        <ele>616.8</ele>
        <time>2025-03-02T09:19:55Z</time>
      </trkpt>
      <trkpt lat="45.74853" lon="4.64229">
        <ele>617</ele>
        <time>2025-03-02T09:19:56Z</time>
      </trkpt>
      <trkpt lat="45.74854" lon="4.64226">
        <ele>617</ele>
        <time>2025-03-02T09:19:57Z</time>
      </trkpt>
      <trkpt lat="45.74856" lon="4.64224">
        <ele>617.2</ele>
        <time>2025-03-02T09:19:58Z</time>
      </trkpt>
      <trkpt lat="45.74857" lon="4.64221">
        <ele>617.6</ele>
        <time>2025-03-02T09:19:59Z</time>
      </trkpt>
      <trkpt lat="45.74858" lon="4.64219">
        <ele>617.8</ele>
        <time>2025-03-02T09:20:00Z</time>
      </trkpt>
      <trkpt lat="45.7486" lon="4.64216">
        <ele>618</ele>
        <time>2025-03-02T09:20:01Z</time>
      </trkpt>
      <trkpt lat="45.74862" lon="4.64213">
        <ele>618.2</ele>
        <time>2025-03-02T09:20:02Z</time>
      </trkpt>
      <trkpt lat="45.74864" lon="4.6421">
        <ele>618.4</ele>
        <time>2025-03-02T09:20:03Z</time>
      </trkpt>
      <trkpt lat="45.74866" lon="4.64206">
        <ele>618.4</ele>
        <time>2025-03-02T09:20:04Z</time>
      </trkpt>
      <trkpt lat="45.74869" lon="4.64203">
        <ele>618.6</ele>
        <time>2025-03-02T09:20:05Z</time>
      </trkpt>
      <trkpt lat="45.74871" lon="4.64199">
        <ele>618.8</ele>
        <time>2025-03-02T09:20:06Z</time>
      </trkpt>
      <trkpt lat="45.74872" lon="4.64196">
        <ele>619.2</ele>
        <time>2025-03-02T09:20:07Z</time>
      </trkpt>
      <trkpt lat="45.74874" lon="4.64193">
        <ele>619.4</ele>
        <time>2025-03-02T09:20:08Z</time>
      </trkpt>
      <trkpt lat="45.74875" lon="4.64189">
        <ele>619.8</ele>
        <time>2025-03-02T09:20:09Z</time>
      </trkpt>
      <trkpt lat="45.74877" lon="4.64186">
        <ele>620.2</ele>
        <time>2025-03-02T09:20:10Z</time>
      </trkpt>
      <trkpt lat="45.74879" lon="4.64183">
        <ele>620.4</ele>
        <time>2025-03-02T09:20:11Z</time>
      </trkpt>
      <trkpt lat="45.74881" lon="4.6418">
        <ele>620.8</ele>
        <time>2025-03-02T09:20:12Z</time>
      </trkpt>
      <trkpt lat="45.74883" lon="4.64177">
        <ele>621</ele>
        <time>2025-03-02T09:20:13Z</time>
      </trkpt>
      <trkpt lat="45.74885" lon="4.64174">
        <ele>621.2</ele>
        <time>2025-03-02T09:20:14Z</time>
      </trkpt>
      <trkpt lat="45.74887" lon="4.6417">
        <ele>621.4</ele>
        <time>2025-03-02T09:20:15Z</time>
      </trkpt>
      <trkpt lat="45.74889" lon="4.64166">
        <ele>621.6</ele>
        <time>2025-03-02T09:20:16Z</time>
      </trkpt>
      <trkpt lat="45.74891" lon="4.64162">
        <ele>621.8</ele>
        <time>2025-03-02T09:20:17Z</time>
      </trkpt>
      <trkpt lat="45.74893" lon="4.64159">
        <ele>622</ele>
        <time>2025-03-02T09:20:18Z</time>
      </trkpt>
      <trkpt lat="45.74895" lon="4.64155">
        <ele>622.4</ele>
        <time>2025-03-02T09:20:19Z</time>
      </trkpt>
      <trkpt lat="45.74896" lon="4.64151">
        <ele>622.6</ele>
        <time>2025-03-02T09:20:20Z</time>
      </trkpt>
      <trkpt lat="45.74898" lon="4.64148">
        <ele>622.6</ele>
        <time>2025-03-02T09:20:21Z</time>
      </trkpt>
      <trkpt lat="45.749" lon="4.64145">
        <ele>622.8</ele>
        <time>2025-03-02T09:20:22Z</time>
      </trkpt>
      <trkpt lat="45.74902" lon="4.64142">
        <ele>623.2</ele>
        <time>2025-03-02T09:20:23Z</time>
      </trkpt>
      <trkpt lat="45.74904" lon="4.6414">
        <ele>623.2</ele>
        <time>2025-03-02T09:20:24Z</time>
      </trkpt>
      <trkpt lat="45.74906" lon="4.64137">
        <ele>623.4</ele>
        <time>2025-03-02T09:20:25Z</time>
      </trkpt>
      <trkpt lat="45.74908" lon="4.64134">
        <ele>623.8</ele>
        <time>2025-03-02T09:20:26Z</time>
      </trkpt>
      <trkpt lat="45.74909" lon="4.64131">
        <ele>624.2</ele>
        <time>2025-03-02T09:20:27Z</time>
      </trkpt>
      <trkpt lat="45.74911" lon="4.64127">
        <ele>624.2</ele>
        <time>2025-03-02T09:20:28Z</time>
      </trkpt>
      <trkpt lat="45.74913" lon="4.64124">
        <ele>624.2</ele>
        <time>2025-03-02T09:20:29Z</time>
      </trkpt>
      <trkpt lat="45.74915" lon="4.6412">
        <ele>624.4</ele>
        <time>2025-03-02T09:20:30Z</time>
      </trkpt>
      <trkpt lat="45.74917" lon="4.64117">
        <ele>624.8</ele>
        <time>2025-03-02T09:20:31Z</time>
      </trkpt>
      <trkpt lat="45.74919" lon="4.64113">
        <ele>624.8</ele>
        <time>2025-03-02T09:20:32Z</time>
      </trkpt>
      <trkpt lat="45.74921" lon="4.6411">
        <ele>625</ele>
        <time>2025-03-02T09:20:33Z</time>
      </trkpt>
      <trkpt lat="45.74923" lon="4.64106">
        <ele>625.2</ele>
        <time>2025-03-02T09:20:34Z</time>
      </trkpt>
      <trkpt lat="45.74925" lon="4.64103">
        <ele>625.2</ele>
        <time>2025-03-02T09:20:35Z</time>
      </trkpt>
      <trkpt lat="45.74927" lon="4.64099">
        <ele>625.4</ele>
        <time>2025-03-02T09:20:36Z</time>
      </trkpt>
      <trkpt lat="45.74929" lon="4.64096">
        <ele>625.8</ele>
        <time>2025-03-02T09:20:37Z</time>
      </trkpt>
      <trkpt lat="45.74931" lon="4.64093">
        <ele>626</ele>
        <time>2025-03-02T09:20:38Z</time>
      </trkpt>
      <trkpt lat="45.74933" lon="4.64092">
        <ele>626.2</ele>
        <time>2025-03-02T09:20:39Z</time>
      </trkpt>
      <trkpt lat="45.74933" lon="4.64091">
        <ele>626.4</ele>
        <time>2025-03-02T09:20:40Z</time>
      </trkpt>
      <trkpt lat="45.74933" lon="4.64091">
        <ele>626.8</ele>
        <time>2025-03-02T09:20:41Z</time>
      </trkpt>
      <trkpt lat="45.74933" lon="4.64091">
        <ele>627.2</ele>
        <time>2025-03-02T09:20:42Z</time>
      </trkpt>
      <trkpt lat="45.74933" lon="4.64091">
        <ele>627.4</ele>
        <time>2025-03-02T09:20:43Z</time>
      </trkpt>
      <trkpt lat="45.74933" lon="4.64091">
        <ele>627.4</ele>
        <time>2025-03-02T09:20:44Z</time>
      </trkpt>
      <trkpt lat="45.74933" lon="4.64091">
        <ele>627.6</ele>
        <time>2025-03-02T09:20:45Z</time>
      </trkpt>
      <trkpt lat="45.74933" lon="4.64091">
        <ele>627.6</ele>
        <time>2025-03-02T09:20:46Z</time>
      </trkpt>
      <trkpt lat="45.74933" lon="4.64091">
        <ele>627.6</ele>
        <time>2025-03-02T09:20:47Z</time>
      </trkpt>
      <trkpt lat="45.74933" lon="4.64091">
        <ele>627.6</ele>
        <time>2025-03-02T09:20:48Z</time>
      </trkpt>
      <trkpt lat="45.74934" lon="4.6409">
        <ele>627.6</ele>
        <time>2025-03-02T09:20:49Z</time>
      </trkpt>
      <trkpt lat="45.74935" lon="4.64087">
        <ele>627.6</ele>
        <time>2025-03-02T09:20:50Z</time>
      </trkpt>
      <trkpt lat="45.74937" lon="4.64083">
        <ele>627.6</ele>
        <time>2025-03-02T09:20:51Z</time>
      </trkpt>
      <trkpt lat="45.74939" lon="4.6408">
        <ele>627.6</ele>
        <time>2025-03-02T09:20:52Z</time>
      </trkpt>
      <trkpt lat="45.74941" lon="4.64075">
        <ele>627.6</ele>
        <time>2025-03-02T09:20:53Z</time>
      </trkpt>
      <trkpt lat="45.74944" lon="4.64071">
        <ele>627.6</ele>
        <time>2025-03-02T09:20:54Z</time>
      </trkpt>
      <trkpt lat="45.74946" lon="4.64068">
        <ele>627.6</ele>
        <time>2025-03-02T09:20:55Z</time>
      </trkpt>
      <trkpt lat="45.74948" lon="4.64064">
        <ele>627.6</ele>
        <time>2025-03-02T09:20:56Z</time>
      </trkpt>
      <trkpt lat="45.7495" lon="4.6406">
        <ele>627.8</ele>
        <time>2025-03-02T09:20:57Z</time>
      </trkpt>
      <trkpt lat="45.74952" lon="4.64056">
        <ele>628</ele>
        <time>2025-03-02T09:20:58Z</time>
      </trkpt>
      <trkpt lat="45.74954" lon="4.64052">
        <ele>628.4</ele>
        <time>2025-03-02T09:20:59Z</time>
      </trkpt>
      <trkpt lat="45.74956" lon="4.64049">
        <ele>628.6</ele>
        <time>2025-03-02T09:21:00Z</time>
      </trkpt>
      <trkpt lat="45.74958" lon="4.64045">
        <ele>628.8</ele>
        <time>2025-03-02T09:21:01Z</time>
      </trkpt>
      <trkpt lat="45.7496" lon="4.64042">
        <ele>629.2</ele>
        <time>2025-03-02T09:21:02Z</time>
      </trkpt>
      <trkpt lat="45.74962" lon="4.64038">
        <ele>629.4</ele>
        <time>2025-03-02T09:21:03Z</time>
      </trkpt>
      <trkpt lat="45.74965" lon="4.64035">
        <ele>629.6</ele>
        <time>2025-03-02T09:21:04Z</time>
      </trkpt>
      <trkpt lat="45.74967" lon="4.64032">
        <ele>630</ele>
        <time>2025-03-02T09:21:05Z</time>
      </trkpt>
      <trkpt lat="45.74969" lon="4.64028">
        <ele>630.2</ele>
        <time>2025-03-02T09:21:06Z</time>
      </trkpt>
      <trkpt lat="45.7497" lon="4.64025">
        <ele>630.4</ele>
        <time>2025-03-02T09:21:07Z</time>
      </trkpt>
      <trkpt lat="45.74972" lon="4.64022">
        <ele>630.6</ele>
        <time>2025-03-02T09:21:08Z</time>
      </trkpt>
      <trkpt lat="45.74974" lon="4.64018">
        <ele>631</ele>
        <time>2025-03-02T09:21:09Z</time>
      </trkpt>
      <trkpt lat="45.74975" lon="4.64015">
        <ele>631.4</ele>
        <time>2025-03-02T09:21:10Z</time>
      </trkpt>
      <trkpt lat="45.74977" lon="4.64012">
        <ele>631.8</ele>
        <time>2025-03-02T09:21:11Z</time>
      </trkpt>
      <trkpt lat="45.74979" lon="4.64009">
        <ele>632</ele>
        <time>2025-03-02T09:21:12Z</time>
      </trkpt>
      <trkpt lat="45.74981" lon="4.64006">
        <ele>632.4</ele>
        <time>2025-03-02T09:21:13Z</time>
      </trkpt>
      <trkpt lat="45.74982" lon="4.64003">
        <ele>632.8</ele>
        <time>2025-03-02T09:21:14Z</time>
      </trkpt>
      <trkpt lat="45.74984" lon="4.63999">
        <ele>633.2</ele>
        <time>2025-03-02T09:21:15Z</time>
      </trkpt>
      <trkpt lat="45.74985" lon="4.63997">
        <ele>633.4</ele>
        <time>2025-03-02T09:21:16Z</time>
      </trkpt>
      <trkpt lat="45.74987" lon="4.63994">
        <ele>633.8</ele>
        <time>2025-03-02T09:21:17Z</time>
      </trkpt>
      <trkpt lat="45.74989" lon="4.63991">
        <ele>634.2</ele>
        <time>2025-03-02T09:21:18Z</time>
      </trkpt>
      <trkpt lat="45.74991" lon="4.63989">
        <ele>634.6</ele>
        <time>2025-03-02T09:21:19Z</time>
      </trkpt>
      <trkpt lat="45.74993" lon="4.63987">
        <ele>635</ele>
        <time>2025-03-02T09:21:20Z</time>
      </trkpt>
      <trkpt lat="45.74995" lon="4.63984">
        <ele>635.2</ele>
        <time>2025-03-02T09:21:21Z</time>
      </trkpt>
      <trkpt lat="45.74997" lon="4.63982">
        <ele>635.6</ele>
        <time>2025-03-02T09:21:22Z</time>
      </trkpt>
      <trkpt lat="45.74999" lon="4.63979">
        <ele>636.2</ele>
        <time>2025-03-02T09:21:23Z</time>
      </trkpt>
      <trkpt lat="45.75001" lon="4.63977">
        <ele>636.4</ele>
        <time>2025-03-02T09:21:24Z</time>
      </trkpt>
      <trkpt lat="45.75002" lon="4.63974">
        <ele>636.6</ele>
        <time>2025-03-02T09:21:25Z</time>
      </trkpt>
      <trkpt lat="45.75004" lon="4.63972">
        <ele>636.8</ele>
        <time>2025-03-02T09:21:26Z</time>
      </trkpt>
      <trkpt lat="45.75006" lon="4.6397">
        <ele>637.2</ele>
        <time>2025-03-02T09:21:27Z</time>
      </trkpt>
      <trkpt lat="45.75007" lon="4.63967">
        <ele>637.6</ele>
        <time>2025-03-02T09:21:28Z</time>
      </trkpt>
      <trkpt lat="45.75009" lon="4.63964">
        <ele>638</ele>
        <time>2025-03-02T09:21:29Z</time>
      </trkpt>
      <trkpt lat="45.7501" lon="4.63961">
        <ele>638.4</ele>
        <time>2025-03-02T09:21:30Z</time>
      </trkpt>
      <trkpt lat="45.75011" lon="4.63959">
        <ele>638.8</ele>
        <time>2025-03-02T09:21:31Z</time>
      </trkpt>
      <trkpt lat="45.75013" lon="4.63956">
        <ele>639</ele>
        <time>2025-03-02T09:21:32Z</time>
      </trkpt>
      <trkpt lat="45.75014" lon="4.63954">
        <ele>639.4</ele>
        <time>2025-03-02T09:21:33Z</time>
      </trkpt>
      <trkpt lat="45.75016" lon="4.63952">
        <ele>639.6</ele>
        <time>2025-03-02T09:21:34Z</time>
      </trkpt>
      <trkpt lat="45.75018" lon="4.6395">
        <ele>640.2</ele>
        <time>2025-03-02T09:21:35Z</time>
      </trkpt>
      <trkpt lat="45.75019" lon="4.63948">
        <ele>640.4</ele>
        <time>2025-03-02T09:21:36Z</time>
      </trkpt>
      <trkpt lat="45.75021" lon="4.63947">
        <ele>640.8</ele>
        <time>2025-03-02T09:21:37Z</time>
      </trkpt>
      <trkpt lat="45.75023" lon="4.63945">
        <ele>641.2</ele>
        <time>2025-03-02T09:21:38Z</time>
      </trkpt>
      <trkpt lat="45.75025" lon="4.63943">
        <ele>641.4</ele>
        <time>2025-03-02T09:21:39Z</time>
      </trkpt>
      <trkpt lat="45.75026" lon="4.63942">
        <ele>641.8</ele>
        <time>2025-03-02T09:21:40Z</time>
      </trkpt>
      <trkpt lat="45.75027" lon="4.63939">
        <ele>642</ele>
        <time>2025-03-02T09:21:41Z</time>
      </trkpt>
      <trkpt lat="45.75028" lon="4.63936">
        <ele>642.4</ele>
        <time>2025-03-02T09:21:42Z</time>
      </trkpt>
      <trkpt lat="45.7503" lon="4.63934">
        <ele>642.6</ele>
        <time>2025-03-02T09:21:43Z</time>
      </trkpt>
      <trkpt lat="45.75032" lon="4.63932">
        <ele>643</ele>
        <time>2025-03-02T09:21:44Z</time>
      </trkpt>
      <trkpt lat="45.75034" lon="4.6393">
        <ele>643.4</ele>
        <time>2025-03-02T09:21:45Z</time>
      </trkpt>
      <trkpt lat="45.75036" lon="4.63928">
        <ele>643.8</ele>
        <time>2025-03-02T09:21:46Z</time>
      </trkpt>
      <trkpt lat="45.75038" lon="4.63926">
        <ele>644.2</ele>
        <time>2025-03-02T09:21:47Z</time>
      </trkpt>
      <trkpt lat="45.7504" lon="4.63924">
        <ele>644.6</ele>
        <time>2025-03-02T09:21:48Z</time>
      </trkpt>
      <trkpt lat="45.75042" lon="4.63922">
        <ele>644.8</ele>
        <time>2025-03-02T09:21:49Z</time>
      </trkpt>
      <trkpt lat="45.75044" lon="4.63921">
        <ele>645.2</ele>
        <time>2025-03-02T09:21:50Z</time>
      </trkpt>
      <trkpt lat="45.75046" lon="4.63919">
        <ele>645.4</ele>
        <time>2025-03-02T09:21:51Z</time>
      </trkpt>
      <trkpt lat="45.75048" lon="4.63917">
        <ele>645.8</ele>
        <time>2025-03-02T09:21:52Z</time>
      </trkpt>
      <trkpt lat="45.7505" lon="4.63915">
        <ele>646.4</ele>
        <time>2025-03-02T09:21:53Z</time>
      </trkpt>
      <trkpt lat="45.75052" lon="4.63914">
        <ele>646.6</ele>
        <time>2025-03-02T09:21:54Z</time>
      </trkpt>
      <trkpt lat="45.75055" lon="4.63912">
        <ele>647</ele>
        <time>2025-03-02T09:21:55Z</time>
      </trkpt>
      <trkpt lat="45.75057" lon="4.6391">
        <ele>647.2</ele>
        <time>2025-03-02T09:21:56Z</time>
      </trkpt>
      <trkpt lat="45.75059" lon="4.63908">
        <ele>647.4</ele>
        <time>2025-03-02T09:21:57Z</time>
      </trkpt>
      <trkpt lat="45.7506" lon="4.63907">
        <ele>647.8</ele>
        <time>2025-03-02T09:21:58Z</time>
      </trkpt>
      <trkpt lat="45.75062" lon="4.63905">
        <ele>648</ele>
        <time>2025-03-02T09:21:59Z</time>
      </trkpt>
      <trkpt lat="45.75063" lon="4.63903">
        <ele>648.6</ele>
        <time>2025-03-02T09:22:00Z</time>
      </trkpt>
      <trkpt lat="45.75065" lon="4.63902">
        <ele>648.6</ele>
        <time>2025-03-02T09:22:01Z</time>
      </trkpt>
      <trkpt lat="45.75068" lon="4.639">
        <ele>649.2</ele>
        <time>2025-03-02T09:22:02Z</time>
      </trkpt>
      <trkpt lat="45.7507" lon="4.63898">
        <ele>649.4</ele>
        <time>2025-03-02T09:22:03Z</time>
      </trkpt>
      <trkpt lat="45.75073" lon="4.63897">
        <ele>649.8</ele>
        <time>2025-03-02T09:22:04Z</time>
      </trkpt>
      <trkpt lat="45.75075" lon="4.63895">
        <ele>650.2</ele>
        <time>2025-03-02T09:22:05Z</time>
      </trkpt>
      <trkpt lat="45.75077" lon="4.63893">
        <ele>650.6</ele>
        <time>2025-03-02T09:22:06Z</time>
      </trkpt>
      <trkpt lat="45.7508" lon="4.63891">
        <ele>651</ele>
        <time>2025-03-02T09:22:07Z</time>
      </trkpt>
      <trkpt lat="45.75082" lon="4.6389">
        <ele>651.2</ele>
        <time>2025-03-02T09:22:08Z</time>
      </trkpt>
      <trkpt lat="45.75084" lon="4.63888">
        <ele>651.4</ele>
        <time>2025-03-02T09:22:09Z</time>
      </trkpt>
      <trkpt lat="45.75086" lon="4.63886">
        <ele>651.8</ele>
        <time>2025-03-02T09:22:10Z</time>
      </trkpt>
      <trkpt lat="45.75088" lon="4.63885">
        <ele>652</ele>
        <time>2025-03-02T09:22:11Z</time>
      </trkpt>
      <trkpt lat="45.75089" lon="4.63884">
        <ele>652.4</ele>
        <time>2025-03-02T09:22:12Z</time>
      </trkpt>
      <trkpt lat="45.75091" lon="4.63883">
        <ele>652.6</ele>
        <time>2025-03-02T09:22:13Z</time>
      </trkpt>
      <trkpt lat="45.75093" lon="4.63882">
        <ele>653.2</ele>
        <time>2025-03-02T09:22:14Z</time>
      </trkpt>
      <trkpt lat="45.75095" lon="4.6388">
        <ele>653.6</ele>
        <time>2025-03-02T09:22:15Z</time>
      </trkpt>
      <trkpt lat="45.75097" lon="4.63878">
        <ele>654</ele>
        <time>2025-03-02T09:22:16Z</time>
      </trkpt>
      <trkpt lat="45.75099" lon="4.63876">
        <ele>654.4</ele>
        <time>2025-03-02T09:22:17Z</time>
      </trkpt>
      <trkpt lat="45.75101" lon="4.63873">
        <ele>654.8</ele>
        <time>2025-03-02T09:22:18Z</time>
      </trkpt>
      <trkpt lat="45.75103" lon="4.63871">
        <ele>655.2</ele>
        <time>2025-03-02T09:22:19Z</time>
      </trkpt>
      <trkpt lat="45.75105" lon="4.6387">
        <ele>655.6</ele>
        <time>2025-03-02T09:22:20Z</time>
      </trkpt>
      <trkpt lat="45.75108" lon="4.63868">
        <ele>655.8</ele>
        <time>2025-03-02T09:22:21Z</time>
      </trkpt>
      <trkpt lat="45.75111" lon="4.63866">
        <ele>656.2</ele>
        <time>2025-03-02T09:22:22Z</time>
      </trkpt>
      <trkpt lat="45.75113" lon="4.63864">
        <ele>656.6</ele>
        <time>2025-03-02T09:22:23Z</time>
      </trkpt>
      <trkpt lat="45.75115" lon="4.63863">
        <ele>656.8</ele>
        <time>2025-03-02T09:22:24Z</time>
      </trkpt>
      <trkpt lat="45.75117" lon="4.63861">
        <ele>657</ele>
        <time>2025-03-02T09:22:25Z</time>
      </trkpt>
      <trkpt lat="45.75119" lon="4.63858">
        <ele>657.2</ele>
        <time>2025-03-02T09:22:26Z</time>
      </trkpt>
      <trkpt lat="45.75121" lon="4.63857">
        <ele>657.4</ele>
        <time>2025-03-02T09:22:27Z</time>
      </trkpt>
      <trkpt lat="45.75123" lon="4.63857">
        <ele>657.6</ele>
        <time>2025-03-02T09:22:28Z</time>
      </trkpt>
      <trkpt lat="45.75126" lon="4.63856">
        <ele>658</ele>
        <time>2025-03-02T09:22:29Z</time>
      </trkpt>
      <trkpt lat="45.75129" lon="4.63854">
        <ele>658.2</ele>
        <time>2025-03-02T09:22:30Z</time>
      </trkpt>
      <trkpt lat="45.75131" lon="4.63852">
        <ele>658.2</ele>
        <time>2025-03-02T09:22:31Z</time>
      </trkpt>
      <trkpt lat="45.75134" lon="4.63851">
        <ele>658.2</ele>
        <time>2025-03-02T09:22:32Z</time>
      </trkpt>
      <trkpt lat="45.75137" lon="4.63849">
        <ele>658.2</ele>
        <time>2025-03-02T09:22:33Z</time>
      </trkpt>
      <trkpt lat="45.75141" lon="4.63848">
        <ele>658.2</ele>
        <time>2025-03-02T09:22:34Z</time>
      </trkpt>
      <trkpt lat="45.75145" lon="4.63847">
        <ele>658</ele>
        <time>2025-03-02T09:22:35Z</time>
      </trkpt>
      <trkpt lat="45.75148" lon="4.63846">
        <ele>657.8</ele>
        <time>2025-03-02T09:22:36Z</time>
      </trkpt>
      <trkpt lat="45.75152" lon="4.63846">
        <ele>657.4</ele>
        <time>2025-03-02T09:22:37Z</time>
      </trkpt>
      <trkpt lat="45.75155" lon="4.63846">
        <ele>657.4</ele>
        <time>2025-03-02T09:22:38Z</time>
      </trkpt>
      <trkpt lat="45.75158" lon="4.63846">
        <ele>657.4</ele>
        <time>2025-03-02T09:22:39Z</time>
      </trkpt>
      <trkpt lat="45.75161" lon="4.63846">
        <ele>657.4</ele>
        <time>2025-03-02T09:22:40Z</time>
      </trkpt>
      <trkpt lat="45.75164" lon="4.63846">
        <ele>657.4</ele>
        <time>2025-03-02T09:22:41Z</time>
      </trkpt>
      <trkpt lat="45.75167" lon="4.63845">
        <ele>657.2</ele>
        <time>2025-03-02T09:22:42Z</time>
      </trkpt>
      <trkpt lat="45.7517" lon="4.63845">
        <ele>657.2</ele>
        <time>2025-03-02T09:22:43Z</time>
      </trkpt>
      <trkpt lat="45.75173" lon="4.63843">
        <ele>657.4</ele>
        <time>2025-03-02T09:22:44Z</time>
      </trkpt>
      <trkpt lat="45.75176" lon="4.63842">
        <ele>657.4</ele>
        <time>2025-03-02T09:22:45Z</time>
      </trkpt>
      <trkpt lat="45.75179" lon="4.6384">
        <ele>657.4</ele>
        <time>2025-03-02T09:22:46Z</time>
      </trkpt>
      <trkpt lat="45.75182" lon="4.63838">
        <ele>657.4</ele>
        <time>2025-03-02T09:22:47Z</time>
      </trkpt>
      <trkpt lat="45.75186" lon="4.63836">
        <ele>657.4</ele>
        <time>2025-03-02T09:22:48Z</time>
      </trkpt>
      <trkpt lat="45.7519" lon="4.63833">
        <ele>657.4</ele>
        <time>2025-03-02T09:22:49Z</time>
      </trkpt>
      <trkpt lat="45.75195" lon="4.63831">
        <ele>657.6</ele>
        <time>2025-03-02T09:22:50Z</time>
      </trkpt>
      <trkpt lat="45.75198" lon="4.63829">
        <ele>657.6</ele>
        <time>2025-03-02T09:22:51Z</time>
      </trkpt>
      <trkpt lat="45.75201" lon="4.63826">
        <ele>657.6</ele>
        <time>2025-03-02T09:22:52Z</time>
      </trkpt>
      <trkpt lat="45.75205" lon="4.63824">
        <ele>657.6</ele>
        <time>2025-03-02T09:22:53Z</time>
      </trkpt>
      <trkpt lat="45.75208" lon="4.63821">
        <ele>657.6</ele>
        <time>2025-03-02T09:22:54Z</time>
      </trkpt>
      <trkpt lat="45.75211" lon="4.63818">
        <ele>657.8</ele>
        <time>2025-03-02T09:22:55Z</time>
      </trkpt>
      <trkpt lat="45.75215" lon="4.63815">
        <ele>657.8</ele>
        <time>2025-03-02T09:22:56Z</time>
      </trkpt>
      <trkpt lat="45.75218" lon="4.63812">
        <ele>658</ele>
        <time>2025-03-02T09:22:57Z</time>
      </trkpt>
      <trkpt lat="45.75221" lon="4.63808">
        <ele>658.2</ele>
        <time>2025-03-02T09:22:58Z</time>
      </trkpt>
      <trkpt lat="45.75224" lon="4.63804">
        <ele>658.4</ele>
        <time>2025-03-02T09:22:59Z</time>
      </trkpt>
      <trkpt lat="45.75227" lon="4.638">
        <ele>658.6</ele>
        <time>2025-03-02T09:23:00Z</time>
      </trkpt>
      <trkpt lat="45.75229" lon="4.63797">
        <ele>658.8</ele>
        <time>2025-03-02T09:23:01Z</time>
      </trkpt>
      <trkpt lat="45.75231" lon="4.63792">
        <ele>659</ele>
        <time>2025-03-02T09:23:02Z</time>
      </trkpt>
      <trkpt lat="45.75233" lon="4.63789">
        <ele>659.2</ele>
        <time>2025-03-02T09:23:03Z</time>
      </trkpt>
      <trkpt lat="45.75235" lon="4.63785">
        <ele>659.6</ele>
        <time>2025-03-02T09:23:04Z</time>
      </trkpt>
      <trkpt lat="45.75237" lon="4.63781">
        <ele>659.8</ele>
        <time>2025-03-02T09:23:05Z</time>
      </trkpt>
      <trkpt lat="45.75239" lon="4.63777">
        <ele>660</ele>
        <time>2025-03-02T09:23:06Z</time>
      </trkpt>
      <trkpt lat="45.75241" lon="4.63773">
        <ele>660</ele>
        <time>2025-03-02T09:23:07Z</time>
      </trkpt>
      <trkpt lat="45.75244" lon="4.63768">
        <ele>660.2</ele>
        <time>2025-03-02T09:23:08Z</time>
      </trkpt>
      <trkpt lat="45.75246" lon="4.63764">
        <ele>660.2</ele>
        <time>2025-03-02T09:23:09Z</time>
      </trkpt>
      <trkpt lat="45.75248" lon="4.63759">
        <ele>660.4</ele>
        <time>2025-03-02T09:23:10Z</time>
      </trkpt>
      <trkpt lat="45.7525" lon="4.63755">
        <ele>660.4</ele>
        <time>2025-03-02T09:23:11Z</time>
      </trkpt>
      <trkpt lat="45.75253" lon="4.6375">
        <ele>660.4</ele>
        <time>2025-03-02T09:23:12Z</time>
      </trkpt>
      <trkpt lat="45.75255" lon="4.63745">
        <ele>660.6</ele>
        <time>2025-03-02T09:23:13Z</time>
      </trkpt>
      <trkpt lat="45.75258" lon="4.63741">
        <ele>660.6</ele>
        <time>2025-03-02T09:23:14Z</time>
      </trkpt>
      <trkpt lat="45.7526" lon="4.63737">
        <ele>660.6</ele>
        <time>2025-03-02T09:23:15Z</time>
      </trkpt>
      <trkpt lat="45.75262" lon="4.63733">
        <ele>661</ele>
        <time>2025-03-02T09:23:16Z</time>
      </trkpt>
      <trkpt lat="45.75263" lon="4.63729">
        <ele>661</ele>
        <time>2025-03-02T09:23:17Z</time>
      </trkpt>
      <trkpt lat="45.75265" lon="4.63724">
        <ele>661.2</ele>
        <time>2025-03-02T09:23:18Z</time>
      </trkpt>
      <trkpt lat="45.75267" lon="4.6372">
        <ele>661.2</ele>
        <time>2025-03-02T09:23:19Z</time>
      </trkpt>
      <trkpt lat="45.75268" lon="4.63715">
        <ele>661.2</ele>
        <time>2025-03-02T09:23:20Z</time>
      </trkpt>
      <trkpt lat="45.75269" lon="4.6371">
        <ele>661.4</ele>
        <time>2025-03-02T09:23:21Z</time>
      </trkpt>
      <trkpt lat="45.75271" lon="4.63706">
        <ele>661.6</ele>
        <time>2025-03-02T09:23:22Z</time>
      </trkpt>
      <trkpt lat="45.75271" lon="4.63702">
        <ele>661.6</ele>
        <time>2025-03-02T09:23:23Z</time>
      </trkpt>
      <trkpt lat="45.75272" lon="4.637">
        <ele>662</ele>
        <time>2025-03-02T09:23:24Z</time>
      </trkpt>
      <trkpt lat="45.75272" lon="4.63698">
        <ele>662.2</ele>
        <time>2025-03-02T09:23:25Z</time>
      </trkpt>
      <trkpt lat="45.75272" lon="4.63697">
        <ele>662.4</ele>
        <time>2025-03-02T09:23:26Z</time>
      </trkpt>
      <trkpt lat="45.75272" lon="4.63697">
        <ele>662.6</ele>
        <time>2025-03-02T09:23:27Z</time>
      </trkpt>
      <trkpt lat="45.75272" lon="4.63697">
        <ele>663</ele>
        <time>2025-03-02T09:23:28Z</time>
      </trkpt>
      <trkpt lat="45.75272" lon="4.63697">
        <ele>663.2</ele>
        <time>2025-03-02T09:23:29Z</time>
      </trkpt>
      <trkpt lat="45.75272" lon="4.63697">
        <ele>663.2</ele>
        <time>2025-03-02T09:23:30Z</time>
      </trkpt>
      <trkpt lat="45.75272" lon="4.63697">
        <ele>663.2</ele>
        <time>2025-03-02T09:23:31Z</time>
      </trkpt>
      <trkpt lat="45.75272" lon="4.63697">
        <ele>663.2</ele>
        <time>2025-03-02T09:23:32Z</time>
      </trkpt>
      <trkpt lat="45.75272" lon="4.63697">
        <ele>663.2</ele>
        <time>2025-03-02T09:23:33Z</time>
      </trkpt>
      <trkpt lat="45.75272" lon="4.63697">
        <ele>663.2</ele>
        <time>2025-03-02T09:23:34Z</time>
      </trkpt>
      <trkpt lat="45.75272" lon="4.63697">
        <ele>663.2</ele>
        <time>2025-03-02T09:23:35Z</time>
      </trkpt>
      <trkpt lat="45.75272" lon="4.63697">
        <ele>663.2</ele>
        <time>2025-03-02T09:23:36Z</time>
      </trkpt>
      <trkpt lat="45.75272" lon="4.63697">
        <ele>663.2</ele>
        <time>2025-03-02T09:23:37Z</time>
      </trkpt>
      <trkpt lat="45.75272" lon="4.63697">
        <ele>663.2</ele>
        <time>2025-03-02T09:23:38Z</time>
      </trkpt>
      <trkpt lat="45.75272" lon="4.63697">
        <ele>663.2</ele>
        <time>2025-03-02T09:23:39Z</time>
      </trkpt>
      <trkpt lat="45.75272" lon="4.63697">
        <ele>663.2</ele>
        <time>2025-03-02T09:23:40Z</time>
      </trkpt>
      <trkpt lat="45.75272" lon="4.63697">
        <ele>663.2</ele>
        <time>2025-03-02T09:23:41Z</time>
      </trkpt>
      <trkpt lat="45.75272" lon="4.63697">
        <ele>663.2</ele>
        <time>2025-03-02T09:23:42Z</time>
      </trkpt>
      <trkpt lat="45.75272" lon="4.63695">
        <ele>663.2</ele>
        <time>2025-03-02T09:23:43Z</time>
      </trkpt>
      <trkpt lat="45.75272" lon="4.63691">
        <ele>663.2</ele>
        <time>2025-03-02T09:23:44Z</time>
      </trkpt>
      <trkpt lat="45.75271" lon="4.63687">
        <ele>663</ele>
        <time>2025-03-02T09:23:45Z</time>
      </trkpt>
      <trkpt lat="45.75271" lon="4.63683">
        <ele>663</ele>
        <time>2025-03-02T09:23:46Z</time>
      </trkpt>
      <trkpt lat="45.7527" lon="4.63679">
        <ele>663</ele>
        <time>2025-03-02T09:23:47Z</time>
      </trkpt>
      <trkpt lat="45.75269" lon="4.63674">
        <ele>663</ele>
        <time>2025-03-02T09:23:48Z</time>
      </trkpt>
      <trkpt lat="45.75269" lon="4.6367">
        <ele>663</ele>
        <time>2025-03-02T09:23:49Z</time>
      </trkpt>
      <trkpt lat="45.75269" lon="4.63665">
        <ele>663.4</ele>
        <time>2025-03-02T09:23:50Z</time>
      </trkpt>
      <trkpt lat="45.75268" lon="4.63661">
        <ele>663.6</ele>
        <time>2025-03-02T09:23:51Z</time>
      </trkpt>
      <trkpt lat="45.75269" lon="4.63657">
        <ele>664</ele>
        <time>2025-03-02T09:23:52Z</time>
      </trkpt>
      <trkpt lat="45.75269" lon="4.63653">
        <ele>664.4</ele>
        <time>2025-03-02T09:23:53Z</time>
      </trkpt>
      <trkpt lat="45.75269" lon="4.6365">
        <ele>664.8</ele>
        <time>2025-03-02T09:23:54Z</time>
      </trkpt>
      <trkpt lat="45.75268" lon="4.63646">
        <ele>665.2</ele>
        <time>2025-03-02T09:23:55Z</time>
      </trkpt>
      <trkpt lat="45.75267" lon="4.63643">
        <ele>665.8</ele>
        <time>2025-03-02T09:23:56Z</time>
      </trkpt>
      <trkpt lat="45.75267" lon="4.63639">
        <ele>666.2</ele>
        <time>2025-03-02T09:23:57Z</time>
      </trkpt>
      <trkpt lat="45.75266" lon="4.63635">
        <ele>666.6</ele>
        <time>2025-03-02T09:23:58Z</time>
      </trkpt>
      <trkpt lat="45.75266" lon="4.6363">
        <ele>667</ele>
        <time>2025-03-02T09:23:59Z</time>
      </trkpt>
      <trkpt lat="45.75265" lon="4.63626">
        <ele>667.4</ele>
        <time>2025-03-02T09:24:00Z</time>
      </trkpt>
      <trkpt lat="45.75265" lon="4.63622">
        <ele>667.6</ele>
        <time>2025-03-02T09:24:01Z</time>
      </trkpt>
      <trkpt lat="45.75265" lon="4.63619">
        <ele>668</ele>
        <time>2025-03-02T09:24:02Z</time>
      </trkpt>
      <trkpt lat="45.75264" lon="4.63615">
        <ele>668.4</ele>
        <time>2025-03-02T09:24:03Z</time>
      </trkpt>
      <trkpt lat="45.75263" lon="4.63611">
        <ele>668.6</ele>
        <time>2025-03-02T09:24:04Z</time>
      </trkpt>
      <trkpt lat="45.75263" lon="4.63606">
        <ele>668.8</ele>
        <time>2025-03-02T09:24:05Z</time>
      </trkpt>
      <trkpt lat="45.75262" lon="4.63602">
        <ele>669</ele>
        <time>2025-03-02T09:24:06Z</time>
      </trkpt>
      <trkpt lat="45.75262" lon="4.63598">
        <ele>669.4</ele>
        <time>2025-03-02T09:24:07Z</time>
      </trkpt>
      <trkpt lat="45.75261" lon="4.63595">
        <ele>669.6</ele>
        <time>2025-03-02T09:24:08Z</time>
      </trkpt>
      <trkpt lat="45.75261" lon="4.63591">
        <ele>669.8</ele>
        <time>2025-03-02T09:24:09Z</time>
      </trkpt>
      <trkpt lat="45.7526" lon="4.63587">
        <ele>670.2</ele>
        <time>2025-03-02T09:24:10Z</time>
      </trkpt>
      <trkpt lat="45.7526" lon="4.63583">
        <ele>670.6</ele>
        <time>2025-03-02T09:24:11Z</time>
      </trkpt>
      <trkpt lat="45.7526" lon="4.63579">
        <ele>670.8</ele>
        <time>2025-03-02T09:24:12Z</time>
      </trkpt>
      <trkpt lat="45.7526" lon="4.63576">
        <ele>671</ele>
        <time>2025-03-02T09:24:13Z</time>
      </trkpt>
      <trkpt lat="45.75259" lon="4.63572">
        <ele>671.2</ele>
        <time>2025-03-02T09:24:14Z</time>
      </trkpt>
      <trkpt lat="45.75259" lon="4.63568">
        <ele>671.6</ele>
        <time>2025-03-02T09:24:15Z</time>
      </trkpt>
      <trkpt lat="45.75258" lon="4.63566">
        <ele>671.6</ele>
        <time>2025-03-02T09:24:16Z</time>
      </trkpt>
      <trkpt lat="45.75257" lon="4.63563">
        <ele>672.2</ele>
        <time>2025-03-02T09:24:17Z</time>
      </trkpt>
      <trkpt lat="45.75256" lon="4.6356">
        <ele>672.6</ele>
        <time>2025-03-02T09:24:18Z</time>
      </trkpt>
      <trkpt lat="45.75256" lon="4.63557">
        <ele>672.6</ele>
        <time>2025-03-02T09:24:19Z</time>
      </trkpt>
      <trkpt lat="45.75255" lon="4.63554">
        <ele>673</ele>
        <time>2025-03-02T09:24:20Z</time>
      </trkpt>
      <trkpt lat="45.75254" lon="4.6355">
        <ele>673.2</ele>
        <time>2025-03-02T09:24:21Z</time>
      </trkpt>
      <trkpt lat="45.75254" lon="4.63547">
        <ele>673.8</ele>
        <time>2025-03-02T09:24:22Z</time>
      </trkpt>
      <trkpt lat="45.75253" lon="4.63543">
        <ele>674</ele>
        <time>2025-03-02T09:24:23Z</time>
      </trkpt>
      <trkpt lat="45.75253" lon="4.6354">
        <ele>674.4</ele>
        <time>2025-03-02T09:24:24Z</time>
      </trkpt>
      <trkpt lat="45.75252" lon="4.63537">
        <ele>674.8</ele>
        <time>2025-03-02T09:24:25Z</time>
      </trkpt>
      <trkpt lat="45.75251" lon="4.63533">
        <ele>675</ele>
        <time>2025-03-02T09:24:26Z</time>
      </trkpt>
      <trkpt lat="45.75251" lon="4.6353">
        <ele>675.4</ele>
        <time>2025-03-02T09:24:27Z</time>
      </trkpt>
      <trkpt lat="45.7525" lon="4.63526">
        <ele>675.8</ele>
        <time>2025-03-02T09:24:28Z</time>
      </trkpt>
      <trkpt lat="45.7525" lon="4.63523">
        <ele>676</ele>
        <time>2025-03-02T09:24:29Z</time>
      </trkpt>
      <trkpt lat="45.7525" lon="4.6352">
        <ele>676.4</ele>
        <time>2025-03-02T09:24:30Z</time>
      </trkpt>
      <trkpt lat="45.7525" lon="4.63517">
        <ele>676.8</ele>
        <time>2025-03-02T09:24:31Z</time>
      </trkpt>
      <trkpt lat="45.7525" lon="4.63515">
        <ele>677</ele>
        <time>2025-03-02T09:24:32Z</time>
      </trkpt>
      <trkpt lat="45.7525" lon="4.63511">
        <ele>677.4</ele>
        <time>2025-03-02T09:24:33Z</time>
      </trkpt>
      <trkpt lat="45.75249" lon="4.63508">
        <ele>677.4</ele>
        <time>2025-03-02T09:24:34Z</time>
      </trkpt>
      <trkpt lat="45.75249" lon="4.63505">
        <ele>677.6</ele>
        <time>2025-03-02T09:24:35Z</time>
      </trkpt>
      <trkpt lat="45.75249" lon="4.63502">
        <ele>678</ele>
        <time>2025-03-02T09:24:36Z</time>
      </trkpt>
      <trkpt lat="45.75248" lon="4.63499">
        <ele>678.2</ele>
        <time>2025-03-02T09:24:37Z</time>
      </trkpt>
      <trkpt lat="45.75247" lon="4.63496">
        <ele>678.8</ele>
        <time>2025-03-02T09:24:38Z</time>
      </trkpt>
      <trkpt lat="45.75247" lon="4.63493">
        <ele>679</ele>
        <time>2025-03-02T09:24:39Z</time>
      </trkpt>
      <trkpt lat="45.75247" lon="4.63489">
        <ele>679</ele>
        <time>2025-03-02T09:24:40Z</time>
      </trkpt>
      <trkpt lat="45.75247" lon="4.63487">
        <ele>679.4</ele>
        <time>2025-03-02T09:24:41Z</time>
      </trkpt>
      <trkpt lat="45.75247" lon="4.63487">
        <ele>679.6</ele>
        <time>2025-03-02T09:24:42Z</time>
      </trkpt>
      <trkpt lat="45.75247" lon="4.63487">
        <ele>679.8</ele>
        <time>2025-03-02T09:24:43Z</time>
      </trkpt>
      <trkpt lat="45.75247" lon="4.63487">
        <ele>680.2</ele>
        <time>2025-03-02T09:24:44Z</time>
      </trkpt>
      <trkpt lat="45.75247" lon="4.63487">
        <ele>680.4</ele>
        <time>2025-03-02T09:24:45Z</time>
      </trkpt>
      <trkpt lat="45.75247" lon="4.63487">
        <ele>680.6</ele>
        <time>2025-03-02T09:24:46Z</time>
      </trkpt>
      <trkpt lat="45.75247" lon="4.63487">
        <ele>680.6</ele>
        <time>2025-03-02T09:24:47Z</time>
      </trkpt>
      <trkpt lat="45.75247" lon="4.63487">
        <ele>680.6</ele>
        <time>2025-03-02T09:24:48Z</time>
      </trkpt>
      <trkpt lat="45.75247" lon="4.63487">
        <ele>680.6</ele>
        <time>2025-03-02T09:24:49Z</time>
      </trkpt>
      <trkpt lat="45.75247" lon="4.63487">
        <ele>680.6</ele>
        <time>2025-03-02T09:24:50Z</time>
      </trkpt>
      <trkpt lat="45.75247" lon="4.63487">
        <ele>680.6</ele>
        <time>2025-03-02T09:24:51Z</time>
      </trkpt>
      <trkpt lat="45.75247" lon="4.63487">
        <ele>680.6</ele>
        <time>2025-03-02T09:24:52Z</time>
      </trkpt>
      <trkpt lat="45.75247" lon="4.63487">
        <ele>680.6</ele>
        <time>2025-03-02T09:24:53Z</time>
      </trkpt>
      <trkpt lat="45.75247" lon="4.63487">
        <ele>680.6</ele>
        <time>2025-03-02T09:24:54Z</time>
      </trkpt>
      <trkpt lat="45.75247" lon="4.63487">
        <ele>680.4</ele>
        <time>2025-03-02T09:24:55Z</time>
      </trkpt>
      <trkpt lat="45.75247" lon="4.63487">
        <ele>680.4</ele>
        <time>2025-03-02T09:24:56Z</time>
      </trkpt>
      <trkpt lat="45.75247" lon="4.63487">
        <ele>680.4</ele>
        <time>2025-03-02T09:24:57Z</time>
      </trkpt>
      <trkpt lat="45.75247" lon="4.63487">
        <ele>680.4</ele>
        <time>2025-03-02T09:24:58Z</time>
      </trkpt>
      <trkpt lat="45.75247" lon="4.63487">
        <ele>680.4</ele>
        <time>2025-03-02T09:24:59Z</time>
      </trkpt>
      <trkpt lat="45.75247" lon="4.63487">
        <ele>680.4</ele>
        <time>2025-03-02T09:25:00Z</time>
      </trkpt>
      <trkpt lat="45.75247" lon="4.63487">
        <ele>680.4</ele>
        <time>2025-03-02T09:25:01Z</time>
      </trkpt>
      <trkpt lat="45.75247" lon="4.63487">
        <ele>680.4</ele>
        <time>2025-03-02T09:25:02Z</time>
      </trkpt>
      <trkpt lat="45.75247" lon="4.63487">
        <ele>680.4</ele>
        <time>2025-03-02T09:25:03Z</time>
      </trkpt>
      <trkpt lat="45.75247" lon="4.63487">
        <ele>680.4</ele>
        <time>2025-03-02T09:25:04Z</time>
      </trkpt>
      <trkpt lat="45.75247" lon="4.63487">
        <ele>680.4</ele>
        <time>2025-03-02T09:25:05Z</time>
      </trkpt>
      <trkpt lat="45.75247" lon="4.63487">
        <ele>680.4</ele>
        <time>2025-03-02T09:25:06Z</time>
      </trkpt>
      <trkpt lat="45.75247" lon="4.63487">
        <ele>680.4</ele>
        <time>2025-03-02T09:25:07Z</time>
      </trkpt>
      <trkpt lat="45.75247" lon="4.63487">
        <ele>680.4</ele>
        <time>2025-03-02T09:25:08Z</time>
      </trkpt>
      <trkpt lat="45.75247" lon="4.63487">
        <ele>680.4</ele>
        <time>2025-03-02T09:25:09Z</time>
      </trkpt>
      <trkpt lat="45.75247" lon="4.63487">
        <ele>680.4</ele>
        <time>2025-03-02T09:25:10Z</time>
      </trkpt>
      <trkpt lat="45.75247" lon="4.63487">
        <ele>680.4</ele>
        <time>2025-03-02T09:25:11Z</time>
      </trkpt>
      <trkpt lat="45.75247" lon="4.63487">
        <ele>680.4</ele>
        <time>2025-03-02T09:25:12Z</time>
      </trkpt>
      <trkpt lat="45.75247" lon="4.63487">
        <ele>680.4</ele>
        <time>2025-03-02T09:25:13Z</time>
      </trkpt>
      <trkpt lat="45.75247" lon="4.63487">
        <ele>680.4</ele>
        <time>2025-03-02T09:25:14Z</time>
      </trkpt>
      <trkpt lat="45.75247" lon="4.63487">
        <ele>680.4</ele>
        <time>2025-03-02T09:25:15Z</time>
      </trkpt>
      <trkpt lat="45.75247" lon="4.63487">
        <ele>680.4</ele>
        <time>2025-03-02T09:25:16Z</time>
      </trkpt>
      <trkpt lat="45.75247" lon="4.63487">
        <ele>680.4</ele>
        <time>2025-03-02T09:25:17Z</time>
      </trkpt>
      <trkpt lat="45.75247" lon="4.63487">
        <ele>680.2</ele>
        <time>2025-03-02T09:25:18Z</time>
      </trkpt>
      <trkpt lat="45.75247" lon="4.63487">
        <ele>680.2</ele>
        <time>2025-03-02T09:25:19Z</time>
      </trkpt>
      <trkpt lat="45.75247" lon="4.63487">
        <ele>680.2</ele>
        <time>2025-03-02T09:25:20Z</time>
      </trkpt>
      <trkpt lat="45.75247" lon="4.63487">
        <ele>680.2</ele>
        <time>2025-03-02T09:25:21Z</time>
      </trkpt>
      <trkpt lat="45.75247" lon="4.63487">
        <ele>680.2</ele>
        <time>2025-03-02T09:25:22Z</time>
      </trkpt>
      <trkpt lat="45.75247" lon="4.63487">
        <ele>680.2</ele>
        <time>2025-03-02T09:25:23Z</time>
      </trkpt>
      <trkpt lat="45.75247" lon="4.63487">
        <ele>680.2</ele>
        <time>2025-03-02T09:25:24Z</time>
      </trkpt>
      <trkpt lat="45.75247" lon="4.63487">
        <ele>680</ele>
        <time>2025-03-02T09:25:25Z</time>
      </trkpt>
      <trkpt lat="45.75247" lon="4.63487">
        <ele>680</ele>
        <time>2025-03-02T09:25:26Z</time>
      </trkpt>
      <trkpt lat="45.75247" lon="4.63487">
        <ele>680</ele>
        <time>2025-03-02T09:25:27Z</time>
      </trkpt>
      <trkpt lat="45.75247" lon="4.63487">
        <ele>680</ele>
        <time>2025-03-02T09:25:28Z</time>
      </trkpt>
      <trkpt lat="45.75247" lon="4.63487">
        <ele>680</ele>
        <time>2025-03-02T09:25:29Z</time>
      </trkpt>
      <trkpt lat="45.75247" lon="4.63487">
        <ele>680</ele>
        <time>2025-03-02T09:25:30Z</time>
      </trkpt>
      <trkpt lat="45.75247" lon="4.63487">
        <ele>679.8</ele>
        <time>2025-03-02T09:25:31Z</time>
      </trkpt>
      <trkpt lat="45.75247" lon="4.63487">
        <ele>679.8</ele>
        <time>2025-03-02T09:25:32Z</time>
      </trkpt>
      <trkpt lat="45.75247" lon="4.63487">
        <ele>679.8</ele>
        <time>2025-03-02T09:25:33Z</time>
      </trkpt>
      <trkpt lat="45.75247" lon="4.63487">
        <ele>679.8</ele>
        <time>2025-03-02T09:25:34Z</time>
      </trkpt>
      <trkpt lat="45.75247" lon="4.63487">
        <ele>679.8</ele>
        <time>2025-03-02T09:25:35Z</time>
      </trkpt>
      <trkpt lat="45.75247" lon="4.63487">
        <ele>679.8</ele>
        <time>2025-03-02T09:25:36Z</time>
      </trkpt>
      <trkpt lat="45.75247" lon="4.63487">
        <ele>679.8</ele>
        <time>2025-03-02T09:25:37Z</time>
      </trkpt>
      <trkpt lat="45.75247" lon="4.63487">
        <ele>679.8</ele>
        <time>2025-03-02T09:25:38Z</time>
      </trkpt>
      <trkpt lat="45.75247" lon="4.63487">
        <ele>679.8</ele>
        <time>2025-03-02T09:25:39Z</time>
      </trkpt>
      <trkpt lat="45.75247" lon="4.63487">
        <ele>679.8</ele>
        <time>2025-03-02T09:25:40Z</time>
      </trkpt>
      <trkpt lat="45.75247" lon="4.63487">
        <ele>679.8</ele>
        <time>2025-03-02T09:25:41Z</time>
      </trkpt>
      <trkpt lat="45.75247" lon="4.63487">
        <ele>679.8</ele>
        <time>2025-03-02T09:25:42Z</time>
      </trkpt>
      <trkpt lat="45.75247" lon="4.63487">
        <ele>679.8</ele>
        <time>2025-03-02T09:25:43Z</time>
      </trkpt>
      <trkpt lat="45.75247" lon="4.63487">
        <ele>679.8</ele>
        <time>2025-03-02T09:25:44Z</time>
      </trkpt>
      <trkpt lat="45.75247" lon="4.63487">
        <ele>679.8</ele>
        <time>2025-03-02T09:25:45Z</time>
      </trkpt>
      <trkpt lat="45.75247" lon="4.63487">
        <ele>679.8</ele>
        <time>2025-03-02T09:25:46Z</time>
      </trkpt>
      <trkpt lat="45.75247" lon="4.63487">
        <ele>679.8</ele>
        <time>2025-03-02T09:25:47Z</time>
      </trkpt>
      <trkpt lat="45.75247" lon="4.63487">
        <ele>679.8</ele>
        <time>2025-03-02T09:25:48Z</time>
      </trkpt>
      <trkpt lat="45.75247" lon="4.63487">
        <ele>679.8</ele>
        <time>2025-03-02T09:25:49Z</time>
      </trkpt>
      <trkpt lat="45.75247" lon="4.63487">
        <ele>679.8</ele>
        <time>2025-03-02T09:25:50Z</time>
      </trkpt>
      <trkpt lat="45.75247" lon="4.63487">
        <ele>679.8</ele>
        <time>2025-03-02T09:25:51Z</time>
      </trkpt>
      <trkpt lat="45.75247" lon="4.63487">
        <ele>679.8</ele>
        <time>2025-03-02T09:25:52Z</time>
      </trkpt>
      <trkpt lat="45.75247" lon="4.63487">
        <ele>679.8</ele>
        <time>2025-03-02T09:25:53Z</time>
      </trkpt>
      <trkpt lat="45.75247" lon="4.63487">
        <ele>679.8</ele>
        <time>2025-03-02T09:25:54Z</time>
      </trkpt>
      <trkpt lat="45.75247" lon="4.63487">
        <ele>679.8</ele>
        <time>2025-03-02T09:25:55Z</time>
      </trkpt>
      <trkpt lat="45.75247" lon="4.63487">
        <ele>679.8</ele>
        <time>2025-03-02T09:25:56Z</time>
      </trkpt>
      <trkpt lat="45.75247" lon="4.63487">
        <ele>679.6</ele>
        <time>2025-03-02T09:25:57Z</time>
      </trkpt>
      <trkpt lat="45.75247" lon="4.63487">
        <ele>679.6</ele>
        <time>2025-03-02T09:25:58Z</time>
      </trkpt>
      <trkpt lat="45.75247" lon="4.63487">
        <ele>679.6</ele>
        <time>2025-03-02T09:25:59Z</time>
      </trkpt>
      <trkpt lat="45.75247" lon="4.63487">
        <ele>679.6</ele>
        <time>2025-03-02T09:26:00Z</time>
      </trkpt>
      <trkpt lat="45.75247" lon="4.63487">
        <ele>679.6</ele>
        <time>2025-03-02T09:26:01Z</time>
      </trkpt>
      <trkpt lat="45.75247" lon="4.63487">
        <ele>679.6</ele>
        <time>2025-03-02T09:26:02Z</time>
      </trkpt>
      <trkpt lat="45.75247" lon="4.63487">
        <ele>679.8</ele>
        <time>2025-03-02T09:26:03Z</time>
      </trkpt>
      <trkpt lat="45.75247" lon="4.63487">
        <ele>679.8</ele>
        <time>2025-03-02T09:26:04Z</time>
      </trkpt>
      <trkpt lat="45.75247" lon="4.63487">
        <ele>679.8</ele>
        <time>2025-03-02T09:26:05Z</time>
      </trkpt>
      <trkpt lat="45.75247" lon="4.63487">
        <ele>679.8</ele>
        <time>2025-03-02T09:26:06Z</time>
      </trkpt>
      <trkpt lat="45.75247" lon="4.63487">
        <ele>679.8</ele>
        <time>2025-03-02T09:26:07Z</time>
      </trkpt>
      <trkpt lat="45.75247" lon="4.63487">
        <ele>679.8</ele>
        <time>2025-03-02T09:26:08Z</time>
      </trkpt>
      <trkpt lat="45.75247" lon="4.63487">
        <ele>679.8</ele>
        <time>2025-03-02T09:26:09Z</time>
      </trkpt>
      <trkpt lat="45.75247" lon="4.63487">
        <ele>679.8</ele>
        <time>2025-03-02T09:26:10Z</time>
      </trkpt>
      <trkpt lat="45.75247" lon="4.63487">
        <ele>679.8</ele>
        <time>2025-03-02T09:26:11Z</time>
      </trkpt>
      <trkpt lat="45.75247" lon="4.63487">
        <ele>679.8</ele>
        <time>2025-03-02T09:26:12Z</time>
      </trkpt>
      <trkpt lat="45.75247" lon="4.63487">
        <ele>679.6</ele>
        <time>2025-03-02T09:26:13Z</time>
      </trkpt>
      <trkpt lat="45.75247" lon="4.63487">
        <ele>679.6</ele>
        <time>2025-03-02T09:26:14Z</time>
      </trkpt>
      <trkpt lat="45.75247" lon="4.63487">
        <ele>679.6</ele>
        <time>2025-03-02T09:26:15Z</time>
      </trkpt>
      <trkpt lat="45.75247" lon="4.63487">
        <ele>679.6</ele>
        <time>2025-03-02T09:26:16Z</time>
      </trkpt>
      <trkpt lat="45.75247" lon="4.63487">
        <ele>679.6</ele>
        <time>2025-03-02T09:26:17Z</time>
      </trkpt>
      <trkpt lat="45.75247" lon="4.63487">
        <ele>679.6</ele>
        <time>2025-03-02T09:26:18Z</time>
      </trkpt>
      <trkpt lat="45.75247" lon="4.63487">
        <ele>679.6</ele>
        <time>2025-03-02T09:26:19Z</time>
      </trkpt>
      <trkpt lat="45.75247" lon="4.63487">
        <ele>679.4</ele>
        <time>2025-03-02T09:26:20Z</time>
      </trkpt>
      <trkpt lat="45.75247" lon="4.63487">
        <ele>679.4</ele>
        <time>2025-03-02T09:26:21Z</time>
      </trkpt>
      <trkpt lat="45.75247" lon="4.63487">
        <ele>679.4</ele>
        <time>2025-03-02T09:26:22Z</time>
      </trkpt>
      <trkpt lat="45.75247" lon="4.63487">
        <ele>679.4</ele>
        <time>2025-03-02T09:26:23Z</time>
      </trkpt>
      <trkpt lat="45.75247" lon="4.63487">
        <ele>679.4</ele>
        <time>2025-03-02T09:26:24Z</time>
      </trkpt>
      <trkpt lat="45.75247" lon="4.63487">
        <ele>679.4</ele>
        <time>2025-03-02T09:26:25Z</time>
      </trkpt>
      <trkpt lat="45.75247" lon="4.63487">
        <ele>679.4</ele>
        <time>2025-03-02T09:26:26Z</time>
      </trkpt>
      <trkpt lat="45.75247" lon="4.63487">
        <ele>679.4</ele>
        <time>2025-03-02T09:26:27Z</time>
      </trkpt>
      <trkpt lat="45.75247" lon="4.63487">
        <ele>679.4</ele>
        <time>2025-03-02T09:26:28Z</time>
      </trkpt>
      <trkpt lat="45.75247" lon="4.63487">
        <ele>679.4</ele>
        <time>2025-03-02T09:26:29Z</time>
      </trkpt>
      <trkpt lat="45.75247" lon="4.63487">
        <ele>679.4</ele>
        <time>2025-03-02T09:26:30Z</time>
      </trkpt>
      <trkpt lat="45.75247" lon="4.63487">
        <ele>679.4</ele>
        <time>2025-03-02T09:26:31Z</time>
      </trkpt>
      <trkpt lat="45.75247" lon="4.63487">
        <ele>679.4</ele>
        <time>2025-03-02T09:26:32Z</time>
      </trkpt>
      <trkpt lat="45.75247" lon="4.63487">
        <ele>679.4</ele>
        <time>2025-03-02T09:26:33Z</time>
      </trkpt>
      <trkpt lat="45.75247" lon="4.63487">
        <ele>679.4</ele>
        <time>2025-03-02T09:26:34Z</time>
      </trkpt>
      <trkpt lat="45.75247" lon="4.63487">
        <ele>679.4</ele>
        <time>2025-03-02T09:26:35Z</time>
      </trkpt>
      <trkpt lat="45.75247" lon="4.63487">
        <ele>679.4</ele>
        <time>2025-03-02T09:26:36Z</time>
      </trkpt>
      <trkpt lat="45.75247" lon="4.63487">
        <ele>679.4</ele>
        <time>2025-03-02T09:26:37Z</time>
      </trkpt>
      <trkpt lat="45.75247" lon="4.63487">
        <ele>679.4</ele>
        <time>2025-03-02T09:26:38Z</time>
      </trkpt>
      <trkpt lat="45.75247" lon="4.63487">
        <ele>679.4</ele>
        <time>2025-03-02T09:26:39Z</time>
      </trkpt>
      <trkpt lat="45.75247" lon="4.63487">
        <ele>679.4</ele>
        <time>2025-03-02T09:26:40Z</time>
      </trkpt>
      <trkpt lat="45.75247" lon="4.63487">
        <ele>679.4</ele>
        <time>2025-03-02T09:26:41Z</time>
      </trkpt>
      <trkpt lat="45.75247" lon="4.63487">
        <ele>679.4</ele>
        <time>2025-03-02T09:26:42Z</time>
      </trkpt>
      <trkpt lat="45.75247" lon="4.63487">
        <ele>679.4</ele>
        <time>2025-03-02T09:26:43Z</time>
      </trkpt>
      <trkpt lat="45.75247" lon="4.63487">
        <ele>679.4</ele>
        <time>2025-03-02T09:26:44Z</time>
      </trkpt>
      <trkpt lat="45.75247" lon="4.63487">
        <ele>679.4</ele>
        <time>2025-03-02T09:26:45Z</time>
      </trkpt>
      <trkpt lat="45.75247" lon="4.63487">
        <ele>679.4</ele>
        <time>2025-03-02T09:26:46Z</time>
      </trkpt>
      <trkpt lat="45.75247" lon="4.63487">
        <ele>679.2</ele>
        <time>2025-03-02T09:26:47Z</time>
      </trkpt>
      <trkpt lat="45.75247" lon="4.63487">
        <ele>679.2</ele>
        <time>2025-03-02T09:26:48Z</time>
      </trkpt>
      <trkpt lat="45.75247" lon="4.63487">
        <ele>679.2</ele>
        <time>2025-03-02T09:26:49Z</time>
      </trkpt>
      <trkpt lat="45.75247" lon="4.63487">
        <ele>679.2</ele>
        <time>2025-03-02T09:26:50Z</time>
      </trkpt>
      <trkpt lat="45.75247" lon="4.63487">
        <ele>679.2</ele>
        <time>2025-03-02T09:26:51Z</time>
      </trkpt>
      <trkpt lat="45.75246" lon="4.63487">
        <ele>679.4</ele>
        <time>2025-03-02T09:26:52Z</time>
      </trkpt>
      <trkpt lat="45.75246" lon="4.63487">
        <ele>679.4</ele>
        <time>2025-03-02T09:26:53Z</time>
      </trkpt>
      <trkpt lat="45.75246" lon="4.63487">
        <ele>679.4</ele>
        <time>2025-03-02T09:26:54Z</time>
      </trkpt>
      <trkpt lat="45.75246" lon="4.63487">
        <ele>679.4</ele>
        <time>2025-03-02T09:26:55Z</time>
      </trkpt>
      <trkpt lat="45.75246" lon="4.63487">
        <ele>679.6</ele>
        <time>2025-03-02T09:26:56Z</time>
      </trkpt>
      <trkpt lat="45.75246" lon="4.63487">
        <ele>679.6</ele>
        <time>2025-03-02T09:26:57Z</time>
      </trkpt>
      <trkpt lat="45.75246" lon="4.63487">
        <ele>679.6</ele>
        <time>2025-03-02T09:26:58Z</time>
      </trkpt>
      <trkpt lat="45.75246" lon="4.63487">
        <ele>679.6</ele>
        <time>2025-03-02T09:26:59Z</time>
      </trkpt>
      <trkpt lat="45.75246" lon="4.63487">
        <ele>679.8</ele>
        <time>2025-03-02T09:27:00Z</time>
      </trkpt>
      <trkpt lat="45.75246" lon="4.63487">
        <ele>679.8</ele>
        <time>2025-03-02T09:27:01Z</time>
      </trkpt>
      <trkpt lat="45.75246" lon="4.63487">
        <ele>680</ele>
        <time>2025-03-02T09:27:02Z</time>
      </trkpt>
      <trkpt lat="45.75246" lon="4.63487">
        <ele>680</ele>
        <time>2025-03-02T09:27:03Z</time>
      </trkpt>
      <trkpt lat="45.75246" lon="4.63487">
        <ele>680</ele>
        <time>2025-03-02T09:27:04Z</time>
      </trkpt>
      <trkpt lat="45.75246" lon="4.63487">
        <ele>680</ele>
        <time>2025-03-02T09:27:05Z</time>
      </trkpt>
      <trkpt lat="45.75246" lon="4.63487">
        <ele>680</ele>
        <time>2025-03-02T09:27:06Z</time>
      </trkpt>
      <trkpt lat="45.75246" lon="4.63487">
        <ele>680</ele>
        <time>2025-03-02T09:27:07Z</time>
      </trkpt>
      <trkpt lat="45.75246" lon="4.63487">
        <ele>680</ele>
        <time>2025-03-02T09:27:08Z</time>
      </trkpt>
      <trkpt lat="45.75246" lon="4.63487">
        <ele>680</ele>
        <time>2025-03-02T09:27:09Z</time>
      </trkpt>
      <trkpt lat="45.75246" lon="4.63487">
        <ele>680</ele>
        <time>2025-03-02T09:27:10Z</time>
      </trkpt>
      <trkpt lat="45.75246" lon="4.63487">
        <ele>680</ele>
        <time>2025-03-02T09:27:11Z</time>
      </trkpt>
      <trkpt lat="45.75246" lon="4.63487">
        <ele>680</ele>
        <time>2025-03-02T09:27:12Z</time>
      </trkpt>
      <trkpt lat="45.75246" lon="4.63487">
        <ele>680</ele>
        <time>2025-03-02T09:27:13Z</time>
      </trkpt>
      <trkpt lat="45.75246" lon="4.63487">
        <ele>680</ele>
        <time>2025-03-02T09:27:14Z</time>
      </trkpt>
      <trkpt lat="45.75246" lon="4.63487">
        <ele>679.8</ele>
        <time>2025-03-02T09:27:15Z</time>
      </trkpt>
      <trkpt lat="45.75246" lon="4.63487">
        <ele>679.8</ele>
        <time>2025-03-02T09:27:16Z</time>
      </trkpt>
      <trkpt lat="45.75246" lon="4.63487">
        <ele>679.8</ele>
        <time>2025-03-02T09:27:17Z</time>
      </trkpt>
      <trkpt lat="45.75246" lon="4.63487">
        <ele>679.6</ele>
        <time>2025-03-02T09:27:18Z</time>
      </trkpt>
      <trkpt lat="45.75246" lon="4.63487">
        <ele>679.6</ele>
        <time>2025-03-02T09:27:19Z</time>
      </trkpt>
      <trkpt lat="45.75246" lon="4.63487">
        <ele>679.6</ele>
        <time>2025-03-02T09:27:20Z</time>
      </trkpt>
      <trkpt lat="45.75246" lon="4.63487">
        <ele>679.6</ele>
        <time>2025-03-02T09:27:21Z</time>
      </trkpt>
      <trkpt lat="45.75246" lon="4.63487">
        <ele>679.8</ele>
        <time>2025-03-02T09:27:22Z</time>
      </trkpt>
      <trkpt lat="45.75246" lon="4.63487">
        <ele>679.8</ele>
        <time>2025-03-02T09:27:23Z</time>
      </trkpt>
      <trkpt lat="45.75246" lon="4.63487">
        <ele>679.8</ele>
        <time>2025-03-02T09:27:24Z</time>
      </trkpt>
      <trkpt lat="45.75246" lon="4.63487">
        <ele>679.8</ele>
        <time>2025-03-02T09:27:25Z</time>
      </trkpt>
      <trkpt lat="45.75246" lon="4.63487">
        <ele>679.8</ele>
        <time>2025-03-02T09:27:26Z</time>
      </trkpt>
      <trkpt lat="45.75246" lon="4.63487">
        <ele>679.8</ele>
        <time>2025-03-02T09:27:27Z</time>
      </trkpt>
      <trkpt lat="45.75246" lon="4.63487">
        <ele>679.8</ele>
        <time>2025-03-02T09:27:28Z</time>
      </trkpt>
      <trkpt lat="45.75246" lon="4.63487">
        <ele>679.8</ele>
        <time>2025-03-02T09:27:29Z</time>
      </trkpt>
      <trkpt lat="45.75246" lon="4.63487">
        <ele>679.6</ele>
        <time>2025-03-02T09:27:30Z</time>
      </trkpt>
      <trkpt lat="45.75246" lon="4.63487">
        <ele>679.6</ele>
        <time>2025-03-02T09:27:31Z</time>
      </trkpt>
      <trkpt lat="45.75246" lon="4.63487">
        <ele>679.6</ele>
        <time>2025-03-02T09:27:32Z</time>
      </trkpt>
      <trkpt lat="45.75246" lon="4.63487">
        <ele>679.6</ele>
        <time>2025-03-02T09:27:33Z</time>
      </trkpt>
      <trkpt lat="45.75246" lon="4.63487">
        <ele>679.6</ele>
        <time>2025-03-02T09:27:34Z</time>
      </trkpt>
      <trkpt lat="45.75246" lon="4.63487">
        <ele>679.6</ele>
        <time>2025-03-02T09:27:35Z</time>
      </trkpt>
      <trkpt lat="45.75246" lon="4.63487">
        <ele>679.6</ele>
        <time>2025-03-02T09:27:36Z</time>
      </trkpt>
      <trkpt lat="45.75246" lon="4.63487">
        <ele>679.6</ele>
        <time>2025-03-02T09:27:37Z</time>
      </trkpt>
      <trkpt lat="45.75246" lon="4.63487">
        <ele>679.6</ele>
        <time>2025-03-02T09:27:38Z</time>
      </trkpt>
      <trkpt lat="45.75246" lon="4.63487">
        <ele>679.6</ele>
        <time>2025-03-02T09:27:39Z</time>
      </trkpt>
      <trkpt lat="45.75246" lon="4.63487">
        <ele>679.6</ele>
        <time>2025-03-02T09:27:40Z</time>
      </trkpt>
      <trkpt lat="45.75246" lon="4.63487">
        <ele>679.6</ele>
        <time>2025-03-02T09:27:41Z</time>
      </trkpt>
      <trkpt lat="45.75246" lon="4.63487">
        <ele>679.4</ele>
        <time>2025-03-02T09:27:42Z</time>
      </trkpt>
      <trkpt lat="45.75246" lon="4.63487">
        <ele>679.4</ele>
        <time>2025-03-02T09:27:43Z</time>
      </trkpt>
      <trkpt lat="45.75246" lon="4.63487">
        <ele>679.4</ele>
        <time>2025-03-02T09:27:44Z</time>
      </trkpt>
      <trkpt lat="45.75246" lon="4.63487">
        <ele>679.4</ele>
        <time>2025-03-02T09:27:45Z</time>
      </trkpt>
      <trkpt lat="45.75246" lon="4.63487">
        <ele>679.4</ele>
        <time>2025-03-02T09:27:46Z</time>
      </trkpt>
      <trkpt lat="45.75246" lon="4.63487">
        <ele>679.4</ele>
        <time>2025-03-02T09:27:47Z</time>
      </trkpt>
      <trkpt lat="45.75246" lon="4.63487">
        <ele>679.4</ele>
        <time>2025-03-02T09:27:48Z</time>
      </trkpt>
      <trkpt lat="45.75246" lon="4.63487">
        <ele>679.4</ele>
        <time>2025-03-02T09:27:49Z</time>
      </trkpt>
      <trkpt lat="45.75246" lon="4.63487">
        <ele>679.4</ele>
        <time>2025-03-02T09:27:50Z</time>
      </trkpt>
      <trkpt lat="45.75246" lon="4.63487">
        <ele>679.4</ele>
        <time>2025-03-02T09:27:51Z</time>
      </trkpt>
      <trkpt lat="45.75246" lon="4.63487">
        <ele>679.4</ele>
        <time>2025-03-02T09:27:52Z</time>
      </trkpt>
      <trkpt lat="45.75246" lon="4.63487">
        <ele>679.4</ele>
        <time>2025-03-02T09:27:53Z</time>
      </trkpt>
      <trkpt lat="45.75246" lon="4.63487">
        <ele>679.4</ele>
        <time>2025-03-02T09:27:54Z</time>
      </trkpt>
      <trkpt lat="45.75246" lon="4.63487">
        <ele>679.4</ele>
        <time>2025-03-02T09:27:55Z</time>
      </trkpt>
      <trkpt lat="45.75246" lon="4.63487">
        <ele>679.4</ele>
        <time>2025-03-02T09:27:56Z</time>
      </trkpt>
      <trkpt lat="45.75246" lon="4.63487">
        <ele>679.4</ele>
        <time>2025-03-02T09:27:57Z</time>
      </trkpt>
      <trkpt lat="45.75246" lon="4.63487">
        <ele>679.4</ele>
        <time>2025-03-02T09:27:58Z</time>
      </trkpt>
      <trkpt lat="45.75246" lon="4.63487">
        <ele>679.4</ele>
        <time>2025-03-02T09:27:59Z</time>
      </trkpt>
      <trkpt lat="45.75246" lon="4.63487">
        <ele>679.4</ele>
        <time>2025-03-02T09:28:00Z</time>
      </trkpt>
      <trkpt lat="45.75246" lon="4.63487">
        <ele>679.4</ele>
        <time>2025-03-02T09:28:01Z</time>
      </trkpt>
      <trkpt lat="45.75246" lon="4.63487">
        <ele>679.4</ele>
        <time>2025-03-02T09:28:02Z</time>
      </trkpt>
      <trkpt lat="45.75246" lon="4.63487">
        <ele>679.4</ele>
        <time>2025-03-02T09:28:03Z</time>
      </trkpt>
      <trkpt lat="45.75246" lon="4.63487">
        <ele>679.4</ele>
        <time>2025-03-02T09:28:04Z</time>
      </trkpt>
      <trkpt lat="45.75246" lon="4.63487">
        <ele>679.4</ele>
        <time>2025-03-02T09:28:05Z</time>
      </trkpt>
      <trkpt lat="45.75246" lon="4.63487">
        <ele>679.4</ele>
        <time>2025-03-02T09:28:06Z</time>
      </trkpt>
      <trkpt lat="45.75246" lon="4.63487">
        <ele>679.4</ele>
        <time>2025-03-02T09:28:07Z</time>
      </trkpt>
      <trkpt lat="45.75246" lon="4.63487">
        <ele>679.4</ele>
        <time>2025-03-02T09:28:08Z</time>
      </trkpt>
      <trkpt lat="45.75246" lon="4.63487">
        <ele>679.4</ele>
        <time>2025-03-02T09:28:09Z</time>
      </trkpt>
      <trkpt lat="45.75246" lon="4.63487">
        <ele>679.4</ele>
        <time>2025-03-02T09:28:10Z</time>
      </trkpt>
      <trkpt lat="45.75246" lon="4.63487">
        <ele>679.4</ele>
        <time>2025-03-02T09:28:11Z</time>
      </trkpt>
      <trkpt lat="45.75246" lon="4.63487">
        <ele>679.4</ele>
        <time>2025-03-02T09:28:12Z</time>
      </trkpt>
      <trkpt lat="45.75246" lon="4.63486">
        <ele>679.4</ele>
        <time>2025-03-02T09:28:13Z</time>
      </trkpt>
      <trkpt lat="45.75246" lon="4.63485">
        <ele>679.4</ele>
        <time>2025-03-02T09:28:14Z</time>
      </trkpt>
      <trkpt lat="45.75246" lon="4.63484">
        <ele>679.6</ele>
        <time>2025-03-02T09:28:15Z</time>
      </trkpt>
      <trkpt lat="45.75246" lon="4.63481">
        <ele>679.6</ele>
        <time>2025-03-02T09:28:16Z</time>
      </trkpt>
      <trkpt lat="45.75245" lon="4.63479">
        <ele>679.6</ele>
        <time>2025-03-02T09:28:17Z</time>
      </trkpt>
      <trkpt lat="45.75245" lon="4.63476">
        <ele>679.6</ele>
        <time>2025-03-02T09:28:18Z</time>
      </trkpt>
      <trkpt lat="45.75245" lon="4.63473">
        <ele>679.6</ele>
        <time>2025-03-02T09:28:19Z</time>
      </trkpt>
      <trkpt lat="45.75244" lon="4.6347">
        <ele>679.6</ele>
        <time>2025-03-02T09:28:20Z</time>
      </trkpt>
      <trkpt lat="45.75244" lon="4.63466">
        <ele>679.8</ele>
        <time>2025-03-02T09:28:21Z</time>
      </trkpt>
      <trkpt lat="45.75244" lon="4.63462">
        <ele>680</ele>
        <time>2025-03-02T09:28:22Z</time>
      </trkpt>
      <trkpt lat="45.75244" lon="4.63459">
        <ele>680.2</ele>
        <time>2025-03-02T09:28:23Z</time>
      </trkpt>
      <trkpt lat="45.75244" lon="4.63455">
        <ele>680.6</ele>
        <time>2025-03-02T09:28:24Z</time>
      </trkpt>
      <trkpt lat="45.75244" lon="4.63451">
        <ele>680.8</ele>
        <time>2025-03-02T09:28:25Z</time>
      </trkpt>
      <trkpt lat="45.75244" lon="4.63447">
        <ele>681</ele>
        <time>2025-03-02T09:28:26Z</time>
      </trkpt>
      <trkpt lat="45.75243" lon="4.63444">
        <ele>681.4</ele>
        <time>2025-03-02T09:28:27Z</time>
      </trkpt>
      <trkpt lat="45.75244" lon="4.6344">
        <ele>681.6</ele>
        <time>2025-03-02T09:28:28Z</time>
      </trkpt>
      <trkpt lat="45.75245" lon="4.63437">
        <ele>681.8</ele>
        <time>2025-03-02T09:28:29Z</time>
      </trkpt>
      <trkpt lat="45.75245" lon="4.63434">
        <ele>682.4</ele>
        <time>2025-03-02T09:28:30Z</time>
      </trkpt>
      <trkpt lat="45.75245" lon="4.6343">
        <ele>682.8</ele>
        <time>2025-03-02T09:28:31Z</time>
      </trkpt>
      <trkpt lat="45.75245" lon="4.63427">
        <ele>683.2</ele>
        <time>2025-03-02T09:28:32Z</time>
      </trkpt>
      <trkpt lat="45.75245" lon="4.63423">
        <ele>683.4</ele>
        <time>2025-03-02T09:28:33Z</time>
      </trkpt>
      <trkpt lat="45.75245" lon="4.63419">
        <ele>683.6</ele>
        <time>2025-03-02T09:28:34Z</time>
      </trkpt>
      <trkpt lat="45.75246" lon="4.63415">
        <ele>684</ele>
        <time>2025-03-02T09:28:35Z</time>
      </trkpt>
      <trkpt lat="45.75248" lon="4.63411">
        <ele>684.2</ele>
        <time>2025-03-02T09:28:36Z</time>
      </trkpt>
      <trkpt lat="45.75249" lon="4.63408">
        <ele>684.4</ele>
        <time>2025-03-02T09:28:37Z</time>
      </trkpt>
      <trkpt lat="45.75251" lon="4.63404">
        <ele>684.6</ele>
        <time>2025-03-02T09:28:38Z</time>
      </trkpt>
      <trkpt lat="45.75253" lon="4.63402">
        <ele>685</ele>
        <time>2025-03-02T09:28:39Z</time>
      </trkpt>
      <trkpt lat="45.75255" lon="4.63399">
        <ele>685.4</ele>
        <time>2025-03-02T09:28:40Z</time>
      </trkpt>
      <trkpt lat="45.75256" lon="4.63396">
        <ele>685.6</ele>
        <time>2025-03-02T09:28:41Z</time>
      </trkpt>
      <trkpt lat="45.75258" lon="4.63393">
        <ele>686</ele>
        <time>2025-03-02T09:28:42Z</time>
      </trkpt>
      <trkpt lat="45.7526" lon="4.6339">
        <ele>686.4</ele>
        <time>2025-03-02T09:28:43Z</time>
      </trkpt>
      <trkpt lat="45.75261" lon="4.63387">
        <ele>686.6</ele>
        <time>2025-03-02T09:28:44Z</time>
      </trkpt>
      <trkpt lat="45.75263" lon="4.63383">
        <ele>686.6</ele>
        <time>2025-03-02T09:28:45Z</time>
      </trkpt>
      <trkpt lat="45.75264" lon="4.6338">
        <ele>687.2</ele>
        <time>2025-03-02T09:28:46Z</time>
      </trkpt>
      <trkpt lat="45.75266" lon="4.63377">
        <ele>687.2</ele>
        <time>2025-03-02T09:28:47Z</time>
      </trkpt>
      <trkpt lat="45.75267" lon="4.63374">
        <ele>687.2</ele>
        <time>2025-03-02T09:28:48Z</time>
      </trkpt>
      <trkpt lat="45.75268" lon="4.63372">
        <ele>687.6</ele>
        <time>2025-03-02T09:28:49Z</time>
      </trkpt>
      <trkpt lat="45.75269" lon="4.63369">
        <ele>688</ele>
        <time>2025-03-02T09:28:50Z</time>
      </trkpt>
      <trkpt lat="45.75271" lon="4.63366">
        <ele>688.2</ele>
        <time>2025-03-02T09:28:51Z</time>
      </trkpt>
      <trkpt lat="45.75272" lon="4.63363">
        <ele>688.4</ele>
        <time>2025-03-02T09:28:52Z</time>
      </trkpt>
      <trkpt lat="45.75273" lon="4.63359">
        <ele>688.4</ele>
        <time>2025-03-02T09:28:53Z</time>
      </trkpt>
      <trkpt lat="45.75275" lon="4.63356">
        <ele>688.6</ele>
        <time>2025-03-02T09:28:54Z</time>
      </trkpt>
      <trkpt lat="45.75277" lon="4.63352">
        <ele>688.6</ele>
        <time>2025-03-02T09:28:55Z</time>
      </trkpt>
      <trkpt lat="45.75279" lon="4.63349">
        <ele>688.8</ele>
        <time>2025-03-02T09:28:56Z</time>
      </trkpt>
      <trkpt lat="45.7528" lon="4.63346">
        <ele>689</ele>
        <time>2025-03-02T09:28:57Z</time>
      </trkpt>
      <trkpt lat="45.75282" lon="4.63343">
        <ele>689.2</ele>
        <time>2025-03-02T09:28:58Z</time>
      </trkpt>
      <trkpt lat="45.75284" lon="4.6334">
        <ele>689.4</ele>
        <time>2025-03-02T09:28:59Z</time>
      </trkpt>
      <trkpt lat="45.75286" lon="4.63337">
        <ele>689.6</ele>
        <time>2025-03-02T09:29:00Z</time>
      </trkpt>
      <trkpt lat="45.75287" lon="4.63332">
        <ele>690</ele>
        <time>2025-03-02T09:29:01Z</time>
      </trkpt>
      <trkpt lat="45.75288" lon="4.63328">
        <ele>690</ele>
        <time>2025-03-02T09:29:02Z</time>
      </trkpt>
      <trkpt lat="45.7529" lon="4.63324">
        <ele>690.2</ele>
        <time>2025-03-02T09:29:03Z</time>
      </trkpt>
      <trkpt lat="45.75291" lon="4.63319">
        <ele>690.2</ele>
        <time>2025-03-02T09:29:04Z</time>
      </trkpt>
      <trkpt lat="45.75293" lon="4.63316">
        <ele>690.2</ele>
        <time>2025-03-02T09:29:05Z</time>
      </trkpt>
      <trkpt lat="45.75295" lon="4.63312">
        <ele>690.6</ele>
        <time>2025-03-02T09:29:06Z</time>
      </trkpt>
      <trkpt lat="45.75296" lon="4.63308">
        <ele>690.8</ele>
        <time>2025-03-02T09:29:07Z</time>
      </trkpt>
      <trkpt lat="45.75298" lon="4.63303">
        <ele>690.8</ele>
        <time>2025-03-02T09:29:08Z</time>
      </trkpt>
      <trkpt lat="45.753" lon="4.63299">
        <ele>691</ele>
        <time>2025-03-02T09:29:09Z</time>
      </trkpt>
      <trkpt lat="45.75302" lon="4.63295">
        <ele>691.2</ele>
        <time>2025-03-02T09:29:10Z</time>
      </trkpt>
      <trkpt lat="45.75305" lon="4.63292">
        <ele>691.4</ele>
        <time>2025-03-02T09:29:11Z</time>
      </trkpt>
      <trkpt lat="45.75307" lon="4.63288">
        <ele>691.6</ele>
        <time>2025-03-02T09:29:12Z</time>
      </trkpt>
      <trkpt lat="45.75309" lon="4.63283">
        <ele>692</ele>
        <time>2025-03-02T09:29:13Z</time>
      </trkpt>
      <trkpt lat="45.75311" lon="4.63279">
        <ele>692</ele>
        <time>2025-03-02T09:29:14Z</time>
      </trkpt>
      <trkpt lat="45.75314" lon="4.63275">
        <ele>692.2</ele>
        <time>2025-03-02T09:29:15Z</time>
      </trkpt>
      <trkpt lat="45.75316" lon="4.63271">
        <ele>692.4</ele>
        <time>2025-03-02T09:29:16Z</time>
      </trkpt>
      <trkpt lat="45.75318" lon="4.63266">
        <ele>692.6</ele>
        <time>2025-03-02T09:29:17Z</time>
      </trkpt>
      <trkpt lat="45.7532" lon="4.63263">
        <ele>692.8</ele>
        <time>2025-03-02T09:29:18Z</time>
      </trkpt>
      <trkpt lat="45.75321" lon="4.63259">
        <ele>693</ele>
        <time>2025-03-02T09:29:19Z</time>
      </trkpt>
      <trkpt lat="45.75323" lon="4.63255">
        <ele>693.4</ele>
        <time>2025-03-02T09:29:20Z</time>
      </trkpt>
      <trkpt lat="45.75325" lon="4.63251">
        <ele>693.8</ele>
        <time>2025-03-02T09:29:21Z</time>
      </trkpt>
      <trkpt lat="45.75327" lon="4.63247">
        <ele>694</ele>
        <time>2025-03-02T09:29:22Z</time>
      </trkpt>
      <trkpt lat="45.7533" lon="4.63242">
        <ele>694</ele>
        <time>2025-03-02T09:29:23Z</time>
      </trkpt>
      <trkpt lat="45.75331" lon="4.63237">
        <ele>694.2</ele>
        <time>2025-03-02T09:29:24Z</time>
      </trkpt>
      <trkpt lat="45.75333" lon="4.63233">
        <ele>694.4</ele>
        <time>2025-03-02T09:29:25Z</time>
      </trkpt>
      <trkpt lat="45.75336" lon="4.63228">
        <ele>694.8</ele>
        <time>2025-03-02T09:29:26Z</time>
      </trkpt>
      <trkpt lat="45.75338" lon="4.63225">
        <ele>695.2</ele>
        <time>2025-03-02T09:29:27Z</time>
      </trkpt>
      <trkpt lat="45.75341" lon="4.63221">
        <ele>695.4</ele>
        <time>2025-03-02T09:29:28Z</time>
      </trkpt>
      <trkpt lat="45.75344" lon="4.63218">
        <ele>695.6</ele>
        <time>2025-03-02T09:29:29Z</time>
      </trkpt>
      <trkpt lat="45.75345" lon="4.63215">
        <ele>695.8</ele>
        <time>2025-03-02T09:29:30Z</time>
      </trkpt>
      <trkpt lat="45.75347" lon="4.63211">
        <ele>696.4</ele>
        <time>2025-03-02T09:29:31Z</time>
      </trkpt>
      <trkpt lat="45.75349" lon="4.63207">
        <ele>696.8</ele>
        <time>2025-03-02T09:29:32Z</time>
      </trkpt>
      <trkpt lat="45.75351" lon="4.63204">
        <ele>697.2</ele>
        <time>2025-03-02T09:29:33Z</time>
      </trkpt>
      <trkpt lat="45.75353" lon="4.632">
        <ele>697.4</ele>
        <time>2025-03-02T09:29:34Z</time>
      </trkpt>
      <trkpt lat="45.75355" lon="4.63197">
        <ele>697.8</ele>
        <time>2025-03-02T09:29:35Z</time>
      </trkpt>
      <trkpt lat="45.75356" lon="4.63193">
        <ele>698</ele>
        <time>2025-03-02T09:29:36Z</time>
      </trkpt>
      <trkpt lat="45.75358" lon="4.63189">
        <ele>698.2</ele>
        <time>2025-03-02T09:29:37Z</time>
      </trkpt>
      <trkpt lat="45.7536" lon="4.63185">
        <ele>698.4</ele>
        <time>2025-03-02T09:29:38Z</time>
      </trkpt>
      <trkpt lat="45.75362" lon="4.63181">
        <ele>698.4</ele>
        <time>2025-03-02T09:29:39Z</time>
      </trkpt>
      <trkpt lat="45.75364" lon="4.63176">
        <ele>698.4</ele>
        <time>2025-03-02T09:29:40Z</time>
      </trkpt>
      <trkpt lat="45.75367" lon="4.63171">
        <ele>698.4</ele>
        <time>2025-03-02T09:29:41Z</time>
      </trkpt>
      <trkpt lat="45.75369" lon="4.63167">
        <ele>698.4</ele>
        <time>2025-03-02T09:29:42Z</time>
      </trkpt>
      <trkpt lat="45.75372" lon="4.63163">
        <ele>698.2</ele>
        <time>2025-03-02T09:29:43Z</time>
      </trkpt>
      <trkpt lat="45.75375" lon="4.63159">
        <ele>698.2</ele>
        <time>2025-03-02T09:29:44Z</time>
      </trkpt>
      <trkpt lat="45.75378" lon="4.63155">
        <ele>698.2</ele>
        <time>2025-03-02T09:29:45Z</time>
      </trkpt>
      <trkpt lat="45.75382" lon="4.63151">
        <ele>698</ele>
        <time>2025-03-02T09:29:46Z</time>
      </trkpt>
      <trkpt lat="45.75385" lon="4.63147">
        <ele>698</ele>
        <time>2025-03-02T09:29:47Z</time>
      </trkpt>
      <trkpt lat="45.75388" lon="4.63143">
        <ele>698</ele>
        <time>2025-03-02T09:29:48Z</time>
      </trkpt>
      <trkpt lat="45.75391" lon="4.63138">
        <ele>698</ele>
        <time>2025-03-02T09:29:49Z</time>
      </trkpt>
      <trkpt lat="45.75393" lon="4.63133">
        <ele>698</ele>
        <time>2025-03-02T09:29:50Z</time>
      </trkpt>
      <trkpt lat="45.75396" lon="4.63128">
        <ele>698</ele>
        <time>2025-03-02T09:29:51Z</time>
      </trkpt>
      <trkpt lat="45.75399" lon="4.63122">
        <ele>697.8</ele>
        <time>2025-03-02T09:29:52Z</time>
      </trkpt>
      <trkpt lat="45.75401" lon="4.63116">
        <ele>697.8</ele>
        <time>2025-03-02T09:29:53Z</time>
      </trkpt>
      <trkpt lat="45.75404" lon="4.63111">
        <ele>697.8</ele>
        <time>2025-03-02T09:29:54Z</time>
      </trkpt>
      <trkpt lat="45.75407" lon="4.63105">
        <ele>698</ele>
        <time>2025-03-02T09:29:55Z</time>
      </trkpt>
      <trkpt lat="45.75409" lon="4.631">
        <ele>698</ele>
        <time>2025-03-02T09:29:56Z</time>
      </trkpt>
      <trkpt lat="45.75412" lon="4.63094">
        <ele>698</ele>
        <time>2025-03-02T09:29:57Z</time>
      </trkpt>
      <trkpt lat="45.75414" lon="4.63089">
        <ele>698</ele>
        <time>2025-03-02T09:29:58Z</time>
      </trkpt>
      <trkpt lat="45.75415" lon="4.63083">
        <ele>698.2</ele>
        <time>2025-03-02T09:29:59Z</time>
      </trkpt>
      <trkpt lat="45.75417" lon="4.63078">
        <ele>698.2</ele>
        <time>2025-03-02T09:30:00Z</time>
      </trkpt>
      <trkpt lat="45.75419" lon="4.63074">
        <ele>698.4</ele>
        <time>2025-03-02T09:30:01Z</time>
      </trkpt>
      <trkpt lat="45.75421" lon="4.6307">
        <ele>698.4</ele>
        <time>2025-03-02T09:30:02Z</time>
      </trkpt>
      <trkpt lat="45.75422" lon="4.63065">
        <ele>698.6</ele>
        <time>2025-03-02T09:30:03Z</time>
      </trkpt>
      <trkpt lat="45.75423" lon="4.63061">
        <ele>698.8</ele>
        <time>2025-03-02T09:30:04Z</time>
      </trkpt>
      <trkpt lat="45.75425" lon="4.63057">
        <ele>698.8</ele>
        <time>2025-03-02T09:30:05Z</time>
      </trkpt>
      <trkpt lat="45.75427" lon="4.63053">
        <ele>698.8</ele>
        <time>2025-03-02T09:30:06Z</time>
      </trkpt>
      <trkpt lat="45.75429" lon="4.63048">
        <ele>698.8</ele>
        <time>2025-03-02T09:30:07Z</time>
      </trkpt>
      <trkpt lat="45.7543" lon="4.63043">
        <ele>698.6</ele>
        <time>2025-03-02T09:30:08Z</time>
      </trkpt>
      <trkpt lat="45.75432" lon="4.63038">
        <ele>698.6</ele>
        <time>2025-03-02T09:30:09Z</time>
      </trkpt>
      <trkpt lat="45.75434" lon="4.63032">
        <ele>698.6</ele>
        <time>2025-03-02T09:30:10Z</time>
      </trkpt>
      <trkpt lat="45.75436" lon="4.63026">
        <ele>698.6</ele>
        <time>2025-03-02T09:30:11Z</time>
      </trkpt>
      <trkpt lat="45.75438" lon="4.63021">
        <ele>698.6</ele>
        <time>2025-03-02T09:30:12Z</time>
      </trkpt>
      <trkpt lat="45.75439" lon="4.63015">
        <ele>698.6</ele>
        <time>2025-03-02T09:30:13Z</time>
      </trkpt>
      <trkpt lat="45.7544" lon="4.63009">
        <ele>698.6</ele>
        <time>2025-03-02T09:30:14Z</time>
      </trkpt>
      <trkpt lat="45.75442" lon="4.63003">
        <ele>698.6</ele>
        <time>2025-03-02T09:30:15Z</time>
      </trkpt>
      <trkpt lat="45.75444" lon="4.62997">
        <ele>698.8</ele>
        <time>2025-03-02T09:30:16Z</time>
      </trkpt>
      <trkpt lat="45.75446" lon="4.62991">
        <ele>698.8</ele>
        <time>2025-03-02T09:30:17Z</time>
      </trkpt>
      <trkpt lat="45.75448" lon="4.62985">
        <ele>698.8</ele>
        <time>2025-03-02T09:30:18Z</time>
      </trkpt>
      <trkpt lat="45.7545" lon="4.62979">
        <ele>698.8</ele>
        <time>2025-03-02T09:30:19Z</time>
      </trkpt>
      <trkpt lat="45.75452" lon="4.62973">
        <ele>698.8</ele>
        <time>2025-03-02T09:30:20Z</time>
      </trkpt>
      <trkpt lat="45.75454" lon="4.62967">
        <ele>698.8</ele>
        <time>2025-03-02T09:30:21Z</time>
      </trkpt>
      <trkpt lat="45.75456" lon="4.62961">
        <ele>699</ele>
        <time>2025-03-02T09:30:22Z</time>
      </trkpt>
      <trkpt lat="45.75458" lon="4.62956">
        <ele>699</ele>
        <time>2025-03-02T09:30:23Z</time>
      </trkpt>
      <trkpt lat="45.7546" lon="4.6295">
        <ele>699.2</ele>
        <time>2025-03-02T09:30:24Z</time>
      </trkpt>
      <trkpt lat="45.75462" lon="4.62945">
        <ele>699.2</ele>
        <time>2025-03-02T09:30:25Z</time>
      </trkpt>
      <trkpt lat="45.75463" lon="4.62939">
        <ele>699.2</ele>
        <time>2025-03-02T09:30:26Z</time>
      </trkpt>
      <trkpt lat="45.75464" lon="4.62934">
        <ele>699.4</ele>
        <time>2025-03-02T09:30:27Z</time>
      </trkpt>
      <trkpt lat="45.75465" lon="4.6293">
        <ele>699.6</ele>
        <time>2025-03-02T09:30:28Z</time>
      </trkpt>
      <trkpt lat="45.75466" lon="4.62926">
        <ele>699.8</ele>
        <time>2025-03-02T09:30:29Z</time>
      </trkpt>
      <trkpt lat="45.75468" lon="4.62923">
        <ele>700.2</ele>
        <time>2025-03-02T09:30:30Z</time>
      </trkpt>
      <trkpt lat="45.75468" lon="4.62921">
        <ele>700.2</ele>
        <time>2025-03-02T09:30:31Z</time>
      </trkpt>
      <trkpt lat="45.75468" lon="4.62921">
        <ele>700.2</ele>
        <time>2025-03-02T09:30:32Z</time>
      </trkpt>
      <trkpt lat="45.75468" lon="4.62921">
        <ele>700.6</ele>
        <time>2025-03-02T09:30:33Z</time>
      </trkpt>
      <trkpt lat="45.75468" lon="4.62921">
        <ele>701</ele>
        <time>2025-03-02T09:30:34Z</time>
      </trkpt>
      <trkpt lat="45.75468" lon="4.62921">
        <ele>701</ele>
        <time>2025-03-02T09:30:35Z</time>
      </trkpt>
      <trkpt lat="45.75468" lon="4.62921">
        <ele>701</ele>
        <time>2025-03-02T09:30:36Z</time>
      </trkpt>
      <trkpt lat="45.75468" lon="4.62921">
        <ele>701</ele>
        <time>2025-03-02T09:30:37Z</time>
      </trkpt>
      <trkpt lat="45.75468" lon="4.62921">
        <ele>701</ele>
        <time>2025-03-02T09:30:38Z</time>
      </trkpt>
      <trkpt lat="45.75468" lon="4.62921">
        <ele>701.2</ele>
        <time>2025-03-02T09:30:39Z</time>
      </trkpt>
      <trkpt lat="45.75468" lon="4.62921">
        <ele>701.2</ele>
        <time>2025-03-02T09:30:40Z</time>
      </trkpt>
      <trkpt lat="45.75469" lon="4.6292">
        <ele>701.2</ele>
        <time>2025-03-02T09:30:41Z</time>
      </trkpt>
      <trkpt lat="45.7547" lon="4.62918">
        <ele>701.2</ele>
        <time>2025-03-02T09:30:42Z</time>
      </trkpt>
      <trkpt lat="45.75471" lon="4.62915">
        <ele>701.2</ele>
        <time>2025-03-02T09:30:43Z</time>
      </trkpt>
      <trkpt lat="45.75472" lon="4.62912">
        <ele>701</ele>
        <time>2025-03-02T09:30:44Z</time>
      </trkpt>
      <trkpt lat="45.75473" lon="4.62909">
        <ele>700.8</ele>
        <time>2025-03-02T09:30:45Z</time>
      </trkpt>
      <trkpt lat="45.75474" lon="4.62907">
        <ele>700.6</ele>
        <time>2025-03-02T09:30:46Z</time>
      </trkpt>
      <trkpt lat="45.75475" lon="4.62905">
        <ele>700.6</ele>
        <time>2025-03-02T09:30:47Z</time>
      </trkpt>
      <trkpt lat="45.75476" lon="4.62903">
        <ele>700.6</ele>
        <time>2025-03-02T09:30:48Z</time>
      </trkpt>
      <trkpt lat="45.75477" lon="4.62901">
        <ele>700.6</ele>
        <time>2025-03-02T09:30:49Z</time>
      </trkpt>
      <trkpt lat="45.75477" lon="4.62899">
        <ele>700.6</ele>
        <time>2025-03-02T09:30:50Z</time>
      </trkpt>
      <trkpt lat="45.75478" lon="4.62897">
        <ele>700.6</ele>
        <time>2025-03-02T09:30:51Z</time>
      </trkpt>
      <trkpt lat="45.75479" lon="4.62896">
        <ele>700.6</ele>
        <time>2025-03-02T09:30:52Z</time>
      </trkpt>
      <trkpt lat="45.75479" lon="4.62894">
        <ele>700.6</ele>
        <time>2025-03-02T09:30:53Z</time>
      </trkpt>
      <trkpt lat="45.7548" lon="4.62892">
        <ele>700.6</ele>
        <time>2025-03-02T09:30:54Z</time>
      </trkpt>
      <trkpt lat="45.75481" lon="4.62891">
        <ele>700.6</ele>
        <time>2025-03-02T09:30:55Z</time>
      </trkpt>
      <trkpt lat="45.75482" lon="4.6289">
        <ele>700.6</ele>
        <time>2025-03-02T09:30:56Z</time>
      </trkpt>
      <trkpt lat="45.75482" lon="4.62888">
        <ele>700.6</ele>
        <time>2025-03-02T09:30:57Z</time>
      </trkpt>
      <trkpt lat="45.75483" lon="4.62887">
        <ele>700.6</ele>
        <time>2025-03-02T09:30:58Z</time>
      </trkpt>
      <trkpt lat="45.75483" lon="4.62885">
        <ele>700.6</ele>
        <time>2025-03-02T09:30:59Z</time>
      </trkpt>
      <trkpt lat="45.75483" lon="4.62883">
        <ele>700.6</ele>
        <time>2025-03-02T09:31:00Z</time>
      </trkpt>
      <trkpt lat="45.75484" lon="4.62881">
        <ele>700.6</ele>
        <time>2025-03-02T09:31:01Z</time>
      </trkpt>
      <trkpt lat="45.75485" lon="4.62878">
        <ele>700.6</ele>
        <time>2025-03-02T09:31:02Z</time>
      </trkpt>
      <trkpt lat="45.75486" lon="4.62875">
        <ele>700.4</ele>
        <time>2025-03-02T09:31:03Z</time>
      </trkpt>
      <trkpt lat="45.75488" lon="4.62871">
        <ele>700.4</ele>
        <time>2025-03-02T09:31:04Z</time>
      </trkpt>
      <trkpt lat="45.75489" lon="4.62867">
        <ele>700</ele>
        <time>2025-03-02T09:31:05Z</time>
      </trkpt>
      <trkpt lat="45.75491" lon="4.62862">
        <ele>700</ele>
        <time>2025-03-02T09:31:06Z</time>
      </trkpt>
      <trkpt lat="45.75493" lon="4.62857">
        <ele>700</ele>
        <time>2025-03-02T09:31:07Z</time>
      </trkpt>
      <trkpt lat="45.75495" lon="4.62853">
        <ele>700</ele>
        <time>2025-03-02T09:31:08Z</time>
      </trkpt>
      <trkpt lat="45.75497" lon="4.62848">
        <ele>700</ele>
        <time>2025-03-02T09:31:09Z</time>
      </trkpt>
      <trkpt lat="45.75498" lon="4.62843">
        <ele>700</ele>
        <time>2025-03-02T09:31:10Z</time>
      </trkpt>
      <trkpt lat="45.755" lon="4.62837">
        <ele>700.2</ele>
        <time>2025-03-02T09:31:11Z</time>
      </trkpt>
      <trkpt lat="45.75501" lon="4.62832">
        <ele>700.2</ele>
        <time>2025-03-02T09:31:12Z</time>
      </trkpt>
      <trkpt lat="45.75503" lon="4.62827">
        <ele>700.4</ele>
        <time>2025-03-02T09:31:13Z</time>
      </trkpt>
      <trkpt lat="45.75504" lon="4.62822">
        <ele>700.4</ele>
        <time>2025-03-02T09:31:14Z</time>
      </trkpt>
      <trkpt lat="45.75505" lon="4.62818">
        <ele>700.6</ele>
        <time>2025-03-02T09:31:15Z</time>
      </trkpt>
      <trkpt lat="45.75506" lon="4.62812">
        <ele>700.8</ele>
        <time>2025-03-02T09:31:16Z</time>
      </trkpt>
      <trkpt lat="45.75507" lon="4.62807">
        <ele>700.8</ele>
        <time>2025-03-02T09:31:17Z</time>
      </trkpt>
      <trkpt lat="45.75509" lon="4.62801">
        <ele>700.8</ele>
        <time>2025-03-02T09:31:18Z</time>
      </trkpt>
      <trkpt lat="45.75511" lon="4.62796">
        <ele>700.8</ele>
        <time>2025-03-02T09:31:19Z</time>
      </trkpt>
      <trkpt lat="45.75512" lon="4.62791">
        <ele>700.8</ele>
        <time>2025-03-02T09:31:20Z</time>
      </trkpt>
      <trkpt lat="45.75514" lon="4.62785">
        <ele>700.8</ele>
        <time>2025-03-02T09:31:21Z</time>
      </trkpt>
      <trkpt lat="45.75515" lon="4.6278">
        <ele>701</ele>
        <time>2025-03-02T09:31:22Z</time>
      </trkpt>
      <trkpt lat="45.75517" lon="4.62774">
        <ele>701</ele>
        <time>2025-03-02T09:31:23Z</time>
      </trkpt>
      <trkpt lat="45.75519" lon="4.62768">
        <ele>701</ele>
        <time>2025-03-02T09:31:24Z</time>
      </trkpt>
      <trkpt lat="45.75521" lon="4.62763">
        <ele>701.2</ele>
        <time>2025-03-02T09:31:25Z</time>
      </trkpt>
      <trkpt lat="45.75523" lon="4.62757">
        <ele>701.4</ele>
        <time>2025-03-02T09:31:26Z</time>
      </trkpt>
      <trkpt lat="45.75524" lon="4.62751">
        <ele>701.4</ele>
        <time>2025-03-02T09:31:27Z</time>
      </trkpt>
      <trkpt lat="45.75526" lon="4.62746">
        <ele>701.6</ele>
        <time>2025-03-02T09:31:28Z</time>
      </trkpt>
      <trkpt lat="45.75528" lon="4.6274">
        <ele>701.8</ele>
        <time>2025-03-02T09:31:29Z</time>
      </trkpt>
      <trkpt lat="45.7553" lon="4.62735">
        <ele>701.8</ele>
        <time>2025-03-02T09:31:30Z</time>
      </trkpt>
      <trkpt lat="45.75532" lon="4.62729">
        <ele>701.8</ele>
        <time>2025-03-02T09:31:31Z</time>
      </trkpt>
      <trkpt lat="45.75534" lon="4.62724">
        <ele>702</ele>
        <time>2025-03-02T09:31:32Z</time>
      </trkpt>
      <trkpt lat="45.75536" lon="4.62718">
        <ele>702</ele>
        <time>2025-03-02T09:31:33Z</time>
      </trkpt>
      <trkpt lat="45.75537" lon="4.62713">
        <ele>702.2</ele>
        <time>2025-03-02T09:31:34Z</time>
      </trkpt>
      <trkpt lat="45.75539" lon="4.62708">
        <ele>702.4</ele>
        <time>2025-03-02T09:31:35Z</time>
      </trkpt>
      <trkpt lat="45.75541" lon="4.62703">
        <ele>702.6</ele>
        <time>2025-03-02T09:31:36Z</time>
      </trkpt>
      <trkpt lat="45.75543" lon="4.62699">
        <ele>703</ele>
        <time>2025-03-02T09:31:37Z</time>
      </trkpt>
      <trkpt lat="45.75545" lon="4.62695">
        <ele>703.4</ele>
        <time>2025-03-02T09:31:38Z</time>
      </trkpt>
      <trkpt lat="45.75547" lon="4.62691">
        <ele>703.6</ele>
        <time>2025-03-02T09:31:39Z</time>
      </trkpt>
      <trkpt lat="45.75549" lon="4.62686">
        <ele>704.2</ele>
        <time>2025-03-02T09:31:40Z</time>
      </trkpt>
      <trkpt lat="45.75551" lon="4.62682">
        <ele>704.4</ele>
        <time>2025-03-02T09:31:41Z</time>
      </trkpt>
      <trkpt lat="45.75553" lon="4.62678">
        <ele>704.8</ele>
        <time>2025-03-02T09:31:42Z</time>
      </trkpt>
      <trkpt lat="45.75554" lon="4.62674">
        <ele>705.2</ele>
        <time>2025-03-02T09:31:43Z</time>
      </trkpt>
      <trkpt lat="45.75555" lon="4.6267">
        <ele>705.2</ele>
        <time>2025-03-02T09:31:44Z</time>
      </trkpt>
      <trkpt lat="45.75557" lon="4.62667">
        <ele>705.4</ele>
        <time>2025-03-02T09:31:45Z</time>
      </trkpt>
      <trkpt lat="45.75559" lon="4.62663">
        <ele>705.6</ele>
        <time>2025-03-02T09:31:46Z</time>
      </trkpt>
      <trkpt lat="45.75561" lon="4.62659">
        <ele>706</ele>
        <time>2025-03-02T09:31:47Z</time>
      </trkpt>
      <trkpt lat="45.75563" lon="4.62655">
        <ele>706.4</ele>
        <time>2025-03-02T09:31:48Z</time>
      </trkpt>
      <trkpt lat="45.75565" lon="4.62651">
        <ele>706.6</ele>
        <time>2025-03-02T09:31:49Z</time>
      </trkpt>
      <trkpt lat="45.75566" lon="4.62647">
        <ele>707</ele>
        <time>2025-03-02T09:31:50Z</time>
      </trkpt>
      <trkpt lat="45.75568" lon="4.62643">
        <ele>707.4</ele>
        <time>2025-03-02T09:31:51Z</time>
      </trkpt>
      <trkpt lat="45.7557" lon="4.62639">
        <ele>707.8</ele>
        <time>2025-03-02T09:31:52Z</time>
      </trkpt>
      <trkpt lat="45.75572" lon="4.62635">
        <ele>708</ele>
        <time>2025-03-02T09:31:53Z</time>
      </trkpt>
      <trkpt lat="45.75573" lon="4.62631">
        <ele>708.4</ele>
        <time>2025-03-02T09:31:54Z</time>
      </trkpt>
      <trkpt lat="45.75575" lon="4.62627">
        <ele>708.6</ele>
        <time>2025-03-02T09:31:55Z</time>
      </trkpt>
      <trkpt lat="45.75576" lon="4.62624">
        <ele>709</ele>
        <time>2025-03-02T09:31:56Z</time>
      </trkpt>
      <trkpt lat="45.75577" lon="4.6262">
        <ele>709.4</ele>
        <time>2025-03-02T09:31:57Z</time>
      </trkpt>
      <trkpt lat="45.75578" lon="4.62617">
        <ele>709.6</ele>
        <time>2025-03-02T09:31:58Z</time>
      </trkpt>
      <trkpt lat="45.75579" lon="4.62613">
        <ele>710.2</ele>
        <time>2025-03-02T09:31:59Z</time>
      </trkpt>
      <trkpt lat="45.75581" lon="4.6261">
        <ele>710.4</ele>
        <time>2025-03-02T09:32:00Z</time>
      </trkpt>
      <trkpt lat="45.75582" lon="4.62606">
        <ele>710.8</ele>
        <time>2025-03-02T09:32:01Z</time>
      </trkpt>
      <trkpt lat="45.75584" lon="4.62602">
        <ele>711.2</ele>
        <time>2025-03-02T09:32:02Z</time>
      </trkpt>
      <trkpt lat="45.75585" lon="4.62599">
        <ele>711.4</ele>
        <time>2025-03-02T09:32:03Z</time>
      </trkpt>
      <trkpt lat="45.75587" lon="4.62596">
        <ele>712.2</ele>
        <time>2025-03-02T09:32:04Z</time>
      </trkpt>
      <trkpt lat="45.75588" lon="4.62593">
        <ele>712.2</ele>
        <time>2025-03-02T09:32:05Z</time>
      </trkpt>
      <trkpt lat="45.7559" lon="4.6259">
        <ele>712.8</ele>
        <time>2025-03-02T09:32:06Z</time>
      </trkpt>
      <trkpt lat="45.75591" lon="4.62587">
        <ele>713.2</ele>
        <time>2025-03-02T09:32:07Z</time>
      </trkpt>
      <trkpt lat="45.75593" lon="4.62584">
        <ele>713.4</ele>
        <time>2025-03-02T09:32:08Z</time>
      </trkpt>
      <trkpt lat="45.75593" lon="4.62582">
        <ele>713.8</ele>
        <time>2025-03-02T09:32:09Z</time>
      </trkpt>
      <trkpt lat="45.75594" lon="4.62578">
        <ele>714</ele>
        <time>2025-03-02T09:32:10Z</time>
      </trkpt>
      <trkpt lat="45.75595" lon="4.62575">
        <ele>714.2</ele>
        <time>2025-03-02T09:32:11Z</time>
      </trkpt>
      <trkpt lat="45.75596" lon="4.62571">
        <ele>714.4</ele>
        <time>2025-03-02T09:32:12Z</time>
      </trkpt>
      <trkpt lat="45.75597" lon="4.62567">
        <ele>714.6</ele>
        <time>2025-03-02T09:32:13Z</time>
      </trkpt>
      <trkpt lat="45.75597" lon="4.62564">
        <ele>715</ele>
        <time>2025-03-02T09:32:14Z</time>
      </trkpt>
      <trkpt lat="45.75597" lon="4.6256">
        <ele>715.2</ele>
        <time>2025-03-02T09:32:15Z</time>
      </trkpt>
      <trkpt lat="45.75598" lon="4.62556">
        <ele>715.6</ele>
        <time>2025-03-02T09:32:16Z</time>
      </trkpt>
      <trkpt lat="45.75599" lon="4.62553">
        <ele>715.8</ele>
        <time>2025-03-02T09:32:17Z</time>
      </trkpt>
      <trkpt lat="45.75599" lon="4.62549">
        <ele>716</ele>
        <time>2025-03-02T09:32:18Z</time>
      </trkpt>
      <trkpt lat="45.756" lon="4.62545">
        <ele>716.2</ele>
        <time>2025-03-02T09:32:19Z</time>
      </trkpt>
      <trkpt lat="45.75601" lon="4.62542">
        <ele>716.6</ele>
        <time>2025-03-02T09:32:20Z</time>
      </trkpt>
      <trkpt lat="45.75601" lon="4.62538">
        <ele>717</ele>
        <time>2025-03-02T09:32:21Z</time>
      </trkpt>
      <trkpt lat="45.75601" lon="4.62535">
        <ele>717.4</ele>
        <time>2025-03-02T09:32:22Z</time>
      </trkpt>
      <trkpt lat="45.75601" lon="4.62532">
        <ele>717.8</ele>
        <time>2025-03-02T09:32:23Z</time>
      </trkpt>
      <trkpt lat="45.75601" lon="4.62528">
        <ele>718</ele>
        <time>2025-03-02T09:32:24Z</time>
      </trkpt>
      <trkpt lat="45.75602" lon="4.62524">
        <ele>718.4</ele>
        <time>2025-03-02T09:32:25Z</time>
      </trkpt>
      <trkpt lat="45.75603" lon="4.62521">
        <ele>718.8</ele>
        <time>2025-03-02T09:32:26Z</time>
      </trkpt>
      <trkpt lat="45.75603" lon="4.62517">
        <ele>719</ele>
        <time>2025-03-02T09:32:27Z</time>
      </trkpt>
      <trkpt lat="45.75604" lon="4.62513">
        <ele>719.4</ele>
        <time>2025-03-02T09:32:28Z</time>
      </trkpt>
      <trkpt lat="45.75604" lon="4.62509">
        <ele>719.6</ele>
        <time>2025-03-02T09:32:29Z</time>
      </trkpt>
      <trkpt lat="45.75605" lon="4.62505">
        <ele>719.8</ele>
        <time>2025-03-02T09:32:30Z</time>
      </trkpt>
      <trkpt lat="45.75605" lon="4.62501">
        <ele>720.2</ele>
        <time>2025-03-02T09:32:31Z</time>
      </trkpt>
      <trkpt lat="45.75606" lon="4.62497">
        <ele>720.4</ele>
        <time>2025-03-02T09:32:32Z</time>
      </trkpt>
      <trkpt lat="45.75606" lon="4.62493">
        <ele>720.6</ele>
        <time>2025-03-02T09:32:33Z</time>
      </trkpt>
      <trkpt lat="45.75606" lon="4.62489">
        <ele>721</ele>
        <time>2025-03-02T09:32:34Z</time>
      </trkpt>
      <trkpt lat="45.75606" lon="4.62485">
        <ele>721.4</ele>
        <time>2025-03-02T09:32:35Z</time>
      </trkpt>
      <trkpt lat="45.75607" lon="4.62481">
        <ele>721.8</ele>
        <time>2025-03-02T09:32:36Z</time>
      </trkpt>
      <trkpt lat="45.75607" lon="4.62478">
        <ele>722.2</ele>
        <time>2025-03-02T09:32:37Z</time>
      </trkpt>
      <trkpt lat="45.75608" lon="4.62474">
        <ele>722.6</ele>
        <time>2025-03-02T09:32:38Z</time>
      </trkpt>
      <trkpt lat="45.75608" lon="4.6247">
        <ele>722.8</ele>
        <time>2025-03-02T09:32:39Z</time>
      </trkpt>
      <trkpt lat="45.75608" lon="4.62467">
        <ele>723.2</ele>
        <time>2025-03-02T09:32:40Z</time>
      </trkpt>
      <trkpt lat="45.75608" lon="4.62464">
        <ele>723.4</ele>
        <time>2025-03-02T09:32:41Z</time>
      </trkpt>
      <trkpt lat="45.75608" lon="4.6246">
        <ele>723.6</ele>
        <time>2025-03-02T09:32:42Z</time>
      </trkpt>
      <trkpt lat="45.75607" lon="4.62456">
        <ele>724</ele>
        <time>2025-03-02T09:32:43Z</time>
      </trkpt>
      <trkpt lat="45.75608" lon="4.62452">
        <ele>724.4</ele>
        <time>2025-03-02T09:32:44Z</time>
      </trkpt>
      <trkpt lat="45.75608" lon="4.62449">
        <ele>724.6</ele>
        <time>2025-03-02T09:32:45Z</time>
      </trkpt>
      <trkpt lat="45.75608" lon="4.62446">
        <ele>725.2</ele>
        <time>2025-03-02T09:32:46Z</time>
      </trkpt>
      <trkpt lat="45.75609" lon="4.62442">
        <ele>725.4</ele>
        <time>2025-03-02T09:32:47Z</time>
      </trkpt>
      <trkpt lat="45.75609" lon="4.62438">
        <ele>725.8</ele>
        <time>2025-03-02T09:32:48Z</time>
      </trkpt>
      <trkpt lat="45.75609" lon="4.62434">
        <ele>726</ele>
        <time>2025-03-02T09:32:49Z</time>
      </trkpt>
      <trkpt lat="45.75609" lon="4.6243">
        <ele>726.2</ele>
        <time>2025-03-02T09:32:50Z</time>
      </trkpt>
      <trkpt lat="45.7561" lon="4.62426">
        <ele>726.2</ele>
        <time>2025-03-02T09:32:51Z</time>
      </trkpt>
      <trkpt lat="45.7561" lon="4.62421">
        <ele>726.6</ele>
        <time>2025-03-02T09:32:52Z</time>
      </trkpt>
      <trkpt lat="45.7561" lon="4.62418">
        <ele>726.8</ele>
        <time>2025-03-02T09:32:53Z</time>
      </trkpt>
      <trkpt lat="45.7561" lon="4.62414">
        <ele>727</ele>
        <time>2025-03-02T09:32:54Z</time>
      </trkpt>
      <trkpt lat="45.7561" lon="4.6241">
        <ele>727</ele>
        <time>2025-03-02T09:32:55Z</time>
      </trkpt>
      <trkpt lat="45.7561" lon="4.62407">
        <ele>727.2</ele>
        <time>2025-03-02T09:32:56Z</time>
      </trkpt>
      <trkpt lat="45.75611" lon="4.62402">
        <ele>727.4</ele>
        <time>2025-03-02T09:32:57Z</time>
      </trkpt>
      <trkpt lat="45.75611" lon="4.62398">
        <ele>727.8</ele>
        <time>2025-03-02T09:32:58Z</time>
      </trkpt>
      <trkpt lat="45.75611" lon="4.62393">
        <ele>728</ele>
        <time>2025-03-02T09:32:59Z</time>
      </trkpt>
      <trkpt lat="45.75611" lon="4.62389">
        <ele>728</ele>
        <time>2025-03-02T09:33:00Z</time>
      </trkpt>
      <trkpt lat="45.75611" lon="4.62384">
        <ele>728</ele>
        <time>2025-03-02T09:33:01Z</time>
      </trkpt>
      <trkpt lat="45.75611" lon="4.6238">
        <ele>728.2</ele>
        <time>2025-03-02T09:33:02Z</time>
      </trkpt>
      <trkpt lat="45.7561" lon="4.62376">
        <ele>728.4</ele>
        <time>2025-03-02T09:33:03Z</time>
      </trkpt>
      <trkpt lat="45.7561" lon="4.62371">
        <ele>728.6</ele>
        <time>2025-03-02T09:33:04Z</time>
      </trkpt>
      <trkpt lat="45.7561" lon="4.62366">
        <ele>729</ele>
        <time>2025-03-02T09:33:05Z</time>
      </trkpt>
      <trkpt lat="45.75609" lon="4.62362">
        <ele>729</ele>
        <time>2025-03-02T09:33:06Z</time>
      </trkpt>
      <trkpt lat="45.75608" lon="4.62356">
        <ele>729.2</ele>
        <time>2025-03-02T09:33:07Z</time>
      </trkpt>
      <trkpt lat="45.75608" lon="4.62351">
        <ele>729.2</ele>
        <time>2025-03-02T09:33:08Z</time>
      </trkpt>
      <trkpt lat="45.75607" lon="4.62347">
        <ele>729.2</ele>
        <time>2025-03-02T09:33:09Z</time>
      </trkpt>
      <trkpt lat="45.75607" lon="4.62342">
        <ele>729.4</ele>
        <time>2025-03-02T09:33:10Z</time>
      </trkpt>
      <trkpt lat="45.75606" lon="4.62337">
        <ele>729.4</ele>
        <time>2025-03-02T09:33:11Z</time>
      </trkpt>
      <trkpt lat="45.75605" lon="4.62332">
        <ele>729.6</ele>
        <time>2025-03-02T09:33:12Z</time>
      </trkpt>
      <trkpt lat="45.75605" lon="4.62326">
        <ele>729.6</ele>
        <time>2025-03-02T09:33:13Z</time>
      </trkpt>
      <trkpt lat="45.75604" lon="4.62321">
        <ele>729.8</ele>
        <time>2025-03-02T09:33:14Z</time>
      </trkpt>
      <trkpt lat="45.75603" lon="4.62315">
        <ele>730</ele>
        <time>2025-03-02T09:33:15Z</time>
      </trkpt>
      <trkpt lat="45.75602" lon="4.6231">
        <ele>730</ele>
        <time>2025-03-02T09:33:16Z</time>
      </trkpt>
      <trkpt lat="45.756" lon="4.62305">
        <ele>730.2</ele>
        <time>2025-03-02T09:33:17Z</time>
      </trkpt>
      <trkpt lat="45.75599" lon="4.623">
        <ele>730.4</ele>
        <time>2025-03-02T09:33:18Z</time>
      </trkpt>
      <trkpt lat="45.75598" lon="4.62295">
        <ele>730.6</ele>
        <time>2025-03-02T09:33:19Z</time>
      </trkpt>
      <trkpt lat="45.75597" lon="4.6229">
        <ele>730.8</ele>
        <time>2025-03-02T09:33:20Z</time>
      </trkpt>
      <trkpt lat="45.75597" lon="4.62285">
        <ele>731</ele>
        <time>2025-03-02T09:33:21Z</time>
      </trkpt>
      <trkpt lat="45.75596" lon="4.6228">
        <ele>731</ele>
        <time>2025-03-02T09:33:22Z</time>
      </trkpt>
      <trkpt lat="45.75596" lon="4.62277">
        <ele>731.2</ele>
        <time>2025-03-02T09:33:23Z</time>
      </trkpt>
      <trkpt lat="45.75596" lon="4.62273">
        <ele>731.6</ele>
        <time>2025-03-02T09:33:24Z</time>
      </trkpt>
      <trkpt lat="45.75597" lon="4.6227">
        <ele>732</ele>
        <time>2025-03-02T09:33:25Z</time>
      </trkpt>
      <trkpt lat="45.75597" lon="4.62266">
        <ele>732.4</ele>
        <time>2025-03-02T09:33:26Z</time>
      </trkpt>
      <trkpt lat="45.75597" lon="4.62262">
        <ele>732.8</ele>
        <time>2025-03-02T09:33:27Z</time>
      </trkpt>
      <trkpt lat="45.75597" lon="4.62259">
        <ele>733.2</ele>
        <time>2025-03-02T09:33:28Z</time>
      </trkpt>
      <trkpt lat="45.75596" lon="4.62255">
        <ele>733.6</ele>
        <time>2025-03-02T09:33:29Z</time>
      </trkpt>
      <trkpt lat="45.75595" lon="4.6225">
        <ele>733.8</ele>
        <time>2025-03-02T09:33:30Z</time>
      </trkpt>
      <trkpt lat="45.75595" lon="4.62246">
        <ele>734</ele>
        <time>2025-03-02T09:33:31Z</time>
      </trkpt>
      <trkpt lat="45.75595" lon="4.62241">
        <ele>734.4</ele>
        <time>2025-03-02T09:33:32Z</time>
      </trkpt>
      <trkpt lat="45.75595" lon="4.62236">
        <ele>734.6</ele>
        <time>2025-03-02T09:33:33Z</time>
      </trkpt>
      <trkpt lat="45.75595" lon="4.62231">
        <ele>734.6</ele>
        <time>2025-03-02T09:33:34Z</time>
      </trkpt>
      <trkpt lat="45.75596" lon="4.62227">
        <ele>734.8</ele>
        <time>2025-03-02T09:33:35Z</time>
      </trkpt>
      <trkpt lat="45.75596" lon="4.62222">
        <ele>735</ele>
        <time>2025-03-02T09:33:36Z</time>
      </trkpt>
      <trkpt lat="45.75596" lon="4.62218">
        <ele>735.4</ele>
        <time>2025-03-02T09:33:37Z</time>
      </trkpt>
      <trkpt lat="45.75596" lon="4.62213">
        <ele>735.6</ele>
        <time>2025-03-02T09:33:38Z</time>
      </trkpt>
      <trkpt lat="45.75595" lon="4.62208">
        <ele>735.8</ele>
        <time>2025-03-02T09:33:39Z</time>
      </trkpt>
      <trkpt lat="45.75596" lon="4.62204">
        <ele>735.8</ele>
        <time>2025-03-02T09:33:40Z</time>
      </trkpt>
      <trkpt lat="45.75596" lon="4.622">
        <ele>736.2</ele>
        <time>2025-03-02T09:33:41Z</time>
      </trkpt>
      <trkpt lat="45.75596" lon="4.62195">
        <ele>736.4</ele>
        <time>2025-03-02T09:33:42Z</time>
      </trkpt>
      <trkpt lat="45.75596" lon="4.62191">
        <ele>736.8</ele>
        <time>2025-03-02T09:33:43Z</time>
      </trkpt>
      <trkpt lat="45.75596" lon="4.62187">
        <ele>737.4</ele>
        <time>2025-03-02T09:33:44Z</time>
      </trkpt>
      <trkpt lat="45.75596" lon="4.62183">
        <ele>737.8</ele>
        <time>2025-03-02T09:33:45Z</time>
      </trkpt>
      <trkpt lat="45.75596" lon="4.62179">
        <ele>738</ele>
        <time>2025-03-02T09:33:46Z</time>
      </trkpt>
      <trkpt lat="45.75596" lon="4.62174">
        <ele>738.6</ele>
        <time>2025-03-02T09:33:47Z</time>
      </trkpt>
      <trkpt lat="45.75596" lon="4.6217">
        <ele>738.8</ele>
        <time>2025-03-02T09:33:48Z</time>
      </trkpt>
      <trkpt lat="45.75596" lon="4.62166">
        <ele>739.4</ele>
        <time>2025-03-02T09:33:49Z</time>
      </trkpt>
      <trkpt lat="45.75597" lon="4.62162">
        <ele>739.6</ele>
        <time>2025-03-02T09:33:50Z</time>
      </trkpt>
      <trkpt lat="45.75597" lon="4.62158">
        <ele>739.8</ele>
        <time>2025-03-02T09:33:51Z</time>
      </trkpt>
      <trkpt lat="45.75597" lon="4.62154">
        <ele>740.2</ele>
        <time>2025-03-02T09:33:52Z</time>
      </trkpt>
      <trkpt lat="45.75597" lon="4.62151">
        <ele>740.4</ele>
        <time>2025-03-02T09:33:53Z</time>
      </trkpt>
      <trkpt lat="45.75597" lon="4.62147">
        <ele>740.6</ele>
        <time>2025-03-02T09:33:54Z</time>
      </trkpt>
      <trkpt lat="45.75597" lon="4.62143">
        <ele>741</ele>
        <time>2025-03-02T09:33:55Z</time>
      </trkpt>
      <trkpt lat="45.75597" lon="4.62139">
        <ele>741.2</ele>
        <time>2025-03-02T09:33:56Z</time>
      </trkpt>
      <trkpt lat="45.75597" lon="4.62135">
        <ele>741.6</ele>
        <time>2025-03-02T09:33:57Z</time>
      </trkpt>
      <trkpt lat="45.75598" lon="4.62131">
        <ele>742</ele>
        <time>2025-03-02T09:33:58Z</time>
      </trkpt>
      <trkpt lat="45.75598" lon="4.62128">
        <ele>742</ele>
        <time>2025-03-02T09:33:59Z</time>
      </trkpt>
      <trkpt lat="45.75598" lon="4.62124">
        <ele>742.2</ele>
        <time>2025-03-02T09:34:00Z</time>
      </trkpt>
      <trkpt lat="45.75598" lon="4.6212">
        <ele>742.6</ele>
        <time>2025-03-02T09:34:01Z</time>
      </trkpt>
      <trkpt lat="45.75598" lon="4.62116">
        <ele>742.8</ele>
        <time>2025-03-02T09:34:02Z</time>
      </trkpt>
      <trkpt lat="45.75598" lon="4.62112">
        <ele>743</ele>
        <time>2025-03-02T09:34:03Z</time>
      </trkpt>
      <trkpt lat="45.75598" lon="4.62109">
        <ele>743</ele>
        <time>2025-03-02T09:34:04Z</time>
      </trkpt>
      <trkpt lat="45.75598" lon="4.62105">
        <ele>743.4</ele>
        <time>2025-03-02T09:34:05Z</time>
      </trkpt>
      <trkpt lat="45.75599" lon="4.62102">
        <ele>743.6</ele>
        <time>2025-03-02T09:34:06Z</time>
      </trkpt>
      <trkpt lat="45.75599" lon="4.62099">
        <ele>743.8</ele>
        <time>2025-03-02T09:34:07Z</time>
      </trkpt>
      <trkpt lat="45.75599" lon="4.62095">
        <ele>744</ele>
        <time>2025-03-02T09:34:08Z</time>
      </trkpt>
      <trkpt lat="45.756" lon="4.62091">
        <ele>744.2</ele>
        <time>2025-03-02T09:34:09Z</time>
      </trkpt>
      <trkpt lat="45.756" lon="4.62088">
        <ele>744.4</ele>
        <time>2025-03-02T09:34:10Z</time>
      </trkpt>
      <trkpt lat="45.75599" lon="4.62084">
        <ele>745</ele>
        <time>2025-03-02T09:34:11Z</time>
      </trkpt>
      <trkpt lat="45.756" lon="4.62081">
        <ele>745.2</ele>
        <time>2025-03-02T09:34:12Z</time>
      </trkpt>
      <trkpt lat="45.756" lon="4.62077">
        <ele>745.6</ele>
        <time>2025-03-02T09:34:13Z</time>
      </trkpt>
      <trkpt lat="45.756" lon="4.62073">
        <ele>745.8</ele>
        <time>2025-03-02T09:34:14Z</time>
      </trkpt>
      <trkpt lat="45.756" lon="4.62069">
        <ele>746.2</ele>
        <time>2025-03-02T09:34:15Z</time>
      </trkpt>
      <trkpt lat="45.75601" lon="4.62065">
        <ele>746.6</ele>
        <time>2025-03-02T09:34:16Z</time>
      </trkpt>
      <trkpt lat="45.75601" lon="4.62061">
        <ele>746.6</ele>
        <time>2025-03-02T09:34:17Z</time>
      </trkpt>
      <trkpt lat="45.75601" lon="4.62057">
        <ele>746.8</ele>
        <time>2025-03-02T09:34:18Z</time>
      </trkpt>
      <trkpt lat="45.75601" lon="4.62053">
        <ele>747</ele>
        <time>2025-03-02T09:34:19Z</time>
      </trkpt>
      <trkpt lat="45.756" lon="4.62048">
        <ele>747.2</ele>
        <time>2025-03-02T09:34:20Z</time>
      </trkpt>
      <trkpt lat="45.756" lon="4.62044">
        <ele>747.4</ele>
        <time>2025-03-02T09:34:21Z</time>
      </trkpt>
      <trkpt lat="45.756" lon="4.6204">
        <ele>747.6</ele>
        <time>2025-03-02T09:34:22Z</time>
      </trkpt>
      <trkpt lat="45.756" lon="4.62035">
        <ele>747.8</ele>
        <time>2025-03-02T09:34:23Z</time>
      </trkpt>
      <trkpt lat="45.756" lon="4.62031">
        <ele>748</ele>
        <time>2025-03-02T09:34:24Z</time>
      </trkpt>
      <trkpt lat="45.756" lon="4.62026">
        <ele>748.2</ele>
        <time>2025-03-02T09:34:25Z</time>
      </trkpt>
      <trkpt lat="45.756" lon="4.62022">
        <ele>748.2</ele>
        <time>2025-03-02T09:34:26Z</time>
      </trkpt>
      <trkpt lat="45.756" lon="4.62017">
        <ele>748.2</ele>
        <time>2025-03-02T09:34:27Z</time>
      </trkpt>
      <trkpt lat="45.756" lon="4.62013">
        <ele>748.4</ele>
        <time>2025-03-02T09:34:28Z</time>
      </trkpt>
      <trkpt lat="45.756" lon="4.62008">
        <ele>748.4</ele>
        <time>2025-03-02T09:34:29Z</time>
      </trkpt>
      <trkpt lat="45.756" lon="4.62004">
        <ele>748.6</ele>
        <time>2025-03-02T09:34:30Z</time>
      </trkpt>
      <trkpt lat="45.756" lon="4.61999">
        <ele>748.6</ele>
        <time>2025-03-02T09:34:31Z</time>
      </trkpt>
      <trkpt lat="45.756" lon="4.61994">
        <ele>748.6</ele>
        <time>2025-03-02T09:34:32Z</time>
      </trkpt>
      <trkpt lat="45.75599" lon="4.6199">
        <ele>748.8</ele>
        <time>2025-03-02T09:34:33Z</time>
      </trkpt>
      <trkpt lat="45.75599" lon="4.61985">
        <ele>748.8</ele>
        <time>2025-03-02T09:34:34Z</time>
      </trkpt>
      <trkpt lat="45.75599" lon="4.61981">
        <ele>748.8</ele>
        <time>2025-03-02T09:34:35Z</time>
      </trkpt>
      <trkpt lat="45.75599" lon="4.61976">
        <ele>749</ele>
        <time>2025-03-02T09:34:36Z</time>
      </trkpt>
      <trkpt lat="45.75599" lon="4.61971">
        <ele>749</ele>
        <time>2025-03-02T09:34:37Z</time>
      </trkpt>
      <trkpt lat="45.75599" lon="4.61967">
        <ele>749.2</ele>
        <time>2025-03-02T09:34:38Z</time>
      </trkpt>
      <trkpt lat="45.75598" lon="4.61962">
        <ele>749.6</ele>
        <time>2025-03-02T09:34:39Z</time>
      </trkpt>
      <trkpt lat="45.75598" lon="4.61958">
        <ele>749.8</ele>
        <time>2025-03-02T09:34:40Z</time>
      </trkpt>
      <trkpt lat="45.75598" lon="4.61953">
        <ele>750.2</ele>
        <time>2025-03-02T09:34:41Z</time>
      </trkpt>
      <trkpt lat="45.75598" lon="4.61948">
        <ele>750.4</ele>
        <time>2025-03-02T09:34:42Z</time>
      </trkpt>
      <trkpt lat="45.75598" lon="4.61944">
        <ele>751</ele>
        <time>2025-03-02T09:34:43Z</time>
      </trkpt>
      <trkpt lat="45.75598" lon="4.61939">
        <ele>751.4</ele>
        <time>2025-03-02T09:34:44Z</time>
      </trkpt>
      <trkpt lat="45.75597" lon="4.61934">
        <ele>751.6</ele>
        <time>2025-03-02T09:34:45Z</time>
      </trkpt>
      <trkpt lat="45.75597" lon="4.61929">
        <ele>751.8</ele>
        <time>2025-03-02T09:34:46Z</time>
      </trkpt>
      <trkpt lat="45.75597" lon="4.61925">
        <ele>752</ele>
        <time>2025-03-02T09:34:47Z</time>
      </trkpt>
      <trkpt lat="45.75597" lon="4.6192">
        <ele>752.2</ele>
        <time>2025-03-02T09:34:48Z</time>
      </trkpt>
      <trkpt lat="45.75597" lon="4.61915">
        <ele>752.4</ele>
        <time>2025-03-02T09:34:49Z</time>
      </trkpt>
      <trkpt lat="45.75597" lon="4.6191">
        <ele>752.6</ele>
        <time>2025-03-02T09:34:50Z</time>
      </trkpt>
      <trkpt lat="45.75597" lon="4.61904">
        <ele>752.6</ele>
        <time>2025-03-02T09:34:51Z</time>
      </trkpt>
      <trkpt lat="45.75597" lon="4.61899">
        <ele>752.8</ele>
        <time>2025-03-02T09:34:52Z</time>
      </trkpt>
      <trkpt lat="45.75596" lon="4.61894">
        <ele>753</ele>
        <time>2025-03-02T09:34:53Z</time>
      </trkpt>
      <trkpt lat="45.75596" lon="4.61889">
        <ele>753.4</ele>
        <time>2025-03-02T09:34:54Z</time>
      </trkpt>
      <trkpt lat="45.75596" lon="4.61884">
        <ele>753.4</ele>
        <time>2025-03-02T09:34:55Z</time>
      </trkpt>
      <trkpt lat="45.75596" lon="4.61879">
        <ele>753.8</ele>
        <time>2025-03-02T09:34:56Z</time>
      </trkpt>
      <trkpt lat="45.75595" lon="4.61874">
        <ele>754</ele>
        <time>2025-03-02T09:34:57Z</time>
      </trkpt>
      <trkpt lat="45.75595" lon="4.61869">
        <ele>754.2</ele>
        <time>2025-03-02T09:34:58Z</time>
      </trkpt>
      <trkpt lat="45.75594" lon="4.61864">
        <ele>754.4</ele>
        <time>2025-03-02T09:34:59Z</time>
      </trkpt>
      <trkpt lat="45.75594" lon="4.61859">
        <ele>754.8</ele>
        <time>2025-03-02T09:35:00Z</time>
      </trkpt>
      <trkpt lat="45.75594" lon="4.61854">
        <ele>754.8</ele>
        <time>2025-03-02T09:35:01Z</time>
      </trkpt>
      <trkpt lat="45.75594" lon="4.6185">
        <ele>755</ele>
        <time>2025-03-02T09:35:02Z</time>
      </trkpt>
      <trkpt lat="45.75594" lon="4.61845">
        <ele>755.6</ele>
        <time>2025-03-02T09:35:03Z</time>
      </trkpt>
      <trkpt lat="45.75594" lon="4.61841">
        <ele>755.8</ele>
        <time>2025-03-02T09:35:04Z</time>
      </trkpt>
      <trkpt lat="45.75593" lon="4.61837">
        <ele>755.8</ele>
        <time>2025-03-02T09:35:05Z</time>
      </trkpt>
      <trkpt lat="45.75594" lon="4.61832">
        <ele>756</ele>
        <time>2025-03-02T09:35:06Z</time>
      </trkpt>
      <trkpt lat="45.75594" lon="4.61828">
        <ele>756</ele>
        <time>2025-03-02T09:35:07Z</time>
      </trkpt>
      <trkpt lat="45.75595" lon="4.61824">
        <ele>756.2</ele>
        <time>2025-03-02T09:35:08Z</time>
      </trkpt>
      <trkpt lat="45.75596" lon="4.61819">
        <ele>756.6</ele>
        <time>2025-03-02T09:35:09Z</time>
      </trkpt>
      <trkpt lat="45.75597" lon="4.61815">
        <ele>756.8</ele>
        <time>2025-03-02T09:35:10Z</time>
      </trkpt>
      <trkpt lat="45.75598" lon="4.61812">
        <ele>757.2</ele>
        <time>2025-03-02T09:35:11Z</time>
      </trkpt>
      <trkpt lat="45.75599" lon="4.61808">
        <ele>757.2</ele>
        <time>2025-03-02T09:35:12Z</time>
      </trkpt>
      <trkpt lat="45.75601" lon="4.61804">
        <ele>757.4</ele>
        <time>2025-03-02T09:35:13Z</time>
      </trkpt>
      <trkpt lat="45.75603" lon="4.618">
        <ele>757.6</ele>
        <time>2025-03-02T09:35:14Z</time>
      </trkpt>
      <trkpt lat="45.75605" lon="4.61797">
        <ele>757.6</ele>
        <time>2025-03-02T09:35:15Z</time>
      </trkpt>
      <trkpt lat="45.75607" lon="4.61794">
        <ele>757.8</ele>
        <time>2025-03-02T09:35:16Z</time>
      </trkpt>
      <trkpt lat="45.75609" lon="4.6179">
        <ele>758</ele>
        <time>2025-03-02T09:35:17Z</time>
      </trkpt>
      <trkpt lat="45.75611" lon="4.61787">
        <ele>758</ele>
        <time>2025-03-02T09:35:18Z</time>
      </trkpt>
      <trkpt lat="45.75613" lon="4.61783">
        <ele>758.2</ele>
        <time>2025-03-02T09:35:19Z</time>
      </trkpt>
      <trkpt lat="45.75615" lon="4.61781">
        <ele>758.4</ele>
        <time>2025-03-02T09:35:20Z</time>
      </trkpt>
      <trkpt lat="45.75618" lon="4.61778">
        <ele>758.6</ele>
        <time>2025-03-02T09:35:21Z</time>
      </trkpt>
      <trkpt lat="45.7562" lon="4.61775">
        <ele>758.8</ele>
        <time>2025-03-02T09:35:22Z</time>
      </trkpt>
      <trkpt lat="45.75622" lon="4.61773">
        <ele>759</ele>
        <time>2025-03-02T09:35:23Z</time>
      </trkpt>
      <trkpt lat="45.75624" lon="4.61771">
        <ele>759.2</ele>
        <time>2025-03-02T09:35:24Z</time>
      </trkpt>
      <trkpt lat="45.75625" lon="4.6177">
        <ele>759.4</ele>
        <time>2025-03-02T09:35:25Z</time>
      </trkpt>
      <trkpt lat="45.75627" lon="4.61768">
        <ele>759.8</ele>
        <time>2025-03-02T09:35:26Z</time>
      </trkpt>
      <trkpt lat="45.75628" lon="4.61765">
        <ele>760</ele>
        <time>2025-03-02T09:35:27Z</time>
      </trkpt>
      <trkpt lat="45.75629" lon="4.61762">
        <ele>760.2</ele>
        <time>2025-03-02T09:35:28Z</time>
      </trkpt>
      <trkpt lat="45.75629" lon="4.6176">
        <ele>760.2</ele>
        <time>2025-03-02T09:35:29Z</time>
      </trkpt>
      <trkpt lat="45.75629" lon="4.61759">
        <ele>760.2</ele>
        <time>2025-03-02T09:35:30Z</time>
      </trkpt>
      <trkpt lat="45.75629" lon="4.61759">
        <ele>760.2</ele>
        <time>2025-03-02T09:35:31Z</time>
      </trkpt>
      <trkpt lat="45.75629" lon="4.61759">
        <ele>760.2</ele>
        <time>2025-03-02T09:35:32Z</time>
      </trkpt>
      <trkpt lat="45.75629" lon="4.61759">
        <ele>760.2</ele>
        <time>2025-03-02T09:35:33Z</time>
      </trkpt>
      <trkpt lat="45.75629" lon="4.61759">
        <ele>760.2</ele>
        <time>2025-03-02T09:35:34Z</time>
      </trkpt>
      <trkpt lat="45.75629" lon="4.61759">
        <ele>760.2</ele>
        <time>2025-03-02T09:35:35Z</time>
      </trkpt>
      <trkpt lat="45.75629" lon="4.61759">
        <ele>760.2</ele>
        <time>2025-03-02T09:35:36Z</time>
      </trkpt>
      <trkpt lat="45.75629" lon="4.61759">
        <ele>760.2</ele>
        <time>2025-03-02T09:35:37Z</time>
      </trkpt>
      <trkpt lat="45.75629" lon="4.61759">
        <ele>760.2</ele>
        <time>2025-03-02T09:35:38Z</time>
      </trkpt>
      <trkpt lat="45.75629" lon="4.61759">
        <ele>760.2</ele>
        <time>2025-03-02T09:35:39Z</time>
      </trkpt>
      <trkpt lat="45.75629" lon="4.61759">
        <ele>760.2</ele>
        <time>2025-03-02T09:35:40Z</time>
      </trkpt>
      <trkpt lat="45.75629" lon="4.61759">
        <ele>760.2</ele>
        <time>2025-03-02T09:35:41Z</time>
      </trkpt>
      <trkpt lat="45.75629" lon="4.61759">
        <ele>760.2</ele>
        <time>2025-03-02T09:35:42Z</time>
      </trkpt>
      <trkpt lat="45.75629" lon="4.61759">
        <ele>760.2</ele>
        <time>2025-03-02T09:35:43Z</time>
      </trkpt>
      <trkpt lat="45.75629" lon="4.61759">
        <ele>760.2</ele>
        <time>2025-03-02T09:35:44Z</time>
      </trkpt>
      <trkpt lat="45.75629" lon="4.61759">
        <ele>760</ele>
        <time>2025-03-02T09:35:45Z</time>
      </trkpt>
      <trkpt lat="45.75629" lon="4.61759">
        <ele>760</ele>
        <time>2025-03-02T09:35:46Z</time>
      </trkpt>
      <trkpt lat="45.75629" lon="4.61759">
        <ele>760</ele>
        <time>2025-03-02T09:35:47Z</time>
      </trkpt>
      <trkpt lat="45.75629" lon="4.61759">
        <ele>760</ele>
        <time>2025-03-02T09:35:48Z</time>
      </trkpt>
      <trkpt lat="45.75629" lon="4.61759">
        <ele>760</ele>
        <time>2025-03-02T09:35:49Z</time>
      </trkpt>
      <trkpt lat="45.75629" lon="4.61759">
        <ele>760</ele>
        <time>2025-03-02T09:35:50Z</time>
      </trkpt>
      <trkpt lat="45.75629" lon="4.61759">
        <ele>760</ele>
        <time>2025-03-02T09:35:51Z</time>
      </trkpt>
      <trkpt lat="45.75629" lon="4.61759">
        <ele>760</ele>
        <time>2025-03-02T09:35:52Z</time>
      </trkpt>
      <trkpt lat="45.75629" lon="4.61759">
        <ele>760</ele>
        <time>2025-03-02T09:35:53Z</time>
      </trkpt>
      <trkpt lat="45.75629" lon="4.61759">
        <ele>760</ele>
        <time>2025-03-02T09:35:54Z</time>
      </trkpt>
      <trkpt lat="45.75628" lon="4.6176">
        <ele>760</ele>
        <time>2025-03-02T09:35:55Z</time>
      </trkpt>
      <trkpt lat="45.75627" lon="4.61759">
        <ele>760</ele>
        <time>2025-03-02T09:35:56Z</time>
      </trkpt>
      <trkpt lat="45.75626" lon="4.6176">
        <ele>760</ele>
        <time>2025-03-02T09:35:57Z</time>
      </trkpt>
      <trkpt lat="45.75625" lon="4.61762">
        <ele>760</ele>
        <time>2025-03-02T09:35:58Z</time>
      </trkpt>
      <trkpt lat="45.75623" lon="4.61766">
        <ele>760</ele>
        <time>2025-03-02T09:35:59Z</time>
      </trkpt>
      <trkpt lat="45.75622" lon="4.61768">
        <ele>760</ele>
        <time>2025-03-02T09:36:00Z</time>
      </trkpt>
      <trkpt lat="45.75621" lon="4.61771">
        <ele>760</ele>
        <time>2025-03-02T09:36:01Z</time>
      </trkpt>
      <trkpt lat="45.75621" lon="4.61774">
        <ele>760</ele>
        <time>2025-03-02T09:36:02Z</time>
      </trkpt>
      <trkpt lat="45.75622" lon="4.61775">
        <ele>760</ele>
        <time>2025-03-02T09:36:03Z</time>
      </trkpt>
      <trkpt lat="45.75622" lon="4.61774">
        <ele>760</ele>
        <time>2025-03-02T09:36:04Z</time>
      </trkpt>
      <trkpt lat="45.75623" lon="4.61773">
        <ele>760</ele>
        <time>2025-03-02T09:36:05Z</time>
      </trkpt>
      <trkpt lat="45.75623" lon="4.61773">
        <ele>760</ele>
        <time>2025-03-02T09:36:06Z</time>
      </trkpt>
      <trkpt lat="45.75623" lon="4.61773">
        <ele>760</ele>
        <time>2025-03-02T09:36:07Z</time>
      </trkpt>
      <trkpt lat="45.75623" lon="4.61773">
        <ele>760</ele>
        <time>2025-03-02T09:36:08Z</time>
      </trkpt>
      <trkpt lat="45.75623" lon="4.61773">
        <ele>760</ele>
        <time>2025-03-02T09:36:09Z</time>
      </trkpt>
      <trkpt lat="45.75623" lon="4.61773">
        <ele>760</ele>
        <time>2025-03-02T09:36:10Z</time>
      </trkpt>
      <trkpt lat="45.75623" lon="4.61773">
        <ele>760</ele>
        <time>2025-03-02T09:36:11Z</time>
      </trkpt>
      <trkpt lat="45.75623" lon="4.61773">
        <ele>760</ele>
        <time>2025-03-02T09:36:12Z</time>
      </trkpt>
      <trkpt lat="45.75623" lon="4.61773">
        <ele>760</ele>
        <time>2025-03-02T09:36:13Z</time>
      </trkpt>
      <trkpt lat="45.75623" lon="4.61773">
        <ele>760</ele>
        <time>2025-03-02T09:36:14Z</time>
      </trkpt>
      <trkpt lat="45.75623" lon="4.61773">
        <ele>760</ele>
        <time>2025-03-02T09:36:15Z</time>
      </trkpt>
      <trkpt lat="45.75623" lon="4.61773">
        <ele>760</ele>
        <time>2025-03-02T09:36:16Z</time>
      </trkpt>
      <trkpt lat="45.75623" lon="4.61773">
        <ele>760</ele>
        <time>2025-03-02T09:36:17Z</time>
      </trkpt>
      <trkpt lat="45.75623" lon="4.61773">
        <ele>760</ele>
        <time>2025-03-02T09:36:18Z</time>
      </trkpt>
      <trkpt lat="45.75623" lon="4.61773">
        <ele>760</ele>
        <time>2025-03-02T09:36:19Z</time>
      </trkpt>
      <trkpt lat="45.75623" lon="4.61773">
        <ele>760</ele>
        <time>2025-03-02T09:36:20Z</time>
      </trkpt>
      <trkpt lat="45.75623" lon="4.61773">
        <ele>760</ele>
        <time>2025-03-02T09:36:21Z</time>
      </trkpt>
      <trkpt lat="45.75623" lon="4.61773">
        <ele>760</ele>
        <time>2025-03-02T09:36:22Z</time>
      </trkpt>
      <trkpt lat="45.75623" lon="4.61773">
        <ele>760</ele>
        <time>2025-03-02T09:36:23Z</time>
      </trkpt>
      <trkpt lat="45.75623" lon="4.61773">
        <ele>760</ele>
        <time>2025-03-02T09:36:24Z</time>
      </trkpt>
      <trkpt lat="45.75623" lon="4.61773">
        <ele>760</ele>
        <time>2025-03-02T09:36:25Z</time>
      </trkpt>
      <trkpt lat="45.75623" lon="4.61773">
        <ele>760</ele>
        <time>2025-03-02T09:36:26Z</time>
      </trkpt>
      <trkpt lat="45.75623" lon="4.61773">
        <ele>760</ele>
        <time>2025-03-02T09:36:27Z</time>
      </trkpt>
      <trkpt lat="45.75623" lon="4.61773">
        <ele>760</ele>
        <time>2025-03-02T09:36:28Z</time>
      </trkpt>
      <trkpt lat="45.75623" lon="4.61773">
        <ele>760</ele>
        <time>2025-03-02T09:36:29Z</time>
      </trkpt>
      <trkpt lat="45.75623" lon="4.61772">
        <ele>760</ele>
        <time>2025-03-02T09:36:30Z</time>
      </trkpt>
      <trkpt lat="45.75624" lon="4.6177">
        <ele>760</ele>
        <time>2025-03-02T09:36:31Z</time>
      </trkpt>
      <trkpt lat="45.75625" lon="4.61768">
        <ele>760</ele>
        <time>2025-03-02T09:36:32Z</time>
      </trkpt>
      <trkpt lat="45.75625" lon="4.61766">
        <ele>760</ele>
        <time>2025-03-02T09:36:33Z</time>
      </trkpt>
      <trkpt lat="45.75625" lon="4.61763">
        <ele>759.8</ele>
        <time>2025-03-02T09:36:34Z</time>
      </trkpt>
      <trkpt lat="45.75625" lon="4.61762">
        <ele>759.8</ele>
        <time>2025-03-02T09:36:35Z</time>
      </trkpt>
      <trkpt lat="45.75624" lon="4.61763">
        <ele>759.8</ele>
        <time>2025-03-02T09:36:36Z</time>
      </trkpt>
      <trkpt lat="45.75624" lon="4.61765">
        <ele>759.8</ele>
        <time>2025-03-02T09:36:37Z</time>
      </trkpt>
      <trkpt lat="45.75624" lon="4.61768">
        <ele>759.8</ele>
        <time>2025-03-02T09:36:38Z</time>
      </trkpt>
      <trkpt lat="45.75624" lon="4.6177">
        <ele>759.8</ele>
        <time>2025-03-02T09:36:39Z</time>
      </trkpt>
      <trkpt lat="45.75623" lon="4.61772">
        <ele>759.8</ele>
        <time>2025-03-02T09:36:40Z</time>
      </trkpt>
      <trkpt lat="45.75621" lon="4.61773">
        <ele>759.8</ele>
        <time>2025-03-02T09:36:41Z</time>
      </trkpt>
      <trkpt lat="45.75619" lon="4.61775">
        <ele>759.8</ele>
        <time>2025-03-02T09:36:42Z</time>
      </trkpt>
      <trkpt lat="45.75617" lon="4.61778">
        <ele>759.8</ele>
        <time>2025-03-02T09:36:43Z</time>
      </trkpt>
      <trkpt lat="45.75615" lon="4.61781">
        <ele>759.8</ele>
        <time>2025-03-02T09:36:44Z</time>
      </trkpt>
      <trkpt lat="45.75614" lon="4.61783">
        <ele>759.8</ele>
        <time>2025-03-02T09:36:45Z</time>
      </trkpt>
      <trkpt lat="45.75612" lon="4.61785">
        <ele>759.6</ele>
        <time>2025-03-02T09:36:46Z</time>
      </trkpt>
      <trkpt lat="45.7561" lon="4.61787">
        <ele>759.6</ele>
        <time>2025-03-02T09:36:47Z</time>
      </trkpt>
      <trkpt lat="45.75608" lon="4.61788">
        <ele>759.6</ele>
        <time>2025-03-02T09:36:48Z</time>
      </trkpt>
      <trkpt lat="45.75606" lon="4.6179">
        <ele>759.4</ele>
        <time>2025-03-02T09:36:49Z</time>
      </trkpt>
      <trkpt lat="45.75603" lon="4.61791">
        <ele>759.4</ele>
        <time>2025-03-02T09:36:50Z</time>
      </trkpt>
      <trkpt lat="45.756" lon="4.61793">
        <ele>759.4</ele>
        <time>2025-03-02T09:36:51Z</time>
      </trkpt>
      <trkpt lat="45.75598" lon="4.61794">
        <ele>759.4</ele>
        <time>2025-03-02T09:36:52Z</time>
      </trkpt>
      <trkpt lat="45.75595" lon="4.61793">
        <ele>759.4</ele>
        <time>2025-03-02T09:36:53Z</time>
      </trkpt>
      <trkpt lat="45.75593" lon="4.61792">
        <ele>759.6</ele>
        <time>2025-03-02T09:36:54Z</time>
      </trkpt>
      <trkpt lat="45.75591" lon="4.6179">
        <ele>759.8</ele>
        <time>2025-03-02T09:36:55Z</time>
      </trkpt>
      <trkpt lat="45.75589" lon="4.61788">
        <ele>760.2</ele>
        <time>2025-03-02T09:36:56Z</time>
      </trkpt>
      <trkpt lat="45.75586" lon="4.61785">
        <ele>760.4</ele>
        <time>2025-03-02T09:36:57Z</time>
      </trkpt>
      <trkpt lat="45.75584" lon="4.61783">
        <ele>760.4</ele>
        <time>2025-03-02T09:36:58Z</time>
      </trkpt>
      <trkpt lat="45.75582" lon="4.6178">
        <ele>760.6</ele>
        <time>2025-03-02T09:36:59Z</time>
      </trkpt>
      <trkpt lat="45.75581" lon="4.61778">
        <ele>760.8</ele>
        <time>2025-03-02T09:37:00Z</time>
      </trkpt>
      <trkpt lat="45.7558" lon="4.61777">
        <ele>761</ele>
        <time>2025-03-02T09:37:01Z</time>
      </trkpt>
      <trkpt lat="45.75579" lon="4.61774">
        <ele>761</ele>
        <time>2025-03-02T09:37:02Z</time>
      </trkpt>
      <trkpt lat="45.75577" lon="4.61772">
        <ele>761.4</ele>
        <time>2025-03-02T09:37:03Z</time>
      </trkpt>
      <trkpt lat="45.75576" lon="4.61769">
        <ele>761.4</ele>
        <time>2025-03-02T09:37:04Z</time>
      </trkpt>
      <trkpt lat="45.75574" lon="4.61766">
        <ele>761.6</ele>
        <time>2025-03-02T09:37:05Z</time>
      </trkpt>
      <trkpt lat="45.75572" lon="4.61763">
        <ele>761.6</ele>
        <time>2025-03-02T09:37:06Z</time>
      </trkpt>
      <trkpt lat="45.7557" lon="4.6176">
        <ele>761.8</ele>
        <time>2025-03-02T09:37:07Z</time>
      </trkpt>
      <trkpt lat="45.75567" lon="4.61757">
        <ele>762</ele>
        <time>2025-03-02T09:37:08Z</time>
      </trkpt>
      <trkpt lat="45.75565" lon="4.61754">
        <ele>762</ele>
        <time>2025-03-02T09:37:09Z</time>
      </trkpt>
      <trkpt lat="45.75564" lon="4.61751">
        <ele>762.2</ele>
        <time>2025-03-02T09:37:10Z</time>
      </trkpt>
      <trkpt lat="45.75562" lon="4.6175">
        <ele>762.4</ele>
        <time>2025-03-02T09:37:11Z</time>
      </trkpt>
      <trkpt lat="45.75561" lon="4.61749">
        <ele>762.6</ele>
        <time>2025-03-02T09:37:12Z</time>
      </trkpt>
      <trkpt lat="45.7556" lon="4.61748">
        <ele>762.8</ele>
        <time>2025-03-02T09:37:13Z</time>
      </trkpt>
      <trkpt lat="45.75559" lon="4.61746">
        <ele>763</ele>
        <time>2025-03-02T09:37:14Z</time>
      </trkpt>
      <trkpt lat="45.75558" lon="4.61744">
        <ele>763.4</ele>
        <time>2025-03-02T09:37:15Z</time>
      </trkpt>
      <trkpt lat="45.75557" lon="4.61742">
        <ele>763.4</ele>
        <time>2025-03-02T09:37:16Z</time>
      </trkpt>
      <trkpt lat="45.75555" lon="4.61739">
        <ele>763.6</ele>
        <time>2025-03-02T09:37:17Z</time>
      </trkpt>
      <trkpt lat="45.75554" lon="4.61736">
        <ele>763.8</ele>
        <time>2025-03-02T09:37:18Z</time>
      </trkpt>
      <trkpt lat="45.75552" lon="4.61733">
        <ele>764</ele>
        <time>2025-03-02T09:37:19Z</time>
      </trkpt>
      <trkpt lat="45.75551" lon="4.61731">
        <ele>764.4</ele>
        <time>2025-03-02T09:37:20Z</time>
      </trkpt>
      <trkpt lat="45.7555" lon="4.61728">
        <ele>764.8</ele>
        <time>2025-03-02T09:37:21Z</time>
      </trkpt>
      <trkpt lat="45.75548" lon="4.61725">
        <ele>764.8</ele>
        <time>2025-03-02T09:37:22Z</time>
      </trkpt>
      <trkpt lat="45.75546" lon="4.61723">
        <ele>765.2</ele>
        <time>2025-03-02T09:37:23Z</time>
      </trkpt>
      <trkpt lat="45.75544" lon="4.6172">
        <ele>765.4</ele>
        <time>2025-03-02T09:37:24Z</time>
      </trkpt>
      <trkpt lat="45.75542" lon="4.61718">
        <ele>765.6</ele>
        <time>2025-03-02T09:37:25Z</time>
      </trkpt>
      <trkpt lat="45.7554" lon="4.61716">
        <ele>766</ele>
        <time>2025-03-02T09:37:26Z</time>
      </trkpt>
      <trkpt lat="45.75539" lon="4.61713">
        <ele>766.4</ele>
        <time>2025-03-02T09:37:27Z</time>
      </trkpt>
      <trkpt lat="45.75537" lon="4.6171">
        <ele>766.6</ele>
        <time>2025-03-02T09:37:28Z</time>
      </trkpt>
      <trkpt lat="45.75535" lon="4.61707">
        <ele>766.6</ele>
        <time>2025-03-02T09:37:29Z</time>
      </trkpt>
      <trkpt lat="45.75533" lon="4.61704">
        <ele>767</ele>
        <time>2025-03-02T09:37:30Z</time>
      </trkpt>
      <trkpt lat="45.75531" lon="4.61702">
        <ele>767.2</ele>
        <time>2025-03-02T09:37:31Z</time>
      </trkpt>
      <trkpt lat="45.75528" lon="4.61699">
        <ele>767.6</ele>
        <time>2025-03-02T09:37:32Z</time>
      </trkpt>
      <trkpt lat="45.75526" lon="4.61696">
        <ele>767.8</ele>
        <time>2025-03-02T09:37:33Z</time>
      </trkpt>
      <trkpt lat="45.75524" lon="4.61694">
        <ele>768</ele>
        <time>2025-03-02T09:37:34Z</time>
      </trkpt>
      <trkpt lat="45.75521" lon="4.61692">
        <ele>768.2</ele>
        <time>2025-03-02T09:37:35Z</time>
      </trkpt>
      <trkpt lat="45.75519" lon="4.61691">
        <ele>768.4</ele>
        <time>2025-03-02T09:37:36Z</time>
      </trkpt>
      <trkpt lat="45.75516" lon="4.61689">
        <ele>768.6</ele>
        <time>2025-03-02T09:37:37Z</time>
      </trkpt>
      <trkpt lat="45.75513" lon="4.61686">
        <ele>768.8</ele>
        <time>2025-03-02T09:37:38Z</time>
      </trkpt>
      <trkpt lat="45.75511" lon="4.61684">
        <ele>769.2</ele>
        <time>2025-03-02T09:37:39Z</time>
      </trkpt>
      <trkpt lat="45.75509" lon="4.61682">
        <ele>769.6</ele>
        <time>2025-03-02T09:37:40Z</time>
      </trkpt>
      <trkpt lat="45.75508" lon="4.6168">
        <ele>769.6</ele>
        <time>2025-03-02T09:37:41Z</time>
      </trkpt>
      <trkpt lat="45.75506" lon="4.61678">
        <ele>769.8</ele>
        <time>2025-03-02T09:37:42Z</time>
      </trkpt>
      <trkpt lat="45.75505" lon="4.61675">
        <ele>770</ele>
        <time>2025-03-02T09:37:43Z</time>
      </trkpt>
      <trkpt lat="45.75503" lon="4.61673">
        <ele>770.2</ele>
        <time>2025-03-02T09:37:44Z</time>
      </trkpt>
      <trkpt lat="45.75502" lon="4.61672">
        <ele>770.4</ele>
        <time>2025-03-02T09:37:45Z</time>
      </trkpt>
      <trkpt lat="45.755" lon="4.6167">
        <ele>770.6</ele>
        <time>2025-03-02T09:37:46Z</time>
      </trkpt>
      <trkpt lat="45.75496" lon="4.61668">
        <ele>770.8</ele>
        <time>2025-03-02T09:37:47Z</time>
      </trkpt>
      <trkpt lat="45.75492" lon="4.61668">
        <ele>771</ele>
        <time>2025-03-02T09:37:48Z</time>
      </trkpt>
      <trkpt lat="45.75489" lon="4.61665">
        <ele>771.2</ele>
        <time>2025-03-02T09:37:49Z</time>
      </trkpt>
      <trkpt lat="45.75484" lon="4.61664">
        <ele>771.4</ele>
        <time>2025-03-02T09:37:50Z</time>
      </trkpt>
      <trkpt lat="45.75481" lon="4.61661">
        <ele>771.8</ele>
        <time>2025-03-02T09:37:51Z</time>
      </trkpt>
      <trkpt lat="45.75477" lon="4.61658">
        <ele>772</ele>
        <time>2025-03-02T09:37:52Z</time>
      </trkpt>
      <trkpt lat="45.75476" lon="4.61655">
        <ele>772.2</ele>
        <time>2025-03-02T09:37:53Z</time>
      </trkpt>
      <trkpt lat="45.75473" lon="4.61655">
        <ele>772.4</ele>
        <time>2025-03-02T09:37:54Z</time>
      </trkpt>
      <trkpt lat="45.75472" lon="4.61654">
        <ele>772.6</ele>
        <time>2025-03-02T09:37:55Z</time>
      </trkpt>
      <trkpt lat="45.75469" lon="4.61654">
        <ele>773.2</ele>
        <time>2025-03-02T09:37:56Z</time>
      </trkpt>
      <trkpt lat="45.75467" lon="4.61654">
        <ele>773.6</ele>
        <time>2025-03-02T09:37:57Z</time>
      </trkpt>
      <trkpt lat="45.75465" lon="4.61652">
        <ele>774</ele>
        <time>2025-03-02T09:37:58Z</time>
      </trkpt>
      <trkpt lat="45.75463" lon="4.61651">
        <ele>774.4</ele>
        <time>2025-03-02T09:37:59Z</time>
      </trkpt>
      <trkpt lat="45.7546" lon="4.6165">
        <ele>774.8</ele>
        <time>2025-03-02T09:38:00Z</time>
      </trkpt>
      <trkpt lat="45.75458" lon="4.61649">
        <ele>775.2</ele>
        <time>2025-03-02T09:38:01Z</time>
      </trkpt>
      <trkpt lat="45.75456" lon="4.61648">
        <ele>775.6</ele>
        <time>2025-03-02T09:38:02Z</time>
      </trkpt>
      <trkpt lat="45.75454" lon="4.61646">
        <ele>775.8</ele>
        <time>2025-03-02T09:38:03Z</time>
      </trkpt>
      <trkpt lat="45.75452" lon="4.61644">
        <ele>776.2</ele>
        <time>2025-03-02T09:38:04Z</time>
      </trkpt>
      <trkpt lat="45.75449" lon="4.61644">
        <ele>776.6</ele>
        <time>2025-03-02T09:38:05Z</time>
      </trkpt>
      <trkpt lat="45.75447" lon="4.61643">
        <ele>777</ele>
        <time>2025-03-02T09:38:06Z</time>
      </trkpt>
      <trkpt lat="45.75444" lon="4.61642">
        <ele>777.4</ele>
        <time>2025-03-02T09:38:07Z</time>
      </trkpt>
      <trkpt lat="45.75442" lon="4.61642">
        <ele>777.8</ele>
        <time>2025-03-02T09:38:08Z</time>
      </trkpt>
      <trkpt lat="45.75439" lon="4.61641">
        <ele>778</ele>
        <time>2025-03-02T09:38:09Z</time>
      </trkpt>
      <trkpt lat="45.75436" lon="4.6164">
        <ele>778.2</ele>
        <time>2025-03-02T09:38:10Z</time>
      </trkpt>
      <trkpt lat="45.75433" lon="4.61639">
        <ele>778.6</ele>
        <time>2025-03-02T09:38:11Z</time>
      </trkpt>
      <trkpt lat="45.75429" lon="4.61638">
        <ele>778.8</ele>
        <time>2025-03-02T09:38:12Z</time>
      </trkpt>
      <trkpt lat="45.75426" lon="4.61637">
        <ele>779.2</ele>
        <time>2025-03-02T09:38:13Z</time>
      </trkpt>
      <trkpt lat="45.75423" lon="4.61636">
        <ele>779.2</ele>
        <time>2025-03-02T09:38:14Z</time>
      </trkpt>
      <trkpt lat="45.75421" lon="4.61635">
        <ele>779.4</ele>
        <time>2025-03-02T09:38:15Z</time>
      </trkpt>
      <trkpt lat="45.75418" lon="4.61633">
        <ele>779.6</ele>
        <time>2025-03-02T09:38:16Z</time>
      </trkpt>
      <trkpt lat="45.75415" lon="4.61631">
        <ele>779.8</ele>
        <time>2025-03-02T09:38:17Z</time>
      </trkpt>
      <trkpt lat="45.75412" lon="4.61629">
        <ele>780</ele>
        <time>2025-03-02T09:38:18Z</time>
      </trkpt>
      <trkpt lat="45.75409" lon="4.61627">
        <ele>780.2</ele>
        <time>2025-03-02T09:38:19Z</time>
      </trkpt>
      <trkpt lat="45.75407" lon="4.61626">
        <ele>780.4</ele>
        <time>2025-03-02T09:38:20Z</time>
      </trkpt>
      <trkpt lat="45.75404" lon="4.61624">
        <ele>780.4</ele>
        <time>2025-03-02T09:38:21Z</time>
      </trkpt>
      <trkpt lat="45.75401" lon="4.61622">
        <ele>780.6</ele>
        <time>2025-03-02T09:38:22Z</time>
      </trkpt>
      <trkpt lat="45.75399" lon="4.6162">
        <ele>780.8</ele>
        <time>2025-03-02T09:38:23Z</time>
      </trkpt>
      <trkpt lat="45.75396" lon="4.61618">
        <ele>781.2</ele>
        <time>2025-03-02T09:38:24Z</time>
      </trkpt>
      <trkpt lat="45.75394" lon="4.61616">
        <ele>781.4</ele>
        <time>2025-03-02T09:38:25Z</time>
      </trkpt>
      <trkpt lat="45.75392" lon="4.61614">
        <ele>781.6</ele>
        <time>2025-03-02T09:38:26Z</time>
      </trkpt>
      <trkpt lat="45.75389" lon="4.61612">
        <ele>781.8</ele>
        <time>2025-03-02T09:38:27Z</time>
      </trkpt>
      <trkpt lat="45.75387" lon="4.6161">
        <ele>782</ele>
        <time>2025-03-02T09:38:28Z</time>
      </trkpt>
      <trkpt lat="45.75384" lon="4.61608">
        <ele>782.2</ele>
        <time>2025-03-02T09:38:29Z</time>
      </trkpt>
      <trkpt lat="45.75381" lon="4.61606">
        <ele>782.4</ele>
        <time>2025-03-02T09:38:30Z</time>
      </trkpt>
      <trkpt lat="45.75377" lon="4.61605">
        <ele>782.4</ele>
        <time>2025-03-02T09:38:31Z</time>
      </trkpt>
      <trkpt lat="45.75373" lon="4.61604">
        <ele>782.6</ele>
        <time>2025-03-02T09:38:32Z</time>
      </trkpt>
      <trkpt lat="45.75369" lon="4.61601">
        <ele>782.8</ele>
        <time>2025-03-02T09:38:33Z</time>
      </trkpt>
      <trkpt lat="45.75367" lon="4.61599">
        <ele>783</ele>
        <time>2025-03-02T09:38:34Z</time>
      </trkpt>
      <trkpt lat="45.75363" lon="4.61596">
        <ele>783.2</ele>
        <time>2025-03-02T09:38:35Z</time>
      </trkpt>
      <trkpt lat="45.75361" lon="4.61594">
        <ele>783.4</ele>
        <time>2025-03-02T09:38:36Z</time>
      </trkpt>
      <trkpt lat="45.75357" lon="4.61591">
        <ele>783.6</ele>
        <time>2025-03-02T09:38:37Z</time>
      </trkpt>
      <trkpt lat="45.75354" lon="4.61591">
        <ele>783.8</ele>
        <time>2025-03-02T09:38:38Z</time>
      </trkpt>
      <trkpt lat="45.75351" lon="4.6159">
        <ele>784</ele>
        <time>2025-03-02T09:38:39Z</time>
      </trkpt>
      <trkpt lat="45.75348" lon="4.61589">
        <ele>784</ele>
        <time>2025-03-02T09:38:40Z</time>
      </trkpt>
      <trkpt lat="45.75344" lon="4.61588">
        <ele>784</ele>
        <time>2025-03-02T09:38:41Z</time>
      </trkpt>
      <trkpt lat="45.75341" lon="4.61588">
        <ele>784</ele>
        <time>2025-03-02T09:38:42Z</time>
      </trkpt>
      <trkpt lat="45.75338" lon="4.61587">
        <ele>784</ele>
        <time>2025-03-02T09:38:43Z</time>
      </trkpt>
      <trkpt lat="45.75335" lon="4.61586">
        <ele>784</ele>
        <time>2025-03-02T09:38:44Z</time>
      </trkpt>
      <trkpt lat="45.75332" lon="4.61585">
        <ele>784.2</ele>
        <time>2025-03-02T09:38:45Z</time>
      </trkpt>
      <trkpt lat="45.75329" lon="4.61583">
        <ele>784.2</ele>
        <time>2025-03-02T09:38:46Z</time>
      </trkpt>
      <trkpt lat="45.75325" lon="4.61582">
        <ele>784.2</ele>
        <time>2025-03-02T09:38:47Z</time>
      </trkpt>
      <trkpt lat="45.75322" lon="4.61582">
        <ele>784.2</ele>
        <time>2025-03-02T09:38:48Z</time>
      </trkpt>
      <trkpt lat="45.75318" lon="4.61582">
        <ele>784.2</ele>
        <time>2025-03-02T09:38:49Z</time>
      </trkpt>
      <trkpt lat="45.75314" lon="4.61581">
        <ele>784.4</ele>
        <time>2025-03-02T09:38:50Z</time>
      </trkpt>
      <trkpt lat="45.7531" lon="4.61581">
        <ele>784.4</ele>
        <time>2025-03-02T09:38:51Z</time>
      </trkpt>
      <trkpt lat="45.75307" lon="4.61579">
        <ele>784.4</ele>
        <time>2025-03-02T09:38:52Z</time>
      </trkpt>
      <trkpt lat="45.75303" lon="4.61577">
        <ele>784.4</ele>
        <time>2025-03-02T09:38:53Z</time>
      </trkpt>
      <trkpt lat="45.753" lon="4.61575">
        <ele>784.4</ele>
        <time>2025-03-02T09:38:54Z</time>
      </trkpt>
      <trkpt lat="45.75297" lon="4.61573">
        <ele>784.2</ele>
        <time>2025-03-02T09:38:55Z</time>
      </trkpt>
      <trkpt lat="45.75296" lon="4.6157">
        <ele>784.2</ele>
        <time>2025-03-02T09:38:56Z</time>
      </trkpt>
      <trkpt lat="45.75294" lon="4.61567">
        <ele>784</ele>
        <time>2025-03-02T09:38:57Z</time>
      </trkpt>
      <trkpt lat="45.75293" lon="4.61565">
        <ele>783.8</ele>
        <time>2025-03-02T09:38:58Z</time>
      </trkpt>
      <trkpt lat="45.75292" lon="4.61562">
        <ele>783.6</ele>
        <time>2025-03-02T09:38:59Z</time>
      </trkpt>
      <trkpt lat="45.7529" lon="4.61557">
        <ele>783.6</ele>
        <time>2025-03-02T09:39:00Z</time>
      </trkpt>
      <trkpt lat="45.75288" lon="4.61551">
        <ele>783.2</ele>
        <time>2025-03-02T09:39:01Z</time>
      </trkpt>
      <trkpt lat="45.75286" lon="4.61544">
        <ele>782.8</ele>
        <time>2025-03-02T09:39:02Z</time>
      </trkpt>
      <trkpt lat="45.75285" lon="4.61536">
        <ele>782</ele>
        <time>2025-03-02T09:39:03Z</time>
      </trkpt>
      <trkpt lat="45.75284" lon="4.61529">
        <ele>781.4</ele>
        <time>2025-03-02T09:39:04Z</time>
      </trkpt>
      <trkpt lat="45.75283" lon="4.61521">
        <ele>780.8</ele>
        <time>2025-03-02T09:39:05Z</time>
      </trkpt>
      <trkpt lat="45.75281" lon="4.61514">
        <ele>780.2</ele>
        <time>2025-03-02T09:39:06Z</time>
      </trkpt>
      <trkpt lat="45.7528" lon="4.61505">
        <ele>779.4</ele>
        <time>2025-03-02T09:39:07Z</time>
      </trkpt>
      <trkpt lat="45.75278" lon="4.61497">
        <ele>778.4</ele>
        <time>2025-03-02T09:39:08Z</time>
      </trkpt>
      <trkpt lat="45.75277" lon="4.61489">
        <ele>778.4</ele>
        <time>2025-03-02T09:39:09Z</time>
      </trkpt>
      <trkpt lat="45.75276" lon="4.61481">
        <ele>778.2</ele>
        <time>2025-03-02T09:39:10Z</time>
      </trkpt>
      <trkpt lat="45.75276" lon="4.61473">
        <ele>777.6</ele>
        <time>2025-03-02T09:39:11Z</time>
      </trkpt>
      <trkpt lat="45.75276" lon="4.61464">
        <ele>777</ele>
        <time>2025-03-02T09:39:12Z</time>
      </trkpt>
      <trkpt lat="45.75276" lon="4.61454">
        <ele>776.8</ele>
        <time>2025-03-02T09:39:13Z</time>
      </trkpt>
      <trkpt lat="45.75275" lon="4.61445">
        <ele>776.4</ele>
        <time>2025-03-02T09:39:14Z</time>
      </trkpt>
      <trkpt lat="45.75275" lon="4.61436">
        <ele>775.6</ele>
        <time>2025-03-02T09:39:15Z</time>
      </trkpt>
      <trkpt lat="45.75274" lon="4.61426">
        <ele>775</ele>
        <time>2025-03-02T09:39:16Z</time>
      </trkpt>
      <trkpt lat="45.75274" lon="4.61416">
        <ele>774.6</ele>
        <time>2025-03-02T09:39:17Z</time>
      </trkpt>
      <trkpt lat="45.75275" lon="4.61406">
        <ele>774</ele>
        <time>2025-03-02T09:39:18Z</time>
      </trkpt>
      <trkpt lat="45.75275" lon="4.61397">
        <ele>773.6</ele>
        <time>2025-03-02T09:39:19Z</time>
      </trkpt>
      <trkpt lat="45.75276" lon="4.61389">
        <ele>773.2</ele>
        <time>2025-03-02T09:39:20Z</time>
      </trkpt>
      <trkpt lat="45.75276" lon="4.61383">
        <ele>773.2</ele>
        <time>2025-03-02T09:39:21Z</time>
      </trkpt>
      <trkpt lat="45.75275" lon="4.61377">
        <ele>773</ele>
        <time>2025-03-02T09:39:22Z</time>
      </trkpt>
      <trkpt lat="45.75275" lon="4.61371">
        <ele>773</ele>
        <time>2025-03-02T09:39:23Z</time>
      </trkpt>
      <trkpt lat="45.75274" lon="4.61364">
        <ele>773</ele>
        <time>2025-03-02T09:39:24Z</time>
      </trkpt>
      <trkpt lat="45.75273" lon="4.61357">
        <ele>772.8</ele>
        <time>2025-03-02T09:39:25Z</time>
      </trkpt>
      <trkpt lat="45.75272" lon="4.61349">
        <ele>772.4</ele>
        <time>2025-03-02T09:39:26Z</time>
      </trkpt>
      <trkpt lat="45.75271" lon="4.61341">
        <ele>772</ele>
        <time>2025-03-02T09:39:27Z</time>
      </trkpt>
      <trkpt lat="45.7527" lon="4.61332">
        <ele>771.2</ele>
        <time>2025-03-02T09:39:28Z</time>
      </trkpt>
      <trkpt lat="45.75268" lon="4.61324">
        <ele>770.8</ele>
        <time>2025-03-02T09:39:29Z</time>
      </trkpt>
      <trkpt lat="45.75266" lon="4.61315">
        <ele>770</ele>
        <time>2025-03-02T09:39:30Z</time>
      </trkpt>
      <trkpt lat="45.75264" lon="4.61306">
        <ele>769.4</ele>
        <time>2025-03-02T09:39:31Z</time>
      </trkpt>
      <trkpt lat="45.75262" lon="4.61296">
        <ele>768.6</ele>
        <time>2025-03-02T09:39:32Z</time>
      </trkpt>
      <trkpt lat="45.7526" lon="4.61287">
        <ele>768</ele>
        <time>2025-03-02T09:39:33Z</time>
      </trkpt>
      <trkpt lat="45.75258" lon="4.61277">
        <ele>767.4</ele>
        <time>2025-03-02T09:39:34Z</time>
      </trkpt>
      <trkpt lat="45.75255" lon="4.61269">
        <ele>766.4</ele>
        <time>2025-03-02T09:39:35Z</time>
      </trkpt>
      <trkpt lat="45.75253" lon="4.61261">
        <ele>766</ele>
        <time>2025-03-02T09:39:36Z</time>
      </trkpt>
      <trkpt lat="45.75252" lon="4.61253">
        <ele>765.8</ele>
        <time>2025-03-02T09:39:37Z</time>
      </trkpt>
      <trkpt lat="45.75251" lon="4.61247">
        <ele>765.6</ele>
        <time>2025-03-02T09:39:38Z</time>
      </trkpt>
      <trkpt lat="45.7525" lon="4.6124">
        <ele>765</ele>
        <time>2025-03-02T09:39:39Z</time>
      </trkpt>
      <trkpt lat="45.7525" lon="4.61234">
        <ele>764.8</ele>
        <time>2025-03-02T09:39:40Z</time>
      </trkpt>
      <trkpt lat="45.75249" lon="4.61228">
        <ele>764.6</ele>
        <time>2025-03-02T09:39:41Z</time>
      </trkpt>
      <trkpt lat="45.75248" lon="4.61222">
        <ele>764.4</ele>
        <time>2025-03-02T09:39:42Z</time>
      </trkpt>
      <trkpt lat="45.75247" lon="4.61215">
        <ele>764</ele>
        <time>2025-03-02T09:39:43Z</time>
      </trkpt>
      <trkpt lat="45.75245" lon="4.61209">
        <ele>763.8</ele>
        <time>2025-03-02T09:39:44Z</time>
      </trkpt>
      <trkpt lat="45.75243" lon="4.61203">
        <ele>763.6</ele>
        <time>2025-03-02T09:39:45Z</time>
      </trkpt>
      <trkpt lat="45.75241" lon="4.61198">
        <ele>763.6</ele>
        <time>2025-03-02T09:39:46Z</time>
      </trkpt>
      <trkpt lat="45.75238" lon="4.61194">
        <ele>763.2</ele>
        <time>2025-03-02T09:39:47Z</time>
      </trkpt>
      <trkpt lat="45.75236" lon="4.61189">
        <ele>763.2</ele>
        <time>2025-03-02T09:39:48Z</time>
      </trkpt>
      <trkpt lat="45.75233" lon="4.61184">
        <ele>763.2</ele>
        <time>2025-03-02T09:39:49Z</time>
      </trkpt>
      <trkpt lat="45.7523" lon="4.6118">
        <ele>762.8</ele>
        <time>2025-03-02T09:39:50Z</time>
      </trkpt>
      <trkpt lat="45.75226" lon="4.61176">
        <ele>762.6</ele>
        <time>2025-03-02T09:39:51Z</time>
      </trkpt>
      <trkpt lat="45.75221" lon="4.61172">
        <ele>762.2</ele>
        <time>2025-03-02T09:39:52Z</time>
      </trkpt>
      <trkpt lat="45.75216" lon="4.61168">
        <ele>761.6</ele>
        <time>2025-03-02T09:39:53Z</time>
      </trkpt>
      <trkpt lat="45.75212" lon="4.61163">
        <ele>761.4</ele>
        <time>2025-03-02T09:39:54Z</time>
      </trkpt>
      <trkpt lat="45.75207" lon="4.61159">
        <ele>761.2</ele>
        <time>2025-03-02T09:39:55Z</time>
      </trkpt>
      <trkpt lat="45.75203" lon="4.61154">
        <ele>760.8</ele>
        <time>2025-03-02T09:39:56Z</time>
      </trkpt>
      <trkpt lat="45.75199" lon="4.61149">
        <ele>760.4</ele>
        <time>2025-03-02T09:39:57Z</time>
      </trkpt>
      <trkpt lat="45.75196" lon="4.61144">
        <ele>760</ele>
        <time>2025-03-02T09:39:58Z</time>
      </trkpt>
      <trkpt lat="45.75192" lon="4.6114">
        <ele>759.8</ele>
        <time>2025-03-02T09:39:59Z</time>
      </trkpt>
      <trkpt lat="45.75188" lon="4.61135">
        <ele>759.8</ele>
        <time>2025-03-02T09:40:00Z</time>
      </trkpt>
      <trkpt lat="45.75185" lon="4.61131">
        <ele>759.8</ele>
        <time>2025-03-02T09:40:01Z</time>
      </trkpt>
      <trkpt lat="45.75182" lon="4.61126">
        <ele>759.6</ele>
        <time>2025-03-02T09:40:02Z</time>
      </trkpt>
      <trkpt lat="45.75179" lon="4.61122">
        <ele>759.6</ele>
        <time>2025-03-02T09:40:03Z</time>
      </trkpt>
      <trkpt lat="45.75177" lon="4.61117">
        <ele>759.4</ele>
        <time>2025-03-02T09:40:04Z</time>
      </trkpt>
      <trkpt lat="45.75173" lon="4.61112">
        <ele>759.4</ele>
        <time>2025-03-02T09:40:05Z</time>
      </trkpt>
      <trkpt lat="45.7517" lon="4.61107">
        <ele>759.4</ele>
        <time>2025-03-02T09:40:06Z</time>
      </trkpt>
      <trkpt lat="45.75168" lon="4.61104">
        <ele>759.4</ele>
        <time>2025-03-02T09:40:07Z</time>
      </trkpt>
      <trkpt lat="45.75164" lon="4.611">
        <ele>759.4</ele>
        <time>2025-03-02T09:40:08Z</time>
      </trkpt>
      <trkpt lat="45.75161" lon="4.61094">
        <ele>759.4</ele>
        <time>2025-03-02T09:40:09Z</time>
      </trkpt>
      <trkpt lat="45.75158" lon="4.61089">
        <ele>759.4</ele>
        <time>2025-03-02T09:40:10Z</time>
      </trkpt>
      <trkpt lat="45.75155" lon="4.61083">
        <ele>759.4</ele>
        <time>2025-03-02T09:40:11Z</time>
      </trkpt>
      <trkpt lat="45.75153" lon="4.61078">
        <ele>759.2</ele>
        <time>2025-03-02T09:40:12Z</time>
      </trkpt>
      <trkpt lat="45.75151" lon="4.61072">
        <ele>759.2</ele>
        <time>2025-03-02T09:40:13Z</time>
      </trkpt>
      <trkpt lat="45.75149" lon="4.61066">
        <ele>759</ele>
        <time>2025-03-02T09:40:14Z</time>
      </trkpt>
      <trkpt lat="45.75148" lon="4.61061">
        <ele>759</ele>
        <time>2025-03-02T09:40:15Z</time>
      </trkpt>
      <trkpt lat="45.75148" lon="4.61061">
        <ele>759</ele>
        <time>2025-03-02T09:40:16Z</time>
      </trkpt>
      <trkpt lat="45.75148" lon="4.61061">
        <ele>759.6</ele>
        <time>2025-03-02T09:40:17Z</time>
      </trkpt>
      <trkpt lat="45.75148" lon="4.61061">
        <ele>759.6</ele>
        <time>2025-03-02T09:40:18Z</time>
      </trkpt>
      <trkpt lat="45.75148" lon="4.61061">
        <ele>759.6</ele>
        <time>2025-03-02T09:40:19Z</time>
      </trkpt>
      <trkpt lat="45.75148" lon="4.61061">
        <ele>759.6</ele>
        <time>2025-03-02T09:40:20Z</time>
      </trkpt>
      <trkpt lat="45.75148" lon="4.61061">
        <ele>759.6</ele>
        <time>2025-03-02T09:40:21Z</time>
      </trkpt>
      <trkpt lat="45.75148" lon="4.61061">
        <ele>759.6</ele>
        <time>2025-03-02T09:40:22Z</time>
      </trkpt>
      <trkpt lat="45.75147" lon="4.6106">
        <ele>759.6</ele>
        <time>2025-03-02T09:40:23Z</time>
      </trkpt>
      <trkpt lat="45.75147" lon="4.61058">
        <ele>759.6</ele>
        <time>2025-03-02T09:40:24Z</time>
      </trkpt>
      <trkpt lat="45.75147" lon="4.61055">
        <ele>759.6</ele>
        <time>2025-03-02T09:40:25Z</time>
      </trkpt>
      <trkpt lat="45.75146" lon="4.61051">
        <ele>761.2</ele>
        <time>2025-03-02T09:40:26Z</time>
      </trkpt>
      <trkpt lat="45.75144" lon="4.61046">
        <ele>760.8</ele>
        <time>2025-03-02T09:40:27Z</time>
      </trkpt>
      <trkpt lat="45.75141" lon="4.6104">
        <ele>760.2</ele>
        <time>2025-03-02T09:40:28Z</time>
      </trkpt>
      <trkpt lat="45.75136" lon="4.61037">
        <ele>759.4</ele>
        <time>2025-03-02T09:40:29Z</time>
      </trkpt>
      <trkpt lat="45.75132" lon="4.61034">
        <ele>758.4</ele>
        <time>2025-03-02T09:40:30Z</time>
      </trkpt>
      <trkpt lat="45.75126" lon="4.61032">
        <ele>757.8</ele>
        <time>2025-03-02T09:40:31Z</time>
      </trkpt>
      <trkpt lat="45.7512" lon="4.6103">
        <ele>756.8</ele>
        <time>2025-03-02T09:40:32Z</time>
      </trkpt>
      <trkpt lat="45.75113" lon="4.61029">
        <ele>756.2</ele>
        <time>2025-03-02T09:40:33Z</time>
      </trkpt>
      <trkpt lat="45.75107" lon="4.61028">
        <ele>756.2</ele>
        <time>2025-03-02T09:40:34Z</time>
      </trkpt>
      <trkpt lat="45.75102" lon="4.61027">
        <ele>756.2</ele>
        <time>2025-03-02T09:40:35Z</time>
      </trkpt>
      <trkpt lat="45.75098" lon="4.61027">
        <ele>756.2</ele>
        <time>2025-03-02T09:40:36Z</time>
      </trkpt>
      <trkpt lat="45.75095" lon="4.61027">
        <ele>756.2</ele>
        <time>2025-03-02T09:40:37Z</time>
      </trkpt>
      <trkpt lat="45.75092" lon="4.61028">
        <ele>756.4</ele>
        <time>2025-03-02T09:40:38Z</time>
      </trkpt>
      <trkpt lat="45.75089" lon="4.61028">
        <ele>756.6</ele>
        <time>2025-03-02T09:40:39Z</time>
      </trkpt>
      <trkpt lat="45.75086" lon="4.61028">
        <ele>756.8</ele>
        <time>2025-03-02T09:40:40Z</time>
      </trkpt>
      <trkpt lat="45.75083" lon="4.61028">
        <ele>756.8</ele>
        <time>2025-03-02T09:40:41Z</time>
      </trkpt>
      <trkpt lat="45.75079" lon="4.61028">
        <ele>756.8</ele>
        <time>2025-03-02T09:40:42Z</time>
      </trkpt>
      <trkpt lat="45.75076" lon="4.61028">
        <ele>756.8</ele>
        <time>2025-03-02T09:40:43Z</time>
      </trkpt>
      <trkpt lat="45.75071" lon="4.61029">
        <ele>756.8</ele>
        <time>2025-03-02T09:40:44Z</time>
      </trkpt>
      <trkpt lat="45.75066" lon="4.6103">
        <ele>756.8</ele>
        <time>2025-03-02T09:40:45Z</time>
      </trkpt>
      <trkpt lat="45.75061" lon="4.61031">
        <ele>756.2</ele>
        <time>2025-03-02T09:40:46Z</time>
      </trkpt>
      <trkpt lat="45.75055" lon="4.61032">
        <ele>756.2</ele>
        <time>2025-03-02T09:40:47Z</time>
      </trkpt>
      <trkpt lat="45.7505" lon="4.61033">
        <ele>756</ele>
        <time>2025-03-02T09:40:48Z</time>
      </trkpt>
      <trkpt lat="45.75045" lon="4.61034">
        <ele>756</ele>
        <time>2025-03-02T09:40:49Z</time>
      </trkpt>
      <trkpt lat="45.75041" lon="4.61035">
        <ele>756</ele>
        <time>2025-03-02T09:40:50Z</time>
      </trkpt>
      <trkpt lat="45.75037" lon="4.61035">
        <ele>756.2</ele>
        <time>2025-03-02T09:40:51Z</time>
      </trkpt>
      <trkpt lat="45.75032" lon="4.61035">
        <ele>756.4</ele>
        <time>2025-03-02T09:40:52Z</time>
      </trkpt>
      <trkpt lat="45.75029" lon="4.61035">
        <ele>757</ele>
        <time>2025-03-02T09:40:53Z</time>
      </trkpt>
      <trkpt lat="45.75025" lon="4.61036">
        <ele>757.4</ele>
        <time>2025-03-02T09:40:54Z</time>
      </trkpt>
      <trkpt lat="45.75021" lon="4.61037">
        <ele>757.4</ele>
        <time>2025-03-02T09:40:55Z</time>
      </trkpt>
      <trkpt lat="45.75018" lon="4.61038">
        <ele>757.6</ele>
        <time>2025-03-02T09:40:56Z</time>
      </trkpt>
      <trkpt lat="45.75014" lon="4.61039">
        <ele>757.8</ele>
        <time>2025-03-02T09:40:57Z</time>
      </trkpt>
      <trkpt lat="45.75011" lon="4.6104">
        <ele>758</ele>
        <time>2025-03-02T09:40:58Z</time>
      </trkpt>
      <trkpt lat="45.75007" lon="4.6104">
        <ele>758.2</ele>
        <time>2025-03-02T09:40:59Z</time>
      </trkpt>
      <trkpt lat="45.75005" lon="4.61041">
        <ele>758.8</ele>
        <time>2025-03-02T09:41:00Z</time>
      </trkpt>
      <trkpt lat="45.75002" lon="4.61043">
        <ele>759.4</ele>
        <time>2025-03-02T09:41:01Z</time>
      </trkpt>
      <trkpt lat="45.74999" lon="4.61043">
        <ele>759.4</ele>
        <time>2025-03-02T09:41:02Z</time>
      </trkpt>
      <trkpt lat="45.74996" lon="4.61044">
        <ele>759.4</ele>
        <time>2025-03-02T09:41:03Z</time>
      </trkpt>
      <trkpt lat="45.74993" lon="4.61046">
        <ele>759.4</ele>
        <time>2025-03-02T09:41:04Z</time>
      </trkpt>
      <trkpt lat="45.7499" lon="4.61048">
        <ele>759.4</ele>
        <time>2025-03-02T09:41:05Z</time>
      </trkpt>
      <trkpt lat="45.74988" lon="4.6105">
        <ele>759.2</ele>
        <time>2025-03-02T09:41:06Z</time>
      </trkpt>
      <trkpt lat="45.74985" lon="4.61052">
        <ele>759.2</ele>
        <time>2025-03-02T09:41:07Z</time>
      </trkpt>
      <trkpt lat="45.74982" lon="4.61054">
        <ele>759</ele>
        <time>2025-03-02T09:41:08Z</time>
      </trkpt>
      <trkpt lat="45.74979" lon="4.61055">
        <ele>758.6</ele>
        <time>2025-03-02T09:41:09Z</time>
      </trkpt>
      <trkpt lat="45.74976" lon="4.61057">
        <ele>758.6</ele>
        <time>2025-03-02T09:41:10Z</time>
      </trkpt>
      <trkpt lat="45.74972" lon="4.61059">
        <ele>757.8</ele>
        <time>2025-03-02T09:41:11Z</time>
      </trkpt>
      <trkpt lat="45.74968" lon="4.61061">
        <ele>757.4</ele>
        <time>2025-03-02T09:41:12Z</time>
      </trkpt>
      <trkpt lat="45.74963" lon="4.61064">
        <ele>756.8</ele>
        <time>2025-03-02T09:41:13Z</time>
      </trkpt>
      <trkpt lat="45.74959" lon="4.61066">
        <ele>755.6</ele>
        <time>2025-03-02T09:41:14Z</time>
      </trkpt>
      <trkpt lat="45.74955" lon="4.61068">
        <ele>755.4</ele>
        <time>2025-03-02T09:41:15Z</time>
      </trkpt>
      <trkpt lat="45.74951" lon="4.61071">
        <ele>755.2</ele>
        <time>2025-03-02T09:41:16Z</time>
      </trkpt>
      <trkpt lat="45.74946" lon="4.61073">
        <ele>755</ele>
        <time>2025-03-02T09:41:17Z</time>
      </trkpt>
      <trkpt lat="45.74941" lon="4.61074">
        <ele>754.8</ele>
        <time>2025-03-02T09:41:18Z</time>
      </trkpt>
      <trkpt lat="45.74937" lon="4.61077">
        <ele>754.2</ele>
        <time>2025-03-02T09:41:19Z</time>
      </trkpt>
      <trkpt lat="45.74932" lon="4.6108">
        <ele>753.8</ele>
        <time>2025-03-02T09:41:20Z</time>
      </trkpt>
      <trkpt lat="45.74927" lon="4.61083">
        <ele>753.4</ele>
        <time>2025-03-02T09:41:21Z</time>
      </trkpt>
      <trkpt lat="45.74921" lon="4.61088">
        <ele>753</ele>
        <time>2025-03-02T09:41:22Z</time>
      </trkpt>
      <trkpt lat="45.74917" lon="4.61094">
        <ele>752.8</ele>
        <time>2025-03-02T09:41:23Z</time>
      </trkpt>
      <trkpt lat="45.74914" lon="4.61099">
        <ele>752.8</ele>
        <time>2025-03-02T09:41:24Z</time>
      </trkpt>
      <trkpt lat="45.7491" lon="4.61102">
        <ele>752.8</ele>
        <time>2025-03-02T09:41:25Z</time>
      </trkpt>
      <trkpt lat="45.74905" lon="4.61103">
        <ele>752.8</ele>
        <time>2025-03-02T09:41:26Z</time>
      </trkpt>
      <trkpt lat="45.74902" lon="4.61104">
        <ele>752.8</ele>
        <time>2025-03-02T09:41:27Z</time>
      </trkpt>
      <trkpt lat="45.74899" lon="4.61105">
        <ele>752.8</ele>
        <time>2025-03-02T09:41:28Z</time>
      </trkpt>
      <trkpt lat="45.74896" lon="4.61105">
        <ele>752.8</ele>
        <time>2025-03-02T09:41:29Z</time>
      </trkpt>
      <trkpt lat="45.74891" lon="4.61107">
        <ele>752.8</ele>
        <time>2025-03-02T09:41:30Z</time>
      </trkpt>
      <trkpt lat="45.74887" lon="4.61108">
        <ele>752.8</ele>
        <time>2025-03-02T09:41:31Z</time>
      </trkpt>
      <trkpt lat="45.74884" lon="4.6111">
        <ele>752.8</ele>
        <time>2025-03-02T09:41:32Z</time>
      </trkpt>
      <trkpt lat="45.74882" lon="4.61112">
        <ele>752.6</ele>
        <time>2025-03-02T09:41:33Z</time>
      </trkpt>
      <trkpt lat="45.74879" lon="4.61114">
        <ele>752.6</ele>
        <time>2025-03-02T09:41:34Z</time>
      </trkpt>
      <trkpt lat="45.74877" lon="4.61115">
        <ele>752.6</ele>
        <time>2025-03-02T09:41:35Z</time>
      </trkpt>
      <trkpt lat="45.74874" lon="4.61117">
        <ele>752.2</ele>
        <time>2025-03-02T09:41:36Z</time>
      </trkpt>
      <trkpt lat="45.74872" lon="4.61119">
        <ele>751.8</ele>
        <time>2025-03-02T09:41:37Z</time>
      </trkpt>
      <trkpt lat="45.7487" lon="4.61119">
        <ele>751.6</ele>
        <time>2025-03-02T09:41:38Z</time>
      </trkpt>
      <trkpt lat="45.74869" lon="4.61121">
        <ele>751.4</ele>
        <time>2025-03-02T09:41:39Z</time>
      </trkpt>
      <trkpt lat="45.74867" lon="4.61123">
        <ele>751.2</ele>
        <time>2025-03-02T09:41:40Z</time>
      </trkpt>
      <trkpt lat="45.74865" lon="4.61126">
        <ele>751</ele>
        <time>2025-03-02T09:41:41Z</time>
      </trkpt>
      <trkpt lat="45.74864" lon="4.61129">
        <ele>750.4</ele>
        <time>2025-03-02T09:41:42Z</time>
      </trkpt>
      <trkpt lat="45.74862" lon="4.61132">
        <ele>750.2</ele>
        <time>2025-03-02T09:41:43Z</time>
      </trkpt>
      <trkpt lat="45.7486" lon="4.61134">
        <ele>749.8</ele>
        <time>2025-03-02T09:41:44Z</time>
      </trkpt>
      <trkpt lat="45.74859" lon="4.61136">
        <ele>749.2</ele>
        <time>2025-03-02T09:41:45Z</time>
      </trkpt>
      <trkpt lat="45.74858" lon="4.61138">
        <ele>749</ele>
        <time>2025-03-02T09:41:46Z</time>
      </trkpt>
      <trkpt lat="45.74858" lon="4.6114">
        <ele>748.8</ele>
        <time>2025-03-02T09:41:47Z</time>
      </trkpt>
      <trkpt lat="45.74857" lon="4.61141">
        <ele>748.8</ele>
        <time>2025-03-02T09:41:48Z</time>
      </trkpt>
      <trkpt lat="45.74855" lon="4.61142">
        <ele>748.6</ele>
        <time>2025-03-02T09:41:49Z</time>
      </trkpt>
      <trkpt lat="45.74853" lon="4.61143">
        <ele>748.4</ele>
        <time>2025-03-02T09:41:50Z</time>
      </trkpt>
      <trkpt lat="45.74852" lon="4.61143">
        <ele>748</ele>
        <time>2025-03-02T09:41:51Z</time>
      </trkpt>
      <trkpt lat="45.7485" lon="4.61144">
        <ele>747.6</ele>
        <time>2025-03-02T09:41:52Z</time>
      </trkpt>
      <trkpt lat="45.74848" lon="4.61143">
        <ele>747.2</ele>
        <time>2025-03-02T09:41:53Z</time>
      </trkpt>
      <trkpt lat="45.74846" lon="4.61143">
        <ele>747</ele>
        <time>2025-03-02T09:41:54Z</time>
      </trkpt>
      <trkpt lat="45.74844" lon="4.61144">
        <ele>746.6</ele>
        <time>2025-03-02T09:41:55Z</time>
      </trkpt>
      <trkpt lat="45.74842" lon="4.61146">
        <ele>746.2</ele>
        <time>2025-03-02T09:41:56Z</time>
      </trkpt>
      <trkpt lat="45.74841" lon="4.61149">
        <ele>745.8</ele>
        <time>2025-03-02T09:41:57Z</time>
      </trkpt>
      <trkpt lat="45.7484" lon="4.61152">
        <ele>745.2</ele>
        <time>2025-03-02T09:41:58Z</time>
      </trkpt>
      <trkpt lat="45.74838" lon="4.61155">
        <ele>745</ele>
        <time>2025-03-02T09:41:59Z</time>
      </trkpt>
      <trkpt lat="45.74836" lon="4.61157">
        <ele>744.8</ele>
        <time>2025-03-02T09:42:00Z</time>
      </trkpt>
      <trkpt lat="45.74835" lon="4.6116">
        <ele>744.4</ele>
        <time>2025-03-02T09:42:01Z</time>
      </trkpt>
      <trkpt lat="45.74834" lon="4.61162">
        <ele>743.8</ele>
        <time>2025-03-02T09:42:02Z</time>
      </trkpt>
      <trkpt lat="45.74833" lon="4.61163">
        <ele>743</ele>
        <time>2025-03-02T09:42:03Z</time>
      </trkpt>
      <trkpt lat="45.74831" lon="4.61164">
        <ele>742.8</ele>
        <time>2025-03-02T09:42:04Z</time>
      </trkpt>
      <trkpt lat="45.7483" lon="4.61164">
        <ele>742.6</ele>
        <time>2025-03-02T09:42:05Z</time>
      </trkpt>
      <trkpt lat="45.74829" lon="4.61165">
        <ele>742.2</ele>
        <time>2025-03-02T09:42:06Z</time>
      </trkpt>
      <trkpt lat="45.74828" lon="4.61163">
        <ele>742</ele>
        <time>2025-03-02T09:42:07Z</time>
      </trkpt>
      <trkpt lat="45.74827" lon="4.61162">
        <ele>741.6</ele>
        <time>2025-03-02T09:42:08Z</time>
      </trkpt>
      <trkpt lat="45.74825" lon="4.6116">
        <ele>741.4</ele>
        <time>2025-03-02T09:42:09Z</time>
      </trkpt>
      <trkpt lat="45.74824" lon="4.6116">
        <ele>741.2</ele>
        <time>2025-03-02T09:42:10Z</time>
      </trkpt>
      <trkpt lat="45.74822" lon="4.6116">
        <ele>740.8</ele>
        <time>2025-03-02T09:42:11Z</time>
      </trkpt>
      <trkpt lat="45.7482" lon="4.61162">
        <ele>740.6</ele>
        <time>2025-03-02T09:42:12Z</time>
      </trkpt>
      <trkpt lat="45.74818" lon="4.61164">
        <ele>740.6</ele>
        <time>2025-03-02T09:42:13Z</time>
      </trkpt>
      <trkpt lat="45.74815" lon="4.61165">
        <ele>740.4</ele>
        <time>2025-03-02T09:42:14Z</time>
      </trkpt>
      <trkpt lat="45.74813" lon="4.61163">
        <ele>739.8</ele>
        <time>2025-03-02T09:42:15Z</time>
      </trkpt>
      <trkpt lat="45.74811" lon="4.61161">
        <ele>739.4</ele>
        <time>2025-03-02T09:42:16Z</time>
      </trkpt>
      <trkpt lat="45.74808" lon="4.61158">
        <ele>738.6</ele>
        <time>2025-03-02T09:42:17Z</time>
      </trkpt>
      <trkpt lat="45.74806" lon="4.61157">
        <ele>737.8</ele>
        <time>2025-03-02T09:42:18Z</time>
      </trkpt>
      <trkpt lat="45.74803" lon="4.61155">
        <ele>737.6</ele>
        <time>2025-03-02T09:42:19Z</time>
      </trkpt>
      <trkpt lat="45.74801" lon="4.61154">
        <ele>737.2</ele>
        <time>2025-03-02T09:42:20Z</time>
      </trkpt>
      <trkpt lat="45.74798" lon="4.61154">
        <ele>737</ele>
        <time>2025-03-02T09:42:21Z</time>
      </trkpt>
      <trkpt lat="45.74796" lon="4.61155">
        <ele>736.6</ele>
        <time>2025-03-02T09:42:22Z</time>
      </trkpt>
      <trkpt lat="45.74793" lon="4.61156">
        <ele>736.4</ele>
        <time>2025-03-02T09:42:23Z</time>
      </trkpt>
      <trkpt lat="45.74792" lon="4.61155">
        <ele>736</ele>
        <time>2025-03-02T09:42:24Z</time>
      </trkpt>
      <trkpt lat="45.7479" lon="4.61153">
        <ele>735.6</ele>
        <time>2025-03-02T09:42:25Z</time>
      </trkpt>
      <trkpt lat="45.74788" lon="4.61151">
        <ele>735.4</ele>
        <time>2025-03-02T09:42:26Z</time>
      </trkpt>
      <trkpt lat="45.74786" lon="4.61148">
        <ele>735.2</ele>
        <time>2025-03-02T09:42:27Z</time>
      </trkpt>
      <trkpt lat="45.74783" lon="4.61146">
        <ele>735.2</ele>
        <time>2025-03-02T09:42:28Z</time>
      </trkpt>
      <trkpt lat="45.74781" lon="4.61143">
        <ele>735.2</ele>
        <time>2025-03-02T09:42:29Z</time>
      </trkpt>
      <trkpt lat="45.74778" lon="4.61141">
        <ele>735</ele>
        <time>2025-03-02T09:42:30Z</time>
      </trkpt>
      <trkpt lat="45.74776" lon="4.61139">
        <ele>735</ele>
        <time>2025-03-02T09:42:31Z</time>
      </trkpt>
      <trkpt lat="45.74773" lon="4.61137">
        <ele>735</ele>
        <time>2025-03-02T09:42:32Z</time>
      </trkpt>
      <trkpt lat="45.7477" lon="4.61135">
        <ele>734.8</ele>
        <time>2025-03-02T09:42:33Z</time>
      </trkpt>
      <trkpt lat="45.74768" lon="4.61133">
        <ele>734.8</ele>
        <time>2025-03-02T09:42:34Z</time>
      </trkpt>
      <trkpt lat="45.74765" lon="4.6113">
        <ele>734.8</ele>
        <time>2025-03-02T09:42:35Z</time>
      </trkpt>
      <trkpt lat="45.74763" lon="4.61127">
        <ele>734.6</ele>
        <time>2025-03-02T09:42:36Z</time>
      </trkpt>
      <trkpt lat="45.7476" lon="4.61124">
        <ele>734.4</ele>
        <time>2025-03-02T09:42:37Z</time>
      </trkpt>
      <trkpt lat="45.74757" lon="4.6112">
        <ele>734.2</ele>
        <time>2025-03-02T09:42:38Z</time>
      </trkpt>
      <trkpt lat="45.74754" lon="4.61117">
        <ele>734</ele>
        <time>2025-03-02T09:42:39Z</time>
      </trkpt>
      <trkpt lat="45.74751" lon="4.61114">
        <ele>733.4</ele>
        <time>2025-03-02T09:42:40Z</time>
      </trkpt>
      <trkpt lat="45.74747" lon="4.61111">
        <ele>733.2</ele>
        <time>2025-03-02T09:42:41Z</time>
      </trkpt>
      <trkpt lat="45.74743" lon="4.61107">
        <ele>733</ele>
        <time>2025-03-02T09:42:42Z</time>
      </trkpt>
      <trkpt lat="45.74738" lon="4.61103">
        <ele>732.8</ele>
        <time>2025-03-02T09:42:43Z</time>
      </trkpt>
      <trkpt lat="45.74734" lon="4.61098">
        <ele>732.8</ele>
        <time>2025-03-02T09:42:44Z</time>
      </trkpt>
      <trkpt lat="45.7473" lon="4.61093">
        <ele>732.4</ele>
        <time>2025-03-02T09:42:45Z</time>
      </trkpt>
      <trkpt lat="45.74725" lon="4.61087">
        <ele>731.8</ele>
        <time>2025-03-02T09:42:46Z</time>
      </trkpt>
      <trkpt lat="45.7472" lon="4.61082">
        <ele>730.8</ele>
        <time>2025-03-02T09:42:47Z</time>
      </trkpt>
      <trkpt lat="45.74714" lon="4.61077">
        <ele>730</ele>
        <time>2025-03-02T09:42:48Z</time>
      </trkpt>
      <trkpt lat="45.74708" lon="4.61071">
        <ele>729.2</ele>
        <time>2025-03-02T09:42:49Z</time>
      </trkpt>
      <trkpt lat="45.74702" lon="4.61064">
        <ele>728.6</ele>
        <time>2025-03-02T09:42:50Z</time>
      </trkpt>
      <trkpt lat="45.74696" lon="4.61057">
        <ele>727.8</ele>
        <time>2025-03-02T09:42:51Z</time>
      </trkpt>
      <trkpt lat="45.7469" lon="4.61049">
        <ele>727</ele>
        <time>2025-03-02T09:42:52Z</time>
      </trkpt>
      <trkpt lat="45.74684" lon="4.61042">
        <ele>726.4</ele>
        <time>2025-03-02T09:42:53Z</time>
      </trkpt>
      <trkpt lat="45.74678" lon="4.61034">
        <ele>725.6</ele>
        <time>2025-03-02T09:42:54Z</time>
      </trkpt>
      <trkpt lat="45.74673" lon="4.61026">
        <ele>725</ele>
        <time>2025-03-02T09:42:55Z</time>
      </trkpt>
      <trkpt lat="45.74667" lon="4.61017">
        <ele>724.6</ele>
        <time>2025-03-02T09:42:56Z</time>
      </trkpt>
      <trkpt lat="45.74661" lon="4.61008">
        <ele>723.6</ele>
        <time>2025-03-02T09:42:57Z</time>
      </trkpt>
      <trkpt lat="45.74655" lon="4.60999">
        <ele>723.4</ele>
        <time>2025-03-02T09:42:58Z</time>
      </trkpt>
      <trkpt lat="45.74649" lon="4.60991">
        <ele>723</ele>
        <time>2025-03-02T09:42:59Z</time>
      </trkpt>
      <trkpt lat="45.74644" lon="4.60981">
        <ele>722.8</ele>
        <time>2025-03-02T09:43:00Z</time>
      </trkpt>
      <trkpt lat="45.74639" lon="4.60972">
        <ele>722.6</ele>
        <time>2025-03-02T09:43:01Z</time>
      </trkpt>
      <trkpt lat="45.74633" lon="4.60962">
        <ele>722</ele>
        <time>2025-03-02T09:43:02Z</time>
      </trkpt>
      <trkpt lat="45.74628" lon="4.60953">
        <ele>721.8</ele>
        <time>2025-03-02T09:43:03Z</time>
      </trkpt>
      <trkpt lat="45.74623" lon="4.60943">
        <ele>721.2</ele>
        <time>2025-03-02T09:43:04Z</time>
      </trkpt>
      <trkpt lat="45.74617" lon="4.60933">
        <ele>720.6</ele>
        <time>2025-03-02T09:43:05Z</time>
      </trkpt>
      <trkpt lat="45.74612" lon="4.60922">
        <ele>719.8</ele>
        <time>2025-03-02T09:43:06Z</time>
      </trkpt>
      <trkpt lat="45.74606" lon="4.60913">
        <ele>719</ele>
        <time>2025-03-02T09:43:07Z</time>
      </trkpt>
      <trkpt lat="45.746" lon="4.60904">
        <ele>718.4</ele>
        <time>2025-03-02T09:43:08Z</time>
      </trkpt>
      <trkpt lat="45.74595" lon="4.60896">
        <ele>718</ele>
        <time>2025-03-02T09:43:09Z</time>
      </trkpt>
      <trkpt lat="45.74591" lon="4.60889">
        <ele>718</ele>
        <time>2025-03-02T09:43:10Z</time>
      </trkpt>
      <trkpt lat="45.74587" lon="4.60881">
        <ele>718</ele>
        <time>2025-03-02T09:43:11Z</time>
      </trkpt>
      <trkpt lat="45.74584" lon="4.60875">
        <ele>718</ele>
        <time>2025-03-02T09:43:12Z</time>
      </trkpt>
      <trkpt lat="45.74581" lon="4.60869">
        <ele>719</ele>
        <time>2025-03-02T09:43:13Z</time>
      </trkpt>
      <trkpt lat="45.74577" lon="4.60862">
        <ele>719.6</ele>
        <time>2025-03-02T09:43:14Z</time>
      </trkpt>
      <trkpt lat="45.74574" lon="4.60856">
        <ele>719.8</ele>
        <time>2025-03-02T09:43:15Z</time>
      </trkpt>
      <trkpt lat="45.74572" lon="4.60851">
        <ele>720.4</ele>
        <time>2025-03-02T09:43:16Z</time>
      </trkpt>
      <trkpt lat="45.74571" lon="4.60846">
        <ele>721</ele>
        <time>2025-03-02T09:43:17Z</time>
      </trkpt>
      <trkpt lat="45.74569" lon="4.60842">
        <ele>721.4</ele>
        <time>2025-03-02T09:43:18Z</time>
      </trkpt>
      <trkpt lat="45.74567" lon="4.60839">
        <ele>722.2</ele>
        <time>2025-03-02T09:43:19Z</time>
      </trkpt>
      <trkpt lat="45.74564" lon="4.60835">
        <ele>722.4</ele>
        <time>2025-03-02T09:43:20Z</time>
      </trkpt>
      <trkpt lat="45.74563" lon="4.60831">
        <ele>722.8</ele>
        <time>2025-03-02T09:43:21Z</time>
      </trkpt>
      <trkpt lat="45.74562" lon="4.60828">
        <ele>723.2</ele>
        <time>2025-03-02T09:43:22Z</time>
      </trkpt>
      <trkpt lat="45.7456" lon="4.60824">
        <ele>723.4</ele>
        <time>2025-03-02T09:43:23Z</time>
      </trkpt>
      <trkpt lat="45.74559" lon="4.6082">
        <ele>723.6</ele>
        <time>2025-03-02T09:43:24Z</time>
      </trkpt>
      <trkpt lat="45.74558" lon="4.60816">
        <ele>724</ele>
        <time>2025-03-02T09:43:25Z</time>
      </trkpt>
      <trkpt lat="45.74556" lon="4.60812">
        <ele>724.4</ele>
        <time>2025-03-02T09:43:26Z</time>
      </trkpt>
      <trkpt lat="45.74555" lon="4.60808">
        <ele>724.6</ele>
        <time>2025-03-02T09:43:27Z</time>
      </trkpt>
      <trkpt lat="45.74553" lon="4.60804">
        <ele>725</ele>
        <time>2025-03-02T09:43:28Z</time>
      </trkpt>
      <trkpt lat="45.74551" lon="4.60801">
        <ele>725.2</ele>
        <time>2025-03-02T09:43:29Z</time>
      </trkpt>
      <trkpt lat="45.7455" lon="4.60797">
        <ele>725.4</ele>
        <time>2025-03-02T09:43:30Z</time>
      </trkpt>
      <trkpt lat="45.74549" lon="4.60793">
        <ele>725.6</ele>
        <time>2025-03-02T09:43:31Z</time>
      </trkpt>
      <trkpt lat="45.74549" lon="4.6079">
        <ele>725.8</ele>
        <time>2025-03-02T09:43:32Z</time>
      </trkpt>
      <trkpt lat="45.74548" lon="4.60786">
        <ele>726.2</ele>
        <time>2025-03-02T09:43:33Z</time>
      </trkpt>
      <trkpt lat="45.74548" lon="4.60782">
        <ele>726.2</ele>
        <time>2025-03-02T09:43:34Z</time>
      </trkpt>
      <trkpt lat="45.74547" lon="4.60779">
        <ele>726.4</ele>
        <time>2025-03-02T09:43:35Z</time>
      </trkpt>
      <trkpt lat="45.74545" lon="4.60777">
        <ele>726.8</ele>
        <time>2025-03-02T09:43:36Z</time>
      </trkpt>
      <trkpt lat="45.74544" lon="4.60775">
        <ele>727</ele>
        <time>2025-03-02T09:43:37Z</time>
      </trkpt>
      <trkpt lat="45.74544" lon="4.60772">
        <ele>727.2</ele>
        <time>2025-03-02T09:43:38Z</time>
      </trkpt>
      <trkpt lat="45.74543" lon="4.6077">
        <ele>727.4</ele>
        <time>2025-03-02T09:43:39Z</time>
      </trkpt>
      <trkpt lat="45.74541" lon="4.60768">
        <ele>727.6</ele>
        <time>2025-03-02T09:43:40Z</time>
      </trkpt>
      <trkpt lat="45.7454" lon="4.60766">
        <ele>727.8</ele>
        <time>2025-03-02T09:43:41Z</time>
      </trkpt>
      <trkpt lat="45.74538" lon="4.60764">
        <ele>728</ele>
        <time>2025-03-02T09:43:42Z</time>
      </trkpt>
      <trkpt lat="45.74536" lon="4.60762">
        <ele>728.2</ele>
        <time>2025-03-02T09:43:43Z</time>
      </trkpt>
      <trkpt lat="45.74535" lon="4.6076">
        <ele>728.2</ele>
        <time>2025-03-02T09:43:44Z</time>
      </trkpt>
      <trkpt lat="45.74534" lon="4.60758">
        <ele>728.4</ele>
        <time>2025-03-02T09:43:45Z</time>
      </trkpt>
      <trkpt lat="45.74532" lon="4.60757">
        <ele>728.4</ele>
        <time>2025-03-02T09:43:46Z</time>
      </trkpt>
      <trkpt lat="45.74531" lon="4.60755">
        <ele>728.6</ele>
        <time>2025-03-02T09:43:47Z</time>
      </trkpt>
      <trkpt lat="45.74529" lon="4.60754">
        <ele>729</ele>
        <time>2025-03-02T09:43:48Z</time>
      </trkpt>
      <trkpt lat="45.74527" lon="4.60752">
        <ele>729</ele>
        <time>2025-03-02T09:43:49Z</time>
      </trkpt>
      <trkpt lat="45.74525" lon="4.6075">
        <ele>729.6</ele>
        <time>2025-03-02T09:43:50Z</time>
      </trkpt>
      <trkpt lat="45.74525" lon="4.60748">
        <ele>729.8</ele>
        <time>2025-03-02T09:43:51Z</time>
      </trkpt>
      <trkpt lat="45.74524" lon="4.60746">
        <ele>730</ele>
        <time>2025-03-02T09:43:52Z</time>
      </trkpt>
      <trkpt lat="45.74523" lon="4.60745">
        <ele>730.2</ele>
        <time>2025-03-02T09:43:53Z</time>
      </trkpt>
      <trkpt lat="45.74522" lon="4.60743">
        <ele>730.6</ele>
        <time>2025-03-02T09:43:54Z</time>
      </trkpt>
      <trkpt lat="45.74521" lon="4.60741">
        <ele>730.8</ele>
        <time>2025-03-02T09:43:55Z</time>
      </trkpt>
      <trkpt lat="45.74519" lon="4.6074">
        <ele>731</ele>
        <time>2025-03-02T09:43:56Z</time>
      </trkpt>
      <trkpt lat="45.74518" lon="4.60738">
        <ele>731.4</ele>
        <time>2025-03-02T09:43:57Z</time>
      </trkpt>
      <trkpt lat="45.74517" lon="4.60736">
        <ele>731.6</ele>
        <time>2025-03-02T09:43:58Z</time>
      </trkpt>
      <trkpt lat="45.74515" lon="4.60733">
        <ele>731.8</ele>
        <time>2025-03-02T09:43:59Z</time>
      </trkpt>
      <trkpt lat="45.74514" lon="4.60732">
        <ele>732.2</ele>
        <time>2025-03-02T09:44:00Z</time>
      </trkpt>
      <trkpt lat="45.74513" lon="4.6073">
        <ele>732.4</ele>
        <time>2025-03-02T09:44:01Z</time>
      </trkpt>
      <trkpt lat="45.74511" lon="4.60728">
        <ele>732.6</ele>
        <time>2025-03-02T09:44:02Z</time>
      </trkpt>
      <trkpt lat="45.74509" lon="4.60726">
        <ele>732.8</ele>
        <time>2025-03-02T09:44:03Z</time>
      </trkpt>
      <trkpt lat="45.74507" lon="4.60724">
        <ele>733.2</ele>
        <time>2025-03-02T09:44:04Z</time>
      </trkpt>
      <trkpt lat="45.74506" lon="4.60722">
        <ele>733.4</ele>
        <time>2025-03-02T09:44:05Z</time>
      </trkpt>
      <trkpt lat="45.74505" lon="4.6072">
        <ele>733.6</ele>
        <time>2025-03-02T09:44:06Z</time>
      </trkpt>
      <trkpt lat="45.74503" lon="4.60718">
        <ele>733.8</ele>
        <time>2025-03-02T09:44:07Z</time>
      </trkpt>
      <trkpt lat="45.74501" lon="4.60717">
        <ele>734.2</ele>
        <time>2025-03-02T09:44:08Z</time>
      </trkpt>
      <trkpt lat="45.74499" lon="4.60716">
        <ele>734.6</ele>
        <time>2025-03-02T09:44:09Z</time>
      </trkpt>
      <trkpt lat="45.74497" lon="4.60715">
        <ele>734.8</ele>
        <time>2025-03-02T09:44:10Z</time>
      </trkpt>
      <trkpt lat="45.74496" lon="4.60713">
        <ele>735</ele>
        <time>2025-03-02T09:44:11Z</time>
      </trkpt>
      <trkpt lat="45.74493" lon="4.60712">
        <ele>735.2</ele>
        <time>2025-03-02T09:44:12Z</time>
      </trkpt>
      <trkpt lat="45.74492" lon="4.6071">
        <ele>735.6</ele>
        <time>2025-03-02T09:44:13Z</time>
      </trkpt>
      <trkpt lat="45.7449" lon="4.60709">
        <ele>735.8</ele>
        <time>2025-03-02T09:44:14Z</time>
      </trkpt>
      <trkpt lat="45.74489" lon="4.60709">
        <ele>736</ele>
        <time>2025-03-02T09:44:15Z</time>
      </trkpt>
      <trkpt lat="45.74488" lon="4.60708">
        <ele>736.4</ele>
        <time>2025-03-02T09:44:16Z</time>
      </trkpt>
      <trkpt lat="45.74486" lon="4.60707">
        <ele>736.6</ele>
        <time>2025-03-02T09:44:17Z</time>
      </trkpt>
      <trkpt lat="45.74484" lon="4.60706">
        <ele>736.8</ele>
        <time>2025-03-02T09:44:18Z</time>
      </trkpt>
      <trkpt lat="45.74481" lon="4.60704">
        <ele>737</ele>
        <time>2025-03-02T09:44:19Z</time>
      </trkpt>
      <trkpt lat="45.74479" lon="4.60704">
        <ele>737.4</ele>
        <time>2025-03-02T09:44:20Z</time>
      </trkpt>
      <trkpt lat="45.74476" lon="4.60703">
        <ele>737.8</ele>
        <time>2025-03-02T09:44:21Z</time>
      </trkpt>
      <trkpt lat="45.74474" lon="4.60701">
        <ele>738.2</ele>
        <time>2025-03-02T09:44:22Z</time>
      </trkpt>
      <trkpt lat="45.74473" lon="4.607">
        <ele>738.6</ele>
        <time>2025-03-02T09:44:23Z</time>
      </trkpt>
      <trkpt lat="45.74472" lon="4.60699">
        <ele>738.8</ele>
        <time>2025-03-02T09:44:24Z</time>
      </trkpt>
      <trkpt lat="45.7447" lon="4.60699">
        <ele>739</ele>
        <time>2025-03-02T09:44:25Z</time>
      </trkpt>
      <trkpt lat="45.74466" lon="4.60698">
        <ele>739.4</ele>
        <time>2025-03-02T09:44:26Z</time>
      </trkpt>
      <trkpt lat="45.74464" lon="4.60696">
        <ele>739.8</ele>
        <time>2025-03-02T09:44:27Z</time>
      </trkpt>
      <trkpt lat="45.74463" lon="4.60695">
        <ele>740.2</ele>
        <time>2025-03-02T09:44:28Z</time>
      </trkpt>
      <trkpt lat="45.74462" lon="4.60694">
        <ele>740.4</ele>
        <time>2025-03-02T09:44:29Z</time>
      </trkpt>
      <trkpt lat="45.7446" lon="4.60693">
        <ele>740.8</ele>
        <time>2025-03-02T09:44:30Z</time>
      </trkpt>
      <trkpt lat="45.74459" lon="4.60692">
        <ele>741.2</ele>
        <time>2025-03-02T09:44:31Z</time>
      </trkpt>
      <trkpt lat="45.74458" lon="4.60692">
        <ele>741.4</ele>
        <time>2025-03-02T09:44:32Z</time>
      </trkpt>
      <trkpt lat="45.74457" lon="4.60691">
        <ele>741.6</ele>
        <time>2025-03-02T09:44:33Z</time>
      </trkpt>
      <trkpt lat="45.74456" lon="4.6069">
        <ele>742</ele>
        <time>2025-03-02T09:44:34Z</time>
      </trkpt>
      <trkpt lat="45.74455" lon="4.60689">
        <ele>742.2</ele>
        <time>2025-03-02T09:44:35Z</time>
      </trkpt>
      <trkpt lat="45.74453" lon="4.60689">
        <ele>742.6</ele>
        <time>2025-03-02T09:44:36Z</time>
      </trkpt>
      <trkpt lat="45.74452" lon="4.60688">
        <ele>743</ele>
        <time>2025-03-02T09:44:37Z</time>
      </trkpt>
      <trkpt lat="45.74451" lon="4.60687">
        <ele>743.2</ele>
        <time>2025-03-02T09:44:38Z</time>
      </trkpt>
      <trkpt lat="45.7445" lon="4.60685">
        <ele>743.6</ele>
        <time>2025-03-02T09:44:39Z</time>
      </trkpt>
      <trkpt lat="45.74448" lon="4.60684">
        <ele>743.8</ele>
        <time>2025-03-02T09:44:40Z</time>
      </trkpt>
      <trkpt lat="45.74447" lon="4.60683">
        <ele>744.2</ele>
        <time>2025-03-02T09:44:41Z</time>
      </trkpt>
      <trkpt lat="45.74446" lon="4.60682">
        <ele>744.4</ele>
        <time>2025-03-02T09:44:42Z</time>
      </trkpt>
      <trkpt lat="45.74445" lon="4.6068">
        <ele>744.6</ele>
        <time>2025-03-02T09:44:43Z</time>
      </trkpt>
      <trkpt lat="45.74444" lon="4.6068">
        <ele>744.8</ele>
        <time>2025-03-02T09:44:44Z</time>
      </trkpt>
      <trkpt lat="45.74443" lon="4.60679">
        <ele>745</ele>
        <time>2025-03-02T09:44:45Z</time>
      </trkpt>
      <trkpt lat="45.74443" lon="4.60677">
        <ele>745.4</ele>
        <time>2025-03-02T09:44:46Z</time>
      </trkpt>
      <trkpt lat="45.74441" lon="4.60676">
        <ele>745.4</ele>
        <time>2025-03-02T09:44:47Z</time>
      </trkpt>
      <trkpt lat="45.74439" lon="4.60674">
        <ele>745.8</ele>
        <time>2025-03-02T09:44:48Z</time>
      </trkpt>
      <trkpt lat="45.74436" lon="4.60674">
        <ele>746</ele>
        <time>2025-03-02T09:44:49Z</time>
      </trkpt>
      <trkpt lat="45.74433" lon="4.60672">
        <ele>746.2</ele>
        <time>2025-03-02T09:44:50Z</time>
      </trkpt>
      <trkpt lat="45.74431" lon="4.60671">
        <ele>746.6</ele>
        <time>2025-03-02T09:44:51Z</time>
      </trkpt>
      <trkpt lat="45.74429" lon="4.6067">
        <ele>746.8</ele>
        <time>2025-03-02T09:44:52Z</time>
      </trkpt>
      <trkpt lat="45.74427" lon="4.6067">
        <ele>747</ele>
        <time>2025-03-02T09:44:53Z</time>
      </trkpt>
      <trkpt lat="45.74426" lon="4.60669">
        <ele>747.2</ele>
        <time>2025-03-02T09:44:54Z</time>
      </trkpt>
      <trkpt lat="45.74425" lon="4.60667">
        <ele>747.6</ele>
        <time>2025-03-02T09:44:55Z</time>
      </trkpt>
      <trkpt lat="45.74423" lon="4.60666">
        <ele>747.8</ele>
        <time>2025-03-02T09:44:56Z</time>
      </trkpt>
      <trkpt lat="45.74422" lon="4.60665">
        <ele>748</ele>
        <time>2025-03-02T09:44:57Z</time>
      </trkpt>
      <trkpt lat="45.74419" lon="4.60665">
        <ele>748.4</ele>
        <time>2025-03-02T09:44:58Z</time>
      </trkpt>
      <trkpt lat="45.74417" lon="4.60663">
        <ele>748.6</ele>
        <time>2025-03-02T09:44:59Z</time>
      </trkpt>
      <trkpt lat="45.74414" lon="4.60661">
        <ele>748.8</ele>
        <time>2025-03-02T09:45:00Z</time>
      </trkpt>
      <trkpt lat="45.74413" lon="4.6066">
        <ele>749</ele>
        <time>2025-03-02T09:45:01Z</time>
      </trkpt>
      <trkpt lat="45.74412" lon="4.60659">
        <ele>749.4</ele>
        <time>2025-03-02T09:45:02Z</time>
      </trkpt>
      <trkpt lat="45.74409" lon="4.60656">
        <ele>749.6</ele>
        <time>2025-03-02T09:45:03Z</time>
      </trkpt>
      <trkpt lat="45.74408" lon="4.60655">
        <ele>749.8</ele>
        <time>2025-03-02T09:45:04Z</time>
      </trkpt>
      <trkpt lat="45.74406" lon="4.60653">
        <ele>750</ele>
        <time>2025-03-02T09:45:05Z</time>
      </trkpt>
      <trkpt lat="45.74404" lon="4.60652">
        <ele>750.4</ele>
        <time>2025-03-02T09:45:06Z</time>
      </trkpt>
      <trkpt lat="45.744" lon="4.60651">
        <ele>750.6</ele>
        <time>2025-03-02T09:45:07Z</time>
      </trkpt>
      <trkpt lat="45.74398" lon="4.6065">
        <ele>750.8</ele>
        <time>2025-03-02T09:45:08Z</time>
      </trkpt>
      <trkpt lat="45.74397" lon="4.60649">
        <ele>751</ele>
        <time>2025-03-02T09:45:09Z</time>
      </trkpt>
      <trkpt lat="45.74396" lon="4.60649">
        <ele>751.2</ele>
        <time>2025-03-02T09:45:10Z</time>
      </trkpt>
      <trkpt lat="45.74395" lon="4.60647">
        <ele>751.4</ele>
        <time>2025-03-02T09:45:11Z</time>
      </trkpt>
      <trkpt lat="45.74394" lon="4.60646">
        <ele>751.8</ele>
        <time>2025-03-02T09:45:12Z</time>
      </trkpt>
      <trkpt lat="45.74392" lon="4.60645">
        <ele>752.2</ele>
        <time>2025-03-02T09:45:13Z</time>
      </trkpt>
      <trkpt lat="45.74389" lon="4.60643">
        <ele>752.4</ele>
        <time>2025-03-02T09:45:14Z</time>
      </trkpt>
      <trkpt lat="45.74387" lon="4.60641">
        <ele>752.6</ele>
        <time>2025-03-02T09:45:15Z</time>
      </trkpt>
      <trkpt lat="45.74385" lon="4.60641">
        <ele>752.8</ele>
        <time>2025-03-02T09:45:16Z</time>
      </trkpt>
      <trkpt lat="45.74383" lon="4.60639">
        <ele>753.2</ele>
        <time>2025-03-02T09:45:17Z</time>
      </trkpt>
      <trkpt lat="45.74382" lon="4.60638">
        <ele>753.4</ele>
        <time>2025-03-02T09:45:18Z</time>
      </trkpt>
      <trkpt lat="45.74381" lon="4.60635">
        <ele>753.6</ele>
        <time>2025-03-02T09:45:19Z</time>
      </trkpt>
      <trkpt lat="45.7438" lon="4.60634">
        <ele>753.8</ele>
        <time>2025-03-02T09:45:20Z</time>
      </trkpt>
      <trkpt lat="45.74377" lon="4.60634">
        <ele>754</ele>
        <time>2025-03-02T09:45:21Z</time>
      </trkpt>
      <trkpt lat="45.74374" lon="4.60634">
        <ele>754.2</ele>
        <time>2025-03-02T09:45:22Z</time>
      </trkpt>
      <trkpt lat="45.7437" lon="4.60632">
        <ele>754.4</ele>
        <time>2025-03-02T09:45:23Z</time>
      </trkpt>
      <trkpt lat="45.74368" lon="4.60631">
        <ele>754.8</ele>
        <time>2025-03-02T09:45:24Z</time>
      </trkpt>
      <trkpt lat="45.74365" lon="4.60631">
        <ele>755</ele>
        <time>2025-03-02T09:45:25Z</time>
      </trkpt>
      <trkpt lat="45.74364" lon="4.6063">
        <ele>755.2</ele>
        <time>2025-03-02T09:45:26Z</time>
      </trkpt>
      <trkpt lat="45.74364" lon="4.60628">
        <ele>755.4</ele>
        <time>2025-03-02T09:45:27Z</time>
      </trkpt>
      <trkpt lat="45.74363" lon="4.60625">
        <ele>755.6</ele>
        <time>2025-03-02T09:45:28Z</time>
      </trkpt>
      <trkpt lat="45.74362" lon="4.60624">
        <ele>755.8</ele>
        <time>2025-03-02T09:45:29Z</time>
      </trkpt>
      <trkpt lat="45.74361" lon="4.60622">
        <ele>756</ele>
        <time>2025-03-02T09:45:30Z</time>
      </trkpt>
      <trkpt lat="45.7436" lon="4.60619">
        <ele>756.4</ele>
        <time>2025-03-02T09:45:31Z</time>
      </trkpt>
      <trkpt lat="45.74359" lon="4.60617">
        <ele>756.8</ele>
        <time>2025-03-02T09:45:32Z</time>
      </trkpt>
      <trkpt lat="45.74358" lon="4.60617">
        <ele>757</ele>
        <time>2025-03-02T09:45:33Z</time>
      </trkpt>
      <trkpt lat="45.74356" lon="4.60615">
        <ele>757.4</ele>
        <time>2025-03-02T09:45:34Z</time>
      </trkpt>
      <trkpt lat="45.74353" lon="4.60614">
        <ele>757.6</ele>
        <time>2025-03-02T09:45:35Z</time>
      </trkpt>
      <trkpt lat="45.74352" lon="4.60613">
        <ele>758</ele>
        <time>2025-03-02T09:45:36Z</time>
      </trkpt>
      <trkpt lat="45.74352" lon="4.60611">
        <ele>758.2</ele>
        <time>2025-03-02T09:45:37Z</time>
      </trkpt>
      <trkpt lat="45.74352" lon="4.6061">
        <ele>758.6</ele>
        <time>2025-03-02T09:45:38Z</time>
      </trkpt>
      <trkpt lat="45.74351" lon="4.60609">
        <ele>758.8</ele>
        <time>2025-03-02T09:45:39Z</time>
      </trkpt>
      <trkpt lat="45.74351" lon="4.60608">
        <ele>759.2</ele>
        <time>2025-03-02T09:45:40Z</time>
      </trkpt>
      <trkpt lat="45.74352" lon="4.60606">
        <ele>759.6</ele>
        <time>2025-03-02T09:45:41Z</time>
      </trkpt>
      <trkpt lat="45.74351" lon="4.60604">
        <ele>759.8</ele>
        <time>2025-03-02T09:45:42Z</time>
      </trkpt>
      <trkpt lat="45.7435" lon="4.60603">
        <ele>760.2</ele>
        <time>2025-03-02T09:45:43Z</time>
      </trkpt>
      <trkpt lat="45.74348" lon="4.60602">
        <ele>760.6</ele>
        <time>2025-03-02T09:45:44Z</time>
      </trkpt>
      <trkpt lat="45.74346" lon="4.60601">
        <ele>760.8</ele>
        <time>2025-03-02T09:45:45Z</time>
      </trkpt>
      <trkpt lat="45.74345" lon="4.606">
        <ele>761.2</ele>
        <time>2025-03-02T09:45:46Z</time>
      </trkpt>
      <trkpt lat="45.74343" lon="4.60598">
        <ele>761.6</ele>
        <time>2025-03-02T09:45:47Z</time>
      </trkpt>
      <trkpt lat="45.74341" lon="4.60596">
        <ele>761.8</ele>
        <time>2025-03-02T09:45:48Z</time>
      </trkpt>
      <trkpt lat="45.7434" lon="4.60594">
        <ele>762.2</ele>
        <time>2025-03-02T09:45:49Z</time>
      </trkpt>
      <trkpt lat="45.74338" lon="4.60592">
        <ele>762.4</ele>
        <time>2025-03-02T09:45:50Z</time>
      </trkpt>
      <trkpt lat="45.74336" lon="4.6059">
        <ele>762.8</ele>
        <time>2025-03-02T09:45:51Z</time>
      </trkpt>
      <trkpt lat="45.74334" lon="4.60588">
        <ele>763</ele>
        <time>2025-03-02T09:45:52Z</time>
      </trkpt>
      <trkpt lat="45.74332" lon="4.60587">
        <ele>763.2</ele>
        <time>2025-03-02T09:45:53Z</time>
      </trkpt>
      <trkpt lat="45.74331" lon="4.60586">
        <ele>763.6</ele>
        <time>2025-03-02T09:45:54Z</time>
      </trkpt>
      <trkpt lat="45.74331" lon="4.60586">
        <ele>764</ele>
        <time>2025-03-02T09:45:55Z</time>
      </trkpt>
      <trkpt lat="45.7433" lon="4.60586">
        <ele>764.4</ele>
        <time>2025-03-02T09:45:56Z</time>
      </trkpt>
      <trkpt lat="45.74328" lon="4.60586">
        <ele>764.8</ele>
        <time>2025-03-02T09:45:57Z</time>
      </trkpt>
      <trkpt lat="45.74325" lon="4.60586">
        <ele>765</ele>
        <time>2025-03-02T09:45:58Z</time>
      </trkpt>
      <trkpt lat="45.74323" lon="4.60585">
        <ele>765.2</ele>
        <time>2025-03-02T09:45:59Z</time>
      </trkpt>
      <trkpt lat="45.74321" lon="4.60585">
        <ele>765.4</ele>
        <time>2025-03-02T09:46:00Z</time>
      </trkpt>
      <trkpt lat="45.74319" lon="4.60584">
        <ele>765.8</ele>
        <time>2025-03-02T09:46:01Z</time>
      </trkpt>
      <trkpt lat="45.74318" lon="4.60585">
        <ele>766.2</ele>
        <time>2025-03-02T09:46:02Z</time>
      </trkpt>
      <trkpt lat="45.74315" lon="4.60583">
        <ele>766.4</ele>
        <time>2025-03-02T09:46:03Z</time>
      </trkpt>
      <trkpt lat="45.74313" lon="4.60583">
        <ele>766.8</ele>
        <time>2025-03-02T09:46:04Z</time>
      </trkpt>
      <trkpt lat="45.74311" lon="4.60583">
        <ele>767</ele>
        <time>2025-03-02T09:46:05Z</time>
      </trkpt>
      <trkpt lat="45.74309" lon="4.60584">
        <ele>767.2</ele>
        <time>2025-03-02T09:46:06Z</time>
      </trkpt>
      <trkpt lat="45.74308" lon="4.60584">
        <ele>767.6</ele>
        <time>2025-03-02T09:46:07Z</time>
      </trkpt>
      <trkpt lat="45.74306" lon="4.60584">
        <ele>767.8</ele>
        <time>2025-03-02T09:46:08Z</time>
      </trkpt>
      <trkpt lat="45.74304" lon="4.60583">
        <ele>768.2</ele>
        <time>2025-03-02T09:46:09Z</time>
      </trkpt>
      <trkpt lat="45.74302" lon="4.60581">
        <ele>768.6</ele>
        <time>2025-03-02T09:46:10Z</time>
      </trkpt>
      <trkpt lat="45.743" lon="4.6058">
        <ele>769</ele>
        <time>2025-03-02T09:46:11Z</time>
      </trkpt>
      <trkpt lat="45.74298" lon="4.60579">
        <ele>769.4</ele>
        <time>2025-03-02T09:46:12Z</time>
      </trkpt>
      <trkpt lat="45.74296" lon="4.60579">
        <ele>769.6</ele>
        <time>2025-03-02T09:46:13Z</time>
      </trkpt>
      <trkpt lat="45.74295" lon="4.60578">
        <ele>770</ele>
        <time>2025-03-02T09:46:14Z</time>
      </trkpt>
      <trkpt lat="45.74292" lon="4.60577">
        <ele>770.4</ele>
        <time>2025-03-02T09:46:15Z</time>
      </trkpt>
      <trkpt lat="45.74291" lon="4.60577">
        <ele>770.8</ele>
        <time>2025-03-02T09:46:16Z</time>
      </trkpt>
      <trkpt lat="45.74289" lon="4.60576">
        <ele>771</ele>
        <time>2025-03-02T09:46:17Z</time>
      </trkpt>
      <trkpt lat="45.74286" lon="4.60575">
        <ele>771.4</ele>
        <time>2025-03-02T09:46:18Z</time>
      </trkpt>
      <trkpt lat="45.74284" lon="4.60574">
        <ele>771.8</ele>
        <time>2025-03-02T09:46:19Z</time>
      </trkpt>
      <trkpt lat="45.74281" lon="4.60573">
        <ele>772.2</ele>
        <time>2025-03-02T09:46:20Z</time>
      </trkpt>
      <trkpt lat="45.74279" lon="4.60573">
        <ele>772.6</ele>
        <time>2025-03-02T09:46:21Z</time>
      </trkpt>
      <trkpt lat="45.74278" lon="4.60573">
        <ele>772.8</ele>
        <time>2025-03-02T09:46:22Z</time>
      </trkpt>
      <trkpt lat="45.74276" lon="4.60573">
        <ele>773.2</ele>
        <time>2025-03-02T09:46:23Z</time>
      </trkpt>
      <trkpt lat="45.74275" lon="4.60572">
        <ele>773.6</ele>
        <time>2025-03-02T09:46:24Z</time>
      </trkpt>
      <trkpt lat="45.74272" lon="4.6057">
        <ele>773.8</ele>
        <time>2025-03-02T09:46:25Z</time>
      </trkpt>
      <trkpt lat="45.7427" lon="4.60569">
        <ele>774.2</ele>
        <time>2025-03-02T09:46:26Z</time>
      </trkpt>
      <trkpt lat="45.74267" lon="4.60569">
        <ele>774.4</ele>
        <time>2025-03-02T09:46:27Z</time>
      </trkpt>
      <trkpt lat="45.74265" lon="4.60569">
        <ele>774.8</ele>
        <time>2025-03-02T09:46:28Z</time>
      </trkpt>
      <trkpt lat="45.74263" lon="4.60569">
        <ele>775.2</ele>
        <time>2025-03-02T09:46:29Z</time>
      </trkpt>
      <trkpt lat="45.74261" lon="4.60569">
        <ele>775.4</ele>
        <time>2025-03-02T09:46:30Z</time>
      </trkpt>
      <trkpt lat="45.7426" lon="4.60569">
        <ele>775.8</ele>
        <time>2025-03-02T09:46:31Z</time>
      </trkpt>
      <trkpt lat="45.74258" lon="4.60568">
        <ele>776.2</ele>
        <time>2025-03-02T09:46:32Z</time>
      </trkpt>
      <trkpt lat="45.74258" lon="4.60567">
        <ele>776.6</ele>
        <time>2025-03-02T09:46:33Z</time>
      </trkpt>
      <trkpt lat="45.74257" lon="4.60565">
        <ele>776.8</ele>
        <time>2025-03-02T09:46:34Z</time>
      </trkpt>
      <trkpt lat="45.74256" lon="4.60565">
        <ele>777.2</ele>
        <time>2025-03-02T09:46:35Z</time>
      </trkpt>
      <trkpt lat="45.74255" lon="4.60564">
        <ele>777.6</ele>
        <time>2025-03-02T09:46:36Z</time>
      </trkpt>
      <trkpt lat="45.74254" lon="4.60564">
        <ele>777.8</ele>
        <time>2025-03-02T09:46:37Z</time>
      </trkpt>
      <trkpt lat="45.74254" lon="4.60563">
        <ele>778.2</ele>
        <time>2025-03-02T09:46:38Z</time>
      </trkpt>
      <trkpt lat="45.74253" lon="4.60563">
        <ele>778.4</ele>
        <time>2025-03-02T09:46:39Z</time>
      </trkpt>
      <trkpt lat="45.74252" lon="4.60563">
        <ele>778.6</ele>
        <time>2025-03-02T09:46:40Z</time>
      </trkpt>
      <trkpt lat="45.7425" lon="4.60563">
        <ele>778.8</ele>
        <time>2025-03-02T09:46:41Z</time>
      </trkpt>
      <trkpt lat="45.74249" lon="4.60562">
        <ele>779.2</ele>
        <time>2025-03-02T09:46:42Z</time>
      </trkpt>
      <trkpt lat="45.74247" lon="4.60561">
        <ele>779.4</ele>
        <time>2025-03-02T09:46:43Z</time>
      </trkpt>
      <trkpt lat="45.74246" lon="4.60559">
        <ele>779.6</ele>
        <time>2025-03-02T09:46:44Z</time>
      </trkpt>
      <trkpt lat="45.74245" lon="4.60558">
        <ele>780</ele>
        <time>2025-03-02T09:46:45Z</time>
      </trkpt>
      <trkpt lat="45.74244" lon="4.60556">
        <ele>780.2</ele>
        <time>2025-03-02T09:46:46Z</time>
      </trkpt>
      <trkpt lat="45.74242" lon="4.60554">
        <ele>780.4</ele>
        <time>2025-03-02T09:46:47Z</time>
      </trkpt>
      <trkpt lat="45.74242" lon="4.60552">
        <ele>780.6</ele>
        <time>2025-03-02T09:46:48Z</time>
      </trkpt>
      <trkpt lat="45.74241" lon="4.60551">
        <ele>780.6</ele>
        <time>2025-03-02T09:46:49Z</time>
      </trkpt>
      <trkpt lat="45.7424" lon="4.60549">
        <ele>780.8</ele>
        <time>2025-03-02T09:46:50Z</time>
      </trkpt>
      <trkpt lat="45.74239" lon="4.60547">
        <ele>781</ele>
        <time>2025-03-02T09:46:51Z</time>
      </trkpt>
      <trkpt lat="45.74237" lon="4.60545">
        <ele>781.2</ele>
        <time>2025-03-02T09:46:52Z</time>
      </trkpt>
      <trkpt lat="45.74235" lon="4.60543">
        <ele>781.4</ele>
        <time>2025-03-02T09:46:53Z</time>
      </trkpt>
      <trkpt lat="45.74234" lon="4.60541">
        <ele>781.6</ele>
        <time>2025-03-02T09:46:54Z</time>
      </trkpt>
      <trkpt lat="45.74233" lon="4.60539">
        <ele>781.8</ele>
        <time>2025-03-02T09:46:55Z</time>
      </trkpt>
      <trkpt lat="45.74232" lon="4.60537">
        <ele>782</ele>
        <time>2025-03-02T09:46:56Z</time>
      </trkpt>
      <trkpt lat="45.74231" lon="4.60536">
        <ele>782.2</ele>
        <time>2025-03-02T09:46:57Z</time>
      </trkpt>
      <trkpt lat="45.74229" lon="4.60534">
        <ele>782.4</ele>
        <time>2025-03-02T09:46:58Z</time>
      </trkpt>
      <trkpt lat="45.74228" lon="4.60532">
        <ele>782.6</ele>
        <time>2025-03-02T09:46:59Z</time>
      </trkpt>
      <trkpt lat="45.74227" lon="4.6053">
        <ele>783</ele>
        <time>2025-03-02T09:47:00Z</time>
      </trkpt>
      <trkpt lat="45.74227" lon="4.60528">
        <ele>783.2</ele>
        <time>2025-03-02T09:47:01Z</time>
      </trkpt>
      <trkpt lat="45.74226" lon="4.60526">
        <ele>783.2</ele>
        <time>2025-03-02T09:47:02Z</time>
      </trkpt>
      <trkpt lat="45.74225" lon="4.60524">
        <ele>783.6</ele>
        <time>2025-03-02T09:47:03Z</time>
      </trkpt>
      <trkpt lat="45.74225" lon="4.60523">
        <ele>783.6</ele>
        <time>2025-03-02T09:47:04Z</time>
      </trkpt>
      <trkpt lat="45.74224" lon="4.60522">
        <ele>783.8</ele>
        <time>2025-03-02T09:47:05Z</time>
      </trkpt>
      <trkpt lat="45.74223" lon="4.6052">
        <ele>784</ele>
        <time>2025-03-02T09:47:06Z</time>
      </trkpt>
      <trkpt lat="45.74221" lon="4.60519">
        <ele>784.2</ele>
        <time>2025-03-02T09:47:07Z</time>
      </trkpt>
      <trkpt lat="45.7422" lon="4.60517">
        <ele>784.4</ele>
        <time>2025-03-02T09:47:08Z</time>
      </trkpt>
      <trkpt lat="45.74219" lon="4.60514">
        <ele>784.8</ele>
        <time>2025-03-02T09:47:09Z</time>
      </trkpt>
      <trkpt lat="45.74217" lon="4.60512">
        <ele>785</ele>
        <time>2025-03-02T09:47:10Z</time>
      </trkpt>
      <trkpt lat="45.74216" lon="4.6051">
        <ele>785.2</ele>
        <time>2025-03-02T09:47:11Z</time>
      </trkpt>
      <trkpt lat="45.74216" lon="4.6051">
        <ele>785.4</ele>
        <time>2025-03-02T09:47:12Z</time>
      </trkpt>
      <trkpt lat="45.74216" lon="4.60508">
        <ele>785.6</ele>
        <time>2025-03-02T09:47:13Z</time>
      </trkpt>
      <trkpt lat="45.74216" lon="4.60506">
        <ele>786</ele>
        <time>2025-03-02T09:47:14Z</time>
      </trkpt>
      <trkpt lat="45.74216" lon="4.60504">
        <ele>786.2</ele>
        <time>2025-03-02T09:47:15Z</time>
      </trkpt>
      <trkpt lat="45.74215" lon="4.60502">
        <ele>786.4</ele>
        <time>2025-03-02T09:47:16Z</time>
      </trkpt>
      <trkpt lat="45.74215" lon="4.605">
        <ele>786.6</ele>
        <time>2025-03-02T09:47:17Z</time>
      </trkpt>
      <trkpt lat="45.74214" lon="4.60498">
        <ele>786.8</ele>
        <time>2025-03-02T09:47:18Z</time>
      </trkpt>
      <trkpt lat="45.74213" lon="4.60496">
        <ele>787.2</ele>
        <time>2025-03-02T09:47:19Z</time>
      </trkpt>
      <trkpt lat="45.74212" lon="4.60494">
        <ele>787.4</ele>
        <time>2025-03-02T09:47:20Z</time>
      </trkpt>
      <trkpt lat="45.7421" lon="4.60492">
        <ele>787.8</ele>
        <time>2025-03-02T09:47:21Z</time>
      </trkpt>
      <trkpt lat="45.74209" lon="4.60491">
        <ele>788.2</ele>
        <time>2025-03-02T09:47:22Z</time>
      </trkpt>
      <trkpt lat="45.74208" lon="4.6049">
        <ele>788.4</ele>
        <time>2025-03-02T09:47:23Z</time>
      </trkpt>
      <trkpt lat="45.74208" lon="4.60488">
        <ele>788.6</ele>
        <time>2025-03-02T09:47:24Z</time>
      </trkpt>
      <trkpt lat="45.74207" lon="4.60486">
        <ele>788.8</ele>
        <time>2025-03-02T09:47:25Z</time>
      </trkpt>
      <trkpt lat="45.74205" lon="4.60484">
        <ele>789.2</ele>
        <time>2025-03-02T09:47:26Z</time>
      </trkpt>
      <trkpt lat="45.74202" lon="4.60483">
        <ele>789.4</ele>
        <time>2025-03-02T09:47:27Z</time>
      </trkpt>
      <trkpt lat="45.742" lon="4.60481">
        <ele>789.8</ele>
        <time>2025-03-02T09:47:28Z</time>
      </trkpt>
      <trkpt lat="45.74196" lon="4.60479">
        <ele>790</ele>
        <time>2025-03-02T09:47:29Z</time>
      </trkpt>
      <trkpt lat="45.74193" lon="4.60478">
        <ele>790.4</ele>
        <time>2025-03-02T09:47:30Z</time>
      </trkpt>
      <trkpt lat="45.74191" lon="4.60476">
        <ele>790.6</ele>
        <time>2025-03-02T09:47:31Z</time>
      </trkpt>
      <trkpt lat="45.74189" lon="4.60474">
        <ele>790.8</ele>
        <time>2025-03-02T09:47:32Z</time>
      </trkpt>
      <trkpt lat="45.74187" lon="4.60472">
        <ele>791.2</ele>
        <time>2025-03-02T09:47:33Z</time>
      </trkpt>
      <trkpt lat="45.74184" lon="4.6047">
        <ele>791.4</ele>
        <time>2025-03-02T09:47:34Z</time>
      </trkpt>
      <trkpt lat="45.74183" lon="4.60467">
        <ele>791.6</ele>
        <time>2025-03-02T09:47:35Z</time>
      </trkpt>
      <trkpt lat="45.74179" lon="4.60466">
        <ele>792</ele>
        <time>2025-03-02T09:47:36Z</time>
      </trkpt>
      <trkpt lat="45.74178" lon="4.60464">
        <ele>792.4</ele>
        <time>2025-03-02T09:47:37Z</time>
      </trkpt>
      <trkpt lat="45.74178" lon="4.60464">
        <ele>792.6</ele>
        <time>2025-03-02T09:47:38Z</time>
      </trkpt>
      <trkpt lat="45.74178" lon="4.60463">
        <ele>793</ele>
        <time>2025-03-02T09:47:39Z</time>
      </trkpt>
      <trkpt lat="45.74177" lon="4.60461">
        <ele>793.4</ele>
        <time>2025-03-02T09:47:40Z</time>
      </trkpt>
      <trkpt lat="45.74178" lon="4.60459">
        <ele>793.6</ele>
        <time>2025-03-02T09:47:41Z</time>
      </trkpt>
      <trkpt lat="45.74178" lon="4.60457">
        <ele>793.8</ele>
        <time>2025-03-02T09:47:42Z</time>
      </trkpt>
      <trkpt lat="45.74177" lon="4.60455">
        <ele>794.2</ele>
        <time>2025-03-02T09:47:43Z</time>
      </trkpt>
      <trkpt lat="45.74177" lon="4.60453">
        <ele>794.6</ele>
        <time>2025-03-02T09:47:44Z</time>
      </trkpt>
      <trkpt lat="45.74175" lon="4.60451">
        <ele>795</ele>
        <time>2025-03-02T09:47:45Z</time>
      </trkpt>
      <trkpt lat="45.74172" lon="4.6045">
        <ele>795.2</ele>
        <time>2025-03-02T09:47:46Z</time>
      </trkpt>
      <trkpt lat="45.74172" lon="4.60449">
        <ele>795.4</ele>
        <time>2025-03-02T09:47:47Z</time>
      </trkpt>
      <trkpt lat="45.74171" lon="4.60447">
        <ele>795.8</ele>
        <time>2025-03-02T09:47:48Z</time>
      </trkpt>
      <trkpt lat="45.7417" lon="4.60446">
        <ele>796.2</ele>
        <time>2025-03-02T09:47:49Z</time>
      </trkpt>
      <trkpt lat="45.74169" lon="4.60444">
        <ele>796.4</ele>
        <time>2025-03-02T09:47:50Z</time>
      </trkpt>
      <trkpt lat="45.74169" lon="4.60442">
        <ele>796.8</ele>
        <time>2025-03-02T09:47:51Z</time>
      </trkpt>
      <trkpt lat="45.74168" lon="4.6044">
        <ele>797</ele>
        <time>2025-03-02T09:47:52Z</time>
      </trkpt>
      <trkpt lat="45.74166" lon="4.60438">
        <ele>797.2</ele>
        <time>2025-03-02T09:47:53Z</time>
      </trkpt>
      <trkpt lat="45.74165" lon="4.60437">
        <ele>797.4</ele>
        <time>2025-03-02T09:47:54Z</time>
      </trkpt>
      <trkpt lat="45.74164" lon="4.60434">
        <ele>797.6</ele>
        <time>2025-03-02T09:47:55Z</time>
      </trkpt>
      <trkpt lat="45.74164" lon="4.60433">
        <ele>797.8</ele>
        <time>2025-03-02T09:47:56Z</time>
      </trkpt>
      <trkpt lat="45.74163" lon="4.60431">
        <ele>798.2</ele>
        <time>2025-03-02T09:47:57Z</time>
      </trkpt>
      <trkpt lat="45.74163" lon="4.6043">
        <ele>798.4</ele>
        <time>2025-03-02T09:47:58Z</time>
      </trkpt>
      <trkpt lat="45.74162" lon="4.60427">
        <ele>798.6</ele>
        <time>2025-03-02T09:47:59Z</time>
      </trkpt>
      <trkpt lat="45.74161" lon="4.60424">
        <ele>798.8</ele>
        <time>2025-03-02T09:48:00Z</time>
      </trkpt>
      <trkpt lat="45.7416" lon="4.60423">
        <ele>799.2</ele>
        <time>2025-03-02T09:48:01Z</time>
      </trkpt>
      <trkpt lat="45.74159" lon="4.60421">
        <ele>799.4</ele>
        <time>2025-03-02T09:48:02Z</time>
      </trkpt>
      <trkpt lat="45.74159" lon="4.6042">
        <ele>799.6</ele>
        <time>2025-03-02T09:48:03Z</time>
      </trkpt>
      <trkpt lat="45.74159" lon="4.60418">
        <ele>799.8</ele>
        <time>2025-03-02T09:48:04Z</time>
      </trkpt>
      <trkpt lat="45.74158" lon="4.60416">
        <ele>800</ele>
        <time>2025-03-02T09:48:05Z</time>
      </trkpt>
      <trkpt lat="45.74158" lon="4.60414">
        <ele>800.4</ele>
        <time>2025-03-02T09:48:06Z</time>
      </trkpt>
      <trkpt lat="45.74157" lon="4.60413">
        <ele>800.6</ele>
        <time>2025-03-02T09:48:07Z</time>
      </trkpt>
      <trkpt lat="45.74156" lon="4.60411">
        <ele>800.8</ele>
        <time>2025-03-02T09:48:08Z</time>
      </trkpt>
      <trkpt lat="45.74156" lon="4.6041">
        <ele>801</ele>
        <time>2025-03-02T09:48:09Z</time>
      </trkpt>
      <trkpt lat="45.74154" lon="4.60408">
        <ele>801.2</ele>
        <time>2025-03-02T09:48:10Z</time>
      </trkpt>
      <trkpt lat="45.74153" lon="4.60406">
        <ele>801.4</ele>
        <time>2025-03-02T09:48:11Z</time>
      </trkpt>
      <trkpt lat="45.74153" lon="4.60404">
        <ele>801.6</ele>
        <time>2025-03-02T09:48:12Z</time>
      </trkpt>
      <trkpt lat="45.74153" lon="4.60401">
        <ele>801.8</ele>
        <time>2025-03-02T09:48:13Z</time>
      </trkpt>
      <trkpt lat="45.74152" lon="4.60398">
        <ele>801.8</ele>
        <time>2025-03-02T09:48:14Z</time>
      </trkpt>
      <trkpt lat="45.74152" lon="4.60396">
        <ele>802.2</ele>
        <time>2025-03-02T09:48:15Z</time>
      </trkpt>
      <trkpt lat="45.74152" lon="4.60394">
        <ele>802.2</ele>
        <time>2025-03-02T09:48:16Z</time>
      </trkpt>
      <trkpt lat="45.74151" lon="4.6039">
        <ele>802.6</ele>
        <time>2025-03-02T09:48:17Z</time>
      </trkpt>
      <trkpt lat="45.74151" lon="4.60387">
        <ele>802.8</ele>
        <time>2025-03-02T09:48:18Z</time>
      </trkpt>
      <trkpt lat="45.74151" lon="4.60385">
        <ele>803</ele>
        <time>2025-03-02T09:48:19Z</time>
      </trkpt>
      <trkpt lat="45.74151" lon="4.60382">
        <ele>803.2</ele>
        <time>2025-03-02T09:48:20Z</time>
      </trkpt>
      <trkpt lat="45.74151" lon="4.6038">
        <ele>803.4</ele>
        <time>2025-03-02T09:48:21Z</time>
      </trkpt>
      <trkpt lat="45.7415" lon="4.60377">
        <ele>803.6</ele>
        <time>2025-03-02T09:48:22Z</time>
      </trkpt>
      <trkpt lat="45.7415" lon="4.60375">
        <ele>803.8</ele>
        <time>2025-03-02T09:48:23Z</time>
      </trkpt>
      <trkpt lat="45.74151" lon="4.60373">
        <ele>804</ele>
        <time>2025-03-02T09:48:24Z</time>
      </trkpt>
      <trkpt lat="45.7415" lon="4.6037">
        <ele>804.2</ele>
        <time>2025-03-02T09:48:25Z</time>
      </trkpt>
      <trkpt lat="45.7415" lon="4.60368">
        <ele>804.4</ele>
        <time>2025-03-02T09:48:26Z</time>
      </trkpt>
      <trkpt lat="45.74149" lon="4.60366">
        <ele>804.8</ele>
        <time>2025-03-02T09:48:27Z</time>
      </trkpt>
      <trkpt lat="45.74149" lon="4.60363">
        <ele>805</ele>
        <time>2025-03-02T09:48:28Z</time>
      </trkpt>
      <trkpt lat="45.74148" lon="4.60359">
        <ele>805.2</ele>
        <time>2025-03-02T09:48:29Z</time>
      </trkpt>
      <trkpt lat="45.74149" lon="4.60355">
        <ele>805.4</ele>
        <time>2025-03-02T09:48:30Z</time>
      </trkpt>
      <trkpt lat="45.74149" lon="4.60354">
        <ele>805.8</ele>
        <time>2025-03-02T09:48:31Z</time>
      </trkpt>
      <trkpt lat="45.7415" lon="4.60351">
        <ele>806</ele>
        <time>2025-03-02T09:48:32Z</time>
      </trkpt>
      <trkpt lat="45.7415" lon="4.60347">
        <ele>806.2</ele>
        <time>2025-03-02T09:48:33Z</time>
      </trkpt>
      <trkpt lat="45.7415" lon="4.60344">
        <ele>806.4</ele>
        <time>2025-03-02T09:48:34Z</time>
      </trkpt>
      <trkpt lat="45.74151" lon="4.60341">
        <ele>806.8</ele>
        <time>2025-03-02T09:48:35Z</time>
      </trkpt>
      <trkpt lat="45.74151" lon="4.60337">
        <ele>807</ele>
        <time>2025-03-02T09:48:36Z</time>
      </trkpt>
      <trkpt lat="45.74152" lon="4.60335">
        <ele>807.4</ele>
        <time>2025-03-02T09:48:37Z</time>
      </trkpt>
      <trkpt lat="45.74153" lon="4.60332">
        <ele>807.6</ele>
        <time>2025-03-02T09:48:38Z</time>
      </trkpt>
      <trkpt lat="45.74152" lon="4.6033">
        <ele>808</ele>
        <time>2025-03-02T09:48:39Z</time>
      </trkpt>
      <trkpt lat="45.74152" lon="4.60328">
        <ele>808.2</ele>
        <time>2025-03-02T09:48:40Z</time>
      </trkpt>
      <trkpt lat="45.74153" lon="4.60325">
        <ele>808.4</ele>
        <time>2025-03-02T09:48:41Z</time>
      </trkpt>
      <trkpt lat="45.74154" lon="4.60322">
        <ele>808.6</ele>
        <time>2025-03-02T09:48:42Z</time>
      </trkpt>
      <trkpt lat="45.74154" lon="4.60321">
        <ele>808.8</ele>
        <time>2025-03-02T09:48:43Z</time>
      </trkpt>
      <trkpt lat="45.74154" lon="4.60318">
        <ele>809.2</ele>
        <time>2025-03-02T09:48:44Z</time>
      </trkpt>
      <trkpt lat="45.74154" lon="4.60316">
        <ele>809.4</ele>
        <time>2025-03-02T09:48:45Z</time>
      </trkpt>
      <trkpt lat="45.74155" lon="4.60315">
        <ele>809.8</ele>
        <time>2025-03-02T09:48:46Z</time>
      </trkpt>
      <trkpt lat="45.74156" lon="4.60313">
        <ele>810</ele>
        <time>2025-03-02T09:48:47Z</time>
      </trkpt>
      <trkpt lat="45.74156" lon="4.60311">
        <ele>810.2</ele>
        <time>2025-03-02T09:48:48Z</time>
      </trkpt>
      <trkpt lat="45.74157" lon="4.60308">
        <ele>810.4</ele>
        <time>2025-03-02T09:48:49Z</time>
      </trkpt>
      <trkpt lat="45.74157" lon="4.60306">
        <ele>810.4</ele>
        <time>2025-03-02T09:48:50Z</time>
      </trkpt>
      <trkpt lat="45.74157" lon="4.60303">
        <ele>810.6</ele>
        <time>2025-03-02T09:48:51Z</time>
      </trkpt>
      <trkpt lat="45.74157" lon="4.60301">
        <ele>810.8</ele>
        <time>2025-03-02T09:48:52Z</time>
      </trkpt>
      <trkpt lat="45.74157" lon="4.60299">
        <ele>811</ele>
        <time>2025-03-02T09:48:53Z</time>
      </trkpt>
      <trkpt lat="45.74158" lon="4.60296">
        <ele>811.2</ele>
        <time>2025-03-02T09:48:54Z</time>
      </trkpt>
      <trkpt lat="45.74159" lon="4.60293">
        <ele>811.4</ele>
        <time>2025-03-02T09:48:55Z</time>
      </trkpt>
      <trkpt lat="45.74159" lon="4.60289">
        <ele>811.6</ele>
        <time>2025-03-02T09:48:56Z</time>
      </trkpt>
      <trkpt lat="45.7416" lon="4.60286">
        <ele>811.8</ele>
        <time>2025-03-02T09:48:57Z</time>
      </trkpt>
      <trkpt lat="45.7416" lon="4.60283">
        <ele>811.8</ele>
        <time>2025-03-02T09:48:58Z</time>
      </trkpt>
      <trkpt lat="45.74159" lon="4.60281">
        <ele>812</ele>
        <time>2025-03-02T09:48:59Z</time>
      </trkpt>
      <trkpt lat="45.74159" lon="4.60278">
        <ele>812.2</ele>
        <time>2025-03-02T09:49:00Z</time>
      </trkpt>
      <trkpt lat="45.74158" lon="4.60275">
        <ele>812.4</ele>
        <time>2025-03-02T09:49:01Z</time>
      </trkpt>
      <trkpt lat="45.74158" lon="4.60272">
        <ele>812.4</ele>
        <time>2025-03-02T09:49:02Z</time>
      </trkpt>
      <trkpt lat="45.74158" lon="4.60269">
        <ele>812.8</ele>
        <time>2025-03-02T09:49:03Z</time>
      </trkpt>
      <trkpt lat="45.74159" lon="4.60265">
        <ele>812.8</ele>
        <time>2025-03-02T09:49:04Z</time>
      </trkpt>
      <trkpt lat="45.74158" lon="4.60263">
        <ele>813.2</ele>
        <time>2025-03-02T09:49:05Z</time>
      </trkpt>
      <trkpt lat="45.74158" lon="4.6026">
        <ele>813.4</ele>
        <time>2025-03-02T09:49:06Z</time>
      </trkpt>
      <trkpt lat="45.74157" lon="4.60259">
        <ele>813.8</ele>
        <time>2025-03-02T09:49:07Z</time>
      </trkpt>
      <trkpt lat="45.74157" lon="4.60257">
        <ele>814</ele>
        <time>2025-03-02T09:49:08Z</time>
      </trkpt>
      <trkpt lat="45.74157" lon="4.60256">
        <ele>814.2</ele>
        <time>2025-03-02T09:49:09Z</time>
      </trkpt>
      <trkpt lat="45.74158" lon="4.60254">
        <ele>814.4</ele>
        <time>2025-03-02T09:49:10Z</time>
      </trkpt>
      <trkpt lat="45.74159" lon="4.60253">
        <ele>814.6</ele>
        <time>2025-03-02T09:49:11Z</time>
      </trkpt>
      <trkpt lat="45.74159" lon="4.60253">
        <ele>814.8</ele>
        <time>2025-03-02T09:49:12Z</time>
      </trkpt>
      <trkpt lat="45.74159" lon="4.60253">
        <ele>814.8</ele>
        <time>2025-03-02T09:49:13Z</time>
      </trkpt>
      <trkpt lat="45.74159" lon="4.60253">
        <ele>815</ele>
        <time>2025-03-02T09:49:14Z</time>
      </trkpt>
      <trkpt lat="45.74159" lon="4.60253">
        <ele>815</ele>
        <time>2025-03-02T09:49:15Z</time>
      </trkpt>
      <trkpt lat="45.74159" lon="4.60253">
        <ele>815</ele>
        <time>2025-03-02T09:49:16Z</time>
      </trkpt>
      <trkpt lat="45.74159" lon="4.60251">
        <ele>815</ele>
        <time>2025-03-02T09:49:17Z</time>
      </trkpt>
      <trkpt lat="45.7416" lon="4.6025">
        <ele>815</ele>
        <time>2025-03-02T09:49:18Z</time>
      </trkpt>
      <trkpt lat="45.74161" lon="4.6025">
        <ele>815</ele>
        <time>2025-03-02T09:49:19Z</time>
      </trkpt>
      <trkpt lat="45.74161" lon="4.6025">
        <ele>815</ele>
        <time>2025-03-02T09:49:20Z</time>
      </trkpt>
      <trkpt lat="45.74161" lon="4.6025">
        <ele>815</ele>
        <time>2025-03-02T09:49:21Z</time>
      </trkpt>
      <trkpt lat="45.74161" lon="4.6025">
        <ele>815</ele>
        <time>2025-03-02T09:49:22Z</time>
      </trkpt>
      <trkpt lat="45.74161" lon="4.6025">
        <ele>815</ele>
        <time>2025-03-02T09:49:23Z</time>
      </trkpt>
      <trkpt lat="45.74161" lon="4.6025">
        <ele>815</ele>
        <time>2025-03-02T09:49:24Z</time>
      </trkpt>
      <trkpt lat="45.74161" lon="4.6025">
        <ele>815</ele>
        <time>2025-03-02T09:49:25Z</time>
      </trkpt>
      <trkpt lat="45.74161" lon="4.6025">
        <ele>815</ele>
        <time>2025-03-02T09:49:26Z</time>
      </trkpt>
      <trkpt lat="45.74161" lon="4.6025">
        <ele>815</ele>
        <time>2025-03-02T09:49:27Z</time>
      </trkpt>
      <trkpt lat="45.74161" lon="4.6025">
        <ele>815</ele>
        <time>2025-03-02T09:49:28Z</time>
      </trkpt>
      <trkpt lat="45.74161" lon="4.6025">
        <ele>815</ele>
        <time>2025-03-02T09:49:29Z</time>
      </trkpt>
      <trkpt lat="45.74161" lon="4.6025">
        <ele>815</ele>
        <time>2025-03-02T09:49:30Z</time>
      </trkpt>
      <trkpt lat="45.74161" lon="4.6025">
        <ele>815</ele>
        <time>2025-03-02T09:49:31Z</time>
      </trkpt>
      <trkpt lat="45.74161" lon="4.6025">
        <ele>815</ele>
        <time>2025-03-02T09:49:32Z</time>
      </trkpt>
      <trkpt lat="45.74161" lon="4.6025">
        <ele>815</ele>
        <time>2025-03-02T09:49:33Z</time>
      </trkpt>
      <trkpt lat="45.74161" lon="4.6025">
        <ele>815</ele>
        <time>2025-03-02T09:49:34Z</time>
      </trkpt>
      <trkpt lat="45.74161" lon="4.6025">
        <ele>815</ele>
        <time>2025-03-02T09:49:35Z</time>
      </trkpt>
      <trkpt lat="45.74161" lon="4.6025">
        <ele>815</ele>
        <time>2025-03-02T09:49:36Z</time>
      </trkpt>
      <trkpt lat="45.74161" lon="4.6025">
        <ele>815</ele>
        <time>2025-03-02T09:49:37Z</time>
      </trkpt>
      <trkpt lat="45.74161" lon="4.6025">
        <ele>815</ele>
        <time>2025-03-02T09:49:38Z</time>
      </trkpt>
      <trkpt lat="45.74161" lon="4.6025">
        <ele>815</ele>
        <time>2025-03-02T09:49:39Z</time>
      </trkpt>
      <trkpt lat="45.74161" lon="4.6025">
        <ele>815</ele>
        <time>2025-03-02T09:49:40Z</time>
      </trkpt>
      <trkpt lat="45.74161" lon="4.6025">
        <ele>815</ele>
        <time>2025-03-02T09:49:41Z</time>
      </trkpt>
      <trkpt lat="45.74161" lon="4.6025">
        <ele>815</ele>
        <time>2025-03-02T09:49:42Z</time>
      </trkpt>
      <trkpt lat="45.74161" lon="4.6025">
        <ele>815</ele>
        <time>2025-03-02T09:49:43Z</time>
      </trkpt>
      <trkpt lat="45.74161" lon="4.6025">
        <ele>815</ele>
        <time>2025-03-02T09:49:44Z</time>
      </trkpt>
      <trkpt lat="45.74161" lon="4.6025">
        <ele>815</ele>
        <time>2025-03-02T09:49:45Z</time>
      </trkpt>
      <trkpt lat="45.74161" lon="4.6025">
        <ele>815</ele>
        <time>2025-03-02T09:49:46Z</time>
      </trkpt>
      <trkpt lat="45.74161" lon="4.6025">
        <ele>814.8</ele>
        <time>2025-03-02T09:49:47Z</time>
      </trkpt>
      <trkpt lat="45.74161" lon="4.6025">
        <ele>814.8</ele>
        <time>2025-03-02T09:49:48Z</time>
      </trkpt>
      <trkpt lat="45.74161" lon="4.6025">
        <ele>814.8</ele>
        <time>2025-03-02T09:49:49Z</time>
      </trkpt>
      <trkpt lat="45.74161" lon="4.6025">
        <ele>814.8</ele>
        <time>2025-03-02T09:49:50Z</time>
      </trkpt>
      <trkpt lat="45.74161" lon="4.6025">
        <ele>814.8</ele>
        <time>2025-03-02T09:49:51Z</time>
      </trkpt>
      <trkpt lat="45.74161" lon="4.6025">
        <ele>814.8</ele>
        <time>2025-03-02T09:49:52Z</time>
      </trkpt>
      <trkpt lat="45.74161" lon="4.6025">
        <ele>814.8</ele>
        <time>2025-03-02T09:49:53Z</time>
      </trkpt>
      <trkpt lat="45.74161" lon="4.6025">
        <ele>814.8</ele>
        <time>2025-03-02T09:49:54Z</time>
      </trkpt>
      <trkpt lat="45.74161" lon="4.6025">
        <ele>814.8</ele>
        <time>2025-03-02T09:49:55Z</time>
      </trkpt>
      <trkpt lat="45.74161" lon="4.6025">
        <ele>814.8</ele>
        <time>2025-03-02T09:49:56Z</time>
      </trkpt>
      <trkpt lat="45.74161" lon="4.6025">
        <ele>814.8</ele>
        <time>2025-03-02T09:49:57Z</time>
      </trkpt>
      <trkpt lat="45.74161" lon="4.6025">
        <ele>814.8</ele>
        <time>2025-03-02T09:49:58Z</time>
      </trkpt>
      <trkpt lat="45.74161" lon="4.6025">
        <ele>814.8</ele>
        <time>2025-03-02T09:49:59Z</time>
      </trkpt>
      <trkpt lat="45.74161" lon="4.6025">
        <ele>814.8</ele>
        <time>2025-03-02T09:50:00Z</time>
      </trkpt>
      <trkpt lat="45.74161" lon="4.6025">
        <ele>814.8</ele>
        <time>2025-03-02T09:50:01Z</time>
      </trkpt>
      <trkpt lat="45.74161" lon="4.6025">
        <ele>815.2</ele>
        <time>2025-03-02T09:50:02Z</time>
      </trkpt>
      <trkpt lat="45.74161" lon="4.6025">
        <ele>815.2</ele>
        <time>2025-03-02T09:50:03Z</time>
      </trkpt>
      <trkpt lat="45.74161" lon="4.6025">
        <ele>815.2</ele>
        <time>2025-03-02T09:50:04Z</time>
      </trkpt>
      <trkpt lat="45.74161" lon="4.6025">
        <ele>815.2</ele>
        <time>2025-03-02T09:50:05Z</time>
      </trkpt>
      <trkpt lat="45.74161" lon="4.6025">
        <ele>815.2</ele>
        <time>2025-03-02T09:50:06Z</time>
      </trkpt>
      <trkpt lat="45.74161" lon="4.6025">
        <ele>815</ele>
        <time>2025-03-02T09:50:07Z</time>
      </trkpt>
      <trkpt lat="45.74161" lon="4.6025">
        <ele>814.8</ele>
        <time>2025-03-02T09:50:08Z</time>
      </trkpt>
      <trkpt lat="45.74161" lon="4.6025">
        <ele>814.8</ele>
        <time>2025-03-02T09:50:09Z</time>
      </trkpt>
      <trkpt lat="45.74161" lon="4.6025">
        <ele>814.8</ele>
        <time>2025-03-02T09:50:10Z</time>
      </trkpt>
      <trkpt lat="45.74161" lon="4.6025">
        <ele>814.8</ele>
        <time>2025-03-02T09:50:11Z</time>
      </trkpt>
      <trkpt lat="45.74161" lon="4.6025">
        <ele>814.8</ele>
        <time>2025-03-02T09:50:12Z</time>
      </trkpt>
      <trkpt lat="45.74161" lon="4.6025">
        <ele>814.8</ele>
        <time>2025-03-02T09:50:13Z</time>
      </trkpt>
      <trkpt lat="45.74161" lon="4.6025">
        <ele>814.8</ele>
        <time>2025-03-02T09:50:14Z</time>
      </trkpt>
      <trkpt lat="45.74161" lon="4.6025">
        <ele>814.8</ele>
        <time>2025-03-02T09:50:15Z</time>
      </trkpt>
      <trkpt lat="45.74161" lon="4.6025">
        <ele>814.8</ele>
        <time>2025-03-02T09:50:16Z</time>
      </trkpt>
      <trkpt lat="45.74161" lon="4.6025">
        <ele>814.8</ele>
        <time>2025-03-02T09:50:17Z</time>
      </trkpt>
      <trkpt lat="45.74161" lon="4.6025">
        <ele>814.8</ele>
        <time>2025-03-02T09:50:18Z</time>
      </trkpt>
      <trkpt lat="45.74161" lon="4.6025">
        <ele>814.8</ele>
        <time>2025-03-02T09:50:19Z</time>
      </trkpt>
      <trkpt lat="45.74161" lon="4.6025">
        <ele>814.8</ele>
        <time>2025-03-02T09:50:20Z</time>
      </trkpt>
      <trkpt lat="45.74161" lon="4.6025">
        <ele>814.8</ele>
        <time>2025-03-02T09:50:21Z</time>
      </trkpt>
      <trkpt lat="45.74161" lon="4.6025">
        <ele>814.8</ele>
        <time>2025-03-02T09:50:22Z</time>
      </trkpt>
      <trkpt lat="45.74161" lon="4.6025">
        <ele>814.8</ele>
        <time>2025-03-02T09:50:23Z</time>
      </trkpt>
      <trkpt lat="45.74161" lon="4.6025">
        <ele>814.8</ele>
        <time>2025-03-02T09:50:24Z</time>
      </trkpt>
      <trkpt lat="45.74161" lon="4.6025">
        <ele>814.8</ele>
        <time>2025-03-02T09:50:25Z</time>
      </trkpt>
      <trkpt lat="45.74161" lon="4.6025">
        <ele>814.8</ele>
        <time>2025-03-02T09:50:26Z</time>
      </trkpt>
      <trkpt lat="45.74161" lon="4.6025">
        <ele>814.8</ele>
        <time>2025-03-02T09:50:27Z</time>
      </trkpt>
      <trkpt lat="45.74161" lon="4.6025">
        <ele>814.8</ele>
        <time>2025-03-02T09:50:28Z</time>
      </trkpt>
      <trkpt lat="45.74161" lon="4.6025">
        <ele>814.8</ele>
        <time>2025-03-02T09:50:29Z</time>
      </trkpt>
      <trkpt lat="45.74161" lon="4.6025">
        <ele>814.8</ele>
        <time>2025-03-02T09:50:30Z</time>
      </trkpt>
      <trkpt lat="45.74161" lon="4.6025">
        <ele>814.8</ele>
        <time>2025-03-02T09:50:31Z</time>
      </trkpt>
      <trkpt lat="45.74161" lon="4.6025">
        <ele>814.8</ele>
        <time>2025-03-02T09:50:32Z</time>
      </trkpt>
      <trkpt lat="45.74161" lon="4.6025">
        <ele>814.8</ele>
        <time>2025-03-02T09:50:33Z</time>
      </trkpt>
      <trkpt lat="45.74161" lon="4.6025">
        <ele>814.8</ele>
        <time>2025-03-02T09:50:34Z</time>
      </trkpt>
      <trkpt lat="45.74161" lon="4.6025">
        <ele>814.8</ele>
        <time>2025-03-02T09:50:35Z</time>
      </trkpt>
      <trkpt lat="45.74161" lon="4.6025">
        <ele>814.8</ele>
        <time>2025-03-02T09:50:36Z</time>
      </trkpt>
      <trkpt lat="45.74161" lon="4.6025">
        <ele>814.8</ele>
        <time>2025-03-02T09:50:37Z</time>
      </trkpt>
      <trkpt lat="45.74161" lon="4.6025">
        <ele>814.8</ele>
        <time>2025-03-02T09:50:38Z</time>
      </trkpt>
      <trkpt lat="45.74161" lon="4.6025">
        <ele>814.8</ele>
        <time>2025-03-02T09:50:39Z</time>
      </trkpt>
      <trkpt lat="45.74161" lon="4.6025">
        <ele>814.8</ele>
        <time>2025-03-02T09:50:40Z</time>
      </trkpt>
      <trkpt lat="45.74161" lon="4.6025">
        <ele>814.8</ele>
        <time>2025-03-02T09:50:41Z</time>
      </trkpt>
      <trkpt lat="45.74161" lon="4.6025">
        <ele>814.8</ele>
        <time>2025-03-02T09:50:42Z</time>
      </trkpt>
      <trkpt lat="45.74161" lon="4.6025">
        <ele>814.8</ele>
        <time>2025-03-02T09:50:43Z</time>
      </trkpt>
      <trkpt lat="45.74161" lon="4.6025">
        <ele>814.8</ele>
        <time>2025-03-02T09:50:44Z</time>
      </trkpt>
      <trkpt lat="45.74161" lon="4.6025">
        <ele>814.8</ele>
        <time>2025-03-02T09:50:45Z</time>
      </trkpt>
      <trkpt lat="45.74161" lon="4.6025">
        <ele>814.8</ele>
        <time>2025-03-02T09:50:46Z</time>
      </trkpt>
      <trkpt lat="45.74161" lon="4.6025">
        <ele>814.8</ele>
        <time>2025-03-02T09:50:47Z</time>
      </trkpt>
      <trkpt lat="45.74161" lon="4.6025">
        <ele>814.8</ele>
        <time>2025-03-02T09:50:48Z</time>
      </trkpt>
      <trkpt lat="45.74161" lon="4.6025">
        <ele>814.8</ele>
        <time>2025-03-02T09:50:49Z</time>
      </trkpt>
      <trkpt lat="45.74161" lon="4.6025">
        <ele>814.8</ele>
        <time>2025-03-02T09:50:50Z</time>
      </trkpt>
      <trkpt lat="45.74161" lon="4.6025">
        <ele>814.8</ele>
        <time>2025-03-02T09:50:51Z</time>
      </trkpt>
      <trkpt lat="45.74161" lon="4.6025">
        <ele>814.8</ele>
        <time>2025-03-02T09:50:52Z</time>
      </trkpt>
      <trkpt lat="45.74161" lon="4.6025">
        <ele>814.8</ele>
        <time>2025-03-02T09:50:53Z</time>
      </trkpt>
      <trkpt lat="45.74161" lon="4.6025">
        <ele>814.8</ele>
        <time>2025-03-02T09:50:54Z</time>
      </trkpt>
      <trkpt lat="45.74161" lon="4.6025">
        <ele>814.8</ele>
        <time>2025-03-02T09:50:55Z</time>
      </trkpt>
      <trkpt lat="45.74161" lon="4.6025">
        <ele>814.8</ele>
        <time>2025-03-02T09:50:56Z</time>
      </trkpt>
      <trkpt lat="45.74161" lon="4.6025">
        <ele>814.8</ele>
        <time>2025-03-02T09:50:57Z</time>
      </trkpt>
      <trkpt lat="45.74161" lon="4.60249">
        <ele>814.8</ele>
        <time>2025-03-02T09:50:58Z</time>
      </trkpt>
      <trkpt lat="45.7416" lon="4.6025">
        <ele>814.8</ele>
        <time>2025-03-02T09:50:59Z</time>
      </trkpt>
      <trkpt lat="45.7416" lon="4.6025">
        <ele>814.8</ele>
        <time>2025-03-02T09:51:00Z</time>
      </trkpt>
      <trkpt lat="45.7416" lon="4.6025">
        <ele>814.8</ele>
        <time>2025-03-02T09:51:01Z</time>
      </trkpt>
      <trkpt lat="45.7416" lon="4.6025">
        <ele>814.8</ele>
        <time>2025-03-02T09:51:02Z</time>
      </trkpt>
      <trkpt lat="45.74159" lon="4.60251">
        <ele>814.8</ele>
        <time>2025-03-02T09:51:03Z</time>
      </trkpt>
      <trkpt lat="45.74158" lon="4.60252">
        <ele>814.8</ele>
        <time>2025-03-02T09:51:04Z</time>
      </trkpt>
      <trkpt lat="45.74157" lon="4.60255">
        <ele>815.2</ele>
        <time>2025-03-02T09:51:05Z</time>
      </trkpt>
      <trkpt lat="45.74156" lon="4.60258">
        <ele>815.2</ele>
        <time>2025-03-02T09:51:06Z</time>
      </trkpt>
      <trkpt lat="45.74155" lon="4.60261">
        <ele>815.2</ele>
        <time>2025-03-02T09:51:07Z</time>
      </trkpt>
      <trkpt lat="45.74153" lon="4.60263">
        <ele>815.2</ele>
        <time>2025-03-02T09:51:08Z</time>
      </trkpt>
      <trkpt lat="45.74151" lon="4.60265">
        <ele>815.2</ele>
        <time>2025-03-02T09:51:09Z</time>
      </trkpt>
      <trkpt lat="45.74149" lon="4.60267">
        <ele>815.2</ele>
        <time>2025-03-02T09:51:10Z</time>
      </trkpt>
      <trkpt lat="45.74148" lon="4.60269">
        <ele>815.2</ele>
        <time>2025-03-02T09:51:11Z</time>
      </trkpt>
      <trkpt lat="45.74147" lon="4.60271">
        <ele>815.6</ele>
        <time>2025-03-02T09:51:12Z</time>
      </trkpt>
      <trkpt lat="45.74145" lon="4.60273">
        <ele>816</ele>
        <time>2025-03-02T09:51:13Z</time>
      </trkpt>
      <trkpt lat="45.74144" lon="4.60275">
        <ele>816.2</ele>
        <time>2025-03-02T09:51:14Z</time>
      </trkpt>
      <trkpt lat="45.74142" lon="4.60277">
        <ele>816.6</ele>
        <time>2025-03-02T09:51:15Z</time>
      </trkpt>
      <trkpt lat="45.74141" lon="4.60278">
        <ele>817</ele>
        <time>2025-03-02T09:51:16Z</time>
      </trkpt>
      <trkpt lat="45.74139" lon="4.6028">
        <ele>817.4</ele>
        <time>2025-03-02T09:51:17Z</time>
      </trkpt>
      <trkpt lat="45.74137" lon="4.60281">
        <ele>817.8</ele>
        <time>2025-03-02T09:51:18Z</time>
      </trkpt>
      <trkpt lat="45.74136" lon="4.60281">
        <ele>818.2</ele>
        <time>2025-03-02T09:51:19Z</time>
      </trkpt>
      <trkpt lat="45.74136" lon="4.60281">
        <ele>818.6</ele>
        <time>2025-03-02T09:51:20Z</time>
      </trkpt>
      <trkpt lat="45.74136" lon="4.60281">
        <ele>819</ele>
        <time>2025-03-02T09:51:21Z</time>
      </trkpt>
      <trkpt lat="45.74136" lon="4.60281">
        <ele>819.2</ele>
        <time>2025-03-02T09:51:22Z</time>
      </trkpt>
      <trkpt lat="45.74136" lon="4.60281">
        <ele>819.4</ele>
        <time>2025-03-02T09:51:23Z</time>
      </trkpt>
      <trkpt lat="45.74136" lon="4.60281">
        <ele>819.4</ele>
        <time>2025-03-02T09:51:24Z</time>
      </trkpt>
      <trkpt lat="45.74136" lon="4.60281">
        <ele>819.4</ele>
        <time>2025-03-02T09:51:25Z</time>
      </trkpt>
      <trkpt lat="45.74136" lon="4.60281">
        <ele>819.4</ele>
        <time>2025-03-02T09:51:26Z</time>
      </trkpt>
      <trkpt lat="45.74136" lon="4.60281">
        <ele>819.4</ele>
        <time>2025-03-02T09:51:27Z</time>
      </trkpt>
      <trkpt lat="45.74136" lon="4.60281">
        <ele>819.4</ele>
        <time>2025-03-02T09:51:28Z</time>
      </trkpt>
      <trkpt lat="45.74136" lon="4.60281">
        <ele>819.4</ele>
        <time>2025-03-02T09:51:29Z</time>
      </trkpt>
      <trkpt lat="45.74136" lon="4.60281">
        <ele>819.4</ele>
        <time>2025-03-02T09:51:30Z</time>
      </trkpt>
      <trkpt lat="45.74136" lon="4.60282">
        <ele>819.4</ele>
        <time>2025-03-02T09:51:31Z</time>
      </trkpt>
      <trkpt lat="45.74135" lon="4.60284">
        <ele>819.4</ele>
        <time>2025-03-02T09:51:32Z</time>
      </trkpt>
      <trkpt lat="45.74135" lon="4.60286">
        <ele>819.4</ele>
        <time>2025-03-02T09:51:33Z</time>
      </trkpt>
      <trkpt lat="45.74133" lon="4.60287">
        <ele>819.4</ele>
        <time>2025-03-02T09:51:34Z</time>
      </trkpt>
      <trkpt lat="45.74132" lon="4.60289">
        <ele>819.4</ele>
        <time>2025-03-02T09:51:35Z</time>
      </trkpt>
      <trkpt lat="45.7413" lon="4.60291">
        <ele>819.4</ele>
        <time>2025-03-02T09:51:36Z</time>
      </trkpt>
      <trkpt lat="45.74128" lon="4.60293">
        <ele>819.4</ele>
        <time>2025-03-02T09:51:37Z</time>
      </trkpt>
      <trkpt lat="45.74125" lon="4.60295">
        <ele>819.6</ele>
        <time>2025-03-02T09:51:38Z</time>
      </trkpt>
      <trkpt lat="45.74123" lon="4.60296">
        <ele>820</ele>
        <time>2025-03-02T09:51:39Z</time>
      </trkpt>
      <trkpt lat="45.74121" lon="4.60299">
        <ele>820.2</ele>
        <time>2025-03-02T09:51:40Z</time>
      </trkpt>
      <trkpt lat="45.74118" lon="4.60302">
        <ele>820.4</ele>
        <time>2025-03-02T09:51:41Z</time>
      </trkpt>
      <trkpt lat="45.74115" lon="4.60305">
        <ele>820.8</ele>
        <time>2025-03-02T09:51:42Z</time>
      </trkpt>
      <trkpt lat="45.74111" lon="4.60308">
        <ele>821</ele>
        <time>2025-03-02T09:51:43Z</time>
      </trkpt>
      <trkpt lat="45.74107" lon="4.60311">
        <ele>821.4</ele>
        <time>2025-03-02T09:51:44Z</time>
      </trkpt>
      <trkpt lat="45.74104" lon="4.60314">
        <ele>821.8</ele>
        <time>2025-03-02T09:51:45Z</time>
      </trkpt>
      <trkpt lat="45.741" lon="4.60317">
        <ele>822</ele>
        <time>2025-03-02T09:51:46Z</time>
      </trkpt>
      <trkpt lat="45.74098" lon="4.60319">
        <ele>822.4</ele>
        <time>2025-03-02T09:51:47Z</time>
      </trkpt>
      <trkpt lat="45.74095" lon="4.60321">
        <ele>822.6</ele>
        <time>2025-03-02T09:51:48Z</time>
      </trkpt>
      <trkpt lat="45.74093" lon="4.60323">
        <ele>823</ele>
        <time>2025-03-02T09:51:49Z</time>
      </trkpt>
      <trkpt lat="45.7409" lon="4.60325">
        <ele>823.2</ele>
        <time>2025-03-02T09:51:50Z</time>
      </trkpt>
      <trkpt lat="45.74087" lon="4.60328">
        <ele>823.4</ele>
        <time>2025-03-02T09:51:51Z</time>
      </trkpt>
      <trkpt lat="45.74084" lon="4.6033">
        <ele>823.8</ele>
        <time>2025-03-02T09:51:52Z</time>
      </trkpt>
      <trkpt lat="45.74081" lon="4.60333">
        <ele>824</ele>
        <time>2025-03-02T09:51:53Z</time>
      </trkpt>
      <trkpt lat="45.74079" lon="4.60335">
        <ele>824.4</ele>
        <time>2025-03-02T09:51:54Z</time>
      </trkpt>
      <trkpt lat="45.74076" lon="4.60337">
        <ele>824.8</ele>
        <time>2025-03-02T09:51:55Z</time>
      </trkpt>
      <trkpt lat="45.74074" lon="4.60339">
        <ele>825.2</ele>
        <time>2025-03-02T09:51:56Z</time>
      </trkpt>
      <trkpt lat="45.7407" lon="4.60341">
        <ele>825.6</ele>
        <time>2025-03-02T09:51:57Z</time>
      </trkpt>
      <trkpt lat="45.74068" lon="4.60344">
        <ele>826</ele>
        <time>2025-03-02T09:51:58Z</time>
      </trkpt>
      <trkpt lat="45.74066" lon="4.60346">
        <ele>826.2</ele>
        <time>2025-03-02T09:51:59Z</time>
      </trkpt>
      <trkpt lat="45.74063" lon="4.60349">
        <ele>826.6</ele>
        <time>2025-03-02T09:52:00Z</time>
      </trkpt>
      <trkpt lat="45.74059" lon="4.60351">
        <ele>826.8</ele>
        <time>2025-03-02T09:52:01Z</time>
      </trkpt>
      <trkpt lat="45.74056" lon="4.60352">
        <ele>827.2</ele>
        <time>2025-03-02T09:52:02Z</time>
      </trkpt>
      <trkpt lat="45.74053" lon="4.60353">
        <ele>827.4</ele>
        <time>2025-03-02T09:52:03Z</time>
      </trkpt>
      <trkpt lat="45.74051" lon="4.60356">
        <ele>828</ele>
        <time>2025-03-02T09:52:04Z</time>
      </trkpt>
      <trkpt lat="45.74048" lon="4.60358">
        <ele>828.4</ele>
        <time>2025-03-02T09:52:05Z</time>
      </trkpt>
      <trkpt lat="45.74043" lon="4.60361">
        <ele>828.8</ele>
        <time>2025-03-02T09:52:06Z</time>
      </trkpt>
      <trkpt lat="45.74039" lon="4.60363">
        <ele>829</ele>
        <time>2025-03-02T09:52:07Z</time>
      </trkpt>
      <trkpt lat="45.74035" lon="4.60365">
        <ele>829.4</ele>
        <time>2025-03-02T09:52:08Z</time>
      </trkpt>
      <trkpt lat="45.74032" lon="4.60365">
        <ele>829.6</ele>
        <time>2025-03-02T09:52:09Z</time>
      </trkpt>
      <trkpt lat="45.74029" lon="4.60364">
        <ele>830</ele>
        <time>2025-03-02T09:52:10Z</time>
      </trkpt>
      <trkpt lat="45.74026" lon="4.60362">
        <ele>830.4</ele>
        <time>2025-03-02T09:52:11Z</time>
      </trkpt>
      <trkpt lat="45.74022" lon="4.60361">
        <ele>830.6</ele>
        <time>2025-03-02T09:52:12Z</time>
      </trkpt>
      <trkpt lat="45.74018" lon="4.60361">
        <ele>831</ele>
        <time>2025-03-02T09:52:13Z</time>
      </trkpt>
      <trkpt lat="45.74015" lon="4.6036">
        <ele>831.2</ele>
        <time>2025-03-02T09:52:14Z</time>
      </trkpt>
      <trkpt lat="45.74013" lon="4.60358">
        <ele>831.4</ele>
        <time>2025-03-02T09:52:15Z</time>
      </trkpt>
      <trkpt lat="45.7401" lon="4.60355">
        <ele>831.8</ele>
        <time>2025-03-02T09:52:16Z</time>
      </trkpt>
      <trkpt lat="45.74009" lon="4.60353">
        <ele>832</ele>
        <time>2025-03-02T09:52:17Z</time>
      </trkpt>
      <trkpt lat="45.74007" lon="4.60351">
        <ele>832.2</ele>
        <time>2025-03-02T09:52:18Z</time>
      </trkpt>
      <trkpt lat="45.74005" lon="4.60348">
        <ele>832.2</ele>
        <time>2025-03-02T09:52:19Z</time>
      </trkpt>
      <trkpt lat="45.74002" lon="4.60346">
        <ele>832.4</ele>
        <time>2025-03-02T09:52:20Z</time>
      </trkpt>
      <trkpt lat="45.73998" lon="4.60343">
        <ele>832.4</ele>
        <time>2025-03-02T09:52:21Z</time>
      </trkpt>
      <trkpt lat="45.73994" lon="4.60341">
        <ele>832.6</ele>
        <time>2025-03-02T09:52:22Z</time>
      </trkpt>
      <trkpt lat="45.73991" lon="4.60338">
        <ele>832.6</ele>
        <time>2025-03-02T09:52:23Z</time>
      </trkpt>
      <trkpt lat="45.73988" lon="4.60334">
        <ele>832.6</ele>
        <time>2025-03-02T09:52:24Z</time>
      </trkpt>
      <trkpt lat="45.73985" lon="4.60332">
        <ele>832.6</ele>
        <time>2025-03-02T09:52:25Z</time>
      </trkpt>
      <trkpt lat="45.73982" lon="4.60329">
        <ele>832.6</ele>
        <time>2025-03-02T09:52:26Z</time>
      </trkpt>
      <trkpt lat="45.73978" lon="4.60327">
        <ele>832.6</ele>
        <time>2025-03-02T09:52:27Z</time>
      </trkpt>
      <trkpt lat="45.73975" lon="4.60326">
        <ele>832.6</ele>
        <time>2025-03-02T09:52:28Z</time>
      </trkpt>
      <trkpt lat="45.73971" lon="4.60323">
        <ele>832.4</ele>
        <time>2025-03-02T09:52:29Z</time>
      </trkpt>
      <trkpt lat="45.73969" lon="4.60321">
        <ele>832.4</ele>
        <time>2025-03-02T09:52:30Z</time>
      </trkpt>
      <trkpt lat="45.73965" lon="4.60318">
        <ele>832.4</ele>
        <time>2025-03-02T09:52:31Z</time>
      </trkpt>
      <trkpt lat="45.73959" lon="4.60316">
        <ele>832.2</ele>
        <time>2025-03-02T09:52:32Z</time>
      </trkpt>
      <trkpt lat="45.73954" lon="4.60314">
        <ele>832</ele>
        <time>2025-03-02T09:52:33Z</time>
      </trkpt>
      <trkpt lat="45.73948" lon="4.60311">
        <ele>831.8</ele>
        <time>2025-03-02T09:52:34Z</time>
      </trkpt>
      <trkpt lat="45.73942" lon="4.60308">
        <ele>831.6</ele>
        <time>2025-03-02T09:52:35Z</time>
      </trkpt>
      <trkpt lat="45.73936" lon="4.60306">
        <ele>831.2</ele>
        <time>2025-03-02T09:52:36Z</time>
      </trkpt>
      <trkpt lat="45.73931" lon="4.60303">
        <ele>831</ele>
        <time>2025-03-02T09:52:37Z</time>
      </trkpt>
      <trkpt lat="45.73924" lon="4.603">
        <ele>830.8</ele>
        <time>2025-03-02T09:52:38Z</time>
      </trkpt>
      <trkpt lat="45.73919" lon="4.60298">
        <ele>830.6</ele>
        <time>2025-03-02T09:52:39Z</time>
      </trkpt>
      <trkpt lat="45.73914" lon="4.60295">
        <ele>830.4</ele>
        <time>2025-03-02T09:52:40Z</time>
      </trkpt>
      <trkpt lat="45.7391" lon="4.60292">
        <ele>830.4</ele>
        <time>2025-03-02T09:52:41Z</time>
      </trkpt>
      <trkpt lat="45.73906" lon="4.60289">
        <ele>830.4</ele>
        <time>2025-03-02T09:52:42Z</time>
      </trkpt>
      <trkpt lat="45.73903" lon="4.60287">
        <ele>830.4</ele>
        <time>2025-03-02T09:52:43Z</time>
      </trkpt>
      <trkpt lat="45.73898" lon="4.60285">
        <ele>830.4</ele>
        <time>2025-03-02T09:52:44Z</time>
      </trkpt>
      <trkpt lat="45.73894" lon="4.60282">
        <ele>830.4</ele>
        <time>2025-03-02T09:52:45Z</time>
      </trkpt>
      <trkpt lat="45.7389" lon="4.60279">
        <ele>830.4</ele>
        <time>2025-03-02T09:52:46Z</time>
      </trkpt>
      <trkpt lat="45.73886" lon="4.60276">
        <ele>830.4</ele>
        <time>2025-03-02T09:52:47Z</time>
      </trkpt>
      <trkpt lat="45.73882" lon="4.60272">
        <ele>830.2</ele>
        <time>2025-03-02T09:52:48Z</time>
      </trkpt>
      <trkpt lat="45.73878" lon="4.60268">
        <ele>830.2</ele>
        <time>2025-03-02T09:52:49Z</time>
      </trkpt>
      <trkpt lat="45.73874" lon="4.60265">
        <ele>830</ele>
        <time>2025-03-02T09:52:50Z</time>
      </trkpt>
      <trkpt lat="45.7387" lon="4.60262">
        <ele>829.8</ele>
        <time>2025-03-02T09:52:51Z</time>
      </trkpt>
      <trkpt lat="45.73866" lon="4.60259">
        <ele>829.8</ele>
        <time>2025-03-02T09:52:52Z</time>
      </trkpt>
      <trkpt lat="45.73862" lon="4.60256">
        <ele>829.4</ele>
        <time>2025-03-02T09:52:53Z</time>
      </trkpt>
      <trkpt lat="45.73858" lon="4.60252">
        <ele>829</ele>
        <time>2025-03-02T09:52:54Z</time>
      </trkpt>
      <trkpt lat="45.73853" lon="4.60249">
        <ele>828.4</ele>
        <time>2025-03-02T09:52:55Z</time>
      </trkpt>
      <trkpt lat="45.73848" lon="4.60245">
        <ele>827.8</ele>
        <time>2025-03-02T09:52:56Z</time>
      </trkpt>
      <trkpt lat="45.73842" lon="4.60242">
        <ele>827.2</ele>
        <time>2025-03-02T09:52:57Z</time>
      </trkpt>
      <trkpt lat="45.73836" lon="4.6024">
        <ele>825.8</ele>
        <time>2025-03-02T09:52:58Z</time>
      </trkpt>
      <trkpt lat="45.73829" lon="4.60238">
        <ele>825.2</ele>
        <time>2025-03-02T09:52:59Z</time>
      </trkpt>
      <trkpt lat="45.73823" lon="4.60235">
        <ele>824.6</ele>
        <time>2025-03-02T09:53:00Z</time>
      </trkpt>
      <trkpt lat="45.73819" lon="4.60231">
        <ele>824.4</ele>
        <time>2025-03-02T09:53:01Z</time>
      </trkpt>
      <trkpt lat="45.73816" lon="4.60227">
        <ele>824.4</ele>
        <time>2025-03-02T09:53:02Z</time>
      </trkpt>
      <trkpt lat="45.73814" lon="4.60225">
        <ele>824.4</ele>
        <time>2025-03-02T09:53:03Z</time>
      </trkpt>
      <trkpt lat="45.73813" lon="4.60224">
        <ele>824.4</ele>
        <time>2025-03-02T09:53:04Z</time>
      </trkpt>
      <trkpt lat="45.73813" lon="4.60224">
        <ele>824.6</ele>
        <time>2025-03-02T09:53:05Z</time>
      </trkpt>
      <trkpt lat="45.73813" lon="4.60224">
        <ele>824.8</ele>
        <time>2025-03-02T09:53:06Z</time>
      </trkpt>
      <trkpt lat="45.73813" lon="4.60224">
        <ele>825.4</ele>
        <time>2025-03-02T09:53:07Z</time>
      </trkpt>
      <trkpt lat="45.73813" lon="4.60224">
        <ele>825.4</ele>
        <time>2025-03-02T09:53:08Z</time>
      </trkpt>
      <trkpt lat="45.73813" lon="4.60224">
        <ele>825.6</ele>
        <time>2025-03-02T09:53:09Z</time>
      </trkpt>
      <trkpt lat="45.73813" lon="4.60224">
        <ele>825.6</ele>
        <time>2025-03-02T09:53:10Z</time>
      </trkpt>
      <trkpt lat="45.73813" lon="4.60224">
        <ele>825.6</ele>
        <time>2025-03-02T09:53:11Z</time>
      </trkpt>
      <trkpt lat="45.73813" lon="4.60224">
        <ele>825.6</ele>
        <time>2025-03-02T09:53:12Z</time>
      </trkpt>
      <trkpt lat="45.73813" lon="4.60224">
        <ele>825.6</ele>
        <time>2025-03-02T09:53:13Z</time>
      </trkpt>
      <trkpt lat="45.73813" lon="4.60224">
        <ele>825.8</ele>
        <time>2025-03-02T09:53:14Z</time>
      </trkpt>
      <trkpt lat="45.73813" lon="4.60224">
        <ele>825.6</ele>
        <time>2025-03-02T09:53:15Z</time>
      </trkpt>
      <trkpt lat="45.73813" lon="4.60224">
        <ele>825.6</ele>
        <time>2025-03-02T09:53:16Z</time>
      </trkpt>
      <trkpt lat="45.73813" lon="4.60224">
        <ele>825.8</ele>
        <time>2025-03-02T09:53:17Z</time>
      </trkpt>
      <trkpt lat="45.73813" lon="4.60224">
        <ele>825.8</ele>
        <time>2025-03-02T09:53:18Z</time>
      </trkpt>
      <trkpt lat="45.73813" lon="4.60224">
        <ele>825.6</ele>
        <time>2025-03-02T09:53:19Z</time>
      </trkpt>
      <trkpt lat="45.73813" lon="4.60224">
        <ele>825.6</ele>
        <time>2025-03-02T09:53:20Z</time>
      </trkpt>
      <trkpt lat="45.73813" lon="4.60224">
        <ele>825.6</ele>
        <time>2025-03-02T09:53:21Z</time>
      </trkpt>
      <trkpt lat="45.73813" lon="4.60224">
        <ele>825.6</ele>
        <time>2025-03-02T09:53:22Z</time>
      </trkpt>
      <trkpt lat="45.73813" lon="4.60224">
        <ele>825.6</ele>
        <time>2025-03-02T09:53:23Z</time>
      </trkpt>
      <trkpt lat="45.73813" lon="4.60224">
        <ele>825.6</ele>
        <time>2025-03-02T09:53:24Z</time>
      </trkpt>
      <trkpt lat="45.73813" lon="4.60224">
        <ele>825.6</ele>
        <time>2025-03-02T09:53:25Z</time>
      </trkpt>
      <trkpt lat="45.73813" lon="4.60224">
        <ele>825.6</ele>
        <time>2025-03-02T09:53:26Z</time>
      </trkpt>
      <trkpt lat="45.73813" lon="4.60224">
        <ele>825.6</ele>
        <time>2025-03-02T09:53:27Z</time>
      </trkpt>
      <trkpt lat="45.73813" lon="4.60224">
        <ele>825.6</ele>
        <time>2025-03-02T09:53:28Z</time>
      </trkpt>
      <trkpt lat="45.73813" lon="4.60224">
        <ele>825.6</ele>
        <time>2025-03-02T09:53:29Z</time>
      </trkpt>
      <trkpt lat="45.73813" lon="4.60224">
        <ele>825.6</ele>
        <time>2025-03-02T09:53:30Z</time>
      </trkpt>
      <trkpt lat="45.73813" lon="4.60224">
        <ele>825.6</ele>
        <time>2025-03-02T09:53:31Z</time>
      </trkpt>
      <trkpt lat="45.73813" lon="4.60224">
        <ele>825.6</ele>
        <time>2025-03-02T09:53:32Z</time>
      </trkpt>
      <trkpt lat="45.73813" lon="4.60224">
        <ele>825.6</ele>
        <time>2025-03-02T09:53:33Z</time>
      </trkpt>
      <trkpt lat="45.73813" lon="4.60224">
        <ele>825.6</ele>
        <time>2025-03-02T09:53:34Z</time>
      </trkpt>
      <trkpt lat="45.73813" lon="4.60224">
        <ele>825.6</ele>
        <time>2025-03-02T09:53:35Z</time>
      </trkpt>
      <trkpt lat="45.73813" lon="4.60224">
        <ele>825.6</ele>
        <time>2025-03-02T09:53:36Z</time>
      </trkpt>
      <trkpt lat="45.73813" lon="4.60224">
        <ele>825.6</ele>
        <time>2025-03-02T09:53:37Z</time>
      </trkpt>
      <trkpt lat="45.73812" lon="4.60224">
        <ele>825.6</ele>
        <time>2025-03-02T09:53:38Z</time>
      </trkpt>
      <trkpt lat="45.7381" lon="4.60223">
        <ele>825.6</ele>
        <time>2025-03-02T09:53:39Z</time>
      </trkpt>
      <trkpt lat="45.73807" lon="4.60222">
        <ele>825.6</ele>
        <time>2025-03-02T09:53:40Z</time>
      </trkpt>
      <trkpt lat="45.73804" lon="4.6022">
        <ele>825.4</ele>
        <time>2025-03-02T09:53:41Z</time>
      </trkpt>
      <trkpt lat="45.73801" lon="4.60217">
        <ele>825.2</ele>
        <time>2025-03-02T09:53:42Z</time>
      </trkpt>
      <trkpt lat="45.73797" lon="4.60214">
        <ele>825.2</ele>
        <time>2025-03-02T09:53:43Z</time>
      </trkpt>
      <trkpt lat="45.73794" lon="4.6021">
        <ele>825</ele>
        <time>2025-03-02T09:53:44Z</time>
      </trkpt>
      <trkpt lat="45.7379" lon="4.60206">
        <ele>824.6</ele>
        <time>2025-03-02T09:53:45Z</time>
      </trkpt>
      <trkpt lat="45.73786" lon="4.60202">
        <ele>824.4</ele>
        <time>2025-03-02T09:53:46Z</time>
      </trkpt>
      <trkpt lat="45.73782" lon="4.60197">
        <ele>824.2</ele>
        <time>2025-03-02T09:53:47Z</time>
      </trkpt>
      <trkpt lat="45.73779" lon="4.60193">
        <ele>824</ele>
        <time>2025-03-02T09:53:48Z</time>
      </trkpt>
      <trkpt lat="45.73775" lon="4.60189">
        <ele>823.8</ele>
        <time>2025-03-02T09:53:49Z</time>
      </trkpt>
      <trkpt lat="45.73772" lon="4.60185">
        <ele>823.8</ele>
        <time>2025-03-02T09:53:50Z</time>
      </trkpt>
      <trkpt lat="45.73768" lon="4.60182">
        <ele>823.8</ele>
        <time>2025-03-02T09:53:51Z</time>
      </trkpt>
      <trkpt lat="45.73765" lon="4.60178">
        <ele>823.8</ele>
        <time>2025-03-02T09:53:52Z</time>
      </trkpt>
      <trkpt lat="45.73762" lon="4.60174">
        <ele>823.8</ele>
        <time>2025-03-02T09:53:53Z</time>
      </trkpt>
      <trkpt lat="45.73759" lon="4.60169">
        <ele>823.6</ele>
        <time>2025-03-02T09:53:54Z</time>
      </trkpt>
      <trkpt lat="45.73756" lon="4.60165">
        <ele>823.8</ele>
        <time>2025-03-02T09:53:55Z</time>
      </trkpt>
      <trkpt lat="45.73752" lon="4.60161">
        <ele>823.8</ele>
        <time>2025-03-02T09:53:56Z</time>
      </trkpt>
      <trkpt lat="45.73749" lon="4.60157">
        <ele>823.8</ele>
        <time>2025-03-02T09:53:57Z</time>
      </trkpt>
      <trkpt lat="45.73746" lon="4.60153">
        <ele>823.8</ele>
        <time>2025-03-02T09:53:58Z</time>
      </trkpt>
      <trkpt lat="45.73743" lon="4.60149">
        <ele>823.8</ele>
        <time>2025-03-02T09:53:59Z</time>
      </trkpt>
      <trkpt lat="45.73739" lon="4.60146">
        <ele>823.8</ele>
        <time>2025-03-02T09:54:00Z</time>
      </trkpt>
      <trkpt lat="45.73736" lon="4.60142">
        <ele>823.8</ele>
        <time>2025-03-02T09:54:01Z</time>
      </trkpt>
      <trkpt lat="45.73733" lon="4.60138">
        <ele>824</ele>
        <time>2025-03-02T09:54:02Z</time>
      </trkpt>
      <trkpt lat="45.7373" lon="4.60134">
        <ele>824</ele>
        <time>2025-03-02T09:54:03Z</time>
      </trkpt>
      <trkpt lat="45.73727" lon="4.6013">
        <ele>824.2</ele>
        <time>2025-03-02T09:54:04Z</time>
      </trkpt>
      <trkpt lat="45.73724" lon="4.60126">
        <ele>824.2</ele>
        <time>2025-03-02T09:54:05Z</time>
      </trkpt>
      <trkpt lat="45.7372" lon="4.60122">
        <ele>824.2</ele>
        <time>2025-03-02T09:54:06Z</time>
      </trkpt>
      <trkpt lat="45.73717" lon="4.60118">
        <ele>824.2</ele>
        <time>2025-03-02T09:54:07Z</time>
      </trkpt>
      <trkpt lat="45.73714" lon="4.60115">
        <ele>824.2</ele>
        <time>2025-03-02T09:54:08Z</time>
      </trkpt>
      <trkpt lat="45.73711" lon="4.60111">
        <ele>824.2</ele>
        <time>2025-03-02T09:54:09Z</time>
      </trkpt>
      <trkpt lat="45.73708" lon="4.60108">
        <ele>824.4</ele>
        <time>2025-03-02T09:54:10Z</time>
      </trkpt>
      <trkpt lat="45.73705" lon="4.60105">
        <ele>824.4</ele>
        <time>2025-03-02T09:54:11Z</time>
      </trkpt>
      <trkpt lat="45.73702" lon="4.60103">
        <ele>824.4</ele>
        <time>2025-03-02T09:54:12Z</time>
      </trkpt>
      <trkpt lat="45.73699" lon="4.601">
        <ele>824.4</ele>
        <time>2025-03-02T09:54:13Z</time>
      </trkpt>
      <trkpt lat="45.73696" lon="4.60097">
        <ele>824.6</ele>
        <time>2025-03-02T09:54:14Z</time>
      </trkpt>
      <trkpt lat="45.73693" lon="4.60094">
        <ele>824.8</ele>
        <time>2025-03-02T09:54:15Z</time>
      </trkpt>
      <trkpt lat="45.7369" lon="4.60091">
        <ele>824.8</ele>
        <time>2025-03-02T09:54:16Z</time>
      </trkpt>
      <trkpt lat="45.73688" lon="4.60088">
        <ele>824.8</ele>
        <time>2025-03-02T09:54:17Z</time>
      </trkpt>
      <trkpt lat="45.73686" lon="4.60085">
        <ele>824.8</ele>
        <time>2025-03-02T09:54:18Z</time>
      </trkpt>
      <trkpt lat="45.73684" lon="4.60083">
        <ele>824.8</ele>
        <time>2025-03-02T09:54:19Z</time>
      </trkpt>
      <trkpt lat="45.73682" lon="4.6008">
        <ele>825</ele>
        <time>2025-03-02T09:54:20Z</time>
      </trkpt>
      <trkpt lat="45.73679" lon="4.60077">
        <ele>825</ele>
        <time>2025-03-02T09:54:21Z</time>
      </trkpt>
      <trkpt lat="45.73676" lon="4.60073">
        <ele>824.8</ele>
        <time>2025-03-02T09:54:22Z</time>
      </trkpt>
      <trkpt lat="45.73673" lon="4.60069">
        <ele>824.8</ele>
        <time>2025-03-02T09:54:23Z</time>
      </trkpt>
      <trkpt lat="45.73668" lon="4.60063">
        <ele>824.2</ele>
        <time>2025-03-02T09:54:24Z</time>
      </trkpt>
      <trkpt lat="45.73664" lon="4.60058">
        <ele>824</ele>
        <time>2025-03-02T09:54:25Z</time>
      </trkpt>
      <trkpt lat="45.73661" lon="4.60054">
        <ele>822.6</ele>
        <time>2025-03-02T09:54:26Z</time>
      </trkpt>
      <trkpt lat="45.73659" lon="4.60049">
        <ele>822.2</ele>
        <time>2025-03-02T09:54:27Z</time>
      </trkpt>
      <trkpt lat="45.73656" lon="4.60044">
        <ele>821.6</ele>
        <time>2025-03-02T09:54:28Z</time>
      </trkpt>
      <trkpt lat="45.73653" lon="4.60039">
        <ele>821.6</ele>
        <time>2025-03-02T09:54:29Z</time>
      </trkpt>
      <trkpt lat="45.73651" lon="4.60035">
        <ele>820.8</ele>
        <time>2025-03-02T09:54:30Z</time>
      </trkpt>
      <trkpt lat="45.73649" lon="4.60031">
        <ele>820.6</ele>
        <time>2025-03-02T09:54:31Z</time>
      </trkpt>
      <trkpt lat="45.73647" lon="4.60028">
        <ele>820.2</ele>
        <time>2025-03-02T09:54:32Z</time>
      </trkpt>
      <trkpt lat="45.73644" lon="4.60024">
        <ele>819.8</ele>
        <time>2025-03-02T09:54:33Z</time>
      </trkpt>
      <trkpt lat="45.73642" lon="4.60021">
        <ele>819.8</ele>
        <time>2025-03-02T09:54:34Z</time>
      </trkpt>
      <trkpt lat="45.7364" lon="4.60018">
        <ele>819.4</ele>
        <time>2025-03-02T09:54:35Z</time>
      </trkpt>
      <trkpt lat="45.73638" lon="4.60014">
        <ele>819</ele>
        <time>2025-03-02T09:54:36Z</time>
      </trkpt>
      <trkpt lat="45.73636" lon="4.6001">
        <ele>818.4</ele>
        <time>2025-03-02T09:54:37Z</time>
      </trkpt>
      <trkpt lat="45.73634" lon="4.60005">
        <ele>817.8</ele>
        <time>2025-03-02T09:54:38Z</time>
      </trkpt>
      <trkpt lat="45.73633" lon="4.6">
        <ele>817.2</ele>
        <time>2025-03-02T09:54:39Z</time>
      </trkpt>
      <trkpt lat="45.73632" lon="4.59996">
        <ele>816.8</ele>
        <time>2025-03-02T09:54:40Z</time>
      </trkpt>
      <trkpt lat="45.7363" lon="4.59991">
        <ele>815.6</ele>
        <time>2025-03-02T09:54:41Z</time>
      </trkpt>
      <trkpt lat="45.73629" lon="4.59985">
        <ele>814.8</ele>
        <time>2025-03-02T09:54:42Z</time>
      </trkpt>
      <trkpt lat="45.73627" lon="4.5998">
        <ele>814.2</ele>
        <time>2025-03-02T09:54:43Z</time>
      </trkpt>
      <trkpt lat="45.73625" lon="4.59974">
        <ele>813.4</ele>
        <time>2025-03-02T09:54:44Z</time>
      </trkpt>
      <trkpt lat="45.73624" lon="4.59969">
        <ele>812.6</ele>
        <time>2025-03-02T09:54:45Z</time>
      </trkpt>
      <trkpt lat="45.73623" lon="4.59965">
        <ele>811.8</ele>
        <time>2025-03-02T09:54:46Z</time>
      </trkpt>
      <trkpt lat="45.73621" lon="4.59961">
        <ele>810.8</ele>
        <time>2025-03-02T09:54:47Z</time>
      </trkpt>
      <trkpt lat="45.7362" lon="4.59957">
        <ele>810.4</ele>
        <time>2025-03-02T09:54:48Z</time>
      </trkpt>
      <trkpt lat="45.7362" lon="4.59953">
        <ele>809.6</ele>
        <time>2025-03-02T09:54:49Z</time>
      </trkpt>
      <trkpt lat="45.73619" lon="4.5995">
        <ele>809</ele>
        <time>2025-03-02T09:54:50Z</time>
      </trkpt>
      <trkpt lat="45.73618" lon="4.59948">
        <ele>808.4</ele>
        <time>2025-03-02T09:54:51Z</time>
      </trkpt>
      <trkpt lat="45.73617" lon="4.59946">
        <ele>808</ele>
        <time>2025-03-02T09:54:52Z</time>
      </trkpt>
      <trkpt lat="45.73616" lon="4.59942">
        <ele>807.8</ele>
        <time>2025-03-02T09:54:53Z</time>
      </trkpt>
      <trkpt lat="45.73615" lon="4.5994">
        <ele>807</ele>
        <time>2025-03-02T09:54:54Z</time>
      </trkpt>
      <trkpt lat="45.73613" lon="4.59936">
        <ele>806.6</ele>
        <time>2025-03-02T09:54:55Z</time>
      </trkpt>
      <trkpt lat="45.73612" lon="4.59931">
        <ele>806</ele>
        <time>2025-03-02T09:54:56Z</time>
      </trkpt>
      <trkpt lat="45.7361" lon="4.59927">
        <ele>805.6</ele>
        <time>2025-03-02T09:54:57Z</time>
      </trkpt>
      <trkpt lat="45.73608" lon="4.59922">
        <ele>804.4</ele>
        <time>2025-03-02T09:54:58Z</time>
      </trkpt>
      <trkpt lat="45.73607" lon="4.59917">
        <ele>803</ele>
        <time>2025-03-02T09:54:59Z</time>
      </trkpt>
      <trkpt lat="45.73607" lon="4.59913">
        <ele>802</ele>
        <time>2025-03-02T09:55:00Z</time>
      </trkpt>
      <trkpt lat="45.73607" lon="4.5991">
        <ele>801.8</ele>
        <time>2025-03-02T09:55:01Z</time>
      </trkpt>
      <trkpt lat="45.73606" lon="4.59906">
        <ele>801.4</ele>
        <time>2025-03-02T09:55:02Z</time>
      </trkpt>
      <trkpt lat="45.73605" lon="4.59903">
        <ele>800.8</ele>
        <time>2025-03-02T09:55:03Z</time>
      </trkpt>
      <trkpt lat="45.73603" lon="4.59901">
        <ele>800.4</ele>
        <time>2025-03-02T09:55:04Z</time>
      </trkpt>
      <trkpt lat="45.73601" lon="4.59898">
        <ele>800</ele>
        <time>2025-03-02T09:55:05Z</time>
      </trkpt>
      <trkpt lat="45.73598" lon="4.59895">
        <ele>799.4</ele>
        <time>2025-03-02T09:55:06Z</time>
      </trkpt>
      <trkpt lat="45.73595" lon="4.5989">
        <ele>799</ele>
        <time>2025-03-02T09:55:07Z</time>
      </trkpt>
      <trkpt lat="45.73593" lon="4.59884">
        <ele>798.4</ele>
        <time>2025-03-02T09:55:08Z</time>
      </trkpt>
      <trkpt lat="45.73592" lon="4.59878">
        <ele>797.8</ele>
        <time>2025-03-02T09:55:09Z</time>
      </trkpt>
      <trkpt lat="45.73589" lon="4.59873">
        <ele>797</ele>
        <time>2025-03-02T09:55:10Z</time>
      </trkpt>
      <trkpt lat="45.73585" lon="4.59867">
        <ele>796.2</ele>
        <time>2025-03-02T09:55:11Z</time>
      </trkpt>
      <trkpt lat="45.73584" lon="4.59861">
        <ele>795.2</ele>
        <time>2025-03-02T09:55:12Z</time>
      </trkpt>
      <trkpt lat="45.73584" lon="4.59855">
        <ele>794.4</ele>
        <time>2025-03-02T09:55:13Z</time>
      </trkpt>
      <trkpt lat="45.73583" lon="4.59851">
        <ele>793.8</ele>
        <time>2025-03-02T09:55:14Z</time>
      </trkpt>
      <trkpt lat="45.7358" lon="4.59846">
        <ele>793.4</ele>
        <time>2025-03-02T09:55:15Z</time>
      </trkpt>
      <trkpt lat="45.73576" lon="4.59841">
        <ele>792.8</ele>
        <time>2025-03-02T09:55:16Z</time>
      </trkpt>
      <trkpt lat="45.73573" lon="4.59835">
        <ele>792</ele>
        <time>2025-03-02T09:55:17Z</time>
      </trkpt>
      <trkpt lat="45.7357" lon="4.59829">
        <ele>791.8</ele>
        <time>2025-03-02T09:55:18Z</time>
      </trkpt>
      <trkpt lat="45.73568" lon="4.59824">
        <ele>791.2</ele>
        <time>2025-03-02T09:55:19Z</time>
      </trkpt>
      <trkpt lat="45.73566" lon="4.5982">
        <ele>790.4</ele>
        <time>2025-03-02T09:55:20Z</time>
      </trkpt>
      <trkpt lat="45.73565" lon="4.59816">
        <ele>789.8</ele>
        <time>2025-03-02T09:55:21Z</time>
      </trkpt>
      <trkpt lat="45.73563" lon="4.59811">
        <ele>789.4</ele>
        <time>2025-03-02T09:55:22Z</time>
      </trkpt>
      <trkpt lat="45.73561" lon="4.59804">
        <ele>788.8</ele>
        <time>2025-03-02T09:55:23Z</time>
      </trkpt>
      <trkpt lat="45.73558" lon="4.598">
        <ele>788</ele>
        <time>2025-03-02T09:55:24Z</time>
      </trkpt>
      <trkpt lat="45.73557" lon="4.59799">
        <ele>787.4</ele>
        <time>2025-03-02T09:55:25Z</time>
      </trkpt>
      <trkpt lat="45.73556" lon="4.59797">
        <ele>786.6</ele>
        <time>2025-03-02T09:55:26Z</time>
      </trkpt>
      <trkpt lat="45.73555" lon="4.59793">
        <ele>786.2</ele>
        <time>2025-03-02T09:55:27Z</time>
      </trkpt>
      <trkpt lat="45.73551" lon="4.59789">
        <ele>785.8</ele>
        <time>2025-03-02T09:55:28Z</time>
      </trkpt>
      <trkpt lat="45.73548" lon="4.59786">
        <ele>785.2</ele>
        <time>2025-03-02T09:55:29Z</time>
      </trkpt>
      <trkpt lat="45.73547" lon="4.59782">
        <ele>784.4</ele>
        <time>2025-03-02T09:55:30Z</time>
      </trkpt>
      <trkpt lat="45.73545" lon="4.59778">
        <ele>784</ele>
        <time>2025-03-02T09:55:31Z</time>
      </trkpt>
      <trkpt lat="45.73544" lon="4.59775">
        <ele>783</ele>
        <time>2025-03-02T09:55:32Z</time>
      </trkpt>
      <trkpt lat="45.73543" lon="4.59772">
        <ele>782.6</ele>
        <time>2025-03-02T09:55:33Z</time>
      </trkpt>
      <trkpt lat="45.73542" lon="4.5977">
        <ele>782.2</ele>
        <time>2025-03-02T09:55:34Z</time>
      </trkpt>
      <trkpt lat="45.73541" lon="4.59767">
        <ele>781.8</ele>
        <time>2025-03-02T09:55:35Z</time>
      </trkpt>
      <trkpt lat="45.7354" lon="4.59765">
        <ele>781.4</ele>
        <time>2025-03-02T09:55:36Z</time>
      </trkpt>
      <trkpt lat="45.7354" lon="4.59762">
        <ele>781.2</ele>
        <time>2025-03-02T09:55:37Z</time>
      </trkpt>
      <trkpt lat="45.73539" lon="4.59761">
        <ele>780.6</ele>
        <time>2025-03-02T09:55:38Z</time>
      </trkpt>
      <trkpt lat="45.73537" lon="4.59758">
        <ele>780.4</ele>
        <time>2025-03-02T09:55:39Z</time>
      </trkpt>
      <trkpt lat="45.73536" lon="4.59755">
        <ele>780.2</ele>
        <time>2025-03-02T09:55:40Z</time>
      </trkpt>
      <trkpt lat="45.73534" lon="4.59753">
        <ele>779.6</ele>
        <time>2025-03-02T09:55:41Z</time>
      </trkpt>
      <trkpt lat="45.73532" lon="4.59752">
        <ele>779.4</ele>
        <time>2025-03-02T09:55:42Z</time>
      </trkpt>
      <trkpt lat="45.7353" lon="4.59749">
        <ele>779.2</ele>
        <time>2025-03-02T09:55:43Z</time>
      </trkpt>
      <trkpt lat="45.73529" lon="4.59746">
        <ele>778.8</ele>
        <time>2025-03-02T09:55:44Z</time>
      </trkpt>
      <trkpt lat="45.73526" lon="4.59742">
        <ele>778.4</ele>
        <time>2025-03-02T09:55:45Z</time>
      </trkpt>
      <trkpt lat="45.73524" lon="4.59738">
        <ele>777.6</ele>
        <time>2025-03-02T09:55:46Z</time>
      </trkpt>
      <trkpt lat="45.73521" lon="4.59735">
        <ele>776.8</ele>
        <time>2025-03-02T09:55:47Z</time>
      </trkpt>
      <trkpt lat="45.7352" lon="4.59731">
        <ele>776</ele>
        <time>2025-03-02T09:55:48Z</time>
      </trkpt>
      <trkpt lat="45.73518" lon="4.59726">
        <ele>775.4</ele>
        <time>2025-03-02T09:55:49Z</time>
      </trkpt>
      <trkpt lat="45.73515" lon="4.59722">
        <ele>774.4</ele>
        <time>2025-03-02T09:55:50Z</time>
      </trkpt>
      <trkpt lat="45.73513" lon="4.5972">
        <ele>774</ele>
        <time>2025-03-02T09:55:51Z</time>
      </trkpt>
      <trkpt lat="45.73512" lon="4.59717">
        <ele>773.2</ele>
        <time>2025-03-02T09:55:52Z</time>
      </trkpt>
      <trkpt lat="45.73511" lon="4.59716">
        <ele>772.8</ele>
        <time>2025-03-02T09:55:53Z</time>
      </trkpt>
      <trkpt lat="45.73509" lon="4.59713">
        <ele>772.8</ele>
        <time>2025-03-02T09:55:54Z</time>
      </trkpt>
      <trkpt lat="45.73508" lon="4.59707">
        <ele>772.4</ele>
        <time>2025-03-02T09:55:55Z</time>
      </trkpt>
      <trkpt lat="45.73507" lon="4.597">
        <ele>772</ele>
        <time>2025-03-02T09:55:56Z</time>
      </trkpt>
      <trkpt lat="45.73505" lon="4.59692">
        <ele>771.2</ele>
        <time>2025-03-02T09:55:57Z</time>
      </trkpt>
      <trkpt lat="45.73503" lon="4.59685">
        <ele>770.8</ele>
        <time>2025-03-02T09:55:58Z</time>
      </trkpt>
      <trkpt lat="45.73501" lon="4.59677">
        <ele>770.2</ele>
        <time>2025-03-02T09:55:59Z</time>
      </trkpt>
      <trkpt lat="45.73499" lon="4.59669">
        <ele>769.6</ele>
        <time>2025-03-02T09:56:00Z</time>
      </trkpt>
      <trkpt lat="45.73495" lon="4.5966">
        <ele>769</ele>
        <time>2025-03-02T09:56:01Z</time>
      </trkpt>
      <trkpt lat="45.73492" lon="4.59649">
        <ele>768</ele>
        <time>2025-03-02T09:56:02Z</time>
      </trkpt>
      <trkpt lat="45.73489" lon="4.59639">
        <ele>767.4</ele>
        <time>2025-03-02T09:56:03Z</time>
      </trkpt>
      <trkpt lat="45.73486" lon="4.5963">
        <ele>766.6</ele>
        <time>2025-03-02T09:56:04Z</time>
      </trkpt>
      <trkpt lat="45.73484" lon="4.59621">
        <ele>766</ele>
        <time>2025-03-02T09:56:05Z</time>
      </trkpt>
      <trkpt lat="45.73481" lon="4.59613">
        <ele>765.6</ele>
        <time>2025-03-02T09:56:06Z</time>
      </trkpt>
      <trkpt lat="45.73479" lon="4.59606">
        <ele>765.4</ele>
        <time>2025-03-02T09:56:07Z</time>
      </trkpt>
      <trkpt lat="45.73477" lon="4.59599">
        <ele>765.4</ele>
        <time>2025-03-02T09:56:08Z</time>
      </trkpt>
      <trkpt lat="45.73476" lon="4.59592">
        <ele>765.4</ele>
        <time>2025-03-02T09:56:09Z</time>
      </trkpt>
      <trkpt lat="45.73473" lon="4.59586">
        <ele>765.4</ele>
        <time>2025-03-02T09:56:10Z</time>
      </trkpt>
      <trkpt lat="45.73471" lon="4.59579">
        <ele>765.4</ele>
        <time>2025-03-02T09:56:11Z</time>
      </trkpt>
      <trkpt lat="45.73469" lon="4.59572">
        <ele>765.4</ele>
        <time>2025-03-02T09:56:12Z</time>
      </trkpt>
      <trkpt lat="45.73466" lon="4.59565">
        <ele>765.4</ele>
        <time>2025-03-02T09:56:13Z</time>
      </trkpt>
      <trkpt lat="45.73465" lon="4.59558">
        <ele>765.4</ele>
        <time>2025-03-02T09:56:14Z</time>
      </trkpt>
      <trkpt lat="45.73463" lon="4.5955">
        <ele>765.2</ele>
        <time>2025-03-02T09:56:15Z</time>
      </trkpt>
      <trkpt lat="45.73461" lon="4.59543">
        <ele>765</ele>
        <time>2025-03-02T09:56:16Z</time>
      </trkpt>
      <trkpt lat="45.73458" lon="4.59536">
        <ele>765</ele>
        <time>2025-03-02T09:56:17Z</time>
      </trkpt>
      <trkpt lat="45.73456" lon="4.5953">
        <ele>765</ele>
        <time>2025-03-02T09:56:18Z</time>
      </trkpt>
      <trkpt lat="45.73454" lon="4.59525">
        <ele>765.2</ele>
        <time>2025-03-02T09:56:19Z</time>
      </trkpt>
      <trkpt lat="45.73453" lon="4.59519">
        <ele>765.2</ele>
        <time>2025-03-02T09:56:20Z</time>
      </trkpt>
      <trkpt lat="45.73451" lon="4.59514">
        <ele>765.6</ele>
        <time>2025-03-02T09:56:21Z</time>
      </trkpt>
      <trkpt lat="45.7345" lon="4.59508">
        <ele>765.8</ele>
        <time>2025-03-02T09:56:22Z</time>
      </trkpt>
      <trkpt lat="45.73448" lon="4.59502">
        <ele>766</ele>
        <time>2025-03-02T09:56:23Z</time>
      </trkpt>
      <trkpt lat="45.73446" lon="4.59496">
        <ele>766.2</ele>
        <time>2025-03-02T09:56:24Z</time>
      </trkpt>
      <trkpt lat="45.73444" lon="4.59491">
        <ele>766.4</ele>
        <time>2025-03-02T09:56:25Z</time>
      </trkpt>
      <trkpt lat="45.73442" lon="4.59485">
        <ele>766.4</ele>
        <time>2025-03-02T09:56:26Z</time>
      </trkpt>
      <trkpt lat="45.73439" lon="4.59478">
        <ele>766.4</ele>
        <time>2025-03-02T09:56:27Z</time>
      </trkpt>
      <trkpt lat="45.73437" lon="4.59472">
        <ele>766.4</ele>
        <time>2025-03-02T09:56:28Z</time>
      </trkpt>
      <trkpt lat="45.73435" lon="4.59466">
        <ele>766.2</ele>
        <time>2025-03-02T09:56:29Z</time>
      </trkpt>
      <trkpt lat="45.73432" lon="4.5946">
        <ele>766.2</ele>
        <time>2025-03-02T09:56:30Z</time>
      </trkpt>
      <trkpt lat="45.7343" lon="4.59455">
        <ele>766</ele>
        <time>2025-03-02T09:56:31Z</time>
      </trkpt>
      <trkpt lat="45.73427" lon="4.5945">
        <ele>766</ele>
        <time>2025-03-02T09:56:32Z</time>
      </trkpt>
      <trkpt lat="45.73425" lon="4.59445">
        <ele>766</ele>
        <time>2025-03-02T09:56:33Z</time>
      </trkpt>
      <trkpt lat="45.73423" lon="4.59439">
        <ele>766</ele>
        <time>2025-03-02T09:56:34Z</time>
      </trkpt>
      <trkpt lat="45.7342" lon="4.59434">
        <ele>766</ele>
        <time>2025-03-02T09:56:35Z</time>
      </trkpt>
      <trkpt lat="45.73418" lon="4.59428">
        <ele>765.8</ele>
        <time>2025-03-02T09:56:36Z</time>
      </trkpt>
      <trkpt lat="45.73415" lon="4.59422">
        <ele>765.8</ele>
        <time>2025-03-02T09:56:37Z</time>
      </trkpt>
      <trkpt lat="45.73413" lon="4.59416">
        <ele>765.6</ele>
        <time>2025-03-02T09:56:38Z</time>
      </trkpt>
      <trkpt lat="45.7341" lon="4.59409">
        <ele>765.2</ele>
        <time>2025-03-02T09:56:39Z</time>
      </trkpt>
      <trkpt lat="45.73407" lon="4.59402">
        <ele>764.8</ele>
        <time>2025-03-02T09:56:40Z</time>
      </trkpt>
      <trkpt lat="45.73403" lon="4.59395">
        <ele>764.2</ele>
        <time>2025-03-02T09:56:41Z</time>
      </trkpt>
      <trkpt lat="45.73399" lon="4.5939">
        <ele>763.6</ele>
        <time>2025-03-02T09:56:42Z</time>
      </trkpt>
      <trkpt lat="45.73394" lon="4.59386">
        <ele>762.8</ele>
        <time>2025-03-02T09:56:43Z</time>
      </trkpt>
      <trkpt lat="45.7339" lon="4.59383">
        <ele>762.4</ele>
        <time>2025-03-02T09:56:44Z</time>
      </trkpt>
      <trkpt lat="45.73385" lon="4.59382">
        <ele>761.8</ele>
        <time>2025-03-02T09:56:45Z</time>
      </trkpt>
      <trkpt lat="45.73381" lon="4.59382">
        <ele>761.6</ele>
        <time>2025-03-02T09:56:46Z</time>
      </trkpt>
      <trkpt lat="45.73377" lon="4.59384">
        <ele>761.4</ele>
        <time>2025-03-02T09:56:47Z</time>
      </trkpt>
      <trkpt lat="45.73372" lon="4.59385">
        <ele>761.2</ele>
        <time>2025-03-02T09:56:48Z</time>
      </trkpt>
      <trkpt lat="45.73368" lon="4.59388">
        <ele>761.2</ele>
        <time>2025-03-02T09:56:49Z</time>
      </trkpt>
      <trkpt lat="45.73364" lon="4.59391">
        <ele>761.2</ele>
        <time>2025-03-02T09:56:50Z</time>
      </trkpt>
      <trkpt lat="45.73361" lon="4.59394">
        <ele>761.2</ele>
        <time>2025-03-02T09:56:51Z</time>
      </trkpt>
      <trkpt lat="45.73358" lon="4.59398">
        <ele>761.2</ele>
        <time>2025-03-02T09:56:52Z</time>
      </trkpt>
      <trkpt lat="45.73355" lon="4.59402">
        <ele>761.2</ele>
        <time>2025-03-02T09:56:53Z</time>
      </trkpt>
      <trkpt lat="45.73353" lon="4.59406">
        <ele>761.4</ele>
        <time>2025-03-02T09:56:54Z</time>
      </trkpt>
      <trkpt lat="45.7335" lon="4.5941">
        <ele>761.6</ele>
        <time>2025-03-02T09:56:55Z</time>
      </trkpt>
      <trkpt lat="45.73348" lon="4.59414">
        <ele>761.6</ele>
        <time>2025-03-02T09:56:56Z</time>
      </trkpt>
      <trkpt lat="45.73345" lon="4.59418">
        <ele>761.8</ele>
        <time>2025-03-02T09:56:57Z</time>
      </trkpt>
      <trkpt lat="45.73342" lon="4.59422">
        <ele>761.8</ele>
        <time>2025-03-02T09:56:58Z</time>
      </trkpt>
      <trkpt lat="45.7334" lon="4.59426">
        <ele>761.8</ele>
        <time>2025-03-02T09:56:59Z</time>
      </trkpt>
      <trkpt lat="45.73337" lon="4.59429">
        <ele>762</ele>
        <time>2025-03-02T09:57:00Z</time>
      </trkpt>
      <trkpt lat="45.73333" lon="4.59433">
        <ele>762.2</ele>
        <time>2025-03-02T09:57:01Z</time>
      </trkpt>
      <trkpt lat="45.73331" lon="4.59436">
        <ele>762.2</ele>
        <time>2025-03-02T09:57:02Z</time>
      </trkpt>
      <trkpt lat="45.73328" lon="4.5944">
        <ele>762.4</ele>
        <time>2025-03-02T09:57:03Z</time>
      </trkpt>
      <trkpt lat="45.73326" lon="4.59444">
        <ele>762.6</ele>
        <time>2025-03-02T09:57:04Z</time>
      </trkpt>
      <trkpt lat="45.73323" lon="4.59448">
        <ele>762.8</ele>
        <time>2025-03-02T09:57:05Z</time>
      </trkpt>
      <trkpt lat="45.73321" lon="4.59452">
        <ele>762.8</ele>
        <time>2025-03-02T09:57:06Z</time>
      </trkpt>
      <trkpt lat="45.73319" lon="4.59455">
        <ele>763</ele>
        <time>2025-03-02T09:57:07Z</time>
      </trkpt>
      <trkpt lat="45.73317" lon="4.59458">
        <ele>763.2</ele>
        <time>2025-03-02T09:57:08Z</time>
      </trkpt>
      <trkpt lat="45.73316" lon="4.59461">
        <ele>763.4</ele>
        <time>2025-03-02T09:57:09Z</time>
      </trkpt>
      <trkpt lat="45.73315" lon="4.59463">
        <ele>763.4</ele>
        <time>2025-03-02T09:57:10Z</time>
      </trkpt>
      <trkpt lat="45.73314" lon="4.59467">
        <ele>763.6</ele>
        <time>2025-03-02T09:57:11Z</time>
      </trkpt>
      <trkpt lat="45.73314" lon="4.5947">
        <ele>763.6</ele>
        <time>2025-03-02T09:57:12Z</time>
      </trkpt>
      <trkpt lat="45.73313" lon="4.59474">
        <ele>763.8</ele>
        <time>2025-03-02T09:57:13Z</time>
      </trkpt>
      <trkpt lat="45.73312" lon="4.59478">
        <ele>764.2</ele>
        <time>2025-03-02T09:57:14Z</time>
      </trkpt>
      <trkpt lat="45.73311" lon="4.59482">
        <ele>764.4</ele>
        <time>2025-03-02T09:57:15Z</time>
      </trkpt>
      <trkpt lat="45.7331" lon="4.59485">
        <ele>765</ele>
        <time>2025-03-02T09:57:16Z</time>
      </trkpt>
      <trkpt lat="45.73309" lon="4.59489">
        <ele>765.4</ele>
        <time>2025-03-02T09:57:17Z</time>
      </trkpt>
      <trkpt lat="45.73308" lon="4.59493">
        <ele>765.8</ele>
        <time>2025-03-02T09:57:18Z</time>
      </trkpt>
      <trkpt lat="45.73306" lon="4.59497">
        <ele>766.4</ele>
        <time>2025-03-02T09:57:19Z</time>
      </trkpt>
      <trkpt lat="45.73305" lon="4.59501">
        <ele>767</ele>
        <time>2025-03-02T09:57:20Z</time>
      </trkpt>
      <trkpt lat="45.73302" lon="4.59504">
        <ele>767.4</ele>
        <time>2025-03-02T09:57:21Z</time>
      </trkpt>
      <trkpt lat="45.733" lon="4.59508">
        <ele>768</ele>
        <time>2025-03-02T09:57:22Z</time>
      </trkpt>
      <trkpt lat="45.73298" lon="4.59511">
        <ele>768.4</ele>
        <time>2025-03-02T09:57:23Z</time>
      </trkpt>
      <trkpt lat="45.73295" lon="4.59515">
        <ele>768.8</ele>
        <time>2025-03-02T09:57:24Z</time>
      </trkpt>
      <trkpt lat="45.73293" lon="4.59518">
        <ele>769.2</ele>
        <time>2025-03-02T09:57:25Z</time>
      </trkpt>
      <trkpt lat="45.7329" lon="4.59522">
        <ele>769.6</ele>
        <time>2025-03-02T09:57:26Z</time>
      </trkpt>
      <trkpt lat="45.73288" lon="4.59525">
        <ele>769.8</ele>
        <time>2025-03-02T09:57:27Z</time>
      </trkpt>
      <trkpt lat="45.73285" lon="4.59528">
        <ele>770.2</ele>
        <time>2025-03-02T09:57:28Z</time>
      </trkpt>
      <trkpt lat="45.73282" lon="4.59531">
        <ele>770.4</ele>
        <time>2025-03-02T09:57:29Z</time>
      </trkpt>
      <trkpt lat="45.7328" lon="4.59534">
        <ele>770.4</ele>
        <time>2025-03-02T09:57:30Z</time>
      </trkpt>
      <trkpt lat="45.73278" lon="4.59537">
        <ele>770.6</ele>
        <time>2025-03-02T09:57:31Z</time>
      </trkpt>
      <trkpt lat="45.73275" lon="4.5954">
        <ele>770.6</ele>
        <time>2025-03-02T09:57:32Z</time>
      </trkpt>
      <trkpt lat="45.73272" lon="4.59542">
        <ele>770.6</ele>
        <time>2025-03-02T09:57:33Z</time>
      </trkpt>
      <trkpt lat="45.73269" lon="4.59545">
        <ele>770.8</ele>
        <time>2025-03-02T09:57:34Z</time>
      </trkpt>
      <trkpt lat="45.73267" lon="4.59547">
        <ele>771</ele>
        <time>2025-03-02T09:57:35Z</time>
      </trkpt>
      <trkpt lat="45.73264" lon="4.5955">
        <ele>771</ele>
        <time>2025-03-02T09:57:36Z</time>
      </trkpt>
      <trkpt lat="45.73261" lon="4.59553">
        <ele>771.2</ele>
        <time>2025-03-02T09:57:37Z</time>
      </trkpt>
      <trkpt lat="45.73259" lon="4.59555">
        <ele>771.4</ele>
        <time>2025-03-02T09:57:38Z</time>
      </trkpt>
      <trkpt lat="45.73256" lon="4.59557">
        <ele>771.4</ele>
        <time>2025-03-02T09:57:39Z</time>
      </trkpt>
      <trkpt lat="45.73253" lon="4.5956">
        <ele>771.6</ele>
        <time>2025-03-02T09:57:40Z</time>
      </trkpt>
      <trkpt lat="45.73251" lon="4.59563">
        <ele>771.8</ele>
        <time>2025-03-02T09:57:41Z</time>
      </trkpt>
      <trkpt lat="45.73248" lon="4.59564">
        <ele>772</ele>
        <time>2025-03-02T09:57:42Z</time>
      </trkpt>
      <trkpt lat="45.73246" lon="4.59567">
        <ele>772.2</ele>
        <time>2025-03-02T09:57:43Z</time>
      </trkpt>
      <trkpt lat="45.73243" lon="4.59569">
        <ele>772.4</ele>
        <time>2025-03-02T09:57:44Z</time>
      </trkpt>
      <trkpt lat="45.7324" lon="4.5957">
        <ele>772.6</ele>
        <time>2025-03-02T09:57:45Z</time>
      </trkpt>
      <trkpt lat="45.73238" lon="4.59571">
        <ele>772.8</ele>
        <time>2025-03-02T09:57:46Z</time>
      </trkpt>
      <trkpt lat="45.73235" lon="4.59572">
        <ele>772.8</ele>
        <time>2025-03-02T09:57:47Z</time>
      </trkpt>
      <trkpt lat="45.73232" lon="4.59573">
        <ele>773</ele>
        <time>2025-03-02T09:57:48Z</time>
      </trkpt>
      <trkpt lat="45.73229" lon="4.59573">
        <ele>773.2</ele>
        <time>2025-03-02T09:57:49Z</time>
      </trkpt>
      <trkpt lat="45.73226" lon="4.59573">
        <ele>773.4</ele>
        <time>2025-03-02T09:57:50Z</time>
      </trkpt>
      <trkpt lat="45.73222" lon="4.59572">
        <ele>773.6</ele>
        <time>2025-03-02T09:57:51Z</time>
      </trkpt>
      <trkpt lat="45.73219" lon="4.59572">
        <ele>773.6</ele>
        <time>2025-03-02T09:57:52Z</time>
      </trkpt>
      <trkpt lat="45.73216" lon="4.59571">
        <ele>773.8</ele>
        <time>2025-03-02T09:57:53Z</time>
      </trkpt>
      <trkpt lat="45.73213" lon="4.5957">
        <ele>774</ele>
        <time>2025-03-02T09:57:54Z</time>
      </trkpt>
      <trkpt lat="45.7321" lon="4.5957">
        <ele>774</ele>
        <time>2025-03-02T09:57:55Z</time>
      </trkpt>
      <trkpt lat="45.73207" lon="4.59569">
        <ele>774.2</ele>
        <time>2025-03-02T09:57:56Z</time>
      </trkpt>
      <trkpt lat="45.73204" lon="4.59568">
        <ele>774.2</ele>
        <time>2025-03-02T09:57:57Z</time>
      </trkpt>
      <trkpt lat="45.73202" lon="4.59567">
        <ele>774.4</ele>
        <time>2025-03-02T09:57:58Z</time>
      </trkpt>
      <trkpt lat="45.73199" lon="4.59565">
        <ele>774.4</ele>
        <time>2025-03-02T09:57:59Z</time>
      </trkpt>
      <trkpt lat="45.73195" lon="4.59563">
        <ele>774.4</ele>
        <time>2025-03-02T09:58:00Z</time>
      </trkpt>
      <trkpt lat="45.73192" lon="4.5956">
        <ele>774.4</ele>
        <time>2025-03-02T09:58:01Z</time>
      </trkpt>
      <trkpt lat="45.73189" lon="4.59558">
        <ele>774.6</ele>
        <time>2025-03-02T09:58:02Z</time>
      </trkpt>
      <trkpt lat="45.73185" lon="4.59557">
        <ele>774.6</ele>
        <time>2025-03-02T09:58:03Z</time>
      </trkpt>
      <trkpt lat="45.73182" lon="4.59556">
        <ele>774.6</ele>
        <time>2025-03-02T09:58:04Z</time>
      </trkpt>
      <trkpt lat="45.73179" lon="4.59554">
        <ele>774.8</ele>
        <time>2025-03-02T09:58:05Z</time>
      </trkpt>
      <trkpt lat="45.73175" lon="4.59553">
        <ele>774.8</ele>
        <time>2025-03-02T09:58:06Z</time>
      </trkpt>
      <trkpt lat="45.73172" lon="4.59551">
        <ele>774.8</ele>
        <time>2025-03-02T09:58:07Z</time>
      </trkpt>
      <trkpt lat="45.7317" lon="4.59548">
        <ele>774.8</ele>
        <time>2025-03-02T09:58:08Z</time>
      </trkpt>
      <trkpt lat="45.73167" lon="4.59545">
        <ele>774.8</ele>
        <time>2025-03-02T09:58:09Z</time>
      </trkpt>
      <trkpt lat="45.73164" lon="4.59543">
        <ele>774.8</ele>
        <time>2025-03-02T09:58:10Z</time>
      </trkpt>
      <trkpt lat="45.73161" lon="4.5954">
        <ele>774.8</ele>
        <time>2025-03-02T09:58:11Z</time>
      </trkpt>
      <trkpt lat="45.73159" lon="4.59538">
        <ele>775</ele>
        <time>2025-03-02T09:58:12Z</time>
      </trkpt>
      <trkpt lat="45.73156" lon="4.59537">
        <ele>775</ele>
        <time>2025-03-02T09:58:13Z</time>
      </trkpt>
      <trkpt lat="45.73153" lon="4.59534">
        <ele>775</ele>
        <time>2025-03-02T09:58:14Z</time>
      </trkpt>
      <trkpt lat="45.73151" lon="4.59532">
        <ele>775</ele>
        <time>2025-03-02T09:58:15Z</time>
      </trkpt>
      <trkpt lat="45.73147" lon="4.59529">
        <ele>775</ele>
        <time>2025-03-02T09:58:16Z</time>
      </trkpt>
      <trkpt lat="45.73144" lon="4.59527">
        <ele>775.2</ele>
        <time>2025-03-02T09:58:17Z</time>
      </trkpt>
      <trkpt lat="45.73142" lon="4.59525">
        <ele>775.2</ele>
        <time>2025-03-02T09:58:18Z</time>
      </trkpt>
      <trkpt lat="45.73139" lon="4.59523">
        <ele>775.2</ele>
        <time>2025-03-02T09:58:19Z</time>
      </trkpt>
      <trkpt lat="45.73136" lon="4.5952">
        <ele>775.4</ele>
        <time>2025-03-02T09:58:20Z</time>
      </trkpt>
      <trkpt lat="45.73133" lon="4.59517">
        <ele>775.4</ele>
        <time>2025-03-02T09:58:21Z</time>
      </trkpt>
      <trkpt lat="45.73131" lon="4.59515">
        <ele>775.4</ele>
        <time>2025-03-02T09:58:22Z</time>
      </trkpt>
      <trkpt lat="45.73129" lon="4.59514">
        <ele>775.4</ele>
        <time>2025-03-02T09:58:23Z</time>
      </trkpt>
      <trkpt lat="45.73126" lon="4.59513">
        <ele>775.6</ele>
        <time>2025-03-02T09:58:24Z</time>
      </trkpt>
      <trkpt lat="45.73123" lon="4.59512">
        <ele>776</ele>
        <time>2025-03-02T09:58:25Z</time>
      </trkpt>
      <trkpt lat="45.73121" lon="4.5951">
        <ele>776</ele>
        <time>2025-03-02T09:58:26Z</time>
      </trkpt>
      <trkpt lat="45.73118" lon="4.59509">
        <ele>776.2</ele>
        <time>2025-03-02T09:58:27Z</time>
      </trkpt>
      <trkpt lat="45.73116" lon="4.59508">
        <ele>776.2</ele>
        <time>2025-03-02T09:58:28Z</time>
      </trkpt>
      <trkpt lat="45.73113" lon="4.59506">
        <ele>776.4</ele>
        <time>2025-03-02T09:58:29Z</time>
      </trkpt>
      <trkpt lat="45.73111" lon="4.59505">
        <ele>776.4</ele>
        <time>2025-03-02T09:58:30Z</time>
      </trkpt>
      <trkpt lat="45.73109" lon="4.59504">
        <ele>776.6</ele>
        <time>2025-03-02T09:58:31Z</time>
      </trkpt>
      <trkpt lat="45.73107" lon="4.59502">
        <ele>776.6</ele>
        <time>2025-03-02T09:58:32Z</time>
      </trkpt>
      <trkpt lat="45.73106" lon="4.59501">
        <ele>776.6</ele>
        <time>2025-03-02T09:58:33Z</time>
      </trkpt>
      <trkpt lat="45.73104" lon="4.59501">
        <ele>776.6</ele>
        <time>2025-03-02T09:58:34Z</time>
      </trkpt>
      <trkpt lat="45.73102" lon="4.595">
        <ele>776.8</ele>
        <time>2025-03-02T09:58:35Z</time>
      </trkpt>
      <trkpt lat="45.73101" lon="4.595">
        <ele>776.8</ele>
        <time>2025-03-02T09:58:36Z</time>
      </trkpt>
      <trkpt lat="45.731" lon="4.595">
        <ele>776.8</ele>
        <time>2025-03-02T09:58:37Z</time>
      </trkpt>
      <trkpt lat="45.731" lon="4.595">
        <ele>776.8</ele>
        <time>2025-03-02T09:58:38Z</time>
      </trkpt>
      <trkpt lat="45.731" lon="4.595">
        <ele>776.8</ele>
        <time>2025-03-02T09:58:39Z</time>
      </trkpt>
      <trkpt lat="45.731" lon="4.595">
        <ele>777</ele>
        <time>2025-03-02T09:58:40Z</time>
      </trkpt>
      <trkpt lat="45.731" lon="4.595">
        <ele>777.2</ele>
        <time>2025-03-02T09:58:41Z</time>
      </trkpt>
      <trkpt lat="45.731" lon="4.595">
        <ele>777.2</ele>
        <time>2025-03-02T09:58:42Z</time>
      </trkpt>
      <trkpt lat="45.731" lon="4.595">
        <ele>777.2</ele>
        <time>2025-03-02T09:58:43Z</time>
      </trkpt>
      <trkpt lat="45.731" lon="4.595">
        <ele>777.2</ele>
        <time>2025-03-02T09:58:44Z</time>
      </trkpt>
      <trkpt lat="45.731" lon="4.595">
        <ele>777.2</ele>
        <time>2025-03-02T09:58:45Z</time>
      </trkpt>
      <trkpt lat="45.73099" lon="4.595">
        <ele>777.2</ele>
        <time>2025-03-02T09:58:46Z</time>
      </trkpt>
      <trkpt lat="45.73098" lon="4.59499">
        <ele>777.2</ele>
        <time>2025-03-02T09:58:47Z</time>
      </trkpt>
      <trkpt lat="45.73096" lon="4.59499">
        <ele>777.2</ele>
        <time>2025-03-02T09:58:48Z</time>
      </trkpt>
      <trkpt lat="45.73095" lon="4.595">
        <ele>777.2</ele>
        <time>2025-03-02T09:58:49Z</time>
      </trkpt>
      <trkpt lat="45.73093" lon="4.59501">
        <ele>777.2</ele>
        <time>2025-03-02T09:58:50Z</time>
      </trkpt>
      <trkpt lat="45.73091" lon="4.59501">
        <ele>777.2</ele>
        <time>2025-03-02T09:58:51Z</time>
      </trkpt>
      <trkpt lat="45.73088" lon="4.59501">
        <ele>777.4</ele>
        <time>2025-03-02T09:58:52Z</time>
      </trkpt>
      <trkpt lat="45.73086" lon="4.59502">
        <ele>777.6</ele>
        <time>2025-03-02T09:58:53Z</time>
      </trkpt>
      <trkpt lat="45.73084" lon="4.59502">
        <ele>778</ele>
        <time>2025-03-02T09:58:54Z</time>
      </trkpt>
      <trkpt lat="45.73081" lon="4.59503">
        <ele>778.4</ele>
        <time>2025-03-02T09:58:55Z</time>
      </trkpt>
      <trkpt lat="45.73077" lon="4.59504">
        <ele>778.8</ele>
        <time>2025-03-02T09:58:56Z</time>
      </trkpt>
      <trkpt lat="45.73074" lon="4.59505">
        <ele>779.4</ele>
        <time>2025-03-02T09:58:57Z</time>
      </trkpt>
      <trkpt lat="45.73071" lon="4.59505">
        <ele>779.8</ele>
        <time>2025-03-02T09:58:58Z</time>
      </trkpt>
      <trkpt lat="45.73068" lon="4.59506">
        <ele>780.2</ele>
        <time>2025-03-02T09:58:59Z</time>
      </trkpt>
      <trkpt lat="45.73067" lon="4.59506">
        <ele>780.8</ele>
        <time>2025-03-02T09:59:00Z</time>
      </trkpt>
      <trkpt lat="45.73065" lon="4.59506">
        <ele>781.4</ele>
        <time>2025-03-02T09:59:01Z</time>
      </trkpt>
      <trkpt lat="45.73062" lon="4.59506">
        <ele>781.8</ele>
        <time>2025-03-02T09:59:02Z</time>
      </trkpt>
      <trkpt lat="45.73059" lon="4.59506">
        <ele>782.2</ele>
        <time>2025-03-02T09:59:03Z</time>
      </trkpt>
      <trkpt lat="45.73057" lon="4.59506">
        <ele>782.6</ele>
        <time>2025-03-02T09:59:04Z</time>
      </trkpt>
      <trkpt lat="45.73055" lon="4.59506">
        <ele>783</ele>
        <time>2025-03-02T09:59:05Z</time>
      </trkpt>
      <trkpt lat="45.73052" lon="4.59505">
        <ele>783.6</ele>
        <time>2025-03-02T09:59:06Z</time>
      </trkpt>
      <trkpt lat="45.73049" lon="4.59504">
        <ele>784</ele>
        <time>2025-03-02T09:59:07Z</time>
      </trkpt>
      <trkpt lat="45.73046" lon="4.59503">
        <ele>784.4</ele>
        <time>2025-03-02T09:59:08Z</time>
      </trkpt>
      <trkpt lat="45.73044" lon="4.59502">
        <ele>784.8</ele>
        <time>2025-03-02T09:59:09Z</time>
      </trkpt>
      <trkpt lat="45.73042" lon="4.595">
        <ele>785.2</ele>
        <time>2025-03-02T09:59:10Z</time>
      </trkpt>
      <trkpt lat="45.73039" lon="4.59499">
        <ele>785.6</ele>
        <time>2025-03-02T09:59:11Z</time>
      </trkpt>
      <trkpt lat="45.73036" lon="4.59497">
        <ele>786</ele>
        <time>2025-03-02T09:59:12Z</time>
      </trkpt>
      <trkpt lat="45.73033" lon="4.59496">
        <ele>786.2</ele>
        <time>2025-03-02T09:59:13Z</time>
      </trkpt>
      <trkpt lat="45.7303" lon="4.59494">
        <ele>786.6</ele>
        <time>2025-03-02T09:59:14Z</time>
      </trkpt>
      <trkpt lat="45.73026" lon="4.59493">
        <ele>786.8</ele>
        <time>2025-03-02T09:59:15Z</time>
      </trkpt>
      <trkpt lat="45.73023" lon="4.59491">
        <ele>787</ele>
        <time>2025-03-02T09:59:16Z</time>
      </trkpt>
      <trkpt lat="45.7302" lon="4.5949">
        <ele>787.4</ele>
        <time>2025-03-02T09:59:17Z</time>
      </trkpt>
      <trkpt lat="45.73019" lon="4.59488">
        <ele>787.4</ele>
        <time>2025-03-02T09:59:18Z</time>
      </trkpt>
      <trkpt lat="45.73017" lon="4.59488">
        <ele>787.6</ele>
        <time>2025-03-02T09:59:19Z</time>
      </trkpt>
      <trkpt lat="45.73015" lon="4.59488">
        <ele>788</ele>
        <time>2025-03-02T09:59:20Z</time>
      </trkpt>
      <trkpt lat="45.73012" lon="4.59488">
        <ele>788.2</ele>
        <time>2025-03-02T09:59:21Z</time>
      </trkpt>
      <trkpt lat="45.73011" lon="4.59488">
        <ele>788.6</ele>
        <time>2025-03-02T09:59:22Z</time>
      </trkpt>
      <trkpt lat="45.7301" lon="4.59486">
        <ele>789</ele>
        <time>2025-03-02T09:59:23Z</time>
      </trkpt>
      <trkpt lat="45.73007" lon="4.59486">
        <ele>789.4</ele>
        <time>2025-03-02T09:59:24Z</time>
      </trkpt>
      <trkpt lat="45.73005" lon="4.59485">
        <ele>789.6</ele>
        <time>2025-03-02T09:59:25Z</time>
      </trkpt>
      <trkpt lat="45.73003" lon="4.59484">
        <ele>790</ele>
        <time>2025-03-02T09:59:26Z</time>
      </trkpt>
      <trkpt lat="45.73" lon="4.59484">
        <ele>790.2</ele>
        <time>2025-03-02T09:59:27Z</time>
      </trkpt>
      <trkpt lat="45.72998" lon="4.59483">
        <ele>790.8</ele>
        <time>2025-03-02T09:59:28Z</time>
      </trkpt>
      <trkpt lat="45.72995" lon="4.59482">
        <ele>791.2</ele>
        <time>2025-03-02T09:59:29Z</time>
      </trkpt>
      <trkpt lat="45.72993" lon="4.59481">
        <ele>791.6</ele>
        <time>2025-03-02T09:59:30Z</time>
      </trkpt>
      <trkpt lat="45.72991" lon="4.5948">
        <ele>791.8</ele>
        <time>2025-03-02T09:59:31Z</time>
      </trkpt>
      <trkpt lat="45.72989" lon="4.59479">
        <ele>792.2</ele>
        <time>2025-03-02T09:59:32Z</time>
      </trkpt>
      <trkpt lat="45.72987" lon="4.59479">
        <ele>792.6</ele>
        <time>2025-03-02T09:59:33Z</time>
      </trkpt>
      <trkpt lat="45.72985" lon="4.59478">
        <ele>793</ele>
        <time>2025-03-02T09:59:34Z</time>
      </trkpt>
      <trkpt lat="45.72983" lon="4.59478">
        <ele>793.4</ele>
        <time>2025-03-02T09:59:35Z</time>
      </trkpt>
      <trkpt lat="45.72981" lon="4.59477">
        <ele>793.8</ele>
        <time>2025-03-02T09:59:36Z</time>
      </trkpt>
      <trkpt lat="45.72978" lon="4.59476">
        <ele>794.2</ele>
        <time>2025-03-02T09:59:37Z</time>
      </trkpt>
      <trkpt lat="45.72976" lon="4.59476">
        <ele>794.6</ele>
        <time>2025-03-02T09:59:38Z</time>
      </trkpt>
      <trkpt lat="45.72975" lon="4.59475">
        <ele>795</ele>
        <time>2025-03-02T09:59:39Z</time>
      </trkpt>
      <trkpt lat="45.72973" lon="4.59473">
        <ele>795.2</ele>
        <time>2025-03-02T09:59:40Z</time>
      </trkpt>
      <trkpt lat="45.72972" lon="4.59471">
        <ele>795.6</ele>
        <time>2025-03-02T09:59:41Z</time>
      </trkpt>
      <trkpt lat="45.7297" lon="4.5947">
        <ele>796</ele>
        <time>2025-03-02T09:59:42Z</time>
      </trkpt>
      <trkpt lat="45.72968" lon="4.59469">
        <ele>796.2</ele>
        <time>2025-03-02T09:59:43Z</time>
      </trkpt>
      <trkpt lat="45.72966" lon="4.59468">
        <ele>796.4</ele>
        <time>2025-03-02T09:59:44Z</time>
      </trkpt>
      <trkpt lat="45.72965" lon="4.59466">
        <ele>796.6</ele>
        <time>2025-03-02T09:59:45Z</time>
      </trkpt>
      <trkpt lat="45.72963" lon="4.59465">
        <ele>796.8</ele>
        <time>2025-03-02T09:59:46Z</time>
      </trkpt>
      <trkpt lat="45.72961" lon="4.59464">
        <ele>797</ele>
        <time>2025-03-02T09:59:47Z</time>
      </trkpt>
      <trkpt lat="45.72959" lon="4.59462">
        <ele>797.2</ele>
        <time>2025-03-02T09:59:48Z</time>
      </trkpt>
      <trkpt lat="45.72957" lon="4.59461">
        <ele>797.6</ele>
        <time>2025-03-02T09:59:49Z</time>
      </trkpt>
      <trkpt lat="45.72955" lon="4.5946">
        <ele>797.6</ele>
        <time>2025-03-02T09:59:50Z</time>
      </trkpt>
      <trkpt lat="45.72954" lon="4.5946">
        <ele>798</ele>
        <time>2025-03-02T09:59:51Z</time>
      </trkpt>
      <trkpt lat="45.72951" lon="4.59459">
        <ele>798.2</ele>
        <time>2025-03-02T09:59:52Z</time>
      </trkpt>
      <trkpt lat="45.72948" lon="4.59458">
        <ele>798.6</ele>
        <time>2025-03-02T09:59:53Z</time>
      </trkpt>
      <trkpt lat="45.72946" lon="4.59457">
        <ele>799</ele>
        <time>2025-03-02T09:59:54Z</time>
      </trkpt>
      <trkpt lat="45.72944" lon="4.59457">
        <ele>799.4</ele>
        <time>2025-03-02T09:59:55Z</time>
      </trkpt>
      <trkpt lat="45.72941" lon="4.59455">
        <ele>799.8</ele>
        <time>2025-03-02T09:59:56Z</time>
      </trkpt>
      <trkpt lat="45.7294" lon="4.59453">
        <ele>799.8</ele>
        <time>2025-03-02T09:59:57Z</time>
      </trkpt>
      <trkpt lat="45.72937" lon="4.59452">
        <ele>800.2</ele>
        <time>2025-03-02T09:59:58Z</time>
      </trkpt>
      <trkpt lat="45.72935" lon="4.59451">
        <ele>800.4</ele>
        <time>2025-03-02T09:59:59Z</time>
      </trkpt>
      <trkpt lat="45.72934" lon="4.5945">
        <ele>800.6</ele>
        <time>2025-03-02T10:00:00Z</time>
      </trkpt>
      <trkpt lat="45.72933" lon="4.59449">
        <ele>801</ele>
        <time>2025-03-02T10:00:01Z</time>
      </trkpt>
      <trkpt lat="45.72931" lon="4.59447">
        <ele>801.2</ele>
        <time>2025-03-02T10:00:02Z</time>
      </trkpt>
      <trkpt lat="45.72928" lon="4.59444">
        <ele>801.4</ele>
        <time>2025-03-02T10:00:03Z</time>
      </trkpt>
      <trkpt lat="45.72925" lon="4.5944">
        <ele>801.6</ele>
        <time>2025-03-02T10:00:04Z</time>
      </trkpt>
      <trkpt lat="45.72921" lon="4.59437">
        <ele>801.8</ele>
        <time>2025-03-02T10:00:05Z</time>
      </trkpt>
      <trkpt lat="45.72918" lon="4.59434">
        <ele>802</ele>
        <time>2025-03-02T10:00:06Z</time>
      </trkpt>
      <trkpt lat="45.72916" lon="4.59432">
        <ele>802.2</ele>
        <time>2025-03-02T10:00:07Z</time>
      </trkpt>
      <trkpt lat="45.72914" lon="4.59428">
        <ele>802.4</ele>
        <time>2025-03-02T10:00:08Z</time>
      </trkpt>
      <trkpt lat="45.7291" lon="4.59425">
        <ele>802.6</ele>
        <time>2025-03-02T10:00:09Z</time>
      </trkpt>
      <trkpt lat="45.72907" lon="4.59421">
        <ele>802.6</ele>
        <time>2025-03-02T10:00:10Z</time>
      </trkpt>
      <trkpt lat="45.72903" lon="4.59419">
        <ele>802.8</ele>
        <time>2025-03-02T10:00:11Z</time>
      </trkpt>
      <trkpt lat="45.72901" lon="4.59417">
        <ele>803.2</ele>
        <time>2025-03-02T10:00:12Z</time>
      </trkpt>
      <trkpt lat="45.72899" lon="4.59414">
        <ele>803.4</ele>
        <time>2025-03-02T10:00:13Z</time>
      </trkpt>
      <trkpt lat="45.72897" lon="4.59411">
        <ele>803.6</ele>
        <time>2025-03-02T10:00:14Z</time>
      </trkpt>
      <trkpt lat="45.72894" lon="4.5941">
        <ele>803.8</ele>
        <time>2025-03-02T10:00:15Z</time>
      </trkpt>
      <trkpt lat="45.72892" lon="4.59407">
        <ele>804</ele>
        <time>2025-03-02T10:00:16Z</time>
      </trkpt>
      <trkpt lat="45.7289" lon="4.59405">
        <ele>804.4</ele>
        <time>2025-03-02T10:00:17Z</time>
      </trkpt>
      <trkpt lat="45.72888" lon="4.59403">
        <ele>804.6</ele>
        <time>2025-03-02T10:00:18Z</time>
      </trkpt>
      <trkpt lat="45.72887" lon="4.59402">
        <ele>805</ele>
        <time>2025-03-02T10:00:19Z</time>
      </trkpt>
      <trkpt lat="45.72885" lon="4.594">
        <ele>805.2</ele>
        <time>2025-03-02T10:00:20Z</time>
      </trkpt>
      <trkpt lat="45.72884" lon="4.59398">
        <ele>805.6</ele>
        <time>2025-03-02T10:00:21Z</time>
      </trkpt>
      <trkpt lat="45.72882" lon="4.59396">
        <ele>806</ele>
        <time>2025-03-02T10:00:22Z</time>
      </trkpt>
      <trkpt lat="45.72881" lon="4.59395">
        <ele>806</ele>
        <time>2025-03-02T10:00:23Z</time>
      </trkpt>
      <trkpt lat="45.72879" lon="4.59393">
        <ele>806.2</ele>
        <time>2025-03-02T10:00:24Z</time>
      </trkpt>
      <trkpt lat="45.72879" lon="4.59391">
        <ele>806.4</ele>
        <time>2025-03-02T10:00:25Z</time>
      </trkpt>
      <trkpt lat="45.72877" lon="4.5939">
        <ele>806.8</ele>
        <time>2025-03-02T10:00:26Z</time>
      </trkpt>
      <trkpt lat="45.72876" lon="4.59389">
        <ele>806.8</ele>
        <time>2025-03-02T10:00:27Z</time>
      </trkpt>
      <trkpt lat="45.72874" lon="4.59387">
        <ele>807</ele>
        <time>2025-03-02T10:00:28Z</time>
      </trkpt>
      <trkpt lat="45.72872" lon="4.59385">
        <ele>807.2</ele>
        <time>2025-03-02T10:00:29Z</time>
      </trkpt>
      <trkpt lat="45.7287" lon="4.59384">
        <ele>807.2</ele>
        <time>2025-03-02T10:00:30Z</time>
      </trkpt>
      <trkpt lat="45.72868" lon="4.59382">
        <ele>807.4</ele>
        <time>2025-03-02T10:00:31Z</time>
      </trkpt>
      <trkpt lat="45.72866" lon="4.5938">
        <ele>807.4</ele>
        <time>2025-03-02T10:00:32Z</time>
      </trkpt>
      <trkpt lat="45.72865" lon="4.59378">
        <ele>807.6</ele>
        <time>2025-03-02T10:00:33Z</time>
      </trkpt>
      <trkpt lat="45.72863" lon="4.59376">
        <ele>807.6</ele>
        <time>2025-03-02T10:00:34Z</time>
      </trkpt>
      <trkpt lat="45.72862" lon="4.59374">
        <ele>807.8</ele>
        <time>2025-03-02T10:00:35Z</time>
      </trkpt>
      <trkpt lat="45.7286" lon="4.59372">
        <ele>808</ele>
        <time>2025-03-02T10:00:36Z</time>
      </trkpt>
      <trkpt lat="45.72859" lon="4.5937">
        <ele>808.2</ele>
        <time>2025-03-02T10:00:37Z</time>
      </trkpt>
      <trkpt lat="45.72856" lon="4.5937">
        <ele>808.4</ele>
        <time>2025-03-02T10:00:38Z</time>
      </trkpt>
      <trkpt lat="45.72854" lon="4.59369">
        <ele>808.6</ele>
        <time>2025-03-02T10:00:39Z</time>
      </trkpt>
      <trkpt lat="45.72852" lon="4.59367">
        <ele>808.8</ele>
        <time>2025-03-02T10:00:40Z</time>
      </trkpt>
      <trkpt lat="45.7285" lon="4.59365">
        <ele>809</ele>
        <time>2025-03-02T10:00:41Z</time>
      </trkpt>
      <trkpt lat="45.72848" lon="4.59365">
        <ele>809.2</ele>
        <time>2025-03-02T10:00:42Z</time>
      </trkpt>
      <trkpt lat="45.72846" lon="4.59363">
        <ele>809.4</ele>
        <time>2025-03-02T10:00:43Z</time>
      </trkpt>
      <trkpt lat="45.72844" lon="4.59361">
        <ele>809.6</ele>
        <time>2025-03-02T10:00:44Z</time>
      </trkpt>
      <trkpt lat="45.72842" lon="4.59359">
        <ele>809.8</ele>
        <time>2025-03-02T10:00:45Z</time>
      </trkpt>
      <trkpt lat="45.7284" lon="4.59357">
        <ele>809.8</ele>
        <time>2025-03-02T10:00:46Z</time>
      </trkpt>
      <trkpt lat="45.72837" lon="4.59356">
        <ele>810.2</ele>
        <time>2025-03-02T10:00:47Z</time>
      </trkpt>
      <trkpt lat="45.72835" lon="4.59355">
        <ele>810.6</ele>
        <time>2025-03-02T10:00:48Z</time>
      </trkpt>
      <trkpt lat="45.72833" lon="4.59354">
        <ele>810.8</ele>
        <time>2025-03-02T10:00:49Z</time>
      </trkpt>
      <trkpt lat="45.72831" lon="4.59352">
        <ele>811</ele>
        <time>2025-03-02T10:00:50Z</time>
      </trkpt>
      <trkpt lat="45.72828" lon="4.5935">
        <ele>811.2</ele>
        <time>2025-03-02T10:00:51Z</time>
      </trkpt>
      <trkpt lat="45.72825" lon="4.59349">
        <ele>811.4</ele>
        <time>2025-03-02T10:00:52Z</time>
      </trkpt>
      <trkpt lat="45.72823" lon="4.59346">
        <ele>811.6</ele>
        <time>2025-03-02T10:00:53Z</time>
      </trkpt>
      <trkpt lat="45.72821" lon="4.59342">
        <ele>812</ele>
        <time>2025-03-02T10:00:54Z</time>
      </trkpt>
      <trkpt lat="45.72818" lon="4.5934">
        <ele>812.2</ele>
        <time>2025-03-02T10:00:55Z</time>
      </trkpt>
      <trkpt lat="45.72815" lon="4.59339">
        <ele>812.4</ele>
        <time>2025-03-02T10:00:56Z</time>
      </trkpt>
      <trkpt lat="45.72811" lon="4.59338">
        <ele>812.6</ele>
        <time>2025-03-02T10:00:57Z</time>
      </trkpt>
      <trkpt lat="45.72808" lon="4.59336">
        <ele>812.8</ele>
        <time>2025-03-02T10:00:58Z</time>
      </trkpt>
      <trkpt lat="45.72806" lon="4.59334">
        <ele>813.2</ele>
        <time>2025-03-02T10:00:59Z</time>
      </trkpt>
      <trkpt lat="45.72803" lon="4.59332">
        <ele>813.2</ele>
        <time>2025-03-02T10:01:00Z</time>
      </trkpt>
      <trkpt lat="45.72801" lon="4.59331">
        <ele>813.4</ele>
        <time>2025-03-02T10:01:01Z</time>
      </trkpt>
      <trkpt lat="45.72799" lon="4.59329">
        <ele>813.8</ele>
        <time>2025-03-02T10:01:02Z</time>
      </trkpt>
      <trkpt lat="45.72797" lon="4.59327">
        <ele>813.8</ele>
        <time>2025-03-02T10:01:03Z</time>
      </trkpt>
      <trkpt lat="45.72795" lon="4.59322">
        <ele>814</ele>
        <time>2025-03-02T10:01:04Z</time>
      </trkpt>
      <trkpt lat="45.72792" lon="4.59319">
        <ele>814</ele>
        <time>2025-03-02T10:01:05Z</time>
      </trkpt>
      <trkpt lat="45.7279" lon="4.59318">
        <ele>814</ele>
        <time>2025-03-02T10:01:06Z</time>
      </trkpt>
      <trkpt lat="45.72787" lon="4.59316">
        <ele>814</ele>
        <time>2025-03-02T10:01:07Z</time>
      </trkpt>
      <trkpt lat="45.72784" lon="4.59314">
        <ele>814</ele>
        <time>2025-03-02T10:01:08Z</time>
      </trkpt>
      <trkpt lat="45.7278" lon="4.59313">
        <ele>814</ele>
        <time>2025-03-02T10:01:09Z</time>
      </trkpt>
      <trkpt lat="45.72777" lon="4.59311">
        <ele>814</ele>
        <time>2025-03-02T10:01:10Z</time>
      </trkpt>
      <trkpt lat="45.72773" lon="4.59309">
        <ele>814</ele>
        <time>2025-03-02T10:01:11Z</time>
      </trkpt>
      <trkpt lat="45.7277" lon="4.59307">
        <ele>814</ele>
        <time>2025-03-02T10:01:12Z</time>
      </trkpt>
      <trkpt lat="45.72768" lon="4.59306">
        <ele>814.2</ele>
        <time>2025-03-02T10:01:13Z</time>
      </trkpt>
      <trkpt lat="45.72767" lon="4.59305">
        <ele>814.2</ele>
        <time>2025-03-02T10:01:14Z</time>
      </trkpt>
      <trkpt lat="45.72765" lon="4.59304">
        <ele>814.2</ele>
        <time>2025-03-02T10:01:15Z</time>
      </trkpt>
      <trkpt lat="45.72763" lon="4.59302">
        <ele>814.2</ele>
        <time>2025-03-02T10:01:16Z</time>
      </trkpt>
      <trkpt lat="45.7276" lon="4.593">
        <ele>814.4</ele>
        <time>2025-03-02T10:01:17Z</time>
      </trkpt>
      <trkpt lat="45.72759" lon="4.59299">
        <ele>814.4</ele>
        <time>2025-03-02T10:01:18Z</time>
      </trkpt>
      <trkpt lat="45.72757" lon="4.59298">
        <ele>814.4</ele>
        <time>2025-03-02T10:01:19Z</time>
      </trkpt>
      <trkpt lat="45.72756" lon="4.59297">
        <ele>814.4</ele>
        <time>2025-03-02T10:01:20Z</time>
      </trkpt>
      <trkpt lat="45.72754" lon="4.59295">
        <ele>814.4</ele>
        <time>2025-03-02T10:01:21Z</time>
      </trkpt>
      <trkpt lat="45.72753" lon="4.59294">
        <ele>814.4</ele>
        <time>2025-03-02T10:01:22Z</time>
      </trkpt>
      <trkpt lat="45.7275" lon="4.59294">
        <ele>814.4</ele>
        <time>2025-03-02T10:01:23Z</time>
      </trkpt>
      <trkpt lat="45.72748" lon="4.59292">
        <ele>814.4</ele>
        <time>2025-03-02T10:01:24Z</time>
      </trkpt>
      <trkpt lat="45.72746" lon="4.5929">
        <ele>814.4</ele>
        <time>2025-03-02T10:01:25Z</time>
      </trkpt>
      <trkpt lat="45.72743" lon="4.59288">
        <ele>814.4</ele>
        <time>2025-03-02T10:01:26Z</time>
      </trkpt>
      <trkpt lat="45.7274" lon="4.59287">
        <ele>814.4</ele>
        <time>2025-03-02T10:01:27Z</time>
      </trkpt>
      <trkpt lat="45.72737" lon="4.59285">
        <ele>814.4</ele>
        <time>2025-03-02T10:01:28Z</time>
      </trkpt>
      <trkpt lat="45.72734" lon="4.59284">
        <ele>814.4</ele>
        <time>2025-03-02T10:01:29Z</time>
      </trkpt>
      <trkpt lat="45.72731" lon="4.59282">
        <ele>814.4</ele>
        <time>2025-03-02T10:01:30Z</time>
      </trkpt>
      <trkpt lat="45.72727" lon="4.59281">
        <ele>814.4</ele>
        <time>2025-03-02T10:01:31Z</time>
      </trkpt>
      <trkpt lat="45.72721" lon="4.5928">
        <ele>814.6</ele>
        <time>2025-03-02T10:01:32Z</time>
      </trkpt>
      <trkpt lat="45.72717" lon="4.59278">
        <ele>814.6</ele>
        <time>2025-03-02T10:01:33Z</time>
      </trkpt>
      <trkpt lat="45.72714" lon="4.59277">
        <ele>814.6</ele>
        <time>2025-03-02T10:01:34Z</time>
      </trkpt>
      <trkpt lat="45.72712" lon="4.59275">
        <ele>814.8</ele>
        <time>2025-03-02T10:01:35Z</time>
      </trkpt>
      <trkpt lat="45.72709" lon="4.59273">
        <ele>814.8</ele>
        <time>2025-03-02T10:01:36Z</time>
      </trkpt>
      <trkpt lat="45.72704" lon="4.59272">
        <ele>815</ele>
        <time>2025-03-02T10:01:37Z</time>
      </trkpt>
      <trkpt lat="45.727" lon="4.5927">
        <ele>815.2</ele>
        <time>2025-03-02T10:01:38Z</time>
      </trkpt>
      <trkpt lat="45.72696" lon="4.59267">
        <ele>815.4</ele>
        <time>2025-03-02T10:01:39Z</time>
      </trkpt>
      <trkpt lat="45.72694" lon="4.59265">
        <ele>815.4</ele>
        <time>2025-03-02T10:01:40Z</time>
      </trkpt>
      <trkpt lat="45.7269" lon="4.59264">
        <ele>816</ele>
        <time>2025-03-02T10:01:41Z</time>
      </trkpt>
      <trkpt lat="45.72686" lon="4.59261">
        <ele>816.2</ele>
        <time>2025-03-02T10:01:42Z</time>
      </trkpt>
      <trkpt lat="45.72682" lon="4.59258">
        <ele>816.2</ele>
        <time>2025-03-02T10:01:43Z</time>
      </trkpt>
      <trkpt lat="45.72679" lon="4.59257">
        <ele>816.4</ele>
        <time>2025-03-02T10:01:44Z</time>
      </trkpt>
      <trkpt lat="45.72676" lon="4.59255">
        <ele>816.4</ele>
        <time>2025-03-02T10:01:45Z</time>
      </trkpt>
      <trkpt lat="45.72673" lon="4.59253">
        <ele>816.4</ele>
        <time>2025-03-02T10:01:46Z</time>
      </trkpt>
      <trkpt lat="45.72669" lon="4.59251">
        <ele>816.6</ele>
        <time>2025-03-02T10:01:47Z</time>
      </trkpt>
      <trkpt lat="45.72667" lon="4.59249">
        <ele>816.6</ele>
        <time>2025-03-02T10:01:48Z</time>
      </trkpt>
      <trkpt lat="45.72664" lon="4.59247">
        <ele>816.8</ele>
        <time>2025-03-02T10:01:49Z</time>
      </trkpt>
      <trkpt lat="45.7266" lon="4.59246">
        <ele>816.8</ele>
        <time>2025-03-02T10:01:50Z</time>
      </trkpt>
      <trkpt lat="45.72656" lon="4.59244">
        <ele>816.8</ele>
        <time>2025-03-02T10:01:51Z</time>
      </trkpt>
      <trkpt lat="45.72652" lon="4.59243">
        <ele>816.8</ele>
        <time>2025-03-02T10:01:52Z</time>
      </trkpt>
      <trkpt lat="45.72648" lon="4.59242">
        <ele>816.8</ele>
        <time>2025-03-02T10:01:53Z</time>
      </trkpt>
      <trkpt lat="45.72645" lon="4.5924">
        <ele>816.8</ele>
        <time>2025-03-02T10:01:54Z</time>
      </trkpt>
      <trkpt lat="45.72641" lon="4.59239">
        <ele>816.8</ele>
        <time>2025-03-02T10:01:55Z</time>
      </trkpt>
      <trkpt lat="45.72638" lon="4.59238">
        <ele>817</ele>
        <time>2025-03-02T10:01:56Z</time>
      </trkpt>
      <trkpt lat="45.72634" lon="4.59237">
        <ele>817</ele>
        <time>2025-03-02T10:01:57Z</time>
      </trkpt>
      <trkpt lat="45.7263" lon="4.59235">
        <ele>817.2</ele>
        <time>2025-03-02T10:01:58Z</time>
      </trkpt>
      <trkpt lat="45.72627" lon="4.59235">
        <ele>817.2</ele>
        <time>2025-03-02T10:01:59Z</time>
      </trkpt>
      <trkpt lat="45.72623" lon="4.59234">
        <ele>817.2</ele>
        <time>2025-03-02T10:02:00Z</time>
      </trkpt>
      <trkpt lat="45.72619" lon="4.59233">
        <ele>817.4</ele>
        <time>2025-03-02T10:02:01Z</time>
      </trkpt>
      <trkpt lat="45.72616" lon="4.59232">
        <ele>817.6</ele>
        <time>2025-03-02T10:02:02Z</time>
      </trkpt>
      <trkpt lat="45.72613" lon="4.59232">
        <ele>817.6</ele>
        <time>2025-03-02T10:02:03Z</time>
      </trkpt>
      <trkpt lat="45.72609" lon="4.59231">
        <ele>817.8</ele>
        <time>2025-03-02T10:02:04Z</time>
      </trkpt>
      <trkpt lat="45.72606" lon="4.5923">
        <ele>817.8</ele>
        <time>2025-03-02T10:02:05Z</time>
      </trkpt>
      <trkpt lat="45.72602" lon="4.5923">
        <ele>817.8</ele>
        <time>2025-03-02T10:02:06Z</time>
      </trkpt>
      <trkpt lat="45.72599" lon="4.5923">
        <ele>817.8</ele>
        <time>2025-03-02T10:02:07Z</time>
      </trkpt>
      <trkpt lat="45.72595" lon="4.5923">
        <ele>818</ele>
        <time>2025-03-02T10:02:08Z</time>
      </trkpt>
      <trkpt lat="45.72591" lon="4.59231">
        <ele>818</ele>
        <time>2025-03-02T10:02:09Z</time>
      </trkpt>
      <trkpt lat="45.72587" lon="4.59231">
        <ele>818</ele>
        <time>2025-03-02T10:02:10Z</time>
      </trkpt>
      <trkpt lat="45.72584" lon="4.59232">
        <ele>818</ele>
        <time>2025-03-02T10:02:11Z</time>
      </trkpt>
      <trkpt lat="45.72581" lon="4.59232">
        <ele>818.2</ele>
        <time>2025-03-02T10:02:12Z</time>
      </trkpt>
      <trkpt lat="45.72578" lon="4.59232">
        <ele>818.2</ele>
        <time>2025-03-02T10:02:13Z</time>
      </trkpt>
      <trkpt lat="45.72574" lon="4.59232">
        <ele>818.6</ele>
        <time>2025-03-02T10:02:14Z</time>
      </trkpt>
      <trkpt lat="45.7257" lon="4.59232">
        <ele>818.6</ele>
        <time>2025-03-02T10:02:15Z</time>
      </trkpt>
      <trkpt lat="45.72566" lon="4.59232">
        <ele>818.8</ele>
        <time>2025-03-02T10:02:16Z</time>
      </trkpt>
      <trkpt lat="45.72562" lon="4.59233">
        <ele>818.8</ele>
        <time>2025-03-02T10:02:17Z</time>
      </trkpt>
      <trkpt lat="45.72558" lon="4.59233">
        <ele>818.8</ele>
        <time>2025-03-02T10:02:18Z</time>
      </trkpt>
      <trkpt lat="45.72554" lon="4.59233">
        <ele>818.8</ele>
        <time>2025-03-02T10:02:19Z</time>
      </trkpt>
      <trkpt lat="45.72551" lon="4.59233">
        <ele>819</ele>
        <time>2025-03-02T10:02:20Z</time>
      </trkpt>
      <trkpt lat="45.72547" lon="4.59234">
        <ele>819</ele>
        <time>2025-03-02T10:02:21Z</time>
      </trkpt>
      <trkpt lat="45.72543" lon="4.59235">
        <ele>819.2</ele>
        <time>2025-03-02T10:02:22Z</time>
      </trkpt>
      <trkpt lat="45.72539" lon="4.59236">
        <ele>819.2</ele>
        <time>2025-03-02T10:02:23Z</time>
      </trkpt>
      <trkpt lat="45.72535" lon="4.59238">
        <ele>819.2</ele>
        <time>2025-03-02T10:02:24Z</time>
      </trkpt>
      <trkpt lat="45.72531" lon="4.59239">
        <ele>819.2</ele>
        <time>2025-03-02T10:02:25Z</time>
      </trkpt>
      <trkpt lat="45.72527" lon="4.59239">
        <ele>819.4</ele>
        <time>2025-03-02T10:02:26Z</time>
      </trkpt>
      <trkpt lat="45.72523" lon="4.5924">
        <ele>819.4</ele>
        <time>2025-03-02T10:02:27Z</time>
      </trkpt>
      <trkpt lat="45.72519" lon="4.59241">
        <ele>819.6</ele>
        <time>2025-03-02T10:02:28Z</time>
      </trkpt>
      <trkpt lat="45.72516" lon="4.59242">
        <ele>819.6</ele>
        <time>2025-03-02T10:02:29Z</time>
      </trkpt>
      <trkpt lat="45.72512" lon="4.59242">
        <ele>819.8</ele>
        <time>2025-03-02T10:02:30Z</time>
      </trkpt>
      <trkpt lat="45.72509" lon="4.59243">
        <ele>819.8</ele>
        <time>2025-03-02T10:02:31Z</time>
      </trkpt>
      <trkpt lat="45.72505" lon="4.59243">
        <ele>820</ele>
        <time>2025-03-02T10:02:32Z</time>
      </trkpt>
      <trkpt lat="45.72502" lon="4.59244">
        <ele>820.4</ele>
        <time>2025-03-02T10:02:33Z</time>
      </trkpt>
      <trkpt lat="45.72499" lon="4.59245">
        <ele>820.4</ele>
        <time>2025-03-02T10:02:34Z</time>
      </trkpt>
      <trkpt lat="45.72496" lon="4.59245">
        <ele>820.8</ele>
        <time>2025-03-02T10:02:35Z</time>
      </trkpt>
      <trkpt lat="45.72493" lon="4.59246">
        <ele>821</ele>
        <time>2025-03-02T10:02:36Z</time>
      </trkpt>
      <trkpt lat="45.7249" lon="4.59248">
        <ele>821.2</ele>
        <time>2025-03-02T10:02:37Z</time>
      </trkpt>
      <trkpt lat="45.72487" lon="4.59249">
        <ele>821.4</ele>
        <time>2025-03-02T10:02:38Z</time>
      </trkpt>
      <trkpt lat="45.72484" lon="4.5925">
        <ele>821.4</ele>
        <time>2025-03-02T10:02:39Z</time>
      </trkpt>
      <trkpt lat="45.72481" lon="4.59251">
        <ele>821.6</ele>
        <time>2025-03-02T10:02:40Z</time>
      </trkpt>
      <trkpt lat="45.72477" lon="4.59252">
        <ele>822</ele>
        <time>2025-03-02T10:02:41Z</time>
      </trkpt>
      <trkpt lat="45.72474" lon="4.59252">
        <ele>822.2</ele>
        <time>2025-03-02T10:02:42Z</time>
      </trkpt>
      <trkpt lat="45.72471" lon="4.59253">
        <ele>822.4</ele>
        <time>2025-03-02T10:02:43Z</time>
      </trkpt>
      <trkpt lat="45.72468" lon="4.59253">
        <ele>822.6</ele>
        <time>2025-03-02T10:02:44Z</time>
      </trkpt>
      <trkpt lat="45.72466" lon="4.59254">
        <ele>822.6</ele>
        <time>2025-03-02T10:02:45Z</time>
      </trkpt>
      <trkpt lat="45.72463" lon="4.59254">
        <ele>822.8</ele>
        <time>2025-03-02T10:02:46Z</time>
      </trkpt>
      <trkpt lat="45.7246" lon="4.59255">
        <ele>823</ele>
        <time>2025-03-02T10:02:47Z</time>
      </trkpt>
      <trkpt lat="45.72458" lon="4.59256">
        <ele>823.4</ele>
        <time>2025-03-02T10:02:48Z</time>
      </trkpt>
      <trkpt lat="45.72456" lon="4.59256">
        <ele>823.6</ele>
        <time>2025-03-02T10:02:49Z</time>
      </trkpt>
      <trkpt lat="45.72453" lon="4.59257">
        <ele>823.8</ele>
        <time>2025-03-02T10:02:50Z</time>
      </trkpt>
      <trkpt lat="45.72451" lon="4.59258">
        <ele>824</ele>
        <time>2025-03-02T10:02:51Z</time>
      </trkpt>
      <trkpt lat="45.72448" lon="4.59259">
        <ele>824.6</ele>
        <time>2025-03-02T10:02:52Z</time>
      </trkpt>
      <trkpt lat="45.72446" lon="4.59259">
        <ele>824.6</ele>
        <time>2025-03-02T10:02:53Z</time>
      </trkpt>
      <trkpt lat="45.72443" lon="4.59259">
        <ele>824.8</ele>
        <time>2025-03-02T10:02:54Z</time>
      </trkpt>
      <trkpt lat="45.7244" lon="4.59259">
        <ele>825</ele>
        <time>2025-03-02T10:02:55Z</time>
      </trkpt>
      <trkpt lat="45.72436" lon="4.5926">
        <ele>825.2</ele>
        <time>2025-03-02T10:02:56Z</time>
      </trkpt>
      <trkpt lat="45.72433" lon="4.5926">
        <ele>825.4</ele>
        <time>2025-03-02T10:02:57Z</time>
      </trkpt>
      <trkpt lat="45.72431" lon="4.5926">
        <ele>825.4</ele>
        <time>2025-03-02T10:02:58Z</time>
      </trkpt>
      <trkpt lat="45.72428" lon="4.5926">
        <ele>825.6</ele>
        <time>2025-03-02T10:02:59Z</time>
      </trkpt>
      <trkpt lat="45.72425" lon="4.59261">
        <ele>825.8</ele>
        <time>2025-03-02T10:03:00Z</time>
      </trkpt>
      <trkpt lat="45.72422" lon="4.59261">
        <ele>826.2</ele>
        <time>2025-03-02T10:03:01Z</time>
      </trkpt>
      <trkpt lat="45.7242" lon="4.59261">
        <ele>826.4</ele>
        <time>2025-03-02T10:03:02Z</time>
      </trkpt>
      <trkpt lat="45.72417" lon="4.59261">
        <ele>826.6</ele>
        <time>2025-03-02T10:03:03Z</time>
      </trkpt>
      <trkpt lat="45.72415" lon="4.59262">
        <ele>826.8</ele>
        <time>2025-03-02T10:03:04Z</time>
      </trkpt>
      <trkpt lat="45.72412" lon="4.59263">
        <ele>827</ele>
        <time>2025-03-02T10:03:05Z</time>
      </trkpt>
      <trkpt lat="45.72409" lon="4.59263">
        <ele>827.2</ele>
        <time>2025-03-02T10:03:06Z</time>
      </trkpt>
      <trkpt lat="45.72407" lon="4.59263">
        <ele>827.4</ele>
        <time>2025-03-02T10:03:07Z</time>
      </trkpt>
      <trkpt lat="45.72404" lon="4.59264">
        <ele>827.6</ele>
        <time>2025-03-02T10:03:08Z</time>
      </trkpt>
      <trkpt lat="45.72401" lon="4.59264">
        <ele>827.8</ele>
        <time>2025-03-02T10:03:09Z</time>
      </trkpt>
      <trkpt lat="45.72399" lon="4.59264">
        <ele>828</ele>
        <time>2025-03-02T10:03:10Z</time>
      </trkpt>
      <trkpt lat="45.72396" lon="4.59264">
        <ele>828.2</ele>
        <time>2025-03-02T10:03:11Z</time>
      </trkpt>
      <trkpt lat="45.72393" lon="4.59265">
        <ele>828.4</ele>
        <time>2025-03-02T10:03:12Z</time>
      </trkpt>
      <trkpt lat="45.72391" lon="4.59265">
        <ele>828.6</ele>
        <time>2025-03-02T10:03:13Z</time>
      </trkpt>
      <trkpt lat="45.72388" lon="4.59265">
        <ele>829</ele>
        <time>2025-03-02T10:03:14Z</time>
      </trkpt>
      <trkpt lat="45.72385" lon="4.59266">
        <ele>829.2</ele>
        <time>2025-03-02T10:03:15Z</time>
      </trkpt>
      <trkpt lat="45.72383" lon="4.59266">
        <ele>829.4</ele>
        <time>2025-03-02T10:03:16Z</time>
      </trkpt>
      <trkpt lat="45.7238" lon="4.59267">
        <ele>829.4</ele>
        <time>2025-03-02T10:03:17Z</time>
      </trkpt>
      <trkpt lat="45.72377" lon="4.59267">
        <ele>829.8</ele>
        <time>2025-03-02T10:03:18Z</time>
      </trkpt>
      <trkpt lat="45.72374" lon="4.59268">
        <ele>829.8</ele>
        <time>2025-03-02T10:03:19Z</time>
      </trkpt>
      <trkpt lat="45.72371" lon="4.59268">
        <ele>830</ele>
        <time>2025-03-02T10:03:20Z</time>
      </trkpt>
      <trkpt lat="45.72369" lon="4.59268">
        <ele>830.4</ele>
        <time>2025-03-02T10:03:21Z</time>
      </trkpt>
      <trkpt lat="45.72366" lon="4.59268">
        <ele>830.6</ele>
        <time>2025-03-02T10:03:22Z</time>
      </trkpt>
      <trkpt lat="45.72363" lon="4.59268">
        <ele>830.8</ele>
        <time>2025-03-02T10:03:23Z</time>
      </trkpt>
      <trkpt lat="45.7236" lon="4.59269">
        <ele>830.8</ele>
        <time>2025-03-02T10:03:24Z</time>
      </trkpt>
      <trkpt lat="45.72357" lon="4.59269">
        <ele>831.2</ele>
        <time>2025-03-02T10:03:25Z</time>
      </trkpt>
      <trkpt lat="45.72354" lon="4.5927">
        <ele>831.4</ele>
        <time>2025-03-02T10:03:26Z</time>
      </trkpt>
      <trkpt lat="45.72351" lon="4.5927">
        <ele>831.6</ele>
        <time>2025-03-02T10:03:27Z</time>
      </trkpt>
      <trkpt lat="45.72349" lon="4.5927">
        <ele>831.8</ele>
        <time>2025-03-02T10:03:28Z</time>
      </trkpt>
      <trkpt lat="45.72346" lon="4.59271">
        <ele>832</ele>
        <time>2025-03-02T10:03:29Z</time>
      </trkpt>
      <trkpt lat="45.72343" lon="4.59272">
        <ele>832.2</ele>
        <time>2025-03-02T10:03:30Z</time>
      </trkpt>
      <trkpt lat="45.72341" lon="4.59272">
        <ele>832.4</ele>
        <time>2025-03-02T10:03:31Z</time>
      </trkpt>
      <trkpt lat="45.72338" lon="4.59273">
        <ele>832.6</ele>
        <time>2025-03-02T10:03:32Z</time>
      </trkpt>
      <trkpt lat="45.72335" lon="4.59273">
        <ele>833</ele>
        <time>2025-03-02T10:03:33Z</time>
      </trkpt>
      <trkpt lat="45.72333" lon="4.59273">
        <ele>833.2</ele>
        <time>2025-03-02T10:03:34Z</time>
      </trkpt>
      <trkpt lat="45.7233" lon="4.59273">
        <ele>833.4</ele>
        <time>2025-03-02T10:03:35Z</time>
      </trkpt>
      <trkpt lat="45.72328" lon="4.59274">
        <ele>833.6</ele>
        <time>2025-03-02T10:03:36Z</time>
      </trkpt>
      <trkpt lat="45.72325" lon="4.59274">
        <ele>833.8</ele>
        <time>2025-03-02T10:03:37Z</time>
      </trkpt>
      <trkpt lat="45.72322" lon="4.59275">
        <ele>834</ele>
        <time>2025-03-02T10:03:38Z</time>
      </trkpt>
      <trkpt lat="45.72319" lon="4.59275">
        <ele>834.2</ele>
        <time>2025-03-02T10:03:39Z</time>
      </trkpt>
      <trkpt lat="45.72316" lon="4.59275">
        <ele>834.2</ele>
        <time>2025-03-02T10:03:40Z</time>
      </trkpt>
      <trkpt lat="45.72313" lon="4.59275">
        <ele>834.6</ele>
        <time>2025-03-02T10:03:41Z</time>
      </trkpt>
      <trkpt lat="45.72311" lon="4.59275">
        <ele>834.6</ele>
        <time>2025-03-02T10:03:42Z</time>
      </trkpt>
      <trkpt lat="45.72308" lon="4.59276">
        <ele>835</ele>
        <time>2025-03-02T10:03:43Z</time>
      </trkpt>
      <trkpt lat="45.72306" lon="4.59276">
        <ele>835.4</ele>
        <time>2025-03-02T10:03:44Z</time>
      </trkpt>
      <trkpt lat="45.72303" lon="4.59276">
        <ele>835.6</ele>
        <time>2025-03-02T10:03:45Z</time>
      </trkpt>
      <trkpt lat="45.72301" lon="4.59276">
        <ele>835.8</ele>
        <time>2025-03-02T10:03:46Z</time>
      </trkpt>
      <trkpt lat="45.72298" lon="4.59277">
        <ele>836</ele>
        <time>2025-03-02T10:03:47Z</time>
      </trkpt>
      <trkpt lat="45.72296" lon="4.59278">
        <ele>836.4</ele>
        <time>2025-03-02T10:03:48Z</time>
      </trkpt>
      <trkpt lat="45.72294" lon="4.59279">
        <ele>836.4</ele>
        <time>2025-03-02T10:03:49Z</time>
      </trkpt>
      <trkpt lat="45.72293" lon="4.59279">
        <ele>836.6</ele>
        <time>2025-03-02T10:03:50Z</time>
      </trkpt>
      <trkpt lat="45.72293" lon="4.59279">
        <ele>836.6</ele>
        <time>2025-03-02T10:03:51Z</time>
      </trkpt>
      <trkpt lat="45.72293" lon="4.59279">
        <ele>836.8</ele>
        <time>2025-03-02T10:03:52Z</time>
      </trkpt>
      <trkpt lat="45.72293" lon="4.59279">
        <ele>836.8</ele>
        <time>2025-03-02T10:03:53Z</time>
      </trkpt>
      <trkpt lat="45.72293" lon="4.59279">
        <ele>836.8</ele>
        <time>2025-03-02T10:03:54Z</time>
      </trkpt>
      <trkpt lat="45.72293" lon="4.59279">
        <ele>836.8</ele>
        <time>2025-03-02T10:03:55Z</time>
      </trkpt>
      <trkpt lat="45.72293" lon="4.59279">
        <ele>836.8</ele>
        <time>2025-03-02T10:03:56Z</time>
      </trkpt>
      <trkpt lat="45.72293" lon="4.59279">
        <ele>836.8</ele>
        <time>2025-03-02T10:03:57Z</time>
      </trkpt>
      <trkpt lat="45.72293" lon="4.59279">
        <ele>836.8</ele>
        <time>2025-03-02T10:03:58Z</time>
      </trkpt>
      <trkpt lat="45.72293" lon="4.59279">
        <ele>836.8</ele>
        <time>2025-03-02T10:03:59Z</time>
      </trkpt>
      <trkpt lat="45.72293" lon="4.59279">
        <ele>836.8</ele>
        <time>2025-03-02T10:04:00Z</time>
      </trkpt>
      <trkpt lat="45.72293" lon="4.59279">
        <ele>836.6</ele>
        <time>2025-03-02T10:04:01Z</time>
      </trkpt>
      <trkpt lat="45.72293" lon="4.59279">
        <ele>836.6</ele>
        <time>2025-03-02T10:04:02Z</time>
      </trkpt>
      <trkpt lat="45.72293" lon="4.59279">
        <ele>836.6</ele>
        <time>2025-03-02T10:04:03Z</time>
      </trkpt>
      <trkpt lat="45.72293" lon="4.59279">
        <ele>836.6</ele>
        <time>2025-03-02T10:04:04Z</time>
      </trkpt>
      <trkpt lat="45.72293" lon="4.59279">
        <ele>836.6</ele>
        <time>2025-03-02T10:04:05Z</time>
      </trkpt>
      <trkpt lat="45.72293" lon="4.59279">
        <ele>836.6</ele>
        <time>2025-03-02T10:04:06Z</time>
      </trkpt>
      <trkpt lat="45.72293" lon="4.59279">
        <ele>836.6</ele>
        <time>2025-03-02T10:04:07Z</time>
      </trkpt>
      <trkpt lat="45.72293" lon="4.59279">
        <ele>836.6</ele>
        <time>2025-03-02T10:04:08Z</time>
      </trkpt>
      <trkpt lat="45.72293" lon="4.59279">
        <ele>836.6</ele>
        <time>2025-03-02T10:04:09Z</time>
      </trkpt>
      <trkpt lat="45.72293" lon="4.59279">
        <ele>836.4</ele>
        <time>2025-03-02T10:04:10Z</time>
      </trkpt>
      <trkpt lat="45.72293" lon="4.59279">
        <ele>836.4</ele>
        <time>2025-03-02T10:04:11Z</time>
      </trkpt>
      <trkpt lat="45.72293" lon="4.59279">
        <ele>836.4</ele>
        <time>2025-03-02T10:04:12Z</time>
      </trkpt>
      <trkpt lat="45.72293" lon="4.59279">
        <ele>836.4</ele>
        <time>2025-03-02T10:04:13Z</time>
      </trkpt>
      <trkpt lat="45.72293" lon="4.59279">
        <ele>836.4</ele>
        <time>2025-03-02T10:04:14Z</time>
      </trkpt>
      <trkpt lat="45.72293" lon="4.59279">
        <ele>836.4</ele>
        <time>2025-03-02T10:04:15Z</time>
      </trkpt>
      <trkpt lat="45.72293" lon="4.59279">
        <ele>836.4</ele>
        <time>2025-03-02T10:04:16Z</time>
      </trkpt>
      <trkpt lat="45.72293" lon="4.59279">
        <ele>836.4</ele>
        <time>2025-03-02T10:04:17Z</time>
      </trkpt>
      <trkpt lat="45.72293" lon="4.59279">
        <ele>836.4</ele>
        <time>2025-03-02T10:04:18Z</time>
      </trkpt>
      <trkpt lat="45.72293" lon="4.59279">
        <ele>836.4</ele>
        <time>2025-03-02T10:04:19Z</time>
      </trkpt>
      <trkpt lat="45.72293" lon="4.59279">
        <ele>836.2</ele>
        <time>2025-03-02T10:04:20Z</time>
      </trkpt>
      <trkpt lat="45.72293" lon="4.59279">
        <ele>836.2</ele>
        <time>2025-03-02T10:04:21Z</time>
      </trkpt>
      <trkpt lat="45.72293" lon="4.59279">
        <ele>836.2</ele>
        <time>2025-03-02T10:04:22Z</time>
      </trkpt>
      <trkpt lat="45.72293" lon="4.59279">
        <ele>836.2</ele>
        <time>2025-03-02T10:04:23Z</time>
      </trkpt>
      <trkpt lat="45.72293" lon="4.59279">
        <ele>836.2</ele>
        <time>2025-03-02T10:04:24Z</time>
      </trkpt>
      <trkpt lat="45.72293" lon="4.59279">
        <ele>836.2</ele>
        <time>2025-03-02T10:04:25Z</time>
      </trkpt>
      <trkpt lat="45.72293" lon="4.59279">
        <ele>836.2</ele>
        <time>2025-03-02T10:04:26Z</time>
      </trkpt>
      <trkpt lat="45.72293" lon="4.59279">
        <ele>836.2</ele>
        <time>2025-03-02T10:04:27Z</time>
      </trkpt>
      <trkpt lat="45.72292" lon="4.59279">
        <ele>836.2</ele>
        <time>2025-03-02T10:04:28Z</time>
      </trkpt>
      <trkpt lat="45.72292" lon="4.59279">
        <ele>836</ele>
        <time>2025-03-02T10:04:29Z</time>
      </trkpt>
      <trkpt lat="45.72291" lon="4.59278">
        <ele>836</ele>
        <time>2025-03-02T10:04:30Z</time>
      </trkpt>
      <trkpt lat="45.7229" lon="4.59275">
        <ele>836</ele>
        <time>2025-03-02T10:04:31Z</time>
      </trkpt>
      <trkpt lat="45.7229" lon="4.59274">
        <ele>835.8</ele>
        <time>2025-03-02T10:04:32Z</time>
      </trkpt>
      <trkpt lat="45.72291" lon="4.59274">
        <ele>835.6</ele>
        <time>2025-03-02T10:04:33Z</time>
      </trkpt>
      <trkpt lat="45.72292" lon="4.59274">
        <ele>835.6</ele>
        <time>2025-03-02T10:04:34Z</time>
      </trkpt>
      <trkpt lat="45.72292" lon="4.59273">
        <ele>835.4</ele>
        <time>2025-03-02T10:04:35Z</time>
      </trkpt>
      <trkpt lat="45.72292" lon="4.59272">
        <ele>835.4</ele>
        <time>2025-03-02T10:04:36Z</time>
      </trkpt>
      <trkpt lat="45.72292" lon="4.59271">
        <ele>835.4</ele>
        <time>2025-03-02T10:04:37Z</time>
      </trkpt>
      <trkpt lat="45.72292" lon="4.59271">
        <ele>835.4</ele>
        <time>2025-03-02T10:04:38Z</time>
      </trkpt>
      <trkpt lat="45.72292" lon="4.59271">
        <ele>835.4</ele>
        <time>2025-03-02T10:04:39Z</time>
      </trkpt>
      <trkpt lat="45.72292" lon="4.59271">
        <ele>835.4</ele>
        <time>2025-03-02T10:04:40Z</time>
      </trkpt>
      <trkpt lat="45.72292" lon="4.59271">
        <ele>835.4</ele>
        <time>2025-03-02T10:04:41Z</time>
      </trkpt>
      <trkpt lat="45.72292" lon="4.59271">
        <ele>835.4</ele>
        <time>2025-03-02T10:04:42Z</time>
      </trkpt>
      <trkpt lat="45.72292" lon="4.59271">
        <ele>835.4</ele>
        <time>2025-03-02T10:04:43Z</time>
      </trkpt>
      <trkpt lat="45.72292" lon="4.59271">
        <ele>835.4</ele>
        <time>2025-03-02T10:04:44Z</time>
      </trkpt>
      <trkpt lat="45.72292" lon="4.59271">
        <ele>835.4</ele>
        <time>2025-03-02T10:04:45Z</time>
      </trkpt>
      <trkpt lat="45.72292" lon="4.59271">
        <ele>835.4</ele>
        <time>2025-03-02T10:04:46Z</time>
      </trkpt>
      <trkpt lat="45.72292" lon="4.59271">
        <ele>835.4</ele>
        <time>2025-03-02T10:04:47Z</time>
      </trkpt>
      <trkpt lat="45.72292" lon="4.59271">
        <ele>835.2</ele>
        <time>2025-03-02T10:04:48Z</time>
      </trkpt>
      <trkpt lat="45.72292" lon="4.59271">
        <ele>835.4</ele>
        <time>2025-03-02T10:04:49Z</time>
      </trkpt>
      <trkpt lat="45.72292" lon="4.59271">
        <ele>835.4</ele>
        <time>2025-03-02T10:04:50Z</time>
      </trkpt>
      <trkpt lat="45.72292" lon="4.59271">
        <ele>835.2</ele>
        <time>2025-03-02T10:04:51Z</time>
      </trkpt>
      <trkpt lat="45.72292" lon="4.59271">
        <ele>835.2</ele>
        <time>2025-03-02T10:04:52Z</time>
      </trkpt>
      <trkpt lat="45.72292" lon="4.59271">
        <ele>835.2</ele>
        <time>2025-03-02T10:04:53Z</time>
      </trkpt>
      <trkpt lat="45.72292" lon="4.59271">
        <ele>835.2</ele>
        <time>2025-03-02T10:04:54Z</time>
      </trkpt>
      <trkpt lat="45.72292" lon="4.59271">
        <ele>835.2</ele>
        <time>2025-03-02T10:04:55Z</time>
      </trkpt>
      <trkpt lat="45.72292" lon="4.59271">
        <ele>835.2</ele>
        <time>2025-03-02T10:04:56Z</time>
      </trkpt>
      <trkpt lat="45.72292" lon="4.59271">
        <ele>835.2</ele>
        <time>2025-03-02T10:04:57Z</time>
      </trkpt>
      <trkpt lat="45.72292" lon="4.59271">
        <ele>835.2</ele>
        <time>2025-03-02T10:04:58Z</time>
      </trkpt>
      <trkpt lat="45.72292" lon="4.59271">
        <ele>835.2</ele>
        <time>2025-03-02T10:04:59Z</time>
      </trkpt>
      <trkpt lat="45.72292" lon="4.59271">
        <ele>835.2</ele>
        <time>2025-03-02T10:05:00Z</time>
      </trkpt>
      <trkpt lat="45.72292" lon="4.59271">
        <ele>835.2</ele>
        <time>2025-03-02T10:05:01Z</time>
      </trkpt>
      <trkpt lat="45.72292" lon="4.5927">
        <ele>835.2</ele>
        <time>2025-03-02T10:05:02Z</time>
      </trkpt>
      <trkpt lat="45.72293" lon="4.59269">
        <ele>835.2</ele>
        <time>2025-03-02T10:05:03Z</time>
      </trkpt>
      <trkpt lat="45.72293" lon="4.59265">
        <ele>835.2</ele>
        <time>2025-03-02T10:05:04Z</time>
      </trkpt>
      <trkpt lat="45.72294" lon="4.59261">
        <ele>835</ele>
        <time>2025-03-02T10:05:05Z</time>
      </trkpt>
      <trkpt lat="45.72295" lon="4.59256">
        <ele>834.8</ele>
        <time>2025-03-02T10:05:06Z</time>
      </trkpt>
      <trkpt lat="45.72296" lon="4.5925">
        <ele>834.4</ele>
        <time>2025-03-02T10:05:07Z</time>
      </trkpt>
      <trkpt lat="45.72297" lon="4.59244">
        <ele>833.6</ele>
        <time>2025-03-02T10:05:08Z</time>
      </trkpt>
      <trkpt lat="45.72298" lon="4.59237">
        <ele>833.2</ele>
        <time>2025-03-02T10:05:09Z</time>
      </trkpt>
      <trkpt lat="45.72299" lon="4.5923">
        <ele>832.6</ele>
        <time>2025-03-02T10:05:10Z</time>
      </trkpt>
      <trkpt lat="45.72301" lon="4.59222">
        <ele>832.2</ele>
        <time>2025-03-02T10:05:11Z</time>
      </trkpt>
      <trkpt lat="45.72302" lon="4.59214">
        <ele>831.4</ele>
        <time>2025-03-02T10:05:12Z</time>
      </trkpt>
      <trkpt lat="45.72304" lon="4.59206">
        <ele>830.8</ele>
        <time>2025-03-02T10:05:13Z</time>
      </trkpt>
      <trkpt lat="45.72305" lon="4.59198">
        <ele>830.2</ele>
        <time>2025-03-02T10:05:14Z</time>
      </trkpt>
      <trkpt lat="45.72307" lon="4.5919">
        <ele>830</ele>
        <time>2025-03-02T10:05:15Z</time>
      </trkpt>
      <trkpt lat="45.72308" lon="4.59182">
        <ele>829.6</ele>
        <time>2025-03-02T10:05:16Z</time>
      </trkpt>
      <trkpt lat="45.72309" lon="4.59174">
        <ele>829</ele>
        <time>2025-03-02T10:05:17Z</time>
      </trkpt>
      <trkpt lat="45.7231" lon="4.59166">
        <ele>828.8</ele>
        <time>2025-03-02T10:05:18Z</time>
      </trkpt>
      <trkpt lat="45.72312" lon="4.59159">
        <ele>828.8</ele>
        <time>2025-03-02T10:05:19Z</time>
      </trkpt>
      <trkpt lat="45.72313" lon="4.59151">
        <ele>828.6</ele>
        <time>2025-03-02T10:05:20Z</time>
      </trkpt>
      <trkpt lat="45.72315" lon="4.59143">
        <ele>828.6</ele>
        <time>2025-03-02T10:05:21Z</time>
      </trkpt>
      <trkpt lat="45.72317" lon="4.59136">
        <ele>828.2</ele>
        <time>2025-03-02T10:05:22Z</time>
      </trkpt>
      <trkpt lat="45.72319" lon="4.5913">
        <ele>828.2</ele>
        <time>2025-03-02T10:05:23Z</time>
      </trkpt>
      <trkpt lat="45.72321" lon="4.59124">
        <ele>828.2</ele>
        <time>2025-03-02T10:05:24Z</time>
      </trkpt>
      <trkpt lat="45.72323" lon="4.59118">
        <ele>828</ele>
        <time>2025-03-02T10:05:25Z</time>
      </trkpt>
      <trkpt lat="45.72325" lon="4.59112">
        <ele>828</ele>
        <time>2025-03-02T10:05:26Z</time>
      </trkpt>
      <trkpt lat="45.72328" lon="4.59106">
        <ele>828</ele>
        <time>2025-03-02T10:05:27Z</time>
      </trkpt>
      <trkpt lat="45.7233" lon="4.59101">
        <ele>827.8</ele>
        <time>2025-03-02T10:05:28Z</time>
      </trkpt>
      <trkpt lat="45.72333" lon="4.59095">
        <ele>827.8</ele>
        <time>2025-03-02T10:05:29Z</time>
      </trkpt>
      <trkpt lat="45.72337" lon="4.5909">
        <ele>827.4</ele>
        <time>2025-03-02T10:05:30Z</time>
      </trkpt>
      <trkpt lat="45.7234" lon="4.59084">
        <ele>827.2</ele>
        <time>2025-03-02T10:05:31Z</time>
      </trkpt>
      <trkpt lat="45.72344" lon="4.59079">
        <ele>827</ele>
        <time>2025-03-02T10:05:32Z</time>
      </trkpt>
      <trkpt lat="45.72347" lon="4.59073">
        <ele>827</ele>
        <time>2025-03-02T10:05:33Z</time>
      </trkpt>
      <trkpt lat="45.7235" lon="4.59068">
        <ele>827</ele>
        <time>2025-03-02T10:05:34Z</time>
      </trkpt>
      <trkpt lat="45.72354" lon="4.59063">
        <ele>826.8</ele>
        <time>2025-03-02T10:05:35Z</time>
      </trkpt>
      <trkpt lat="45.72357" lon="4.59058">
        <ele>826.8</ele>
        <time>2025-03-02T10:05:36Z</time>
      </trkpt>
      <trkpt lat="45.72361" lon="4.59053">
        <ele>826.6</ele>
        <time>2025-03-02T10:05:37Z</time>
      </trkpt>
      <trkpt lat="45.72365" lon="4.59048">
        <ele>826.6</ele>
        <time>2025-03-02T10:05:38Z</time>
      </trkpt>
      <trkpt lat="45.72368" lon="4.59042">
        <ele>826.2</ele>
        <time>2025-03-02T10:05:39Z</time>
      </trkpt>
      <trkpt lat="45.72371" lon="4.59037">
        <ele>826.2</ele>
        <time>2025-03-02T10:05:40Z</time>
      </trkpt>
      <trkpt lat="45.72375" lon="4.5903">
        <ele>826</ele>
        <time>2025-03-02T10:05:41Z</time>
      </trkpt>
      <trkpt lat="45.72378" lon="4.59024">
        <ele>826</ele>
        <time>2025-03-02T10:05:42Z</time>
      </trkpt>
      <trkpt lat="45.72382" lon="4.59018">
        <ele>826</ele>
        <time>2025-03-02T10:05:43Z</time>
      </trkpt>
      <trkpt lat="45.72385" lon="4.59012">
        <ele>825.8</ele>
        <time>2025-03-02T10:05:44Z</time>
      </trkpt>
      <trkpt lat="45.72388" lon="4.59007">
        <ele>825.8</ele>
        <time>2025-03-02T10:05:45Z</time>
      </trkpt>
      <trkpt lat="45.72392" lon="4.59001">
        <ele>825.6</ele>
        <time>2025-03-02T10:05:46Z</time>
      </trkpt>
      <trkpt lat="45.72395" lon="4.58995">
        <ele>825.6</ele>
        <time>2025-03-02T10:05:47Z</time>
      </trkpt>
      <trkpt lat="45.72398" lon="4.5899">
        <ele>825.6</ele>
        <time>2025-03-02T10:05:48Z</time>
      </trkpt>
      <trkpt lat="45.72401" lon="4.58984">
        <ele>825.6</ele>
        <time>2025-03-02T10:05:49Z</time>
      </trkpt>
      <trkpt lat="45.72404" lon="4.58978">
        <ele>825.6</ele>
        <time>2025-03-02T10:05:50Z</time>
      </trkpt>
      <trkpt lat="45.72408" lon="4.58973">
        <ele>825.6</ele>
        <time>2025-03-02T10:05:51Z</time>
      </trkpt>
      <trkpt lat="45.72412" lon="4.58967">
        <ele>825.6</ele>
        <time>2025-03-02T10:05:52Z</time>
      </trkpt>
      <trkpt lat="45.72416" lon="4.58962">
        <ele>825.6</ele>
        <time>2025-03-02T10:05:53Z</time>
      </trkpt>
      <trkpt lat="45.7242" lon="4.58956">
        <ele>825.6</ele>
        <time>2025-03-02T10:05:54Z</time>
      </trkpt>
      <trkpt lat="45.72424" lon="4.5895">
        <ele>825.4</ele>
        <time>2025-03-02T10:05:55Z</time>
      </trkpt>
      <trkpt lat="45.72428" lon="4.58944">
        <ele>825.2</ele>
        <time>2025-03-02T10:05:56Z</time>
      </trkpt>
      <trkpt lat="45.72432" lon="4.58938">
        <ele>825.2</ele>
        <time>2025-03-02T10:05:57Z</time>
      </trkpt>
      <trkpt lat="45.72435" lon="4.58931">
        <ele>825.2</ele>
        <time>2025-03-02T10:05:58Z</time>
      </trkpt>
      <trkpt lat="45.72438" lon="4.58925">
        <ele>825.2</ele>
        <time>2025-03-02T10:05:59Z</time>
      </trkpt>
      <trkpt lat="45.72441" lon="4.58919">
        <ele>825.2</ele>
        <time>2025-03-02T10:06:00Z</time>
      </trkpt>
      <trkpt lat="45.72444" lon="4.58912">
        <ele>825.6</ele>
        <time>2025-03-02T10:06:01Z</time>
      </trkpt>
      <trkpt lat="45.72446" lon="4.58906">
        <ele>825.6</ele>
        <time>2025-03-02T10:06:02Z</time>
      </trkpt>
      <trkpt lat="45.72449" lon="4.58899">
        <ele>825.8</ele>
        <time>2025-03-02T10:06:03Z</time>
      </trkpt>
      <trkpt lat="45.72451" lon="4.58893">
        <ele>825.8</ele>
        <time>2025-03-02T10:06:04Z</time>
      </trkpt>
      <trkpt lat="45.72453" lon="4.58888">
        <ele>826</ele>
        <time>2025-03-02T10:06:05Z</time>
      </trkpt>
      <trkpt lat="45.72455" lon="4.58883">
        <ele>826.2</ele>
        <time>2025-03-02T10:06:06Z</time>
      </trkpt>
      <trkpt lat="45.72456" lon="4.58878">
        <ele>826.6</ele>
        <time>2025-03-02T10:06:07Z</time>
      </trkpt>
      <trkpt lat="45.72458" lon="4.58873">
        <ele>826.8</ele>
        <time>2025-03-02T10:06:08Z</time>
      </trkpt>
      <trkpt lat="45.72459" lon="4.58867">
        <ele>827</ele>
        <time>2025-03-02T10:06:09Z</time>
      </trkpt>
      <trkpt lat="45.72461" lon="4.58862">
        <ele>827.4</ele>
        <time>2025-03-02T10:06:10Z</time>
      </trkpt>
      <trkpt lat="45.72462" lon="4.58856">
        <ele>827.6</ele>
        <time>2025-03-02T10:06:11Z</time>
      </trkpt>
      <trkpt lat="45.72464" lon="4.58851">
        <ele>827.6</ele>
        <time>2025-03-02T10:06:12Z</time>
      </trkpt>
      <trkpt lat="45.72465" lon="4.58845">
        <ele>827.6</ele>
        <time>2025-03-02T10:06:13Z</time>
      </trkpt>
      <trkpt lat="45.72466" lon="4.58839">
        <ele>827.6</ele>
        <time>2025-03-02T10:06:14Z</time>
      </trkpt>
      <trkpt lat="45.72467" lon="4.58833">
        <ele>827.6</ele>
        <time>2025-03-02T10:06:15Z</time>
      </trkpt>
      <trkpt lat="45.72467" lon="4.58827">
        <ele>827.6</ele>
        <time>2025-03-02T10:06:16Z</time>
      </trkpt>
      <trkpt lat="45.72468" lon="4.58821">
        <ele>827.6</ele>
        <time>2025-03-02T10:06:17Z</time>
      </trkpt>
      <trkpt lat="45.72468" lon="4.58815">
        <ele>827.6</ele>
        <time>2025-03-02T10:06:18Z</time>
      </trkpt>
      <trkpt lat="45.72468" lon="4.5881">
        <ele>827.6</ele>
        <time>2025-03-02T10:06:19Z</time>
      </trkpt>
      <trkpt lat="45.72469" lon="4.58804">
        <ele>827.6</ele>
        <time>2025-03-02T10:06:20Z</time>
      </trkpt>
      <trkpt lat="45.7247" lon="4.58798">
        <ele>827.6</ele>
        <time>2025-03-02T10:06:21Z</time>
      </trkpt>
      <trkpt lat="45.7247" lon="4.58792">
        <ele>827.6</ele>
        <time>2025-03-02T10:06:22Z</time>
      </trkpt>
      <trkpt lat="45.72469" lon="4.58786">
        <ele>827.6</ele>
        <time>2025-03-02T10:06:23Z</time>
      </trkpt>
      <trkpt lat="45.72468" lon="4.5878">
        <ele>827.6</ele>
        <time>2025-03-02T10:06:24Z</time>
      </trkpt>
      <trkpt lat="45.72467" lon="4.58775">
        <ele>827.6</ele>
        <time>2025-03-02T10:06:25Z</time>
      </trkpt>
      <trkpt lat="45.72465" lon="4.58769">
        <ele>827.6</ele>
        <time>2025-03-02T10:06:26Z</time>
      </trkpt>
      <trkpt lat="45.72464" lon="4.58764">
        <ele>827.6</ele>
        <time>2025-03-02T10:06:27Z</time>
      </trkpt>
      <trkpt lat="45.72463" lon="4.58758">
        <ele>827.6</ele>
        <time>2025-03-02T10:06:28Z</time>
      </trkpt>
      <trkpt lat="45.72462" lon="4.58752">
        <ele>827.4</ele>
        <time>2025-03-02T10:06:29Z</time>
      </trkpt>
      <trkpt lat="45.7246" lon="4.58746">
        <ele>827.4</ele>
        <time>2025-03-02T10:06:30Z</time>
      </trkpt>
      <trkpt lat="45.72458" lon="4.5874">
        <ele>827.2</ele>
        <time>2025-03-02T10:06:31Z</time>
      </trkpt>
      <trkpt lat="45.72455" lon="4.58734">
        <ele>827</ele>
        <time>2025-03-02T10:06:32Z</time>
      </trkpt>
      <trkpt lat="45.72452" lon="4.58728">
        <ele>827</ele>
        <time>2025-03-02T10:06:33Z</time>
      </trkpt>
      <trkpt lat="45.7245" lon="4.58723">
        <ele>826.8</ele>
        <time>2025-03-02T10:06:34Z</time>
      </trkpt>
      <trkpt lat="45.72447" lon="4.58718">
        <ele>826.8</ele>
        <time>2025-03-02T10:06:35Z</time>
      </trkpt>
      <trkpt lat="45.72445" lon="4.58713">
        <ele>826.8</ele>
        <time>2025-03-02T10:06:36Z</time>
      </trkpt>
      <trkpt lat="45.72443" lon="4.58708">
        <ele>826.8</ele>
        <time>2025-03-02T10:06:37Z</time>
      </trkpt>
      <trkpt lat="45.72441" lon="4.58704">
        <ele>826.8</ele>
        <time>2025-03-02T10:06:38Z</time>
      </trkpt>
      <trkpt lat="45.72439" lon="4.587">
        <ele>827</ele>
        <time>2025-03-02T10:06:39Z</time>
      </trkpt>
      <trkpt lat="45.72438" lon="4.58696">
        <ele>827</ele>
        <time>2025-03-02T10:06:40Z</time>
      </trkpt>
      <trkpt lat="45.72436" lon="4.58692">
        <ele>827</ele>
        <time>2025-03-02T10:06:41Z</time>
      </trkpt>
      <trkpt lat="45.72434" lon="4.58688">
        <ele>827</ele>
        <time>2025-03-02T10:06:42Z</time>
      </trkpt>
      <trkpt lat="45.72432" lon="4.58683">
        <ele>827</ele>
        <time>2025-03-02T10:06:43Z</time>
      </trkpt>
      <trkpt lat="45.72429" lon="4.58678">
        <ele>827</ele>
        <time>2025-03-02T10:06:44Z</time>
      </trkpt>
      <trkpt lat="45.72426" lon="4.58673">
        <ele>827</ele>
        <time>2025-03-02T10:06:45Z</time>
      </trkpt>
      <trkpt lat="45.72424" lon="4.58668">
        <ele>827</ele>
        <time>2025-03-02T10:06:46Z</time>
      </trkpt>
      <trkpt lat="45.72422" lon="4.58663">
        <ele>827</ele>
        <time>2025-03-02T10:06:47Z</time>
      </trkpt>
      <trkpt lat="45.72419" lon="4.58657">
        <ele>827</ele>
        <time>2025-03-02T10:06:48Z</time>
      </trkpt>
      <trkpt lat="45.72417" lon="4.58651">
        <ele>827</ele>
        <time>2025-03-02T10:06:49Z</time>
      </trkpt>
      <trkpt lat="45.72416" lon="4.58646">
        <ele>827.2</ele>
        <time>2025-03-02T10:06:50Z</time>
      </trkpt>
      <trkpt lat="45.72413" lon="4.58641">
        <ele>827.2</ele>
        <time>2025-03-02T10:06:51Z</time>
      </trkpt>
      <trkpt lat="45.7241" lon="4.58636">
        <ele>827.2</ele>
        <time>2025-03-02T10:06:52Z</time>
      </trkpt>
      <trkpt lat="45.72409" lon="4.58632">
        <ele>827.4</ele>
        <time>2025-03-02T10:06:53Z</time>
      </trkpt>
      <trkpt lat="45.72407" lon="4.58627">
        <ele>827.6</ele>
        <time>2025-03-02T10:06:54Z</time>
      </trkpt>
      <trkpt lat="45.72406" lon="4.58622">
        <ele>827.8</ele>
        <time>2025-03-02T10:06:55Z</time>
      </trkpt>
      <trkpt lat="45.72404" lon="4.58617">
        <ele>828.2</ele>
        <time>2025-03-02T10:06:56Z</time>
      </trkpt>
      <trkpt lat="45.72403" lon="4.58613">
        <ele>828.6</ele>
        <time>2025-03-02T10:06:57Z</time>
      </trkpt>
      <trkpt lat="45.724" lon="4.5861">
        <ele>828.6</ele>
        <time>2025-03-02T10:06:58Z</time>
      </trkpt>
      <trkpt lat="45.72398" lon="4.58604">
        <ele>829</ele>
        <time>2025-03-02T10:06:59Z</time>
      </trkpt>
      <trkpt lat="45.72397" lon="4.58599">
        <ele>829</ele>
        <time>2025-03-02T10:07:00Z</time>
      </trkpt>
      <trkpt lat="45.72396" lon="4.58592">
        <ele>829</ele>
        <time>2025-03-02T10:07:01Z</time>
      </trkpt>
      <trkpt lat="45.72395" lon="4.58586">
        <ele>829</ele>
        <time>2025-03-02T10:07:02Z</time>
      </trkpt>
      <trkpt lat="45.72394" lon="4.58582">
        <ele>829</ele>
        <time>2025-03-02T10:07:03Z</time>
      </trkpt>
      <trkpt lat="45.72393" lon="4.58575">
        <ele>829</ele>
        <time>2025-03-02T10:07:04Z</time>
      </trkpt>
      <trkpt lat="45.7239" lon="4.58568">
        <ele>829</ele>
        <time>2025-03-02T10:07:05Z</time>
      </trkpt>
      <trkpt lat="45.72388" lon="4.58562">
        <ele>828.8</ele>
        <time>2025-03-02T10:07:06Z</time>
      </trkpt>
      <trkpt lat="45.72388" lon="4.58557">
        <ele>828.6</ele>
        <time>2025-03-02T10:07:07Z</time>
      </trkpt>
      <trkpt lat="45.72388" lon="4.58549">
        <ele>828.4</ele>
        <time>2025-03-02T10:07:08Z</time>
      </trkpt>
      <trkpt lat="45.72385" lon="4.58544">
        <ele>828.2</ele>
        <time>2025-03-02T10:07:09Z</time>
      </trkpt>
      <trkpt lat="45.72381" lon="4.5854">
        <ele>828.2</ele>
        <time>2025-03-02T10:07:10Z</time>
      </trkpt>
      <trkpt lat="45.72379" lon="4.58536">
        <ele>828.2</ele>
        <time>2025-03-02T10:07:11Z</time>
      </trkpt>
      <trkpt lat="45.72379" lon="4.58532">
        <ele>828.2</ele>
        <time>2025-03-02T10:07:12Z</time>
      </trkpt>
      <trkpt lat="45.72379" lon="4.58525">
        <ele>828.2</ele>
        <time>2025-03-02T10:07:13Z</time>
      </trkpt>
      <trkpt lat="45.72379" lon="4.58519">
        <ele>828.2</ele>
        <time>2025-03-02T10:07:14Z</time>
      </trkpt>
      <trkpt lat="45.72378" lon="4.58517">
        <ele>828.2</ele>
        <time>2025-03-02T10:07:15Z</time>
      </trkpt>
      <trkpt lat="45.72377" lon="4.58515">
        <ele>828.4</ele>
        <time>2025-03-02T10:07:16Z</time>
      </trkpt>
      <trkpt lat="45.72376" lon="4.58512">
        <ele>828.4</ele>
        <time>2025-03-02T10:07:17Z</time>
      </trkpt>
      <trkpt lat="45.72375" lon="4.58509">
        <ele>828.4</ele>
        <time>2025-03-02T10:07:18Z</time>
      </trkpt>
      <trkpt lat="45.72374" lon="4.58506">
        <ele>828.4</ele>
        <time>2025-03-02T10:07:19Z</time>
      </trkpt>
      <trkpt lat="45.72373" lon="4.58503">
        <ele>828.6</ele>
        <time>2025-03-02T10:07:20Z</time>
      </trkpt>
      <trkpt lat="45.72373" lon="4.58498">
        <ele>828.6</ele>
        <time>2025-03-02T10:07:21Z</time>
      </trkpt>
      <trkpt lat="45.72373" lon="4.58494">
        <ele>828.6</ele>
        <time>2025-03-02T10:07:22Z</time>
      </trkpt>
      <trkpt lat="45.72372" lon="4.5849">
        <ele>828.6</ele>
        <time>2025-03-02T10:07:23Z</time>
      </trkpt>
      <trkpt lat="45.7237" lon="4.58487">
        <ele>828.6</ele>
        <time>2025-03-02T10:07:24Z</time>
      </trkpt>
      <trkpt lat="45.72369" lon="4.58484">
        <ele>828.6</ele>
        <time>2025-03-02T10:07:25Z</time>
      </trkpt>
      <trkpt lat="45.72368" lon="4.58481">
        <ele>828.6</ele>
        <time>2025-03-02T10:07:26Z</time>
      </trkpt>
      <trkpt lat="45.72368" lon="4.58478">
        <ele>828.4</ele>
        <time>2025-03-02T10:07:27Z</time>
      </trkpt>
      <trkpt lat="45.72369" lon="4.58473">
        <ele>828.4</ele>
        <time>2025-03-02T10:07:28Z</time>
      </trkpt>
      <trkpt lat="45.7237" lon="4.58467">
        <ele>828.4</ele>
        <time>2025-03-02T10:07:29Z</time>
      </trkpt>
      <trkpt lat="45.72371" lon="4.58462">
        <ele>828.2</ele>
        <time>2025-03-02T10:07:30Z</time>
      </trkpt>
      <trkpt lat="45.72371" lon="4.58454">
        <ele>827.8</ele>
        <time>2025-03-02T10:07:31Z</time>
      </trkpt>
      <trkpt lat="45.72372" lon="4.58447">
        <ele>827.6</ele>
        <time>2025-03-02T10:07:32Z</time>
      </trkpt>
      <trkpt lat="45.72371" lon="4.5844">
        <ele>827.4</ele>
        <time>2025-03-02T10:07:33Z</time>
      </trkpt>
      <trkpt lat="45.7237" lon="4.58432">
        <ele>827.2</ele>
        <time>2025-03-02T10:07:34Z</time>
      </trkpt>
      <trkpt lat="45.72369" lon="4.58426">
        <ele>827</ele>
        <time>2025-03-02T10:07:35Z</time>
      </trkpt>
      <trkpt lat="45.72367" lon="4.5842">
        <ele>826.6</ele>
        <time>2025-03-02T10:07:36Z</time>
      </trkpt>
      <trkpt lat="45.72367" lon="4.58414">
        <ele>826.4</ele>
        <time>2025-03-02T10:07:37Z</time>
      </trkpt>
      <trkpt lat="45.72366" lon="4.58408">
        <ele>826</ele>
        <time>2025-03-02T10:07:38Z</time>
      </trkpt>
      <trkpt lat="45.72366" lon="4.58403">
        <ele>825.8</ele>
        <time>2025-03-02T10:07:39Z</time>
      </trkpt>
      <trkpt lat="45.72367" lon="4.58398">
        <ele>825.6</ele>
        <time>2025-03-02T10:07:40Z</time>
      </trkpt>
      <trkpt lat="45.72367" lon="4.58394">
        <ele>825.4</ele>
        <time>2025-03-02T10:07:41Z</time>
      </trkpt>
      <trkpt lat="45.72365" lon="4.58387">
        <ele>825.2</ele>
        <time>2025-03-02T10:07:42Z</time>
      </trkpt>
      <trkpt lat="45.72363" lon="4.58382">
        <ele>825</ele>
        <time>2025-03-02T10:07:43Z</time>
      </trkpt>
      <trkpt lat="45.72361" lon="4.58376">
        <ele>825</ele>
        <time>2025-03-02T10:07:44Z</time>
      </trkpt>
      <trkpt lat="45.72357" lon="4.58369">
        <ele>824.8</ele>
        <time>2025-03-02T10:07:45Z</time>
      </trkpt>
      <trkpt lat="45.72357" lon="4.58361">
        <ele>824.6</ele>
        <time>2025-03-02T10:07:46Z</time>
      </trkpt>
      <trkpt lat="45.72358" lon="4.58354">
        <ele>824.6</ele>
        <time>2025-03-02T10:07:47Z</time>
      </trkpt>
      <trkpt lat="45.72357" lon="4.58347">
        <ele>824.6</ele>
        <time>2025-03-02T10:07:48Z</time>
      </trkpt>
      <trkpt lat="45.72357" lon="4.58341">
        <ele>824.8</ele>
        <time>2025-03-02T10:07:49Z</time>
      </trkpt>
      <trkpt lat="45.72356" lon="4.58336">
        <ele>824.8</ele>
        <time>2025-03-02T10:07:50Z</time>
      </trkpt>
      <trkpt lat="45.72356" lon="4.5833">
        <ele>824.8</ele>
        <time>2025-03-02T10:07:51Z</time>
      </trkpt>
      <trkpt lat="45.72355" lon="4.58322">
        <ele>825</ele>
        <time>2025-03-02T10:07:52Z</time>
      </trkpt>
      <trkpt lat="45.72355" lon="4.58318">
        <ele>825.2</ele>
        <time>2025-03-02T10:07:53Z</time>
      </trkpt>
      <trkpt lat="45.72356" lon="4.58314">
        <ele>825.2</ele>
        <time>2025-03-02T10:07:54Z</time>
      </trkpt>
      <trkpt lat="45.72355" lon="4.5831">
        <ele>825.2</ele>
        <time>2025-03-02T10:07:55Z</time>
      </trkpt>
      <trkpt lat="45.72354" lon="4.58305">
        <ele>825.4</ele>
        <time>2025-03-02T10:07:56Z</time>
      </trkpt>
      <trkpt lat="45.72353" lon="4.583">
        <ele>825.4</ele>
        <time>2025-03-02T10:07:57Z</time>
      </trkpt>
      <trkpt lat="45.72352" lon="4.58295">
        <ele>825.4</ele>
        <time>2025-03-02T10:07:58Z</time>
      </trkpt>
      <trkpt lat="45.72351" lon="4.5829">
        <ele>825.8</ele>
        <time>2025-03-02T10:07:59Z</time>
      </trkpt>
      <trkpt lat="45.7235" lon="4.58285">
        <ele>826</ele>
        <time>2025-03-02T10:08:00Z</time>
      </trkpt>
      <trkpt lat="45.72349" lon="4.5828">
        <ele>826</ele>
        <time>2025-03-02T10:08:01Z</time>
      </trkpt>
      <trkpt lat="45.72349" lon="4.58275">
        <ele>826.2</ele>
        <time>2025-03-02T10:08:02Z</time>
      </trkpt>
      <trkpt lat="45.72349" lon="4.58271">
        <ele>826.4</ele>
        <time>2025-03-02T10:08:03Z</time>
      </trkpt>
      <trkpt lat="45.72349" lon="4.58266">
        <ele>826.6</ele>
        <time>2025-03-02T10:08:04Z</time>
      </trkpt>
      <trkpt lat="45.72348" lon="4.58264">
        <ele>827</ele>
        <time>2025-03-02T10:08:05Z</time>
      </trkpt>
      <trkpt lat="45.72347" lon="4.58261">
        <ele>827.2</ele>
        <time>2025-03-02T10:08:06Z</time>
      </trkpt>
      <trkpt lat="45.72347" lon="4.58259">
        <ele>827.6</ele>
        <time>2025-03-02T10:08:07Z</time>
      </trkpt>
      <trkpt lat="45.72346" lon="4.58256">
        <ele>827.8</ele>
        <time>2025-03-02T10:08:08Z</time>
      </trkpt>
      <trkpt lat="45.72346" lon="4.58253">
        <ele>828</ele>
        <time>2025-03-02T10:08:09Z</time>
      </trkpt>
      <trkpt lat="45.72345" lon="4.5825">
        <ele>828.4</ele>
        <time>2025-03-02T10:08:10Z</time>
      </trkpt>
      <trkpt lat="45.72345" lon="4.58247">
        <ele>828.6</ele>
        <time>2025-03-02T10:08:11Z</time>
      </trkpt>
      <trkpt lat="45.72345" lon="4.58243">
        <ele>828.8</ele>
        <time>2025-03-02T10:08:12Z</time>
      </trkpt>
      <trkpt lat="45.72345" lon="4.5824">
        <ele>829</ele>
        <time>2025-03-02T10:08:13Z</time>
      </trkpt>
      <trkpt lat="45.72345" lon="4.58237">
        <ele>829.2</ele>
        <time>2025-03-02T10:08:14Z</time>
      </trkpt>
      <trkpt lat="45.72343" lon="4.58234">
        <ele>829.6</ele>
        <time>2025-03-02T10:08:15Z</time>
      </trkpt>
      <trkpt lat="45.72341" lon="4.58231">
        <ele>829.8</ele>
        <time>2025-03-02T10:08:16Z</time>
      </trkpt>
      <trkpt lat="45.72341" lon="4.58228">
        <ele>830.2</ele>
        <time>2025-03-02T10:08:17Z</time>
      </trkpt>
      <trkpt lat="45.72341" lon="4.58223">
        <ele>830.4</ele>
        <time>2025-03-02T10:08:18Z</time>
      </trkpt>
      <trkpt lat="45.72339" lon="4.58219">
        <ele>830.6</ele>
        <time>2025-03-02T10:08:19Z</time>
      </trkpt>
      <trkpt lat="45.72336" lon="4.58215">
        <ele>830.8</ele>
        <time>2025-03-02T10:08:20Z</time>
      </trkpt>
      <trkpt lat="45.72336" lon="4.58211">
        <ele>831</ele>
        <time>2025-03-02T10:08:21Z</time>
      </trkpt>
      <trkpt lat="45.72337" lon="4.58207">
        <ele>831.2</ele>
        <time>2025-03-02T10:08:22Z</time>
      </trkpt>
      <trkpt lat="45.72337" lon="4.58202">
        <ele>831.4</ele>
        <time>2025-03-02T10:08:23Z</time>
      </trkpt>
      <trkpt lat="45.72336" lon="4.58197">
        <ele>831.8</ele>
        <time>2025-03-02T10:08:24Z</time>
      </trkpt>
      <trkpt lat="45.72335" lon="4.58193">
        <ele>832</ele>
        <time>2025-03-02T10:08:25Z</time>
      </trkpt>
      <trkpt lat="45.72336" lon="4.58188">
        <ele>832.4</ele>
        <time>2025-03-02T10:08:26Z</time>
      </trkpt>
      <trkpt lat="45.72335" lon="4.58184">
        <ele>832.8</ele>
        <time>2025-03-02T10:08:27Z</time>
      </trkpt>
      <trkpt lat="45.72335" lon="4.5818">
        <ele>833.2</ele>
        <time>2025-03-02T10:08:28Z</time>
      </trkpt>
      <trkpt lat="45.72333" lon="4.58177">
        <ele>833.8</ele>
        <time>2025-03-02T10:08:29Z</time>
      </trkpt>
      <trkpt lat="45.72331" lon="4.58174">
        <ele>834</ele>
        <time>2025-03-02T10:08:30Z</time>
      </trkpt>
      <trkpt lat="45.7233" lon="4.58169">
        <ele>834.2</ele>
        <time>2025-03-02T10:08:31Z</time>
      </trkpt>
      <trkpt lat="45.7233" lon="4.58163">
        <ele>834.8</ele>
        <time>2025-03-02T10:08:32Z</time>
      </trkpt>
      <trkpt lat="45.72329" lon="4.58159">
        <ele>835</ele>
        <time>2025-03-02T10:08:33Z</time>
      </trkpt>
      <trkpt lat="45.7233" lon="4.58155">
        <ele>835.2</ele>
        <time>2025-03-02T10:08:34Z</time>
      </trkpt>
      <trkpt lat="45.72331" lon="4.58151">
        <ele>835.6</ele>
        <time>2025-03-02T10:08:35Z</time>
      </trkpt>
      <trkpt lat="45.72332" lon="4.58147">
        <ele>835.8</ele>
        <time>2025-03-02T10:08:36Z</time>
      </trkpt>
      <trkpt lat="45.72333" lon="4.58142">
        <ele>836.2</ele>
        <time>2025-03-02T10:08:37Z</time>
      </trkpt>
      <trkpt lat="45.72332" lon="4.58137">
        <ele>836.4</ele>
        <time>2025-03-02T10:08:38Z</time>
      </trkpt>
      <trkpt lat="45.72332" lon="4.58132">
        <ele>836.6</ele>
        <time>2025-03-02T10:08:39Z</time>
      </trkpt>
      <trkpt lat="45.7233" lon="4.58129">
        <ele>836.8</ele>
        <time>2025-03-02T10:08:40Z</time>
      </trkpt>
      <trkpt lat="45.7233" lon="4.58126">
        <ele>837.2</ele>
        <time>2025-03-02T10:08:41Z</time>
      </trkpt>
      <trkpt lat="45.72328" lon="4.5812">
        <ele>837.4</ele>
        <time>2025-03-02T10:08:42Z</time>
      </trkpt>
      <trkpt lat="45.72328" lon="4.58117">
        <ele>837.8</ele>
        <time>2025-03-02T10:08:43Z</time>
      </trkpt>
      <trkpt lat="45.72326" lon="4.58114">
        <ele>838.2</ele>
        <time>2025-03-02T10:08:44Z</time>
      </trkpt>
      <trkpt lat="45.72325" lon="4.58112">
        <ele>838.4</ele>
        <time>2025-03-02T10:08:45Z</time>
      </trkpt>
      <trkpt lat="45.72325" lon="4.58109">
        <ele>838.6</ele>
        <time>2025-03-02T10:08:46Z</time>
      </trkpt>
      <trkpt lat="45.72325" lon="4.58106">
        <ele>839</ele>
        <time>2025-03-02T10:08:47Z</time>
      </trkpt>
      <trkpt lat="45.72325" lon="4.58103">
        <ele>839.4</ele>
        <time>2025-03-02T10:08:48Z</time>
      </trkpt>
      <trkpt lat="45.72325" lon="4.58101">
        <ele>839.6</ele>
        <time>2025-03-02T10:08:49Z</time>
      </trkpt>
      <trkpt lat="45.72324" lon="4.58099">
        <ele>840</ele>
        <time>2025-03-02T10:08:50Z</time>
      </trkpt>
      <trkpt lat="45.72322" lon="4.58096">
        <ele>840.2</ele>
        <time>2025-03-02T10:08:51Z</time>
      </trkpt>
      <trkpt lat="45.72322" lon="4.58093">
        <ele>840.8</ele>
        <time>2025-03-02T10:08:52Z</time>
      </trkpt>
      <trkpt lat="45.72322" lon="4.58091">
        <ele>841</ele>
        <time>2025-03-02T10:08:53Z</time>
      </trkpt>
      <trkpt lat="45.72322" lon="4.58088">
        <ele>841.2</ele>
        <time>2025-03-02T10:08:54Z</time>
      </trkpt>
      <trkpt lat="45.72322" lon="4.58086">
        <ele>841.6</ele>
        <time>2025-03-02T10:08:55Z</time>
      </trkpt>
      <trkpt lat="45.72322" lon="4.58083">
        <ele>841.8</ele>
        <time>2025-03-02T10:08:56Z</time>
      </trkpt>
      <trkpt lat="45.72321" lon="4.58081">
        <ele>842</ele>
        <time>2025-03-02T10:08:57Z</time>
      </trkpt>
      <trkpt lat="45.7232" lon="4.58079">
        <ele>842.4</ele>
        <time>2025-03-02T10:08:58Z</time>
      </trkpt>
      <trkpt lat="45.72319" lon="4.58078">
        <ele>842.8</ele>
        <time>2025-03-02T10:08:59Z</time>
      </trkpt>
      <trkpt lat="45.72319" lon="4.58076">
        <ele>843</ele>
        <time>2025-03-02T10:09:00Z</time>
      </trkpt>
      <trkpt lat="45.72318" lon="4.58073">
        <ele>843.4</ele>
        <time>2025-03-02T10:09:01Z</time>
      </trkpt>
      <trkpt lat="45.72317" lon="4.58071">
        <ele>843.6</ele>
        <time>2025-03-02T10:09:02Z</time>
      </trkpt>
      <trkpt lat="45.72317" lon="4.58069">
        <ele>843.8</ele>
        <time>2025-03-02T10:09:03Z</time>
      </trkpt>
      <trkpt lat="45.72317" lon="4.58067">
        <ele>844.2</ele>
        <time>2025-03-02T10:09:04Z</time>
      </trkpt>
      <trkpt lat="45.72316" lon="4.58064">
        <ele>844.4</ele>
        <time>2025-03-02T10:09:05Z</time>
      </trkpt>
      <trkpt lat="45.72316" lon="4.58062">
        <ele>844.6</ele>
        <time>2025-03-02T10:09:06Z</time>
      </trkpt>
      <trkpt lat="45.72316" lon="4.58059">
        <ele>845</ele>
        <time>2025-03-02T10:09:07Z</time>
      </trkpt>
      <trkpt lat="45.72315" lon="4.58056">
        <ele>845.4</ele>
        <time>2025-03-02T10:09:08Z</time>
      </trkpt>
      <trkpt lat="45.72314" lon="4.58053">
        <ele>845.6</ele>
        <time>2025-03-02T10:09:09Z</time>
      </trkpt>
      <trkpt lat="45.72312" lon="4.58051">
        <ele>846</ele>
        <time>2025-03-02T10:09:10Z</time>
      </trkpt>
      <trkpt lat="45.72309" lon="4.5805">
        <ele>846.4</ele>
        <time>2025-03-02T10:09:11Z</time>
      </trkpt>
      <trkpt lat="45.72307" lon="4.5805">
        <ele>846.8</ele>
        <time>2025-03-02T10:09:12Z</time>
      </trkpt>
      <trkpt lat="45.72304" lon="4.58049">
        <ele>847.4</ele>
        <time>2025-03-02T10:09:13Z</time>
      </trkpt>
      <trkpt lat="45.72303" lon="4.58048">
        <ele>847.6</ele>
        <time>2025-03-02T10:09:14Z</time>
      </trkpt>
      <trkpt lat="45.72302" lon="4.58045">
        <ele>847.8</ele>
        <time>2025-03-02T10:09:15Z</time>
      </trkpt>
      <trkpt lat="45.72301" lon="4.58043">
        <ele>848.2</ele>
        <time>2025-03-02T10:09:16Z</time>
      </trkpt>
      <trkpt lat="45.72299" lon="4.5804">
        <ele>848.6</ele>
        <time>2025-03-02T10:09:17Z</time>
      </trkpt>
      <trkpt lat="45.72298" lon="4.58038">
        <ele>848.6</ele>
        <time>2025-03-02T10:09:18Z</time>
      </trkpt>
      <trkpt lat="45.72297" lon="4.58036">
        <ele>849</ele>
        <time>2025-03-02T10:09:19Z</time>
      </trkpt>
      <trkpt lat="45.72296" lon="4.58034">
        <ele>849.4</ele>
        <time>2025-03-02T10:09:20Z</time>
      </trkpt>
      <trkpt lat="45.72295" lon="4.58031">
        <ele>849.8</ele>
        <time>2025-03-02T10:09:21Z</time>
      </trkpt>
      <trkpt lat="45.72294" lon="4.58029">
        <ele>850.2</ele>
        <time>2025-03-02T10:09:22Z</time>
      </trkpt>
      <trkpt lat="45.72293" lon="4.58025">
        <ele>850.4</ele>
        <time>2025-03-02T10:09:23Z</time>
      </trkpt>
      <trkpt lat="45.72292" lon="4.58022">
        <ele>850.6</ele>
        <time>2025-03-02T10:09:24Z</time>
      </trkpt>
      <trkpt lat="45.72291" lon="4.58018">
        <ele>850.8</ele>
        <time>2025-03-02T10:09:25Z</time>
      </trkpt>
      <trkpt lat="45.7229" lon="4.58015">
        <ele>851</ele>
        <time>2025-03-02T10:09:26Z</time>
      </trkpt>
      <trkpt lat="45.7229" lon="4.58012">
        <ele>851</ele>
        <time>2025-03-02T10:09:27Z</time>
      </trkpt>
      <trkpt lat="45.7229" lon="4.58009">
        <ele>851.4</ele>
        <time>2025-03-02T10:09:28Z</time>
      </trkpt>
      <trkpt lat="45.72289" lon="4.58007">
        <ele>851.6</ele>
        <time>2025-03-02T10:09:29Z</time>
      </trkpt>
      <trkpt lat="45.72288" lon="4.58004">
        <ele>851.8</ele>
        <time>2025-03-02T10:09:30Z</time>
      </trkpt>
      <trkpt lat="45.72288" lon="4.58001">
        <ele>852</ele>
        <time>2025-03-02T10:09:31Z</time>
      </trkpt>
      <trkpt lat="45.72287" lon="4.57998">
        <ele>852.2</ele>
        <time>2025-03-02T10:09:32Z</time>
      </trkpt>
      <trkpt lat="45.72286" lon="4.57995">
        <ele>852.4</ele>
        <time>2025-03-02T10:09:33Z</time>
      </trkpt>
      <trkpt lat="45.72285" lon="4.57992">
        <ele>852.6</ele>
        <time>2025-03-02T10:09:34Z</time>
      </trkpt>
      <trkpt lat="45.72284" lon="4.57988">
        <ele>853</ele>
        <time>2025-03-02T10:09:35Z</time>
      </trkpt>
      <trkpt lat="45.72283" lon="4.57984">
        <ele>853.4</ele>
        <time>2025-03-02T10:09:36Z</time>
      </trkpt>
      <trkpt lat="45.72282" lon="4.57981">
        <ele>853.4</ele>
        <time>2025-03-02T10:09:37Z</time>
      </trkpt>
      <trkpt lat="45.7228" lon="4.57977">
        <ele>853.8</ele>
        <time>2025-03-02T10:09:38Z</time>
      </trkpt>
      <trkpt lat="45.72279" lon="4.57974">
        <ele>854.2</ele>
        <time>2025-03-02T10:09:39Z</time>
      </trkpt>
      <trkpt lat="45.72278" lon="4.5797">
        <ele>854.4</ele>
        <time>2025-03-02T10:09:40Z</time>
      </trkpt>
      <trkpt lat="45.72277" lon="4.57966">
        <ele>854.6</ele>
        <time>2025-03-02T10:09:41Z</time>
      </trkpt>
      <trkpt lat="45.72276" lon="4.57962">
        <ele>855</ele>
        <time>2025-03-02T10:09:42Z</time>
      </trkpt>
      <trkpt lat="45.72275" lon="4.57958">
        <ele>855.4</ele>
        <time>2025-03-02T10:09:43Z</time>
      </trkpt>
      <trkpt lat="45.72274" lon="4.57954">
        <ele>855.8</ele>
        <time>2025-03-02T10:09:44Z</time>
      </trkpt>
      <trkpt lat="45.72272" lon="4.5795">
        <ele>856</ele>
        <time>2025-03-02T10:09:45Z</time>
      </trkpt>
      <trkpt lat="45.72271" lon="4.57947">
        <ele>856.2</ele>
        <time>2025-03-02T10:09:46Z</time>
      </trkpt>
      <trkpt lat="45.72269" lon="4.57943">
        <ele>856.4</ele>
        <time>2025-03-02T10:09:47Z</time>
      </trkpt>
      <trkpt lat="45.72267" lon="4.57939">
        <ele>856.6</ele>
        <time>2025-03-02T10:09:48Z</time>
      </trkpt>
      <trkpt lat="45.72265" lon="4.57936">
        <ele>856.8</ele>
        <time>2025-03-02T10:09:49Z</time>
      </trkpt>
      <trkpt lat="45.72263" lon="4.57933">
        <ele>857.2</ele>
        <time>2025-03-02T10:09:50Z</time>
      </trkpt>
      <trkpt lat="45.72262" lon="4.5793">
        <ele>857.4</ele>
        <time>2025-03-02T10:09:51Z</time>
      </trkpt>
      <trkpt lat="45.7226" lon="4.57926">
        <ele>857.6</ele>
        <time>2025-03-02T10:09:52Z</time>
      </trkpt>
      <trkpt lat="45.72258" lon="4.57923">
        <ele>857.8</ele>
        <time>2025-03-02T10:09:53Z</time>
      </trkpt>
      <trkpt lat="45.72257" lon="4.5792">
        <ele>858.2</ele>
        <time>2025-03-02T10:09:54Z</time>
      </trkpt>
      <trkpt lat="45.72256" lon="4.57917">
        <ele>858.4</ele>
        <time>2025-03-02T10:09:55Z</time>
      </trkpt>
      <trkpt lat="45.72254" lon="4.57913">
        <ele>858.6</ele>
        <time>2025-03-02T10:09:56Z</time>
      </trkpt>
      <trkpt lat="45.72253" lon="4.5791">
        <ele>858.8</ele>
        <time>2025-03-02T10:09:57Z</time>
      </trkpt>
      <trkpt lat="45.72251" lon="4.57907">
        <ele>859</ele>
        <time>2025-03-02T10:09:58Z</time>
      </trkpt>
      <trkpt lat="45.7225" lon="4.57904">
        <ele>859</ele>
        <time>2025-03-02T10:09:59Z</time>
      </trkpt>
      <trkpt lat="45.72248" lon="4.57901">
        <ele>859.4</ele>
        <time>2025-03-02T10:10:00Z</time>
      </trkpt>
      <trkpt lat="45.72246" lon="4.57899">
        <ele>859.6</ele>
        <time>2025-03-02T10:10:01Z</time>
      </trkpt>
      <trkpt lat="45.72245" lon="4.57897">
        <ele>859.8</ele>
        <time>2025-03-02T10:10:02Z</time>
      </trkpt>
      <trkpt lat="45.72243" lon="4.57894">
        <ele>859.8</ele>
        <time>2025-03-02T10:10:03Z</time>
      </trkpt>
      <trkpt lat="45.72241" lon="4.57893">
        <ele>859.8</ele>
        <time>2025-03-02T10:10:04Z</time>
      </trkpt>
      <trkpt lat="45.7224" lon="4.57891">
        <ele>859.8</ele>
        <time>2025-03-02T10:10:05Z</time>
      </trkpt>
      <trkpt lat="45.7224" lon="4.5789">
        <ele>859.6</ele>
        <time>2025-03-02T10:10:06Z</time>
      </trkpt>
      <trkpt lat="45.7224" lon="4.5789">
        <ele>859.6</ele>
        <time>2025-03-02T10:10:07Z</time>
      </trkpt>
      <trkpt lat="45.7224" lon="4.5789">
        <ele>859.4</ele>
        <time>2025-03-02T10:10:08Z</time>
      </trkpt>
      <trkpt lat="45.7224" lon="4.5789">
        <ele>859.4</ele>
        <time>2025-03-02T10:10:09Z</time>
      </trkpt>
      <trkpt lat="45.7224" lon="4.5789">
        <ele>859.4</ele>
        <time>2025-03-02T10:10:10Z</time>
      </trkpt>
      <trkpt lat="45.72239" lon="4.5789">
        <ele>859.4</ele>
        <time>2025-03-02T10:10:11Z</time>
      </trkpt>
      <trkpt lat="45.72239" lon="4.5789">
        <ele>859.4</ele>
        <time>2025-03-02T10:10:12Z</time>
      </trkpt>
      <trkpt lat="45.72238" lon="4.57888">
        <ele>859.4</ele>
        <time>2025-03-02T10:10:13Z</time>
      </trkpt>
      <trkpt lat="45.72236" lon="4.57885">
        <ele>859.4</ele>
        <time>2025-03-02T10:10:14Z</time>
      </trkpt>
      <trkpt lat="45.72234" lon="4.57882">
        <ele>859.4</ele>
        <time>2025-03-02T10:10:15Z</time>
      </trkpt>
      <trkpt lat="45.72231" lon="4.57879">
        <ele>859.2</ele>
        <time>2025-03-02T10:10:16Z</time>
      </trkpt>
      <trkpt lat="45.72228" lon="4.57874">
        <ele>859</ele>
        <time>2025-03-02T10:10:17Z</time>
      </trkpt>
      <trkpt lat="45.72224" lon="4.5787">
        <ele>858.8</ele>
        <time>2025-03-02T10:10:18Z</time>
      </trkpt>
      <trkpt lat="45.7222" lon="4.57865">
        <ele>858.4</ele>
        <time>2025-03-02T10:10:19Z</time>
      </trkpt>
      <trkpt lat="45.72216" lon="4.5786">
        <ele>857.6</ele>
        <time>2025-03-02T10:10:20Z</time>
      </trkpt>
      <trkpt lat="45.72212" lon="4.57853">
        <ele>856.8</ele>
        <time>2025-03-02T10:10:21Z</time>
      </trkpt>
      <trkpt lat="45.72207" lon="4.57846">
        <ele>856.6</ele>
        <time>2025-03-02T10:10:22Z</time>
      </trkpt>
      <trkpt lat="45.72203" lon="4.57839">
        <ele>856</ele>
        <time>2025-03-02T10:10:23Z</time>
      </trkpt>
      <trkpt lat="45.72198" lon="4.57832">
        <ele>855</ele>
        <time>2025-03-02T10:10:24Z</time>
      </trkpt>
      <trkpt lat="45.72193" lon="4.57825">
        <ele>854.6</ele>
        <time>2025-03-02T10:10:25Z</time>
      </trkpt>
      <trkpt lat="45.72189" lon="4.57818">
        <ele>854</ele>
        <time>2025-03-02T10:10:26Z</time>
      </trkpt>
      <trkpt lat="45.72186" lon="4.5781">
        <ele>853.6</ele>
        <time>2025-03-02T10:10:27Z</time>
      </trkpt>
      <trkpt lat="45.72182" lon="4.578">
        <ele>852.4</ele>
        <time>2025-03-02T10:10:28Z</time>
      </trkpt>
      <trkpt lat="45.72178" lon="4.5779">
        <ele>852.2</ele>
        <time>2025-03-02T10:10:29Z</time>
      </trkpt>
      <trkpt lat="45.72172" lon="4.5778">
        <ele>851.2</ele>
        <time>2025-03-02T10:10:30Z</time>
      </trkpt>
      <trkpt lat="45.72167" lon="4.57771">
        <ele>849</ele>
        <time>2025-03-02T10:10:31Z</time>
      </trkpt>
      <trkpt lat="45.72164" lon="4.57763">
        <ele>848.6</ele>
        <time>2025-03-02T10:10:32Z</time>
      </trkpt>
      <trkpt lat="45.7216" lon="4.57755">
        <ele>848</ele>
        <time>2025-03-02T10:10:33Z</time>
      </trkpt>
      <trkpt lat="45.72157" lon="4.57745">
        <ele>847.4</ele>
        <time>2025-03-02T10:10:34Z</time>
      </trkpt>
      <trkpt lat="45.72153" lon="4.57734">
        <ele>846.4</ele>
        <time>2025-03-02T10:10:35Z</time>
      </trkpt>
      <trkpt lat="45.72149" lon="4.57722">
        <ele>844.6</ele>
        <time>2025-03-02T10:10:36Z</time>
      </trkpt>
      <trkpt lat="45.72145" lon="4.5771">
        <ele>843.8</ele>
        <time>2025-03-02T10:10:37Z</time>
      </trkpt>
      <trkpt lat="45.72141" lon="4.57697">
        <ele>842.6</ele>
        <time>2025-03-02T10:10:38Z</time>
      </trkpt>
      <trkpt lat="45.72137" lon="4.57684">
        <ele>841.4</ele>
        <time>2025-03-02T10:10:39Z</time>
      </trkpt>
      <trkpt lat="45.72133" lon="4.57671">
        <ele>839.4</ele>
        <time>2025-03-02T10:10:40Z</time>
      </trkpt>
      <trkpt lat="45.72129" lon="4.57658">
        <ele>838.4</ele>
        <time>2025-03-02T10:10:41Z</time>
      </trkpt>
      <trkpt lat="45.72125" lon="4.57643">
        <ele>837</ele>
        <time>2025-03-02T10:10:42Z</time>
      </trkpt>
      <trkpt lat="45.72123" lon="4.57628">
        <ele>836</ele>
        <time>2025-03-02T10:10:43Z</time>
      </trkpt>
      <trkpt lat="45.7212" lon="4.57613">
        <ele>835</ele>
        <time>2025-03-02T10:10:44Z</time>
      </trkpt>
      <trkpt lat="45.72118" lon="4.57598">
        <ele>833.8</ele>
        <time>2025-03-02T10:10:45Z</time>
      </trkpt>
      <trkpt lat="45.72115" lon="4.57583">
        <ele>832.8</ele>
        <time>2025-03-02T10:10:46Z</time>
      </trkpt>
      <trkpt lat="45.72112" lon="4.57569">
        <ele>832.2</ele>
        <time>2025-03-02T10:10:47Z</time>
      </trkpt>
      <trkpt lat="45.72109" lon="4.57555">
        <ele>831</ele>
        <time>2025-03-02T10:10:48Z</time>
      </trkpt>
      <trkpt lat="45.72105" lon="4.57541">
        <ele>830.6</ele>
        <time>2025-03-02T10:10:49Z</time>
      </trkpt>
      <trkpt lat="45.72102" lon="4.57528">
        <ele>830.2</ele>
        <time>2025-03-02T10:10:50Z</time>
      </trkpt>
      <trkpt lat="45.72098" lon="4.57515">
        <ele>829.6</ele>
        <time>2025-03-02T10:10:51Z</time>
      </trkpt>
      <trkpt lat="45.72094" lon="4.57503">
        <ele>829.2</ele>
        <time>2025-03-02T10:10:52Z</time>
      </trkpt>
      <trkpt lat="45.7209" lon="4.5749">
        <ele>828.8</ele>
        <time>2025-03-02T10:10:53Z</time>
      </trkpt>
      <trkpt lat="45.72086" lon="4.57478">
        <ele>828.6</ele>
        <time>2025-03-02T10:10:54Z</time>
      </trkpt>
      <trkpt lat="45.72082" lon="4.57467">
        <ele>828.4</ele>
        <time>2025-03-02T10:10:55Z</time>
      </trkpt>
      <trkpt lat="45.72078" lon="4.57457">
        <ele>828</ele>
        <time>2025-03-02T10:10:56Z</time>
      </trkpt>
      <trkpt lat="45.72074" lon="4.57447">
        <ele>827.4</ele>
        <time>2025-03-02T10:10:57Z</time>
      </trkpt>
      <trkpt lat="45.72069" lon="4.57438">
        <ele>827.2</ele>
        <time>2025-03-02T10:10:58Z</time>
      </trkpt>
      <trkpt lat="45.72064" lon="4.57429">
        <ele>827</ele>
        <time>2025-03-02T10:10:59Z</time>
      </trkpt>
      <trkpt lat="45.7206" lon="4.5742">
        <ele>826.8</ele>
        <time>2025-03-02T10:11:00Z</time>
      </trkpt>
      <trkpt lat="45.72056" lon="4.57411">
        <ele>826.6</ele>
        <time>2025-03-02T10:11:01Z</time>
      </trkpt>
      <trkpt lat="45.72051" lon="4.57402">
        <ele>826.2</ele>
        <time>2025-03-02T10:11:02Z</time>
      </trkpt>
      <trkpt lat="45.72048" lon="4.57392">
        <ele>825.2</ele>
        <time>2025-03-02T10:11:03Z</time>
      </trkpt>
      <trkpt lat="45.72045" lon="4.57382">
        <ele>824.8</ele>
        <time>2025-03-02T10:11:04Z</time>
      </trkpt>
      <trkpt lat="45.72042" lon="4.57372">
        <ele>824.4</ele>
        <time>2025-03-02T10:11:05Z</time>
      </trkpt>
      <trkpt lat="45.7204" lon="4.57362">
        <ele>824</ele>
        <time>2025-03-02T10:11:06Z</time>
      </trkpt>
      <trkpt lat="45.72039" lon="4.57351">
        <ele>823.8</ele>
        <time>2025-03-02T10:11:07Z</time>
      </trkpt>
      <trkpt lat="45.7204" lon="4.5734">
        <ele>823.4</ele>
        <time>2025-03-02T10:11:08Z</time>
      </trkpt>
      <trkpt lat="45.72042" lon="4.57329">
        <ele>822.6</ele>
        <time>2025-03-02T10:11:09Z</time>
      </trkpt>
      <trkpt lat="45.72045" lon="4.57317">
        <ele>821.6</ele>
        <time>2025-03-02T10:11:10Z</time>
      </trkpt>
      <trkpt lat="45.72049" lon="4.57306">
        <ele>820</ele>
        <time>2025-03-02T10:11:11Z</time>
      </trkpt>
      <trkpt lat="45.72053" lon="4.57293">
        <ele>818.6</ele>
        <time>2025-03-02T10:11:12Z</time>
      </trkpt>
      <trkpt lat="45.72057" lon="4.57281">
        <ele>817.6</ele>
        <time>2025-03-02T10:11:13Z</time>
      </trkpt>
      <trkpt lat="45.72061" lon="4.57268">
        <ele>816.2</ele>
        <time>2025-03-02T10:11:14Z</time>
      </trkpt>
      <trkpt lat="45.72065" lon="4.57254">
        <ele>815</ele>
        <time>2025-03-02T10:11:15Z</time>
      </trkpt>
      <trkpt lat="45.72067" lon="4.57241">
        <ele>814.6</ele>
        <time>2025-03-02T10:11:16Z</time>
      </trkpt>
      <trkpt lat="45.7207" lon="4.57227">
        <ele>813.6</ele>
        <time>2025-03-02T10:11:17Z</time>
      </trkpt>
      <trkpt lat="45.72072" lon="4.57213">
        <ele>812.6</ele>
        <time>2025-03-02T10:11:18Z</time>
      </trkpt>
      <trkpt lat="45.72074" lon="4.57199">
        <ele>811.8</ele>
        <time>2025-03-02T10:11:19Z</time>
      </trkpt>
      <trkpt lat="45.72076" lon="4.57186">
        <ele>811</ele>
        <time>2025-03-02T10:11:20Z</time>
      </trkpt>
      <trkpt lat="45.72077" lon="4.57172">
        <ele>810.6</ele>
        <time>2025-03-02T10:11:21Z</time>
      </trkpt>
      <trkpt lat="45.72079" lon="4.57158">
        <ele>810.2</ele>
        <time>2025-03-02T10:11:22Z</time>
      </trkpt>
      <trkpt lat="45.72079" lon="4.57145">
        <ele>810</ele>
        <time>2025-03-02T10:11:23Z</time>
      </trkpt>
      <trkpt lat="45.7208" lon="4.57132">
        <ele>809.4</ele>
        <time>2025-03-02T10:11:24Z</time>
      </trkpt>
      <trkpt lat="45.7208" lon="4.5712">
        <ele>808.4</ele>
        <time>2025-03-02T10:11:25Z</time>
      </trkpt>
      <trkpt lat="45.72081" lon="4.57108">
        <ele>807.8</ele>
        <time>2025-03-02T10:11:26Z</time>
      </trkpt>
      <trkpt lat="45.72082" lon="4.57098">
        <ele>807.4</ele>
        <time>2025-03-02T10:11:27Z</time>
      </trkpt>
      <trkpt lat="45.72084" lon="4.57088">
        <ele>807.2</ele>
        <time>2025-03-02T10:11:28Z</time>
      </trkpt>
      <trkpt lat="45.72085" lon="4.57078">
        <ele>807.2</ele>
        <time>2025-03-02T10:11:29Z</time>
      </trkpt>
      <trkpt lat="45.72086" lon="4.57069">
        <ele>807.2</ele>
        <time>2025-03-02T10:11:30Z</time>
      </trkpt>
      <trkpt lat="45.72087" lon="4.5706">
        <ele>807.4</ele>
        <time>2025-03-02T10:11:31Z</time>
      </trkpt>
      <trkpt lat="45.72088" lon="4.57052">
        <ele>807.6</ele>
        <time>2025-03-02T10:11:32Z</time>
      </trkpt>
      <trkpt lat="45.72088" lon="4.57044">
        <ele>808</ele>
        <time>2025-03-02T10:11:33Z</time>
      </trkpt>
      <trkpt lat="45.72088" lon="4.57036">
        <ele>808.2</ele>
        <time>2025-03-02T10:11:34Z</time>
      </trkpt>
      <trkpt lat="45.72088" lon="4.57029">
        <ele>808.4</ele>
        <time>2025-03-02T10:11:35Z</time>
      </trkpt>
      <trkpt lat="45.72087" lon="4.57022">
        <ele>808.6</ele>
        <time>2025-03-02T10:11:36Z</time>
      </trkpt>
      <trkpt lat="45.72087" lon="4.57015">
        <ele>808.6</ele>
        <time>2025-03-02T10:11:37Z</time>
      </trkpt>
      <trkpt lat="45.72086" lon="4.57009">
        <ele>808.8</ele>
        <time>2025-03-02T10:11:38Z</time>
      </trkpt>
      <trkpt lat="45.72085" lon="4.57002">
        <ele>809.2</ele>
        <time>2025-03-02T10:11:39Z</time>
      </trkpt>
      <trkpt lat="45.72084" lon="4.56995">
        <ele>809.8</ele>
        <time>2025-03-02T10:11:40Z</time>
      </trkpt>
      <trkpt lat="45.72083" lon="4.56988">
        <ele>810.2</ele>
        <time>2025-03-02T10:11:41Z</time>
      </trkpt>
      <trkpt lat="45.72083" lon="4.56982">
        <ele>810.6</ele>
        <time>2025-03-02T10:11:42Z</time>
      </trkpt>
      <trkpt lat="45.72083" lon="4.56975">
        <ele>810.8</ele>
        <time>2025-03-02T10:11:43Z</time>
      </trkpt>
      <trkpt lat="45.72084" lon="4.56968">
        <ele>811</ele>
        <time>2025-03-02T10:11:44Z</time>
      </trkpt>
      <trkpt lat="45.72084" lon="4.56961">
        <ele>811.2</ele>
        <time>2025-03-02T10:11:45Z</time>
      </trkpt>
      <trkpt lat="45.72084" lon="4.56954">
        <ele>811.4</ele>
        <time>2025-03-02T10:11:46Z</time>
      </trkpt>
      <trkpt lat="45.72085" lon="4.56947">
        <ele>811.6</ele>
        <time>2025-03-02T10:11:47Z</time>
      </trkpt>
      <trkpt lat="45.72085" lon="4.5694">
        <ele>811.8</ele>
        <time>2025-03-02T10:11:48Z</time>
      </trkpt>
      <trkpt lat="45.72085" lon="4.56934">
        <ele>812</ele>
        <time>2025-03-02T10:11:49Z</time>
      </trkpt>
      <trkpt lat="45.72086" lon="4.56927">
        <ele>812.2</ele>
        <time>2025-03-02T10:11:50Z</time>
      </trkpt>
      <trkpt lat="45.72086" lon="4.5692">
        <ele>812.4</ele>
        <time>2025-03-02T10:11:51Z</time>
      </trkpt>
      <trkpt lat="45.72087" lon="4.56913">
        <ele>812.8</ele>
        <time>2025-03-02T10:11:52Z</time>
      </trkpt>
      <trkpt lat="45.72088" lon="4.56907">
        <ele>813</ele>
        <time>2025-03-02T10:11:53Z</time>
      </trkpt>
      <trkpt lat="45.72089" lon="4.569">
        <ele>813</ele>
        <time>2025-03-02T10:11:54Z</time>
      </trkpt>
      <trkpt lat="45.72089" lon="4.56894">
        <ele>813.2</ele>
        <time>2025-03-02T10:11:55Z</time>
      </trkpt>
      <trkpt lat="45.7209" lon="4.56887">
        <ele>813.2</ele>
        <time>2025-03-02T10:11:56Z</time>
      </trkpt>
      <trkpt lat="45.72091" lon="4.56881">
        <ele>813.4</ele>
        <time>2025-03-02T10:11:57Z</time>
      </trkpt>
      <trkpt lat="45.72092" lon="4.56875">
        <ele>813.6</ele>
        <time>2025-03-02T10:11:58Z</time>
      </trkpt>
      <trkpt lat="45.72092" lon="4.56869">
        <ele>814</ele>
        <time>2025-03-02T10:11:59Z</time>
      </trkpt>
      <trkpt lat="45.72092" lon="4.56863">
        <ele>814.2</ele>
        <time>2025-03-02T10:12:00Z</time>
      </trkpt>
      <trkpt lat="45.72092" lon="4.56856">
        <ele>814.6</ele>
        <time>2025-03-02T10:12:01Z</time>
      </trkpt>
      <trkpt lat="45.72092" lon="4.5685">
        <ele>814.8</ele>
        <time>2025-03-02T10:12:02Z</time>
      </trkpt>
      <trkpt lat="45.72091" lon="4.56844">
        <ele>814.8</ele>
        <time>2025-03-02T10:12:03Z</time>
      </trkpt>
      <trkpt lat="45.7209" lon="4.56838">
        <ele>814.8</ele>
        <time>2025-03-02T10:12:04Z</time>
      </trkpt>
      <trkpt lat="45.72088" lon="4.56831">
        <ele>814.8</ele>
        <time>2025-03-02T10:12:05Z</time>
      </trkpt>
      <trkpt lat="45.72086" lon="4.56825">
        <ele>814.8</ele>
        <time>2025-03-02T10:12:06Z</time>
      </trkpt>
      <trkpt lat="45.72086" lon="4.56819">
        <ele>814.8</ele>
        <time>2025-03-02T10:12:07Z</time>
      </trkpt>
      <trkpt lat="45.72084" lon="4.56814">
        <ele>814.6</ele>
        <time>2025-03-02T10:12:08Z</time>
      </trkpt>
      <trkpt lat="45.72082" lon="4.5681">
        <ele>814.6</ele>
        <time>2025-03-02T10:12:09Z</time>
      </trkpt>
      <trkpt lat="45.72079" lon="4.56807">
        <ele>814.6</ele>
        <time>2025-03-02T10:12:10Z</time>
      </trkpt>
      <trkpt lat="45.72075" lon="4.56807">
        <ele>814.8</ele>
        <time>2025-03-02T10:12:11Z</time>
      </trkpt>
      <trkpt lat="45.72072" lon="4.56807">
        <ele>815.2</ele>
        <time>2025-03-02T10:12:12Z</time>
      </trkpt>
      <trkpt lat="45.72069" lon="4.56806">
        <ele>815.6</ele>
        <time>2025-03-02T10:12:13Z</time>
      </trkpt>
      <trkpt lat="45.72067" lon="4.56804">
        <ele>816</ele>
        <time>2025-03-02T10:12:14Z</time>
      </trkpt>
      <trkpt lat="45.72066" lon="4.56802">
        <ele>816.6</ele>
        <time>2025-03-02T10:12:15Z</time>
      </trkpt>
      <trkpt lat="45.72064" lon="4.56798">
        <ele>816.6</ele>
        <time>2025-03-02T10:12:16Z</time>
      </trkpt>
      <trkpt lat="45.72063" lon="4.56795">
        <ele>817</ele>
        <time>2025-03-02T10:12:17Z</time>
      </trkpt>
      <trkpt lat="45.72061" lon="4.56791">
        <ele>817</ele>
        <time>2025-03-02T10:12:18Z</time>
      </trkpt>
      <trkpt lat="45.72059" lon="4.56787">
        <ele>817.2</ele>
        <time>2025-03-02T10:12:19Z</time>
      </trkpt>
      <trkpt lat="45.72057" lon="4.56784">
        <ele>817.2</ele>
        <time>2025-03-02T10:12:20Z</time>
      </trkpt>
      <trkpt lat="45.72055" lon="4.56781">
        <ele>817.2</ele>
        <time>2025-03-02T10:12:21Z</time>
      </trkpt>
      <trkpt lat="45.72052" lon="4.56777">
        <ele>817.4</ele>
        <time>2025-03-02T10:12:22Z</time>
      </trkpt>
      <trkpt lat="45.7205" lon="4.56773">
        <ele>817.4</ele>
        <time>2025-03-02T10:12:23Z</time>
      </trkpt>
      <trkpt lat="45.72048" lon="4.5677">
        <ele>817.6</ele>
        <time>2025-03-02T10:12:24Z</time>
      </trkpt>
      <trkpt lat="45.72046" lon="4.56767">
        <ele>817.6</ele>
        <time>2025-03-02T10:12:25Z</time>
      </trkpt>
      <trkpt lat="45.72045" lon="4.56764">
        <ele>817.8</ele>
        <time>2025-03-02T10:12:26Z</time>
      </trkpt>
      <trkpt lat="45.72043" lon="4.56761">
        <ele>818</ele>
        <time>2025-03-02T10:12:27Z</time>
      </trkpt>
      <trkpt lat="45.72042" lon="4.56758">
        <ele>818.2</ele>
        <time>2025-03-02T10:12:28Z</time>
      </trkpt>
      <trkpt lat="45.7204" lon="4.56756">
        <ele>818.8</ele>
        <time>2025-03-02T10:12:29Z</time>
      </trkpt>
      <trkpt lat="45.72038" lon="4.56754">
        <ele>819.2</ele>
        <time>2025-03-02T10:12:30Z</time>
      </trkpt>
      <trkpt lat="45.72036" lon="4.56753">
        <ele>819.6</ele>
        <time>2025-03-02T10:12:31Z</time>
      </trkpt>
      <trkpt lat="45.72033" lon="4.56753">
        <ele>819.8</ele>
        <time>2025-03-02T10:12:32Z</time>
      </trkpt>
      <trkpt lat="45.7203" lon="4.56753">
        <ele>820.2</ele>
        <time>2025-03-02T10:12:33Z</time>
      </trkpt>
      <trkpt lat="45.72026" lon="4.56753">
        <ele>820.6</ele>
        <time>2025-03-02T10:12:34Z</time>
      </trkpt>
      <trkpt lat="45.72023" lon="4.56754">
        <ele>821</ele>
        <time>2025-03-02T10:12:35Z</time>
      </trkpt>
      <trkpt lat="45.7202" lon="4.56756">
        <ele>821</ele>
        <time>2025-03-02T10:12:36Z</time>
      </trkpt>
      <trkpt lat="45.72016" lon="4.56756">
        <ele>821.2</ele>
        <time>2025-03-02T10:12:37Z</time>
      </trkpt>
      <trkpt lat="45.72013" lon="4.56757">
        <ele>821.4</ele>
        <time>2025-03-02T10:12:38Z</time>
      </trkpt>
      <trkpt lat="45.72009" lon="4.56758">
        <ele>821.6</ele>
        <time>2025-03-02T10:12:39Z</time>
      </trkpt>
      <trkpt lat="45.72006" lon="4.56758">
        <ele>821.6</ele>
        <time>2025-03-02T10:12:40Z</time>
      </trkpt>
      <trkpt lat="45.72003" lon="4.56758">
        <ele>821.8</ele>
        <time>2025-03-02T10:12:41Z</time>
      </trkpt>
      <trkpt lat="45.72" lon="4.56758">
        <ele>822.2</ele>
        <time>2025-03-02T10:12:42Z</time>
      </trkpt>
      <trkpt lat="45.71998" lon="4.56758">
        <ele>822.4</ele>
        <time>2025-03-02T10:12:43Z</time>
      </trkpt>
      <trkpt lat="45.71996" lon="4.56757">
        <ele>822.4</ele>
        <time>2025-03-02T10:12:44Z</time>
      </trkpt>
      <trkpt lat="45.71992" lon="4.56757">
        <ele>822.8</ele>
        <time>2025-03-02T10:12:45Z</time>
      </trkpt>
      <trkpt lat="45.71989" lon="4.56758">
        <ele>823.2</ele>
        <time>2025-03-02T10:12:46Z</time>
      </trkpt>
      <trkpt lat="45.71986" lon="4.5676">
        <ele>823.2</ele>
        <time>2025-03-02T10:12:47Z</time>
      </trkpt>
      <trkpt lat="45.71983" lon="4.5676">
        <ele>823.4</ele>
        <time>2025-03-02T10:12:48Z</time>
      </trkpt>
      <trkpt lat="45.7198" lon="4.56761">
        <ele>824.4</ele>
        <time>2025-03-02T10:12:49Z</time>
      </trkpt>
      <trkpt lat="45.71977" lon="4.56762">
        <ele>824.4</ele>
        <time>2025-03-02T10:12:50Z</time>
      </trkpt>
      <trkpt lat="45.71973" lon="4.56763">
        <ele>824.6</ele>
        <time>2025-03-02T10:12:51Z</time>
      </trkpt>
      <trkpt lat="45.7197" lon="4.56764">
        <ele>824.6</ele>
        <time>2025-03-02T10:12:52Z</time>
      </trkpt>
      <trkpt lat="45.71966" lon="4.56764">
        <ele>824.6</ele>
        <time>2025-03-02T10:12:53Z</time>
      </trkpt>
      <trkpt lat="45.71964" lon="4.56764">
        <ele>825</ele>
        <time>2025-03-02T10:12:54Z</time>
      </trkpt>
      <trkpt lat="45.71961" lon="4.56763">
        <ele>825.2</ele>
        <time>2025-03-02T10:12:55Z</time>
      </trkpt>
      <trkpt lat="45.71958" lon="4.56763">
        <ele>825.4</ele>
        <time>2025-03-02T10:12:56Z</time>
      </trkpt>
      <trkpt lat="45.71954" lon="4.56764">
        <ele>825.6</ele>
        <time>2025-03-02T10:12:57Z</time>
      </trkpt>
      <trkpt lat="45.71951" lon="4.56764">
        <ele>825.8</ele>
        <time>2025-03-02T10:12:58Z</time>
      </trkpt>
      <trkpt lat="45.71949" lon="4.56764">
        <ele>826</ele>
        <time>2025-03-02T10:12:59Z</time>
      </trkpt>
      <trkpt lat="45.71946" lon="4.56765">
        <ele>826.2</ele>
        <time>2025-03-02T10:13:00Z</time>
      </trkpt>
      <trkpt lat="45.71943" lon="4.56765">
        <ele>826.4</ele>
        <time>2025-03-02T10:13:01Z</time>
      </trkpt>
      <trkpt lat="45.71941" lon="4.56766">
        <ele>826.8</ele>
        <time>2025-03-02T10:13:02Z</time>
      </trkpt>
      <trkpt lat="45.71938" lon="4.56766">
        <ele>827.2</ele>
        <time>2025-03-02T10:13:03Z</time>
      </trkpt>
      <trkpt lat="45.71935" lon="4.56766">
        <ele>827.4</ele>
        <time>2025-03-02T10:13:04Z</time>
      </trkpt>
      <trkpt lat="45.71932" lon="4.56765">
        <ele>827.8</ele>
        <time>2025-03-02T10:13:05Z</time>
      </trkpt>
      <trkpt lat="45.7193" lon="4.56763">
        <ele>828</ele>
        <time>2025-03-02T10:13:06Z</time>
      </trkpt>
      <trkpt lat="45.71927" lon="4.56761">
        <ele>828</ele>
        <time>2025-03-02T10:13:07Z</time>
      </trkpt>
      <trkpt lat="45.71924" lon="4.56758">
        <ele>828</ele>
        <time>2025-03-02T10:13:08Z</time>
      </trkpt>
      <trkpt lat="45.71921" lon="4.56755">
        <ele>828</ele>
        <time>2025-03-02T10:13:09Z</time>
      </trkpt>
      <trkpt lat="45.71918" lon="4.56753">
        <ele>828</ele>
        <time>2025-03-02T10:13:10Z</time>
      </trkpt>
      <trkpt lat="45.71916" lon="4.56751">
        <ele>828</ele>
        <time>2025-03-02T10:13:11Z</time>
      </trkpt>
      <trkpt lat="45.71913" lon="4.56748">
        <ele>828</ele>
        <time>2025-03-02T10:13:12Z</time>
      </trkpt>
      <trkpt lat="45.7191" lon="4.56746">
        <ele>828</ele>
        <time>2025-03-02T10:13:13Z</time>
      </trkpt>
      <trkpt lat="45.71908" lon="4.56744">
        <ele>828.2</ele>
        <time>2025-03-02T10:13:14Z</time>
      </trkpt>
      <trkpt lat="45.71907" lon="4.56741">
        <ele>828.4</ele>
        <time>2025-03-02T10:13:15Z</time>
      </trkpt>
      <trkpt lat="45.71905" lon="4.56738">
        <ele>828.4</ele>
        <time>2025-03-02T10:13:16Z</time>
      </trkpt>
      <trkpt lat="45.71903" lon="4.56736">
        <ele>828.4</ele>
        <time>2025-03-02T10:13:17Z</time>
      </trkpt>
      <trkpt lat="45.71902" lon="4.56733">
        <ele>828.6</ele>
        <time>2025-03-02T10:13:18Z</time>
      </trkpt>
      <trkpt lat="45.719" lon="4.5673">
        <ele>828.8</ele>
        <time>2025-03-02T10:13:19Z</time>
      </trkpt>
      <trkpt lat="45.71898" lon="4.56728">
        <ele>829</ele>
        <time>2025-03-02T10:13:20Z</time>
      </trkpt>
      <trkpt lat="45.71897" lon="4.56727">
        <ele>829.2</ele>
        <time>2025-03-02T10:13:21Z</time>
      </trkpt>
      <trkpt lat="45.71894" lon="4.56725">
        <ele>829.6</ele>
        <time>2025-03-02T10:13:22Z</time>
      </trkpt>
      <trkpt lat="45.71892" lon="4.56722">
        <ele>830</ele>
        <time>2025-03-02T10:13:23Z</time>
      </trkpt>
      <trkpt lat="45.71891" lon="4.5672">
        <ele>830.4</ele>
        <time>2025-03-02T10:13:24Z</time>
      </trkpt>
      <trkpt lat="45.71889" lon="4.56718">
        <ele>830.6</ele>
        <time>2025-03-02T10:13:25Z</time>
      </trkpt>
      <trkpt lat="45.71888" lon="4.56716">
        <ele>831.2</ele>
        <time>2025-03-02T10:13:26Z</time>
      </trkpt>
      <trkpt lat="45.71886" lon="4.56715">
        <ele>831.4</ele>
        <time>2025-03-02T10:13:27Z</time>
      </trkpt>
      <trkpt lat="45.71885" lon="4.56713">
        <ele>832</ele>
        <time>2025-03-02T10:13:28Z</time>
      </trkpt>
      <trkpt lat="45.71883" lon="4.56712">
        <ele>832.2</ele>
        <time>2025-03-02T10:13:29Z</time>
      </trkpt>
      <trkpt lat="45.71881" lon="4.5671">
        <ele>832.6</ele>
        <time>2025-03-02T10:13:30Z</time>
      </trkpt>
      <trkpt lat="45.71879" lon="4.56709">
        <ele>832.8</ele>
        <time>2025-03-02T10:13:31Z</time>
      </trkpt>
      <trkpt lat="45.71877" lon="4.56708">
        <ele>833.2</ele>
        <time>2025-03-02T10:13:32Z</time>
      </trkpt>
      <trkpt lat="45.71876" lon="4.56707">
        <ele>833.6</ele>
        <time>2025-03-02T10:13:33Z</time>
      </trkpt>
      <trkpt lat="45.71874" lon="4.56705">
        <ele>834.2</ele>
        <time>2025-03-02T10:13:34Z</time>
      </trkpt>
      <trkpt lat="45.71872" lon="4.56704">
        <ele>834.4</ele>
        <time>2025-03-02T10:13:35Z</time>
      </trkpt>
      <trkpt lat="45.7187" lon="4.56704">
        <ele>834.8</ele>
        <time>2025-03-02T10:13:36Z</time>
      </trkpt>
      <trkpt lat="45.71868" lon="4.56703">
        <ele>835</ele>
        <time>2025-03-02T10:13:37Z</time>
      </trkpt>
      <trkpt lat="45.71866" lon="4.56701">
        <ele>835.4</ele>
        <time>2025-03-02T10:13:38Z</time>
      </trkpt>
      <trkpt lat="45.71865" lon="4.56699">
        <ele>835.8</ele>
        <time>2025-03-02T10:13:39Z</time>
      </trkpt>
      <trkpt lat="45.71863" lon="4.567">
        <ele>836.2</ele>
        <time>2025-03-02T10:13:40Z</time>
      </trkpt>
      <trkpt lat="45.71861" lon="4.56701">
        <ele>836.4</ele>
        <time>2025-03-02T10:13:41Z</time>
      </trkpt>
      <trkpt lat="45.71859" lon="4.56701">
        <ele>836.8</ele>
        <time>2025-03-02T10:13:42Z</time>
      </trkpt>
      <trkpt lat="45.71856" lon="4.567">
        <ele>837.2</ele>
        <time>2025-03-02T10:13:43Z</time>
      </trkpt>
      <trkpt lat="45.71855" lon="4.56698">
        <ele>837.6</ele>
        <time>2025-03-02T10:13:44Z</time>
      </trkpt>
      <trkpt lat="45.71854" lon="4.56698">
        <ele>838</ele>
        <time>2025-03-02T10:13:45Z</time>
      </trkpt>
      <trkpt lat="45.71854" lon="4.56697">
        <ele>838.4</ele>
        <time>2025-03-02T10:13:46Z</time>
      </trkpt>
      <trkpt lat="45.71853" lon="4.56695">
        <ele>838.6</ele>
        <time>2025-03-02T10:13:47Z</time>
      </trkpt>
      <trkpt lat="45.71853" lon="4.56695">
        <ele>839</ele>
        <time>2025-03-02T10:13:48Z</time>
      </trkpt>
      <trkpt lat="45.71853" lon="4.56695">
        <ele>839.4</ele>
        <time>2025-03-02T10:13:49Z</time>
      </trkpt>
      <trkpt lat="45.71852" lon="4.56694">
        <ele>839.6</ele>
        <time>2025-03-02T10:13:50Z</time>
      </trkpt>
      <trkpt lat="45.7185" lon="4.56694">
        <ele>840</ele>
        <time>2025-03-02T10:13:51Z</time>
      </trkpt>
      <trkpt lat="45.71848" lon="4.56693">
        <ele>840.2</ele>
        <time>2025-03-02T10:13:52Z</time>
      </trkpt>
      <trkpt lat="45.71847" lon="4.56692">
        <ele>840.4</ele>
        <time>2025-03-02T10:13:53Z</time>
      </trkpt>
      <trkpt lat="45.71845" lon="4.56691">
        <ele>840.6</ele>
        <time>2025-03-02T10:13:54Z</time>
      </trkpt>
      <trkpt lat="45.71842" lon="4.5669">
        <ele>841</ele>
        <time>2025-03-02T10:13:55Z</time>
      </trkpt>
      <trkpt lat="45.7184" lon="4.56688">
        <ele>841.4</ele>
        <time>2025-03-02T10:13:56Z</time>
      </trkpt>
      <trkpt lat="45.71838" lon="4.56686">
        <ele>841.8</ele>
        <time>2025-03-02T10:13:57Z</time>
      </trkpt>
      <trkpt lat="45.71836" lon="4.56685">
        <ele>842</ele>
        <time>2025-03-02T10:13:58Z</time>
      </trkpt>
      <trkpt lat="45.71834" lon="4.56684">
        <ele>842.2</ele>
        <time>2025-03-02T10:13:59Z</time>
      </trkpt>
      <trkpt lat="45.71832" lon="4.56683">
        <ele>842.2</ele>
        <time>2025-03-02T10:14:00Z</time>
      </trkpt>
      <trkpt lat="45.71828" lon="4.56682">
        <ele>842.6</ele>
        <time>2025-03-02T10:14:01Z</time>
      </trkpt>
      <trkpt lat="45.71824" lon="4.56681">
        <ele>842.8</ele>
        <time>2025-03-02T10:14:02Z</time>
      </trkpt>
      <trkpt lat="45.7182" lon="4.56681">
        <ele>843.2</ele>
        <time>2025-03-02T10:14:03Z</time>
      </trkpt>
      <trkpt lat="45.71817" lon="4.56681">
        <ele>843.4</ele>
        <time>2025-03-02T10:14:04Z</time>
      </trkpt>
      <trkpt lat="45.71814" lon="4.56681">
        <ele>843.6</ele>
        <time>2025-03-02T10:14:05Z</time>
      </trkpt>
      <trkpt lat="45.71812" lon="4.5668">
        <ele>844</ele>
        <time>2025-03-02T10:14:06Z</time>
      </trkpt>
      <trkpt lat="45.71809" lon="4.5668">
        <ele>844.2</ele>
        <time>2025-03-02T10:14:07Z</time>
      </trkpt>
      <trkpt lat="45.71807" lon="4.5668">
        <ele>844.4</ele>
        <time>2025-03-02T10:14:08Z</time>
      </trkpt>
      <trkpt lat="45.71803" lon="4.56681">
        <ele>844.6</ele>
        <time>2025-03-02T10:14:09Z</time>
      </trkpt>
      <trkpt lat="45.718" lon="4.5668">
        <ele>844.6</ele>
        <time>2025-03-02T10:14:10Z</time>
      </trkpt>
      <trkpt lat="45.71797" lon="4.56679">
        <ele>844.8</ele>
        <time>2025-03-02T10:14:11Z</time>
      </trkpt>
      <trkpt lat="45.71793" lon="4.56678">
        <ele>845.2</ele>
        <time>2025-03-02T10:14:12Z</time>
      </trkpt>
      <trkpt lat="45.71791" lon="4.56677">
        <ele>845.4</ele>
        <time>2025-03-02T10:14:13Z</time>
      </trkpt>
      <trkpt lat="45.71788" lon="4.56677">
        <ele>845.6</ele>
        <time>2025-03-02T10:14:14Z</time>
      </trkpt>
      <trkpt lat="45.71786" lon="4.56676">
        <ele>846</ele>
        <time>2025-03-02T10:14:15Z</time>
      </trkpt>
      <trkpt lat="45.71785" lon="4.56675">
        <ele>846.4</ele>
        <time>2025-03-02T10:14:16Z</time>
      </trkpt>
      <trkpt lat="45.71781" lon="4.56676">
        <ele>846.4</ele>
        <time>2025-03-02T10:14:17Z</time>
      </trkpt>
      <trkpt lat="45.71779" lon="4.56677">
        <ele>846.6</ele>
        <time>2025-03-02T10:14:18Z</time>
      </trkpt>
      <trkpt lat="45.71775" lon="4.56677">
        <ele>846.8</ele>
        <time>2025-03-02T10:14:19Z</time>
      </trkpt>
      <trkpt lat="45.71772" lon="4.56675">
        <ele>847</ele>
        <time>2025-03-02T10:14:20Z</time>
      </trkpt>
      <trkpt lat="45.71769" lon="4.56673">
        <ele>847</ele>
        <time>2025-03-02T10:14:21Z</time>
      </trkpt>
      <trkpt lat="45.71766" lon="4.56673">
        <ele>847.4</ele>
        <time>2025-03-02T10:14:22Z</time>
      </trkpt>
      <trkpt lat="45.71763" lon="4.56672">
        <ele>847.4</ele>
        <time>2025-03-02T10:14:23Z</time>
      </trkpt>
      <trkpt lat="45.7176" lon="4.56671">
        <ele>847.8</ele>
        <time>2025-03-02T10:14:24Z</time>
      </trkpt>
      <trkpt lat="45.71757" lon="4.56672">
        <ele>847.8</ele>
        <time>2025-03-02T10:14:25Z</time>
      </trkpt>
      <trkpt lat="45.71753" lon="4.56672">
        <ele>848.2</ele>
        <time>2025-03-02T10:14:26Z</time>
      </trkpt>
      <trkpt lat="45.71751" lon="4.56673">
        <ele>848.4</ele>
        <time>2025-03-02T10:14:27Z</time>
      </trkpt>
      <trkpt lat="45.71748" lon="4.56673">
        <ele>848.6</ele>
        <time>2025-03-02T10:14:28Z</time>
      </trkpt>
      <trkpt lat="45.71746" lon="4.56673">
        <ele>849</ele>
        <time>2025-03-02T10:14:29Z</time>
      </trkpt>
      <trkpt lat="45.71744" lon="4.56673">
        <ele>849</ele>
        <time>2025-03-02T10:14:30Z</time>
      </trkpt>
      <trkpt lat="45.71742" lon="4.56673">
        <ele>849.4</ele>
        <time>2025-03-02T10:14:31Z</time>
      </trkpt>
      <trkpt lat="45.71739" lon="4.56673">
        <ele>849.6</ele>
        <time>2025-03-02T10:14:32Z</time>
      </trkpt>
      <trkpt lat="45.71737" lon="4.56673">
        <ele>849.8</ele>
        <time>2025-03-02T10:14:33Z</time>
      </trkpt>
      <trkpt lat="45.71734" lon="4.56674">
        <ele>850</ele>
        <time>2025-03-02T10:14:34Z</time>
      </trkpt>
      <trkpt lat="45.71732" lon="4.56674">
        <ele>850.4</ele>
        <time>2025-03-02T10:14:35Z</time>
      </trkpt>
      <trkpt lat="45.7173" lon="4.56674">
        <ele>850.6</ele>
        <time>2025-03-02T10:14:36Z</time>
      </trkpt>
      <trkpt lat="45.71728" lon="4.56674">
        <ele>850.8</ele>
        <time>2025-03-02T10:14:37Z</time>
      </trkpt>
      <trkpt lat="45.71725" lon="4.56674">
        <ele>851</ele>
        <time>2025-03-02T10:14:38Z</time>
      </trkpt>
      <trkpt lat="45.71723" lon="4.56674">
        <ele>851.2</ele>
        <time>2025-03-02T10:14:39Z</time>
      </trkpt>
      <trkpt lat="45.7172" lon="4.56675">
        <ele>851.2</ele>
        <time>2025-03-02T10:14:40Z</time>
      </trkpt>
      <trkpt lat="45.71718" lon="4.56676">
        <ele>851.4</ele>
        <time>2025-03-02T10:14:41Z</time>
      </trkpt>
      <trkpt lat="45.71715" lon="4.56677">
        <ele>851.6</ele>
        <time>2025-03-02T10:14:42Z</time>
      </trkpt>
      <trkpt lat="45.71713" lon="4.56678">
        <ele>851.8</ele>
        <time>2025-03-02T10:14:43Z</time>
      </trkpt>
      <trkpt lat="45.7171" lon="4.56678">
        <ele>851.8</ele>
        <time>2025-03-02T10:14:44Z</time>
      </trkpt>
      <trkpt lat="45.71707" lon="4.5668">
        <ele>852</ele>
        <time>2025-03-02T10:14:45Z</time>
      </trkpt>
      <trkpt lat="45.71705" lon="4.56681">
        <ele>852</ele>
        <time>2025-03-02T10:14:46Z</time>
      </trkpt>
      <trkpt lat="45.71702" lon="4.56683">
        <ele>852</ele>
        <time>2025-03-02T10:14:47Z</time>
      </trkpt>
      <trkpt lat="45.717" lon="4.56685">
        <ele>852.2</ele>
        <time>2025-03-02T10:14:48Z</time>
      </trkpt>
      <trkpt lat="45.71697" lon="4.56687">
        <ele>852.2</ele>
        <time>2025-03-02T10:14:49Z</time>
      </trkpt>
      <trkpt lat="45.71694" lon="4.5669">
        <ele>852.2</ele>
        <time>2025-03-02T10:14:50Z</time>
      </trkpt>
      <trkpt lat="45.71691" lon="4.56693">
        <ele>852.2</ele>
        <time>2025-03-02T10:14:51Z</time>
      </trkpt>
      <trkpt lat="45.71688" lon="4.56697">
        <ele>852</ele>
        <time>2025-03-02T10:14:52Z</time>
      </trkpt>
      <trkpt lat="45.71685" lon="4.567">
        <ele>851.8</ele>
        <time>2025-03-02T10:14:53Z</time>
      </trkpt>
      <trkpt lat="45.71683" lon="4.56704">
        <ele>851.6</ele>
        <time>2025-03-02T10:14:54Z</time>
      </trkpt>
      <trkpt lat="45.7168" lon="4.56709">
        <ele>851.6</ele>
        <time>2025-03-02T10:14:55Z</time>
      </trkpt>
      <trkpt lat="45.71677" lon="4.56714">
        <ele>851.4</ele>
        <time>2025-03-02T10:14:56Z</time>
      </trkpt>
      <trkpt lat="45.71675" lon="4.56719">
        <ele>851</ele>
        <time>2025-03-02T10:14:57Z</time>
      </trkpt>
      <trkpt lat="45.71672" lon="4.56722">
        <ele>850.8</ele>
        <time>2025-03-02T10:14:58Z</time>
      </trkpt>
      <trkpt lat="45.71669" lon="4.56725">
        <ele>850.6</ele>
        <time>2025-03-02T10:14:59Z</time>
      </trkpt>
      <trkpt lat="45.71665" lon="4.56726">
        <ele>850.4</ele>
        <time>2025-03-02T10:15:00Z</time>
      </trkpt>
      <trkpt lat="45.71663" lon="4.56726">
        <ele>850.2</ele>
        <time>2025-03-02T10:15:01Z</time>
      </trkpt>
      <trkpt lat="45.7166" lon="4.56726">
        <ele>850.2</ele>
        <time>2025-03-02T10:15:02Z</time>
      </trkpt>
      <trkpt lat="45.71656" lon="4.56725">
        <ele>850.2</ele>
        <time>2025-03-02T10:15:03Z</time>
      </trkpt>
      <trkpt lat="45.71653" lon="4.56724">
        <ele>850.2</ele>
        <time>2025-03-02T10:15:04Z</time>
      </trkpt>
      <trkpt lat="45.7165" lon="4.56723">
        <ele>850.2</ele>
        <time>2025-03-02T10:15:05Z</time>
      </trkpt>
      <trkpt lat="45.71648" lon="4.56722">
        <ele>850.2</ele>
        <time>2025-03-02T10:15:06Z</time>
      </trkpt>
      <trkpt lat="45.71646" lon="4.5672">
        <ele>850.4</ele>
        <time>2025-03-02T10:15:07Z</time>
      </trkpt>
      <trkpt lat="45.71643" lon="4.56718">
        <ele>850.6</ele>
        <time>2025-03-02T10:15:08Z</time>
      </trkpt>
      <trkpt lat="45.71641" lon="4.56716">
        <ele>850.6</ele>
        <time>2025-03-02T10:15:09Z</time>
      </trkpt>
      <trkpt lat="45.71639" lon="4.56715">
        <ele>850.8</ele>
        <time>2025-03-02T10:15:10Z</time>
      </trkpt>
      <trkpt lat="45.71637" lon="4.56713">
        <ele>851.2</ele>
        <time>2025-03-02T10:15:11Z</time>
      </trkpt>
      <trkpt lat="45.71635" lon="4.56711">
        <ele>851.4</ele>
        <time>2025-03-02T10:15:12Z</time>
      </trkpt>
      <trkpt lat="45.71633" lon="4.5671">
        <ele>851.6</ele>
        <time>2025-03-02T10:15:13Z</time>
      </trkpt>
      <trkpt lat="45.7163" lon="4.56707">
        <ele>851.6</ele>
        <time>2025-03-02T10:15:14Z</time>
      </trkpt>
      <trkpt lat="45.71627" lon="4.56705">
        <ele>851.6</ele>
        <time>2025-03-02T10:15:15Z</time>
      </trkpt>
      <trkpt lat="45.71625" lon="4.56703">
        <ele>851.6</ele>
        <time>2025-03-02T10:15:16Z</time>
      </trkpt>
      <trkpt lat="45.71621" lon="4.567">
        <ele>851.4</ele>
        <time>2025-03-02T10:15:17Z</time>
      </trkpt>
      <trkpt lat="45.71618" lon="4.56698">
        <ele>851.2</ele>
        <time>2025-03-02T10:15:18Z</time>
      </trkpt>
      <trkpt lat="45.71615" lon="4.56695">
        <ele>851</ele>
        <time>2025-03-02T10:15:19Z</time>
      </trkpt>
      <trkpt lat="45.71612" lon="4.56691">
        <ele>851</ele>
        <time>2025-03-02T10:15:20Z</time>
      </trkpt>
      <trkpt lat="45.71608" lon="4.56687">
        <ele>850.8</ele>
        <time>2025-03-02T10:15:21Z</time>
      </trkpt>
      <trkpt lat="45.71605" lon="4.56683">
        <ele>850</ele>
        <time>2025-03-02T10:15:22Z</time>
      </trkpt>
      <trkpt lat="45.71601" lon="4.56679">
        <ele>849.8</ele>
        <time>2025-03-02T10:15:23Z</time>
      </trkpt>
      <trkpt lat="45.71599" lon="4.56676">
        <ele>849.6</ele>
        <time>2025-03-02T10:15:24Z</time>
      </trkpt>
      <trkpt lat="45.71595" lon="4.5667">
        <ele>849</ele>
        <time>2025-03-02T10:15:25Z</time>
      </trkpt>
      <trkpt lat="45.71592" lon="4.56665">
        <ele>848.4</ele>
        <time>2025-03-02T10:15:26Z</time>
      </trkpt>
      <trkpt lat="45.71589" lon="4.5666">
        <ele>848.2</ele>
        <time>2025-03-02T10:15:27Z</time>
      </trkpt>
      <trkpt lat="45.71585" lon="4.56654">
        <ele>847.6</ele>
        <time>2025-03-02T10:15:28Z</time>
      </trkpt>
      <trkpt lat="45.71583" lon="4.56649">
        <ele>847</ele>
        <time>2025-03-02T10:15:29Z</time>
      </trkpt>
      <trkpt lat="45.71579" lon="4.56643">
        <ele>846.6</ele>
        <time>2025-03-02T10:15:30Z</time>
      </trkpt>
      <trkpt lat="45.71575" lon="4.56637">
        <ele>845.8</ele>
        <time>2025-03-02T10:15:31Z</time>
      </trkpt>
      <trkpt lat="45.71571" lon="4.56632">
        <ele>845.4</ele>
        <time>2025-03-02T10:15:32Z</time>
      </trkpt>
      <trkpt lat="45.71566" lon="4.56626">
        <ele>844.2</ele>
        <time>2025-03-02T10:15:33Z</time>
      </trkpt>
      <trkpt lat="45.71562" lon="4.5662">
        <ele>843.8</ele>
        <time>2025-03-02T10:15:34Z</time>
      </trkpt>
      <trkpt lat="45.71557" lon="4.56614">
        <ele>843.4</ele>
        <time>2025-03-02T10:15:35Z</time>
      </trkpt>
      <trkpt lat="45.71553" lon="4.56607">
        <ele>842</ele>
        <time>2025-03-02T10:15:36Z</time>
      </trkpt>
      <trkpt lat="45.71549" lon="4.56601">
        <ele>841.8</ele>
        <time>2025-03-02T10:15:37Z</time>
      </trkpt>
      <trkpt lat="45.71545" lon="4.56594">
        <ele>841</ele>
        <time>2025-03-02T10:15:38Z</time>
      </trkpt>
      <trkpt lat="45.7154" lon="4.56588">
        <ele>840</ele>
        <time>2025-03-02T10:15:39Z</time>
      </trkpt>
      <trkpt lat="45.71535" lon="4.56583">
        <ele>839.6</ele>
        <time>2025-03-02T10:15:40Z</time>
      </trkpt>
      <trkpt lat="45.71531" lon="4.56577">
        <ele>838.8</ele>
        <time>2025-03-02T10:15:41Z</time>
      </trkpt>
      <trkpt lat="45.71528" lon="4.56571">
        <ele>838</ele>
        <time>2025-03-02T10:15:42Z</time>
      </trkpt>
      <trkpt lat="45.71525" lon="4.56566">
        <ele>837.8</ele>
        <time>2025-03-02T10:15:43Z</time>
      </trkpt>
      <trkpt lat="45.71522" lon="4.5656">
        <ele>837.4</ele>
        <time>2025-03-02T10:15:44Z</time>
      </trkpt>
      <trkpt lat="45.71519" lon="4.56555">
        <ele>836.8</ele>
        <time>2025-03-02T10:15:45Z</time>
      </trkpt>
      <trkpt lat="45.71516" lon="4.5655">
        <ele>836.4</ele>
        <time>2025-03-02T10:15:46Z</time>
      </trkpt>
      <trkpt lat="45.71514" lon="4.56546">
        <ele>836.2</ele>
        <time>2025-03-02T10:15:47Z</time>
      </trkpt>
      <trkpt lat="45.71512" lon="4.56543">
        <ele>835.8</ele>
        <time>2025-03-02T10:15:48Z</time>
      </trkpt>
      <trkpt lat="45.7151" lon="4.5654">
        <ele>835.4</ele>
        <time>2025-03-02T10:15:49Z</time>
      </trkpt>
      <trkpt lat="45.71508" lon="4.56536">
        <ele>835.4</ele>
        <time>2025-03-02T10:15:50Z</time>
      </trkpt>
      <trkpt lat="45.71505" lon="4.56532">
        <ele>835.4</ele>
        <time>2025-03-02T10:15:51Z</time>
      </trkpt>
      <trkpt lat="45.71503" lon="4.56528">
        <ele>835.2</ele>
        <time>2025-03-02T10:15:52Z</time>
      </trkpt>
      <trkpt lat="45.715" lon="4.56523">
        <ele>835</ele>
        <time>2025-03-02T10:15:53Z</time>
      </trkpt>
      <trkpt lat="45.71497" lon="4.56517">
        <ele>834.4</ele>
        <time>2025-03-02T10:15:54Z</time>
      </trkpt>
      <trkpt lat="45.71494" lon="4.56511">
        <ele>833.8</ele>
        <time>2025-03-02T10:15:55Z</time>
      </trkpt>
      <trkpt lat="45.71491" lon="4.56505">
        <ele>833</ele>
        <time>2025-03-02T10:15:56Z</time>
      </trkpt>
      <trkpt lat="45.71487" lon="4.56498">
        <ele>831.8</ele>
        <time>2025-03-02T10:15:57Z</time>
      </trkpt>
      <trkpt lat="45.71483" lon="4.56491">
        <ele>830.8</ele>
        <time>2025-03-02T10:15:58Z</time>
      </trkpt>
      <trkpt lat="45.71479" lon="4.56482">
        <ele>829.4</ele>
        <time>2025-03-02T10:15:59Z</time>
      </trkpt>
      <trkpt lat="45.71476" lon="4.56474">
        <ele>828</ele>
        <time>2025-03-02T10:16:00Z</time>
      </trkpt>
      <trkpt lat="45.71474" lon="4.56467">
        <ele>826.4</ele>
        <time>2025-03-02T10:16:01Z</time>
      </trkpt>
      <trkpt lat="45.71472" lon="4.5646">
        <ele>825.8</ele>
        <time>2025-03-02T10:16:02Z</time>
      </trkpt>
      <trkpt lat="45.7147" lon="4.56453">
        <ele>825.2</ele>
        <time>2025-03-02T10:16:03Z</time>
      </trkpt>
      <trkpt lat="45.71469" lon="4.56447">
        <ele>824.6</ele>
        <time>2025-03-02T10:16:04Z</time>
      </trkpt>
      <trkpt lat="45.71467" lon="4.5644">
        <ele>823.8</ele>
        <time>2025-03-02T10:16:05Z</time>
      </trkpt>
      <trkpt lat="45.71465" lon="4.56432">
        <ele>823.4</ele>
        <time>2025-03-02T10:16:06Z</time>
      </trkpt>
      <trkpt lat="45.71463" lon="4.56426">
        <ele>823</ele>
        <time>2025-03-02T10:16:07Z</time>
      </trkpt>
      <trkpt lat="45.71461" lon="4.5642">
        <ele>823</ele>
        <time>2025-03-02T10:16:08Z</time>
      </trkpt>
      <trkpt lat="45.71458" lon="4.56417">
        <ele>823</ele>
        <time>2025-03-02T10:16:09Z</time>
      </trkpt>
      <trkpt lat="45.71454" lon="4.56414">
        <ele>823</ele>
        <time>2025-03-02T10:16:10Z</time>
      </trkpt>
      <trkpt lat="45.7145" lon="4.5641">
        <ele>822.8</ele>
        <time>2025-03-02T10:16:11Z</time>
      </trkpt>
      <trkpt lat="45.71446" lon="4.56407">
        <ele>822.8</ele>
        <time>2025-03-02T10:16:12Z</time>
      </trkpt>
      <trkpt lat="45.71441" lon="4.56404">
        <ele>822.8</ele>
        <time>2025-03-02T10:16:13Z</time>
      </trkpt>
      <trkpt lat="45.71437" lon="4.56402">
        <ele>822.8</ele>
        <time>2025-03-02T10:16:14Z</time>
      </trkpt>
      <trkpt lat="45.71433" lon="4.56402">
        <ele>822.8</ele>
        <time>2025-03-02T10:16:15Z</time>
      </trkpt>
      <trkpt lat="45.71429" lon="4.56403">
        <ele>822.8</ele>
        <time>2025-03-02T10:16:16Z</time>
      </trkpt>
      <trkpt lat="45.71426" lon="4.56407">
        <ele>822.8</ele>
        <time>2025-03-02T10:16:17Z</time>
      </trkpt>
      <trkpt lat="45.71423" lon="4.56411">
        <ele>822.8</ele>
        <time>2025-03-02T10:16:18Z</time>
      </trkpt>
      <trkpt lat="45.71421" lon="4.56417">
        <ele>822.8</ele>
        <time>2025-03-02T10:16:19Z</time>
      </trkpt>
      <trkpt lat="45.71421" lon="4.56423">
        <ele>822.8</ele>
        <time>2025-03-02T10:16:20Z</time>
      </trkpt>
      <trkpt lat="45.71422" lon="4.56429">
        <ele>822.8</ele>
        <time>2025-03-02T10:16:21Z</time>
      </trkpt>
      <trkpt lat="45.71423" lon="4.56436">
        <ele>822.8</ele>
        <time>2025-03-02T10:16:22Z</time>
      </trkpt>
      <trkpt lat="45.71423" lon="4.56442">
        <ele>822.8</ele>
        <time>2025-03-02T10:16:23Z</time>
      </trkpt>
      <trkpt lat="45.71424" lon="4.56448">
        <ele>822.6</ele>
        <time>2025-03-02T10:16:24Z</time>
      </trkpt>
      <trkpt lat="45.71425" lon="4.56455">
        <ele>822.6</ele>
        <time>2025-03-02T10:16:25Z</time>
      </trkpt>
      <trkpt lat="45.71426" lon="4.56462">
        <ele>822.4</ele>
        <time>2025-03-02T10:16:26Z</time>
      </trkpt>
      <trkpt lat="45.71426" lon="4.56469">
        <ele>822.2</ele>
        <time>2025-03-02T10:16:27Z</time>
      </trkpt>
      <trkpt lat="45.71426" lon="4.56475">
        <ele>822.2</ele>
        <time>2025-03-02T10:16:28Z</time>
      </trkpt>
      <trkpt lat="45.71425" lon="4.56482">
        <ele>822.2</ele>
        <time>2025-03-02T10:16:29Z</time>
      </trkpt>
      <trkpt lat="45.71424" lon="4.56488">
        <ele>822.2</ele>
        <time>2025-03-02T10:16:30Z</time>
      </trkpt>
      <trkpt lat="45.71423" lon="4.56495">
        <ele>822</ele>
        <time>2025-03-02T10:16:31Z</time>
      </trkpt>
      <trkpt lat="45.71421" lon="4.56501">
        <ele>822</ele>
        <time>2025-03-02T10:16:32Z</time>
      </trkpt>
      <trkpt lat="45.7142" lon="4.56508">
        <ele>822</ele>
        <time>2025-03-02T10:16:33Z</time>
      </trkpt>
      <trkpt lat="45.71419" lon="4.56515">
        <ele>821.8</ele>
        <time>2025-03-02T10:16:34Z</time>
      </trkpt>
      <trkpt lat="45.71418" lon="4.56522">
        <ele>821.8</ele>
        <time>2025-03-02T10:16:35Z</time>
      </trkpt>
      <trkpt lat="45.71417" lon="4.56529">
        <ele>821.6</ele>
        <time>2025-03-02T10:16:36Z</time>
      </trkpt>
      <trkpt lat="45.71416" lon="4.56535">
        <ele>821.4</ele>
        <time>2025-03-02T10:16:37Z</time>
      </trkpt>
      <trkpt lat="45.71415" lon="4.56542">
        <ele>821.4</ele>
        <time>2025-03-02T10:16:38Z</time>
      </trkpt>
      <trkpt lat="45.71414" lon="4.56549">
        <ele>821.2</ele>
        <time>2025-03-02T10:16:39Z</time>
      </trkpt>
      <trkpt lat="45.71413" lon="4.56555">
        <ele>821.2</ele>
        <time>2025-03-02T10:16:40Z</time>
      </trkpt>
      <trkpt lat="45.71412" lon="4.56561">
        <ele>821.2</ele>
        <time>2025-03-02T10:16:41Z</time>
      </trkpt>
      <trkpt lat="45.71412" lon="4.56567">
        <ele>821</ele>
        <time>2025-03-02T10:16:42Z</time>
      </trkpt>
      <trkpt lat="45.71411" lon="4.56573">
        <ele>821</ele>
        <time>2025-03-02T10:16:43Z</time>
      </trkpt>
      <trkpt lat="45.71411" lon="4.56579">
        <ele>821</ele>
        <time>2025-03-02T10:16:44Z</time>
      </trkpt>
      <trkpt lat="45.71411" lon="4.56585">
        <ele>821</ele>
        <time>2025-03-02T10:16:45Z</time>
      </trkpt>
      <trkpt lat="45.71411" lon="4.56591">
        <ele>821</ele>
        <time>2025-03-02T10:16:46Z</time>
      </trkpt>
      <trkpt lat="45.7141" lon="4.56597">
        <ele>821</ele>
        <time>2025-03-02T10:16:47Z</time>
      </trkpt>
      <trkpt lat="45.7141" lon="4.56603">
        <ele>821</ele>
        <time>2025-03-02T10:16:48Z</time>
      </trkpt>
      <trkpt lat="45.7141" lon="4.5661">
        <ele>821.2</ele>
        <time>2025-03-02T10:16:49Z</time>
      </trkpt>
      <trkpt lat="45.7141" lon="4.56616">
        <ele>821.2</ele>
        <time>2025-03-02T10:16:50Z</time>
      </trkpt>
      <trkpt lat="45.71409" lon="4.56622">
        <ele>821.4</ele>
        <time>2025-03-02T10:16:51Z</time>
      </trkpt>
      <trkpt lat="45.71409" lon="4.56629">
        <ele>821.4</ele>
        <time>2025-03-02T10:16:52Z</time>
      </trkpt>
      <trkpt lat="45.71408" lon="4.56636">
        <ele>821.4</ele>
        <time>2025-03-02T10:16:53Z</time>
      </trkpt>
      <trkpt lat="45.71407" lon="4.56643">
        <ele>821.4</ele>
        <time>2025-03-02T10:16:54Z</time>
      </trkpt>
      <trkpt lat="45.71406" lon="4.5665">
        <ele>821.4</ele>
        <time>2025-03-02T10:16:55Z</time>
      </trkpt>
      <trkpt lat="45.71405" lon="4.56657">
        <ele>821.4</ele>
        <time>2025-03-02T10:16:56Z</time>
      </trkpt>
      <trkpt lat="45.71403" lon="4.56664">
        <ele>821.2</ele>
        <time>2025-03-02T10:16:57Z</time>
      </trkpt>
      <trkpt lat="45.71401" lon="4.56671">
        <ele>821</ele>
        <time>2025-03-02T10:16:58Z</time>
      </trkpt>
      <trkpt lat="45.71398" lon="4.56677">
        <ele>821</ele>
        <time>2025-03-02T10:16:59Z</time>
      </trkpt>
      <trkpt lat="45.71395" lon="4.56684">
        <ele>820.8</ele>
        <time>2025-03-02T10:17:00Z</time>
      </trkpt>
      <trkpt lat="45.71392" lon="4.56689">
        <ele>820.8</ele>
        <time>2025-03-02T10:17:01Z</time>
      </trkpt>
      <trkpt lat="45.71388" lon="4.56694">
        <ele>820.8</ele>
        <time>2025-03-02T10:17:02Z</time>
      </trkpt>
      <trkpt lat="45.71383" lon="4.56699">
        <ele>820.8</ele>
        <time>2025-03-02T10:17:03Z</time>
      </trkpt>
      <trkpt lat="45.71379" lon="4.56701">
        <ele>820.6</ele>
        <time>2025-03-02T10:17:04Z</time>
      </trkpt>
      <trkpt lat="45.71374" lon="4.56703">
        <ele>820.6</ele>
        <time>2025-03-02T10:17:05Z</time>
      </trkpt>
      <trkpt lat="45.7137" lon="4.56704">
        <ele>820.6</ele>
        <time>2025-03-02T10:17:06Z</time>
      </trkpt>
      <trkpt lat="45.71365" lon="4.56705">
        <ele>820.6</ele>
        <time>2025-03-02T10:17:07Z</time>
      </trkpt>
      <trkpt lat="45.71361" lon="4.56706">
        <ele>820.8</ele>
        <time>2025-03-02T10:17:08Z</time>
      </trkpt>
      <trkpt lat="45.71357" lon="4.56707">
        <ele>821</ele>
        <time>2025-03-02T10:17:09Z</time>
      </trkpt>
      <trkpt lat="45.71353" lon="4.56709">
        <ele>821.4</ele>
        <time>2025-03-02T10:17:10Z</time>
      </trkpt>
      <trkpt lat="45.71348" lon="4.5671">
        <ele>821.4</ele>
        <time>2025-03-02T10:17:11Z</time>
      </trkpt>
      <trkpt lat="45.71344" lon="4.56711">
        <ele>821.4</ele>
        <time>2025-03-02T10:17:12Z</time>
      </trkpt>
      <trkpt lat="45.71341" lon="4.56713">
        <ele>821.6</ele>
        <time>2025-03-02T10:17:13Z</time>
      </trkpt>
      <trkpt lat="45.71336" lon="4.56714">
        <ele>821.6</ele>
        <time>2025-03-02T10:17:14Z</time>
      </trkpt>
      <trkpt lat="45.71332" lon="4.56716">
        <ele>821.8</ele>
        <time>2025-03-02T10:17:15Z</time>
      </trkpt>
      <trkpt lat="45.71327" lon="4.56719">
        <ele>821.8</ele>
        <time>2025-03-02T10:17:16Z</time>
      </trkpt>
      <trkpt lat="45.71323" lon="4.56721">
        <ele>821.8</ele>
        <time>2025-03-02T10:17:17Z</time>
      </trkpt>
      <trkpt lat="45.71318" lon="4.56724">
        <ele>822</ele>
        <time>2025-03-02T10:17:18Z</time>
      </trkpt>
      <trkpt lat="45.71313" lon="4.56727">
        <ele>822</ele>
        <time>2025-03-02T10:17:19Z</time>
      </trkpt>
      <trkpt lat="45.71309" lon="4.56729">
        <ele>822.2</ele>
        <time>2025-03-02T10:17:20Z</time>
      </trkpt>
      <trkpt lat="45.71304" lon="4.56732">
        <ele>822.2</ele>
        <time>2025-03-02T10:17:21Z</time>
      </trkpt>
      <trkpt lat="45.713" lon="4.56734">
        <ele>822.6</ele>
        <time>2025-03-02T10:17:22Z</time>
      </trkpt>
      <trkpt lat="45.71296" lon="4.56737">
        <ele>822.6</ele>
        <time>2025-03-02T10:17:23Z</time>
      </trkpt>
      <trkpt lat="45.71292" lon="4.56739">
        <ele>823</ele>
        <time>2025-03-02T10:17:24Z</time>
      </trkpt>
      <trkpt lat="45.71288" lon="4.56742">
        <ele>823.2</ele>
        <time>2025-03-02T10:17:25Z</time>
      </trkpt>
      <trkpt lat="45.71285" lon="4.56744">
        <ele>823.8</ele>
        <time>2025-03-02T10:17:26Z</time>
      </trkpt>
      <trkpt lat="45.71281" lon="4.56746">
        <ele>824</ele>
        <time>2025-03-02T10:17:27Z</time>
      </trkpt>
      <trkpt lat="45.71278" lon="4.56748">
        <ele>824.4</ele>
        <time>2025-03-02T10:17:28Z</time>
      </trkpt>
      <trkpt lat="45.71276" lon="4.5675">
        <ele>824.8</ele>
        <time>2025-03-02T10:17:29Z</time>
      </trkpt>
      <trkpt lat="45.71272" lon="4.56753">
        <ele>825.2</ele>
        <time>2025-03-02T10:17:30Z</time>
      </trkpt>
      <trkpt lat="45.71269" lon="4.56755">
        <ele>825.4</ele>
        <time>2025-03-02T10:17:31Z</time>
      </trkpt>
      <trkpt lat="45.71266" lon="4.56757">
        <ele>825.6</ele>
        <time>2025-03-02T10:17:32Z</time>
      </trkpt>
      <trkpt lat="45.71263" lon="4.56759">
        <ele>826</ele>
        <time>2025-03-02T10:17:33Z</time>
      </trkpt>
      <trkpt lat="45.7126" lon="4.56761">
        <ele>826.2</ele>
        <time>2025-03-02T10:17:34Z</time>
      </trkpt>
      <trkpt lat="45.71257" lon="4.56764">
        <ele>826.6</ele>
        <time>2025-03-02T10:17:35Z</time>
      </trkpt>
      <trkpt lat="45.71255" lon="4.56767">
        <ele>826.8</ele>
        <time>2025-03-02T10:17:36Z</time>
      </trkpt>
      <trkpt lat="45.71252" lon="4.56769">
        <ele>827.2</ele>
        <time>2025-03-02T10:17:37Z</time>
      </trkpt>
      <trkpt lat="45.71249" lon="4.56772">
        <ele>827.4</ele>
        <time>2025-03-02T10:17:38Z</time>
      </trkpt>
      <trkpt lat="45.71246" lon="4.56775">
        <ele>827.6</ele>
        <time>2025-03-02T10:17:39Z</time>
      </trkpt>
      <trkpt lat="45.71243" lon="4.56778">
        <ele>828</ele>
        <time>2025-03-02T10:17:40Z</time>
      </trkpt>
      <trkpt lat="45.71241" lon="4.56782">
        <ele>828.4</ele>
        <time>2025-03-02T10:17:41Z</time>
      </trkpt>
      <trkpt lat="45.71238" lon="4.56785">
        <ele>828.8</ele>
        <time>2025-03-02T10:17:42Z</time>
      </trkpt>
      <trkpt lat="45.71235" lon="4.56789">
        <ele>829</ele>
        <time>2025-03-02T10:17:43Z</time>
      </trkpt>
      <trkpt lat="45.71232" lon="4.56792">
        <ele>829.2</ele>
        <time>2025-03-02T10:17:44Z</time>
      </trkpt>
      <trkpt lat="45.71229" lon="4.56796">
        <ele>829.6</ele>
        <time>2025-03-02T10:17:45Z</time>
      </trkpt>
      <trkpt lat="45.71227" lon="4.56799">
        <ele>829.8</ele>
        <time>2025-03-02T10:17:46Z</time>
      </trkpt>
      <trkpt lat="45.71224" lon="4.56802">
        <ele>830.2</ele>
        <time>2025-03-02T10:17:47Z</time>
      </trkpt>
      <trkpt lat="45.71222" lon="4.56806">
        <ele>830.4</ele>
        <time>2025-03-02T10:17:48Z</time>
      </trkpt>
      <trkpt lat="45.71219" lon="4.56809">
        <ele>830.6</ele>
        <time>2025-03-02T10:17:49Z</time>
      </trkpt>
      <trkpt lat="45.71216" lon="4.56812">
        <ele>830.8</ele>
        <time>2025-03-02T10:17:50Z</time>
      </trkpt>
      <trkpt lat="45.71213" lon="4.56815">
        <ele>831</ele>
        <time>2025-03-02T10:17:51Z</time>
      </trkpt>
      <trkpt lat="45.7121" lon="4.56817">
        <ele>831.2</ele>
        <time>2025-03-02T10:17:52Z</time>
      </trkpt>
      <trkpt lat="45.71207" lon="4.56819">
        <ele>831.6</ele>
        <time>2025-03-02T10:17:53Z</time>
      </trkpt>
      <trkpt lat="45.71205" lon="4.56821">
        <ele>832</ele>
        <time>2025-03-02T10:17:54Z</time>
      </trkpt>
      <trkpt lat="45.71202" lon="4.56822">
        <ele>832.2</ele>
        <time>2025-03-02T10:17:55Z</time>
      </trkpt>
      <trkpt lat="45.71198" lon="4.56823">
        <ele>832.4</ele>
        <time>2025-03-02T10:17:56Z</time>
      </trkpt>
      <trkpt lat="45.71195" lon="4.56824">
        <ele>832.6</ele>
        <time>2025-03-02T10:17:57Z</time>
      </trkpt>
      <trkpt lat="45.71192" lon="4.56825">
        <ele>833</ele>
        <time>2025-03-02T10:17:58Z</time>
      </trkpt>
      <trkpt lat="45.71188" lon="4.56825">
        <ele>833.2</ele>
        <time>2025-03-02T10:17:59Z</time>
      </trkpt>
      <trkpt lat="45.71185" lon="4.56825">
        <ele>833.4</ele>
        <time>2025-03-02T10:18:00Z</time>
      </trkpt>
      <trkpt lat="45.71182" lon="4.56826">
        <ele>833.8</ele>
        <time>2025-03-02T10:18:01Z</time>
      </trkpt>
      <trkpt lat="45.7118" lon="4.56826">
        <ele>834</ele>
        <time>2025-03-02T10:18:02Z</time>
      </trkpt>
      <trkpt lat="45.71178" lon="4.56826">
        <ele>834.6</ele>
        <time>2025-03-02T10:18:03Z</time>
      </trkpt>
      <trkpt lat="45.71175" lon="4.56825">
        <ele>834.8</ele>
        <time>2025-03-02T10:18:04Z</time>
      </trkpt>
      <trkpt lat="45.71171" lon="4.56825">
        <ele>835.2</ele>
        <time>2025-03-02T10:18:05Z</time>
      </trkpt>
      <trkpt lat="45.71168" lon="4.56824">
        <ele>835.4</ele>
        <time>2025-03-02T10:18:06Z</time>
      </trkpt>
      <trkpt lat="45.71164" lon="4.56823">
        <ele>835.8</ele>
        <time>2025-03-02T10:18:07Z</time>
      </trkpt>
      <trkpt lat="45.71161" lon="4.56822">
        <ele>836</ele>
        <time>2025-03-02T10:18:08Z</time>
      </trkpt>
      <trkpt lat="45.71156" lon="4.5682">
        <ele>836.4</ele>
        <time>2025-03-02T10:18:09Z</time>
      </trkpt>
      <trkpt lat="45.71152" lon="4.56819">
        <ele>836.6</ele>
        <time>2025-03-02T10:18:10Z</time>
      </trkpt>
      <trkpt lat="45.71148" lon="4.56818">
        <ele>836.8</ele>
        <time>2025-03-02T10:18:11Z</time>
      </trkpt>
      <trkpt lat="45.71144" lon="4.56817">
        <ele>837.2</ele>
        <time>2025-03-02T10:18:12Z</time>
      </trkpt>
      <trkpt lat="45.7114" lon="4.56815">
        <ele>837.4</ele>
        <time>2025-03-02T10:18:13Z</time>
      </trkpt>
      <trkpt lat="45.71137" lon="4.56813">
        <ele>837.8</ele>
        <time>2025-03-02T10:18:14Z</time>
      </trkpt>
      <trkpt lat="45.71133" lon="4.56811">
        <ele>838</ele>
        <time>2025-03-02T10:18:15Z</time>
      </trkpt>
      <trkpt lat="45.7113" lon="4.56809">
        <ele>838.2</ele>
        <time>2025-03-02T10:18:16Z</time>
      </trkpt>
      <trkpt lat="45.71126" lon="4.56807">
        <ele>838.4</ele>
        <time>2025-03-02T10:18:17Z</time>
      </trkpt>
      <trkpt lat="45.71122" lon="4.56805">
        <ele>838.6</ele>
        <time>2025-03-02T10:18:18Z</time>
      </trkpt>
      <trkpt lat="45.71119" lon="4.56803">
        <ele>838.8</ele>
        <time>2025-03-02T10:18:19Z</time>
      </trkpt>
      <trkpt lat="45.71116" lon="4.568">
        <ele>839</ele>
        <time>2025-03-02T10:18:20Z</time>
      </trkpt>
      <trkpt lat="45.71113" lon="4.56797">
        <ele>839</ele>
        <time>2025-03-02T10:18:21Z</time>
      </trkpt>
      <trkpt lat="45.7111" lon="4.56794">
        <ele>839.2</ele>
        <time>2025-03-02T10:18:22Z</time>
      </trkpt>
      <trkpt lat="45.71106" lon="4.56792">
        <ele>839.4</ele>
        <time>2025-03-02T10:18:23Z</time>
      </trkpt>
      <trkpt lat="45.71103" lon="4.5679">
        <ele>839.8</ele>
        <time>2025-03-02T10:18:24Z</time>
      </trkpt>
      <trkpt lat="45.71099" lon="4.56788">
        <ele>840</ele>
        <time>2025-03-02T10:18:25Z</time>
      </trkpt>
      <trkpt lat="45.71096" lon="4.56784">
        <ele>840.4</ele>
        <time>2025-03-02T10:18:26Z</time>
      </trkpt>
      <trkpt lat="45.71094" lon="4.5678">
        <ele>840.6</ele>
        <time>2025-03-02T10:18:27Z</time>
      </trkpt>
      <trkpt lat="45.71092" lon="4.56777">
        <ele>840.8</ele>
        <time>2025-03-02T10:18:28Z</time>
      </trkpt>
      <trkpt lat="45.71089" lon="4.56774">
        <ele>841.2</ele>
        <time>2025-03-02T10:18:29Z</time>
      </trkpt>
      <trkpt lat="45.71086" lon="4.56772">
        <ele>841.6</ele>
        <time>2025-03-02T10:18:30Z</time>
      </trkpt>
      <trkpt lat="45.71083" lon="4.5677">
        <ele>841.8</ele>
        <time>2025-03-02T10:18:31Z</time>
      </trkpt>
      <trkpt lat="45.7108" lon="4.56767">
        <ele>842.2</ele>
        <time>2025-03-02T10:18:32Z</time>
      </trkpt>
      <trkpt lat="45.71077" lon="4.56765">
        <ele>842.4</ele>
        <time>2025-03-02T10:18:33Z</time>
      </trkpt>
      <trkpt lat="45.71075" lon="4.56761">
        <ele>842.8</ele>
        <time>2025-03-02T10:18:34Z</time>
      </trkpt>
      <trkpt lat="45.71072" lon="4.56758">
        <ele>843.2</ele>
        <time>2025-03-02T10:18:35Z</time>
      </trkpt>
      <trkpt lat="45.71069" lon="4.56756">
        <ele>843.4</ele>
        <time>2025-03-02T10:18:36Z</time>
      </trkpt>
      <trkpt lat="45.71066" lon="4.56754">
        <ele>843.8</ele>
        <time>2025-03-02T10:18:37Z</time>
      </trkpt>
      <trkpt lat="45.71064" lon="4.56752">
        <ele>844</ele>
        <time>2025-03-02T10:18:38Z</time>
      </trkpt>
      <trkpt lat="45.71061" lon="4.56748">
        <ele>844.2</ele>
        <time>2025-03-02T10:18:39Z</time>
      </trkpt>
      <trkpt lat="45.71059" lon="4.56744">
        <ele>844.4</ele>
        <time>2025-03-02T10:18:40Z</time>
      </trkpt>
      <trkpt lat="45.71056" lon="4.56739">
        <ele>844.6</ele>
        <time>2025-03-02T10:18:41Z</time>
      </trkpt>
      <trkpt lat="45.71055" lon="4.56733">
        <ele>844.8</ele>
        <time>2025-03-02T10:18:42Z</time>
      </trkpt>
      <trkpt lat="45.71053" lon="4.56727">
        <ele>845</ele>
        <time>2025-03-02T10:18:43Z</time>
      </trkpt>
      <trkpt lat="45.71051" lon="4.56723">
        <ele>845.4</ele>
        <time>2025-03-02T10:18:44Z</time>
      </trkpt>
      <trkpt lat="45.71048" lon="4.56719">
        <ele>845.6</ele>
        <time>2025-03-02T10:18:45Z</time>
      </trkpt>
      <trkpt lat="45.71046" lon="4.56714">
        <ele>845.8</ele>
        <time>2025-03-02T10:18:46Z</time>
      </trkpt>
      <trkpt lat="45.71045" lon="4.56709">
        <ele>845.8</ele>
        <time>2025-03-02T10:18:47Z</time>
      </trkpt>
      <trkpt lat="45.71042" lon="4.56704">
        <ele>846</ele>
        <time>2025-03-02T10:18:48Z</time>
      </trkpt>
      <trkpt lat="45.7104" lon="4.56702">
        <ele>846.2</ele>
        <time>2025-03-02T10:18:49Z</time>
      </trkpt>
      <trkpt lat="45.71038" lon="4.56698">
        <ele>846.2</ele>
        <time>2025-03-02T10:18:50Z</time>
      </trkpt>
      <trkpt lat="45.71036" lon="4.56695">
        <ele>846.4</ele>
        <time>2025-03-02T10:18:51Z</time>
      </trkpt>
      <trkpt lat="45.71035" lon="4.56691">
        <ele>846.8</ele>
        <time>2025-03-02T10:18:52Z</time>
      </trkpt>
      <trkpt lat="45.71034" lon="4.56686">
        <ele>847.2</ele>
        <time>2025-03-02T10:18:53Z</time>
      </trkpt>
      <trkpt lat="45.71033" lon="4.56681">
        <ele>847.6</ele>
        <time>2025-03-02T10:18:54Z</time>
      </trkpt>
      <trkpt lat="45.71033" lon="4.56674">
        <ele>848</ele>
        <time>2025-03-02T10:18:55Z</time>
      </trkpt>
      <trkpt lat="45.71032" lon="4.56667">
        <ele>848.2</ele>
        <time>2025-03-02T10:18:56Z</time>
      </trkpt>
      <trkpt lat="45.71031" lon="4.5666">
        <ele>848.4</ele>
        <time>2025-03-02T10:18:57Z</time>
      </trkpt>
      <trkpt lat="45.71031" lon="4.56654">
        <ele>848.6</ele>
        <time>2025-03-02T10:18:58Z</time>
      </trkpt>
      <trkpt lat="45.7103" lon="4.56649">
        <ele>849</ele>
        <time>2025-03-02T10:18:59Z</time>
      </trkpt>
      <trkpt lat="45.71028" lon="4.56644">
        <ele>849.2</ele>
        <time>2025-03-02T10:19:00Z</time>
      </trkpt>
      <trkpt lat="45.71027" lon="4.56638">
        <ele>849.4</ele>
        <time>2025-03-02T10:19:01Z</time>
      </trkpt>
      <trkpt lat="45.71024" lon="4.56631">
        <ele>849.4</ele>
        <time>2025-03-02T10:19:02Z</time>
      </trkpt>
      <trkpt lat="45.71024" lon="4.56625">
        <ele>849.6</ele>
        <time>2025-03-02T10:19:03Z</time>
      </trkpt>
      <trkpt lat="45.71024" lon="4.56619">
        <ele>849.6</ele>
        <time>2025-03-02T10:19:04Z</time>
      </trkpt>
      <trkpt lat="45.71023" lon="4.56612">
        <ele>849.8</ele>
        <time>2025-03-02T10:19:05Z</time>
      </trkpt>
      <trkpt lat="45.7102" lon="4.56606">
        <ele>850</ele>
        <time>2025-03-02T10:19:06Z</time>
      </trkpt>
      <trkpt lat="45.71021" lon="4.56598">
        <ele>850</ele>
        <time>2025-03-02T10:19:07Z</time>
      </trkpt>
      <trkpt lat="45.71019" lon="4.56594">
        <ele>850.2</ele>
        <time>2025-03-02T10:19:08Z</time>
      </trkpt>
      <trkpt lat="45.71016" lon="4.56591">
        <ele>850.4</ele>
        <time>2025-03-02T10:19:09Z</time>
      </trkpt>
      <trkpt lat="45.71013" lon="4.56588">
        <ele>850.6</ele>
        <time>2025-03-02T10:19:10Z</time>
      </trkpt>
      <trkpt lat="45.71013" lon="4.56583">
        <ele>850.8</ele>
        <time>2025-03-02T10:19:11Z</time>
      </trkpt>
      <trkpt lat="45.71014" lon="4.56575">
        <ele>851</ele>
        <time>2025-03-02T10:19:12Z</time>
      </trkpt>
      <trkpt lat="45.71015" lon="4.5657">
        <ele>851.2</ele>
        <time>2025-03-02T10:19:13Z</time>
      </trkpt>
      <trkpt lat="45.71015" lon="4.56566">
        <ele>851.2</ele>
        <time>2025-03-02T10:19:14Z</time>
      </trkpt>
      <trkpt lat="45.71015" lon="4.56561">
        <ele>851.2</ele>
        <time>2025-03-02T10:19:15Z</time>
      </trkpt>
      <trkpt lat="45.71016" lon="4.56556">
        <ele>851.2</ele>
        <time>2025-03-02T10:19:16Z</time>
      </trkpt>
      <trkpt lat="45.71017" lon="4.5655">
        <ele>851.2</ele>
        <time>2025-03-02T10:19:17Z</time>
      </trkpt>
      <trkpt lat="45.71018" lon="4.56545">
        <ele>851.2</ele>
        <time>2025-03-02T10:19:18Z</time>
      </trkpt>
      <trkpt lat="45.71018" lon="4.5654">
        <ele>851.2</ele>
        <time>2025-03-02T10:19:19Z</time>
      </trkpt>
      <trkpt lat="45.71018" lon="4.56535">
        <ele>851.4</ele>
        <time>2025-03-02T10:19:20Z</time>
      </trkpt>
      <trkpt lat="45.71018" lon="4.56531">
        <ele>851.6</ele>
        <time>2025-03-02T10:19:21Z</time>
      </trkpt>
      <trkpt lat="45.71019" lon="4.56526">
        <ele>851.8</ele>
        <time>2025-03-02T10:19:22Z</time>
      </trkpt>
      <trkpt lat="45.71019" lon="4.56522">
        <ele>852.4</ele>
        <time>2025-03-02T10:19:23Z</time>
      </trkpt>
      <trkpt lat="45.71018" lon="4.56517">
        <ele>852.8</ele>
        <time>2025-03-02T10:19:24Z</time>
      </trkpt>
      <trkpt lat="45.71017" lon="4.56513">
        <ele>853.2</ele>
        <time>2025-03-02T10:19:25Z</time>
      </trkpt>
      <trkpt lat="45.71017" lon="4.56508">
        <ele>853.6</ele>
        <time>2025-03-02T10:19:26Z</time>
      </trkpt>
      <trkpt lat="45.71017" lon="4.56503">
        <ele>853.8</ele>
        <time>2025-03-02T10:19:27Z</time>
      </trkpt>
      <trkpt lat="45.71017" lon="4.56499">
        <ele>854.2</ele>
        <time>2025-03-02T10:19:28Z</time>
      </trkpt>
      <trkpt lat="45.71017" lon="4.56496">
        <ele>854.4</ele>
        <time>2025-03-02T10:19:29Z</time>
      </trkpt>
      <trkpt lat="45.71016" lon="4.56493">
        <ele>855.2</ele>
        <time>2025-03-02T10:19:30Z</time>
      </trkpt>
      <trkpt lat="45.71016" lon="4.56489">
        <ele>855.6</ele>
        <time>2025-03-02T10:19:31Z</time>
      </trkpt>
      <trkpt lat="45.71017" lon="4.56485">
        <ele>856.2</ele>
        <time>2025-03-02T10:19:32Z</time>
      </trkpt>
      <trkpt lat="45.71017" lon="4.56481">
        <ele>856.4</ele>
        <time>2025-03-02T10:19:33Z</time>
      </trkpt>
      <trkpt lat="45.71016" lon="4.56478">
        <ele>857</ele>
        <time>2025-03-02T10:19:34Z</time>
      </trkpt>
      <trkpt lat="45.71016" lon="4.56474">
        <ele>857.4</ele>
        <time>2025-03-02T10:19:35Z</time>
      </trkpt>
      <trkpt lat="45.71017" lon="4.56471">
        <ele>857.8</ele>
        <time>2025-03-02T10:19:36Z</time>
      </trkpt>
      <trkpt lat="45.71017" lon="4.56467">
        <ele>858.4</ele>
        <time>2025-03-02T10:19:37Z</time>
      </trkpt>
      <trkpt lat="45.71017" lon="4.56465">
        <ele>859</ele>
        <time>2025-03-02T10:19:38Z</time>
      </trkpt>
      <trkpt lat="45.71018" lon="4.5646">
        <ele>859.4</ele>
        <time>2025-03-02T10:19:39Z</time>
      </trkpt>
      <trkpt lat="45.71017" lon="4.56455">
        <ele>859.8</ele>
        <time>2025-03-02T10:19:40Z</time>
      </trkpt>
      <trkpt lat="45.71017" lon="4.56451">
        <ele>860.2</ele>
        <time>2025-03-02T10:19:41Z</time>
      </trkpt>
      <trkpt lat="45.71017" lon="4.56447">
        <ele>860.4</ele>
        <time>2025-03-02T10:19:42Z</time>
      </trkpt>
      <trkpt lat="45.71017" lon="4.56444">
        <ele>861</ele>
        <time>2025-03-02T10:19:43Z</time>
      </trkpt>
      <trkpt lat="45.71016" lon="4.5644">
        <ele>861.2</ele>
        <time>2025-03-02T10:19:44Z</time>
      </trkpt>
      <trkpt lat="45.71017" lon="4.56436">
        <ele>861.4</ele>
        <time>2025-03-02T10:19:45Z</time>
      </trkpt>
      <trkpt lat="45.71017" lon="4.56432">
        <ele>861.4</ele>
        <time>2025-03-02T10:19:46Z</time>
      </trkpt>
      <trkpt lat="45.71018" lon="4.56428">
        <ele>861.8</ele>
        <time>2025-03-02T10:19:47Z</time>
      </trkpt>
      <trkpt lat="45.71018" lon="4.56424">
        <ele>861.8</ele>
        <time>2025-03-02T10:19:48Z</time>
      </trkpt>
      <trkpt lat="45.71018" lon="4.5642">
        <ele>862.2</ele>
        <time>2025-03-02T10:19:49Z</time>
      </trkpt>
      <trkpt lat="45.71018" lon="4.56416">
        <ele>862.6</ele>
        <time>2025-03-02T10:19:50Z</time>
      </trkpt>
      <trkpt lat="45.71017" lon="4.56413">
        <ele>863</ele>
        <time>2025-03-02T10:19:51Z</time>
      </trkpt>
      <trkpt lat="45.71017" lon="4.56409">
        <ele>863.2</ele>
        <time>2025-03-02T10:19:52Z</time>
      </trkpt>
      <trkpt lat="45.71016" lon="4.56404">
        <ele>863.6</ele>
        <time>2025-03-02T10:19:53Z</time>
      </trkpt>
      <trkpt lat="45.71016" lon="4.56401">
        <ele>864</ele>
        <time>2025-03-02T10:19:54Z</time>
      </trkpt>
      <trkpt lat="45.71016" lon="4.56397">
        <ele>864.2</ele>
        <time>2025-03-02T10:19:55Z</time>
      </trkpt>
      <trkpt lat="45.71016" lon="4.56394">
        <ele>864.4</ele>
        <time>2025-03-02T10:19:56Z</time>
      </trkpt>
      <trkpt lat="45.71016" lon="4.56391">
        <ele>864.8</ele>
        <time>2025-03-02T10:19:57Z</time>
      </trkpt>
      <trkpt lat="45.71016" lon="4.56387">
        <ele>865</ele>
        <time>2025-03-02T10:19:58Z</time>
      </trkpt>
      <trkpt lat="45.71016" lon="4.56385">
        <ele>865.4</ele>
        <time>2025-03-02T10:19:59Z</time>
      </trkpt>
      <trkpt lat="45.71016" lon="4.56381">
        <ele>865.6</ele>
        <time>2025-03-02T10:20:00Z</time>
      </trkpt>
      <trkpt lat="45.71015" lon="4.56378">
        <ele>866</ele>
        <time>2025-03-02T10:20:01Z</time>
      </trkpt>
      <trkpt lat="45.71015" lon="4.56374">
        <ele>866</ele>
        <time>2025-03-02T10:20:02Z</time>
      </trkpt>
      <trkpt lat="45.71015" lon="4.5637">
        <ele>866.2</ele>
        <time>2025-03-02T10:20:03Z</time>
      </trkpt>
      <trkpt lat="45.71015" lon="4.56366">
        <ele>866.4</ele>
        <time>2025-03-02T10:20:04Z</time>
      </trkpt>
      <trkpt lat="45.71014" lon="4.56363">
        <ele>866.6</ele>
        <time>2025-03-02T10:20:05Z</time>
      </trkpt>
      <trkpt lat="45.71014" lon="4.5636">
        <ele>866.8</ele>
        <time>2025-03-02T10:20:06Z</time>
      </trkpt>
      <trkpt lat="45.71015" lon="4.56355">
        <ele>867</ele>
        <time>2025-03-02T10:20:07Z</time>
      </trkpt>
      <trkpt lat="45.71015" lon="4.56352">
        <ele>867.4</ele>
        <time>2025-03-02T10:20:08Z</time>
      </trkpt>
      <trkpt lat="45.71015" lon="4.56351">
        <ele>867.4</ele>
        <time>2025-03-02T10:20:09Z</time>
      </trkpt>
      <trkpt lat="45.71015" lon="4.56349">
        <ele>867.8</ele>
        <time>2025-03-02T10:20:10Z</time>
      </trkpt>
      <trkpt lat="45.71015" lon="4.56349">
        <ele>868</ele>
        <time>2025-03-02T10:20:11Z</time>
      </trkpt>
      <trkpt lat="45.71015" lon="4.56349">
        <ele>868.2</ele>
        <time>2025-03-02T10:20:12Z</time>
      </trkpt>
      <trkpt lat="45.71015" lon="4.56349">
        <ele>868.4</ele>
        <time>2025-03-02T10:20:13Z</time>
      </trkpt>
      <trkpt lat="45.71015" lon="4.56349">
        <ele>868.4</ele>
        <time>2025-03-02T10:20:14Z</time>
      </trkpt>
      <trkpt lat="45.71015" lon="4.56349">
        <ele>868.6</ele>
        <time>2025-03-02T10:20:15Z</time>
      </trkpt>
      <trkpt lat="45.71015" lon="4.56349">
        <ele>868.6</ele>
        <time>2025-03-02T10:20:16Z</time>
      </trkpt>
      <trkpt lat="45.71015" lon="4.56349">
        <ele>868.6</ele>
        <time>2025-03-02T10:20:17Z</time>
      </trkpt>
      <trkpt lat="45.71015" lon="4.56349">
        <ele>868.6</ele>
        <time>2025-03-02T10:20:18Z</time>
      </trkpt>
      <trkpt lat="45.71015" lon="4.56349">
        <ele>868.6</ele>
        <time>2025-03-02T10:20:19Z</time>
      </trkpt>
      <trkpt lat="45.71015" lon="4.56349">
        <ele>868.6</ele>
        <time>2025-03-02T10:20:20Z</time>
      </trkpt>
      <trkpt lat="45.71015" lon="4.56347">
        <ele>868.6</ele>
        <time>2025-03-02T10:20:21Z</time>
      </trkpt>
      <trkpt lat="45.71015" lon="4.56345">
        <ele>868.6</ele>
        <time>2025-03-02T10:20:22Z</time>
      </trkpt>
      <trkpt lat="45.71015" lon="4.56342">
        <ele>868.6</ele>
        <time>2025-03-02T10:20:23Z</time>
      </trkpt>
      <trkpt lat="45.71016" lon="4.56339">
        <ele>868.6</ele>
        <time>2025-03-02T10:20:24Z</time>
      </trkpt>
      <trkpt lat="45.71016" lon="4.56336">
        <ele>868.6</ele>
        <time>2025-03-02T10:20:25Z</time>
      </trkpt>
      <trkpt lat="45.71016" lon="4.56333">
        <ele>868.8</ele>
        <time>2025-03-02T10:20:26Z</time>
      </trkpt>
      <trkpt lat="45.71016" lon="4.5633">
        <ele>869</ele>
        <time>2025-03-02T10:20:27Z</time>
      </trkpt>
      <trkpt lat="45.71017" lon="4.56327">
        <ele>869.2</ele>
        <time>2025-03-02T10:20:28Z</time>
      </trkpt>
      <trkpt lat="45.71017" lon="4.56324">
        <ele>869.4</ele>
        <time>2025-03-02T10:20:29Z</time>
      </trkpt>
      <trkpt lat="45.71017" lon="4.56321">
        <ele>869.8</ele>
        <time>2025-03-02T10:20:30Z</time>
      </trkpt>
      <trkpt lat="45.71017" lon="4.56319">
        <ele>870</ele>
        <time>2025-03-02T10:20:31Z</time>
      </trkpt>
      <trkpt lat="45.71018" lon="4.56316">
        <ele>870.4</ele>
        <time>2025-03-02T10:20:32Z</time>
      </trkpt>
      <trkpt lat="45.71017" lon="4.56313">
        <ele>870.8</ele>
        <time>2025-03-02T10:20:33Z</time>
      </trkpt>
      <trkpt lat="45.71018" lon="4.5631">
        <ele>871</ele>
        <time>2025-03-02T10:20:34Z</time>
      </trkpt>
      <trkpt lat="45.71017" lon="4.56306">
        <ele>871.4</ele>
        <time>2025-03-02T10:20:35Z</time>
      </trkpt>
      <trkpt lat="45.71017" lon="4.56303">
        <ele>871.8</ele>
        <time>2025-03-02T10:20:36Z</time>
      </trkpt>
      <trkpt lat="45.71017" lon="4.56299">
        <ele>872.2</ele>
        <time>2025-03-02T10:20:37Z</time>
      </trkpt>
      <trkpt lat="45.71017" lon="4.56296">
        <ele>872.4</ele>
        <time>2025-03-02T10:20:38Z</time>
      </trkpt>
      <trkpt lat="45.71017" lon="4.56293">
        <ele>872.6</ele>
        <time>2025-03-02T10:20:39Z</time>
      </trkpt>
      <trkpt lat="45.71018" lon="4.5629">
        <ele>873</ele>
        <time>2025-03-02T10:20:40Z</time>
      </trkpt>
      <trkpt lat="45.71017" lon="4.56287">
        <ele>873.4</ele>
        <time>2025-03-02T10:20:41Z</time>
      </trkpt>
      <trkpt lat="45.71016" lon="4.56283">
        <ele>873.8</ele>
        <time>2025-03-02T10:20:42Z</time>
      </trkpt>
      <trkpt lat="45.71015" lon="4.5628">
        <ele>874.2</ele>
        <time>2025-03-02T10:20:43Z</time>
      </trkpt>
      <trkpt lat="45.71015" lon="4.56276">
        <ele>874.6</ele>
        <time>2025-03-02T10:20:44Z</time>
      </trkpt>
      <trkpt lat="45.71014" lon="4.56273">
        <ele>875</ele>
        <time>2025-03-02T10:20:45Z</time>
      </trkpt>
      <trkpt lat="45.71013" lon="4.5627">
        <ele>875.8</ele>
        <time>2025-03-02T10:20:46Z</time>
      </trkpt>
      <trkpt lat="45.71012" lon="4.56267">
        <ele>876.4</ele>
        <time>2025-03-02T10:20:47Z</time>
      </trkpt>
      <trkpt lat="45.71011" lon="4.56264">
        <ele>876.8</ele>
        <time>2025-03-02T10:20:48Z</time>
      </trkpt>
      <trkpt lat="45.7101" lon="4.56261">
        <ele>877.4</ele>
        <time>2025-03-02T10:20:49Z</time>
      </trkpt>
      <trkpt lat="45.7101" lon="4.56259">
        <ele>877.6</ele>
        <time>2025-03-02T10:20:50Z</time>
      </trkpt>
      <trkpt lat="45.71009" lon="4.56255">
        <ele>878</ele>
        <time>2025-03-02T10:20:51Z</time>
      </trkpt>
      <trkpt lat="45.71009" lon="4.56252">
        <ele>878.4</ele>
        <time>2025-03-02T10:20:52Z</time>
      </trkpt>
      <trkpt lat="45.71008" lon="4.56249">
        <ele>878.8</ele>
        <time>2025-03-02T10:20:53Z</time>
      </trkpt>
      <trkpt lat="45.71007" lon="4.56246">
        <ele>879.2</ele>
        <time>2025-03-02T10:20:54Z</time>
      </trkpt>
      <trkpt lat="45.71005" lon="4.56243">
        <ele>880</ele>
        <time>2025-03-02T10:20:55Z</time>
      </trkpt>
      <trkpt lat="45.71004" lon="4.5624">
        <ele>880.6</ele>
        <time>2025-03-02T10:20:56Z</time>
      </trkpt>
      <trkpt lat="45.71003" lon="4.56237">
        <ele>881</ele>
        <time>2025-03-02T10:20:57Z</time>
      </trkpt>
      <trkpt lat="45.71003" lon="4.56234">
        <ele>881.6</ele>
        <time>2025-03-02T10:20:58Z</time>
      </trkpt>
      <trkpt lat="45.71002" lon="4.56231">
        <ele>882</ele>
        <time>2025-03-02T10:20:59Z</time>
      </trkpt>
      <trkpt lat="45.71001" lon="4.56227">
        <ele>882.4</ele>
        <time>2025-03-02T10:21:00Z</time>
      </trkpt>
      <trkpt lat="45.71" lon="4.56224">
        <ele>882.8</ele>
        <time>2025-03-02T10:21:01Z</time>
      </trkpt>
      <trkpt lat="45.70999" lon="4.56221">
        <ele>883.2</ele>
        <time>2025-03-02T10:21:02Z</time>
      </trkpt>
      <trkpt lat="45.70998" lon="4.56218">
        <ele>883.8</ele>
        <time>2025-03-02T10:21:03Z</time>
      </trkpt>
      <trkpt lat="45.70997" lon="4.56215">
        <ele>884.2</ele>
        <time>2025-03-02T10:21:04Z</time>
      </trkpt>
      <trkpt lat="45.70995" lon="4.56213">
        <ele>884.6</ele>
        <time>2025-03-02T10:21:05Z</time>
      </trkpt>
      <trkpt lat="45.70994" lon="4.5621">
        <ele>885.2</ele>
        <time>2025-03-02T10:21:06Z</time>
      </trkpt>
      <trkpt lat="45.70992" lon="4.56208">
        <ele>885.6</ele>
        <time>2025-03-02T10:21:07Z</time>
      </trkpt>
      <trkpt lat="45.70991" lon="4.56205">
        <ele>886</ele>
        <time>2025-03-02T10:21:08Z</time>
      </trkpt>
      <trkpt lat="45.70989" lon="4.56203">
        <ele>886.2</ele>
        <time>2025-03-02T10:21:09Z</time>
      </trkpt>
      <trkpt lat="45.70987" lon="4.56202">
        <ele>886.6</ele>
        <time>2025-03-02T10:21:10Z</time>
      </trkpt>
      <trkpt lat="45.70986" lon="4.562">
        <ele>886.8</ele>
        <time>2025-03-02T10:21:11Z</time>
      </trkpt>
      <trkpt lat="45.70984" lon="4.56197">
        <ele>887.2</ele>
        <time>2025-03-02T10:21:12Z</time>
      </trkpt>
      <trkpt lat="45.70983" lon="4.56194">
        <ele>887.4</ele>
        <time>2025-03-02T10:21:13Z</time>
      </trkpt>
      <trkpt lat="45.70981" lon="4.56191">
        <ele>887.8</ele>
        <time>2025-03-02T10:21:14Z</time>
      </trkpt>
      <trkpt lat="45.7098" lon="4.56188">
        <ele>888</ele>
        <time>2025-03-02T10:21:15Z</time>
      </trkpt>
      <trkpt lat="45.70979" lon="4.56185">
        <ele>888.4</ele>
        <time>2025-03-02T10:21:16Z</time>
      </trkpt>
      <trkpt lat="45.70978" lon="4.56183">
        <ele>889</ele>
        <time>2025-03-02T10:21:17Z</time>
      </trkpt>
      <trkpt lat="45.70976" lon="4.5618">
        <ele>889.2</ele>
        <time>2025-03-02T10:21:18Z</time>
      </trkpt>
      <trkpt lat="45.70975" lon="4.56177">
        <ele>889.6</ele>
        <time>2025-03-02T10:21:19Z</time>
      </trkpt>
      <trkpt lat="45.70974" lon="4.56175">
        <ele>890</ele>
        <time>2025-03-02T10:21:20Z</time>
      </trkpt>
      <trkpt lat="45.70973" lon="4.56172">
        <ele>890.4</ele>
        <time>2025-03-02T10:21:21Z</time>
      </trkpt>
      <trkpt lat="45.70972" lon="4.56169">
        <ele>890.6</ele>
        <time>2025-03-02T10:21:22Z</time>
      </trkpt>
      <trkpt lat="45.70971" lon="4.56167">
        <ele>891</ele>
        <time>2025-03-02T10:21:23Z</time>
      </trkpt>
      <trkpt lat="45.7097" lon="4.56164">
        <ele>891.4</ele>
        <time>2025-03-02T10:21:24Z</time>
      </trkpt>
      <trkpt lat="45.70969" lon="4.56161">
        <ele>891.8</ele>
        <time>2025-03-02T10:21:25Z</time>
      </trkpt>
      <trkpt lat="45.70969" lon="4.56159">
        <ele>892.2</ele>
        <time>2025-03-02T10:21:26Z</time>
      </trkpt>
      <trkpt lat="45.70969" lon="4.56156">
        <ele>892.4</ele>
        <time>2025-03-02T10:21:27Z</time>
      </trkpt>
      <trkpt lat="45.70969" lon="4.56153">
        <ele>892.8</ele>
        <time>2025-03-02T10:21:28Z</time>
      </trkpt>
      <trkpt lat="45.70969" lon="4.56151">
        <ele>893.2</ele>
        <time>2025-03-02T10:21:29Z</time>
      </trkpt>
      <trkpt lat="45.70969" lon="4.56149">
        <ele>893.6</ele>
        <time>2025-03-02T10:21:30Z</time>
      </trkpt>
      <trkpt lat="45.70969" lon="4.56146">
        <ele>893.8</ele>
        <time>2025-03-02T10:21:31Z</time>
      </trkpt>
      <trkpt lat="45.70969" lon="4.56144">
        <ele>894</ele>
        <time>2025-03-02T10:21:32Z</time>
      </trkpt>
      <trkpt lat="45.70969" lon="4.56143">
        <ele>894.2</ele>
        <time>2025-03-02T10:21:33Z</time>
      </trkpt>
      <trkpt lat="45.70969" lon="4.56143">
        <ele>894.4</ele>
        <time>2025-03-02T10:21:34Z</time>
      </trkpt>
      <trkpt lat="45.70969" lon="4.56143">
        <ele>894.6</ele>
        <time>2025-03-02T10:21:35Z</time>
      </trkpt>
      <trkpt lat="45.70969" lon="4.56143">
        <ele>894.8</ele>
        <time>2025-03-02T10:21:36Z</time>
      </trkpt>
      <trkpt lat="45.70969" lon="4.56143">
        <ele>894.8</ele>
        <time>2025-03-02T10:21:37Z</time>
      </trkpt>
      <trkpt lat="45.70969" lon="4.56143">
        <ele>894.8</ele>
        <time>2025-03-02T10:21:38Z</time>
      </trkpt>
      <trkpt lat="45.70969" lon="4.56143">
        <ele>894.8</ele>
        <time>2025-03-02T10:21:39Z</time>
      </trkpt>
      <trkpt lat="45.70969" lon="4.56143">
        <ele>895</ele>
        <time>2025-03-02T10:21:40Z</time>
      </trkpt>
      <trkpt lat="45.70969" lon="4.56143">
        <ele>894.8</ele>
        <time>2025-03-02T10:21:41Z</time>
      </trkpt>
      <trkpt lat="45.70969" lon="4.56143">
        <ele>894.8</ele>
        <time>2025-03-02T10:21:42Z</time>
      </trkpt>
      <trkpt lat="45.70969" lon="4.56143">
        <ele>894.8</ele>
        <time>2025-03-02T10:21:43Z</time>
      </trkpt>
      <trkpt lat="45.70969" lon="4.56143">
        <ele>894.8</ele>
        <time>2025-03-02T10:21:44Z</time>
      </trkpt>
      <trkpt lat="45.70969" lon="4.56143">
        <ele>894.8</ele>
        <time>2025-03-02T10:21:45Z</time>
      </trkpt>
      <trkpt lat="45.70969" lon="4.56143">
        <ele>894.8</ele>
        <time>2025-03-02T10:21:46Z</time>
      </trkpt>
      <trkpt lat="45.70968" lon="4.56141">
        <ele>894.6</ele>
        <time>2025-03-02T10:21:47Z</time>
      </trkpt>
      <trkpt lat="45.70967" lon="4.56138">
        <ele>894.6</ele>
        <time>2025-03-02T10:21:48Z</time>
      </trkpt>
      <trkpt lat="45.70967" lon="4.56135">
        <ele>894.6</ele>
        <time>2025-03-02T10:21:49Z</time>
      </trkpt>
      <trkpt lat="45.70966" lon="4.56132">
        <ele>894.6</ele>
        <time>2025-03-02T10:21:50Z</time>
      </trkpt>
      <trkpt lat="45.70965" lon="4.56128">
        <ele>894.8</ele>
        <time>2025-03-02T10:21:51Z</time>
      </trkpt>
      <trkpt lat="45.70964" lon="4.56125">
        <ele>895</ele>
        <time>2025-03-02T10:21:52Z</time>
      </trkpt>
      <trkpt lat="45.70963" lon="4.56122">
        <ele>895.4</ele>
        <time>2025-03-02T10:21:53Z</time>
      </trkpt>
      <trkpt lat="45.70962" lon="4.56119">
        <ele>895.8</ele>
        <time>2025-03-02T10:21:54Z</time>
      </trkpt>
      <trkpt lat="45.70961" lon="4.56116">
        <ele>896</ele>
        <time>2025-03-02T10:21:55Z</time>
      </trkpt>
      <trkpt lat="45.7096" lon="4.56114">
        <ele>896.6</ele>
        <time>2025-03-02T10:21:56Z</time>
      </trkpt>
      <trkpt lat="45.70959" lon="4.56111">
        <ele>897.2</ele>
        <time>2025-03-02T10:21:57Z</time>
      </trkpt>
      <trkpt lat="45.70958" lon="4.56108">
        <ele>897.4</ele>
        <time>2025-03-02T10:21:58Z</time>
      </trkpt>
      <trkpt lat="45.70957" lon="4.56105">
        <ele>898</ele>
        <time>2025-03-02T10:21:59Z</time>
      </trkpt>
      <trkpt lat="45.70956" lon="4.56102">
        <ele>898.4</ele>
        <time>2025-03-02T10:22:00Z</time>
      </trkpt>
      <trkpt lat="45.70956" lon="4.56098">
        <ele>898.6</ele>
        <time>2025-03-02T10:22:01Z</time>
      </trkpt>
      <trkpt lat="45.70956" lon="4.56095">
        <ele>898.8</ele>
        <time>2025-03-02T10:22:02Z</time>
      </trkpt>
      <trkpt lat="45.70955" lon="4.56092">
        <ele>899</ele>
        <time>2025-03-02T10:22:03Z</time>
      </trkpt>
      <trkpt lat="45.70953" lon="4.5609">
        <ele>899.4</ele>
        <time>2025-03-02T10:22:04Z</time>
      </trkpt>
      <trkpt lat="45.70951" lon="4.56087">
        <ele>899.6</ele>
        <time>2025-03-02T10:22:05Z</time>
      </trkpt>
      <trkpt lat="45.7095" lon="4.56085">
        <ele>900.2</ele>
        <time>2025-03-02T10:22:06Z</time>
      </trkpt>
      <trkpt lat="45.70948" lon="4.56082">
        <ele>900.2</ele>
        <time>2025-03-02T10:22:07Z</time>
      </trkpt>
      <trkpt lat="45.70947" lon="4.56079">
        <ele>900.4</ele>
        <time>2025-03-02T10:22:08Z</time>
      </trkpt>
      <trkpt lat="45.70946" lon="4.56075">
        <ele>900.4</ele>
        <time>2025-03-02T10:22:09Z</time>
      </trkpt>
      <trkpt lat="45.70945" lon="4.56072">
        <ele>900.4</ele>
        <time>2025-03-02T10:22:10Z</time>
      </trkpt>
      <trkpt lat="45.70946" lon="4.56068">
        <ele>900.4</ele>
        <time>2025-03-02T10:22:11Z</time>
      </trkpt>
      <trkpt lat="45.70946" lon="4.56065">
        <ele>900.4</ele>
        <time>2025-03-02T10:22:12Z</time>
      </trkpt>
      <trkpt lat="45.70946" lon="4.56062">
        <ele>900.6</ele>
        <time>2025-03-02T10:22:13Z</time>
      </trkpt>
      <trkpt lat="45.70947" lon="4.56059">
        <ele>900.8</ele>
        <time>2025-03-02T10:22:14Z</time>
      </trkpt>
      <trkpt lat="45.70948" lon="4.56055">
        <ele>900.8</ele>
        <time>2025-03-02T10:22:15Z</time>
      </trkpt>
      <trkpt lat="45.70949" lon="4.56052">
        <ele>901.2</ele>
        <time>2025-03-02T10:22:16Z</time>
      </trkpt>
      <trkpt lat="45.7095" lon="4.56048">
        <ele>901.4</ele>
        <time>2025-03-02T10:22:17Z</time>
      </trkpt>
      <trkpt lat="45.70951" lon="4.56045">
        <ele>901.8</ele>
        <time>2025-03-02T10:22:18Z</time>
      </trkpt>
      <trkpt lat="45.70951" lon="4.56042">
        <ele>902</ele>
        <time>2025-03-02T10:22:19Z</time>
      </trkpt>
      <trkpt lat="45.70952" lon="4.56038">
        <ele>902.6</ele>
        <time>2025-03-02T10:22:20Z</time>
      </trkpt>
      <trkpt lat="45.70953" lon="4.56035">
        <ele>903</ele>
        <time>2025-03-02T10:22:21Z</time>
      </trkpt>
      <trkpt lat="45.70953" lon="4.56031">
        <ele>903.4</ele>
        <time>2025-03-02T10:22:22Z</time>
      </trkpt>
      <trkpt lat="45.70954" lon="4.56028">
        <ele>903.8</ele>
        <time>2025-03-02T10:22:23Z</time>
      </trkpt>
      <trkpt lat="45.70955" lon="4.56024">
        <ele>904</ele>
        <time>2025-03-02T10:22:24Z</time>
      </trkpt>
      <trkpt lat="45.70955" lon="4.56021">
        <ele>904.4</ele>
        <time>2025-03-02T10:22:25Z</time>
      </trkpt>
      <trkpt lat="45.70955" lon="4.56017">
        <ele>904.8</ele>
        <time>2025-03-02T10:22:26Z</time>
      </trkpt>
      <trkpt lat="45.70956" lon="4.56014">
        <ele>905</ele>
        <time>2025-03-02T10:22:27Z</time>
      </trkpt>
      <trkpt lat="45.70956" lon="4.56011">
        <ele>905.4</ele>
        <time>2025-03-02T10:22:28Z</time>
      </trkpt>
      <trkpt lat="45.70957" lon="4.56007">
        <ele>905.8</ele>
        <time>2025-03-02T10:22:29Z</time>
      </trkpt>
      <trkpt lat="45.70957" lon="4.56004">
        <ele>906</ele>
        <time>2025-03-02T10:22:30Z</time>
      </trkpt>
      <trkpt lat="45.70958" lon="4.56001">
        <ele>906.4</ele>
        <time>2025-03-02T10:22:31Z</time>
      </trkpt>
      <trkpt lat="45.70959" lon="4.55998">
        <ele>906.8</ele>
        <time>2025-03-02T10:22:32Z</time>
      </trkpt>
      <trkpt lat="45.7096" lon="4.55995">
        <ele>906.8</ele>
        <time>2025-03-02T10:22:33Z</time>
      </trkpt>
      <trkpt lat="45.70961" lon="4.55992">
        <ele>907.2</ele>
        <time>2025-03-02T10:22:34Z</time>
      </trkpt>
      <trkpt lat="45.70963" lon="4.55989">
        <ele>907.4</ele>
        <time>2025-03-02T10:22:35Z</time>
      </trkpt>
      <trkpt lat="45.70964" lon="4.55987">
        <ele>907.8</ele>
        <time>2025-03-02T10:22:36Z</time>
      </trkpt>
      <trkpt lat="45.70964" lon="4.55984">
        <ele>908.2</ele>
        <time>2025-03-02T10:22:37Z</time>
      </trkpt>
      <trkpt lat="45.70964" lon="4.55981">
        <ele>908.4</ele>
        <time>2025-03-02T10:22:38Z</time>
      </trkpt>
      <trkpt lat="45.70963" lon="4.55978">
        <ele>908.4</ele>
        <time>2025-03-02T10:22:39Z</time>
      </trkpt>
      <trkpt lat="45.70962" lon="4.55975">
        <ele>908.6</ele>
        <time>2025-03-02T10:22:40Z</time>
      </trkpt>
      <trkpt lat="45.7096" lon="4.55974">
        <ele>909</ele>
        <time>2025-03-02T10:22:41Z</time>
      </trkpt>
      <trkpt lat="45.70957" lon="4.55973">
        <ele>909.2</ele>
        <time>2025-03-02T10:22:42Z</time>
      </trkpt>
      <trkpt lat="45.70955" lon="4.55972">
        <ele>909.6</ele>
        <time>2025-03-02T10:22:43Z</time>
      </trkpt>
      <trkpt lat="45.70952" lon="4.55971">
        <ele>909.6</ele>
        <time>2025-03-02T10:22:44Z</time>
      </trkpt>
      <trkpt lat="45.7095" lon="4.55971">
        <ele>909.8</ele>
        <time>2025-03-02T10:22:45Z</time>
      </trkpt>
      <trkpt lat="45.70947" lon="4.5597">
        <ele>909.8</ele>
        <time>2025-03-02T10:22:46Z</time>
      </trkpt>
      <trkpt lat="45.70945" lon="4.55969">
        <ele>909.8</ele>
        <time>2025-03-02T10:22:47Z</time>
      </trkpt>
      <trkpt lat="45.70942" lon="4.55969">
        <ele>909.8</ele>
        <time>2025-03-02T10:22:48Z</time>
      </trkpt>
      <trkpt lat="45.70939" lon="4.55968">
        <ele>909.8</ele>
        <time>2025-03-02T10:22:49Z</time>
      </trkpt>
      <trkpt lat="45.70937" lon="4.55967">
        <ele>909.8</ele>
        <time>2025-03-02T10:22:50Z</time>
      </trkpt>
      <trkpt lat="45.70934" lon="4.55966">
        <ele>910</ele>
        <time>2025-03-02T10:22:51Z</time>
      </trkpt>
      <trkpt lat="45.70931" lon="4.55964">
        <ele>910</ele>
        <time>2025-03-02T10:22:52Z</time>
      </trkpt>
      <trkpt lat="45.70928" lon="4.55963">
        <ele>910</ele>
        <time>2025-03-02T10:22:53Z</time>
      </trkpt>
      <trkpt lat="45.70925" lon="4.55962">
        <ele>910</ele>
        <time>2025-03-02T10:22:54Z</time>
      </trkpt>
      <trkpt lat="45.70922" lon="4.55961">
        <ele>910.4</ele>
        <time>2025-03-02T10:22:55Z</time>
      </trkpt>
      <trkpt lat="45.70919" lon="4.5596">
        <ele>910.4</ele>
        <time>2025-03-02T10:22:56Z</time>
      </trkpt>
      <trkpt lat="45.70916" lon="4.55959">
        <ele>910.6</ele>
        <time>2025-03-02T10:22:57Z</time>
      </trkpt>
      <trkpt lat="45.70913" lon="4.55958">
        <ele>910.8</ele>
        <time>2025-03-02T10:22:58Z</time>
      </trkpt>
      <trkpt lat="45.7091" lon="4.55957">
        <ele>910.8</ele>
        <time>2025-03-02T10:22:59Z</time>
      </trkpt>
      <trkpt lat="45.70907" lon="4.55956">
        <ele>910.8</ele>
        <time>2025-03-02T10:23:00Z</time>
      </trkpt>
      <trkpt lat="45.70905" lon="4.55955">
        <ele>911.2</ele>
        <time>2025-03-02T10:23:01Z</time>
      </trkpt>
      <trkpt lat="45.70902" lon="4.55954">
        <ele>911.4</ele>
        <time>2025-03-02T10:23:02Z</time>
      </trkpt>
      <trkpt lat="45.70899" lon="4.55953">
        <ele>911.6</ele>
        <time>2025-03-02T10:23:03Z</time>
      </trkpt>
      <trkpt lat="45.70896" lon="4.55952">
        <ele>911.8</ele>
        <time>2025-03-02T10:23:04Z</time>
      </trkpt>
      <trkpt lat="45.70893" lon="4.55951">
        <ele>912</ele>
        <time>2025-03-02T10:23:05Z</time>
      </trkpt>
      <trkpt lat="45.7089" lon="4.5595">
        <ele>912.2</ele>
        <time>2025-03-02T10:23:06Z</time>
      </trkpt>
      <trkpt lat="45.70887" lon="4.55949">
        <ele>912.2</ele>
        <time>2025-03-02T10:23:07Z</time>
      </trkpt>
      <trkpt lat="45.70885" lon="4.55949">
        <ele>912.4</ele>
        <time>2025-03-02T10:23:08Z</time>
      </trkpt>
      <trkpt lat="45.70882" lon="4.55949">
        <ele>912.6</ele>
        <time>2025-03-02T10:23:09Z</time>
      </trkpt>
      <trkpt lat="45.70879" lon="4.5595">
        <ele>912.8</ele>
        <time>2025-03-02T10:23:10Z</time>
      </trkpt>
      <trkpt lat="45.70876" lon="4.5595">
        <ele>913</ele>
        <time>2025-03-02T10:23:11Z</time>
      </trkpt>
      <trkpt lat="45.70873" lon="4.55951">
        <ele>913</ele>
        <time>2025-03-02T10:23:12Z</time>
      </trkpt>
      <trkpt lat="45.7087" lon="4.55951">
        <ele>913</ele>
        <time>2025-03-02T10:23:13Z</time>
      </trkpt>
      <trkpt lat="45.70867" lon="4.55952">
        <ele>913</ele>
        <time>2025-03-02T10:23:14Z</time>
      </trkpt>
      <trkpt lat="45.70864" lon="4.55952">
        <ele>913</ele>
        <time>2025-03-02T10:23:15Z</time>
      </trkpt>
      <trkpt lat="45.70861" lon="4.55952">
        <ele>912.8</ele>
        <time>2025-03-02T10:23:16Z</time>
      </trkpt>
      <trkpt lat="45.70858" lon="4.55952">
        <ele>912.8</ele>
        <time>2025-03-02T10:23:17Z</time>
      </trkpt>
      <trkpt lat="45.70855" lon="4.55952">
        <ele>912.4</ele>
        <time>2025-03-02T10:23:18Z</time>
      </trkpt>
      <trkpt lat="45.70852" lon="4.55953">
        <ele>912.4</ele>
        <time>2025-03-02T10:23:19Z</time>
      </trkpt>
      <trkpt lat="45.70849" lon="4.55953">
        <ele>912</ele>
        <time>2025-03-02T10:23:20Z</time>
      </trkpt>
      <trkpt lat="45.70845" lon="4.55953">
        <ele>911.8</ele>
        <time>2025-03-02T10:23:21Z</time>
      </trkpt>
      <trkpt lat="45.70841" lon="4.55953">
        <ele>911.2</ele>
        <time>2025-03-02T10:23:22Z</time>
      </trkpt>
      <trkpt lat="45.70836" lon="4.55953">
        <ele>910.8</ele>
        <time>2025-03-02T10:23:23Z</time>
      </trkpt>
      <trkpt lat="45.70831" lon="4.55953">
        <ele>910.4</ele>
        <time>2025-03-02T10:23:24Z</time>
      </trkpt>
      <trkpt lat="45.70827" lon="4.55951">
        <ele>909.8</ele>
        <time>2025-03-02T10:23:25Z</time>
      </trkpt>
      <trkpt lat="45.70822" lon="4.55949">
        <ele>909</ele>
        <time>2025-03-02T10:23:26Z</time>
      </trkpt>
      <trkpt lat="45.70817" lon="4.55945">
        <ele>908.8</ele>
        <time>2025-03-02T10:23:27Z</time>
      </trkpt>
      <trkpt lat="45.70813" lon="4.55942">
        <ele>908.4</ele>
        <time>2025-03-02T10:23:28Z</time>
      </trkpt>
      <trkpt lat="45.70809" lon="4.55937">
        <ele>908</ele>
        <time>2025-03-02T10:23:29Z</time>
      </trkpt>
      <trkpt lat="45.70807" lon="4.55932">
        <ele>907.4</ele>
        <time>2025-03-02T10:23:30Z</time>
      </trkpt>
      <trkpt lat="45.70804" lon="4.55928">
        <ele>907.2</ele>
        <time>2025-03-02T10:23:31Z</time>
      </trkpt>
      <trkpt lat="45.70802" lon="4.55923">
        <ele>907</ele>
        <time>2025-03-02T10:23:32Z</time>
      </trkpt>
      <trkpt lat="45.708" lon="4.55918">
        <ele>907</ele>
        <time>2025-03-02T10:23:33Z</time>
      </trkpt>
      <trkpt lat="45.70799" lon="4.55913">
        <ele>906.8</ele>
        <time>2025-03-02T10:23:34Z</time>
      </trkpt>
      <trkpt lat="45.70797" lon="4.55907">
        <ele>906.8</ele>
        <time>2025-03-02T10:23:35Z</time>
      </trkpt>
      <trkpt lat="45.70796" lon="4.55901">
        <ele>906.8</ele>
        <time>2025-03-02T10:23:36Z</time>
      </trkpt>
      <trkpt lat="45.70795" lon="4.55895">
        <ele>906.6</ele>
        <time>2025-03-02T10:23:37Z</time>
      </trkpt>
      <trkpt lat="45.70794" lon="4.55889">
        <ele>906.6</ele>
        <time>2025-03-02T10:23:38Z</time>
      </trkpt>
      <trkpt lat="45.70793" lon="4.55883">
        <ele>906.4</ele>
        <time>2025-03-02T10:23:39Z</time>
      </trkpt>
      <trkpt lat="45.70791" lon="4.55877">
        <ele>906.2</ele>
        <time>2025-03-02T10:23:40Z</time>
      </trkpt>
      <trkpt lat="45.70788" lon="4.55873">
        <ele>906.2</ele>
        <time>2025-03-02T10:23:41Z</time>
      </trkpt>
      <trkpt lat="45.70784" lon="4.5587">
        <ele>906</ele>
        <time>2025-03-02T10:23:42Z</time>
      </trkpt>
      <trkpt lat="45.70779" lon="4.55868">
        <ele>906</ele>
        <time>2025-03-02T10:23:43Z</time>
      </trkpt>
      <trkpt lat="45.70774" lon="4.55867">
        <ele>905.8</ele>
        <time>2025-03-02T10:23:44Z</time>
      </trkpt>
      <trkpt lat="45.70768" lon="4.55866">
        <ele>905.6</ele>
        <time>2025-03-02T10:23:45Z</time>
      </trkpt>
      <trkpt lat="45.70761" lon="4.55865">
        <ele>905</ele>
        <time>2025-03-02T10:23:46Z</time>
      </trkpt>
      <trkpt lat="45.70754" lon="4.55864">
        <ele>904.4</ele>
        <time>2025-03-02T10:23:47Z</time>
      </trkpt>
      <trkpt lat="45.70746" lon="4.55862">
        <ele>903.2</ele>
        <time>2025-03-02T10:23:48Z</time>
      </trkpt>
      <trkpt lat="45.70738" lon="4.5586">
        <ele>901.4</ele>
        <time>2025-03-02T10:23:49Z</time>
      </trkpt>
      <trkpt lat="45.7073" lon="4.55858">
        <ele>899.8</ele>
        <time>2025-03-02T10:23:50Z</time>
      </trkpt>
      <trkpt lat="45.70722" lon="4.55857">
        <ele>898.8</ele>
        <time>2025-03-02T10:23:51Z</time>
      </trkpt>
      <trkpt lat="45.70714" lon="4.55856">
        <ele>898.6</ele>
        <time>2025-03-02T10:23:52Z</time>
      </trkpt>
      <trkpt lat="45.70707" lon="4.55855">
        <ele>897.4</ele>
        <time>2025-03-02T10:23:53Z</time>
      </trkpt>
      <trkpt lat="45.70701" lon="4.55853">
        <ele>897.2</ele>
        <time>2025-03-02T10:23:54Z</time>
      </trkpt>
      <trkpt lat="45.70698" lon="4.55851">
        <ele>897.2</ele>
        <time>2025-03-02T10:23:55Z</time>
      </trkpt>
      <trkpt lat="45.70696" lon="4.5585">
        <ele>897.2</ele>
        <time>2025-03-02T10:23:56Z</time>
      </trkpt>
      <trkpt lat="45.70696" lon="4.55849">
        <ele>897.2</ele>
        <time>2025-03-02T10:23:57Z</time>
      </trkpt>
      <trkpt lat="45.70696" lon="4.55849">
        <ele>897.4</ele>
        <time>2025-03-02T10:23:58Z</time>
      </trkpt>
      <trkpt lat="45.70696" lon="4.55849">
        <ele>898</ele>
        <time>2025-03-02T10:23:59Z</time>
      </trkpt>
      <trkpt lat="45.70696" lon="4.55849">
        <ele>898.4</ele>
        <time>2025-03-02T10:24:00Z</time>
      </trkpt>
      <trkpt lat="45.70696" lon="4.55849">
        <ele>898.6</ele>
        <time>2025-03-02T10:24:01Z</time>
      </trkpt>
      <trkpt lat="45.70696" lon="4.55848">
        <ele>898.6</ele>
        <time>2025-03-02T10:24:02Z</time>
      </trkpt>
      <trkpt lat="45.70696" lon="4.55848">
        <ele>898.6</ele>
        <time>2025-03-02T10:24:03Z</time>
      </trkpt>
      <trkpt lat="45.70696" lon="4.55848">
        <ele>898.6</ele>
        <time>2025-03-02T10:24:04Z</time>
      </trkpt>
      <trkpt lat="45.70696" lon="4.55848">
        <ele>898.6</ele>
        <time>2025-03-02T10:24:05Z</time>
      </trkpt>
      <trkpt lat="45.70696" lon="4.55848">
        <ele>898.4</ele>
        <time>2025-03-02T10:24:06Z</time>
      </trkpt>
      <trkpt lat="45.70696" lon="4.55848">
        <ele>898.2</ele>
        <time>2025-03-02T10:24:07Z</time>
      </trkpt>
      <trkpt lat="45.70696" lon="4.55848">
        <ele>898</ele>
        <time>2025-03-02T10:24:08Z</time>
      </trkpt>
      <trkpt lat="45.70696" lon="4.55848">
        <ele>897.8</ele>
        <time>2025-03-02T10:24:09Z</time>
      </trkpt>
      <trkpt lat="45.70696" lon="4.55848">
        <ele>897.8</ele>
        <time>2025-03-02T10:24:10Z</time>
      </trkpt>
      <trkpt lat="45.70696" lon="4.55848">
        <ele>897.8</ele>
        <time>2025-03-02T10:24:11Z</time>
      </trkpt>
      <trkpt lat="45.70696" lon="4.55848">
        <ele>897.6</ele>
        <time>2025-03-02T10:24:12Z</time>
      </trkpt>
      <trkpt lat="45.70696" lon="4.55848">
        <ele>897.6</ele>
        <time>2025-03-02T10:24:13Z</time>
      </trkpt>
      <trkpt lat="45.70696" lon="4.55848">
        <ele>897.6</ele>
        <time>2025-03-02T10:24:14Z</time>
      </trkpt>
      <trkpt lat="45.70696" lon="4.55848">
        <ele>897.6</ele>
        <time>2025-03-02T10:24:15Z</time>
      </trkpt>
      <trkpt lat="45.70696" lon="4.55848">
        <ele>897.4</ele>
        <time>2025-03-02T10:24:16Z</time>
      </trkpt>
      <trkpt lat="45.70696" lon="4.55848">
        <ele>897.4</ele>
        <time>2025-03-02T10:24:17Z</time>
      </trkpt>
      <trkpt lat="45.70696" lon="4.55848">
        <ele>897.4</ele>
        <time>2025-03-02T10:24:18Z</time>
      </trkpt>
      <trkpt lat="45.70696" lon="4.55848">
        <ele>897.2</ele>
        <time>2025-03-02T10:24:19Z</time>
      </trkpt>
      <trkpt lat="45.70696" lon="4.55848">
        <ele>897.2</ele>
        <time>2025-03-02T10:24:20Z</time>
      </trkpt>
      <trkpt lat="45.70696" lon="4.55848">
        <ele>897.2</ele>
        <time>2025-03-02T10:24:21Z</time>
      </trkpt>
      <trkpt lat="45.70696" lon="4.55848">
        <ele>897.2</ele>
        <time>2025-03-02T10:24:22Z</time>
      </trkpt>
      <trkpt lat="45.70696" lon="4.55848">
        <ele>897.2</ele>
        <time>2025-03-02T10:24:23Z</time>
      </trkpt>
      <trkpt lat="45.70696" lon="4.55848">
        <ele>897</ele>
        <time>2025-03-02T10:24:24Z</time>
      </trkpt>
      <trkpt lat="45.70696" lon="4.55848">
        <ele>897</ele>
        <time>2025-03-02T10:24:25Z</time>
      </trkpt>
      <trkpt lat="45.70696" lon="4.55848">
        <ele>897</ele>
        <time>2025-03-02T10:24:26Z</time>
      </trkpt>
      <trkpt lat="45.70696" lon="4.55848">
        <ele>897</ele>
        <time>2025-03-02T10:24:27Z</time>
      </trkpt>
      <trkpt lat="45.70696" lon="4.55848">
        <ele>897</ele>
        <time>2025-03-02T10:24:28Z</time>
      </trkpt>
      <trkpt lat="45.70696" lon="4.55848">
        <ele>897</ele>
        <time>2025-03-02T10:24:29Z</time>
      </trkpt>
      <trkpt lat="45.70696" lon="4.55848">
        <ele>897</ele>
        <time>2025-03-02T10:24:30Z</time>
      </trkpt>
      <trkpt lat="45.70696" lon="4.55848">
        <ele>897</ele>
        <time>2025-03-02T10:24:31Z</time>
      </trkpt>
      <trkpt lat="45.70696" lon="4.55848">
        <ele>897</ele>
        <time>2025-03-02T10:24:32Z</time>
      </trkpt>
      <trkpt lat="45.70696" lon="4.55848">
        <ele>897</ele>
        <time>2025-03-02T10:24:33Z</time>
      </trkpt>
      <trkpt lat="45.70696" lon="4.55848">
        <ele>897</ele>
        <time>2025-03-02T10:24:34Z</time>
      </trkpt>
      <trkpt lat="45.70696" lon="4.55848">
        <ele>897</ele>
        <time>2025-03-02T10:24:35Z</time>
      </trkpt>
      <trkpt lat="45.70696" lon="4.55848">
        <ele>897</ele>
        <time>2025-03-02T10:24:36Z</time>
      </trkpt>
      <trkpt lat="45.70696" lon="4.55848">
        <ele>897</ele>
        <time>2025-03-02T10:24:37Z</time>
      </trkpt>
      <trkpt lat="45.70696" lon="4.55848">
        <ele>897</ele>
        <time>2025-03-02T10:24:38Z</time>
      </trkpt>
      <trkpt lat="45.70696" lon="4.55848">
        <ele>897</ele>
        <time>2025-03-02T10:24:39Z</time>
      </trkpt>
      <trkpt lat="45.70696" lon="4.55848">
        <ele>897</ele>
        <time>2025-03-02T10:24:40Z</time>
      </trkpt>
      <trkpt lat="45.70696" lon="4.55848">
        <ele>897</ele>
        <time>2025-03-02T10:24:41Z</time>
      </trkpt>
      <trkpt lat="45.70696" lon="4.55848">
        <ele>897</ele>
        <time>2025-03-02T10:24:42Z</time>
      </trkpt>
      <trkpt lat="45.70696" lon="4.55848">
        <ele>897</ele>
        <time>2025-03-02T10:24:43Z</time>
      </trkpt>
      <trkpt lat="45.70696" lon="4.55848">
        <ele>897</ele>
        <time>2025-03-02T10:24:44Z</time>
      </trkpt>
      <trkpt lat="45.70696" lon="4.55848">
        <ele>897</ele>
        <time>2025-03-02T10:24:45Z</time>
      </trkpt>
      <trkpt lat="45.70696" lon="4.55848">
        <ele>897</ele>
        <time>2025-03-02T10:24:46Z</time>
      </trkpt>
      <trkpt lat="45.70696" lon="4.55848">
        <ele>897</ele>
        <time>2025-03-02T10:24:47Z</time>
      </trkpt>
      <trkpt lat="45.70696" lon="4.55848">
        <ele>897</ele>
        <time>2025-03-02T10:24:48Z</time>
      </trkpt>
      <trkpt lat="45.70696" lon="4.55848">
        <ele>897</ele>
        <time>2025-03-02T10:24:49Z</time>
      </trkpt>
      <trkpt lat="45.70696" lon="4.55848">
        <ele>897</ele>
        <time>2025-03-02T10:24:50Z</time>
      </trkpt>
      <trkpt lat="45.70696" lon="4.55848">
        <ele>897</ele>
        <time>2025-03-02T10:24:51Z</time>
      </trkpt>
      <trkpt lat="45.70696" lon="4.55848">
        <ele>897</ele>
        <time>2025-03-02T10:24:52Z</time>
      </trkpt>
      <trkpt lat="45.70696" lon="4.55848">
        <ele>896.8</ele>
        <time>2025-03-02T10:24:53Z</time>
      </trkpt>
      <trkpt lat="45.70696" lon="4.55848">
        <ele>896.8</ele>
        <time>2025-03-02T10:24:54Z</time>
      </trkpt>
      <trkpt lat="45.70696" lon="4.55848">
        <ele>896.8</ele>
        <time>2025-03-02T10:24:55Z</time>
      </trkpt>
      <trkpt lat="45.70696" lon="4.55848">
        <ele>896.8</ele>
        <time>2025-03-02T10:24:56Z</time>
      </trkpt>
      <trkpt lat="45.70696" lon="4.55848">
        <ele>896.8</ele>
        <time>2025-03-02T10:24:57Z</time>
      </trkpt>
      <trkpt lat="45.70696" lon="4.55848">
        <ele>896.8</ele>
        <time>2025-03-02T10:24:58Z</time>
      </trkpt>
      <trkpt lat="45.70696" lon="4.55848">
        <ele>896.8</ele>
        <time>2025-03-02T10:24:59Z</time>
      </trkpt>
      <trkpt lat="45.70696" lon="4.55848">
        <ele>896.8</ele>
        <time>2025-03-02T10:25:00Z</time>
      </trkpt>
      <trkpt lat="45.70696" lon="4.55848">
        <ele>896.8</ele>
        <time>2025-03-02T10:25:01Z</time>
      </trkpt>
      <trkpt lat="45.70696" lon="4.55848">
        <ele>896.8</ele>
        <time>2025-03-02T10:25:02Z</time>
      </trkpt>
      <trkpt lat="45.70696" lon="4.55848">
        <ele>896.8</ele>
        <time>2025-03-02T10:25:03Z</time>
      </trkpt>
      <trkpt lat="45.70696" lon="4.55848">
        <ele>896.8</ele>
        <time>2025-03-02T10:25:04Z</time>
      </trkpt>
      <trkpt lat="45.70696" lon="4.55848">
        <ele>896.8</ele>
        <time>2025-03-02T10:25:05Z</time>
      </trkpt>
      <trkpt lat="45.70696" lon="4.55848">
        <ele>896.8</ele>
        <time>2025-03-02T10:25:06Z</time>
      </trkpt>
      <trkpt lat="45.70696" lon="4.55848">
        <ele>896.8</ele>
        <time>2025-03-02T10:25:07Z</time>
      </trkpt>
      <trkpt lat="45.70696" lon="4.55848">
        <ele>896.8</ele>
        <time>2025-03-02T10:25:08Z</time>
      </trkpt>
      <trkpt lat="45.70696" lon="4.55848">
        <ele>896.8</ele>
        <time>2025-03-02T10:25:09Z</time>
      </trkpt>
      <trkpt lat="45.70696" lon="4.55848">
        <ele>896.8</ele>
        <time>2025-03-02T10:25:10Z</time>
      </trkpt>
      <trkpt lat="45.70696" lon="4.55848">
        <ele>896.8</ele>
        <time>2025-03-02T10:25:11Z</time>
      </trkpt>
      <trkpt lat="45.70696" lon="4.55848">
        <ele>896.8</ele>
        <time>2025-03-02T10:25:12Z</time>
      </trkpt>
      <trkpt lat="45.70696" lon="4.55848">
        <ele>896.8</ele>
        <time>2025-03-02T10:25:13Z</time>
      </trkpt>
      <trkpt lat="45.70696" lon="4.55848">
        <ele>896.8</ele>
        <time>2025-03-02T10:25:14Z</time>
      </trkpt>
      <trkpt lat="45.70696" lon="4.55848">
        <ele>896.8</ele>
        <time>2025-03-02T10:25:15Z</time>
      </trkpt>
      <trkpt lat="45.70696" lon="4.55848">
        <ele>896.8</ele>
        <time>2025-03-02T10:25:16Z</time>
      </trkpt>
      <trkpt lat="45.70696" lon="4.55848">
        <ele>896.8</ele>
        <time>2025-03-02T10:25:17Z</time>
      </trkpt>
      <trkpt lat="45.70696" lon="4.55848">
        <ele>896.6</ele>
        <time>2025-03-02T10:25:18Z</time>
      </trkpt>
      <trkpt lat="45.70696" lon="4.55848">
        <ele>896.6</ele>
        <time>2025-03-02T10:25:19Z</time>
      </trkpt>
      <trkpt lat="45.70696" lon="4.55848">
        <ele>896.6</ele>
        <time>2025-03-02T10:25:20Z</time>
      </trkpt>
      <trkpt lat="45.70696" lon="4.55848">
        <ele>896.6</ele>
        <time>2025-03-02T10:25:21Z</time>
      </trkpt>
      <trkpt lat="45.70696" lon="4.55848">
        <ele>896.6</ele>
        <time>2025-03-02T10:25:22Z</time>
      </trkpt>
      <trkpt lat="45.70696" lon="4.55848">
        <ele>896.6</ele>
        <time>2025-03-02T10:25:23Z</time>
      </trkpt>
      <trkpt lat="45.70696" lon="4.55848">
        <ele>896.6</ele>
        <time>2025-03-02T10:25:24Z</time>
      </trkpt>
      <trkpt lat="45.70696" lon="4.55848">
        <ele>896.6</ele>
        <time>2025-03-02T10:25:25Z</time>
      </trkpt>
      <trkpt lat="45.70696" lon="4.55848">
        <ele>896.8</ele>
        <time>2025-03-02T10:25:26Z</time>
      </trkpt>
      <trkpt lat="45.70696" lon="4.55848">
        <ele>897</ele>
        <time>2025-03-02T10:25:27Z</time>
      </trkpt>
      <trkpt lat="45.70696" lon="4.55848">
        <ele>897</ele>
        <time>2025-03-02T10:25:28Z</time>
      </trkpt>
      <trkpt lat="45.70696" lon="4.55848">
        <ele>897.2</ele>
        <time>2025-03-02T10:25:29Z</time>
      </trkpt>
      <trkpt lat="45.70696" lon="4.55848">
        <ele>897.2</ele>
        <time>2025-03-02T10:25:30Z</time>
      </trkpt>
      <trkpt lat="45.70696" lon="4.55848">
        <ele>897.4</ele>
        <time>2025-03-02T10:25:31Z</time>
      </trkpt>
      <trkpt lat="45.70696" lon="4.55848">
        <ele>897.6</ele>
        <time>2025-03-02T10:25:32Z</time>
      </trkpt>
      <trkpt lat="45.70696" lon="4.55848">
        <ele>898</ele>
        <time>2025-03-02T10:25:33Z</time>
      </trkpt>
      <trkpt lat="45.70696" lon="4.55848">
        <ele>898</ele>
        <time>2025-03-02T10:25:34Z</time>
      </trkpt>
      <trkpt lat="45.70696" lon="4.55848">
        <ele>898</ele>
        <time>2025-03-02T10:25:35Z</time>
      </trkpt>
      <trkpt lat="45.70696" lon="4.55848">
        <ele>898</ele>
        <time>2025-03-02T10:25:36Z</time>
      </trkpt>
      <trkpt lat="45.70696" lon="4.55848">
        <ele>898</ele>
        <time>2025-03-02T10:25:37Z</time>
      </trkpt>
      <trkpt lat="45.70696" lon="4.55848">
        <ele>898</ele>
        <time>2025-03-02T10:25:38Z</time>
      </trkpt>
      <trkpt lat="45.70696" lon="4.55848">
        <ele>898</ele>
        <time>2025-03-02T10:25:39Z</time>
      </trkpt>
      <trkpt lat="45.70696" lon="4.55848">
        <ele>898</ele>
        <time>2025-03-02T10:25:40Z</time>
      </trkpt>
      <trkpt lat="45.70696" lon="4.55848">
        <ele>898</ele>
        <time>2025-03-02T10:25:41Z</time>
      </trkpt>
      <trkpt lat="45.70696" lon="4.55848">
        <ele>897.8</ele>
        <time>2025-03-02T10:25:42Z</time>
      </trkpt>
      <trkpt lat="45.70696" lon="4.55848">
        <ele>897.8</ele>
        <time>2025-03-02T10:25:43Z</time>
      </trkpt>
      <trkpt lat="45.70696" lon="4.55848">
        <ele>897.8</ele>
        <time>2025-03-02T10:25:44Z</time>
      </trkpt>
      <trkpt lat="45.70696" lon="4.55848">
        <ele>897.8</ele>
        <time>2025-03-02T10:25:45Z</time>
      </trkpt>
      <trkpt lat="45.70696" lon="4.55848">
        <ele>897.8</ele>
        <time>2025-03-02T10:25:46Z</time>
      </trkpt>
      <trkpt lat="45.70696" lon="4.55847">
        <ele>897.8</ele>
        <time>2025-03-02T10:25:47Z</time>
      </trkpt>
      <trkpt lat="45.70696" lon="4.55847">
        <ele>897.8</ele>
        <time>2025-03-02T10:25:48Z</time>
      </trkpt>
      <trkpt lat="45.70695" lon="4.55847">
        <ele>897.8</ele>
        <time>2025-03-02T10:25:49Z</time>
      </trkpt>
      <trkpt lat="45.70695" lon="4.55849">
        <ele>897.8</ele>
        <time>2025-03-02T10:25:50Z</time>
      </trkpt>
      <trkpt lat="45.70695" lon="4.5585">
        <ele>897.8</ele>
        <time>2025-03-02T10:25:51Z</time>
      </trkpt>
      <trkpt lat="45.70695" lon="4.55851">
        <ele>898</ele>
        <time>2025-03-02T10:25:52Z</time>
      </trkpt>
      <trkpt lat="45.70694" lon="4.55851">
        <ele>898</ele>
        <time>2025-03-02T10:25:53Z</time>
      </trkpt>
      <trkpt lat="45.70694" lon="4.55852">
        <ele>898</ele>
        <time>2025-03-02T10:25:54Z</time>
      </trkpt>
      <trkpt lat="45.70694" lon="4.55852">
        <ele>898</ele>
        <time>2025-03-02T10:25:55Z</time>
      </trkpt>
      <trkpt lat="45.70694" lon="4.55852">
        <ele>898</ele>
        <time>2025-03-02T10:25:56Z</time>
      </trkpt>
      <trkpt lat="45.70694" lon="4.55852">
        <ele>898</ele>
        <time>2025-03-02T10:25:57Z</time>
      </trkpt>
      <trkpt lat="45.70694" lon="4.55852">
        <ele>898</ele>
        <time>2025-03-02T10:25:58Z</time>
      </trkpt>
      <trkpt lat="45.70694" lon="4.55852">
        <ele>898.2</ele>
        <time>2025-03-02T10:25:59Z</time>
      </trkpt>
      <trkpt lat="45.70694" lon="4.55852">
        <ele>898.2</ele>
        <time>2025-03-02T10:26:00Z</time>
      </trkpt>
      <trkpt lat="45.70694" lon="4.55852">
        <ele>898.2</ele>
        <time>2025-03-02T10:26:01Z</time>
      </trkpt>
      <trkpt lat="45.70694" lon="4.55852">
        <ele>898.2</ele>
        <time>2025-03-02T10:26:02Z</time>
      </trkpt>
      <trkpt lat="45.70694" lon="4.55852">
        <ele>898.2</ele>
        <time>2025-03-02T10:26:03Z</time>
      </trkpt>
      <trkpt lat="45.70694" lon="4.55852">
        <ele>898.2</ele>
        <time>2025-03-02T10:26:04Z</time>
      </trkpt>
      <trkpt lat="45.70694" lon="4.55852">
        <ele>898.2</ele>
        <time>2025-03-02T10:26:05Z</time>
      </trkpt>
      <trkpt lat="45.70694" lon="4.55852">
        <ele>898.2</ele>
        <time>2025-03-02T10:26:06Z</time>
      </trkpt>
      <trkpt lat="45.70694" lon="4.55852">
        <ele>898.2</ele>
        <time>2025-03-02T10:26:07Z</time>
      </trkpt>
      <trkpt lat="45.70694" lon="4.55852">
        <ele>898.2</ele>
        <time>2025-03-02T10:26:08Z</time>
      </trkpt>
      <trkpt lat="45.70694" lon="4.55852">
        <ele>898.2</ele>
        <time>2025-03-02T10:26:09Z</time>
      </trkpt>
      <trkpt lat="45.70694" lon="4.55852">
        <ele>898.2</ele>
        <time>2025-03-02T10:26:10Z</time>
      </trkpt>
      <trkpt lat="45.70694" lon="4.55852">
        <ele>898.2</ele>
        <time>2025-03-02T10:26:11Z</time>
      </trkpt>
      <trkpt lat="45.70694" lon="4.55852">
        <ele>898.2</ele>
        <time>2025-03-02T10:26:12Z</time>
      </trkpt>
      <trkpt lat="45.70694" lon="4.55852">
        <ele>898.2</ele>
        <time>2025-03-02T10:26:13Z</time>
      </trkpt>
      <trkpt lat="45.70694" lon="4.55852">
        <ele>898.2</ele>
        <time>2025-03-02T10:26:14Z</time>
      </trkpt>
      <trkpt lat="45.70694" lon="4.55852">
        <ele>898.2</ele>
        <time>2025-03-02T10:26:15Z</time>
      </trkpt>
      <trkpt lat="45.70694" lon="4.55852">
        <ele>898.2</ele>
        <time>2025-03-02T10:26:16Z</time>
      </trkpt>
      <trkpt lat="45.70694" lon="4.55852">
        <ele>898.2</ele>
        <time>2025-03-02T10:26:17Z</time>
      </trkpt>
      <trkpt lat="45.70694" lon="4.55852">
        <ele>898.2</ele>
        <time>2025-03-02T10:26:18Z</time>
      </trkpt>
      <trkpt lat="45.70694" lon="4.55852">
        <ele>898.2</ele>
        <time>2025-03-02T10:26:19Z</time>
      </trkpt>
      <trkpt lat="45.70694" lon="4.55852">
        <ele>898.2</ele>
        <time>2025-03-02T10:26:20Z</time>
      </trkpt>
      <trkpt lat="45.70694" lon="4.55852">
        <ele>898.2</ele>
        <time>2025-03-02T10:26:21Z</time>
      </trkpt>
      <trkpt lat="45.70694" lon="4.55852">
        <ele>898.2</ele>
        <time>2025-03-02T10:26:22Z</time>
      </trkpt>
      <trkpt lat="45.70694" lon="4.55852">
        <ele>898.2</ele>
        <time>2025-03-02T10:26:23Z</time>
      </trkpt>
      <trkpt lat="45.70694" lon="4.55852">
        <ele>898.2</ele>
        <time>2025-03-02T10:26:24Z</time>
      </trkpt>
      <trkpt lat="45.70694" lon="4.55852">
        <ele>898.2</ele>
        <time>2025-03-02T10:26:25Z</time>
      </trkpt>
      <trkpt lat="45.70694" lon="4.55852">
        <ele>898.2</ele>
        <time>2025-03-02T10:26:26Z</time>
      </trkpt>
      <trkpt lat="45.70694" lon="4.55852">
        <ele>898.2</ele>
        <time>2025-03-02T10:26:27Z</time>
      </trkpt>
      <trkpt lat="45.70694" lon="4.55852">
        <ele>898.2</ele>
        <time>2025-03-02T10:26:28Z</time>
      </trkpt>
      <trkpt lat="45.70694" lon="4.55852">
        <ele>898.2</ele>
        <time>2025-03-02T10:26:29Z</time>
      </trkpt>
      <trkpt lat="45.70694" lon="4.55852">
        <ele>898.2</ele>
        <time>2025-03-02T10:26:30Z</time>
      </trkpt>
      <trkpt lat="45.70694" lon="4.55852">
        <ele>898.2</ele>
        <time>2025-03-02T10:26:31Z</time>
      </trkpt>
      <trkpt lat="45.70694" lon="4.55852">
        <ele>898.2</ele>
        <time>2025-03-02T10:26:32Z</time>
      </trkpt>
      <trkpt lat="45.70694" lon="4.55852">
        <ele>898.2</ele>
        <time>2025-03-02T10:26:33Z</time>
      </trkpt>
      <trkpt lat="45.70694" lon="4.55852">
        <ele>898.2</ele>
        <time>2025-03-02T10:26:34Z</time>
      </trkpt>
      <trkpt lat="45.70694" lon="4.55852">
        <ele>898.2</ele>
        <time>2025-03-02T10:26:35Z</time>
      </trkpt>
      <trkpt lat="45.70694" lon="4.55852">
        <ele>898.2</ele>
        <time>2025-03-02T10:26:36Z</time>
      </trkpt>
      <trkpt lat="45.70694" lon="4.55852">
        <ele>898.2</ele>
        <time>2025-03-02T10:26:37Z</time>
      </trkpt>
      <trkpt lat="45.70694" lon="4.55852">
        <ele>898.2</ele>
        <time>2025-03-02T10:26:38Z</time>
      </trkpt>
      <trkpt lat="45.70694" lon="4.55852">
        <ele>898.2</ele>
        <time>2025-03-02T10:26:39Z</time>
      </trkpt>
      <trkpt lat="45.70694" lon="4.55852">
        <ele>898.2</ele>
        <time>2025-03-02T10:26:40Z</time>
      </trkpt>
      <trkpt lat="45.70694" lon="4.55852">
        <ele>898.2</ele>
        <time>2025-03-02T10:26:41Z</time>
      </trkpt>
      <trkpt lat="45.70694" lon="4.55852">
        <ele>898.2</ele>
        <time>2025-03-02T10:26:42Z</time>
      </trkpt>
      <trkpt lat="45.70694" lon="4.55852">
        <ele>898.2</ele>
        <time>2025-03-02T10:26:43Z</time>
      </trkpt>
      <trkpt lat="45.70694" lon="4.55852">
        <ele>898.2</ele>
        <time>2025-03-02T10:26:44Z</time>
      </trkpt>
      <trkpt lat="45.70694" lon="4.55852">
        <ele>898.2</ele>
        <time>2025-03-02T10:26:45Z</time>
      </trkpt>
      <trkpt lat="45.70694" lon="4.55852">
        <ele>898.2</ele>
        <time>2025-03-02T10:26:46Z</time>
      </trkpt>
      <trkpt lat="45.70694" lon="4.55852">
        <ele>898.2</ele>
        <time>2025-03-02T10:26:47Z</time>
      </trkpt>
      <trkpt lat="45.70694" lon="4.55852">
        <ele>898.2</ele>
        <time>2025-03-02T10:26:48Z</time>
      </trkpt>
      <trkpt lat="45.70694" lon="4.55852">
        <ele>898.2</ele>
        <time>2025-03-02T10:26:49Z</time>
      </trkpt>
      <trkpt lat="45.70694" lon="4.55853">
        <ele>898.2</ele>
        <time>2025-03-02T10:26:50Z</time>
      </trkpt>
      <trkpt lat="45.70692" lon="4.55855">
        <ele>898.2</ele>
        <time>2025-03-02T10:26:51Z</time>
      </trkpt>
      <trkpt lat="45.7069" lon="4.55857">
        <ele>898</ele>
        <time>2025-03-02T10:26:52Z</time>
      </trkpt>
      <trkpt lat="45.70688" lon="4.5586">
        <ele>898</ele>
        <time>2025-03-02T10:26:53Z</time>
      </trkpt>
      <trkpt lat="45.70687" lon="4.55864">
        <ele>898</ele>
        <time>2025-03-02T10:26:54Z</time>
      </trkpt>
      <trkpt lat="45.70685" lon="4.55867">
        <ele>897.8</ele>
        <time>2025-03-02T10:26:55Z</time>
      </trkpt>
      <trkpt lat="45.70683" lon="4.5587">
        <ele>897.6</ele>
        <time>2025-03-02T10:26:56Z</time>
      </trkpt>
      <trkpt lat="45.70681" lon="4.55874">
        <ele>897.2</ele>
        <time>2025-03-02T10:26:57Z</time>
      </trkpt>
      <trkpt lat="45.70679" lon="4.55878">
        <ele>896.8</ele>
        <time>2025-03-02T10:26:58Z</time>
      </trkpt>
      <trkpt lat="45.70676" lon="4.55882">
        <ele>896.8</ele>
        <time>2025-03-02T10:26:59Z</time>
      </trkpt>
      <trkpt lat="45.70674" lon="4.55886">
        <ele>896.6</ele>
        <time>2025-03-02T10:27:00Z</time>
      </trkpt>
      <trkpt lat="45.70672" lon="4.5589">
        <ele>896.4</ele>
        <time>2025-03-02T10:27:01Z</time>
      </trkpt>
      <trkpt lat="45.7067" lon="4.55895">
        <ele>896.2</ele>
        <time>2025-03-02T10:27:02Z</time>
      </trkpt>
      <trkpt lat="45.70668" lon="4.559">
        <ele>896</ele>
        <time>2025-03-02T10:27:03Z</time>
      </trkpt>
      <trkpt lat="45.70665" lon="4.55905">
        <ele>896</ele>
        <time>2025-03-02T10:27:04Z</time>
      </trkpt>
      <trkpt lat="45.70663" lon="4.55909">
        <ele>895.8</ele>
        <time>2025-03-02T10:27:05Z</time>
      </trkpt>
      <trkpt lat="45.70661" lon="4.55914">
        <ele>895.6</ele>
        <time>2025-03-02T10:27:06Z</time>
      </trkpt>
      <trkpt lat="45.70658" lon="4.55919">
        <ele>895.6</ele>
        <time>2025-03-02T10:27:07Z</time>
      </trkpt>
      <trkpt lat="45.70656" lon="4.55924">
        <ele>895.4</ele>
        <time>2025-03-02T10:27:08Z</time>
      </trkpt>
      <trkpt lat="45.70654" lon="4.55929">
        <ele>895.4</ele>
        <time>2025-03-02T10:27:09Z</time>
      </trkpt>
      <trkpt lat="45.70651" lon="4.55934">
        <ele>895.2</ele>
        <time>2025-03-02T10:27:10Z</time>
      </trkpt>
      <trkpt lat="45.70649" lon="4.55938">
        <ele>895.2</ele>
        <time>2025-03-02T10:27:11Z</time>
      </trkpt>
      <trkpt lat="45.70647" lon="4.55943">
        <ele>895</ele>
        <time>2025-03-02T10:27:12Z</time>
      </trkpt>
      <trkpt lat="45.70644" lon="4.55948">
        <ele>894.8</ele>
        <time>2025-03-02T10:27:13Z</time>
      </trkpt>
      <trkpt lat="45.70642" lon="4.55952">
        <ele>894.8</ele>
        <time>2025-03-02T10:27:14Z</time>
      </trkpt>
      <trkpt lat="45.70639" lon="4.55956">
        <ele>894.6</ele>
        <time>2025-03-02T10:27:15Z</time>
      </trkpt>
      <trkpt lat="45.70637" lon="4.5596">
        <ele>894.2</ele>
        <time>2025-03-02T10:27:16Z</time>
      </trkpt>
      <trkpt lat="45.70634" lon="4.55965">
        <ele>894.2</ele>
        <time>2025-03-02T10:27:17Z</time>
      </trkpt>
      <trkpt lat="45.70632" lon="4.55969">
        <ele>894</ele>
        <time>2025-03-02T10:27:18Z</time>
      </trkpt>
      <trkpt lat="45.70629" lon="4.55973">
        <ele>893.8</ele>
        <time>2025-03-02T10:27:19Z</time>
      </trkpt>
      <trkpt lat="45.70626" lon="4.55977">
        <ele>893.8</ele>
        <time>2025-03-02T10:27:20Z</time>
      </trkpt>
      <trkpt lat="45.70624" lon="4.55981">
        <ele>893.6</ele>
        <time>2025-03-02T10:27:21Z</time>
      </trkpt>
      <trkpt lat="45.70621" lon="4.55985">
        <ele>893.4</ele>
        <time>2025-03-02T10:27:22Z</time>
      </trkpt>
      <trkpt lat="45.70619" lon="4.55989">
        <ele>893.2</ele>
        <time>2025-03-02T10:27:23Z</time>
      </trkpt>
      <trkpt lat="45.70616" lon="4.55992">
        <ele>893</ele>
        <time>2025-03-02T10:27:24Z</time>
      </trkpt>
      <trkpt lat="45.70613" lon="4.55995">
        <ele>892.8</ele>
        <time>2025-03-02T10:27:25Z</time>
      </trkpt>
      <trkpt lat="45.70609" lon="4.55999">
        <ele>892.6</ele>
        <time>2025-03-02T10:27:26Z</time>
      </trkpt>
      <trkpt lat="45.70606" lon="4.56003">
        <ele>892.2</ele>
        <time>2025-03-02T10:27:27Z</time>
      </trkpt>
      <trkpt lat="45.70603" lon="4.56007">
        <ele>891.8</ele>
        <time>2025-03-02T10:27:28Z</time>
      </trkpt>
      <trkpt lat="45.70599" lon="4.56013">
        <ele>891.2</ele>
        <time>2025-03-02T10:27:29Z</time>
      </trkpt>
      <trkpt lat="45.70594" lon="4.5602">
        <ele>890</ele>
        <time>2025-03-02T10:27:30Z</time>
      </trkpt>
      <trkpt lat="45.7059" lon="4.56027">
        <ele>889.2</ele>
        <time>2025-03-02T10:27:31Z</time>
      </trkpt>
      <trkpt lat="45.70584" lon="4.56034">
        <ele>888.6</ele>
        <time>2025-03-02T10:27:32Z</time>
      </trkpt>
      <trkpt lat="45.70579" lon="4.5604">
        <ele>887.4</ele>
        <time>2025-03-02T10:27:33Z</time>
      </trkpt>
      <trkpt lat="45.70574" lon="4.56047">
        <ele>886.4</ele>
        <time>2025-03-02T10:27:34Z</time>
      </trkpt>
      <trkpt lat="45.70569" lon="4.56055">
        <ele>885.6</ele>
        <time>2025-03-02T10:27:35Z</time>
      </trkpt>
      <trkpt lat="45.70564" lon="4.56063">
        <ele>884.8</ele>
        <time>2025-03-02T10:27:36Z</time>
      </trkpt>
      <trkpt lat="45.70559" lon="4.5607">
        <ele>883.6</ele>
        <time>2025-03-02T10:27:37Z</time>
      </trkpt>
      <trkpt lat="45.70554" lon="4.56078">
        <ele>882.4</ele>
        <time>2025-03-02T10:27:38Z</time>
      </trkpt>
      <trkpt lat="45.70548" lon="4.56087">
        <ele>882</ele>
        <time>2025-03-02T10:27:39Z</time>
      </trkpt>
      <trkpt lat="45.70543" lon="4.56094">
        <ele>881</ele>
        <time>2025-03-02T10:27:40Z</time>
      </trkpt>
      <trkpt lat="45.70538" lon="4.56102">
        <ele>879.6</ele>
        <time>2025-03-02T10:27:41Z</time>
      </trkpt>
      <trkpt lat="45.70533" lon="4.56109">
        <ele>879.2</ele>
        <time>2025-03-02T10:27:42Z</time>
      </trkpt>
      <trkpt lat="45.70527" lon="4.56115">
        <ele>878.2</ele>
        <time>2025-03-02T10:27:43Z</time>
      </trkpt>
      <trkpt lat="45.70523" lon="4.56118">
        <ele>877.8</ele>
        <time>2025-03-02T10:27:44Z</time>
      </trkpt>
      <trkpt lat="45.70521" lon="4.5612">
        <ele>877.6</ele>
        <time>2025-03-02T10:27:45Z</time>
      </trkpt>
      <trkpt lat="45.70518" lon="4.56123">
        <ele>877.4</ele>
        <time>2025-03-02T10:27:46Z</time>
      </trkpt>
      <trkpt lat="45.70516" lon="4.56128">
        <ele>877.4</ele>
        <time>2025-03-02T10:27:47Z</time>
      </trkpt>
      <trkpt lat="45.70513" lon="4.56133">
        <ele>877</ele>
        <time>2025-03-02T10:27:48Z</time>
      </trkpt>
      <trkpt lat="45.7051" lon="4.56139">
        <ele>876.6</ele>
        <time>2025-03-02T10:27:49Z</time>
      </trkpt>
      <trkpt lat="45.70507" lon="4.56146">
        <ele>876</ele>
        <time>2025-03-02T10:27:50Z</time>
      </trkpt>
      <trkpt lat="45.70505" lon="4.56153">
        <ele>875.2</ele>
        <time>2025-03-02T10:27:51Z</time>
      </trkpt>
      <trkpt lat="45.70502" lon="4.56161">
        <ele>874.4</ele>
        <time>2025-03-02T10:27:52Z</time>
      </trkpt>
      <trkpt lat="45.70499" lon="4.56168">
        <ele>873.8</ele>
        <time>2025-03-02T10:27:53Z</time>
      </trkpt>
      <trkpt lat="45.70496" lon="4.56175">
        <ele>872.6</ele>
        <time>2025-03-02T10:27:54Z</time>
      </trkpt>
      <trkpt lat="45.70493" lon="4.56182">
        <ele>872.4</ele>
        <time>2025-03-02T10:27:55Z</time>
      </trkpt>
      <trkpt lat="45.7049" lon="4.56189">
        <ele>872.2</ele>
        <time>2025-03-02T10:27:56Z</time>
      </trkpt>
      <trkpt lat="45.70487" lon="4.56195">
        <ele>871.8</ele>
        <time>2025-03-02T10:27:57Z</time>
      </trkpt>
      <trkpt lat="45.70483" lon="4.56201">
        <ele>871.8</ele>
        <time>2025-03-02T10:27:58Z</time>
      </trkpt>
      <trkpt lat="45.7048" lon="4.56206">
        <ele>871.8</ele>
        <time>2025-03-02T10:27:59Z</time>
      </trkpt>
      <trkpt lat="45.70476" lon="4.56211">
        <ele>871.8</ele>
        <time>2025-03-02T10:28:00Z</time>
      </trkpt>
      <trkpt lat="45.70473" lon="4.56214">
        <ele>871.8</ele>
        <time>2025-03-02T10:28:01Z</time>
      </trkpt>
      <trkpt lat="45.70471" lon="4.56218">
        <ele>872</ele>
        <time>2025-03-02T10:28:02Z</time>
      </trkpt>
      <trkpt lat="45.70469" lon="4.56222">
        <ele>872.4</ele>
        <time>2025-03-02T10:28:03Z</time>
      </trkpt>
      <trkpt lat="45.70467" lon="4.56225">
        <ele>872.6</ele>
        <time>2025-03-02T10:28:04Z</time>
      </trkpt>
      <trkpt lat="45.70464" lon="4.56228">
        <ele>873</ele>
        <time>2025-03-02T10:28:05Z</time>
      </trkpt>
      <trkpt lat="45.70462" lon="4.56231">
        <ele>873.2</ele>
        <time>2025-03-02T10:28:06Z</time>
      </trkpt>
      <trkpt lat="45.70459" lon="4.56234">
        <ele>873.2</ele>
        <time>2025-03-02T10:28:07Z</time>
      </trkpt>
      <trkpt lat="45.70455" lon="4.56237">
        <ele>873.2</ele>
        <time>2025-03-02T10:28:08Z</time>
      </trkpt>
      <trkpt lat="45.7045" lon="4.56241">
        <ele>873.2</ele>
        <time>2025-03-02T10:28:09Z</time>
      </trkpt>
      <trkpt lat="45.70446" lon="4.56245">
        <ele>872.6</ele>
        <time>2025-03-02T10:28:10Z</time>
      </trkpt>
      <trkpt lat="45.70441" lon="4.56249">
        <ele>872.4</ele>
        <time>2025-03-02T10:28:11Z</time>
      </trkpt>
      <trkpt lat="45.70436" lon="4.56252">
        <ele>872.2</ele>
        <time>2025-03-02T10:28:12Z</time>
      </trkpt>
      <trkpt lat="45.70432" lon="4.56255">
        <ele>871.8</ele>
        <time>2025-03-02T10:28:13Z</time>
      </trkpt>
      <trkpt lat="45.70428" lon="4.56258">
        <ele>871.8</ele>
        <time>2025-03-02T10:28:14Z</time>
      </trkpt>
      <trkpt lat="45.70423" lon="4.56261">
        <ele>871.6</ele>
        <time>2025-03-02T10:28:15Z</time>
      </trkpt>
      <trkpt lat="45.70418" lon="4.56263">
        <ele>871.4</ele>
        <time>2025-03-02T10:28:16Z</time>
      </trkpt>
      <trkpt lat="45.70414" lon="4.56265">
        <ele>871.2</ele>
        <time>2025-03-02T10:28:17Z</time>
      </trkpt>
      <trkpt lat="45.70409" lon="4.56267">
        <ele>870.8</ele>
        <time>2025-03-02T10:28:18Z</time>
      </trkpt>
      <trkpt lat="45.70405" lon="4.5627">
        <ele>870.6</ele>
        <time>2025-03-02T10:28:19Z</time>
      </trkpt>
      <trkpt lat="45.70401" lon="4.56272">
        <ele>870.6</ele>
        <time>2025-03-02T10:28:20Z</time>
      </trkpt>
      <trkpt lat="45.70396" lon="4.56275">
        <ele>870.2</ele>
        <time>2025-03-02T10:28:21Z</time>
      </trkpt>
      <trkpt lat="45.70391" lon="4.56278">
        <ele>869.8</ele>
        <time>2025-03-02T10:28:22Z</time>
      </trkpt>
      <trkpt lat="45.70387" lon="4.56281">
        <ele>869.6</ele>
        <time>2025-03-02T10:28:23Z</time>
      </trkpt>
      <trkpt lat="45.70382" lon="4.56284">
        <ele>869</ele>
        <time>2025-03-02T10:28:24Z</time>
      </trkpt>
      <trkpt lat="45.70378" lon="4.56288">
        <ele>868.4</ele>
        <time>2025-03-02T10:28:25Z</time>
      </trkpt>
      <trkpt lat="45.70374" lon="4.56291">
        <ele>868.2</ele>
        <time>2025-03-02T10:28:26Z</time>
      </trkpt>
      <trkpt lat="45.70369" lon="4.56295">
        <ele>867.8</ele>
        <time>2025-03-02T10:28:27Z</time>
      </trkpt>
      <trkpt lat="45.70365" lon="4.56299">
        <ele>867.6</ele>
        <time>2025-03-02T10:28:28Z</time>
      </trkpt>
      <trkpt lat="45.70362" lon="4.56302">
        <ele>867.4</ele>
        <time>2025-03-02T10:28:29Z</time>
      </trkpt>
      <trkpt lat="45.70358" lon="4.56305">
        <ele>867.4</ele>
        <time>2025-03-02T10:28:30Z</time>
      </trkpt>
      <trkpt lat="45.70354" lon="4.56308">
        <ele>867.4</ele>
        <time>2025-03-02T10:28:31Z</time>
      </trkpt>
      <trkpt lat="45.7035" lon="4.56312">
        <ele>867.2</ele>
        <time>2025-03-02T10:28:32Z</time>
      </trkpt>
      <trkpt lat="45.70345" lon="4.56316">
        <ele>867.2</ele>
        <time>2025-03-02T10:28:33Z</time>
      </trkpt>
      <trkpt lat="45.7034" lon="4.5632">
        <ele>867.2</ele>
        <time>2025-03-02T10:28:34Z</time>
      </trkpt>
      <trkpt lat="45.70336" lon="4.56324">
        <ele>867.2</ele>
        <time>2025-03-02T10:28:35Z</time>
      </trkpt>
      <trkpt lat="45.70331" lon="4.56327">
        <ele>867.2</ele>
        <time>2025-03-02T10:28:36Z</time>
      </trkpt>
      <trkpt lat="45.70327" lon="4.5633">
        <ele>867.2</ele>
        <time>2025-03-02T10:28:37Z</time>
      </trkpt>
      <trkpt lat="45.70322" lon="4.56334">
        <ele>867.4</ele>
        <time>2025-03-02T10:28:38Z</time>
      </trkpt>
      <trkpt lat="45.70317" lon="4.56336">
        <ele>867.6</ele>
        <time>2025-03-02T10:28:39Z</time>
      </trkpt>
      <trkpt lat="45.70312" lon="4.56339">
        <ele>868</ele>
        <time>2025-03-02T10:28:40Z</time>
      </trkpt>
      <trkpt lat="45.70307" lon="4.56342">
        <ele>868</ele>
        <time>2025-03-02T10:28:41Z</time>
      </trkpt>
      <trkpt lat="45.70301" lon="4.56345">
        <ele>868</ele>
        <time>2025-03-02T10:28:42Z</time>
      </trkpt>
      <trkpt lat="45.70296" lon="4.56348">
        <ele>868</ele>
        <time>2025-03-02T10:28:43Z</time>
      </trkpt>
      <trkpt lat="45.7029" lon="4.56351">
        <ele>867.6</ele>
        <time>2025-03-02T10:28:44Z</time>
      </trkpt>
      <trkpt lat="45.70284" lon="4.56353">
        <ele>867.6</ele>
        <time>2025-03-02T10:28:45Z</time>
      </trkpt>
      <trkpt lat="45.70278" lon="4.56356">
        <ele>867.4</ele>
        <time>2025-03-02T10:28:46Z</time>
      </trkpt>
      <trkpt lat="45.70273" lon="4.56359">
        <ele>867.4</ele>
        <time>2025-03-02T10:28:47Z</time>
      </trkpt>
      <trkpt lat="45.70268" lon="4.56361">
        <ele>867.4</ele>
        <time>2025-03-02T10:28:48Z</time>
      </trkpt>
      <trkpt lat="45.70264" lon="4.56362">
        <ele>867.4</ele>
        <time>2025-03-02T10:28:49Z</time>
      </trkpt>
      <trkpt lat="45.70259" lon="4.56362">
        <ele>867.6</ele>
        <time>2025-03-02T10:28:50Z</time>
      </trkpt>
      <trkpt lat="45.70254" lon="4.56363">
        <ele>867.6</ele>
        <time>2025-03-02T10:28:51Z</time>
      </trkpt>
      <trkpt lat="45.70249" lon="4.56363">
        <ele>867.8</ele>
        <time>2025-03-02T10:28:52Z</time>
      </trkpt>
      <trkpt lat="45.70245" lon="4.56362">
        <ele>868</ele>
        <time>2025-03-02T10:28:53Z</time>
      </trkpt>
      <trkpt lat="45.7024" lon="4.56362">
        <ele>868</ele>
        <time>2025-03-02T10:28:54Z</time>
      </trkpt>
      <trkpt lat="45.70236" lon="4.56362">
        <ele>868.2</ele>
        <time>2025-03-02T10:28:55Z</time>
      </trkpt>
      <trkpt lat="45.70231" lon="4.56363">
        <ele>868.2</ele>
        <time>2025-03-02T10:28:56Z</time>
      </trkpt>
      <trkpt lat="45.70227" lon="4.56364">
        <ele>868.2</ele>
        <time>2025-03-02T10:28:57Z</time>
      </trkpt>
      <trkpt lat="45.70223" lon="4.56365">
        <ele>868.2</ele>
        <time>2025-03-02T10:28:58Z</time>
      </trkpt>
      <trkpt lat="45.70219" lon="4.56367">
        <ele>868.2</ele>
        <time>2025-03-02T10:28:59Z</time>
      </trkpt>
      <trkpt lat="45.70215" lon="4.56368">
        <ele>868.2</ele>
        <time>2025-03-02T10:29:00Z</time>
      </trkpt>
      <trkpt lat="45.70212" lon="4.56368">
        <ele>868.2</ele>
        <time>2025-03-02T10:29:01Z</time>
      </trkpt>
      <trkpt lat="45.70209" lon="4.56367">
        <ele>868</ele>
        <time>2025-03-02T10:29:02Z</time>
      </trkpt>
      <trkpt lat="45.70208" lon="4.56365">
        <ele>867.8</ele>
        <time>2025-03-02T10:29:03Z</time>
      </trkpt>
      <trkpt lat="45.70208" lon="4.56365">
        <ele>867.8</ele>
        <time>2025-03-02T10:29:04Z</time>
      </trkpt>
      <trkpt lat="45.70208" lon="4.56365">
        <ele>867.8</ele>
        <time>2025-03-02T10:29:05Z</time>
      </trkpt>
      <trkpt lat="45.70208" lon="4.56365">
        <ele>867.8</ele>
        <time>2025-03-02T10:29:06Z</time>
      </trkpt>
      <trkpt lat="45.70208" lon="4.56365">
        <ele>867.8</ele>
        <time>2025-03-02T10:29:07Z</time>
      </trkpt>
      <trkpt lat="45.70208" lon="4.56365">
        <ele>867.8</ele>
        <time>2025-03-02T10:29:08Z</time>
      </trkpt>
      <trkpt lat="45.70208" lon="4.56365">
        <ele>868</ele>
        <time>2025-03-02T10:29:09Z</time>
      </trkpt>
      <trkpt lat="45.70208" lon="4.56365">
        <ele>868</ele>
        <time>2025-03-02T10:29:10Z</time>
      </trkpt>
      <trkpt lat="45.70208" lon="4.56365">
        <ele>867.8</ele>
        <time>2025-03-02T10:29:11Z</time>
      </trkpt>
      <trkpt lat="45.70208" lon="4.56365">
        <ele>867.8</ele>
        <time>2025-03-02T10:29:12Z</time>
      </trkpt>
      <trkpt lat="45.70208" lon="4.56365">
        <ele>867.8</ele>
        <time>2025-03-02T10:29:13Z</time>
      </trkpt>
      <trkpt lat="45.70208" lon="4.56365">
        <ele>867.8</ele>
        <time>2025-03-02T10:29:14Z</time>
      </trkpt>
      <trkpt lat="45.70208" lon="4.56365">
        <ele>867.8</ele>
        <time>2025-03-02T10:29:15Z</time>
      </trkpt>
      <trkpt lat="45.70208" lon="4.56365">
        <ele>867.8</ele>
        <time>2025-03-02T10:29:16Z</time>
      </trkpt>
      <trkpt lat="45.70208" lon="4.56365">
        <ele>867.8</ele>
        <time>2025-03-02T10:29:17Z</time>
      </trkpt>
      <trkpt lat="45.70208" lon="4.56365">
        <ele>867.8</ele>
        <time>2025-03-02T10:29:18Z</time>
      </trkpt>
      <trkpt lat="45.70208" lon="4.56365">
        <ele>867.8</ele>
        <time>2025-03-02T10:29:19Z</time>
      </trkpt>
      <trkpt lat="45.70208" lon="4.56365">
        <ele>867.8</ele>
        <time>2025-03-02T10:29:20Z</time>
      </trkpt>
      <trkpt lat="45.70208" lon="4.56365">
        <ele>867.8</ele>
        <time>2025-03-02T10:29:21Z</time>
      </trkpt>
      <trkpt lat="45.70208" lon="4.56365">
        <ele>867.8</ele>
        <time>2025-03-02T10:29:22Z</time>
      </trkpt>
      <trkpt lat="45.70208" lon="4.56365">
        <ele>867.8</ele>
        <time>2025-03-02T10:29:23Z</time>
      </trkpt>
      <trkpt lat="45.70208" lon="4.56365">
        <ele>867.8</ele>
        <time>2025-03-02T10:29:24Z</time>
      </trkpt>
      <trkpt lat="45.70208" lon="4.56365">
        <ele>867.8</ele>
        <time>2025-03-02T10:29:25Z</time>
      </trkpt>
      <trkpt lat="45.70208" lon="4.56365">
        <ele>867.8</ele>
        <time>2025-03-02T10:29:26Z</time>
      </trkpt>
      <trkpt lat="45.70208" lon="4.56365">
        <ele>867.8</ele>
        <time>2025-03-02T10:29:27Z</time>
      </trkpt>
      <trkpt lat="45.70208" lon="4.56365">
        <ele>867.8</ele>
        <time>2025-03-02T10:29:28Z</time>
      </trkpt>
      <trkpt lat="45.70208" lon="4.56365">
        <ele>867.8</ele>
        <time>2025-03-02T10:29:29Z</time>
      </trkpt>
      <trkpt lat="45.70208" lon="4.56365">
        <ele>867.8</ele>
        <time>2025-03-02T10:29:30Z</time>
      </trkpt>
      <trkpt lat="45.70208" lon="4.56365">
        <ele>867.8</ele>
        <time>2025-03-02T10:29:31Z</time>
      </trkpt>
      <trkpt lat="45.70208" lon="4.56365">
        <ele>867.8</ele>
        <time>2025-03-02T10:29:32Z</time>
      </trkpt>
      <trkpt lat="45.70208" lon="4.56365">
        <ele>867.8</ele>
        <time>2025-03-02T10:29:33Z</time>
      </trkpt>
      <trkpt lat="45.70208" lon="4.56365">
        <ele>867.8</ele>
        <time>2025-03-02T10:29:34Z</time>
      </trkpt>
      <trkpt lat="45.70208" lon="4.56365">
        <ele>867.8</ele>
        <time>2025-03-02T10:29:35Z</time>
      </trkpt>
      <trkpt lat="45.70208" lon="4.56365">
        <ele>867.8</ele>
        <time>2025-03-02T10:29:36Z</time>
      </trkpt>
      <trkpt lat="45.70208" lon="4.56365">
        <ele>867.8</ele>
        <time>2025-03-02T10:29:37Z</time>
      </trkpt>
      <trkpt lat="45.70208" lon="4.56365">
        <ele>867.8</ele>
        <time>2025-03-02T10:29:38Z</time>
      </trkpt>
      <trkpt lat="45.70208" lon="4.56365">
        <ele>867.8</ele>
        <time>2025-03-02T10:29:39Z</time>
      </trkpt>
      <trkpt lat="45.70208" lon="4.56365">
        <ele>867.8</ele>
        <time>2025-03-02T10:29:40Z</time>
      </trkpt>
      <trkpt lat="45.70208" lon="4.56365">
        <ele>867.8</ele>
        <time>2025-03-02T10:29:41Z</time>
      </trkpt>
      <trkpt lat="45.70208" lon="4.56365">
        <ele>867.8</ele>
        <time>2025-03-02T10:29:42Z</time>
      </trkpt>
      <trkpt lat="45.70208" lon="4.56365">
        <ele>867.8</ele>
        <time>2025-03-02T10:29:43Z</time>
      </trkpt>
      <trkpt lat="45.70208" lon="4.56365">
        <ele>867.8</ele>
        <time>2025-03-02T10:29:44Z</time>
      </trkpt>
      <trkpt lat="45.70208" lon="4.56365">
        <ele>867.8</ele>
        <time>2025-03-02T10:29:45Z</time>
      </trkpt>
      <trkpt lat="45.70208" lon="4.56364">
        <ele>867.8</ele>
        <time>2025-03-02T10:29:46Z</time>
      </trkpt>
      <trkpt lat="45.7021" lon="4.56363">
        <ele>867.8</ele>
        <time>2025-03-02T10:29:47Z</time>
      </trkpt>
      <trkpt lat="45.70212" lon="4.56361">
        <ele>867.8</ele>
        <time>2025-03-02T10:29:48Z</time>
      </trkpt>
      <trkpt lat="45.70215" lon="4.56358">
        <ele>867.6</ele>
        <time>2025-03-02T10:29:49Z</time>
      </trkpt>
      <trkpt lat="45.70219" lon="4.56354">
        <ele>867.4</ele>
        <time>2025-03-02T10:29:50Z</time>
      </trkpt>
      <trkpt lat="45.70224" lon="4.5635">
        <ele>867</ele>
        <time>2025-03-02T10:29:51Z</time>
      </trkpt>
      <trkpt lat="45.70228" lon="4.56344">
        <ele>866.2</ele>
        <time>2025-03-02T10:29:52Z</time>
      </trkpt>
      <trkpt lat="45.70233" lon="4.56339">
        <ele>865.8</ele>
        <time>2025-03-02T10:29:53Z</time>
      </trkpt>
      <trkpt lat="45.70239" lon="4.56333">
        <ele>865</ele>
        <time>2025-03-02T10:29:54Z</time>
      </trkpt>
      <trkpt lat="45.70244" lon="4.56328">
        <ele>864.4</ele>
        <time>2025-03-02T10:29:55Z</time>
      </trkpt>
      <trkpt lat="45.7025" lon="4.56323">
        <ele>863.4</ele>
        <time>2025-03-02T10:29:56Z</time>
      </trkpt>
      <trkpt lat="45.70256" lon="4.56318">
        <ele>862</ele>
        <time>2025-03-02T10:29:57Z</time>
      </trkpt>
      <trkpt lat="45.70263" lon="4.5631">
        <ele>860.8</ele>
        <time>2025-03-02T10:29:58Z</time>
      </trkpt>
      <trkpt lat="45.70269" lon="4.56303">
        <ele>859.8</ele>
        <time>2025-03-02T10:29:59Z</time>
      </trkpt>
      <trkpt lat="45.70275" lon="4.56296">
        <ele>857.8</ele>
        <time>2025-03-02T10:30:00Z</time>
      </trkpt>
      <trkpt lat="45.70282" lon="4.56288">
        <ele>856.8</ele>
        <time>2025-03-02T10:30:01Z</time>
      </trkpt>
      <trkpt lat="45.70288" lon="4.56281">
        <ele>856</ele>
        <time>2025-03-02T10:30:02Z</time>
      </trkpt>
      <trkpt lat="45.70295" lon="4.56273">
        <ele>855.2</ele>
        <time>2025-03-02T10:30:03Z</time>
      </trkpt>
      <trkpt lat="45.70301" lon="4.56267">
        <ele>854.6</ele>
        <time>2025-03-02T10:30:04Z</time>
      </trkpt>
      <trkpt lat="45.70307" lon="4.5626">
        <ele>854.2</ele>
        <time>2025-03-02T10:30:05Z</time>
      </trkpt>
      <trkpt lat="45.70314" lon="4.56254">
        <ele>853.6</ele>
        <time>2025-03-02T10:30:06Z</time>
      </trkpt>
      <trkpt lat="45.7032" lon="4.56248">
        <ele>853.4</ele>
        <time>2025-03-02T10:30:07Z</time>
      </trkpt>
      <trkpt lat="45.70326" lon="4.56241">
        <ele>853.2</ele>
        <time>2025-03-02T10:30:08Z</time>
      </trkpt>
      <trkpt lat="45.70332" lon="4.56234">
        <ele>853.2</ele>
        <time>2025-03-02T10:30:09Z</time>
      </trkpt>
      <trkpt lat="45.70337" lon="4.56227">
        <ele>853.2</ele>
        <time>2025-03-02T10:30:10Z</time>
      </trkpt>
      <trkpt lat="45.70342" lon="4.56218">
        <ele>853.2</ele>
        <time>2025-03-02T10:30:11Z</time>
      </trkpt>
      <trkpt lat="45.70346" lon="4.5621">
        <ele>853.2</ele>
        <time>2025-03-02T10:30:12Z</time>
      </trkpt>
      <trkpt lat="45.7035" lon="4.56201">
        <ele>853.2</ele>
        <time>2025-03-02T10:30:13Z</time>
      </trkpt>
      <trkpt lat="45.70353" lon="4.56192">
        <ele>853</ele>
        <time>2025-03-02T10:30:14Z</time>
      </trkpt>
      <trkpt lat="45.70356" lon="4.56183">
        <ele>852.8</ele>
        <time>2025-03-02T10:30:15Z</time>
      </trkpt>
      <trkpt lat="45.70359" lon="4.56174">
        <ele>852.6</ele>
        <time>2025-03-02T10:30:16Z</time>
      </trkpt>
      <trkpt lat="45.70361" lon="4.56168">
        <ele>852.6</ele>
        <time>2025-03-02T10:30:17Z</time>
      </trkpt>
      <trkpt lat="45.70363" lon="4.56158">
        <ele>852.6</ele>
        <time>2025-03-02T10:30:18Z</time>
      </trkpt>
      <trkpt lat="45.70366" lon="4.5615">
        <ele>852.6</ele>
        <time>2025-03-02T10:30:19Z</time>
      </trkpt>
      <trkpt lat="45.70368" lon="4.56144">
        <ele>852.4</ele>
        <time>2025-03-02T10:30:20Z</time>
      </trkpt>
      <trkpt lat="45.7037" lon="4.56136">
        <ele>852.4</ele>
        <time>2025-03-02T10:30:21Z</time>
      </trkpt>
      <trkpt lat="45.70373" lon="4.56127">
        <ele>852.2</ele>
        <time>2025-03-02T10:30:22Z</time>
      </trkpt>
      <trkpt lat="45.70376" lon="4.56119">
        <ele>851.8</ele>
        <time>2025-03-02T10:30:23Z</time>
      </trkpt>
      <trkpt lat="45.70379" lon="4.56108">
        <ele>851.4</ele>
        <time>2025-03-02T10:30:24Z</time>
      </trkpt>
      <trkpt lat="45.70381" lon="4.56099">
        <ele>851</ele>
        <time>2025-03-02T10:30:25Z</time>
      </trkpt>
      <trkpt lat="45.70383" lon="4.5609">
        <ele>850</ele>
        <time>2025-03-02T10:30:26Z</time>
      </trkpt>
      <trkpt lat="45.70385" lon="4.56077">
        <ele>849.4</ele>
        <time>2025-03-02T10:30:27Z</time>
      </trkpt>
      <trkpt lat="45.70387" lon="4.56066">
        <ele>848.8</ele>
        <time>2025-03-02T10:30:28Z</time>
      </trkpt>
      <trkpt lat="45.70389" lon="4.56054">
        <ele>847.8</ele>
        <time>2025-03-02T10:30:29Z</time>
      </trkpt>
      <trkpt lat="45.70391" lon="4.56043">
        <ele>847.2</ele>
        <time>2025-03-02T10:30:30Z</time>
      </trkpt>
      <trkpt lat="45.70391" lon="4.56031">
        <ele>846.6</ele>
        <time>2025-03-02T10:30:31Z</time>
      </trkpt>
      <trkpt lat="45.70391" lon="4.56018">
        <ele>846.2</ele>
        <time>2025-03-02T10:30:32Z</time>
      </trkpt>
      <trkpt lat="45.7039" lon="4.56007">
        <ele>845.6</ele>
        <time>2025-03-02T10:30:33Z</time>
      </trkpt>
      <trkpt lat="45.70388" lon="4.55996">
        <ele>845</ele>
        <time>2025-03-02T10:30:34Z</time>
      </trkpt>
      <trkpt lat="45.70386" lon="4.55985">
        <ele>844.2</ele>
        <time>2025-03-02T10:30:35Z</time>
      </trkpt>
      <trkpt lat="45.70383" lon="4.55975">
        <ele>844</ele>
        <time>2025-03-02T10:30:36Z</time>
      </trkpt>
      <trkpt lat="45.70379" lon="4.55966">
        <ele>844</ele>
        <time>2025-03-02T10:30:37Z</time>
      </trkpt>
      <trkpt lat="45.70374" lon="4.55959">
        <ele>843.8</ele>
        <time>2025-03-02T10:30:38Z</time>
      </trkpt>
      <trkpt lat="45.7037" lon="4.55952">
        <ele>843.8</ele>
        <time>2025-03-02T10:30:39Z</time>
      </trkpt>
      <trkpt lat="45.70366" lon="4.55947">
        <ele>843.8</ele>
        <time>2025-03-02T10:30:40Z</time>
      </trkpt>
      <trkpt lat="45.70361" lon="4.55941">
        <ele>844</ele>
        <time>2025-03-02T10:30:41Z</time>
      </trkpt>
      <trkpt lat="45.70356" lon="4.55934">
        <ele>844</ele>
        <time>2025-03-02T10:30:42Z</time>
      </trkpt>
      <trkpt lat="45.70352" lon="4.55928">
        <ele>844.2</ele>
        <time>2025-03-02T10:30:43Z</time>
      </trkpt>
      <trkpt lat="45.70347" lon="4.55922">
        <ele>844.4</ele>
        <time>2025-03-02T10:30:44Z</time>
      </trkpt>
      <trkpt lat="45.70343" lon="4.55917">
        <ele>845</ele>
        <time>2025-03-02T10:30:45Z</time>
      </trkpt>
      <trkpt lat="45.70338" lon="4.55911">
        <ele>845.4</ele>
        <time>2025-03-02T10:30:46Z</time>
      </trkpt>
      <trkpt lat="45.70333" lon="4.55904">
        <ele>845.4</ele>
        <time>2025-03-02T10:30:47Z</time>
      </trkpt>
      <trkpt lat="45.70329" lon="4.55898">
        <ele>845.6</ele>
        <time>2025-03-02T10:30:48Z</time>
      </trkpt>
      <trkpt lat="45.70325" lon="4.55893">
        <ele>845.6</ele>
        <time>2025-03-02T10:30:49Z</time>
      </trkpt>
      <trkpt lat="45.70322" lon="4.55887">
        <ele>845.8</ele>
        <time>2025-03-02T10:30:50Z</time>
      </trkpt>
      <trkpt lat="45.70319" lon="4.55882">
        <ele>846.2</ele>
        <time>2025-03-02T10:30:51Z</time>
      </trkpt>
      <trkpt lat="45.70317" lon="4.55876">
        <ele>846.6</ele>
        <time>2025-03-02T10:30:52Z</time>
      </trkpt>
      <trkpt lat="45.70316" lon="4.5587">
        <ele>846.8</ele>
        <time>2025-03-02T10:30:53Z</time>
      </trkpt>
      <trkpt lat="45.70314" lon="4.55865">
        <ele>847.2</ele>
        <time>2025-03-02T10:30:54Z</time>
      </trkpt>
      <trkpt lat="45.70312" lon="4.5586">
        <ele>848</ele>
        <time>2025-03-02T10:30:55Z</time>
      </trkpt>
      <trkpt lat="45.70311" lon="4.55855">
        <ele>848.2</ele>
        <time>2025-03-02T10:30:56Z</time>
      </trkpt>
      <trkpt lat="45.7031" lon="4.5585">
        <ele>848.4</ele>
        <time>2025-03-02T10:30:57Z</time>
      </trkpt>
      <trkpt lat="45.70308" lon="4.55845">
        <ele>848.6</ele>
        <time>2025-03-02T10:30:58Z</time>
      </trkpt>
      <trkpt lat="45.70307" lon="4.5584">
        <ele>848.8</ele>
        <time>2025-03-02T10:30:59Z</time>
      </trkpt>
      <trkpt lat="45.70306" lon="4.55835">
        <ele>849</ele>
        <time>2025-03-02T10:31:00Z</time>
      </trkpt>
      <trkpt lat="45.70305" lon="4.55829">
        <ele>849.4</ele>
        <time>2025-03-02T10:31:01Z</time>
      </trkpt>
      <trkpt lat="45.70304" lon="4.55824">
        <ele>850</ele>
        <time>2025-03-02T10:31:02Z</time>
      </trkpt>
      <trkpt lat="45.70302" lon="4.5582">
        <ele>850.6</ele>
        <time>2025-03-02T10:31:03Z</time>
      </trkpt>
      <trkpt lat="45.70301" lon="4.55816">
        <ele>851</ele>
        <time>2025-03-02T10:31:04Z</time>
      </trkpt>
      <trkpt lat="45.703" lon="4.55813">
        <ele>851.4</ele>
        <time>2025-03-02T10:31:05Z</time>
      </trkpt>
      <trkpt lat="45.703" lon="4.55811">
        <ele>852</ele>
        <time>2025-03-02T10:31:06Z</time>
      </trkpt>
      <trkpt lat="45.703" lon="4.5581">
        <ele>852.4</ele>
        <time>2025-03-02T10:31:07Z</time>
      </trkpt>
      <trkpt lat="45.703" lon="4.5581">
        <ele>852.8</ele>
        <time>2025-03-02T10:31:08Z</time>
      </trkpt>
      <trkpt lat="45.703" lon="4.5581">
        <ele>853.2</ele>
        <time>2025-03-02T10:31:09Z</time>
      </trkpt>
      <trkpt lat="45.703" lon="4.5581">
        <ele>853.6</ele>
        <time>2025-03-02T10:31:10Z</time>
      </trkpt>
      <trkpt lat="45.703" lon="4.5581">
        <ele>853.8</ele>
        <time>2025-03-02T10:31:11Z</time>
      </trkpt>
      <trkpt lat="45.703" lon="4.5581">
        <ele>854</ele>
        <time>2025-03-02T10:31:12Z</time>
      </trkpt>
      <trkpt lat="45.703" lon="4.5581">
        <ele>854</ele>
        <time>2025-03-02T10:31:13Z</time>
      </trkpt>
      <trkpt lat="45.703" lon="4.5581">
        <ele>854</ele>
        <time>2025-03-02T10:31:14Z</time>
      </trkpt>
      <trkpt lat="45.703" lon="4.5581">
        <ele>854.2</ele>
        <time>2025-03-02T10:31:15Z</time>
      </trkpt>
      <trkpt lat="45.703" lon="4.5581">
        <ele>854.2</ele>
        <time>2025-03-02T10:31:16Z</time>
      </trkpt>
      <trkpt lat="45.703" lon="4.55809">
        <ele>854.2</ele>
        <time>2025-03-02T10:31:17Z</time>
      </trkpt>
      <trkpt lat="45.703" lon="4.55808">
        <ele>854</ele>
        <time>2025-03-02T10:31:18Z</time>
      </trkpt>
      <trkpt lat="45.703" lon="4.55805">
        <ele>854</ele>
        <time>2025-03-02T10:31:19Z</time>
      </trkpt>
      <trkpt lat="45.70299" lon="4.55801">
        <ele>854</ele>
        <time>2025-03-02T10:31:20Z</time>
      </trkpt>
      <trkpt lat="45.70297" lon="4.55796">
        <ele>853.8</ele>
        <time>2025-03-02T10:31:21Z</time>
      </trkpt>
      <trkpt lat="45.70296" lon="4.55789">
        <ele>853.6</ele>
        <time>2025-03-02T10:31:22Z</time>
      </trkpt>
      <trkpt lat="45.70295" lon="4.55782">
        <ele>853.2</ele>
        <time>2025-03-02T10:31:23Z</time>
      </trkpt>
      <trkpt lat="45.70294" lon="4.55776">
        <ele>853</ele>
        <time>2025-03-02T10:31:24Z</time>
      </trkpt>
      <trkpt lat="45.70293" lon="4.5577">
        <ele>853</ele>
        <time>2025-03-02T10:31:25Z</time>
      </trkpt>
      <trkpt lat="45.70291" lon="4.55764">
        <ele>853</ele>
        <time>2025-03-02T10:31:26Z</time>
      </trkpt>
      <trkpt lat="45.7029" lon="4.55759">
        <ele>853.2</ele>
        <time>2025-03-02T10:31:27Z</time>
      </trkpt>
      <trkpt lat="45.7029" lon="4.55755">
        <ele>853.4</ele>
        <time>2025-03-02T10:31:28Z</time>
      </trkpt>
      <trkpt lat="45.7029" lon="4.55751">
        <ele>853.8</ele>
        <time>2025-03-02T10:31:29Z</time>
      </trkpt>
      <trkpt lat="45.70291" lon="4.55749">
        <ele>854</ele>
        <time>2025-03-02T10:31:30Z</time>
      </trkpt>
      <trkpt lat="45.70291" lon="4.55747">
        <ele>854.2</ele>
        <time>2025-03-02T10:31:31Z</time>
      </trkpt>
      <trkpt lat="45.7029" lon="4.55746">
        <ele>854.6</ele>
        <time>2025-03-02T10:31:32Z</time>
      </trkpt>
      <trkpt lat="45.7029" lon="4.55746">
        <ele>855</ele>
        <time>2025-03-02T10:31:33Z</time>
      </trkpt>
      <trkpt lat="45.7029" lon="4.55746">
        <ele>855</ele>
        <time>2025-03-02T10:31:34Z</time>
      </trkpt>
      <trkpt lat="45.7029" lon="4.55746">
        <ele>855.2</ele>
        <time>2025-03-02T10:31:35Z</time>
      </trkpt>
      <trkpt lat="45.7029" lon="4.55746">
        <ele>855.4</ele>
        <time>2025-03-02T10:31:36Z</time>
      </trkpt>
      <trkpt lat="45.7029" lon="4.55746">
        <ele>855.4</ele>
        <time>2025-03-02T10:31:37Z</time>
      </trkpt>
      <trkpt lat="45.7029" lon="4.55746">
        <ele>855.4</ele>
        <time>2025-03-02T10:31:38Z</time>
      </trkpt>
      <trkpt lat="45.7029" lon="4.55746">
        <ele>855.4</ele>
        <time>2025-03-02T10:31:39Z</time>
      </trkpt>
      <trkpt lat="45.7029" lon="4.55746">
        <ele>855.4</ele>
        <time>2025-03-02T10:31:40Z</time>
      </trkpt>
      <trkpt lat="45.7029" lon="4.55746">
        <ele>855.4</ele>
        <time>2025-03-02T10:31:41Z</time>
      </trkpt>
      <trkpt lat="45.7029" lon="4.55746">
        <ele>855.4</ele>
        <time>2025-03-02T10:31:42Z</time>
      </trkpt>
      <trkpt lat="45.7029" lon="4.55746">
        <ele>855.2</ele>
        <time>2025-03-02T10:31:43Z</time>
      </trkpt>
      <trkpt lat="45.7029" lon="4.55746">
        <ele>855.2</ele>
        <time>2025-03-02T10:31:44Z</time>
      </trkpt>
      <trkpt lat="45.7029" lon="4.55746">
        <ele>855.2</ele>
        <time>2025-03-02T10:31:45Z</time>
      </trkpt>
      <trkpt lat="45.7029" lon="4.55746">
        <ele>855.2</ele>
        <time>2025-03-02T10:31:46Z</time>
      </trkpt>
      <trkpt lat="45.7029" lon="4.55746">
        <ele>855.2</ele>
        <time>2025-03-02T10:31:47Z</time>
      </trkpt>
      <trkpt lat="45.7029" lon="4.55746">
        <ele>855.2</ele>
        <time>2025-03-02T10:31:48Z</time>
      </trkpt>
      <trkpt lat="45.7029" lon="4.55746">
        <ele>855.2</ele>
        <time>2025-03-02T10:31:49Z</time>
      </trkpt>
      <trkpt lat="45.7029" lon="4.55746">
        <ele>855.2</ele>
        <time>2025-03-02T10:31:50Z</time>
      </trkpt>
      <trkpt lat="45.7029" lon="4.55746">
        <ele>855.2</ele>
        <time>2025-03-02T10:31:51Z</time>
      </trkpt>
      <trkpt lat="45.7029" lon="4.55746">
        <ele>855.2</ele>
        <time>2025-03-02T10:31:52Z</time>
      </trkpt>
      <trkpt lat="45.7029" lon="4.55746">
        <ele>855.2</ele>
        <time>2025-03-02T10:31:53Z</time>
      </trkpt>
      <trkpt lat="45.7029" lon="4.55746">
        <ele>855.2</ele>
        <time>2025-03-02T10:31:54Z</time>
      </trkpt>
      <trkpt lat="45.7029" lon="4.55746">
        <ele>855.2</ele>
        <time>2025-03-02T10:31:55Z</time>
      </trkpt>
      <trkpt lat="45.7029" lon="4.55746">
        <ele>855</ele>
        <time>2025-03-02T10:31:56Z</time>
      </trkpt>
      <trkpt lat="45.7029" lon="4.55746">
        <ele>855</ele>
        <time>2025-03-02T10:31:57Z</time>
      </trkpt>
      <trkpt lat="45.7029" lon="4.55746">
        <ele>855</ele>
        <time>2025-03-02T10:31:58Z</time>
      </trkpt>
      <trkpt lat="45.7029" lon="4.55746">
        <ele>855</ele>
        <time>2025-03-02T10:31:59Z</time>
      </trkpt>
      <trkpt lat="45.7029" lon="4.55746">
        <ele>855</ele>
        <time>2025-03-02T10:32:00Z</time>
      </trkpt>
      <trkpt lat="45.7029" lon="4.55746">
        <ele>855</ele>
        <time>2025-03-02T10:32:01Z</time>
      </trkpt>
      <trkpt lat="45.7029" lon="4.55746">
        <ele>855</ele>
        <time>2025-03-02T10:32:02Z</time>
      </trkpt>
      <trkpt lat="45.7029" lon="4.55746">
        <ele>855</ele>
        <time>2025-03-02T10:32:03Z</time>
      </trkpt>
      <trkpt lat="45.7029" lon="4.55746">
        <ele>855</ele>
        <time>2025-03-02T10:32:04Z</time>
      </trkpt>
      <trkpt lat="45.7029" lon="4.55746">
        <ele>855</ele>
        <time>2025-03-02T10:32:05Z</time>
      </trkpt>
      <trkpt lat="45.7029" lon="4.55746">
        <ele>855</ele>
        <time>2025-03-02T10:32:06Z</time>
      </trkpt>
      <trkpt lat="45.7029" lon="4.55746">
        <ele>855</ele>
        <time>2025-03-02T10:32:07Z</time>
      </trkpt>
      <trkpt lat="45.7029" lon="4.55746">
        <ele>855</ele>
        <time>2025-03-02T10:32:08Z</time>
      </trkpt>
      <trkpt lat="45.7029" lon="4.55746">
        <ele>855</ele>
        <time>2025-03-02T10:32:09Z</time>
      </trkpt>
      <trkpt lat="45.7029" lon="4.55747">
        <ele>855</ele>
        <time>2025-03-02T10:32:10Z</time>
      </trkpt>
      <trkpt lat="45.7029" lon="4.55748">
        <ele>855</ele>
        <time>2025-03-02T10:32:11Z</time>
      </trkpt>
      <trkpt lat="45.7029" lon="4.55751">
        <ele>855</ele>
        <time>2025-03-02T10:32:12Z</time>
      </trkpt>
      <trkpt lat="45.70291" lon="4.55754">
        <ele>855</ele>
        <time>2025-03-02T10:32:13Z</time>
      </trkpt>
      <trkpt lat="45.70292" lon="4.55759">
        <ele>855</ele>
        <time>2025-03-02T10:32:14Z</time>
      </trkpt>
      <trkpt lat="45.70293" lon="4.55765">
        <ele>855</ele>
        <time>2025-03-02T10:32:15Z</time>
      </trkpt>
      <trkpt lat="45.70294" lon="4.55772">
        <ele>854.8</ele>
        <time>2025-03-02T10:32:16Z</time>
      </trkpt>
      <trkpt lat="45.70295" lon="4.55779">
        <ele>854.6</ele>
        <time>2025-03-02T10:32:17Z</time>
      </trkpt>
      <trkpt lat="45.70297" lon="4.55786">
        <ele>854.2</ele>
        <time>2025-03-02T10:32:18Z</time>
      </trkpt>
      <trkpt lat="45.70299" lon="4.55793">
        <ele>854</ele>
        <time>2025-03-02T10:32:19Z</time>
      </trkpt>
      <trkpt lat="45.703" lon="4.55801">
        <ele>853.8</ele>
        <time>2025-03-02T10:32:20Z</time>
      </trkpt>
      <trkpt lat="45.70302" lon="4.55808">
        <ele>853.6</ele>
        <time>2025-03-02T10:32:21Z</time>
      </trkpt>
      <trkpt lat="45.70304" lon="4.55815">
        <ele>853.4</ele>
        <time>2025-03-02T10:32:22Z</time>
      </trkpt>
      <trkpt lat="45.70306" lon="4.55822">
        <ele>853.2</ele>
        <time>2025-03-02T10:32:23Z</time>
      </trkpt>
      <trkpt lat="45.70308" lon="4.55831">
        <ele>853.2</ele>
        <time>2025-03-02T10:32:24Z</time>
      </trkpt>
      <trkpt lat="45.7031" lon="4.55839">
        <ele>852.8</ele>
        <time>2025-03-02T10:32:25Z</time>
      </trkpt>
      <trkpt lat="45.70313" lon="4.55849">
        <ele>852.2</ele>
        <time>2025-03-02T10:32:26Z</time>
      </trkpt>
      <trkpt lat="45.70315" lon="4.55859">
        <ele>851.4</ele>
        <time>2025-03-02T10:32:27Z</time>
      </trkpt>
      <trkpt lat="45.70318" lon="4.55868">
        <ele>851</ele>
        <time>2025-03-02T10:32:28Z</time>
      </trkpt>
      <trkpt lat="45.70322" lon="4.55877">
        <ele>850.2</ele>
        <time>2025-03-02T10:32:29Z</time>
      </trkpt>
      <trkpt lat="45.70326" lon="4.55887">
        <ele>849.8</ele>
        <time>2025-03-02T10:32:30Z</time>
      </trkpt>
      <trkpt lat="45.70329" lon="4.55894">
        <ele>848.8</ele>
        <time>2025-03-02T10:32:31Z</time>
      </trkpt>
      <trkpt lat="45.70335" lon="4.55905">
        <ele>848.2</ele>
        <time>2025-03-02T10:32:32Z</time>
      </trkpt>
      <trkpt lat="45.7034" lon="4.55914">
        <ele>847.4</ele>
        <time>2025-03-02T10:32:33Z</time>
      </trkpt>
      <trkpt lat="45.70346" lon="4.55922">
        <ele>846.6</ele>
        <time>2025-03-02T10:32:34Z</time>
      </trkpt>
      <trkpt lat="45.70352" lon="4.5593">
        <ele>846.2</ele>
        <time>2025-03-02T10:32:35Z</time>
      </trkpt>
      <trkpt lat="45.70358" lon="4.55937">
        <ele>845.6</ele>
        <time>2025-03-02T10:32:36Z</time>
      </trkpt>
      <trkpt lat="45.70363" lon="4.55944">
        <ele>845.2</ele>
        <time>2025-03-02T10:32:37Z</time>
      </trkpt>
      <trkpt lat="45.70369" lon="4.55951">
        <ele>845</ele>
        <time>2025-03-02T10:32:38Z</time>
      </trkpt>
      <trkpt lat="45.70373" lon="4.55958">
        <ele>845</ele>
        <time>2025-03-02T10:32:39Z</time>
      </trkpt>
      <trkpt lat="45.70378" lon="4.55965">
        <ele>845</ele>
        <time>2025-03-02T10:32:40Z</time>
      </trkpt>
      <trkpt lat="45.70381" lon="4.55971">
        <ele>845</ele>
        <time>2025-03-02T10:32:41Z</time>
      </trkpt>
      <trkpt lat="45.70385" lon="4.55978">
        <ele>845.2</ele>
        <time>2025-03-02T10:32:42Z</time>
      </trkpt>
      <trkpt lat="45.70387" lon="4.55985">
        <ele>845.2</ele>
        <time>2025-03-02T10:32:43Z</time>
      </trkpt>
      <trkpt lat="45.70389" lon="4.55993">
        <ele>845.4</ele>
        <time>2025-03-02T10:32:44Z</time>
      </trkpt>
      <trkpt lat="45.7039" lon="4.56001">
        <ele>845.6</ele>
        <time>2025-03-02T10:32:45Z</time>
      </trkpt>
      <trkpt lat="45.70391" lon="4.56008">
        <ele>845.6</ele>
        <time>2025-03-02T10:32:46Z</time>
      </trkpt>
      <trkpt lat="45.70391" lon="4.56016">
        <ele>845.8</ele>
        <time>2025-03-02T10:32:47Z</time>
      </trkpt>
      <trkpt lat="45.70392" lon="4.56024">
        <ele>846.4</ele>
        <time>2025-03-02T10:32:48Z</time>
      </trkpt>
      <trkpt lat="45.70392" lon="4.56032">
        <ele>846.6</ele>
        <time>2025-03-02T10:32:49Z</time>
      </trkpt>
      <trkpt lat="45.70393" lon="4.56039">
        <ele>846.8</ele>
        <time>2025-03-02T10:32:50Z</time>
      </trkpt>
      <trkpt lat="45.70392" lon="4.56047">
        <ele>847</ele>
        <time>2025-03-02T10:32:51Z</time>
      </trkpt>
      <trkpt lat="45.7039" lon="4.56053">
        <ele>847.4</ele>
        <time>2025-03-02T10:32:52Z</time>
      </trkpt>
      <trkpt lat="45.70389" lon="4.56059">
        <ele>847.6</ele>
        <time>2025-03-02T10:32:53Z</time>
      </trkpt>
      <trkpt lat="45.70388" lon="4.56065">
        <ele>848.2</ele>
        <time>2025-03-02T10:32:54Z</time>
      </trkpt>
      <trkpt lat="45.70387" lon="4.56071">
        <ele>848.4</ele>
        <time>2025-03-02T10:32:55Z</time>
      </trkpt>
      <trkpt lat="45.70386" lon="4.56077">
        <ele>848.8</ele>
        <time>2025-03-02T10:32:56Z</time>
      </trkpt>
      <trkpt lat="45.70385" lon="4.56082">
        <ele>849.2</ele>
        <time>2025-03-02T10:32:57Z</time>
      </trkpt>
      <trkpt lat="45.70384" lon="4.56087">
        <ele>849.6</ele>
        <time>2025-03-02T10:32:58Z</time>
      </trkpt>
      <trkpt lat="45.70383" lon="4.56093">
        <ele>850</ele>
        <time>2025-03-02T10:32:59Z</time>
      </trkpt>
      <trkpt lat="45.70382" lon="4.56098">
        <ele>850.4</ele>
        <time>2025-03-02T10:33:00Z</time>
      </trkpt>
      <trkpt lat="45.7038" lon="4.56104">
        <ele>851.2</ele>
        <time>2025-03-02T10:33:01Z</time>
      </trkpt>
      <trkpt lat="45.70379" lon="4.56109">
        <ele>851.4</ele>
        <time>2025-03-02T10:33:02Z</time>
      </trkpt>
      <trkpt lat="45.70378" lon="4.56114">
        <ele>851.8</ele>
        <time>2025-03-02T10:33:03Z</time>
      </trkpt>
      <trkpt lat="45.70377" lon="4.56119">
        <ele>852.4</ele>
        <time>2025-03-02T10:33:04Z</time>
      </trkpt>
      <trkpt lat="45.70375" lon="4.56124">
        <ele>852.6</ele>
        <time>2025-03-02T10:33:05Z</time>
      </trkpt>
      <trkpt lat="45.70374" lon="4.56128">
        <ele>853</ele>
        <time>2025-03-02T10:33:06Z</time>
      </trkpt>
      <trkpt lat="45.70372" lon="4.56133">
        <ele>853.6</ele>
        <time>2025-03-02T10:33:07Z</time>
      </trkpt>
      <trkpt lat="45.7037" lon="4.56137">
        <ele>853.8</ele>
        <time>2025-03-02T10:33:08Z</time>
      </trkpt>
      <trkpt lat="45.70368" lon="4.56142">
        <ele>854</ele>
        <time>2025-03-02T10:33:09Z</time>
      </trkpt>
      <trkpt lat="45.70367" lon="4.56147">
        <ele>854</ele>
        <time>2025-03-02T10:33:10Z</time>
      </trkpt>
      <trkpt lat="45.70365" lon="4.56152">
        <ele>854.2</ele>
        <time>2025-03-02T10:33:11Z</time>
      </trkpt>
      <trkpt lat="45.70364" lon="4.56156">
        <ele>854.4</ele>
        <time>2025-03-02T10:33:12Z</time>
      </trkpt>
      <trkpt lat="45.70363" lon="4.56162">
        <ele>854.6</ele>
        <time>2025-03-02T10:33:13Z</time>
      </trkpt>
      <trkpt lat="45.70361" lon="4.56167">
        <ele>854.8</ele>
        <time>2025-03-02T10:33:14Z</time>
      </trkpt>
      <trkpt lat="45.70359" lon="4.56173">
        <ele>854.8</ele>
        <time>2025-03-02T10:33:15Z</time>
      </trkpt>
      <trkpt lat="45.70357" lon="4.56179">
        <ele>854.8</ele>
        <time>2025-03-02T10:33:16Z</time>
      </trkpt>
      <trkpt lat="45.70355" lon="4.56185">
        <ele>854.8</ele>
        <time>2025-03-02T10:33:17Z</time>
      </trkpt>
      <trkpt lat="45.70353" lon="4.56191">
        <ele>854.6</ele>
        <time>2025-03-02T10:33:18Z</time>
      </trkpt>
      <trkpt lat="45.7035" lon="4.56197">
        <ele>854.6</ele>
        <time>2025-03-02T10:33:19Z</time>
      </trkpt>
      <trkpt lat="45.70348" lon="4.56203">
        <ele>854.4</ele>
        <time>2025-03-02T10:33:20Z</time>
      </trkpt>
      <trkpt lat="45.70346" lon="4.56209">
        <ele>854.2</ele>
        <time>2025-03-02T10:33:21Z</time>
      </trkpt>
      <trkpt lat="45.70344" lon="4.56214">
        <ele>854.2</ele>
        <time>2025-03-02T10:33:22Z</time>
      </trkpt>
      <trkpt lat="45.70341" lon="4.56219">
        <ele>854.2</ele>
        <time>2025-03-02T10:33:23Z</time>
      </trkpt>
      <trkpt lat="45.70338" lon="4.56224">
        <ele>854.2</ele>
        <time>2025-03-02T10:33:24Z</time>
      </trkpt>
      <trkpt lat="45.70336" lon="4.56229">
        <ele>854.2</ele>
        <time>2025-03-02T10:33:25Z</time>
      </trkpt>
      <trkpt lat="45.70333" lon="4.56234">
        <ele>854.2</ele>
        <time>2025-03-02T10:33:26Z</time>
      </trkpt>
      <trkpt lat="45.70329" lon="4.56238">
        <ele>854.2</ele>
        <time>2025-03-02T10:33:27Z</time>
      </trkpt>
      <trkpt lat="45.70326" lon="4.56242">
        <ele>854.4</ele>
        <time>2025-03-02T10:33:28Z</time>
      </trkpt>
      <trkpt lat="45.70323" lon="4.56246">
        <ele>854.6</ele>
        <time>2025-03-02T10:33:29Z</time>
      </trkpt>
      <trkpt lat="45.70319" lon="4.5625">
        <ele>854.6</ele>
        <time>2025-03-02T10:33:30Z</time>
      </trkpt>
      <trkpt lat="45.70315" lon="4.56253">
        <ele>854.6</ele>
        <time>2025-03-02T10:33:31Z</time>
      </trkpt>
      <trkpt lat="45.70312" lon="4.56257">
        <ele>854.8</ele>
        <time>2025-03-02T10:33:32Z</time>
      </trkpt>
      <trkpt lat="45.70308" lon="4.5626">
        <ele>854.8</ele>
        <time>2025-03-02T10:33:33Z</time>
      </trkpt>
      <trkpt lat="45.70304" lon="4.56264">
        <ele>855</ele>
        <time>2025-03-02T10:33:34Z</time>
      </trkpt>
      <trkpt lat="45.703" lon="4.56268">
        <ele>855</ele>
        <time>2025-03-02T10:33:35Z</time>
      </trkpt>
      <trkpt lat="45.70297" lon="4.56271">
        <ele>855.2</ele>
        <time>2025-03-02T10:33:36Z</time>
      </trkpt>
      <trkpt lat="45.70293" lon="4.56276">
        <ele>855.2</ele>
        <time>2025-03-02T10:33:37Z</time>
      </trkpt>
      <trkpt lat="45.7029" lon="4.5628">
        <ele>855.4</ele>
        <time>2025-03-02T10:33:38Z</time>
      </trkpt>
      <trkpt lat="45.70286" lon="4.56284">
        <ele>855.6</ele>
        <time>2025-03-02T10:33:39Z</time>
      </trkpt>
      <trkpt lat="45.70283" lon="4.56288">
        <ele>855.6</ele>
        <time>2025-03-02T10:33:40Z</time>
      </trkpt>
      <trkpt lat="45.7028" lon="4.56291">
        <ele>856</ele>
        <time>2025-03-02T10:33:41Z</time>
      </trkpt>
      <trkpt lat="45.70277" lon="4.56294">
        <ele>856.2</ele>
        <time>2025-03-02T10:33:42Z</time>
      </trkpt>
      <trkpt lat="45.70275" lon="4.56297">
        <ele>856.4</ele>
        <time>2025-03-02T10:33:43Z</time>
      </trkpt>
      <trkpt lat="45.70272" lon="4.563">
        <ele>856.8</ele>
        <time>2025-03-02T10:33:44Z</time>
      </trkpt>
      <trkpt lat="45.70269" lon="4.56304">
        <ele>857</ele>
        <time>2025-03-02T10:33:45Z</time>
      </trkpt>
      <trkpt lat="45.70266" lon="4.56307">
        <ele>857.2</ele>
        <time>2025-03-02T10:33:46Z</time>
      </trkpt>
      <trkpt lat="45.70263" lon="4.5631">
        <ele>857.4</ele>
        <time>2025-03-02T10:33:47Z</time>
      </trkpt>
      <trkpt lat="45.7026" lon="4.56313">
        <ele>857.6</ele>
        <time>2025-03-02T10:33:48Z</time>
      </trkpt>
      <trkpt lat="45.70258" lon="4.56316">
        <ele>857.8</ele>
        <time>2025-03-02T10:33:49Z</time>
      </trkpt>
      <trkpt lat="45.70256" lon="4.56319">
        <ele>858.4</ele>
        <time>2025-03-02T10:33:50Z</time>
      </trkpt>
      <trkpt lat="45.70254" lon="4.56321">
        <ele>858.6</ele>
        <time>2025-03-02T10:33:51Z</time>
      </trkpt>
      <trkpt lat="45.70251" lon="4.56324">
        <ele>859</ele>
        <time>2025-03-02T10:33:52Z</time>
      </trkpt>
      <trkpt lat="45.70249" lon="4.56327">
        <ele>859.4</ele>
        <time>2025-03-02T10:33:53Z</time>
      </trkpt>
      <trkpt lat="45.70247" lon="4.56329">
        <ele>859.8</ele>
        <time>2025-03-02T10:33:54Z</time>
      </trkpt>
      <trkpt lat="45.70245" lon="4.56331">
        <ele>860.2</ele>
        <time>2025-03-02T10:33:55Z</time>
      </trkpt>
      <trkpt lat="45.70242" lon="4.56333">
        <ele>860.6</ele>
        <time>2025-03-02T10:33:56Z</time>
      </trkpt>
      <trkpt lat="45.7024" lon="4.56335">
        <ele>861</ele>
        <time>2025-03-02T10:33:57Z</time>
      </trkpt>
      <trkpt lat="45.70238" lon="4.56337">
        <ele>861.2</ele>
        <time>2025-03-02T10:33:58Z</time>
      </trkpt>
      <trkpt lat="45.70236" lon="4.56338">
        <ele>861.8</ele>
        <time>2025-03-02T10:33:59Z</time>
      </trkpt>
      <trkpt lat="45.70234" lon="4.56339">
        <ele>862.2</ele>
        <time>2025-03-02T10:34:00Z</time>
      </trkpt>
      <trkpt lat="45.70232" lon="4.5634">
        <ele>862.6</ele>
        <time>2025-03-02T10:34:01Z</time>
      </trkpt>
      <trkpt lat="45.7023" lon="4.56341">
        <ele>863.2</ele>
        <time>2025-03-02T10:34:02Z</time>
      </trkpt>
      <trkpt lat="45.70228" lon="4.56343">
        <ele>863.4</ele>
        <time>2025-03-02T10:34:03Z</time>
      </trkpt>
      <trkpt lat="45.70225" lon="4.56345">
        <ele>863.8</ele>
        <time>2025-03-02T10:34:04Z</time>
      </trkpt>
      <trkpt lat="45.70223" lon="4.56347">
        <ele>864.4</ele>
        <time>2025-03-02T10:34:05Z</time>
      </trkpt>
      <trkpt lat="45.7022" lon="4.56349">
        <ele>864.6</ele>
        <time>2025-03-02T10:34:06Z</time>
      </trkpt>
      <trkpt lat="45.70218" lon="4.56351">
        <ele>865</ele>
        <time>2025-03-02T10:34:07Z</time>
      </trkpt>
      <trkpt lat="45.70216" lon="4.56353">
        <ele>865.4</ele>
        <time>2025-03-02T10:34:08Z</time>
      </trkpt>
      <trkpt lat="45.70214" lon="4.56356">
        <ele>865.6</ele>
        <time>2025-03-02T10:34:09Z</time>
      </trkpt>
      <trkpt lat="45.70212" lon="4.56358">
        <ele>866</ele>
        <time>2025-03-02T10:34:10Z</time>
      </trkpt>
      <trkpt lat="45.7021" lon="4.5636">
        <ele>866.4</ele>
        <time>2025-03-02T10:34:11Z</time>
      </trkpt>
      <trkpt lat="45.70208" lon="4.56362">
        <ele>866.8</ele>
        <time>2025-03-02T10:34:12Z</time>
      </trkpt>
      <trkpt lat="45.70207" lon="4.56363">
        <ele>867.2</ele>
        <time>2025-03-02T10:34:13Z</time>
      </trkpt>
      <trkpt lat="45.70205" lon="4.56365">
        <ele>867.4</ele>
        <time>2025-03-02T10:34:14Z</time>
      </trkpt>
      <trkpt lat="45.70203" lon="4.56367">
        <ele>867.6</ele>
        <time>2025-03-02T10:34:15Z</time>
      </trkpt>
      <trkpt lat="45.702" lon="4.56369">
        <ele>868</ele>
        <time>2025-03-02T10:34:16Z</time>
      </trkpt>
      <trkpt lat="45.70197" lon="4.56372">
        <ele>868.2</ele>
        <time>2025-03-02T10:34:17Z</time>
      </trkpt>
      <trkpt lat="45.70195" lon="4.56375">
        <ele>868.4</ele>
        <time>2025-03-02T10:34:18Z</time>
      </trkpt>
      <trkpt lat="45.70193" lon="4.56377">
        <ele>868.4</ele>
        <time>2025-03-02T10:34:19Z</time>
      </trkpt>
      <trkpt lat="45.7019" lon="4.56379">
        <ele>868.8</ele>
        <time>2025-03-02T10:34:20Z</time>
      </trkpt>
      <trkpt lat="45.70188" lon="4.5638">
        <ele>869</ele>
        <time>2025-03-02T10:34:21Z</time>
      </trkpt>
      <trkpt lat="45.70186" lon="4.5638">
        <ele>869.2</ele>
        <time>2025-03-02T10:34:22Z</time>
      </trkpt>
      <trkpt lat="45.70184" lon="4.56382">
        <ele>869.6</ele>
        <time>2025-03-02T10:34:23Z</time>
      </trkpt>
      <trkpt lat="45.70181" lon="4.56383">
        <ele>869.8</ele>
        <time>2025-03-02T10:34:24Z</time>
      </trkpt>
      <trkpt lat="45.70179" lon="4.56385">
        <ele>869.8</ele>
        <time>2025-03-02T10:34:25Z</time>
      </trkpt>
      <trkpt lat="45.70176" lon="4.56386">
        <ele>870</ele>
        <time>2025-03-02T10:34:26Z</time>
      </trkpt>
      <trkpt lat="45.70175" lon="4.56388">
        <ele>870.4</ele>
        <time>2025-03-02T10:34:27Z</time>
      </trkpt>
      <trkpt lat="45.70173" lon="4.5639">
        <ele>870.4</ele>
        <time>2025-03-02T10:34:28Z</time>
      </trkpt>
      <trkpt lat="45.70172" lon="4.56392">
        <ele>870.8</ele>
        <time>2025-03-02T10:34:29Z</time>
      </trkpt>
      <trkpt lat="45.70171" lon="4.56393">
        <ele>871.2</ele>
        <time>2025-03-02T10:34:30Z</time>
      </trkpt>
      <trkpt lat="45.7017" lon="4.56396">
        <ele>871.2</ele>
        <time>2025-03-02T10:34:31Z</time>
      </trkpt>
      <trkpt lat="45.70168" lon="4.564">
        <ele>871.6</ele>
        <time>2025-03-02T10:34:32Z</time>
      </trkpt>
      <trkpt lat="45.70166" lon="4.56403">
        <ele>871.8</ele>
        <time>2025-03-02T10:34:33Z</time>
      </trkpt>
      <trkpt lat="45.70165" lon="4.56407">
        <ele>871.8</ele>
        <time>2025-03-02T10:34:34Z</time>
      </trkpt>
      <trkpt lat="45.70163" lon="4.5641">
        <ele>872</ele>
        <time>2025-03-02T10:34:35Z</time>
      </trkpt>
      <trkpt lat="45.70161" lon="4.56413">
        <ele>872.4</ele>
        <time>2025-03-02T10:34:36Z</time>
      </trkpt>
      <trkpt lat="45.7016" lon="4.56416">
        <ele>872.8</ele>
        <time>2025-03-02T10:34:37Z</time>
      </trkpt>
      <trkpt lat="45.70158" lon="4.56421">
        <ele>873.2</ele>
        <time>2025-03-02T10:34:38Z</time>
      </trkpt>
      <trkpt lat="45.70156" lon="4.56425">
        <ele>873.4</ele>
        <time>2025-03-02T10:34:39Z</time>
      </trkpt>
      <trkpt lat="45.70156" lon="4.56429">
        <ele>873.8</ele>
        <time>2025-03-02T10:34:40Z</time>
      </trkpt>
      <trkpt lat="45.70155" lon="4.56433">
        <ele>874.2</ele>
        <time>2025-03-02T10:34:41Z</time>
      </trkpt>
      <trkpt lat="45.70154" lon="4.56438">
        <ele>874.4</ele>
        <time>2025-03-02T10:34:42Z</time>
      </trkpt>
      <trkpt lat="45.70153" lon="4.56442">
        <ele>874.8</ele>
        <time>2025-03-02T10:34:43Z</time>
      </trkpt>
      <trkpt lat="45.70152" lon="4.56446">
        <ele>875</ele>
        <time>2025-03-02T10:34:44Z</time>
      </trkpt>
      <trkpt lat="45.70152" lon="4.56449">
        <ele>875.2</ele>
        <time>2025-03-02T10:34:45Z</time>
      </trkpt>
      <trkpt lat="45.70151" lon="4.56452">
        <ele>875.4</ele>
        <time>2025-03-02T10:34:46Z</time>
      </trkpt>
      <trkpt lat="45.7015" lon="4.56456">
        <ele>875.6</ele>
        <time>2025-03-02T10:34:47Z</time>
      </trkpt>
      <trkpt lat="45.7015" lon="4.56459">
        <ele>875.6</ele>
        <time>2025-03-02T10:34:48Z</time>
      </trkpt>
      <trkpt lat="45.70149" lon="4.56463">
        <ele>875.6</ele>
        <time>2025-03-02T10:34:49Z</time>
      </trkpt>
      <trkpt lat="45.70149" lon="4.56467">
        <ele>875.6</ele>
        <time>2025-03-02T10:34:50Z</time>
      </trkpt>
      <trkpt lat="45.70148" lon="4.56471">
        <ele>875.6</ele>
        <time>2025-03-02T10:34:51Z</time>
      </trkpt>
      <trkpt lat="45.70147" lon="4.56476">
        <ele>875.2</ele>
        <time>2025-03-02T10:34:52Z</time>
      </trkpt>
      <trkpt lat="45.70146" lon="4.56481">
        <ele>875</ele>
        <time>2025-03-02T10:34:53Z</time>
      </trkpt>
      <trkpt lat="45.70146" lon="4.56484">
        <ele>874.6</ele>
        <time>2025-03-02T10:34:54Z</time>
      </trkpt>
      <trkpt lat="45.70146" lon="4.56488">
        <ele>874.4</ele>
        <time>2025-03-02T10:34:55Z</time>
      </trkpt>
      <trkpt lat="45.70147" lon="4.56493">
        <ele>874.2</ele>
        <time>2025-03-02T10:34:56Z</time>
      </trkpt>
      <trkpt lat="45.70147" lon="4.56498">
        <ele>873.8</ele>
        <time>2025-03-02T10:34:57Z</time>
      </trkpt>
      <trkpt lat="45.70147" lon="4.56502">
        <ele>873.4</ele>
        <time>2025-03-02T10:34:58Z</time>
      </trkpt>
      <trkpt lat="45.70147" lon="4.56506">
        <ele>873</ele>
        <time>2025-03-02T10:34:59Z</time>
      </trkpt>
      <trkpt lat="45.70147" lon="4.56511">
        <ele>872.6</ele>
        <time>2025-03-02T10:35:00Z</time>
      </trkpt>
      <trkpt lat="45.70148" lon="4.56515">
        <ele>872</ele>
        <time>2025-03-02T10:35:01Z</time>
      </trkpt>
      <trkpt lat="45.70148" lon="4.56521">
        <ele>871.4</ele>
        <time>2025-03-02T10:35:02Z</time>
      </trkpt>
      <trkpt lat="45.70149" lon="4.56526">
        <ele>871</ele>
        <time>2025-03-02T10:35:03Z</time>
      </trkpt>
      <trkpt lat="45.7015" lon="4.5653">
        <ele>870.4</ele>
        <time>2025-03-02T10:35:04Z</time>
      </trkpt>
      <trkpt lat="45.70151" lon="4.56534">
        <ele>869.8</ele>
        <time>2025-03-02T10:35:05Z</time>
      </trkpt>
      <trkpt lat="45.70153" lon="4.5654">
        <ele>869.2</ele>
        <time>2025-03-02T10:35:06Z</time>
      </trkpt>
      <trkpt lat="45.70155" lon="4.56545">
        <ele>868.4</ele>
        <time>2025-03-02T10:35:07Z</time>
      </trkpt>
      <trkpt lat="45.70157" lon="4.5655">
        <ele>867.6</ele>
        <time>2025-03-02T10:35:08Z</time>
      </trkpt>
      <trkpt lat="45.70159" lon="4.56555">
        <ele>866.4</ele>
        <time>2025-03-02T10:35:09Z</time>
      </trkpt>
      <trkpt lat="45.70162" lon="4.56562">
        <ele>865.8</ele>
        <time>2025-03-02T10:35:10Z</time>
      </trkpt>
      <trkpt lat="45.70164" lon="4.56569">
        <ele>864.4</ele>
        <time>2025-03-02T10:35:11Z</time>
      </trkpt>
      <trkpt lat="45.70166" lon="4.56576">
        <ele>863.8</ele>
        <time>2025-03-02T10:35:12Z</time>
      </trkpt>
      <trkpt lat="45.70169" lon="4.56585">
        <ele>862.2</ele>
        <time>2025-03-02T10:35:13Z</time>
      </trkpt>
      <trkpt lat="45.70173" lon="4.56592">
        <ele>861.6</ele>
        <time>2025-03-02T10:35:14Z</time>
      </trkpt>
      <trkpt lat="45.70176" lon="4.56598">
        <ele>860.4</ele>
        <time>2025-03-02T10:35:15Z</time>
      </trkpt>
      <trkpt lat="45.70178" lon="4.56603">
        <ele>859.8</ele>
        <time>2025-03-02T10:35:16Z</time>
      </trkpt>
      <trkpt lat="45.70181" lon="4.5661">
        <ele>858.8</ele>
        <time>2025-03-02T10:35:17Z</time>
      </trkpt>
      <trkpt lat="45.70183" lon="4.56615">
        <ele>858</ele>
        <time>2025-03-02T10:35:18Z</time>
      </trkpt>
      <trkpt lat="45.70186" lon="4.56621">
        <ele>857.4</ele>
        <time>2025-03-02T10:35:19Z</time>
      </trkpt>
      <trkpt lat="45.70188" lon="4.56626">
        <ele>857</ele>
        <time>2025-03-02T10:35:20Z</time>
      </trkpt>
      <trkpt lat="45.70191" lon="4.5663">
        <ele>856.6</ele>
        <time>2025-03-02T10:35:21Z</time>
      </trkpt>
      <trkpt lat="45.70194" lon="4.56633">
        <ele>856.4</ele>
        <time>2025-03-02T10:35:22Z</time>
      </trkpt>
      <trkpt lat="45.70198" lon="4.56637">
        <ele>855.8</ele>
        <time>2025-03-02T10:35:23Z</time>
      </trkpt>
      <trkpt lat="45.70202" lon="4.56643">
        <ele>855.4</ele>
        <time>2025-03-02T10:35:24Z</time>
      </trkpt>
      <trkpt lat="45.70206" lon="4.56647">
        <ele>854.4</ele>
        <time>2025-03-02T10:35:25Z</time>
      </trkpt>
      <trkpt lat="45.7021" lon="4.5665">
        <ele>853.4</ele>
        <time>2025-03-02T10:35:26Z</time>
      </trkpt>
      <trkpt lat="45.70213" lon="4.56652">
        <ele>852.6</ele>
        <time>2025-03-02T10:35:27Z</time>
      </trkpt>
      <trkpt lat="45.70217" lon="4.56654">
        <ele>852</ele>
        <time>2025-03-02T10:35:28Z</time>
      </trkpt>
      <trkpt lat="45.70223" lon="4.56656">
        <ele>851.6</ele>
        <time>2025-03-02T10:35:29Z</time>
      </trkpt>
      <trkpt lat="45.70229" lon="4.56659">
        <ele>851</ele>
        <time>2025-03-02T10:35:30Z</time>
      </trkpt>
      <trkpt lat="45.70234" lon="4.56661">
        <ele>850</ele>
        <time>2025-03-02T10:35:31Z</time>
      </trkpt>
      <trkpt lat="45.7024" lon="4.56664">
        <ele>849.2</ele>
        <time>2025-03-02T10:35:32Z</time>
      </trkpt>
      <trkpt lat="45.70245" lon="4.56668">
        <ele>848.4</ele>
        <time>2025-03-02T10:35:33Z</time>
      </trkpt>
      <trkpt lat="45.70251" lon="4.56673">
        <ele>847.6</ele>
        <time>2025-03-02T10:35:34Z</time>
      </trkpt>
      <trkpt lat="45.70256" lon="4.56677">
        <ele>846.8</ele>
        <time>2025-03-02T10:35:35Z</time>
      </trkpt>
      <trkpt lat="45.70261" lon="4.56683">
        <ele>845.8</ele>
        <time>2025-03-02T10:35:36Z</time>
      </trkpt>
      <trkpt lat="45.70267" lon="4.56689">
        <ele>845.4</ele>
        <time>2025-03-02T10:35:37Z</time>
      </trkpt>
      <trkpt lat="45.70272" lon="4.56698">
        <ele>844.8</ele>
        <time>2025-03-02T10:35:38Z</time>
      </trkpt>
      <trkpt lat="45.70275" lon="4.56704">
        <ele>844.6</ele>
        <time>2025-03-02T10:35:39Z</time>
      </trkpt>
      <trkpt lat="45.70278" lon="4.56711">
        <ele>844.4</ele>
        <time>2025-03-02T10:35:40Z</time>
      </trkpt>
      <trkpt lat="45.7028" lon="4.56719">
        <ele>844.4</ele>
        <time>2025-03-02T10:35:41Z</time>
      </trkpt>
      <trkpt lat="45.70282" lon="4.56726">
        <ele>844.2</ele>
        <time>2025-03-02T10:35:42Z</time>
      </trkpt>
      <trkpt lat="45.70285" lon="4.56736">
        <ele>844</ele>
        <time>2025-03-02T10:35:43Z</time>
      </trkpt>
      <trkpt lat="45.70286" lon="4.56742">
        <ele>843.8</ele>
        <time>2025-03-02T10:35:44Z</time>
      </trkpt>
      <trkpt lat="45.70289" lon="4.56752">
        <ele>843.4</ele>
        <time>2025-03-02T10:35:45Z</time>
      </trkpt>
      <trkpt lat="45.70291" lon="4.56759">
        <ele>843</ele>
        <time>2025-03-02T10:35:46Z</time>
      </trkpt>
      <trkpt lat="45.70294" lon="4.56768">
        <ele>842.6</ele>
        <time>2025-03-02T10:35:47Z</time>
      </trkpt>
      <trkpt lat="45.70297" lon="4.56775">
        <ele>842</ele>
        <time>2025-03-02T10:35:48Z</time>
      </trkpt>
      <trkpt lat="45.70302" lon="4.56783">
        <ele>841.8</ele>
        <time>2025-03-02T10:35:49Z</time>
      </trkpt>
      <trkpt lat="45.70306" lon="4.5679">
        <ele>841.4</ele>
        <time>2025-03-02T10:35:50Z</time>
      </trkpt>
      <trkpt lat="45.70309" lon="4.56798">
        <ele>841</ele>
        <time>2025-03-02T10:35:51Z</time>
      </trkpt>
      <trkpt lat="45.70312" lon="4.56804">
        <ele>840.6</ele>
        <time>2025-03-02T10:35:52Z</time>
      </trkpt>
      <trkpt lat="45.70315" lon="4.56813">
        <ele>839.6</ele>
        <time>2025-03-02T10:35:53Z</time>
      </trkpt>
      <trkpt lat="45.70317" lon="4.56821">
        <ele>839.2</ele>
        <time>2025-03-02T10:35:54Z</time>
      </trkpt>
      <trkpt lat="45.70319" lon="4.56828">
        <ele>839.2</ele>
        <time>2025-03-02T10:35:55Z</time>
      </trkpt>
      <trkpt lat="45.7032" lon="4.56835">
        <ele>839.2</ele>
        <time>2025-03-02T10:35:56Z</time>
      </trkpt>
      <trkpt lat="45.70321" lon="4.56842">
        <ele>839.2</ele>
        <time>2025-03-02T10:35:57Z</time>
      </trkpt>
      <trkpt lat="45.70322" lon="4.56849">
        <ele>839.2</ele>
        <time>2025-03-02T10:35:58Z</time>
      </trkpt>
      <trkpt lat="45.70323" lon="4.56855">
        <ele>839.4</ele>
        <time>2025-03-02T10:35:59Z</time>
      </trkpt>
      <trkpt lat="45.70323" lon="4.56861">
        <ele>839.6</ele>
        <time>2025-03-02T10:36:00Z</time>
      </trkpt>
      <trkpt lat="45.70324" lon="4.56865">
        <ele>839.6</ele>
        <time>2025-03-02T10:36:01Z</time>
      </trkpt>
      <trkpt lat="45.70325" lon="4.56871">
        <ele>839.6</ele>
        <time>2025-03-02T10:36:02Z</time>
      </trkpt>
      <trkpt lat="45.70325" lon="4.56876">
        <ele>839.8</ele>
        <time>2025-03-02T10:36:03Z</time>
      </trkpt>
      <trkpt lat="45.70326" lon="4.56883">
        <ele>839.8</ele>
        <time>2025-03-02T10:36:04Z</time>
      </trkpt>
      <trkpt lat="45.70327" lon="4.56887">
        <ele>839.8</ele>
        <time>2025-03-02T10:36:05Z</time>
      </trkpt>
      <trkpt lat="45.70328" lon="4.56893">
        <ele>839.8</ele>
        <time>2025-03-02T10:36:06Z</time>
      </trkpt>
      <trkpt lat="45.70329" lon="4.56899">
        <ele>839.8</ele>
        <time>2025-03-02T10:36:07Z</time>
      </trkpt>
      <trkpt lat="45.70331" lon="4.56905">
        <ele>839.8</ele>
        <time>2025-03-02T10:36:08Z</time>
      </trkpt>
      <trkpt lat="45.70332" lon="4.56912">
        <ele>839.6</ele>
        <time>2025-03-02T10:36:09Z</time>
      </trkpt>
      <trkpt lat="45.70334" lon="4.5692">
        <ele>839.4</ele>
        <time>2025-03-02T10:36:10Z</time>
      </trkpt>
      <trkpt lat="45.70335" lon="4.56927">
        <ele>838.8</ele>
        <time>2025-03-02T10:36:11Z</time>
      </trkpt>
      <trkpt lat="45.70336" lon="4.56934">
        <ele>838</ele>
        <time>2025-03-02T10:36:12Z</time>
      </trkpt>
      <trkpt lat="45.70338" lon="4.56941">
        <ele>837.6</ele>
        <time>2025-03-02T10:36:13Z</time>
      </trkpt>
      <trkpt lat="45.70339" lon="4.56949">
        <ele>836.8</ele>
        <time>2025-03-02T10:36:14Z</time>
      </trkpt>
      <trkpt lat="45.7034" lon="4.56958">
        <ele>835.6</ele>
        <time>2025-03-02T10:36:15Z</time>
      </trkpt>
      <trkpt lat="45.70342" lon="4.56967">
        <ele>835.4</ele>
        <time>2025-03-02T10:36:16Z</time>
      </trkpt>
      <trkpt lat="45.70344" lon="4.56976">
        <ele>834.8</ele>
        <time>2025-03-02T10:36:17Z</time>
      </trkpt>
      <trkpt lat="45.70345" lon="4.56984">
        <ele>833.6</ele>
        <time>2025-03-02T10:36:18Z</time>
      </trkpt>
      <trkpt lat="45.70345" lon="4.56994">
        <ele>833</ele>
        <time>2025-03-02T10:36:19Z</time>
      </trkpt>
      <trkpt lat="45.70346" lon="4.57002">
        <ele>832.2</ele>
        <time>2025-03-02T10:36:20Z</time>
      </trkpt>
      <trkpt lat="45.70348" lon="4.57011">
        <ele>831.8</ele>
        <time>2025-03-02T10:36:21Z</time>
      </trkpt>
      <trkpt lat="45.7035" lon="4.5702">
        <ele>830.8</ele>
        <time>2025-03-02T10:36:22Z</time>
      </trkpt>
      <trkpt lat="45.70351" lon="4.57029">
        <ele>829.8</ele>
        <time>2025-03-02T10:36:23Z</time>
      </trkpt>
      <trkpt lat="45.70352" lon="4.57039">
        <ele>829.2</ele>
        <time>2025-03-02T10:36:24Z</time>
      </trkpt>
      <trkpt lat="45.70353" lon="4.57049">
        <ele>828.6</ele>
        <time>2025-03-02T10:36:25Z</time>
      </trkpt>
      <trkpt lat="45.70354" lon="4.57059">
        <ele>827.8</ele>
        <time>2025-03-02T10:36:26Z</time>
      </trkpt>
      <trkpt lat="45.70356" lon="4.5707">
        <ele>827.4</ele>
        <time>2025-03-02T10:36:27Z</time>
      </trkpt>
      <trkpt lat="45.70357" lon="4.57078">
        <ele>826.6</ele>
        <time>2025-03-02T10:36:28Z</time>
      </trkpt>
      <trkpt lat="45.70358" lon="4.57086">
        <ele>825.6</ele>
        <time>2025-03-02T10:36:29Z</time>
      </trkpt>
      <trkpt lat="45.70359" lon="4.57095">
        <ele>825.4</ele>
        <time>2025-03-02T10:36:30Z</time>
      </trkpt>
      <trkpt lat="45.70361" lon="4.57103">
        <ele>825</ele>
        <time>2025-03-02T10:36:31Z</time>
      </trkpt>
      <trkpt lat="45.70363" lon="4.57111">
        <ele>824.8</ele>
        <time>2025-03-02T10:36:32Z</time>
      </trkpt>
      <trkpt lat="45.70365" lon="4.57119">
        <ele>824.4</ele>
        <time>2025-03-02T10:36:33Z</time>
      </trkpt>
      <trkpt lat="45.70366" lon="4.57126">
        <ele>824</ele>
        <time>2025-03-02T10:36:34Z</time>
      </trkpt>
      <trkpt lat="45.70366" lon="4.57137">
        <ele>823.8</ele>
        <time>2025-03-02T10:36:35Z</time>
      </trkpt>
      <trkpt lat="45.70367" lon="4.57144">
        <ele>822.4</ele>
        <time>2025-03-02T10:36:36Z</time>
      </trkpt>
      <trkpt lat="45.70368" lon="4.57153">
        <ele>822</ele>
        <time>2025-03-02T10:36:37Z</time>
      </trkpt>
      <trkpt lat="45.70369" lon="4.5716">
        <ele>821.8</ele>
        <time>2025-03-02T10:36:38Z</time>
      </trkpt>
      <trkpt lat="45.7037" lon="4.57167">
        <ele>821.2</ele>
        <time>2025-03-02T10:36:39Z</time>
      </trkpt>
      <trkpt lat="45.70371" lon="4.57175">
        <ele>820.6</ele>
        <time>2025-03-02T10:36:40Z</time>
      </trkpt>
      <trkpt lat="45.70372" lon="4.57185">
        <ele>819.8</ele>
        <time>2025-03-02T10:36:41Z</time>
      </trkpt>
      <trkpt lat="45.70373" lon="4.57193">
        <ele>819</ele>
        <time>2025-03-02T10:36:42Z</time>
      </trkpt>
      <trkpt lat="45.70373" lon="4.57201">
        <ele>818.4</ele>
        <time>2025-03-02T10:36:43Z</time>
      </trkpt>
      <trkpt lat="45.70372" lon="4.57211">
        <ele>817.6</ele>
        <time>2025-03-02T10:36:44Z</time>
      </trkpt>
      <trkpt lat="45.70372" lon="4.5722">
        <ele>816.2</ele>
        <time>2025-03-02T10:36:45Z</time>
      </trkpt>
      <trkpt lat="45.70371" lon="4.5723">
        <ele>815.6</ele>
        <time>2025-03-02T10:36:46Z</time>
      </trkpt>
      <trkpt lat="45.7037" lon="4.57241">
        <ele>814.8</ele>
        <time>2025-03-02T10:36:47Z</time>
      </trkpt>
      <trkpt lat="45.7037" lon="4.57252">
        <ele>814</ele>
        <time>2025-03-02T10:36:48Z</time>
      </trkpt>
      <trkpt lat="45.7037" lon="4.57262">
        <ele>813.4</ele>
        <time>2025-03-02T10:36:49Z</time>
      </trkpt>
      <trkpt lat="45.7037" lon="4.57273">
        <ele>812.4</ele>
        <time>2025-03-02T10:36:50Z</time>
      </trkpt>
      <trkpt lat="45.7037" lon="4.57285">
        <ele>811</ele>
        <time>2025-03-02T10:36:51Z</time>
      </trkpt>
      <trkpt lat="45.7037" lon="4.57297">
        <ele>810.4</ele>
        <time>2025-03-02T10:36:52Z</time>
      </trkpt>
      <trkpt lat="45.7037" lon="4.57308">
        <ele>810</ele>
        <time>2025-03-02T10:36:53Z</time>
      </trkpt>
      <trkpt lat="45.70369" lon="4.5732">
        <ele>809.2</ele>
        <time>2025-03-02T10:36:54Z</time>
      </trkpt>
      <trkpt lat="45.70368" lon="4.57332">
        <ele>808.4</ele>
        <time>2025-03-02T10:36:55Z</time>
      </trkpt>
      <trkpt lat="45.70367" lon="4.57344">
        <ele>807.8</ele>
        <time>2025-03-02T10:36:56Z</time>
      </trkpt>
      <trkpt lat="45.70365" lon="4.57355">
        <ele>807.4</ele>
        <time>2025-03-02T10:36:57Z</time>
      </trkpt>
      <trkpt lat="45.70364" lon="4.57367">
        <ele>806.8</ele>
        <time>2025-03-02T10:36:58Z</time>
      </trkpt>
      <trkpt lat="45.70363" lon="4.57379">
        <ele>806.4</ele>
        <time>2025-03-02T10:36:59Z</time>
      </trkpt>
      <trkpt lat="45.70363" lon="4.57392">
        <ele>805</ele>
        <time>2025-03-02T10:37:00Z</time>
      </trkpt>
      <trkpt lat="45.70363" lon="4.57404">
        <ele>804.8</ele>
        <time>2025-03-02T10:37:01Z</time>
      </trkpt>
      <trkpt lat="45.70362" lon="4.57415">
        <ele>804</ele>
        <time>2025-03-02T10:37:02Z</time>
      </trkpt>
      <trkpt lat="45.70362" lon="4.57427">
        <ele>803.6</ele>
        <time>2025-03-02T10:37:03Z</time>
      </trkpt>
      <trkpt lat="45.70363" lon="4.57439">
        <ele>802.8</ele>
        <time>2025-03-02T10:37:04Z</time>
      </trkpt>
      <trkpt lat="45.70366" lon="4.57454">
        <ele>801.8</ele>
        <time>2025-03-02T10:37:05Z</time>
      </trkpt>
      <trkpt lat="45.70369" lon="4.57465">
        <ele>801.2</ele>
        <time>2025-03-02T10:37:06Z</time>
      </trkpt>
      <trkpt lat="45.70371" lon="4.57475">
        <ele>800.4</ele>
        <time>2025-03-02T10:37:07Z</time>
      </trkpt>
      <trkpt lat="45.70373" lon="4.57483">
        <ele>800</ele>
        <time>2025-03-02T10:37:08Z</time>
      </trkpt>
      <trkpt lat="45.70375" lon="4.57491">
        <ele>799.6</ele>
        <time>2025-03-02T10:37:09Z</time>
      </trkpt>
      <trkpt lat="45.70377" lon="4.57498">
        <ele>799.2</ele>
        <time>2025-03-02T10:37:10Z</time>
      </trkpt>
      <trkpt lat="45.70378" lon="4.57505">
        <ele>798.8</ele>
        <time>2025-03-02T10:37:11Z</time>
      </trkpt>
      <trkpt lat="45.7038" lon="4.57512">
        <ele>798.4</ele>
        <time>2025-03-02T10:37:12Z</time>
      </trkpt>
      <trkpt lat="45.70382" lon="4.57519">
        <ele>798</ele>
        <time>2025-03-02T10:37:13Z</time>
      </trkpt>
      <trkpt lat="45.70384" lon="4.57527">
        <ele>797</ele>
        <time>2025-03-02T10:37:14Z</time>
      </trkpt>
      <trkpt lat="45.70385" lon="4.57535">
        <ele>796.8</ele>
        <time>2025-03-02T10:37:15Z</time>
      </trkpt>
      <trkpt lat="45.70387" lon="4.57542">
        <ele>795.6</ele>
        <time>2025-03-02T10:37:16Z</time>
      </trkpt>
      <trkpt lat="45.70388" lon="4.57548">
        <ele>795.4</ele>
        <time>2025-03-02T10:37:17Z</time>
      </trkpt>
      <trkpt lat="45.7039" lon="4.57556">
        <ele>794.8</ele>
        <time>2025-03-02T10:37:18Z</time>
      </trkpt>
      <trkpt lat="45.70392" lon="4.57564">
        <ele>794.4</ele>
        <time>2025-03-02T10:37:19Z</time>
      </trkpt>
      <trkpt lat="45.70395" lon="4.57572">
        <ele>793.6</ele>
        <time>2025-03-02T10:37:20Z</time>
      </trkpt>
      <trkpt lat="45.70397" lon="4.5758">
        <ele>792.6</ele>
        <time>2025-03-02T10:37:21Z</time>
      </trkpt>
      <trkpt lat="45.70399" lon="4.57586">
        <ele>792.6</ele>
        <time>2025-03-02T10:37:22Z</time>
      </trkpt>
      <trkpt lat="45.70401" lon="4.57591">
        <ele>791.8</ele>
        <time>2025-03-02T10:37:23Z</time>
      </trkpt>
      <trkpt lat="45.70403" lon="4.57596">
        <ele>791.8</ele>
        <time>2025-03-02T10:37:24Z</time>
      </trkpt>
      <trkpt lat="45.70407" lon="4.57601">
        <ele>791.2</ele>
        <time>2025-03-02T10:37:25Z</time>
      </trkpt>
      <trkpt lat="45.7041" lon="4.57606">
        <ele>790.8</ele>
        <time>2025-03-02T10:37:26Z</time>
      </trkpt>
      <trkpt lat="45.70414" lon="4.57611">
        <ele>789.6</ele>
        <time>2025-03-02T10:37:27Z</time>
      </trkpt>
      <trkpt lat="45.70419" lon="4.57616">
        <ele>789</ele>
        <time>2025-03-02T10:37:28Z</time>
      </trkpt>
      <trkpt lat="45.70423" lon="4.57621">
        <ele>788.6</ele>
        <time>2025-03-02T10:37:29Z</time>
      </trkpt>
      <trkpt lat="45.70428" lon="4.57625">
        <ele>787.4</ele>
        <time>2025-03-02T10:37:30Z</time>
      </trkpt>
      <trkpt lat="45.70432" lon="4.57631">
        <ele>787</ele>
        <time>2025-03-02T10:37:31Z</time>
      </trkpt>
      <trkpt lat="45.70437" lon="4.57637">
        <ele>785.6</ele>
        <time>2025-03-02T10:37:32Z</time>
      </trkpt>
      <trkpt lat="45.70441" lon="4.57643">
        <ele>783.8</ele>
        <time>2025-03-02T10:37:33Z</time>
      </trkpt>
      <trkpt lat="45.70445" lon="4.5765">
        <ele>783</ele>
        <time>2025-03-02T10:37:34Z</time>
      </trkpt>
      <trkpt lat="45.70449" lon="4.57658">
        <ele>782</ele>
        <time>2025-03-02T10:37:35Z</time>
      </trkpt>
      <trkpt lat="45.70454" lon="4.57667">
        <ele>781</ele>
        <time>2025-03-02T10:37:36Z</time>
      </trkpt>
      <trkpt lat="45.70458" lon="4.57675">
        <ele>780</ele>
        <time>2025-03-02T10:37:37Z</time>
      </trkpt>
      <trkpt lat="45.70461" lon="4.57684">
        <ele>778.8</ele>
        <time>2025-03-02T10:37:38Z</time>
      </trkpt>
      <trkpt lat="45.70465" lon="4.57692">
        <ele>778.2</ele>
        <time>2025-03-02T10:37:39Z</time>
      </trkpt>
      <trkpt lat="45.70469" lon="4.57698">
        <ele>776.8</ele>
        <time>2025-03-02T10:37:40Z</time>
      </trkpt>
      <trkpt lat="45.70472" lon="4.57704">
        <ele>776.4</ele>
        <time>2025-03-02T10:37:41Z</time>
      </trkpt>
      <trkpt lat="45.70475" lon="4.57709">
        <ele>776</ele>
        <time>2025-03-02T10:37:42Z</time>
      </trkpt>
      <trkpt lat="45.70476" lon="4.57712">
        <ele>776</ele>
        <time>2025-03-02T10:37:43Z</time>
      </trkpt>
      <trkpt lat="45.70476" lon="4.57713">
        <ele>776</ele>
        <time>2025-03-02T10:37:44Z</time>
      </trkpt>
      <trkpt lat="45.70476" lon="4.57713">
        <ele>776</ele>
        <time>2025-03-02T10:37:45Z</time>
      </trkpt>
      <trkpt lat="45.70476" lon="4.57713">
        <ele>776.2</ele>
        <time>2025-03-02T10:37:46Z</time>
      </trkpt>
      <trkpt lat="45.70476" lon="4.57713">
        <ele>776.4</ele>
        <time>2025-03-02T10:37:47Z</time>
      </trkpt>
      <trkpt lat="45.70476" lon="4.57713">
        <ele>776.6</ele>
        <time>2025-03-02T10:37:48Z</time>
      </trkpt>
      <trkpt lat="45.70476" lon="4.57713">
        <ele>776.6</ele>
        <time>2025-03-02T10:37:49Z</time>
      </trkpt>
      <trkpt lat="45.70476" lon="4.57713">
        <ele>776.6</ele>
        <time>2025-03-02T10:37:50Z</time>
      </trkpt>
      <trkpt lat="45.70476" lon="4.57713">
        <ele>776.6</ele>
        <time>2025-03-02T10:37:51Z</time>
      </trkpt>
      <trkpt lat="45.70476" lon="4.57713">
        <ele>776.6</ele>
        <time>2025-03-02T10:37:52Z</time>
      </trkpt>
      <trkpt lat="45.70476" lon="4.57713">
        <ele>776.6</ele>
        <time>2025-03-02T10:37:53Z</time>
      </trkpt>
      <trkpt lat="45.70476" lon="4.57713">
        <ele>776.6</ele>
        <time>2025-03-02T10:37:54Z</time>
      </trkpt>
      <trkpt lat="45.70476" lon="4.57713">
        <ele>776.6</ele>
        <time>2025-03-02T10:37:55Z</time>
      </trkpt>
      <trkpt lat="45.70476" lon="4.57713">
        <ele>776.6</ele>
        <time>2025-03-02T10:37:56Z</time>
      </trkpt>
      <trkpt lat="45.70476" lon="4.57713">
        <ele>776.6</ele>
        <time>2025-03-02T10:37:57Z</time>
      </trkpt>
      <trkpt lat="45.70476" lon="4.57713">
        <ele>776.6</ele>
        <time>2025-03-02T10:37:58Z</time>
      </trkpt>
      <trkpt lat="45.70476" lon="4.57713">
        <ele>776.6</ele>
        <time>2025-03-02T10:37:59Z</time>
      </trkpt>
      <trkpt lat="45.70476" lon="4.57713">
        <ele>776.6</ele>
        <time>2025-03-02T10:38:00Z</time>
      </trkpt>
      <trkpt lat="45.70476" lon="4.57713">
        <ele>776.6</ele>
        <time>2025-03-02T10:38:01Z</time>
      </trkpt>
      <trkpt lat="45.70476" lon="4.57713">
        <ele>776.6</ele>
        <time>2025-03-02T10:38:02Z</time>
      </trkpt>
      <trkpt lat="45.70476" lon="4.57713">
        <ele>776.6</ele>
        <time>2025-03-02T10:38:03Z</time>
      </trkpt>
      <trkpt lat="45.70476" lon="4.57713">
        <ele>776.6</ele>
        <time>2025-03-02T10:38:04Z</time>
      </trkpt>
      <trkpt lat="45.70476" lon="4.57713">
        <ele>776.6</ele>
        <time>2025-03-02T10:38:05Z</time>
      </trkpt>
      <trkpt lat="45.70476" lon="4.57713">
        <ele>776.6</ele>
        <time>2025-03-02T10:38:06Z</time>
      </trkpt>
      <trkpt lat="45.70476" lon="4.57713">
        <ele>776.6</ele>
        <time>2025-03-02T10:38:07Z</time>
      </trkpt>
      <trkpt lat="45.70476" lon="4.57713">
        <ele>776.6</ele>
        <time>2025-03-02T10:38:08Z</time>
      </trkpt>
      <trkpt lat="45.70476" lon="4.57713">
        <ele>776.6</ele>
        <time>2025-03-02T10:38:09Z</time>
      </trkpt>
      <trkpt lat="45.70476" lon="4.57713">
        <ele>776.6</ele>
        <time>2025-03-02T10:38:10Z</time>
      </trkpt>
      <trkpt lat="45.70476" lon="4.57713">
        <ele>776.6</ele>
        <time>2025-03-02T10:38:11Z</time>
      </trkpt>
      <trkpt lat="45.70476" lon="4.57713">
        <ele>776.6</ele>
        <time>2025-03-02T10:38:12Z</time>
      </trkpt>
      <trkpt lat="45.70476" lon="4.57713">
        <ele>776.6</ele>
        <time>2025-03-02T10:38:13Z</time>
      </trkpt>
      <trkpt lat="45.70476" lon="4.57713">
        <ele>776.6</ele>
        <time>2025-03-02T10:38:14Z</time>
      </trkpt>
      <trkpt lat="45.70476" lon="4.57713">
        <ele>776.6</ele>
        <time>2025-03-02T10:38:15Z</time>
      </trkpt>
      <trkpt lat="45.70476" lon="4.57713">
        <ele>776.6</ele>
        <time>2025-03-02T10:38:16Z</time>
      </trkpt>
      <trkpt lat="45.70476" lon="4.57713">
        <ele>776.6</ele>
        <time>2025-03-02T10:38:17Z</time>
      </trkpt>
      <trkpt lat="45.70476" lon="4.57713">
        <ele>776.6</ele>
        <time>2025-03-02T10:38:18Z</time>
      </trkpt>
      <trkpt lat="45.70476" lon="4.57713">
        <ele>776.6</ele>
        <time>2025-03-02T10:38:19Z</time>
      </trkpt>
      <trkpt lat="45.70476" lon="4.57713">
        <ele>776.6</ele>
        <time>2025-03-02T10:38:20Z</time>
      </trkpt>
      <trkpt lat="45.70476" lon="4.57713">
        <ele>776.6</ele>
        <time>2025-03-02T10:38:21Z</time>
      </trkpt>
      <trkpt lat="45.70476" lon="4.57713">
        <ele>776.6</ele>
        <time>2025-03-02T10:38:22Z</time>
      </trkpt>
      <trkpt lat="45.70476" lon="4.57713">
        <ele>776.6</ele>
        <time>2025-03-02T10:38:23Z</time>
      </trkpt>
      <trkpt lat="45.70476" lon="4.57713">
        <ele>776.6</ele>
        <time>2025-03-02T10:38:24Z</time>
      </trkpt>
      <trkpt lat="45.70476" lon="4.57713">
        <ele>776.6</ele>
        <time>2025-03-02T10:38:25Z</time>
      </trkpt>
      <trkpt lat="45.70476" lon="4.57713">
        <ele>776.6</ele>
        <time>2025-03-02T10:38:26Z</time>
      </trkpt>
      <trkpt lat="45.70476" lon="4.57713">
        <ele>776.6</ele>
        <time>2025-03-02T10:38:27Z</time>
      </trkpt>
      <trkpt lat="45.70476" lon="4.57713">
        <ele>776.6</ele>
        <time>2025-03-02T10:38:28Z</time>
      </trkpt>
      <trkpt lat="45.70476" lon="4.57713">
        <ele>776.6</ele>
        <time>2025-03-02T10:38:29Z</time>
      </trkpt>
      <trkpt lat="45.70476" lon="4.57713">
        <ele>776.6</ele>
        <time>2025-03-02T10:38:30Z</time>
      </trkpt>
      <trkpt lat="45.70476" lon="4.57713">
        <ele>776.6</ele>
        <time>2025-03-02T10:38:31Z</time>
      </trkpt>
      <trkpt lat="45.70476" lon="4.57713">
        <ele>776.4</ele>
        <time>2025-03-02T10:38:32Z</time>
      </trkpt>
      <trkpt lat="45.70476" lon="4.57713">
        <ele>776.4</ele>
        <time>2025-03-02T10:38:33Z</time>
      </trkpt>
      <trkpt lat="45.70476" lon="4.57713">
        <ele>776.4</ele>
        <time>2025-03-02T10:38:34Z</time>
      </trkpt>
      <trkpt lat="45.70476" lon="4.57713">
        <ele>776.4</ele>
        <time>2025-03-02T10:38:35Z</time>
      </trkpt>
      <trkpt lat="45.70476" lon="4.57713">
        <ele>776.4</ele>
        <time>2025-03-02T10:38:36Z</time>
      </trkpt>
      <trkpt lat="45.70476" lon="4.57713">
        <ele>776.4</ele>
        <time>2025-03-02T10:38:37Z</time>
      </trkpt>
      <trkpt lat="45.70476" lon="4.57713">
        <ele>776.4</ele>
        <time>2025-03-02T10:38:38Z</time>
      </trkpt>
      <trkpt lat="45.70476" lon="4.57713">
        <ele>776.4</ele>
        <time>2025-03-02T10:38:39Z</time>
      </trkpt>
      <trkpt lat="45.70476" lon="4.57713">
        <ele>776.4</ele>
        <time>2025-03-02T10:38:40Z</time>
      </trkpt>
      <trkpt lat="45.70476" lon="4.57713">
        <ele>776.4</ele>
        <time>2025-03-02T10:38:41Z</time>
      </trkpt>
      <trkpt lat="45.70476" lon="4.57713">
        <ele>776.4</ele>
        <time>2025-03-02T10:38:42Z</time>
      </trkpt>
      <trkpt lat="45.70476" lon="4.57713">
        <ele>776.4</ele>
        <time>2025-03-02T10:38:43Z</time>
      </trkpt>
      <trkpt lat="45.70476" lon="4.57713">
        <ele>776.4</ele>
        <time>2025-03-02T10:38:44Z</time>
      </trkpt>
      <trkpt lat="45.70476" lon="4.57713">
        <ele>776.4</ele>
        <time>2025-03-02T10:38:45Z</time>
      </trkpt>
      <trkpt lat="45.70476" lon="4.57713">
        <ele>776.4</ele>
        <time>2025-03-02T10:38:46Z</time>
      </trkpt>
      <trkpt lat="45.70476" lon="4.57713">
        <ele>776.4</ele>
        <time>2025-03-02T10:38:47Z</time>
      </trkpt>
      <trkpt lat="45.70476" lon="4.57713">
        <ele>776.4</ele>
        <time>2025-03-02T10:38:48Z</time>
      </trkpt>
      <trkpt lat="45.70476" lon="4.57713">
        <ele>776.4</ele>
        <time>2025-03-02T10:38:49Z</time>
      </trkpt>
      <trkpt lat="45.70476" lon="4.57713">
        <ele>776.4</ele>
        <time>2025-03-02T10:38:50Z</time>
      </trkpt>
      <trkpt lat="45.70476" lon="4.57713">
        <ele>776.4</ele>
        <time>2025-03-02T10:38:51Z</time>
      </trkpt>
      <trkpt lat="45.70476" lon="4.57713">
        <ele>776.4</ele>
        <time>2025-03-02T10:38:52Z</time>
      </trkpt>
      <trkpt lat="45.70476" lon="4.57713">
        <ele>776.4</ele>
        <time>2025-03-02T10:38:53Z</time>
      </trkpt>
      <trkpt lat="45.70476" lon="4.57713">
        <ele>776.4</ele>
        <time>2025-03-02T10:38:54Z</time>
      </trkpt>
      <trkpt lat="45.70476" lon="4.57713">
        <ele>776.4</ele>
        <time>2025-03-02T10:38:55Z</time>
      </trkpt>
      <trkpt lat="45.70476" lon="4.57713">
        <ele>776.4</ele>
        <time>2025-03-02T10:38:56Z</time>
      </trkpt>
      <trkpt lat="45.70476" lon="4.57713">
        <ele>776.4</ele>
        <time>2025-03-02T10:38:57Z</time>
      </trkpt>
      <trkpt lat="45.70476" lon="4.57713">
        <ele>776.4</ele>
        <time>2025-03-02T10:38:58Z</time>
      </trkpt>
      <trkpt lat="45.70476" lon="4.57713">
        <ele>776.4</ele>
        <time>2025-03-02T10:38:59Z</time>
      </trkpt>
      <trkpt lat="45.70476" lon="4.57713">
        <ele>776.4</ele>
        <time>2025-03-02T10:39:00Z</time>
      </trkpt>
      <trkpt lat="45.70476" lon="4.57713">
        <ele>776.4</ele>
        <time>2025-03-02T10:39:01Z</time>
      </trkpt>
      <trkpt lat="45.70476" lon="4.57713">
        <ele>776.4</ele>
        <time>2025-03-02T10:39:02Z</time>
      </trkpt>
      <trkpt lat="45.70476" lon="4.57713">
        <ele>776.4</ele>
        <time>2025-03-02T10:39:03Z</time>
      </trkpt>
      <trkpt lat="45.70476" lon="4.57713">
        <ele>776.4</ele>
        <time>2025-03-02T10:39:04Z</time>
      </trkpt>
      <trkpt lat="45.70476" lon="4.57713">
        <ele>776.4</ele>
        <time>2025-03-02T10:39:05Z</time>
      </trkpt>
      <trkpt lat="45.70476" lon="4.57713">
        <ele>776.4</ele>
        <time>2025-03-02T10:39:06Z</time>
      </trkpt>
      <trkpt lat="45.70476" lon="4.57713">
        <ele>776.4</ele>
        <time>2025-03-02T10:39:07Z</time>
      </trkpt>
      <trkpt lat="45.70476" lon="4.57713">
        <ele>776.4</ele>
        <time>2025-03-02T10:39:08Z</time>
      </trkpt>
      <trkpt lat="45.70476" lon="4.57713">
        <ele>776.4</ele>
        <time>2025-03-02T10:39:09Z</time>
      </trkpt>
      <trkpt lat="45.70476" lon="4.57713">
        <ele>776.4</ele>
        <time>2025-03-02T10:39:10Z</time>
      </trkpt>
      <trkpt lat="45.70476" lon="4.57713">
        <ele>776.4</ele>
        <time>2025-03-02T10:39:11Z</time>
      </trkpt>
      <trkpt lat="45.70476" lon="4.57713">
        <ele>776.4</ele>
        <time>2025-03-02T10:39:12Z</time>
      </trkpt>
      <trkpt lat="45.70476" lon="4.57713">
        <ele>776.4</ele>
        <time>2025-03-02T10:39:13Z</time>
      </trkpt>
      <trkpt lat="45.70476" lon="4.57713">
        <ele>776.4</ele>
        <time>2025-03-02T10:39:14Z</time>
      </trkpt>
      <trkpt lat="45.70476" lon="4.57713">
        <ele>776.4</ele>
        <time>2025-03-02T10:39:15Z</time>
      </trkpt>
      <trkpt lat="45.70476" lon="4.57713">
        <ele>776.4</ele>
        <time>2025-03-02T10:39:16Z</time>
      </trkpt>
      <trkpt lat="45.70476" lon="4.57713">
        <ele>776.4</ele>
        <time>2025-03-02T10:39:17Z</time>
      </trkpt>
      <trkpt lat="45.70476" lon="4.57713">
        <ele>776.4</ele>
        <time>2025-03-02T10:39:18Z</time>
      </trkpt>
      <trkpt lat="45.70476" lon="4.57713">
        <ele>776.4</ele>
        <time>2025-03-02T10:39:19Z</time>
      </trkpt>
      <trkpt lat="45.70476" lon="4.57713">
        <ele>776.4</ele>
        <time>2025-03-02T10:39:20Z</time>
      </trkpt>
      <trkpt lat="45.70476" lon="4.57713">
        <ele>776.4</ele>
        <time>2025-03-02T10:39:21Z</time>
      </trkpt>
      <trkpt lat="45.70476" lon="4.57713">
        <ele>776.4</ele>
        <time>2025-03-02T10:39:22Z</time>
      </trkpt>
      <trkpt lat="45.70476" lon="4.57713">
        <ele>776.4</ele>
        <time>2025-03-02T10:39:23Z</time>
      </trkpt>
      <trkpt lat="45.70476" lon="4.57713">
        <ele>776.4</ele>
        <time>2025-03-02T10:39:24Z</time>
      </trkpt>
      <trkpt lat="45.70476" lon="4.57713">
        <ele>776.4</ele>
        <time>2025-03-02T10:39:25Z</time>
      </trkpt>
      <trkpt lat="45.70476" lon="4.57713">
        <ele>776.4</ele>
        <time>2025-03-02T10:39:26Z</time>
      </trkpt>
      <trkpt lat="45.70476" lon="4.57713">
        <ele>776.4</ele>
        <time>2025-03-02T10:39:27Z</time>
      </trkpt>
      <trkpt lat="45.70476" lon="4.57713">
        <ele>776.4</ele>
        <time>2025-03-02T10:39:28Z</time>
      </trkpt>
      <trkpt lat="45.70476" lon="4.57713">
        <ele>776.4</ele>
        <time>2025-03-02T10:39:29Z</time>
      </trkpt>
      <trkpt lat="45.70476" lon="4.57713">
        <ele>776.4</ele>
        <time>2025-03-02T10:39:30Z</time>
      </trkpt>
      <trkpt lat="45.70476" lon="4.57713">
        <ele>776.4</ele>
        <time>2025-03-02T10:39:31Z</time>
      </trkpt>
      <trkpt lat="45.70476" lon="4.57713">
        <ele>776.4</ele>
        <time>2025-03-02T10:39:32Z</time>
      </trkpt>
      <trkpt lat="45.70476" lon="4.57713">
        <ele>776.4</ele>
        <time>2025-03-02T10:39:33Z</time>
      </trkpt>
      <trkpt lat="45.70476" lon="4.57713">
        <ele>776.4</ele>
        <time>2025-03-02T10:39:34Z</time>
      </trkpt>
      <trkpt lat="45.70476" lon="4.57713">
        <ele>776.4</ele>
        <time>2025-03-02T10:39:35Z</time>
      </trkpt>
      <trkpt lat="45.70476" lon="4.57713">
        <ele>776.4</ele>
        <time>2025-03-02T10:39:36Z</time>
      </trkpt>
      <trkpt lat="45.70476" lon="4.57713">
        <ele>776.4</ele>
        <time>2025-03-02T10:39:37Z</time>
      </trkpt>
      <trkpt lat="45.70476" lon="4.57713">
        <ele>776.4</ele>
        <time>2025-03-02T10:39:38Z</time>
      </trkpt>
      <trkpt lat="45.70476" lon="4.57713">
        <ele>776.4</ele>
        <time>2025-03-02T10:39:39Z</time>
      </trkpt>
      <trkpt lat="45.70476" lon="4.57713">
        <ele>776.4</ele>
        <time>2025-03-02T10:39:40Z</time>
      </trkpt>
      <trkpt lat="45.70476" lon="4.57713">
        <ele>776.4</ele>
        <time>2025-03-02T10:39:41Z</time>
      </trkpt>
      <trkpt lat="45.70476" lon="4.57713">
        <ele>776.4</ele>
        <time>2025-03-02T10:39:42Z</time>
      </trkpt>
      <trkpt lat="45.70476" lon="4.57713">
        <ele>776.4</ele>
        <time>2025-03-02T10:39:43Z</time>
      </trkpt>
      <trkpt lat="45.70476" lon="4.57713">
        <ele>776.4</ele>
        <time>2025-03-02T10:39:44Z</time>
      </trkpt>
      <trkpt lat="45.70476" lon="4.57713">
        <ele>776.4</ele>
        <time>2025-03-02T10:39:45Z</time>
      </trkpt>
      <trkpt lat="45.70476" lon="4.57713">
        <ele>776.4</ele>
        <time>2025-03-02T10:39:46Z</time>
      </trkpt>
      <trkpt lat="45.70476" lon="4.57713">
        <ele>776.4</ele>
        <time>2025-03-02T10:39:47Z</time>
      </trkpt>
      <trkpt lat="45.70476" lon="4.57713">
        <ele>776.4</ele>
        <time>2025-03-02T10:39:48Z</time>
      </trkpt>
      <trkpt lat="45.70476" lon="4.57713">
        <ele>776.4</ele>
        <time>2025-03-02T10:39:49Z</time>
      </trkpt>
      <trkpt lat="45.70476" lon="4.57713">
        <ele>776.4</ele>
        <time>2025-03-02T10:39:50Z</time>
      </trkpt>
      <trkpt lat="45.70476" lon="4.57713">
        <ele>776.4</ele>
        <time>2025-03-02T10:39:51Z</time>
      </trkpt>
      <trkpt lat="45.70476" lon="4.57713">
        <ele>776.4</ele>
        <time>2025-03-02T10:39:52Z</time>
      </trkpt>
      <trkpt lat="45.70476" lon="4.57713">
        <ele>776.4</ele>
        <time>2025-03-02T10:39:53Z</time>
      </trkpt>
      <trkpt lat="45.70476" lon="4.57713">
        <ele>776.4</ele>
        <time>2025-03-02T10:39:54Z</time>
      </trkpt>
      <trkpt lat="45.70476" lon="4.57713">
        <ele>776.4</ele>
        <time>2025-03-02T10:39:55Z</time>
      </trkpt>
      <trkpt lat="45.70476" lon="4.57713">
        <ele>776.4</ele>
        <time>2025-03-02T10:39:56Z</time>
      </trkpt>
      <trkpt lat="45.70476" lon="4.57713">
        <ele>776.4</ele>
        <time>2025-03-02T10:39:57Z</time>
      </trkpt>
      <trkpt lat="45.70476" lon="4.57713">
        <ele>776.4</ele>
        <time>2025-03-02T10:39:58Z</time>
      </trkpt>
      <trkpt lat="45.70476" lon="4.57713">
        <ele>776.4</ele>
        <time>2025-03-02T10:39:59Z</time>
      </trkpt>
      <trkpt lat="45.70476" lon="4.57713">
        <ele>776.4</ele>
        <time>2025-03-02T10:40:00Z</time>
      </trkpt>
      <trkpt lat="45.70476" lon="4.57713">
        <ele>776.4</ele>
        <time>2025-03-02T10:40:01Z</time>
      </trkpt>
      <trkpt lat="45.70476" lon="4.57713">
        <ele>776.4</ele>
        <time>2025-03-02T10:40:02Z</time>
      </trkpt>
      <trkpt lat="45.70476" lon="4.57713">
        <ele>776.4</ele>
        <time>2025-03-02T10:40:03Z</time>
      </trkpt>
      <trkpt lat="45.70476" lon="4.57713">
        <ele>776.4</ele>
        <time>2025-03-02T10:40:04Z</time>
      </trkpt>
      <trkpt lat="45.70476" lon="4.57713">
        <ele>776.4</ele>
        <time>2025-03-02T10:40:05Z</time>
      </trkpt>
      <trkpt lat="45.70476" lon="4.57713">
        <ele>776.4</ele>
        <time>2025-03-02T10:40:06Z</time>
      </trkpt>
      <trkpt lat="45.70476" lon="4.57713">
        <ele>776.4</ele>
        <time>2025-03-02T10:40:07Z</time>
      </trkpt>
      <trkpt lat="45.70476" lon="4.57713">
        <ele>776.4</ele>
        <time>2025-03-02T10:40:08Z</time>
      </trkpt>
      <trkpt lat="45.70476" lon="4.57713">
        <ele>776.4</ele>
        <time>2025-03-02T10:40:09Z</time>
      </trkpt>
      <trkpt lat="45.70476" lon="4.57713">
        <ele>776.4</ele>
        <time>2025-03-02T10:40:10Z</time>
      </trkpt>
      <trkpt lat="45.70476" lon="4.57713">
        <ele>776.4</ele>
        <time>2025-03-02T10:40:11Z</time>
      </trkpt>
      <trkpt lat="45.70476" lon="4.57713">
        <ele>776.4</ele>
        <time>2025-03-02T10:40:12Z</time>
      </trkpt>
      <trkpt lat="45.70476" lon="4.57713">
        <ele>776.4</ele>
        <time>2025-03-02T10:40:13Z</time>
      </trkpt>
      <trkpt lat="45.70476" lon="4.57713">
        <ele>776.4</ele>
        <time>2025-03-02T10:40:14Z</time>
      </trkpt>
      <trkpt lat="45.70476" lon="4.57713">
        <ele>776.4</ele>
        <time>2025-03-02T10:40:15Z</time>
      </trkpt>
      <trkpt lat="45.70476" lon="4.57713">
        <ele>776.4</ele>
        <time>2025-03-02T10:40:16Z</time>
      </trkpt>
      <trkpt lat="45.70476" lon="4.57713">
        <ele>776.4</ele>
        <time>2025-03-02T10:40:17Z</time>
      </trkpt>
      <trkpt lat="45.70476" lon="4.57713">
        <ele>776.4</ele>
        <time>2025-03-02T10:40:18Z</time>
      </trkpt>
      <trkpt lat="45.70476" lon="4.57713">
        <ele>776.4</ele>
        <time>2025-03-02T10:40:19Z</time>
      </trkpt>
      <trkpt lat="45.70476" lon="4.57713">
        <ele>776.4</ele>
        <time>2025-03-02T10:40:20Z</time>
      </trkpt>
      <trkpt lat="45.70476" lon="4.57713">
        <ele>776.4</ele>
        <time>2025-03-02T10:40:21Z</time>
      </trkpt>
      <trkpt lat="45.70476" lon="4.57713">
        <ele>776.4</ele>
        <time>2025-03-02T10:40:22Z</time>
      </trkpt>
      <trkpt lat="45.70476" lon="4.57713">
        <ele>776.4</ele>
        <time>2025-03-02T10:40:23Z</time>
      </trkpt>
      <trkpt lat="45.70476" lon="4.57713">
        <ele>776.4</ele>
        <time>2025-03-02T10:40:24Z</time>
      </trkpt>
      <trkpt lat="45.70476" lon="4.57713">
        <ele>776.4</ele>
        <time>2025-03-02T10:40:25Z</time>
      </trkpt>
      <trkpt lat="45.70476" lon="4.57713">
        <ele>776.4</ele>
        <time>2025-03-02T10:40:26Z</time>
      </trkpt>
      <trkpt lat="45.70476" lon="4.57713">
        <ele>776.4</ele>
        <time>2025-03-02T10:40:27Z</time>
      </trkpt>
      <trkpt lat="45.70476" lon="4.57713">
        <ele>776.4</ele>
        <time>2025-03-02T10:40:28Z</time>
      </trkpt>
      <trkpt lat="45.70476" lon="4.57713">
        <ele>776.4</ele>
        <time>2025-03-02T10:40:29Z</time>
      </trkpt>
      <trkpt lat="45.70476" lon="4.57713">
        <ele>776.4</ele>
        <time>2025-03-02T10:40:30Z</time>
      </trkpt>
      <trkpt lat="45.70476" lon="4.57713">
        <ele>776.4</ele>
        <time>2025-03-02T10:40:31Z</time>
      </trkpt>
      <trkpt lat="45.70476" lon="4.57713">
        <ele>776.4</ele>
        <time>2025-03-02T10:40:32Z</time>
      </trkpt>
      <trkpt lat="45.70476" lon="4.57713">
        <ele>776.4</ele>
        <time>2025-03-02T10:40:33Z</time>
      </trkpt>
      <trkpt lat="45.70476" lon="4.57713">
        <ele>776.4</ele>
        <time>2025-03-02T10:40:34Z</time>
      </trkpt>
      <trkpt lat="45.70476" lon="4.57713">
        <ele>776.4</ele>
        <time>2025-03-02T10:40:35Z</time>
      </trkpt>
      <trkpt lat="45.70476" lon="4.57713">
        <ele>776.4</ele>
        <time>2025-03-02T10:40:36Z</time>
      </trkpt>
      <trkpt lat="45.70476" lon="4.57713">
        <ele>776.4</ele>
        <time>2025-03-02T10:40:37Z</time>
      </trkpt>
      <trkpt lat="45.70476" lon="4.57713">
        <ele>776.4</ele>
        <time>2025-03-02T10:40:38Z</time>
      </trkpt>
      <trkpt lat="45.70476" lon="4.57713">
        <ele>776.4</ele>
        <time>2025-03-02T10:40:39Z</time>
      </trkpt>
      <trkpt lat="45.70476" lon="4.57713">
        <ele>776.4</ele>
        <time>2025-03-02T10:40:40Z</time>
      </trkpt>
      <trkpt lat="45.70476" lon="4.57713">
        <ele>776.4</ele>
        <time>2025-03-02T10:40:41Z</time>
      </trkpt>
      <trkpt lat="45.70476" lon="4.57714">
        <ele>776.4</ele>
        <time>2025-03-02T10:40:42Z</time>
      </trkpt>
      <trkpt lat="45.70476" lon="4.57714">
        <ele>776.4</ele>
        <time>2025-03-02T10:40:43Z</time>
      </trkpt>
      <trkpt lat="45.70477" lon="4.57715">
        <ele>776.4</ele>
        <time>2025-03-02T10:40:44Z</time>
      </trkpt>
      <trkpt lat="45.70479" lon="4.57717">
        <ele>776.4</ele>
        <time>2025-03-02T10:40:45Z</time>
      </trkpt>
      <trkpt lat="45.70481" lon="4.5772">
        <ele>777.8</ele>
        <time>2025-03-02T10:40:46Z</time>
      </trkpt>
      <trkpt lat="45.70483" lon="4.57724">
        <ele>777.6</ele>
        <time>2025-03-02T10:40:47Z</time>
      </trkpt>
      <trkpt lat="45.70486" lon="4.57729">
        <ele>777</ele>
        <time>2025-03-02T10:40:48Z</time>
      </trkpt>
      <trkpt lat="45.70488" lon="4.57734">
        <ele>776.4</ele>
        <time>2025-03-02T10:40:49Z</time>
      </trkpt>
      <trkpt lat="45.70491" lon="4.57739">
        <ele>775.6</ele>
        <time>2025-03-02T10:40:50Z</time>
      </trkpt>
      <trkpt lat="45.70493" lon="4.57745">
        <ele>775</ele>
        <time>2025-03-02T10:40:51Z</time>
      </trkpt>
      <trkpt lat="45.70496" lon="4.57751">
        <ele>774.6</ele>
        <time>2025-03-02T10:40:52Z</time>
      </trkpt>
      <trkpt lat="45.70499" lon="4.57758">
        <ele>774.4</ele>
        <time>2025-03-02T10:40:53Z</time>
      </trkpt>
      <trkpt lat="45.70503" lon="4.57765">
        <ele>773.8</ele>
        <time>2025-03-02T10:40:54Z</time>
      </trkpt>
      <trkpt lat="45.70506" lon="4.57773">
        <ele>773</ele>
        <time>2025-03-02T10:40:55Z</time>
      </trkpt>
      <trkpt lat="45.7051" lon="4.57781">
        <ele>772.6</ele>
        <time>2025-03-02T10:40:56Z</time>
      </trkpt>
      <trkpt lat="45.70514" lon="4.5779">
        <ele>771.6</ele>
        <time>2025-03-02T10:40:57Z</time>
      </trkpt>
      <trkpt lat="45.70518" lon="4.57798">
        <ele>771</ele>
        <time>2025-03-02T10:40:58Z</time>
      </trkpt>
      <trkpt lat="45.70523" lon="4.57807">
        <ele>769.8</ele>
        <time>2025-03-02T10:40:59Z</time>
      </trkpt>
      <trkpt lat="45.70527" lon="4.57816">
        <ele>768.8</ele>
        <time>2025-03-02T10:41:00Z</time>
      </trkpt>
      <trkpt lat="45.70532" lon="4.57825">
        <ele>768</ele>
        <time>2025-03-02T10:41:01Z</time>
      </trkpt>
      <trkpt lat="45.70537" lon="4.57833">
        <ele>767.4</ele>
        <time>2025-03-02T10:41:02Z</time>
      </trkpt>
      <trkpt lat="45.70543" lon="4.57842">
        <ele>766.6</ele>
        <time>2025-03-02T10:41:03Z</time>
      </trkpt>
      <trkpt lat="45.70548" lon="4.57851">
        <ele>765.8</ele>
        <time>2025-03-02T10:41:04Z</time>
      </trkpt>
      <trkpt lat="45.70553" lon="4.5786">
        <ele>764.8</ele>
        <time>2025-03-02T10:41:05Z</time>
      </trkpt>
      <trkpt lat="45.70557" lon="4.57866">
        <ele>764</ele>
        <time>2025-03-02T10:41:06Z</time>
      </trkpt>
      <trkpt lat="45.70563" lon="4.57876">
        <ele>763.6</ele>
        <time>2025-03-02T10:41:07Z</time>
      </trkpt>
      <trkpt lat="45.70568" lon="4.57884">
        <ele>763.2</ele>
        <time>2025-03-02T10:41:08Z</time>
      </trkpt>
      <trkpt lat="45.70573" lon="4.57893">
        <ele>762.8</ele>
        <time>2025-03-02T10:41:09Z</time>
      </trkpt>
      <trkpt lat="45.70578" lon="4.57901">
        <ele>761.8</ele>
        <time>2025-03-02T10:41:10Z</time>
      </trkpt>
      <trkpt lat="45.70583" lon="4.5791">
        <ele>761</ele>
        <time>2025-03-02T10:41:11Z</time>
      </trkpt>
      <trkpt lat="45.70589" lon="4.5792">
        <ele>760</ele>
        <time>2025-03-02T10:41:12Z</time>
      </trkpt>
      <trkpt lat="45.70594" lon="4.5793">
        <ele>759</ele>
        <time>2025-03-02T10:41:13Z</time>
      </trkpt>
      <trkpt lat="45.70599" lon="4.5794">
        <ele>757.6</ele>
        <time>2025-03-02T10:41:14Z</time>
      </trkpt>
      <trkpt lat="45.70604" lon="4.5795">
        <ele>756</ele>
        <time>2025-03-02T10:41:15Z</time>
      </trkpt>
      <trkpt lat="45.70609" lon="4.5796">
        <ele>754.8</ele>
        <time>2025-03-02T10:41:16Z</time>
      </trkpt>
      <trkpt lat="45.70615" lon="4.57971">
        <ele>753.4</ele>
        <time>2025-03-02T10:41:17Z</time>
      </trkpt>
      <trkpt lat="45.7062" lon="4.57982">
        <ele>752.6</ele>
        <time>2025-03-02T10:41:18Z</time>
      </trkpt>
      <trkpt lat="45.70625" lon="4.57993">
        <ele>751.6</ele>
        <time>2025-03-02T10:41:19Z</time>
      </trkpt>
      <trkpt lat="45.70629" lon="4.58003">
        <ele>751</ele>
        <time>2025-03-02T10:41:20Z</time>
      </trkpt>
      <trkpt lat="45.70636" lon="4.58017">
        <ele>750</ele>
        <time>2025-03-02T10:41:21Z</time>
      </trkpt>
      <trkpt lat="45.70641" lon="4.5803">
        <ele>748.6</ele>
        <time>2025-03-02T10:41:22Z</time>
      </trkpt>
      <trkpt lat="45.70646" lon="4.58044">
        <ele>746.8</ele>
        <time>2025-03-02T10:41:23Z</time>
      </trkpt>
      <trkpt lat="45.70651" lon="4.58058">
        <ele>745.6</ele>
        <time>2025-03-02T10:41:24Z</time>
      </trkpt>
      <trkpt lat="45.70656" lon="4.58072">
        <ele>744</ele>
        <time>2025-03-02T10:41:25Z</time>
      </trkpt>
      <trkpt lat="45.7066" lon="4.58087">
        <ele>742.6</ele>
        <time>2025-03-02T10:41:26Z</time>
      </trkpt>
      <trkpt lat="45.70664" lon="4.58102">
        <ele>741.4</ele>
        <time>2025-03-02T10:41:27Z</time>
      </trkpt>
      <trkpt lat="45.70668" lon="4.58117">
        <ele>740.2</ele>
        <time>2025-03-02T10:41:28Z</time>
      </trkpt>
      <trkpt lat="45.70672" lon="4.58132">
        <ele>739.6</ele>
        <time>2025-03-02T10:41:29Z</time>
      </trkpt>
      <trkpt lat="45.70676" lon="4.58148">
        <ele>738.8</ele>
        <time>2025-03-02T10:41:30Z</time>
      </trkpt>
      <trkpt lat="45.7068" lon="4.58163">
        <ele>738</ele>
        <time>2025-03-02T10:41:31Z</time>
      </trkpt>
      <trkpt lat="45.70683" lon="4.58179">
        <ele>737</ele>
        <time>2025-03-02T10:41:32Z</time>
      </trkpt>
      <trkpt lat="45.70687" lon="4.58195">
        <ele>736</ele>
        <time>2025-03-02T10:41:33Z</time>
      </trkpt>
      <trkpt lat="45.70691" lon="4.58211">
        <ele>734.2</ele>
        <time>2025-03-02T10:41:34Z</time>
      </trkpt>
      <trkpt lat="45.70694" lon="4.58227">
        <ele>732.8</ele>
        <time>2025-03-02T10:41:35Z</time>
      </trkpt>
      <trkpt lat="45.70696" lon="4.58243">
        <ele>731</ele>
        <time>2025-03-02T10:41:36Z</time>
      </trkpt>
      <trkpt lat="45.70697" lon="4.58259">
        <ele>729.6</ele>
        <time>2025-03-02T10:41:37Z</time>
      </trkpt>
      <trkpt lat="45.70697" lon="4.58275">
        <ele>728.6</ele>
        <time>2025-03-02T10:41:38Z</time>
      </trkpt>
      <trkpt lat="45.70696" lon="4.58291">
        <ele>727</ele>
        <time>2025-03-02T10:41:39Z</time>
      </trkpt>
      <trkpt lat="45.70695" lon="4.58306">
        <ele>725.6</ele>
        <time>2025-03-02T10:41:40Z</time>
      </trkpt>
      <trkpt lat="45.70693" lon="4.58321">
        <ele>724.6</ele>
        <time>2025-03-02T10:41:41Z</time>
      </trkpt>
      <trkpt lat="45.70691" lon="4.58336">
        <ele>723.6</ele>
        <time>2025-03-02T10:41:42Z</time>
      </trkpt>
      <trkpt lat="45.70689" lon="4.5835">
        <ele>723.4</ele>
        <time>2025-03-02T10:41:43Z</time>
      </trkpt>
      <trkpt lat="45.70687" lon="4.58364">
        <ele>723.2</ele>
        <time>2025-03-02T10:41:44Z</time>
      </trkpt>
      <trkpt lat="45.70685" lon="4.58377">
        <ele>723</ele>
        <time>2025-03-02T10:41:45Z</time>
      </trkpt>
      <trkpt lat="45.70683" lon="4.5839">
        <ele>722.6</ele>
        <time>2025-03-02T10:41:46Z</time>
      </trkpt>
      <trkpt lat="45.70681" lon="4.58403">
        <ele>722.4</ele>
        <time>2025-03-02T10:41:47Z</time>
      </trkpt>
      <trkpt lat="45.70679" lon="4.58413">
        <ele>722.4</ele>
        <time>2025-03-02T10:41:48Z</time>
      </trkpt>
      <trkpt lat="45.70678" lon="4.58424">
        <ele>722.4</ele>
        <time>2025-03-02T10:41:49Z</time>
      </trkpt>
      <trkpt lat="45.70677" lon="4.58436">
        <ele>722.4</ele>
        <time>2025-03-02T10:41:50Z</time>
      </trkpt>
      <trkpt lat="45.70675" lon="4.58447">
        <ele>722.6</ele>
        <time>2025-03-02T10:41:51Z</time>
      </trkpt>
      <trkpt lat="45.70674" lon="4.58457">
        <ele>723.4</ele>
        <time>2025-03-02T10:41:52Z</time>
      </trkpt>
      <trkpt lat="45.70672" lon="4.58466">
        <ele>723.6</ele>
        <time>2025-03-02T10:41:53Z</time>
      </trkpt>
      <trkpt lat="45.7067" lon="4.58473">
        <ele>724</ele>
        <time>2025-03-02T10:41:54Z</time>
      </trkpt>
      <trkpt lat="45.70668" lon="4.5848">
        <ele>724</ele>
        <time>2025-03-02T10:41:55Z</time>
      </trkpt>
      <trkpt lat="45.70669" lon="4.58486">
        <ele>725</ele>
        <time>2025-03-02T10:41:56Z</time>
      </trkpt>
      <trkpt lat="45.70671" lon="4.58493">
        <ele>725.6</ele>
        <time>2025-03-02T10:41:57Z</time>
      </trkpt>
      <trkpt lat="45.70673" lon="4.58499">
        <ele>725.6</ele>
        <time>2025-03-02T10:41:58Z</time>
      </trkpt>
      <trkpt lat="45.70675" lon="4.58505">
        <ele>725.6</ele>
        <time>2025-03-02T10:41:59Z</time>
      </trkpt>
      <trkpt lat="45.70676" lon="4.58511">
        <ele>725.6</ele>
        <time>2025-03-02T10:42:00Z</time>
      </trkpt>
      <trkpt lat="45.70678" lon="4.58517">
        <ele>725.6</ele>
        <time>2025-03-02T10:42:01Z</time>
      </trkpt>
      <trkpt lat="45.70679" lon="4.58523">
        <ele>725.6</ele>
        <time>2025-03-02T10:42:02Z</time>
      </trkpt>
      <trkpt lat="45.7068" lon="4.58529">
        <ele>725.6</ele>
        <time>2025-03-02T10:42:03Z</time>
      </trkpt>
      <trkpt lat="45.70681" lon="4.58534">
        <ele>725.6</ele>
        <time>2025-03-02T10:42:04Z</time>
      </trkpt>
      <trkpt lat="45.70681" lon="4.5854">
        <ele>725.8</ele>
        <time>2025-03-02T10:42:05Z</time>
      </trkpt>
      <trkpt lat="45.70682" lon="4.58545">
        <ele>725.8</ele>
        <time>2025-03-02T10:42:06Z</time>
      </trkpt>
      <trkpt lat="45.70683" lon="4.58551">
        <ele>725.8</ele>
        <time>2025-03-02T10:42:07Z</time>
      </trkpt>
      <trkpt lat="45.70683" lon="4.58556">
        <ele>725.8</ele>
        <time>2025-03-02T10:42:08Z</time>
      </trkpt>
      <trkpt lat="45.70683" lon="4.5856">
        <ele>726</ele>
        <time>2025-03-02T10:42:09Z</time>
      </trkpt>
      <trkpt lat="45.70683" lon="4.58564">
        <ele>726.2</ele>
        <time>2025-03-02T10:42:10Z</time>
      </trkpt>
      <trkpt lat="45.70684" lon="4.58567">
        <ele>726.2</ele>
        <time>2025-03-02T10:42:11Z</time>
      </trkpt>
      <trkpt lat="45.70684" lon="4.58571">
        <ele>726</ele>
        <time>2025-03-02T10:42:12Z</time>
      </trkpt>
      <trkpt lat="45.70684" lon="4.58576">
        <ele>726</ele>
        <time>2025-03-02T10:42:13Z</time>
      </trkpt>
      <trkpt lat="45.70685" lon="4.58581">
        <ele>726</ele>
        <time>2025-03-02T10:42:14Z</time>
      </trkpt>
      <trkpt lat="45.70685" lon="4.58586">
        <ele>725.8</ele>
        <time>2025-03-02T10:42:15Z</time>
      </trkpt>
      <trkpt lat="45.70685" lon="4.58593">
        <ele>725.6</ele>
        <time>2025-03-02T10:42:16Z</time>
      </trkpt>
      <trkpt lat="45.70686" lon="4.586">
        <ele>725.4</ele>
        <time>2025-03-02T10:42:17Z</time>
      </trkpt>
      <trkpt lat="45.70687" lon="4.58607">
        <ele>725.4</ele>
        <time>2025-03-02T10:42:18Z</time>
      </trkpt>
      <trkpt lat="45.70687" lon="4.58615">
        <ele>725</ele>
        <time>2025-03-02T10:42:19Z</time>
      </trkpt>
      <trkpt lat="45.70687" lon="4.58622">
        <ele>724.6</ele>
        <time>2025-03-02T10:42:20Z</time>
      </trkpt>
      <trkpt lat="45.70687" lon="4.58628">
        <ele>724</ele>
        <time>2025-03-02T10:42:21Z</time>
      </trkpt>
      <trkpt lat="45.70687" lon="4.58635">
        <ele>724</ele>
        <time>2025-03-02T10:42:22Z</time>
      </trkpt>
      <trkpt lat="45.70688" lon="4.58639">
        <ele>723.8</ele>
        <time>2025-03-02T10:42:23Z</time>
      </trkpt>
      <trkpt lat="45.70688" lon="4.58643">
        <ele>723.8</ele>
        <time>2025-03-02T10:42:24Z</time>
      </trkpt>
      <trkpt lat="45.70688" lon="4.58647">
        <ele>723.8</ele>
        <time>2025-03-02T10:42:25Z</time>
      </trkpt>
      <trkpt lat="45.70689" lon="4.58651">
        <ele>723.6</ele>
        <time>2025-03-02T10:42:26Z</time>
      </trkpt>
      <trkpt lat="45.7069" lon="4.58656">
        <ele>723.6</ele>
        <time>2025-03-02T10:42:27Z</time>
      </trkpt>
      <trkpt lat="45.70691" lon="4.58661">
        <ele>723.6</ele>
        <time>2025-03-02T10:42:28Z</time>
      </trkpt>
      <trkpt lat="45.70692" lon="4.58667">
        <ele>723.2</ele>
        <time>2025-03-02T10:42:29Z</time>
      </trkpt>
      <trkpt lat="45.70693" lon="4.58673">
        <ele>722.8</ele>
        <time>2025-03-02T10:42:30Z</time>
      </trkpt>
      <trkpt lat="45.70695" lon="4.5868">
        <ele>722.4</ele>
        <time>2025-03-02T10:42:31Z</time>
      </trkpt>
      <trkpt lat="45.70697" lon="4.58688">
        <ele>721.8</ele>
        <time>2025-03-02T10:42:32Z</time>
      </trkpt>
      <trkpt lat="45.70698" lon="4.58696">
        <ele>720.8</ele>
        <time>2025-03-02T10:42:33Z</time>
      </trkpt>
      <trkpt lat="45.707" lon="4.58704">
        <ele>720.2</ele>
        <time>2025-03-02T10:42:34Z</time>
      </trkpt>
      <trkpt lat="45.70702" lon="4.58713">
        <ele>719.8</ele>
        <time>2025-03-02T10:42:35Z</time>
      </trkpt>
      <trkpt lat="45.70703" lon="4.58723">
        <ele>719.2</ele>
        <time>2025-03-02T10:42:36Z</time>
      </trkpt>
      <trkpt lat="45.70705" lon="4.58732">
        <ele>718.8</ele>
        <time>2025-03-02T10:42:37Z</time>
      </trkpt>
      <trkpt lat="45.70707" lon="4.58742">
        <ele>718.4</ele>
        <time>2025-03-02T10:42:38Z</time>
      </trkpt>
      <trkpt lat="45.70708" lon="4.58752">
        <ele>718</ele>
        <time>2025-03-02T10:42:39Z</time>
      </trkpt>
      <trkpt lat="45.7071" lon="4.58762">
        <ele>717.2</ele>
        <time>2025-03-02T10:42:40Z</time>
      </trkpt>
      <trkpt lat="45.70711" lon="4.58772">
        <ele>716.4</ele>
        <time>2025-03-02T10:42:41Z</time>
      </trkpt>
      <trkpt lat="45.70712" lon="4.58782">
        <ele>715.8</ele>
        <time>2025-03-02T10:42:42Z</time>
      </trkpt>
      <trkpt lat="45.70712" lon="4.58793">
        <ele>715.4</ele>
        <time>2025-03-02T10:42:43Z</time>
      </trkpt>
      <trkpt lat="45.70713" lon="4.58803">
        <ele>714.8</ele>
        <time>2025-03-02T10:42:44Z</time>
      </trkpt>
      <trkpt lat="45.70713" lon="4.58814">
        <ele>714</ele>
        <time>2025-03-02T10:42:45Z</time>
      </trkpt>
      <trkpt lat="45.70714" lon="4.58825">
        <ele>713.6</ele>
        <time>2025-03-02T10:42:46Z</time>
      </trkpt>
      <trkpt lat="45.70714" lon="4.58836">
        <ele>713.4</ele>
        <time>2025-03-02T10:42:47Z</time>
      </trkpt>
      <trkpt lat="45.70714" lon="4.58848">
        <ele>713.4</ele>
        <time>2025-03-02T10:42:48Z</time>
      </trkpt>
      <trkpt lat="45.70714" lon="4.58859">
        <ele>713.2</ele>
        <time>2025-03-02T10:42:49Z</time>
      </trkpt>
      <trkpt lat="45.70714" lon="4.58871">
        <ele>713</ele>
        <time>2025-03-02T10:42:50Z</time>
      </trkpt>
      <trkpt lat="45.70714" lon="4.58882">
        <ele>712.4</ele>
        <time>2025-03-02T10:42:51Z</time>
      </trkpt>
      <trkpt lat="45.70714" lon="4.58891">
        <ele>711.6</ele>
        <time>2025-03-02T10:42:52Z</time>
      </trkpt>
      <trkpt lat="45.70714" lon="4.58904">
        <ele>711</ele>
        <time>2025-03-02T10:42:53Z</time>
      </trkpt>
      <trkpt lat="45.70717" lon="4.58913">
        <ele>710.6</ele>
        <time>2025-03-02T10:42:54Z</time>
      </trkpt>
      <trkpt lat="45.70721" lon="4.5892">
        <ele>710.6</ele>
        <time>2025-03-02T10:42:55Z</time>
      </trkpt>
      <trkpt lat="45.70725" lon="4.58924">
        <ele>710.6</ele>
        <time>2025-03-02T10:42:56Z</time>
      </trkpt>
      <trkpt lat="45.70729" lon="4.58925">
        <ele>710.6</ele>
        <time>2025-03-02T10:42:57Z</time>
      </trkpt>
      <trkpt lat="45.70732" lon="4.58922">
        <ele>710.8</ele>
        <time>2025-03-02T10:42:58Z</time>
      </trkpt>
      <trkpt lat="45.70734" lon="4.58915">
        <ele>710.8</ele>
        <time>2025-03-02T10:42:59Z</time>
      </trkpt>
      <trkpt lat="45.70734" lon="4.58906">
        <ele>710.8</ele>
        <time>2025-03-02T10:43:00Z</time>
      </trkpt>
      <trkpt lat="45.70735" lon="4.58897">
        <ele>710.8</ele>
        <time>2025-03-02T10:43:01Z</time>
      </trkpt>
      <trkpt lat="45.70736" lon="4.58887">
        <ele>710.8</ele>
        <time>2025-03-02T10:43:02Z</time>
      </trkpt>
      <trkpt lat="45.70738" lon="4.58877">
        <ele>710.2</ele>
        <time>2025-03-02T10:43:03Z</time>
      </trkpt>
      <trkpt lat="45.7074" lon="4.58866">
        <ele>709.4</ele>
        <time>2025-03-02T10:43:04Z</time>
      </trkpt>
      <trkpt lat="45.70744" lon="4.58855">
        <ele>708.6</ele>
        <time>2025-03-02T10:43:05Z</time>
      </trkpt>
      <trkpt lat="45.70748" lon="4.58844">
        <ele>707.6</ele>
        <time>2025-03-02T10:43:06Z</time>
      </trkpt>
      <trkpt lat="45.70752" lon="4.58833">
        <ele>706.4</ele>
        <time>2025-03-02T10:43:07Z</time>
      </trkpt>
      <trkpt lat="45.70757" lon="4.58821">
        <ele>705.4</ele>
        <time>2025-03-02T10:43:08Z</time>
      </trkpt>
      <trkpt lat="45.70762" lon="4.58809">
        <ele>704.4</ele>
        <time>2025-03-02T10:43:09Z</time>
      </trkpt>
      <trkpt lat="45.70767" lon="4.58796">
        <ele>703</ele>
        <time>2025-03-02T10:43:10Z</time>
      </trkpt>
      <trkpt lat="45.70772" lon="4.58784">
        <ele>701.8</ele>
        <time>2025-03-02T10:43:11Z</time>
      </trkpt>
      <trkpt lat="45.70777" lon="4.58773">
        <ele>700.6</ele>
        <time>2025-03-02T10:43:12Z</time>
      </trkpt>
      <trkpt lat="45.70784" lon="4.58765">
        <ele>699.2</ele>
        <time>2025-03-02T10:43:13Z</time>
      </trkpt>
      <trkpt lat="45.7079" lon="4.58759">
        <ele>699</ele>
        <time>2025-03-02T10:43:14Z</time>
      </trkpt>
      <trkpt lat="45.70798" lon="4.58754">
        <ele>698.8</ele>
        <time>2025-03-02T10:43:15Z</time>
      </trkpt>
      <trkpt lat="45.70805" lon="4.58755">
        <ele>698.4</ele>
        <time>2025-03-02T10:43:16Z</time>
      </trkpt>
      <trkpt lat="45.7081" lon="4.58759">
        <ele>697.8</ele>
        <time>2025-03-02T10:43:17Z</time>
      </trkpt>
      <trkpt lat="45.70813" lon="4.58767">
        <ele>697.4</ele>
        <time>2025-03-02T10:43:18Z</time>
      </trkpt>
      <trkpt lat="45.70813" lon="4.58776">
        <ele>697</ele>
        <time>2025-03-02T10:43:19Z</time>
      </trkpt>
      <trkpt lat="45.70812" lon="4.58787">
        <ele>697</ele>
        <time>2025-03-02T10:43:20Z</time>
      </trkpt>
      <trkpt lat="45.70811" lon="4.58797">
        <ele>696.4</ele>
        <time>2025-03-02T10:43:21Z</time>
      </trkpt>
      <trkpt lat="45.7081" lon="4.58808">
        <ele>695.2</ele>
        <time>2025-03-02T10:43:22Z</time>
      </trkpt>
      <trkpt lat="45.70809" lon="4.58819">
        <ele>694.4</ele>
        <time>2025-03-02T10:43:23Z</time>
      </trkpt>
      <trkpt lat="45.70807" lon="4.58829">
        <ele>694</ele>
        <time>2025-03-02T10:43:24Z</time>
      </trkpt>
      <trkpt lat="45.70806" lon="4.58841">
        <ele>693.6</ele>
        <time>2025-03-02T10:43:25Z</time>
      </trkpt>
      <trkpt lat="45.70805" lon="4.58852">
        <ele>692.8</ele>
        <time>2025-03-02T10:43:26Z</time>
      </trkpt>
      <trkpt lat="45.70804" lon="4.58863">
        <ele>692.4</ele>
        <time>2025-03-02T10:43:27Z</time>
      </trkpt>
      <trkpt lat="45.70804" lon="4.58874">
        <ele>691.8</ele>
        <time>2025-03-02T10:43:28Z</time>
      </trkpt>
      <trkpt lat="45.70804" lon="4.58885">
        <ele>691.2</ele>
        <time>2025-03-02T10:43:29Z</time>
      </trkpt>
      <trkpt lat="45.70805" lon="4.58896">
        <ele>691</ele>
        <time>2025-03-02T10:43:30Z</time>
      </trkpt>
      <trkpt lat="45.70808" lon="4.58907">
        <ele>690.8</ele>
        <time>2025-03-02T10:43:31Z</time>
      </trkpt>
      <trkpt lat="45.70812" lon="4.58917">
        <ele>690.8</ele>
        <time>2025-03-02T10:43:32Z</time>
      </trkpt>
      <trkpt lat="45.70816" lon="4.58927">
        <ele>690.4</ele>
        <time>2025-03-02T10:43:33Z</time>
      </trkpt>
      <trkpt lat="45.70822" lon="4.58936">
        <ele>690</ele>
        <time>2025-03-02T10:43:34Z</time>
      </trkpt>
      <trkpt lat="45.70828" lon="4.58941">
        <ele>689.2</ele>
        <time>2025-03-02T10:43:35Z</time>
      </trkpt>
      <trkpt lat="45.70836" lon="4.5895">
        <ele>688.2</ele>
        <time>2025-03-02T10:43:36Z</time>
      </trkpt>
      <trkpt lat="45.70842" lon="4.58955">
        <ele>687.6</ele>
        <time>2025-03-02T10:43:37Z</time>
      </trkpt>
      <trkpt lat="45.70852" lon="4.58963">
        <ele>687.2</ele>
        <time>2025-03-02T10:43:38Z</time>
      </trkpt>
      <trkpt lat="45.7086" lon="4.58971">
        <ele>686.4</ele>
        <time>2025-03-02T10:43:39Z</time>
      </trkpt>
      <trkpt lat="45.70868" lon="4.58978">
        <ele>685.6</ele>
        <time>2025-03-02T10:43:40Z</time>
      </trkpt>
      <trkpt lat="45.70877" lon="4.58986">
        <ele>684.8</ele>
        <time>2025-03-02T10:43:41Z</time>
      </trkpt>
      <trkpt lat="45.70885" lon="4.58995">
        <ele>683.6</ele>
        <time>2025-03-02T10:43:42Z</time>
      </trkpt>
      <trkpt lat="45.70893" lon="4.59005">
        <ele>682.4</ele>
        <time>2025-03-02T10:43:43Z</time>
      </trkpt>
      <trkpt lat="45.709" lon="4.59013">
        <ele>681.6</ele>
        <time>2025-03-02T10:43:44Z</time>
      </trkpt>
      <trkpt lat="45.70908" lon="4.59023">
        <ele>681</ele>
        <time>2025-03-02T10:43:45Z</time>
      </trkpt>
      <trkpt lat="45.70917" lon="4.59035">
        <ele>679.8</ele>
        <time>2025-03-02T10:43:46Z</time>
      </trkpt>
      <trkpt lat="45.70926" lon="4.59045">
        <ele>678.8</ele>
        <time>2025-03-02T10:43:47Z</time>
      </trkpt>
      <trkpt lat="45.70934" lon="4.59055">
        <ele>678</ele>
        <time>2025-03-02T10:43:48Z</time>
      </trkpt>
      <trkpt lat="45.70942" lon="4.59065">
        <ele>677.2</ele>
        <time>2025-03-02T10:43:49Z</time>
      </trkpt>
      <trkpt lat="45.70951" lon="4.59075">
        <ele>676.4</ele>
        <time>2025-03-02T10:43:50Z</time>
      </trkpt>
      <trkpt lat="45.70959" lon="4.59085">
        <ele>675.4</ele>
        <time>2025-03-02T10:43:51Z</time>
      </trkpt>
      <trkpt lat="45.70967" lon="4.59094">
        <ele>674.4</ele>
        <time>2025-03-02T10:43:52Z</time>
      </trkpt>
      <trkpt lat="45.70975" lon="4.59104">
        <ele>673.4</ele>
        <time>2025-03-02T10:43:53Z</time>
      </trkpt>
      <trkpt lat="45.70984" lon="4.59113">
        <ele>672.4</ele>
        <time>2025-03-02T10:43:54Z</time>
      </trkpt>
      <trkpt lat="45.70992" lon="4.59122">
        <ele>672</ele>
        <time>2025-03-02T10:43:55Z</time>
      </trkpt>
      <trkpt lat="45.70999" lon="4.59129">
        <ele>671.2</ele>
        <time>2025-03-02T10:43:56Z</time>
      </trkpt>
      <trkpt lat="45.71008" lon="4.59137">
        <ele>670.8</ele>
        <time>2025-03-02T10:43:57Z</time>
      </trkpt>
      <trkpt lat="45.71017" lon="4.59146">
        <ele>669.8</ele>
        <time>2025-03-02T10:43:58Z</time>
      </trkpt>
      <trkpt lat="45.71027" lon="4.59152">
        <ele>669</ele>
        <time>2025-03-02T10:43:59Z</time>
      </trkpt>
      <trkpt lat="45.71038" lon="4.5916">
        <ele>668.6</ele>
        <time>2025-03-02T10:44:00Z</time>
      </trkpt>
      <trkpt lat="45.71046" lon="4.59166">
        <ele>668.6</ele>
        <time>2025-03-02T10:44:01Z</time>
      </trkpt>
      <trkpt lat="45.71052" lon="4.59172">
        <ele>668.6</ele>
        <time>2025-03-02T10:44:02Z</time>
      </trkpt>
      <trkpt lat="45.71058" lon="4.59177">
        <ele>669</ele>
        <time>2025-03-02T10:44:03Z</time>
      </trkpt>
      <trkpt lat="45.71063" lon="4.5918">
        <ele>670.4</ele>
        <time>2025-03-02T10:44:04Z</time>
      </trkpt>
      <trkpt lat="45.71067" lon="4.59183">
        <ele>672.2</ele>
        <time>2025-03-02T10:44:05Z</time>
      </trkpt>
      <trkpt lat="45.7107" lon="4.59186">
        <ele>674</ele>
        <time>2025-03-02T10:44:06Z</time>
      </trkpt>
      <trkpt lat="45.71072" lon="4.59189">
        <ele>675.4</ele>
        <time>2025-03-02T10:44:07Z</time>
      </trkpt>
      <trkpt lat="45.71075" lon="4.59191">
        <ele>676.8</ele>
        <time>2025-03-02T10:44:08Z</time>
      </trkpt>
      <trkpt lat="45.71077" lon="4.59194">
        <ele>678.2</ele>
        <time>2025-03-02T10:44:09Z</time>
      </trkpt>
      <trkpt lat="45.7108" lon="4.59197">
        <ele>679</ele>
        <time>2025-03-02T10:44:10Z</time>
      </trkpt>
      <trkpt lat="45.71081" lon="4.59201">
        <ele>679.8</ele>
        <time>2025-03-02T10:44:11Z</time>
      </trkpt>
      <trkpt lat="45.71082" lon="4.59204">
        <ele>680.4</ele>
        <time>2025-03-02T10:44:12Z</time>
      </trkpt>
      <trkpt lat="45.71084" lon="4.59208">
        <ele>681</ele>
        <time>2025-03-02T10:44:13Z</time>
      </trkpt>
      <trkpt lat="45.71085" lon="4.59211">
        <ele>681.6</ele>
        <time>2025-03-02T10:44:14Z</time>
      </trkpt>
      <trkpt lat="45.71086" lon="4.59214">
        <ele>682</ele>
        <time>2025-03-02T10:44:15Z</time>
      </trkpt>
      <trkpt lat="45.71086" lon="4.59218">
        <ele>682.4</ele>
        <time>2025-03-02T10:44:16Z</time>
      </trkpt>
      <trkpt lat="45.71087" lon="4.59222">
        <ele>682.8</ele>
        <time>2025-03-02T10:44:17Z</time>
      </trkpt>
      <trkpt lat="45.71089" lon="4.59225">
        <ele>683.2</ele>
        <time>2025-03-02T10:44:18Z</time>
      </trkpt>
      <trkpt lat="45.7109" lon="4.59228">
        <ele>683.6</ele>
        <time>2025-03-02T10:44:19Z</time>
      </trkpt>
      <trkpt lat="45.71092" lon="4.5923">
        <ele>683.8</ele>
        <time>2025-03-02T10:44:20Z</time>
      </trkpt>
      <trkpt lat="45.71094" lon="4.59233">
        <ele>684.2</ele>
        <time>2025-03-02T10:44:21Z</time>
      </trkpt>
      <trkpt lat="45.71096" lon="4.59237">
        <ele>684.6</ele>
        <time>2025-03-02T10:44:22Z</time>
      </trkpt>
      <trkpt lat="45.71098" lon="4.5924">
        <ele>685.2</ele>
        <time>2025-03-02T10:44:23Z</time>
      </trkpt>
      <trkpt lat="45.711" lon="4.59243">
        <ele>685.6</ele>
        <time>2025-03-02T10:44:24Z</time>
      </trkpt>
      <trkpt lat="45.71103" lon="4.59245">
        <ele>686</ele>
        <time>2025-03-02T10:44:25Z</time>
      </trkpt>
      <trkpt lat="45.71105" lon="4.59247">
        <ele>686.6</ele>
        <time>2025-03-02T10:44:26Z</time>
      </trkpt>
      <trkpt lat="45.71109" lon="4.59249">
        <ele>686.8</ele>
        <time>2025-03-02T10:44:27Z</time>
      </trkpt>
      <trkpt lat="45.71111" lon="4.59249">
        <ele>687</ele>
        <time>2025-03-02T10:44:28Z</time>
      </trkpt>
      <trkpt lat="45.71115" lon="4.59249">
        <ele>687.2</ele>
        <time>2025-03-02T10:44:29Z</time>
      </trkpt>
      <trkpt lat="45.71118" lon="4.59247">
        <ele>687.4</ele>
        <time>2025-03-02T10:44:30Z</time>
      </trkpt>
      <trkpt lat="45.71121" lon="4.59246">
        <ele>687.6</ele>
        <time>2025-03-02T10:44:31Z</time>
      </trkpt>
      <trkpt lat="45.71124" lon="4.59244">
        <ele>687.8</ele>
        <time>2025-03-02T10:44:32Z</time>
      </trkpt>
      <trkpt lat="45.71127" lon="4.59242">
        <ele>688</ele>
        <time>2025-03-02T10:44:33Z</time>
      </trkpt>
      <trkpt lat="45.7113" lon="4.5924">
        <ele>688.4</ele>
        <time>2025-03-02T10:44:34Z</time>
      </trkpt>
      <trkpt lat="45.71133" lon="4.59237">
        <ele>688.8</ele>
        <time>2025-03-02T10:44:35Z</time>
      </trkpt>
      <trkpt lat="45.71135" lon="4.59234">
        <ele>689.2</ele>
        <time>2025-03-02T10:44:36Z</time>
      </trkpt>
      <trkpt lat="45.71136" lon="4.59231">
        <ele>689.6</ele>
        <time>2025-03-02T10:44:37Z</time>
      </trkpt>
      <trkpt lat="45.71138" lon="4.59227">
        <ele>689.8</ele>
        <time>2025-03-02T10:44:38Z</time>
      </trkpt>
      <trkpt lat="45.7114" lon="4.59224">
        <ele>690.2</ele>
        <time>2025-03-02T10:44:39Z</time>
      </trkpt>
      <trkpt lat="45.71142" lon="4.5922">
        <ele>690.4</ele>
        <time>2025-03-02T10:44:40Z</time>
      </trkpt>
      <trkpt lat="45.71144" lon="4.59217">
        <ele>690.6</ele>
        <time>2025-03-02T10:44:41Z</time>
      </trkpt>
      <trkpt lat="45.71147" lon="4.59214">
        <ele>690.8</ele>
        <time>2025-03-02T10:44:42Z</time>
      </trkpt>
      <trkpt lat="45.71149" lon="4.59212">
        <ele>691</ele>
        <time>2025-03-02T10:44:43Z</time>
      </trkpt>
      <trkpt lat="45.7115" lon="4.59209">
        <ele>691.4</ele>
        <time>2025-03-02T10:44:44Z</time>
      </trkpt>
      <trkpt lat="45.71152" lon="4.59207">
        <ele>691.8</ele>
        <time>2025-03-02T10:44:45Z</time>
      </trkpt>
      <trkpt lat="45.71153" lon="4.59205">
        <ele>692.2</ele>
        <time>2025-03-02T10:44:46Z</time>
      </trkpt>
      <trkpt lat="45.71155" lon="4.59203">
        <ele>692.6</ele>
        <time>2025-03-02T10:44:47Z</time>
      </trkpt>
      <trkpt lat="45.71157" lon="4.59202">
        <ele>693</ele>
        <time>2025-03-02T10:44:48Z</time>
      </trkpt>
      <trkpt lat="45.71158" lon="4.592">
        <ele>693.2</ele>
        <time>2025-03-02T10:44:49Z</time>
      </trkpt>
      <trkpt lat="45.71162" lon="4.59198">
        <ele>693.4</ele>
        <time>2025-03-02T10:44:50Z</time>
      </trkpt>
      <trkpt lat="45.71164" lon="4.59195">
        <ele>693.6</ele>
        <time>2025-03-02T10:44:51Z</time>
      </trkpt>
      <trkpt lat="45.71167" lon="4.59194">
        <ele>693.6</ele>
        <time>2025-03-02T10:44:52Z</time>
      </trkpt>
      <trkpt lat="45.71169" lon="4.59194">
        <ele>693.6</ele>
        <time>2025-03-02T10:44:53Z</time>
      </trkpt>
      <trkpt lat="45.71171" lon="4.59194">
        <ele>693.6</ele>
        <time>2025-03-02T10:44:54Z</time>
      </trkpt>
      <trkpt lat="45.71175" lon="4.59192">
        <ele>693.6</ele>
        <time>2025-03-02T10:44:55Z</time>
      </trkpt>
      <trkpt lat="45.7118" lon="4.59189">
        <ele>693.6</ele>
        <time>2025-03-02T10:44:56Z</time>
      </trkpt>
      <trkpt lat="45.71186" lon="4.59185">
        <ele>693.4</ele>
        <time>2025-03-02T10:44:57Z</time>
      </trkpt>
      <trkpt lat="45.71191" lon="4.59182">
        <ele>693.2</ele>
        <time>2025-03-02T10:44:58Z</time>
      </trkpt>
      <trkpt lat="45.71196" lon="4.59179">
        <ele>693.2</ele>
        <time>2025-03-02T10:44:59Z</time>
      </trkpt>
      <trkpt lat="45.71201" lon="4.59176">
        <ele>693.2</ele>
        <time>2025-03-02T10:45:00Z</time>
      </trkpt>
      <trkpt lat="45.71205" lon="4.59173">
        <ele>693.2</ele>
        <time>2025-03-02T10:45:01Z</time>
      </trkpt>
      <trkpt lat="45.71209" lon="4.5917">
        <ele>693.2</ele>
        <time>2025-03-02T10:45:02Z</time>
      </trkpt>
      <trkpt lat="45.71214" lon="4.59167">
        <ele>693.4</ele>
        <time>2025-03-02T10:45:03Z</time>
      </trkpt>
      <trkpt lat="45.71219" lon="4.59164">
        <ele>693.8</ele>
        <time>2025-03-02T10:45:04Z</time>
      </trkpt>
      <trkpt lat="45.71224" lon="4.59162">
        <ele>693.8</ele>
        <time>2025-03-02T10:45:05Z</time>
      </trkpt>
      <trkpt lat="45.71227" lon="4.59159">
        <ele>694</ele>
        <time>2025-03-02T10:45:06Z</time>
      </trkpt>
      <trkpt lat="45.71232" lon="4.59157">
        <ele>694.2</ele>
        <time>2025-03-02T10:45:07Z</time>
      </trkpt>
      <trkpt lat="45.71236" lon="4.59154">
        <ele>694.2</ele>
        <time>2025-03-02T10:45:08Z</time>
      </trkpt>
      <trkpt lat="45.71239" lon="4.59152">
        <ele>694.4</ele>
        <time>2025-03-02T10:45:09Z</time>
      </trkpt>
      <trkpt lat="45.71244" lon="4.59149">
        <ele>694.6</ele>
        <time>2025-03-02T10:45:10Z</time>
      </trkpt>
      <trkpt lat="45.71248" lon="4.59147">
        <ele>694.8</ele>
        <time>2025-03-02T10:45:11Z</time>
      </trkpt>
      <trkpt lat="45.71252" lon="4.59146">
        <ele>695</ele>
        <time>2025-03-02T10:45:12Z</time>
      </trkpt>
      <trkpt lat="45.71256" lon="4.59144">
        <ele>695</ele>
        <time>2025-03-02T10:45:13Z</time>
      </trkpt>
      <trkpt lat="45.7126" lon="4.59142">
        <ele>695.2</ele>
        <time>2025-03-02T10:45:14Z</time>
      </trkpt>
      <trkpt lat="45.71263" lon="4.5914">
        <ele>695.4</ele>
        <time>2025-03-02T10:45:15Z</time>
      </trkpt>
      <trkpt lat="45.71267" lon="4.59139">
        <ele>695.6</ele>
        <time>2025-03-02T10:45:16Z</time>
      </trkpt>
      <trkpt lat="45.71271" lon="4.59137">
        <ele>695.6</ele>
        <time>2025-03-02T10:45:17Z</time>
      </trkpt>
      <trkpt lat="45.71275" lon="4.59136">
        <ele>695.6</ele>
        <time>2025-03-02T10:45:18Z</time>
      </trkpt>
      <trkpt lat="45.71279" lon="4.59135">
        <ele>695.8</ele>
        <time>2025-03-02T10:45:19Z</time>
      </trkpt>
      <trkpt lat="45.71282" lon="4.59133">
        <ele>695.8</ele>
        <time>2025-03-02T10:45:20Z</time>
      </trkpt>
      <trkpt lat="45.71285" lon="4.59132">
        <ele>696</ele>
        <time>2025-03-02T10:45:21Z</time>
      </trkpt>
      <trkpt lat="45.71289" lon="4.5913">
        <ele>696.2</ele>
        <time>2025-03-02T10:45:22Z</time>
      </trkpt>
      <trkpt lat="45.71292" lon="4.59129">
        <ele>696.4</ele>
        <time>2025-03-02T10:45:23Z</time>
      </trkpt>
      <trkpt lat="45.71294" lon="4.59128">
        <ele>696.6</ele>
        <time>2025-03-02T10:45:24Z</time>
      </trkpt>
      <trkpt lat="45.71297" lon="4.59127">
        <ele>696.8</ele>
        <time>2025-03-02T10:45:25Z</time>
      </trkpt>
      <trkpt lat="45.71299" lon="4.59126">
        <ele>697</ele>
        <time>2025-03-02T10:45:26Z</time>
      </trkpt>
      <trkpt lat="45.71302" lon="4.59126">
        <ele>697.2</ele>
        <time>2025-03-02T10:45:27Z</time>
      </trkpt>
      <trkpt lat="45.71305" lon="4.59125">
        <ele>697.2</ele>
        <time>2025-03-02T10:45:28Z</time>
      </trkpt>
      <trkpt lat="45.71307" lon="4.59125">
        <ele>697.2</ele>
        <time>2025-03-02T10:45:29Z</time>
      </trkpt>
      <trkpt lat="45.7131" lon="4.59125">
        <ele>697.2</ele>
        <time>2025-03-02T10:45:30Z</time>
      </trkpt>
      <trkpt lat="45.71312" lon="4.59125">
        <ele>697.2</ele>
        <time>2025-03-02T10:45:31Z</time>
      </trkpt>
      <trkpt lat="45.71315" lon="4.59126">
        <ele>697</ele>
        <time>2025-03-02T10:45:32Z</time>
      </trkpt>
      <trkpt lat="45.71318" lon="4.59126">
        <ele>697</ele>
        <time>2025-03-02T10:45:33Z</time>
      </trkpt>
      <trkpt lat="45.71321" lon="4.59127">
        <ele>697</ele>
        <time>2025-03-02T10:45:34Z</time>
      </trkpt>
      <trkpt lat="45.71324" lon="4.59126">
        <ele>697</ele>
        <time>2025-03-02T10:45:35Z</time>
      </trkpt>
      <trkpt lat="45.71329" lon="4.59125">
        <ele>696.8</ele>
        <time>2025-03-02T10:45:36Z</time>
      </trkpt>
      <trkpt lat="45.71335" lon="4.59124">
        <ele>696.6</ele>
        <time>2025-03-02T10:45:37Z</time>
      </trkpt>
      <trkpt lat="45.7134" lon="4.59123">
        <ele>696.2</ele>
        <time>2025-03-02T10:45:38Z</time>
      </trkpt>
      <trkpt lat="45.71347" lon="4.59123">
        <ele>695.4</ele>
        <time>2025-03-02T10:45:39Z</time>
      </trkpt>
      <trkpt lat="45.71352" lon="4.59124">
        <ele>694.4</ele>
        <time>2025-03-02T10:45:40Z</time>
      </trkpt>
      <trkpt lat="45.71359" lon="4.59126">
        <ele>693.4</ele>
        <time>2025-03-02T10:45:41Z</time>
      </trkpt>
      <trkpt lat="45.71366" lon="4.5913">
        <ele>692.6</ele>
        <time>2025-03-02T10:45:42Z</time>
      </trkpt>
      <trkpt lat="45.71374" lon="4.59137">
        <ele>691.8</ele>
        <time>2025-03-02T10:45:43Z</time>
      </trkpt>
      <trkpt lat="45.7138" lon="4.59146">
        <ele>691</ele>
        <time>2025-03-02T10:45:44Z</time>
      </trkpt>
      <trkpt lat="45.71387" lon="4.59156">
        <ele>690.2</ele>
        <time>2025-03-02T10:45:45Z</time>
      </trkpt>
      <trkpt lat="45.71394" lon="4.59164">
        <ele>689.6</ele>
        <time>2025-03-02T10:45:46Z</time>
      </trkpt>
      <trkpt lat="45.71401" lon="4.59171">
        <ele>688.2</ele>
        <time>2025-03-02T10:45:47Z</time>
      </trkpt>
      <trkpt lat="45.71409" lon="4.59176">
        <ele>687.4</ele>
        <time>2025-03-02T10:45:48Z</time>
      </trkpt>
      <trkpt lat="45.71416" lon="4.59182">
        <ele>686.8</ele>
        <time>2025-03-02T10:45:49Z</time>
      </trkpt>
      <trkpt lat="45.71421" lon="4.5919">
        <ele>686.8</ele>
        <time>2025-03-02T10:45:50Z</time>
      </trkpt>
      <trkpt lat="45.71424" lon="4.59199">
        <ele>686.6</ele>
        <time>2025-03-02T10:45:51Z</time>
      </trkpt>
      <trkpt lat="45.71425" lon="4.59209">
        <ele>686.6</ele>
        <time>2025-03-02T10:45:52Z</time>
      </trkpt>
      <trkpt lat="45.71425" lon="4.59218">
        <ele>686.6</ele>
        <time>2025-03-02T10:45:53Z</time>
      </trkpt>
      <trkpt lat="45.71425" lon="4.59227">
        <ele>686.8</ele>
        <time>2025-03-02T10:45:54Z</time>
      </trkpt>
      <trkpt lat="45.71424" lon="4.59236">
        <ele>686.8</ele>
        <time>2025-03-02T10:45:55Z</time>
      </trkpt>
      <trkpt lat="45.71423" lon="4.59243">
        <ele>686.8</ele>
        <time>2025-03-02T10:45:56Z</time>
      </trkpt>
      <trkpt lat="45.71422" lon="4.59252">
        <ele>686.6</ele>
        <time>2025-03-02T10:45:57Z</time>
      </trkpt>
      <trkpt lat="45.71421" lon="4.59264">
        <ele>686.4</ele>
        <time>2025-03-02T10:45:58Z</time>
      </trkpt>
      <trkpt lat="45.71419" lon="4.59274">
        <ele>685.2</ele>
        <time>2025-03-02T10:45:59Z</time>
      </trkpt>
      <trkpt lat="45.71419" lon="4.59281">
        <ele>685.2</ele>
        <time>2025-03-02T10:46:00Z</time>
      </trkpt>
      <trkpt lat="45.71417" lon="4.5929">
        <ele>685.2</ele>
        <time>2025-03-02T10:46:01Z</time>
      </trkpt>
      <trkpt lat="45.71416" lon="4.59297">
        <ele>685.2</ele>
        <time>2025-03-02T10:46:02Z</time>
      </trkpt>
      <trkpt lat="45.71416" lon="4.59305">
        <ele>685.8</ele>
        <time>2025-03-02T10:46:03Z</time>
      </trkpt>
      <trkpt lat="45.71415" lon="4.59313">
        <ele>686.2</ele>
        <time>2025-03-02T10:46:04Z</time>
      </trkpt>
      <trkpt lat="45.71415" lon="4.59323">
        <ele>686.4</ele>
        <time>2025-03-02T10:46:05Z</time>
      </trkpt>
      <trkpt lat="45.71414" lon="4.59331">
        <ele>686.4</ele>
        <time>2025-03-02T10:46:06Z</time>
      </trkpt>
      <trkpt lat="45.71413" lon="4.5934">
        <ele>686.4</ele>
        <time>2025-03-02T10:46:07Z</time>
      </trkpt>
      <trkpt lat="45.71413" lon="4.5935">
        <ele>686</ele>
        <time>2025-03-02T10:46:08Z</time>
      </trkpt>
      <trkpt lat="45.71413" lon="4.59361">
        <ele>685</ele>
        <time>2025-03-02T10:46:09Z</time>
      </trkpt>
      <trkpt lat="45.71413" lon="4.59371">
        <ele>683.6</ele>
        <time>2025-03-02T10:46:10Z</time>
      </trkpt>
      <trkpt lat="45.71413" lon="4.59381">
        <ele>682.6</ele>
        <time>2025-03-02T10:46:11Z</time>
      </trkpt>
      <trkpt lat="45.71414" lon="4.59391">
        <ele>682.6</ele>
        <time>2025-03-02T10:46:12Z</time>
      </trkpt>
      <trkpt lat="45.71416" lon="4.59399">
        <ele>682.6</ele>
        <time>2025-03-02T10:46:13Z</time>
      </trkpt>
      <trkpt lat="45.71417" lon="4.59407">
        <ele>682.6</ele>
        <time>2025-03-02T10:46:14Z</time>
      </trkpt>
      <trkpt lat="45.71418" lon="4.59415">
        <ele>682.6</ele>
        <time>2025-03-02T10:46:15Z</time>
      </trkpt>
      <trkpt lat="45.71419" lon="4.59421">
        <ele>682.8</ele>
        <time>2025-03-02T10:46:16Z</time>
      </trkpt>
      <trkpt lat="45.71418" lon="4.59428">
        <ele>683.2</ele>
        <time>2025-03-02T10:46:17Z</time>
      </trkpt>
      <trkpt lat="45.71418" lon="4.59435">
        <ele>684</ele>
        <time>2025-03-02T10:46:18Z</time>
      </trkpt>
      <trkpt lat="45.71419" lon="4.59441">
        <ele>684.6</ele>
        <time>2025-03-02T10:46:19Z</time>
      </trkpt>
      <trkpt lat="45.71419" lon="4.59448">
        <ele>684.8</ele>
        <time>2025-03-02T10:46:20Z</time>
      </trkpt>
      <trkpt lat="45.71419" lon="4.59454">
        <ele>685</ele>
        <time>2025-03-02T10:46:21Z</time>
      </trkpt>
      <trkpt lat="45.71419" lon="4.5946">
        <ele>685</ele>
        <time>2025-03-02T10:46:22Z</time>
      </trkpt>
      <trkpt lat="45.71419" lon="4.59467">
        <ele>685</ele>
        <time>2025-03-02T10:46:23Z</time>
      </trkpt>
      <trkpt lat="45.71419" lon="4.59474">
        <ele>685.2</ele>
        <time>2025-03-02T10:46:24Z</time>
      </trkpt>
      <trkpt lat="45.71419" lon="4.5948">
        <ele>685</ele>
        <time>2025-03-02T10:46:25Z</time>
      </trkpt>
      <trkpt lat="45.7142" lon="4.59488">
        <ele>685.2</ele>
        <time>2025-03-02T10:46:26Z</time>
      </trkpt>
      <trkpt lat="45.71419" lon="4.59496">
        <ele>685.2</ele>
        <time>2025-03-02T10:46:27Z</time>
      </trkpt>
      <trkpt lat="45.71419" lon="4.59503">
        <ele>685.2</ele>
        <time>2025-03-02T10:46:28Z</time>
      </trkpt>
      <trkpt lat="45.71419" lon="4.59511">
        <ele>685</ele>
        <time>2025-03-02T10:46:29Z</time>
      </trkpt>
      <trkpt lat="45.71418" lon="4.59519">
        <ele>685</ele>
        <time>2025-03-02T10:46:30Z</time>
      </trkpt>
      <trkpt lat="45.71417" lon="4.59527">
        <ele>685</ele>
        <time>2025-03-02T10:46:31Z</time>
      </trkpt>
      <trkpt lat="45.71416" lon="4.59535">
        <ele>684.8</ele>
        <time>2025-03-02T10:46:32Z</time>
      </trkpt>
      <trkpt lat="45.71415" lon="4.59543">
        <ele>684.6</ele>
        <time>2025-03-02T10:46:33Z</time>
      </trkpt>
      <trkpt lat="45.71415" lon="4.5955">
        <ele>684.4</ele>
        <time>2025-03-02T10:46:34Z</time>
      </trkpt>
      <trkpt lat="45.71415" lon="4.59558">
        <ele>684.4</ele>
        <time>2025-03-02T10:46:35Z</time>
      </trkpt>
      <trkpt lat="45.71415" lon="4.59565">
        <ele>684.2</ele>
        <time>2025-03-02T10:46:36Z</time>
      </trkpt>
      <trkpt lat="45.71415" lon="4.59573">
        <ele>684.2</ele>
        <time>2025-03-02T10:46:37Z</time>
      </trkpt>
      <trkpt lat="45.71415" lon="4.5958">
        <ele>684.2</ele>
        <time>2025-03-02T10:46:38Z</time>
      </trkpt>
      <trkpt lat="45.71415" lon="4.59587">
        <ele>684</ele>
        <time>2025-03-02T10:46:39Z</time>
      </trkpt>
      <trkpt lat="45.71415" lon="4.59593">
        <ele>684</ele>
        <time>2025-03-02T10:46:40Z</time>
      </trkpt>
      <trkpt lat="45.71415" lon="4.59599">
        <ele>684.2</ele>
        <time>2025-03-02T10:46:41Z</time>
      </trkpt>
      <trkpt lat="45.71415" lon="4.59606">
        <ele>684.2</ele>
        <time>2025-03-02T10:46:42Z</time>
      </trkpt>
      <trkpt lat="45.71415" lon="4.59612">
        <ele>684.2</ele>
        <time>2025-03-02T10:46:43Z</time>
      </trkpt>
      <trkpt lat="45.71416" lon="4.59618">
        <ele>684.4</ele>
        <time>2025-03-02T10:46:44Z</time>
      </trkpt>
      <trkpt lat="45.71416" lon="4.59622">
        <ele>684.6</ele>
        <time>2025-03-02T10:46:45Z</time>
      </trkpt>
      <trkpt lat="45.71417" lon="4.59628">
        <ele>685</ele>
        <time>2025-03-02T10:46:46Z</time>
      </trkpt>
      <trkpt lat="45.71418" lon="4.59632">
        <ele>685</ele>
        <time>2025-03-02T10:46:47Z</time>
      </trkpt>
      <trkpt lat="45.71419" lon="4.5964">
        <ele>685</ele>
        <time>2025-03-02T10:46:48Z</time>
      </trkpt>
      <trkpt lat="45.71421" lon="4.59646">
        <ele>685</ele>
        <time>2025-03-02T10:46:49Z</time>
      </trkpt>
      <trkpt lat="45.71422" lon="4.59652">
        <ele>685</ele>
        <time>2025-03-02T10:46:50Z</time>
      </trkpt>
      <trkpt lat="45.71424" lon="4.59657">
        <ele>685</ele>
        <time>2025-03-02T10:46:51Z</time>
      </trkpt>
      <trkpt lat="45.71425" lon="4.59663">
        <ele>684.8</ele>
        <time>2025-03-02T10:46:52Z</time>
      </trkpt>
      <trkpt lat="45.71427" lon="4.59668">
        <ele>684.6</ele>
        <time>2025-03-02T10:46:53Z</time>
      </trkpt>
      <trkpt lat="45.71429" lon="4.59674">
        <ele>684.6</ele>
        <time>2025-03-02T10:46:54Z</time>
      </trkpt>
      <trkpt lat="45.71431" lon="4.5968">
        <ele>684.6</ele>
        <time>2025-03-02T10:46:55Z</time>
      </trkpt>
      <trkpt lat="45.71433" lon="4.59686">
        <ele>684.4</ele>
        <time>2025-03-02T10:46:56Z</time>
      </trkpt>
      <trkpt lat="45.71436" lon="4.59693">
        <ele>684</ele>
        <time>2025-03-02T10:46:57Z</time>
      </trkpt>
      <trkpt lat="45.71439" lon="4.59699">
        <ele>683.8</ele>
        <time>2025-03-02T10:46:58Z</time>
      </trkpt>
      <trkpt lat="45.71443" lon="4.59704">
        <ele>683.6</ele>
        <time>2025-03-02T10:46:59Z</time>
      </trkpt>
      <trkpt lat="45.71446" lon="4.5971">
        <ele>683.4</ele>
        <time>2025-03-02T10:47:00Z</time>
      </trkpt>
      <trkpt lat="45.71449" lon="4.59715">
        <ele>683.4</ele>
        <time>2025-03-02T10:47:01Z</time>
      </trkpt>
      <trkpt lat="45.71452" lon="4.5972">
        <ele>683.4</ele>
        <time>2025-03-02T10:47:02Z</time>
      </trkpt>
      <trkpt lat="45.71455" lon="4.59724">
        <ele>683.4</ele>
        <time>2025-03-02T10:47:03Z</time>
      </trkpt>
      <trkpt lat="45.71459" lon="4.59728">
        <ele>683.4</ele>
        <time>2025-03-02T10:47:04Z</time>
      </trkpt>
      <trkpt lat="45.71462" lon="4.59732">
        <ele>683.4</ele>
        <time>2025-03-02T10:47:05Z</time>
      </trkpt>
      <trkpt lat="45.71466" lon="4.59736">
        <ele>683.8</ele>
        <time>2025-03-02T10:47:06Z</time>
      </trkpt>
      <trkpt lat="45.71469" lon="4.59741">
        <ele>684</ele>
        <time>2025-03-02T10:47:07Z</time>
      </trkpt>
      <trkpt lat="45.71472" lon="4.59745">
        <ele>684</ele>
        <time>2025-03-02T10:47:08Z</time>
      </trkpt>
      <trkpt lat="45.71474" lon="4.59749">
        <ele>684</ele>
        <time>2025-03-02T10:47:09Z</time>
      </trkpt>
      <trkpt lat="45.71477" lon="4.59754">
        <ele>684</ele>
        <time>2025-03-02T10:47:10Z</time>
      </trkpt>
      <trkpt lat="45.7148" lon="4.59758">
        <ele>684</ele>
        <time>2025-03-02T10:47:11Z</time>
      </trkpt>
      <trkpt lat="45.71484" lon="4.59763">
        <ele>684</ele>
        <time>2025-03-02T10:47:12Z</time>
      </trkpt>
      <trkpt lat="45.71487" lon="4.59768">
        <ele>683.8</ele>
        <time>2025-03-02T10:47:13Z</time>
      </trkpt>
      <trkpt lat="45.7149" lon="4.59773">
        <ele>683.8</ele>
        <time>2025-03-02T10:47:14Z</time>
      </trkpt>
      <trkpt lat="45.71493" lon="4.59777">
        <ele>683.8</ele>
        <time>2025-03-02T10:47:15Z</time>
      </trkpt>
      <trkpt lat="45.71496" lon="4.59782">
        <ele>683.8</ele>
        <time>2025-03-02T10:47:16Z</time>
      </trkpt>
      <trkpt lat="45.71498" lon="4.59786">
        <ele>683.6</ele>
        <time>2025-03-02T10:47:17Z</time>
      </trkpt>
      <trkpt lat="45.71503" lon="4.59792">
        <ele>683.6</ele>
        <time>2025-03-02T10:47:18Z</time>
      </trkpt>
      <trkpt lat="45.71506" lon="4.59796">
        <ele>683.4</ele>
        <time>2025-03-02T10:47:19Z</time>
      </trkpt>
      <trkpt lat="45.7151" lon="4.59799">
        <ele>683.4</ele>
        <time>2025-03-02T10:47:20Z</time>
      </trkpt>
      <trkpt lat="45.71515" lon="4.59802">
        <ele>683.2</ele>
        <time>2025-03-02T10:47:21Z</time>
      </trkpt>
      <trkpt lat="45.71519" lon="4.59804">
        <ele>683.2</ele>
        <time>2025-03-02T10:47:22Z</time>
      </trkpt>
      <trkpt lat="45.71523" lon="4.59806">
        <ele>683.2</ele>
        <time>2025-03-02T10:47:23Z</time>
      </trkpt>
      <trkpt lat="45.71527" lon="4.59807">
        <ele>683.2</ele>
        <time>2025-03-02T10:47:24Z</time>
      </trkpt>
      <trkpt lat="45.71531" lon="4.59807">
        <ele>683.4</ele>
        <time>2025-03-02T10:47:25Z</time>
      </trkpt>
      <trkpt lat="45.71536" lon="4.59808">
        <ele>683.6</ele>
        <time>2025-03-02T10:47:26Z</time>
      </trkpt>
      <trkpt lat="45.71539" lon="4.59809">
        <ele>683.6</ele>
        <time>2025-03-02T10:47:27Z</time>
      </trkpt>
      <trkpt lat="45.71544" lon="4.59808">
        <ele>683.6</ele>
        <time>2025-03-02T10:47:28Z</time>
      </trkpt>
      <trkpt lat="45.71548" lon="4.59806">
        <ele>683.6</ele>
        <time>2025-03-02T10:47:29Z</time>
      </trkpt>
      <trkpt lat="45.71552" lon="4.59805">
        <ele>683.8</ele>
        <time>2025-03-02T10:47:30Z</time>
      </trkpt>
      <trkpt lat="45.71555" lon="4.59803">
        <ele>684.2</ele>
        <time>2025-03-02T10:47:31Z</time>
      </trkpt>
      <trkpt lat="45.71558" lon="4.59801">
        <ele>684.6</ele>
        <time>2025-03-02T10:47:32Z</time>
      </trkpt>
      <trkpt lat="45.7156" lon="4.59799">
        <ele>684.8</ele>
        <time>2025-03-02T10:47:33Z</time>
      </trkpt>
      <trkpt lat="45.71562" lon="4.59797">
        <ele>685</ele>
        <time>2025-03-02T10:47:34Z</time>
      </trkpt>
      <trkpt lat="45.71565" lon="4.59795">
        <ele>685.4</ele>
        <time>2025-03-02T10:47:35Z</time>
      </trkpt>
      <trkpt lat="45.71569" lon="4.59794">
        <ele>685.6</ele>
        <time>2025-03-02T10:47:36Z</time>
      </trkpt>
      <trkpt lat="45.71573" lon="4.59791">
        <ele>685.8</ele>
        <time>2025-03-02T10:47:37Z</time>
      </trkpt>
      <trkpt lat="45.71576" lon="4.5979">
        <ele>685.8</ele>
        <time>2025-03-02T10:47:38Z</time>
      </trkpt>
      <trkpt lat="45.71582" lon="4.59787">
        <ele>686</ele>
        <time>2025-03-02T10:47:39Z</time>
      </trkpt>
      <trkpt lat="45.71587" lon="4.59785">
        <ele>686</ele>
        <time>2025-03-02T10:47:40Z</time>
      </trkpt>
      <trkpt lat="45.71592" lon="4.59782">
        <ele>686</ele>
        <time>2025-03-02T10:47:41Z</time>
      </trkpt>
      <trkpt lat="45.71596" lon="4.59779">
        <ele>686</ele>
        <time>2025-03-02T10:47:42Z</time>
      </trkpt>
      <trkpt lat="45.71599" lon="4.59777">
        <ele>686</ele>
        <time>2025-03-02T10:47:43Z</time>
      </trkpt>
      <trkpt lat="45.71601" lon="4.59775">
        <ele>686.2</ele>
        <time>2025-03-02T10:47:44Z</time>
      </trkpt>
      <trkpt lat="45.71606" lon="4.59772">
        <ele>686.4</ele>
        <time>2025-03-02T10:47:45Z</time>
      </trkpt>
      <trkpt lat="45.71609" lon="4.59771">
        <ele>686.8</ele>
        <time>2025-03-02T10:47:46Z</time>
      </trkpt>
      <trkpt lat="45.71612" lon="4.5977">
        <ele>687</ele>
        <time>2025-03-02T10:47:47Z</time>
      </trkpt>
      <trkpt lat="45.71614" lon="4.5977">
        <ele>687.4</ele>
        <time>2025-03-02T10:47:48Z</time>
      </trkpt>
      <trkpt lat="45.71617" lon="4.59769">
        <ele>687.6</ele>
        <time>2025-03-02T10:47:49Z</time>
      </trkpt>
      <trkpt lat="45.7162" lon="4.59768">
        <ele>687.6</ele>
        <time>2025-03-02T10:47:50Z</time>
      </trkpt>
      <trkpt lat="45.71624" lon="4.59766">
        <ele>687.8</ele>
        <time>2025-03-02T10:47:51Z</time>
      </trkpt>
      <trkpt lat="45.71627" lon="4.59763">
        <ele>687.8</ele>
        <time>2025-03-02T10:47:52Z</time>
      </trkpt>
      <trkpt lat="45.7163" lon="4.5976">
        <ele>687.6</ele>
        <time>2025-03-02T10:47:53Z</time>
      </trkpt>
      <trkpt lat="45.71634" lon="4.59757">
        <ele>687</ele>
        <time>2025-03-02T10:47:54Z</time>
      </trkpt>
      <trkpt lat="45.71637" lon="4.59753">
        <ele>686.6</ele>
        <time>2025-03-02T10:47:55Z</time>
      </trkpt>
      <trkpt lat="45.71642" lon="4.59749">
        <ele>685.6</ele>
        <time>2025-03-02T10:47:56Z</time>
      </trkpt>
      <trkpt lat="45.71648" lon="4.59745">
        <ele>684.8</ele>
        <time>2025-03-02T10:47:57Z</time>
      </trkpt>
      <trkpt lat="45.71655" lon="4.59741">
        <ele>684.2</ele>
        <time>2025-03-02T10:47:58Z</time>
      </trkpt>
      <trkpt lat="45.71661" lon="4.59737">
        <ele>683.8</ele>
        <time>2025-03-02T10:47:59Z</time>
      </trkpt>
      <trkpt lat="45.71665" lon="4.59733">
        <ele>683.6</ele>
        <time>2025-03-02T10:48:00Z</time>
      </trkpt>
      <trkpt lat="45.71671" lon="4.59729">
        <ele>683.4</ele>
        <time>2025-03-02T10:48:01Z</time>
      </trkpt>
      <trkpt lat="45.71675" lon="4.59727">
        <ele>683.4</ele>
        <time>2025-03-02T10:48:02Z</time>
      </trkpt>
      <trkpt lat="45.71679" lon="4.59725">
        <ele>683.4</ele>
        <time>2025-03-02T10:48:03Z</time>
      </trkpt>
      <trkpt lat="45.71684" lon="4.59724">
        <ele>683.4</ele>
        <time>2025-03-02T10:48:04Z</time>
      </trkpt>
      <trkpt lat="45.71688" lon="4.59724">
        <ele>683.4</ele>
        <time>2025-03-02T10:48:05Z</time>
      </trkpt>
      <trkpt lat="45.71692" lon="4.59724">
        <ele>683.8</ele>
        <time>2025-03-02T10:48:06Z</time>
      </trkpt>
      <trkpt lat="45.71696" lon="4.59724">
        <ele>684.2</ele>
        <time>2025-03-02T10:48:07Z</time>
      </trkpt>
      <trkpt lat="45.717" lon="4.59723">
        <ele>684.4</ele>
        <time>2025-03-02T10:48:08Z</time>
      </trkpt>
      <trkpt lat="45.71706" lon="4.59722">
        <ele>684.6</ele>
        <time>2025-03-02T10:48:09Z</time>
      </trkpt>
      <trkpt lat="45.71712" lon="4.59721">
        <ele>684.6</ele>
        <time>2025-03-02T10:48:10Z</time>
      </trkpt>
      <trkpt lat="45.71719" lon="4.59719">
        <ele>684.6</ele>
        <time>2025-03-02T10:48:11Z</time>
      </trkpt>
      <trkpt lat="45.71726" lon="4.59715">
        <ele>684.6</ele>
        <time>2025-03-02T10:48:12Z</time>
      </trkpt>
      <trkpt lat="45.71732" lon="4.59713">
        <ele>684.6</ele>
        <time>2025-03-02T10:48:13Z</time>
      </trkpt>
      <trkpt lat="45.71738" lon="4.5971">
        <ele>684.4</ele>
        <time>2025-03-02T10:48:14Z</time>
      </trkpt>
      <trkpt lat="45.71744" lon="4.59708">
        <ele>684.4</ele>
        <time>2025-03-02T10:48:15Z</time>
      </trkpt>
      <trkpt lat="45.7175" lon="4.59705">
        <ele>684.4</ele>
        <time>2025-03-02T10:48:16Z</time>
      </trkpt>
      <trkpt lat="45.71755" lon="4.59702">
        <ele>684.4</ele>
        <time>2025-03-02T10:48:17Z</time>
      </trkpt>
      <trkpt lat="45.7176" lon="4.59697">
        <ele>684.4</ele>
        <time>2025-03-02T10:48:18Z</time>
      </trkpt>
      <trkpt lat="45.71764" lon="4.59693">
        <ele>684.4</ele>
        <time>2025-03-02T10:48:19Z</time>
      </trkpt>
      <trkpt lat="45.71771" lon="4.59691">
        <ele>684.4</ele>
        <time>2025-03-02T10:48:20Z</time>
      </trkpt>
      <trkpt lat="45.71775" lon="4.59689">
        <ele>684.6</ele>
        <time>2025-03-02T10:48:21Z</time>
      </trkpt>
      <trkpt lat="45.7178" lon="4.59686">
        <ele>684.6</ele>
        <time>2025-03-02T10:48:22Z</time>
      </trkpt>
      <trkpt lat="45.71786" lon="4.59682">
        <ele>684.4</ele>
        <time>2025-03-02T10:48:23Z</time>
      </trkpt>
      <trkpt lat="45.71791" lon="4.59678">
        <ele>684.6</ele>
        <time>2025-03-02T10:48:24Z</time>
      </trkpt>
      <trkpt lat="45.71796" lon="4.59677">
        <ele>684.6</ele>
        <time>2025-03-02T10:48:25Z</time>
      </trkpt>
      <trkpt lat="45.71801" lon="4.59674">
        <ele>684.6</ele>
        <time>2025-03-02T10:48:26Z</time>
      </trkpt>
      <trkpt lat="45.71807" lon="4.59672">
        <ele>684.6</ele>
        <time>2025-03-02T10:48:27Z</time>
      </trkpt>
      <trkpt lat="45.71812" lon="4.59669">
        <ele>684.4</ele>
        <time>2025-03-02T10:48:28Z</time>
      </trkpt>
      <trkpt lat="45.71817" lon="4.59668">
        <ele>684.4</ele>
        <time>2025-03-02T10:48:29Z</time>
      </trkpt>
      <trkpt lat="45.71823" lon="4.59666">
        <ele>684.4</ele>
        <time>2025-03-02T10:48:30Z</time>
      </trkpt>
      <trkpt lat="45.71829" lon="4.59666">
        <ele>684.4</ele>
        <time>2025-03-02T10:48:31Z</time>
      </trkpt>
      <trkpt lat="45.71833" lon="4.59666">
        <ele>684.4</ele>
        <time>2025-03-02T10:48:32Z</time>
      </trkpt>
      <trkpt lat="45.71837" lon="4.59666">
        <ele>684.2</ele>
        <time>2025-03-02T10:48:33Z</time>
      </trkpt>
      <trkpt lat="45.71842" lon="4.59663">
        <ele>684</ele>
        <time>2025-03-02T10:48:34Z</time>
      </trkpt>
      <trkpt lat="45.71847" lon="4.59661">
        <ele>683.8</ele>
        <time>2025-03-02T10:48:35Z</time>
      </trkpt>
      <trkpt lat="45.71852" lon="4.5966">
        <ele>683</ele>
        <time>2025-03-02T10:48:36Z</time>
      </trkpt>
      <trkpt lat="45.71857" lon="4.59659">
        <ele>683</ele>
        <time>2025-03-02T10:48:37Z</time>
      </trkpt>
      <trkpt lat="45.71863" lon="4.59658">
        <ele>682.4</ele>
        <time>2025-03-02T10:48:38Z</time>
      </trkpt>
      <trkpt lat="45.71869" lon="4.59658">
        <ele>682.2</ele>
        <time>2025-03-02T10:48:39Z</time>
      </trkpt>
      <trkpt lat="45.71874" lon="4.5966">
        <ele>682.2</ele>
        <time>2025-03-02T10:48:40Z</time>
      </trkpt>
      <trkpt lat="45.71878" lon="4.59662">
        <ele>682</ele>
        <time>2025-03-02T10:48:41Z</time>
      </trkpt>
      <trkpt lat="45.71882" lon="4.59665">
        <ele>681.8</ele>
        <time>2025-03-02T10:48:42Z</time>
      </trkpt>
      <trkpt lat="45.71885" lon="4.59668">
        <ele>681.8</ele>
        <time>2025-03-02T10:48:43Z</time>
      </trkpt>
      <trkpt lat="45.71888" lon="4.5967">
        <ele>681.8</ele>
        <time>2025-03-02T10:48:44Z</time>
      </trkpt>
      <trkpt lat="45.7189" lon="4.59673">
        <ele>682.2</ele>
        <time>2025-03-02T10:48:45Z</time>
      </trkpt>
      <trkpt lat="45.71892" lon="4.59678">
        <ele>682.2</ele>
        <time>2025-03-02T10:48:46Z</time>
      </trkpt>
      <trkpt lat="45.71893" lon="4.59682">
        <ele>682.2</ele>
        <time>2025-03-02T10:48:47Z</time>
      </trkpt>
      <trkpt lat="45.71895" lon="4.59686">
        <ele>682.2</ele>
        <time>2025-03-02T10:48:48Z</time>
      </trkpt>
      <trkpt lat="45.71896" lon="4.59691">
        <ele>682.2</ele>
        <time>2025-03-02T10:48:49Z</time>
      </trkpt>
      <trkpt lat="45.71897" lon="4.59696">
        <ele>681.8</ele>
        <time>2025-03-02T10:48:50Z</time>
      </trkpt>
      <trkpt lat="45.71899" lon="4.59702">
        <ele>681.6</ele>
        <time>2025-03-02T10:48:51Z</time>
      </trkpt>
      <trkpt lat="45.719" lon="4.59707">
        <ele>681.6</ele>
        <time>2025-03-02T10:48:52Z</time>
      </trkpt>
      <trkpt lat="45.71902" lon="4.59714">
        <ele>681.6</ele>
        <time>2025-03-02T10:48:53Z</time>
      </trkpt>
      <trkpt lat="45.71904" lon="4.5972">
        <ele>681.6</ele>
        <time>2025-03-02T10:48:54Z</time>
      </trkpt>
      <trkpt lat="45.71905" lon="4.59725">
        <ele>681.6</ele>
        <time>2025-03-02T10:48:55Z</time>
      </trkpt>
      <trkpt lat="45.71907" lon="4.59732">
        <ele>681.6</ele>
        <time>2025-03-02T10:48:56Z</time>
      </trkpt>
      <trkpt lat="45.71908" lon="4.5974">
        <ele>681.6</ele>
        <time>2025-03-02T10:48:57Z</time>
      </trkpt>
      <trkpt lat="45.71908" lon="4.59745">
        <ele>681.6</ele>
        <time>2025-03-02T10:48:58Z</time>
      </trkpt>
      <trkpt lat="45.71909" lon="4.59752">
        <ele>681.6</ele>
        <time>2025-03-02T10:48:59Z</time>
      </trkpt>
      <trkpt lat="45.7191" lon="4.59759">
        <ele>681.6</ele>
        <time>2025-03-02T10:49:00Z</time>
      </trkpt>
      <trkpt lat="45.7191" lon="4.59766">
        <ele>681.6</ele>
        <time>2025-03-02T10:49:01Z</time>
      </trkpt>
      <trkpt lat="45.7191" lon="4.59771">
        <ele>681.8</ele>
        <time>2025-03-02T10:49:02Z</time>
      </trkpt>
      <trkpt lat="45.7191" lon="4.59777">
        <ele>682.2</ele>
        <time>2025-03-02T10:49:03Z</time>
      </trkpt>
      <trkpt lat="45.7191" lon="4.59783">
        <ele>682.6</ele>
        <time>2025-03-02T10:49:04Z</time>
      </trkpt>
      <trkpt lat="45.71909" lon="4.59788">
        <ele>683.2</ele>
        <time>2025-03-02T10:49:05Z</time>
      </trkpt>
      <trkpt lat="45.71909" lon="4.59795">
        <ele>683.4</ele>
        <time>2025-03-02T10:49:06Z</time>
      </trkpt>
      <trkpt lat="45.71908" lon="4.59802">
        <ele>683.4</ele>
        <time>2025-03-02T10:49:07Z</time>
      </trkpt>
      <trkpt lat="45.71908" lon="4.59809">
        <ele>683.4</ele>
        <time>2025-03-02T10:49:08Z</time>
      </trkpt>
      <trkpt lat="45.71907" lon="4.59817">
        <ele>683.4</ele>
        <time>2025-03-02T10:49:09Z</time>
      </trkpt>
      <trkpt lat="45.71905" lon="4.59824">
        <ele>683.4</ele>
        <time>2025-03-02T10:49:10Z</time>
      </trkpt>
      <trkpt lat="45.71904" lon="4.59831">
        <ele>683.2</ele>
        <time>2025-03-02T10:49:11Z</time>
      </trkpt>
      <trkpt lat="45.71902" lon="4.59838">
        <ele>683</ele>
        <time>2025-03-02T10:49:12Z</time>
      </trkpt>
      <trkpt lat="45.719" lon="4.59845">
        <ele>682.8</ele>
        <time>2025-03-02T10:49:13Z</time>
      </trkpt>
      <trkpt lat="45.71897" lon="4.59852">
        <ele>682.4</ele>
        <time>2025-03-02T10:49:14Z</time>
      </trkpt>
      <trkpt lat="45.71894" lon="4.59859">
        <ele>682</ele>
        <time>2025-03-02T10:49:15Z</time>
      </trkpt>
      <trkpt lat="45.71892" lon="4.59866">
        <ele>682</ele>
        <time>2025-03-02T10:49:16Z</time>
      </trkpt>
      <trkpt lat="45.71891" lon="4.59873">
        <ele>681.6</ele>
        <time>2025-03-02T10:49:17Z</time>
      </trkpt>
      <trkpt lat="45.7189" lon="4.5988">
        <ele>681.4</ele>
        <time>2025-03-02T10:49:18Z</time>
      </trkpt>
      <trkpt lat="45.71888" lon="4.5989">
        <ele>681.4</ele>
        <time>2025-03-02T10:49:19Z</time>
      </trkpt>
      <trkpt lat="45.71888" lon="4.59897">
        <ele>681.4</ele>
        <time>2025-03-02T10:49:20Z</time>
      </trkpt>
      <trkpt lat="45.71887" lon="4.59905">
        <ele>681.4</ele>
        <time>2025-03-02T10:49:21Z</time>
      </trkpt>
      <trkpt lat="45.71887" lon="4.59914">
        <ele>681.4</ele>
        <time>2025-03-02T10:49:22Z</time>
      </trkpt>
      <trkpt lat="45.71887" lon="4.59921">
        <ele>681.6</ele>
        <time>2025-03-02T10:49:23Z</time>
      </trkpt>
      <trkpt lat="45.71887" lon="4.59929">
        <ele>681.6</ele>
        <time>2025-03-02T10:49:24Z</time>
      </trkpt>
      <trkpt lat="45.71888" lon="4.59937">
        <ele>681.6</ele>
        <time>2025-03-02T10:49:25Z</time>
      </trkpt>
      <trkpt lat="45.71888" lon="4.59944">
        <ele>681.6</ele>
        <time>2025-03-02T10:49:26Z</time>
      </trkpt>
      <trkpt lat="45.71888" lon="4.59952">
        <ele>681.6</ele>
        <time>2025-03-02T10:49:27Z</time>
      </trkpt>
      <trkpt lat="45.71888" lon="4.5996">
        <ele>681.6</ele>
        <time>2025-03-02T10:49:28Z</time>
      </trkpt>
      <trkpt lat="45.71888" lon="4.59968">
        <ele>681.6</ele>
        <time>2025-03-02T10:49:29Z</time>
      </trkpt>
      <trkpt lat="45.71888" lon="4.59977">
        <ele>681.4</ele>
        <time>2025-03-02T10:49:30Z</time>
      </trkpt>
      <trkpt lat="45.71889" lon="4.59985">
        <ele>681.2</ele>
        <time>2025-03-02T10:49:31Z</time>
      </trkpt>
      <trkpt lat="45.71889" lon="4.59994">
        <ele>681.2</ele>
        <time>2025-03-02T10:49:32Z</time>
      </trkpt>
      <trkpt lat="45.7189" lon="4.60003">
        <ele>680.6</ele>
        <time>2025-03-02T10:49:33Z</time>
      </trkpt>
      <trkpt lat="45.71891" lon="4.60012">
        <ele>680.4</ele>
        <time>2025-03-02T10:49:34Z</time>
      </trkpt>
      <trkpt lat="45.71892" lon="4.60021">
        <ele>680</ele>
        <time>2025-03-02T10:49:35Z</time>
      </trkpt>
      <trkpt lat="45.71894" lon="4.60029">
        <ele>679.8</ele>
        <time>2025-03-02T10:49:36Z</time>
      </trkpt>
      <trkpt lat="45.71896" lon="4.60037">
        <ele>679.6</ele>
        <time>2025-03-02T10:49:37Z</time>
      </trkpt>
      <trkpt lat="45.71898" lon="4.60045">
        <ele>679.6</ele>
        <time>2025-03-02T10:49:38Z</time>
      </trkpt>
      <trkpt lat="45.71899" lon="4.60051">
        <ele>679.6</ele>
        <time>2025-03-02T10:49:39Z</time>
      </trkpt>
      <trkpt lat="45.71901" lon="4.60059">
        <ele>679.6</ele>
        <time>2025-03-02T10:49:40Z</time>
      </trkpt>
      <trkpt lat="45.71903" lon="4.60066">
        <ele>679.8</ele>
        <time>2025-03-02T10:49:41Z</time>
      </trkpt>
      <trkpt lat="45.71905" lon="4.60072">
        <ele>680</ele>
        <time>2025-03-02T10:49:42Z</time>
      </trkpt>
      <trkpt lat="45.71907" lon="4.60077">
        <ele>680.4</ele>
        <time>2025-03-02T10:49:43Z</time>
      </trkpt>
      <trkpt lat="45.71909" lon="4.60082">
        <ele>680.8</ele>
        <time>2025-03-02T10:49:44Z</time>
      </trkpt>
      <trkpt lat="45.71912" lon="4.60088">
        <ele>681</ele>
        <time>2025-03-02T10:49:45Z</time>
      </trkpt>
      <trkpt lat="45.71914" lon="4.60093">
        <ele>681.2</ele>
        <time>2025-03-02T10:49:46Z</time>
      </trkpt>
      <trkpt lat="45.71917" lon="4.60099">
        <ele>681.2</ele>
        <time>2025-03-02T10:49:47Z</time>
      </trkpt>
      <trkpt lat="45.71921" lon="4.60104">
        <ele>681.2</ele>
        <time>2025-03-02T10:49:48Z</time>
      </trkpt>
      <trkpt lat="45.71925" lon="4.60108">
        <ele>681</ele>
        <time>2025-03-02T10:49:49Z</time>
      </trkpt>
      <trkpt lat="45.71929" lon="4.60112">
        <ele>680.8</ele>
        <time>2025-03-02T10:49:50Z</time>
      </trkpt>
      <trkpt lat="45.71934" lon="4.60115">
        <ele>680.8</ele>
        <time>2025-03-02T10:49:51Z</time>
      </trkpt>
      <trkpt lat="45.71939" lon="4.60117">
        <ele>680.6</ele>
        <time>2025-03-02T10:49:52Z</time>
      </trkpt>
      <trkpt lat="45.71944" lon="4.60117">
        <ele>680.6</ele>
        <time>2025-03-02T10:49:53Z</time>
      </trkpt>
      <trkpt lat="45.71948" lon="4.60118">
        <ele>680.6</ele>
        <time>2025-03-02T10:49:54Z</time>
      </trkpt>
      <trkpt lat="45.71952" lon="4.60119">
        <ele>680.6</ele>
        <time>2025-03-02T10:49:55Z</time>
      </trkpt>
      <trkpt lat="45.71955" lon="4.6012">
        <ele>680.6</ele>
        <time>2025-03-02T10:49:56Z</time>
      </trkpt>
      <trkpt lat="45.71958" lon="4.60121">
        <ele>681</ele>
        <time>2025-03-02T10:49:57Z</time>
      </trkpt>
      <trkpt lat="45.71961" lon="4.60122">
        <ele>681.4</ele>
        <time>2025-03-02T10:49:58Z</time>
      </trkpt>
      <trkpt lat="45.71963" lon="4.60122">
        <ele>681.6</ele>
        <time>2025-03-02T10:49:59Z</time>
      </trkpt>
      <trkpt lat="45.71965" lon="4.60123">
        <ele>682</ele>
        <time>2025-03-02T10:50:00Z</time>
      </trkpt>
      <trkpt lat="45.71967" lon="4.60123">
        <ele>682</ele>
        <time>2025-03-02T10:50:01Z</time>
      </trkpt>
      <trkpt lat="45.71969" lon="4.60123">
        <ele>682.2</ele>
        <time>2025-03-02T10:50:02Z</time>
      </trkpt>
      <trkpt lat="45.7197" lon="4.60123">
        <ele>682.8</ele>
        <time>2025-03-02T10:50:03Z</time>
      </trkpt>
      <trkpt lat="45.71971" lon="4.60122">
        <ele>683</ele>
        <time>2025-03-02T10:50:04Z</time>
      </trkpt>
      <trkpt lat="45.71973" lon="4.60122">
        <ele>683</ele>
        <time>2025-03-02T10:50:05Z</time>
      </trkpt>
      <trkpt lat="45.71974" lon="4.60122">
        <ele>683</ele>
        <time>2025-03-02T10:50:06Z</time>
      </trkpt>
      <trkpt lat="45.71975" lon="4.60122">
        <ele>683</ele>
        <time>2025-03-02T10:50:07Z</time>
      </trkpt>
      <trkpt lat="45.71977" lon="4.60122">
        <ele>683</ele>
        <time>2025-03-02T10:50:08Z</time>
      </trkpt>
      <trkpt lat="45.71979" lon="4.60123">
        <ele>683</ele>
        <time>2025-03-02T10:50:09Z</time>
      </trkpt>
      <trkpt lat="45.7198" lon="4.60124">
        <ele>683</ele>
        <time>2025-03-02T10:50:10Z</time>
      </trkpt>
      <trkpt lat="45.71983" lon="4.60124">
        <ele>683</ele>
        <time>2025-03-02T10:50:11Z</time>
      </trkpt>
      <trkpt lat="45.71986" lon="4.60125">
        <ele>682.6</ele>
        <time>2025-03-02T10:50:12Z</time>
      </trkpt>
      <trkpt lat="45.7199" lon="4.60126">
        <ele>682.4</ele>
        <time>2025-03-02T10:50:13Z</time>
      </trkpt>
      <trkpt lat="45.71993" lon="4.60126">
        <ele>681.8</ele>
        <time>2025-03-02T10:50:14Z</time>
      </trkpt>
      <trkpt lat="45.71997" lon="4.60125">
        <ele>681.4</ele>
        <time>2025-03-02T10:50:15Z</time>
      </trkpt>
      <trkpt lat="45.72002" lon="4.60124">
        <ele>681</ele>
        <time>2025-03-02T10:50:16Z</time>
      </trkpt>
      <trkpt lat="45.72005" lon="4.60123">
        <ele>680.6</ele>
        <time>2025-03-02T10:50:17Z</time>
      </trkpt>
      <trkpt lat="45.72009" lon="4.60123">
        <ele>680.2</ele>
        <time>2025-03-02T10:50:18Z</time>
      </trkpt>
      <trkpt lat="45.72014" lon="4.60124">
        <ele>679.8</ele>
        <time>2025-03-02T10:50:19Z</time>
      </trkpt>
      <trkpt lat="45.7202" lon="4.60125">
        <ele>679.4</ele>
        <time>2025-03-02T10:50:20Z</time>
      </trkpt>
      <trkpt lat="45.72026" lon="4.60125">
        <ele>679.2</ele>
        <time>2025-03-02T10:50:21Z</time>
      </trkpt>
      <trkpt lat="45.72033" lon="4.60126">
        <ele>679</ele>
        <time>2025-03-02T10:50:22Z</time>
      </trkpt>
      <trkpt lat="45.72037" lon="4.60127">
        <ele>679</ele>
        <time>2025-03-02T10:50:23Z</time>
      </trkpt>
      <trkpt lat="45.72043" lon="4.60128">
        <ele>679</ele>
        <time>2025-03-02T10:50:24Z</time>
      </trkpt>
      <trkpt lat="45.72049" lon="4.60127">
        <ele>679</ele>
        <time>2025-03-02T10:50:25Z</time>
      </trkpt>
      <trkpt lat="45.72056" lon="4.60126">
        <ele>679</ele>
        <time>2025-03-02T10:50:26Z</time>
      </trkpt>
      <trkpt lat="45.72063" lon="4.60125">
        <ele>679.2</ele>
        <time>2025-03-02T10:50:27Z</time>
      </trkpt>
      <trkpt lat="45.7207" lon="4.60126">
        <ele>679.2</ele>
        <time>2025-03-02T10:50:28Z</time>
      </trkpt>
      <trkpt lat="45.72076" lon="4.60129">
        <ele>679.2</ele>
        <time>2025-03-02T10:50:29Z</time>
      </trkpt>
      <trkpt lat="45.7208" lon="4.60134">
        <ele>679.4</ele>
        <time>2025-03-02T10:50:30Z</time>
      </trkpt>
      <trkpt lat="45.72083" lon="4.60142">
        <ele>679.4</ele>
        <time>2025-03-02T10:50:31Z</time>
      </trkpt>
      <trkpt lat="45.72085" lon="4.6015">
        <ele>679.2</ele>
        <time>2025-03-02T10:50:32Z</time>
      </trkpt>
      <trkpt lat="45.72085" lon="4.60157">
        <ele>679</ele>
        <time>2025-03-02T10:50:33Z</time>
      </trkpt>
      <trkpt lat="45.72085" lon="4.60165">
        <ele>678.8</ele>
        <time>2025-03-02T10:50:34Z</time>
      </trkpt>
      <trkpt lat="45.72086" lon="4.60173">
        <ele>678.8</ele>
        <time>2025-03-02T10:50:35Z</time>
      </trkpt>
      <trkpt lat="45.72088" lon="4.60181">
        <ele>678.6</ele>
        <time>2025-03-02T10:50:36Z</time>
      </trkpt>
      <trkpt lat="45.7209" lon="4.60189">
        <ele>678.6</ele>
        <time>2025-03-02T10:50:37Z</time>
      </trkpt>
      <trkpt lat="45.72092" lon="4.60197">
        <ele>678.6</ele>
        <time>2025-03-02T10:50:38Z</time>
      </trkpt>
      <trkpt lat="45.72095" lon="4.60203">
        <ele>678.8</ele>
        <time>2025-03-02T10:50:39Z</time>
      </trkpt>
      <trkpt lat="45.72099" lon="4.60209">
        <ele>679.2</ele>
        <time>2025-03-02T10:50:40Z</time>
      </trkpt>
      <trkpt lat="45.72101" lon="4.60214">
        <ele>679.4</ele>
        <time>2025-03-02T10:50:41Z</time>
      </trkpt>
      <trkpt lat="45.72104" lon="4.6022">
        <ele>679.4</ele>
        <time>2025-03-02T10:50:42Z</time>
      </trkpt>
      <trkpt lat="45.72107" lon="4.60227">
        <ele>679.6</ele>
        <time>2025-03-02T10:50:43Z</time>
      </trkpt>
      <trkpt lat="45.72112" lon="4.60234">
        <ele>679.8</ele>
        <time>2025-03-02T10:50:44Z</time>
      </trkpt>
      <trkpt lat="45.72115" lon="4.6024">
        <ele>679.8</ele>
        <time>2025-03-02T10:50:45Z</time>
      </trkpt>
      <trkpt lat="45.72118" lon="4.60246">
        <ele>679.8</ele>
        <time>2025-03-02T10:50:46Z</time>
      </trkpt>
      <trkpt lat="45.72121" lon="4.60253">
        <ele>680</ele>
        <time>2025-03-02T10:50:47Z</time>
      </trkpt>
      <trkpt lat="45.72123" lon="4.6026">
        <ele>680</ele>
        <time>2025-03-02T10:50:48Z</time>
      </trkpt>
      <trkpt lat="45.72124" lon="4.60268">
        <ele>680</ele>
        <time>2025-03-02T10:50:49Z</time>
      </trkpt>
      <trkpt lat="45.72125" lon="4.60275">
        <ele>680.2</ele>
        <time>2025-03-02T10:50:50Z</time>
      </trkpt>
      <trkpt lat="45.72124" lon="4.60282">
        <ele>680.2</ele>
        <time>2025-03-02T10:50:51Z</time>
      </trkpt>
      <trkpt lat="45.72123" lon="4.60289">
        <ele>680.2</ele>
        <time>2025-03-02T10:50:52Z</time>
      </trkpt>
      <trkpt lat="45.72121" lon="4.60295">
        <ele>680</ele>
        <time>2025-03-02T10:50:53Z</time>
      </trkpt>
      <trkpt lat="45.7212" lon="4.60302">
        <ele>680</ele>
        <time>2025-03-02T10:50:54Z</time>
      </trkpt>
      <trkpt lat="45.72118" lon="4.60308">
        <ele>680</ele>
        <time>2025-03-02T10:50:55Z</time>
      </trkpt>
      <trkpt lat="45.72117" lon="4.60315">
        <ele>680</ele>
        <time>2025-03-02T10:50:56Z</time>
      </trkpt>
      <trkpt lat="45.72116" lon="4.60323">
        <ele>680</ele>
        <time>2025-03-02T10:50:57Z</time>
      </trkpt>
      <trkpt lat="45.72115" lon="4.60329">
        <ele>680.2</ele>
        <time>2025-03-02T10:50:58Z</time>
      </trkpt>
      <trkpt lat="45.72114" lon="4.60334">
        <ele>680.2</ele>
        <time>2025-03-02T10:50:59Z</time>
      </trkpt>
      <trkpt lat="45.72113" lon="4.60341">
        <ele>680.4</ele>
        <time>2025-03-02T10:51:00Z</time>
      </trkpt>
      <trkpt lat="45.72111" lon="4.60347">
        <ele>680.8</ele>
        <time>2025-03-02T10:51:01Z</time>
      </trkpt>
      <trkpt lat="45.72109" lon="4.60353">
        <ele>681</ele>
        <time>2025-03-02T10:51:02Z</time>
      </trkpt>
      <trkpt lat="45.72108" lon="4.60361">
        <ele>681.2</ele>
        <time>2025-03-02T10:51:03Z</time>
      </trkpt>
      <trkpt lat="45.72107" lon="4.60367">
        <ele>681.2</ele>
        <time>2025-03-02T10:51:04Z</time>
      </trkpt>
      <trkpt lat="45.72105" lon="4.60375">
        <ele>681.4</ele>
        <time>2025-03-02T10:51:05Z</time>
      </trkpt>
      <trkpt lat="45.72104" lon="4.60383">
        <ele>681.4</ele>
        <time>2025-03-02T10:51:06Z</time>
      </trkpt>
      <trkpt lat="45.72105" lon="4.6039">
        <ele>681.2</ele>
        <time>2025-03-02T10:51:07Z</time>
      </trkpt>
      <trkpt lat="45.72107" lon="4.60397">
        <ele>681.2</ele>
        <time>2025-03-02T10:51:08Z</time>
      </trkpt>
      <trkpt lat="45.72109" lon="4.60404">
        <ele>681.2</ele>
        <time>2025-03-02T10:51:09Z</time>
      </trkpt>
      <trkpt lat="45.72113" lon="4.6041">
        <ele>681.2</ele>
        <time>2025-03-02T10:51:10Z</time>
      </trkpt>
      <trkpt lat="45.72117" lon="4.60415">
        <ele>681.2</ele>
        <time>2025-03-02T10:51:11Z</time>
      </trkpt>
      <trkpt lat="45.7212" lon="4.6042">
        <ele>681</ele>
        <time>2025-03-02T10:51:12Z</time>
      </trkpt>
      <trkpt lat="45.72122" lon="4.60424">
        <ele>681.2</ele>
        <time>2025-03-02T10:51:13Z</time>
      </trkpt>
      <trkpt lat="45.72123" lon="4.60429">
        <ele>681.4</ele>
        <time>2025-03-02T10:51:14Z</time>
      </trkpt>
      <trkpt lat="45.72124" lon="4.60434">
        <ele>681.8</ele>
        <time>2025-03-02T10:51:15Z</time>
      </trkpt>
      <trkpt lat="45.72125" lon="4.60438">
        <ele>682</ele>
        <time>2025-03-02T10:51:16Z</time>
      </trkpt>
      <trkpt lat="45.72126" lon="4.60442">
        <ele>682</ele>
        <time>2025-03-02T10:51:17Z</time>
      </trkpt>
      <trkpt lat="45.72128" lon="4.60446">
        <ele>682.4</ele>
        <time>2025-03-02T10:51:18Z</time>
      </trkpt>
      <trkpt lat="45.72129" lon="4.60449">
        <ele>682.8</ele>
        <time>2025-03-02T10:51:19Z</time>
      </trkpt>
      <trkpt lat="45.72131" lon="4.60453">
        <ele>683</ele>
        <time>2025-03-02T10:51:20Z</time>
      </trkpt>
      <trkpt lat="45.72133" lon="4.60458">
        <ele>682.8</ele>
        <time>2025-03-02T10:51:21Z</time>
      </trkpt>
      <trkpt lat="45.72135" lon="4.60463">
        <ele>682.8</ele>
        <time>2025-03-02T10:51:22Z</time>
      </trkpt>
      <trkpt lat="45.72137" lon="4.60469">
        <ele>682.8</ele>
        <time>2025-03-02T10:51:23Z</time>
      </trkpt>
      <trkpt lat="45.72139" lon="4.60476">
        <ele>682.4</ele>
        <time>2025-03-02T10:51:24Z</time>
      </trkpt>
      <trkpt lat="45.72142" lon="4.60483">
        <ele>681.8</ele>
        <time>2025-03-02T10:51:25Z</time>
      </trkpt>
      <trkpt lat="45.72144" lon="4.6049">
        <ele>681.2</ele>
        <time>2025-03-02T10:51:26Z</time>
      </trkpt>
      <trkpt lat="45.72147" lon="4.60497">
        <ele>681</ele>
        <time>2025-03-02T10:51:27Z</time>
      </trkpt>
      <trkpt lat="45.72149" lon="4.60505">
        <ele>680.4</ele>
        <time>2025-03-02T10:51:28Z</time>
      </trkpt>
      <trkpt lat="45.7215" lon="4.60513">
        <ele>680.4</ele>
        <time>2025-03-02T10:51:29Z</time>
      </trkpt>
      <trkpt lat="45.72151" lon="4.60521">
        <ele>679.6</ele>
        <time>2025-03-02T10:51:30Z</time>
      </trkpt>
      <trkpt lat="45.72153" lon="4.6053">
        <ele>679.2</ele>
        <time>2025-03-02T10:51:31Z</time>
      </trkpt>
      <trkpt lat="45.72154" lon="4.60537">
        <ele>679</ele>
        <time>2025-03-02T10:51:32Z</time>
      </trkpt>
      <trkpt lat="45.72156" lon="4.60546">
        <ele>678.8</ele>
        <time>2025-03-02T10:51:33Z</time>
      </trkpt>
      <trkpt lat="45.72158" lon="4.60554">
        <ele>678.6</ele>
        <time>2025-03-02T10:51:34Z</time>
      </trkpt>
      <trkpt lat="45.7216" lon="4.60562">
        <ele>678.4</ele>
        <time>2025-03-02T10:51:35Z</time>
      </trkpt>
      <trkpt lat="45.72161" lon="4.6057">
        <ele>678.4</ele>
        <time>2025-03-02T10:51:36Z</time>
      </trkpt>
      <trkpt lat="45.72162" lon="4.60578">
        <ele>678.2</ele>
        <time>2025-03-02T10:51:37Z</time>
      </trkpt>
      <trkpt lat="45.72165" lon="4.60585">
        <ele>677.8</ele>
        <time>2025-03-02T10:51:38Z</time>
      </trkpt>
      <trkpt lat="45.72168" lon="4.60593">
        <ele>677.8</ele>
        <time>2025-03-02T10:51:39Z</time>
      </trkpt>
      <trkpt lat="45.72172" lon="4.606">
        <ele>677.8</ele>
        <time>2025-03-02T10:51:40Z</time>
      </trkpt>
      <trkpt lat="45.72177" lon="4.60607">
        <ele>677.8</ele>
        <time>2025-03-02T10:51:41Z</time>
      </trkpt>
      <trkpt lat="45.72181" lon="4.60612">
        <ele>677.6</ele>
        <time>2025-03-02T10:51:42Z</time>
      </trkpt>
      <trkpt lat="45.72187" lon="4.60619">
        <ele>677.6</ele>
        <time>2025-03-02T10:51:43Z</time>
      </trkpt>
      <trkpt lat="45.72193" lon="4.60626">
        <ele>677.4</ele>
        <time>2025-03-02T10:51:44Z</time>
      </trkpt>
      <trkpt lat="45.72198" lon="4.60631">
        <ele>677.2</ele>
        <time>2025-03-02T10:51:45Z</time>
      </trkpt>
      <trkpt lat="45.72204" lon="4.60636">
        <ele>676.8</ele>
        <time>2025-03-02T10:51:46Z</time>
      </trkpt>
      <trkpt lat="45.7221" lon="4.60641">
        <ele>676.4</ele>
        <time>2025-03-02T10:51:47Z</time>
      </trkpt>
      <trkpt lat="45.72216" lon="4.60645">
        <ele>676.2</ele>
        <time>2025-03-02T10:51:48Z</time>
      </trkpt>
      <trkpt lat="45.72222" lon="4.6065">
        <ele>676</ele>
        <time>2025-03-02T10:51:49Z</time>
      </trkpt>
      <trkpt lat="45.72226" lon="4.60654">
        <ele>675.6</ele>
        <time>2025-03-02T10:51:50Z</time>
      </trkpt>
      <trkpt lat="45.72232" lon="4.6066">
        <ele>675.4</ele>
        <time>2025-03-02T10:51:51Z</time>
      </trkpt>
      <trkpt lat="45.72238" lon="4.60664">
        <ele>675.2</ele>
        <time>2025-03-02T10:51:52Z</time>
      </trkpt>
      <trkpt lat="45.72243" lon="4.60668">
        <ele>675</ele>
        <time>2025-03-02T10:51:53Z</time>
      </trkpt>
      <trkpt lat="45.72249" lon="4.60672">
        <ele>675</ele>
        <time>2025-03-02T10:51:54Z</time>
      </trkpt>
      <trkpt lat="45.72254" lon="4.60675">
        <ele>675</ele>
        <time>2025-03-02T10:51:55Z</time>
      </trkpt>
      <trkpt lat="45.72259" lon="4.60679">
        <ele>675</ele>
        <time>2025-03-02T10:51:56Z</time>
      </trkpt>
      <trkpt lat="45.72264" lon="4.60682">
        <ele>675</ele>
        <time>2025-03-02T10:51:57Z</time>
      </trkpt>
      <trkpt lat="45.72268" lon="4.60685">
        <ele>675.2</ele>
        <time>2025-03-02T10:51:58Z</time>
      </trkpt>
      <trkpt lat="45.72273" lon="4.60689">
        <ele>675.4</ele>
        <time>2025-03-02T10:51:59Z</time>
      </trkpt>
      <trkpt lat="45.72278" lon="4.60693">
        <ele>675.6</ele>
        <time>2025-03-02T10:52:00Z</time>
      </trkpt>
      <trkpt lat="45.72283" lon="4.60697">
        <ele>675.6</ele>
        <time>2025-03-02T10:52:01Z</time>
      </trkpt>
      <trkpt lat="45.72288" lon="4.607">
        <ele>675.6</ele>
        <time>2025-03-02T10:52:02Z</time>
      </trkpt>
      <trkpt lat="45.72295" lon="4.60703">
        <ele>675.4</ele>
        <time>2025-03-02T10:52:03Z</time>
      </trkpt>
      <trkpt lat="45.72301" lon="4.60707">
        <ele>675.4</ele>
        <time>2025-03-02T10:52:04Z</time>
      </trkpt>
      <trkpt lat="45.72306" lon="4.60711">
        <ele>675.2</ele>
        <time>2025-03-02T10:52:05Z</time>
      </trkpt>
      <trkpt lat="45.72312" lon="4.60715">
        <ele>674.8</ele>
        <time>2025-03-02T10:52:06Z</time>
      </trkpt>
      <trkpt lat="45.72317" lon="4.60718">
        <ele>674.4</ele>
        <time>2025-03-02T10:52:07Z</time>
      </trkpt>
      <trkpt lat="45.72322" lon="4.60721">
        <ele>674.4</ele>
        <time>2025-03-02T10:52:08Z</time>
      </trkpt>
      <trkpt lat="45.72327" lon="4.60723">
        <ele>674.4</ele>
        <time>2025-03-02T10:52:09Z</time>
      </trkpt>
      <trkpt lat="45.72332" lon="4.60726">
        <ele>674.4</ele>
        <time>2025-03-02T10:52:10Z</time>
      </trkpt>
      <trkpt lat="45.72337" lon="4.60728">
        <ele>674.4</ele>
        <time>2025-03-02T10:52:11Z</time>
      </trkpt>
      <trkpt lat="45.72341" lon="4.60729">
        <ele>674.8</ele>
        <time>2025-03-02T10:52:12Z</time>
      </trkpt>
      <trkpt lat="45.72347" lon="4.60729">
        <ele>675</ele>
        <time>2025-03-02T10:52:13Z</time>
      </trkpt>
      <trkpt lat="45.72352" lon="4.6073">
        <ele>675</ele>
        <time>2025-03-02T10:52:14Z</time>
      </trkpt>
      <trkpt lat="45.72356" lon="4.6073">
        <ele>675</ele>
        <time>2025-03-02T10:52:15Z</time>
      </trkpt>
      <trkpt lat="45.7236" lon="4.6073">
        <ele>675.2</ele>
        <time>2025-03-02T10:52:16Z</time>
      </trkpt>
      <trkpt lat="45.72365" lon="4.60729">
        <ele>675.2</ele>
        <time>2025-03-02T10:52:17Z</time>
      </trkpt>
      <trkpt lat="45.72369" lon="4.6073">
        <ele>675.4</ele>
        <time>2025-03-02T10:52:18Z</time>
      </trkpt>
      <trkpt lat="45.72374" lon="4.6073">
        <ele>675.6</ele>
        <time>2025-03-02T10:52:19Z</time>
      </trkpt>
      <trkpt lat="45.72379" lon="4.60729">
        <ele>675.8</ele>
        <time>2025-03-02T10:52:20Z</time>
      </trkpt>
      <trkpt lat="45.72384" lon="4.60728">
        <ele>676</ele>
        <time>2025-03-02T10:52:21Z</time>
      </trkpt>
      <trkpt lat="45.72387" lon="4.60727">
        <ele>676.2</ele>
        <time>2025-03-02T10:52:22Z</time>
      </trkpt>
      <trkpt lat="45.72392" lon="4.60726">
        <ele>676.6</ele>
        <time>2025-03-02T10:52:23Z</time>
      </trkpt>
      <trkpt lat="45.72396" lon="4.60726">
        <ele>677</ele>
        <time>2025-03-02T10:52:24Z</time>
      </trkpt>
      <trkpt lat="45.724" lon="4.60725">
        <ele>677.6</ele>
        <time>2025-03-02T10:52:25Z</time>
      </trkpt>
      <trkpt lat="45.72404" lon="4.60723">
        <ele>678</ele>
        <time>2025-03-02T10:52:26Z</time>
      </trkpt>
      <trkpt lat="45.72407" lon="4.60724">
        <ele>678.4</ele>
        <time>2025-03-02T10:52:27Z</time>
      </trkpt>
      <trkpt lat="45.72409" lon="4.60724">
        <ele>678.6</ele>
        <time>2025-03-02T10:52:28Z</time>
      </trkpt>
      <trkpt lat="45.72411" lon="4.60723">
        <ele>679</ele>
        <time>2025-03-02T10:52:29Z</time>
      </trkpt>
      <trkpt lat="45.72415" lon="4.60723">
        <ele>679.2</ele>
        <time>2025-03-02T10:52:30Z</time>
      </trkpt>
      <trkpt lat="45.72418" lon="4.60722">
        <ele>679.6</ele>
        <time>2025-03-02T10:52:31Z</time>
      </trkpt>
      <trkpt lat="45.72423" lon="4.60721">
        <ele>679.8</ele>
        <time>2025-03-02T10:52:32Z</time>
      </trkpt>
      <trkpt lat="45.72427" lon="4.60721">
        <ele>679.8</ele>
        <time>2025-03-02T10:52:33Z</time>
      </trkpt>
      <trkpt lat="45.72431" lon="4.60721">
        <ele>679.8</ele>
        <time>2025-03-02T10:52:34Z</time>
      </trkpt>
      <trkpt lat="45.72436" lon="4.6072">
        <ele>679.8</ele>
        <time>2025-03-02T10:52:35Z</time>
      </trkpt>
      <trkpt lat="45.7244" lon="4.6072">
        <ele>679.6</ele>
        <time>2025-03-02T10:52:36Z</time>
      </trkpt>
      <trkpt lat="45.72445" lon="4.60719">
        <ele>679.6</ele>
        <time>2025-03-02T10:52:37Z</time>
      </trkpt>
      <trkpt lat="45.7245" lon="4.60718">
        <ele>679.6</ele>
        <time>2025-03-02T10:52:38Z</time>
      </trkpt>
      <trkpt lat="45.72455" lon="4.60717">
        <ele>679.4</ele>
        <time>2025-03-02T10:52:39Z</time>
      </trkpt>
      <trkpt lat="45.72459" lon="4.60716">
        <ele>679.4</ele>
        <time>2025-03-02T10:52:40Z</time>
      </trkpt>
      <trkpt lat="45.72463" lon="4.60718">
        <ele>679.4</ele>
        <time>2025-03-02T10:52:41Z</time>
      </trkpt>
      <trkpt lat="45.72466" lon="4.60722">
        <ele>679.2</ele>
        <time>2025-03-02T10:52:42Z</time>
      </trkpt>
      <trkpt lat="45.72469" lon="4.60727">
        <ele>679</ele>
        <time>2025-03-02T10:52:43Z</time>
      </trkpt>
      <trkpt lat="45.72471" lon="4.60731">
        <ele>678.8</ele>
        <time>2025-03-02T10:52:44Z</time>
      </trkpt>
      <trkpt lat="45.72471" lon="4.60735">
        <ele>678.8</ele>
        <time>2025-03-02T10:52:45Z</time>
      </trkpt>
      <trkpt lat="45.72471" lon="4.60739">
        <ele>678.8</ele>
        <time>2025-03-02T10:52:46Z</time>
      </trkpt>
      <trkpt lat="45.72471" lon="4.60745">
        <ele>679</ele>
        <time>2025-03-02T10:52:47Z</time>
      </trkpt>
      <trkpt lat="45.72471" lon="4.60749">
        <ele>679</ele>
        <time>2025-03-02T10:52:48Z</time>
      </trkpt>
      <trkpt lat="45.72472" lon="4.60755">
        <ele>679</ele>
        <time>2025-03-02T10:52:49Z</time>
      </trkpt>
      <trkpt lat="45.72473" lon="4.6076">
        <ele>679.2</ele>
        <time>2025-03-02T10:52:50Z</time>
      </trkpt>
      <trkpt lat="45.72474" lon="4.60765">
        <ele>679.2</ele>
        <time>2025-03-02T10:52:51Z</time>
      </trkpt>
      <trkpt lat="45.72475" lon="4.60769">
        <ele>679.2</ele>
        <time>2025-03-02T10:52:52Z</time>
      </trkpt>
      <trkpt lat="45.72475" lon="4.60774">
        <ele>679.4</ele>
        <time>2025-03-02T10:52:53Z</time>
      </trkpt>
      <trkpt lat="45.72475" lon="4.60778">
        <ele>679.4</ele>
        <time>2025-03-02T10:52:54Z</time>
      </trkpt>
      <trkpt lat="45.72474" lon="4.60782">
        <ele>679.4</ele>
        <time>2025-03-02T10:52:55Z</time>
      </trkpt>
      <trkpt lat="45.72473" lon="4.60788">
        <ele>679.6</ele>
        <time>2025-03-02T10:52:56Z</time>
      </trkpt>
      <trkpt lat="45.72472" lon="4.60792">
        <ele>679.6</ele>
        <time>2025-03-02T10:52:57Z</time>
      </trkpt>
      <trkpt lat="45.72471" lon="4.60799">
        <ele>679.6</ele>
        <time>2025-03-02T10:52:58Z</time>
      </trkpt>
      <trkpt lat="45.72471" lon="4.60806">
        <ele>679.6</ele>
        <time>2025-03-02T10:52:59Z</time>
      </trkpt>
      <trkpt lat="45.7247" lon="4.60813">
        <ele>679.6</ele>
        <time>2025-03-02T10:53:00Z</time>
      </trkpt>
      <trkpt lat="45.72469" lon="4.6082">
        <ele>679.2</ele>
        <time>2025-03-02T10:53:01Z</time>
      </trkpt>
      <trkpt lat="45.72467" lon="4.60828">
        <ele>679</ele>
        <time>2025-03-02T10:53:02Z</time>
      </trkpt>
      <trkpt lat="45.72467" lon="4.60835">
        <ele>678.8</ele>
        <time>2025-03-02T10:53:03Z</time>
      </trkpt>
      <trkpt lat="45.72466" lon="4.60844">
        <ele>678.4</ele>
        <time>2025-03-02T10:53:04Z</time>
      </trkpt>
      <trkpt lat="45.72465" lon="4.60852">
        <ele>678.2</ele>
        <time>2025-03-02T10:53:05Z</time>
      </trkpt>
      <trkpt lat="45.72464" lon="4.60859">
        <ele>678.2</ele>
        <time>2025-03-02T10:53:06Z</time>
      </trkpt>
      <trkpt lat="45.72462" lon="4.60869">
        <ele>678.2</ele>
        <time>2025-03-02T10:53:07Z</time>
      </trkpt>
      <trkpt lat="45.72461" lon="4.60877">
        <ele>678.2</ele>
        <time>2025-03-02T10:53:08Z</time>
      </trkpt>
      <trkpt lat="45.7246" lon="4.60883">
        <ele>678.2</ele>
        <time>2025-03-02T10:53:09Z</time>
      </trkpt>
      <trkpt lat="45.72459" lon="4.60892">
        <ele>678.2</ele>
        <time>2025-03-02T10:53:10Z</time>
      </trkpt>
      <trkpt lat="45.72458" lon="4.60899">
        <ele>678.2</ele>
        <time>2025-03-02T10:53:11Z</time>
      </trkpt>
      <trkpt lat="45.72457" lon="4.60907">
        <ele>678.2</ele>
        <time>2025-03-02T10:53:12Z</time>
      </trkpt>
      <trkpt lat="45.72457" lon="4.60917">
        <ele>678</ele>
        <time>2025-03-02T10:53:13Z</time>
      </trkpt>
      <trkpt lat="45.72457" lon="4.60923">
        <ele>678</ele>
        <time>2025-03-02T10:53:14Z</time>
      </trkpt>
      <trkpt lat="45.72457" lon="4.6093">
        <ele>678</ele>
        <time>2025-03-02T10:53:15Z</time>
      </trkpt>
      <trkpt lat="45.72456" lon="4.60939">
        <ele>678.2</ele>
        <time>2025-03-02T10:53:16Z</time>
      </trkpt>
      <trkpt lat="45.72456" lon="4.60946">
        <ele>678.2</ele>
        <time>2025-03-02T10:53:17Z</time>
      </trkpt>
      <trkpt lat="45.72456" lon="4.60952">
        <ele>678.2</ele>
        <time>2025-03-02T10:53:18Z</time>
      </trkpt>
      <trkpt lat="45.72454" lon="4.60958">
        <ele>678.2</ele>
        <time>2025-03-02T10:53:19Z</time>
      </trkpt>
      <trkpt lat="45.72453" lon="4.60965">
        <ele>678.2</ele>
        <time>2025-03-02T10:53:20Z</time>
      </trkpt>
      <trkpt lat="45.72453" lon="4.60972">
        <ele>678.2</ele>
        <time>2025-03-02T10:53:21Z</time>
      </trkpt>
      <trkpt lat="45.72452" lon="4.6098">
        <ele>678</ele>
        <time>2025-03-02T10:53:22Z</time>
      </trkpt>
      <trkpt lat="45.72451" lon="4.60987">
        <ele>677.6</ele>
        <time>2025-03-02T10:53:23Z</time>
      </trkpt>
      <trkpt lat="45.7245" lon="4.60994">
        <ele>677.2</ele>
        <time>2025-03-02T10:53:24Z</time>
      </trkpt>
      <trkpt lat="45.7245" lon="4.61">
        <ele>677.2</ele>
        <time>2025-03-02T10:53:25Z</time>
      </trkpt>
      <trkpt lat="45.7245" lon="4.61007">
        <ele>677.2</ele>
        <time>2025-03-02T10:53:26Z</time>
      </trkpt>
      <trkpt lat="45.72449" lon="4.61013">
        <ele>677.2</ele>
        <time>2025-03-02T10:53:27Z</time>
      </trkpt>
      <trkpt lat="45.72448" lon="4.61019">
        <ele>677</ele>
        <time>2025-03-02T10:53:28Z</time>
      </trkpt>
      <trkpt lat="45.72448" lon="4.61026">
        <ele>677</ele>
        <time>2025-03-02T10:53:29Z</time>
      </trkpt>
      <trkpt lat="45.72447" lon="4.61034">
        <ele>677</ele>
        <time>2025-03-02T10:53:30Z</time>
      </trkpt>
      <trkpt lat="45.72446" lon="4.61041">
        <ele>677</ele>
        <time>2025-03-02T10:53:31Z</time>
      </trkpt>
      <trkpt lat="45.72446" lon="4.61049">
        <ele>676.8</ele>
        <time>2025-03-02T10:53:32Z</time>
      </trkpt>
      <trkpt lat="45.72446" lon="4.61057">
        <ele>676.8</ele>
        <time>2025-03-02T10:53:33Z</time>
      </trkpt>
      <trkpt lat="45.72446" lon="4.61066">
        <ele>676.6</ele>
        <time>2025-03-02T10:53:34Z</time>
      </trkpt>
      <trkpt lat="45.72446" lon="4.61074">
        <ele>676.4</ele>
        <time>2025-03-02T10:53:35Z</time>
      </trkpt>
      <trkpt lat="45.72446" lon="4.61083">
        <ele>676.2</ele>
        <time>2025-03-02T10:53:36Z</time>
      </trkpt>
      <trkpt lat="45.72446" lon="4.61091">
        <ele>676.2</ele>
        <time>2025-03-02T10:53:37Z</time>
      </trkpt>
      <trkpt lat="45.72447" lon="4.61097">
        <ele>676.2</ele>
        <time>2025-03-02T10:53:38Z</time>
      </trkpt>
      <trkpt lat="45.72447" lon="4.61107">
        <ele>676</ele>
        <time>2025-03-02T10:53:39Z</time>
      </trkpt>
      <trkpt lat="45.72446" lon="4.61114">
        <ele>676</ele>
        <time>2025-03-02T10:53:40Z</time>
      </trkpt>
      <trkpt lat="45.72445" lon="4.61122">
        <ele>676</ele>
        <time>2025-03-02T10:53:41Z</time>
      </trkpt>
      <trkpt lat="45.72444" lon="4.6113">
        <ele>676</ele>
        <time>2025-03-02T10:53:42Z</time>
      </trkpt>
      <trkpt lat="45.72443" lon="4.61137">
        <ele>676</ele>
        <time>2025-03-02T10:53:43Z</time>
      </trkpt>
      <trkpt lat="45.72442" lon="4.61145">
        <ele>675.8</ele>
        <time>2025-03-02T10:53:44Z</time>
      </trkpt>
      <trkpt lat="45.72441" lon="4.61153">
        <ele>675.8</ele>
        <time>2025-03-02T10:53:45Z</time>
      </trkpt>
      <trkpt lat="45.7244" lon="4.61161">
        <ele>675.8</ele>
        <time>2025-03-02T10:53:46Z</time>
      </trkpt>
      <trkpt lat="45.72439" lon="4.61168">
        <ele>675.8</ele>
        <time>2025-03-02T10:53:47Z</time>
      </trkpt>
      <trkpt lat="45.72438" lon="4.61175">
        <ele>675.8</ele>
        <time>2025-03-02T10:53:48Z</time>
      </trkpt>
      <trkpt lat="45.72436" lon="4.61182">
        <ele>675.8</ele>
        <time>2025-03-02T10:53:49Z</time>
      </trkpt>
      <trkpt lat="45.72435" lon="4.61188">
        <ele>676.2</ele>
        <time>2025-03-02T10:53:50Z</time>
      </trkpt>
      <trkpt lat="45.72434" lon="4.61194">
        <ele>676.4</ele>
        <time>2025-03-02T10:53:51Z</time>
      </trkpt>
      <trkpt lat="45.72433" lon="4.612">
        <ele>676.8</ele>
        <time>2025-03-02T10:53:52Z</time>
      </trkpt>
      <trkpt lat="45.72432" lon="4.61205">
        <ele>677</ele>
        <time>2025-03-02T10:53:53Z</time>
      </trkpt>
      <trkpt lat="45.72431" lon="4.6121">
        <ele>677.2</ele>
        <time>2025-03-02T10:53:54Z</time>
      </trkpt>
      <trkpt lat="45.72431" lon="4.61215">
        <ele>677.6</ele>
        <time>2025-03-02T10:53:55Z</time>
      </trkpt>
      <trkpt lat="45.7243" lon="4.61219">
        <ele>677.8</ele>
        <time>2025-03-02T10:53:56Z</time>
      </trkpt>
      <trkpt lat="45.7243" lon="4.61223">
        <ele>678.2</ele>
        <time>2025-03-02T10:53:57Z</time>
      </trkpt>
      <trkpt lat="45.72431" lon="4.61227">
        <ele>678.6</ele>
        <time>2025-03-02T10:53:58Z</time>
      </trkpt>
      <trkpt lat="45.72432" lon="4.61231">
        <ele>678.8</ele>
        <time>2025-03-02T10:53:59Z</time>
      </trkpt>
      <trkpt lat="45.72432" lon="4.61234">
        <ele>679</ele>
        <time>2025-03-02T10:54:00Z</time>
      </trkpt>
      <trkpt lat="45.72433" lon="4.61239">
        <ele>679</ele>
        <time>2025-03-02T10:54:01Z</time>
      </trkpt>
      <trkpt lat="45.72434" lon="4.61243">
        <ele>679.4</ele>
        <time>2025-03-02T10:54:02Z</time>
      </trkpt>
      <trkpt lat="45.72435" lon="4.61247">
        <ele>679.2</ele>
        <time>2025-03-02T10:54:03Z</time>
      </trkpt>
      <trkpt lat="45.72436" lon="4.61252">
        <ele>679.2</ele>
        <time>2025-03-02T10:54:04Z</time>
      </trkpt>
      <trkpt lat="45.72438" lon="4.61255">
        <ele>679.2</ele>
        <time>2025-03-02T10:54:05Z</time>
      </trkpt>
      <trkpt lat="45.7244" lon="4.61259">
        <ele>679.2</ele>
        <time>2025-03-02T10:54:06Z</time>
      </trkpt>
      <trkpt lat="45.72441" lon="4.61263">
        <ele>679.2</ele>
        <time>2025-03-02T10:54:07Z</time>
      </trkpt>
      <trkpt lat="45.72441" lon="4.61266">
        <ele>679.2</ele>
        <time>2025-03-02T10:54:08Z</time>
      </trkpt>
      <trkpt lat="45.72441" lon="4.61267">
        <ele>679.2</ele>
        <time>2025-03-02T10:54:09Z</time>
      </trkpt>
      <trkpt lat="45.72441" lon="4.61267">
        <ele>679.4</ele>
        <time>2025-03-02T10:54:10Z</time>
      </trkpt>
      <trkpt lat="45.72441" lon="4.61267">
        <ele>679.6</ele>
        <time>2025-03-02T10:54:11Z</time>
      </trkpt>
      <trkpt lat="45.72441" lon="4.61267">
        <ele>679.6</ele>
        <time>2025-03-02T10:54:12Z</time>
      </trkpt>
      <trkpt lat="45.72441" lon="4.61267">
        <ele>679.6</ele>
        <time>2025-03-02T10:54:13Z</time>
      </trkpt>
      <trkpt lat="45.72441" lon="4.61267">
        <ele>679.6</ele>
        <time>2025-03-02T10:54:14Z</time>
      </trkpt>
      <trkpt lat="45.72441" lon="4.61267">
        <ele>679.6</ele>
        <time>2025-03-02T10:54:15Z</time>
      </trkpt>
      <trkpt lat="45.72441" lon="4.61267">
        <ele>679.6</ele>
        <time>2025-03-02T10:54:16Z</time>
      </trkpt>
      <trkpt lat="45.72441" lon="4.61267">
        <ele>679.6</ele>
        <time>2025-03-02T10:54:17Z</time>
      </trkpt>
      <trkpt lat="45.72441" lon="4.61267">
        <ele>679.4</ele>
        <time>2025-03-02T10:54:18Z</time>
      </trkpt>
      <trkpt lat="45.72441" lon="4.61267">
        <ele>679.4</ele>
        <time>2025-03-02T10:54:19Z</time>
      </trkpt>
      <trkpt lat="45.72441" lon="4.61267">
        <ele>679.4</ele>
        <time>2025-03-02T10:54:20Z</time>
      </trkpt>
      <trkpt lat="45.72441" lon="4.61267">
        <ele>679.4</ele>
        <time>2025-03-02T10:54:21Z</time>
      </trkpt>
      <trkpt lat="45.72441" lon="4.61267">
        <ele>679.4</ele>
        <time>2025-03-02T10:54:22Z</time>
      </trkpt>
      <trkpt lat="45.72441" lon="4.61267">
        <ele>679.2</ele>
        <time>2025-03-02T10:54:23Z</time>
      </trkpt>
      <trkpt lat="45.72441" lon="4.61267">
        <ele>679.2</ele>
        <time>2025-03-02T10:54:24Z</time>
      </trkpt>
      <trkpt lat="45.72441" lon="4.61267">
        <ele>679.2</ele>
        <time>2025-03-02T10:54:25Z</time>
      </trkpt>
      <trkpt lat="45.72441" lon="4.61267">
        <ele>679.4</ele>
        <time>2025-03-02T10:54:26Z</time>
      </trkpt>
      <trkpt lat="45.72441" lon="4.61267">
        <ele>679.4</ele>
        <time>2025-03-02T10:54:27Z</time>
      </trkpt>
      <trkpt lat="45.72441" lon="4.61267">
        <ele>679.4</ele>
        <time>2025-03-02T10:54:28Z</time>
      </trkpt>
      <trkpt lat="45.72441" lon="4.61267">
        <ele>679.4</ele>
        <time>2025-03-02T10:54:29Z</time>
      </trkpt>
      <trkpt lat="45.72441" lon="4.61267">
        <ele>679.4</ele>
        <time>2025-03-02T10:54:30Z</time>
      </trkpt>
      <trkpt lat="45.72441" lon="4.61267">
        <ele>679.4</ele>
        <time>2025-03-02T10:54:31Z</time>
      </trkpt>
      <trkpt lat="45.72441" lon="4.61267">
        <ele>679.4</ele>
        <time>2025-03-02T10:54:32Z</time>
      </trkpt>
      <trkpt lat="45.72441" lon="4.61267">
        <ele>679.4</ele>
        <time>2025-03-02T10:54:33Z</time>
      </trkpt>
      <trkpt lat="45.72441" lon="4.61267">
        <ele>679.4</ele>
        <time>2025-03-02T10:54:34Z</time>
      </trkpt>
      <trkpt lat="45.72441" lon="4.61267">
        <ele>679.4</ele>
        <time>2025-03-02T10:54:35Z</time>
      </trkpt>
      <trkpt lat="45.72441" lon="4.61267">
        <ele>679.2</ele>
        <time>2025-03-02T10:54:36Z</time>
      </trkpt>
      <trkpt lat="45.72441" lon="4.61267">
        <ele>679.2</ele>
        <time>2025-03-02T10:54:37Z</time>
      </trkpt>
      <trkpt lat="45.72441" lon="4.61267">
        <ele>679.2</ele>
        <time>2025-03-02T10:54:38Z</time>
      </trkpt>
      <trkpt lat="45.72441" lon="4.61267">
        <ele>679.2</ele>
        <time>2025-03-02T10:54:39Z</time>
      </trkpt>
      <trkpt lat="45.72441" lon="4.61267">
        <ele>679.2</ele>
        <time>2025-03-02T10:54:40Z</time>
      </trkpt>
      <trkpt lat="45.72441" lon="4.61267">
        <ele>679.2</ele>
        <time>2025-03-02T10:54:41Z</time>
      </trkpt>
      <trkpt lat="45.72441" lon="4.61267">
        <ele>679.2</ele>
        <time>2025-03-02T10:54:42Z</time>
      </trkpt>
      <trkpt lat="45.72441" lon="4.61267">
        <ele>679</ele>
        <time>2025-03-02T10:54:43Z</time>
      </trkpt>
      <trkpt lat="45.72441" lon="4.61267">
        <ele>679</ele>
        <time>2025-03-02T10:54:44Z</time>
      </trkpt>
      <trkpt lat="45.72441" lon="4.61267">
        <ele>679</ele>
        <time>2025-03-02T10:54:45Z</time>
      </trkpt>
      <trkpt lat="45.72441" lon="4.61267">
        <ele>679</ele>
        <time>2025-03-02T10:54:46Z</time>
      </trkpt>
      <trkpt lat="45.72441" lon="4.61267">
        <ele>679</ele>
        <time>2025-03-02T10:54:47Z</time>
      </trkpt>
      <trkpt lat="45.72441" lon="4.61267">
        <ele>679</ele>
        <time>2025-03-02T10:54:48Z</time>
      </trkpt>
      <trkpt lat="45.72441" lon="4.61267">
        <ele>679</ele>
        <time>2025-03-02T10:54:49Z</time>
      </trkpt>
      <trkpt lat="45.72441" lon="4.61267">
        <ele>679</ele>
        <time>2025-03-02T10:54:50Z</time>
      </trkpt>
      <trkpt lat="45.72441" lon="4.61267">
        <ele>679</ele>
        <time>2025-03-02T10:54:51Z</time>
      </trkpt>
      <trkpt lat="45.72441" lon="4.61267">
        <ele>678.8</ele>
        <time>2025-03-02T10:54:52Z</time>
      </trkpt>
      <trkpt lat="45.72441" lon="4.61267">
        <ele>678.8</ele>
        <time>2025-03-02T10:54:53Z</time>
      </trkpt>
      <trkpt lat="45.72441" lon="4.61267">
        <ele>678.8</ele>
        <time>2025-03-02T10:54:54Z</time>
      </trkpt>
      <trkpt lat="45.72441" lon="4.61267">
        <ele>678.8</ele>
        <time>2025-03-02T10:54:55Z</time>
      </trkpt>
      <trkpt lat="45.72441" lon="4.61267">
        <ele>678.8</ele>
        <time>2025-03-02T10:54:56Z</time>
      </trkpt>
      <trkpt lat="45.72441" lon="4.61267">
        <ele>678.8</ele>
        <time>2025-03-02T10:54:57Z</time>
      </trkpt>
      <trkpt lat="45.72441" lon="4.61267">
        <ele>678.8</ele>
        <time>2025-03-02T10:54:58Z</time>
      </trkpt>
      <trkpt lat="45.72441" lon="4.61267">
        <ele>678.6</ele>
        <time>2025-03-02T10:54:59Z</time>
      </trkpt>
      <trkpt lat="45.72441" lon="4.61267">
        <ele>678.6</ele>
        <time>2025-03-02T10:55:00Z</time>
      </trkpt>
      <trkpt lat="45.72441" lon="4.61267">
        <ele>678.6</ele>
        <time>2025-03-02T10:55:01Z</time>
      </trkpt>
      <trkpt lat="45.72441" lon="4.61267">
        <ele>678.6</ele>
        <time>2025-03-02T10:55:02Z</time>
      </trkpt>
      <trkpt lat="45.72441" lon="4.61267">
        <ele>678.6</ele>
        <time>2025-03-02T10:55:03Z</time>
      </trkpt>
      <trkpt lat="45.72441" lon="4.61267">
        <ele>678.6</ele>
        <time>2025-03-02T10:55:04Z</time>
      </trkpt>
      <trkpt lat="45.72441" lon="4.61267">
        <ele>678.6</ele>
        <time>2025-03-02T10:55:05Z</time>
      </trkpt>
      <trkpt lat="45.72441" lon="4.61267">
        <ele>678.6</ele>
        <time>2025-03-02T10:55:06Z</time>
      </trkpt>
      <trkpt lat="45.72441" lon="4.61267">
        <ele>678.4</ele>
        <time>2025-03-02T10:55:07Z</time>
      </trkpt>
      <trkpt lat="45.72441" lon="4.61267">
        <ele>678.4</ele>
        <time>2025-03-02T10:55:08Z</time>
      </trkpt>
      <trkpt lat="45.72441" lon="4.61267">
        <ele>678.4</ele>
        <time>2025-03-02T10:55:09Z</time>
      </trkpt>
      <trkpt lat="45.72441" lon="4.61267">
        <ele>678.4</ele>
        <time>2025-03-02T10:55:10Z</time>
      </trkpt>
      <trkpt lat="45.72441" lon="4.61267">
        <ele>678.4</ele>
        <time>2025-03-02T10:55:11Z</time>
      </trkpt>
      <trkpt lat="45.72441" lon="4.61267">
        <ele>678.4</ele>
        <time>2025-03-02T10:55:12Z</time>
      </trkpt>
      <trkpt lat="45.72441" lon="4.61267">
        <ele>678.6</ele>
        <time>2025-03-02T10:55:13Z</time>
      </trkpt>
      <trkpt lat="45.72441" lon="4.61267">
        <ele>678.4</ele>
        <time>2025-03-02T10:55:14Z</time>
      </trkpt>
      <trkpt lat="45.72441" lon="4.61267">
        <ele>678.4</ele>
        <time>2025-03-02T10:55:15Z</time>
      </trkpt>
      <trkpt lat="45.72441" lon="4.61267">
        <ele>678.4</ele>
        <time>2025-03-02T10:55:16Z</time>
      </trkpt>
      <trkpt lat="45.72441" lon="4.61267">
        <ele>678.4</ele>
        <time>2025-03-02T10:55:17Z</time>
      </trkpt>
      <trkpt lat="45.72441" lon="4.61267">
        <ele>678.4</ele>
        <time>2025-03-02T10:55:18Z</time>
      </trkpt>
      <trkpt lat="45.72441" lon="4.61267">
        <ele>678.6</ele>
        <time>2025-03-02T10:55:19Z</time>
      </trkpt>
      <trkpt lat="45.72441" lon="4.61267">
        <ele>678.6</ele>
        <time>2025-03-02T10:55:20Z</time>
      </trkpt>
      <trkpt lat="45.72441" lon="4.61269">
        <ele>678.6</ele>
        <time>2025-03-02T10:55:21Z</time>
      </trkpt>
      <trkpt lat="45.7244" lon="4.61271">
        <ele>678.4</ele>
        <time>2025-03-02T10:55:22Z</time>
      </trkpt>
      <trkpt lat="45.7244" lon="4.61274">
        <ele>678.4</ele>
        <time>2025-03-02T10:55:23Z</time>
      </trkpt>
      <trkpt lat="45.72439" lon="4.61277">
        <ele>678.4</ele>
        <time>2025-03-02T10:55:24Z</time>
      </trkpt>
      <trkpt lat="45.72437" lon="4.61281">
        <ele>678</ele>
        <time>2025-03-02T10:55:25Z</time>
      </trkpt>
      <trkpt lat="45.72435" lon="4.61285">
        <ele>677.6</ele>
        <time>2025-03-02T10:55:26Z</time>
      </trkpt>
      <trkpt lat="45.72434" lon="4.6129">
        <ele>677</ele>
        <time>2025-03-02T10:55:27Z</time>
      </trkpt>
      <trkpt lat="45.72433" lon="4.61296">
        <ele>676.2</ele>
        <time>2025-03-02T10:55:28Z</time>
      </trkpt>
      <trkpt lat="45.72434" lon="4.61302">
        <ele>675.8</ele>
        <time>2025-03-02T10:55:29Z</time>
      </trkpt>
      <trkpt lat="45.72436" lon="4.61307">
        <ele>675.2</ele>
        <time>2025-03-02T10:55:30Z</time>
      </trkpt>
      <trkpt lat="45.7244" lon="4.61309">
        <ele>674.4</ele>
        <time>2025-03-02T10:55:31Z</time>
      </trkpt>
      <trkpt lat="45.72444" lon="4.6131">
        <ele>673.8</ele>
        <time>2025-03-02T10:55:32Z</time>
      </trkpt>
      <trkpt lat="45.72449" lon="4.61309">
        <ele>673.8</ele>
        <time>2025-03-02T10:55:33Z</time>
      </trkpt>
      <trkpt lat="45.72455" lon="4.61308">
        <ele>673.4</ele>
        <time>2025-03-02T10:55:34Z</time>
      </trkpt>
      <trkpt lat="45.7246" lon="4.61306">
        <ele>673.4</ele>
        <time>2025-03-02T10:55:35Z</time>
      </trkpt>
      <trkpt lat="45.72466" lon="4.61304">
        <ele>673.2</ele>
        <time>2025-03-02T10:55:36Z</time>
      </trkpt>
      <trkpt lat="45.72472" lon="4.61303">
        <ele>672.8</ele>
        <time>2025-03-02T10:55:37Z</time>
      </trkpt>
      <trkpt lat="45.72478" lon="4.61301">
        <ele>672.4</ele>
        <time>2025-03-02T10:55:38Z</time>
      </trkpt>
      <trkpt lat="45.72484" lon="4.613">
        <ele>672.2</ele>
        <time>2025-03-02T10:55:39Z</time>
      </trkpt>
      <trkpt lat="45.72489" lon="4.61299">
        <ele>672</ele>
        <time>2025-03-02T10:55:40Z</time>
      </trkpt>
      <trkpt lat="45.72495" lon="4.61297">
        <ele>671.8</ele>
        <time>2025-03-02T10:55:41Z</time>
      </trkpt>
      <trkpt lat="45.72501" lon="4.61295">
        <ele>671.8</ele>
        <time>2025-03-02T10:55:42Z</time>
      </trkpt>
      <trkpt lat="45.72508" lon="4.61292">
        <ele>671.4</ele>
        <time>2025-03-02T10:55:43Z</time>
      </trkpt>
      <trkpt lat="45.72514" lon="4.61289">
        <ele>671</ele>
        <time>2025-03-02T10:55:44Z</time>
      </trkpt>
      <trkpt lat="45.72519" lon="4.61285">
        <ele>671</ele>
        <time>2025-03-02T10:55:45Z</time>
      </trkpt>
      <trkpt lat="45.72524" lon="4.61281">
        <ele>670.8</ele>
        <time>2025-03-02T10:55:46Z</time>
      </trkpt>
      <trkpt lat="45.72529" lon="4.61276">
        <ele>670.6</ele>
        <time>2025-03-02T10:55:47Z</time>
      </trkpt>
      <trkpt lat="45.72533" lon="4.6127">
        <ele>670.6</ele>
        <time>2025-03-02T10:55:48Z</time>
      </trkpt>
      <trkpt lat="45.72537" lon="4.61264">
        <ele>670.6</ele>
        <time>2025-03-02T10:55:49Z</time>
      </trkpt>
      <trkpt lat="45.7254" lon="4.61258">
        <ele>670.6</ele>
        <time>2025-03-02T10:55:50Z</time>
      </trkpt>
      <trkpt lat="45.72543" lon="4.61252">
        <ele>671</ele>
        <time>2025-03-02T10:55:51Z</time>
      </trkpt>
      <trkpt lat="45.72546" lon="4.61247">
        <ele>671.4</ele>
        <time>2025-03-02T10:55:52Z</time>
      </trkpt>
      <trkpt lat="45.72548" lon="4.61242">
        <ele>671.6</ele>
        <time>2025-03-02T10:55:53Z</time>
      </trkpt>
      <trkpt lat="45.7255" lon="4.61237">
        <ele>672</ele>
        <time>2025-03-02T10:55:54Z</time>
      </trkpt>
      <trkpt lat="45.72551" lon="4.61234">
        <ele>672.4</ele>
        <time>2025-03-02T10:55:55Z</time>
      </trkpt>
      <trkpt lat="45.72554" lon="4.61232">
        <ele>672.6</ele>
        <time>2025-03-02T10:55:56Z</time>
      </trkpt>
      <trkpt lat="45.7256" lon="4.61228">
        <ele>672.6</ele>
        <time>2025-03-02T10:55:57Z</time>
      </trkpt>
      <trkpt lat="45.72565" lon="4.61225">
        <ele>672.6</ele>
        <time>2025-03-02T10:55:58Z</time>
      </trkpt>
      <trkpt lat="45.72572" lon="4.61222">
        <ele>672</ele>
        <time>2025-03-02T10:55:59Z</time>
      </trkpt>
      <trkpt lat="45.7258" lon="4.61218">
        <ele>671.2</ele>
        <time>2025-03-02T10:56:00Z</time>
      </trkpt>
      <trkpt lat="45.72587" lon="4.61216">
        <ele>670.4</ele>
        <time>2025-03-02T10:56:01Z</time>
      </trkpt>
      <trkpt lat="45.72595" lon="4.61214">
        <ele>669.6</ele>
        <time>2025-03-02T10:56:02Z</time>
      </trkpt>
      <trkpt lat="45.72603" lon="4.61213">
        <ele>669.2</ele>
        <time>2025-03-02T10:56:03Z</time>
      </trkpt>
      <trkpt lat="45.7261" lon="4.61215">
        <ele>668.8</ele>
        <time>2025-03-02T10:56:04Z</time>
      </trkpt>
      <trkpt lat="45.72617" lon="4.61218">
        <ele>668.6</ele>
        <time>2025-03-02T10:56:05Z</time>
      </trkpt>
      <trkpt lat="45.72623" lon="4.61222">
        <ele>668.2</ele>
        <time>2025-03-02T10:56:06Z</time>
      </trkpt>
      <trkpt lat="45.72629" lon="4.61226">
        <ele>668</ele>
        <time>2025-03-02T10:56:07Z</time>
      </trkpt>
      <trkpt lat="45.72634" lon="4.61229">
        <ele>667.8</ele>
        <time>2025-03-02T10:56:08Z</time>
      </trkpt>
      <trkpt lat="45.7264" lon="4.61232">
        <ele>667.6</ele>
        <time>2025-03-02T10:56:09Z</time>
      </trkpt>
      <trkpt lat="45.72644" lon="4.61235">
        <ele>667.4</ele>
        <time>2025-03-02T10:56:10Z</time>
      </trkpt>
      <trkpt lat="45.7265" lon="4.61235">
        <ele>667.4</ele>
        <time>2025-03-02T10:56:11Z</time>
      </trkpt>
      <trkpt lat="45.72654" lon="4.61235">
        <ele>667.4</ele>
        <time>2025-03-02T10:56:12Z</time>
      </trkpt>
      <trkpt lat="45.72657" lon="4.61235">
        <ele>667.6</ele>
        <time>2025-03-02T10:56:13Z</time>
      </trkpt>
      <trkpt lat="45.7266" lon="4.61235">
        <ele>667.8</ele>
        <time>2025-03-02T10:56:14Z</time>
      </trkpt>
      <trkpt lat="45.72664" lon="4.61234">
        <ele>668</ele>
        <time>2025-03-02T10:56:15Z</time>
      </trkpt>
      <trkpt lat="45.72667" lon="4.61233">
        <ele>668.2</ele>
        <time>2025-03-02T10:56:16Z</time>
      </trkpt>
      <trkpt lat="45.72671" lon="4.61232">
        <ele>668.8</ele>
        <time>2025-03-02T10:56:17Z</time>
      </trkpt>
      <trkpt lat="45.72675" lon="4.61231">
        <ele>669.6</ele>
        <time>2025-03-02T10:56:18Z</time>
      </trkpt>
      <trkpt lat="45.72679" lon="4.6123">
        <ele>670.4</ele>
        <time>2025-03-02T10:56:19Z</time>
      </trkpt>
      <trkpt lat="45.72682" lon="4.6123">
        <ele>670.8</ele>
        <time>2025-03-02T10:56:20Z</time>
      </trkpt>
      <trkpt lat="45.72686" lon="4.61228">
        <ele>670.8</ele>
        <time>2025-03-02T10:56:21Z</time>
      </trkpt>
      <trkpt lat="45.72692" lon="4.61225">
        <ele>670.8</ele>
        <time>2025-03-02T10:56:22Z</time>
      </trkpt>
      <trkpt lat="45.72699" lon="4.61221">
        <ele>671</ele>
        <time>2025-03-02T10:56:23Z</time>
      </trkpt>
      <trkpt lat="45.72705" lon="4.61218">
        <ele>671</ele>
        <time>2025-03-02T10:56:24Z</time>
      </trkpt>
      <trkpt lat="45.72712" lon="4.61214">
        <ele>671</ele>
        <time>2025-03-02T10:56:25Z</time>
      </trkpt>
      <trkpt lat="45.72718" lon="4.61211">
        <ele>670.8</ele>
        <time>2025-03-02T10:56:26Z</time>
      </trkpt>
      <trkpt lat="45.72725" lon="4.61207">
        <ele>670.8</ele>
        <time>2025-03-02T10:56:27Z</time>
      </trkpt>
      <trkpt lat="45.72731" lon="4.61202">
        <ele>670.8</ele>
        <time>2025-03-02T10:56:28Z</time>
      </trkpt>
      <trkpt lat="45.72737" lon="4.61197">
        <ele>670.8</ele>
        <time>2025-03-02T10:56:29Z</time>
      </trkpt>
      <trkpt lat="45.7274" lon="4.61193">
        <ele>670.8</ele>
        <time>2025-03-02T10:56:30Z</time>
      </trkpt>
      <trkpt lat="45.72742" lon="4.61191">
        <ele>671</ele>
        <time>2025-03-02T10:56:31Z</time>
      </trkpt>
      <trkpt lat="45.72746" lon="4.6119">
        <ele>670.8</ele>
        <time>2025-03-02T10:56:32Z</time>
      </trkpt>
      <trkpt lat="45.72749" lon="4.61189">
        <ele>670.8</ele>
        <time>2025-03-02T10:56:33Z</time>
      </trkpt>
      <trkpt lat="45.72753" lon="4.61188">
        <ele>670.8</ele>
        <time>2025-03-02T10:56:34Z</time>
      </trkpt>
      <trkpt lat="45.72759" lon="4.61186">
        <ele>670.8</ele>
        <time>2025-03-02T10:56:35Z</time>
      </trkpt>
      <trkpt lat="45.72766" lon="4.61184">
        <ele>670.6</ele>
        <time>2025-03-02T10:56:36Z</time>
      </trkpt>
      <trkpt lat="45.72772" lon="4.61181">
        <ele>670.4</ele>
        <time>2025-03-02T10:56:37Z</time>
      </trkpt>
      <trkpt lat="45.72778" lon="4.61179">
        <ele>669.8</ele>
        <time>2025-03-02T10:56:38Z</time>
      </trkpt>
      <trkpt lat="45.72784" lon="4.61176">
        <ele>669.8</ele>
        <time>2025-03-02T10:56:39Z</time>
      </trkpt>
      <trkpt lat="45.7279" lon="4.61171">
        <ele>669.6</ele>
        <time>2025-03-02T10:56:40Z</time>
      </trkpt>
      <trkpt lat="45.72796" lon="4.61167">
        <ele>669.4</ele>
        <time>2025-03-02T10:56:41Z</time>
      </trkpt>
      <trkpt lat="45.72803" lon="4.61166">
        <ele>669</ele>
        <time>2025-03-02T10:56:42Z</time>
      </trkpt>
      <trkpt lat="45.72811" lon="4.61165">
        <ele>669</ele>
        <time>2025-03-02T10:56:43Z</time>
      </trkpt>
      <trkpt lat="45.72817" lon="4.61165">
        <ele>669</ele>
        <time>2025-03-02T10:56:44Z</time>
      </trkpt>
      <trkpt lat="45.72821" lon="4.61167">
        <ele>669</ele>
        <time>2025-03-02T10:56:45Z</time>
      </trkpt>
      <trkpt lat="45.72825" lon="4.61168">
        <ele>669.6</ele>
        <time>2025-03-02T10:56:46Z</time>
      </trkpt>
      <trkpt lat="45.72829" lon="4.61171">
        <ele>670</ele>
        <time>2025-03-02T10:56:47Z</time>
      </trkpt>
      <trkpt lat="45.72833" lon="4.61172">
        <ele>670.2</ele>
        <time>2025-03-02T10:56:48Z</time>
      </trkpt>
      <trkpt lat="45.72836" lon="4.61174">
        <ele>670.8</ele>
        <time>2025-03-02T10:56:49Z</time>
      </trkpt>
      <trkpt lat="45.7284" lon="4.61175">
        <ele>671.2</ele>
        <time>2025-03-02T10:56:50Z</time>
      </trkpt>
      <trkpt lat="45.72843" lon="4.61176">
        <ele>671.6</ele>
        <time>2025-03-02T10:56:51Z</time>
      </trkpt>
      <trkpt lat="45.72847" lon="4.61178">
        <ele>672</ele>
        <time>2025-03-02T10:56:52Z</time>
      </trkpt>
      <trkpt lat="45.72851" lon="4.61179">
        <ele>672.2</ele>
        <time>2025-03-02T10:56:53Z</time>
      </trkpt>
      <trkpt lat="45.72854" lon="4.61181">
        <ele>672.2</ele>
        <time>2025-03-02T10:56:54Z</time>
      </trkpt>
      <trkpt lat="45.72857" lon="4.61184">
        <ele>672.2</ele>
        <time>2025-03-02T10:56:55Z</time>
      </trkpt>
      <trkpt lat="45.72861" lon="4.61187">
        <ele>672.2</ele>
        <time>2025-03-02T10:56:56Z</time>
      </trkpt>
      <trkpt lat="45.72865" lon="4.61191">
        <ele>672.2</ele>
        <time>2025-03-02T10:56:57Z</time>
      </trkpt>
      <trkpt lat="45.72869" lon="4.61194">
        <ele>672</ele>
        <time>2025-03-02T10:56:58Z</time>
      </trkpt>
      <trkpt lat="45.72873" lon="4.61198">
        <ele>671.6</ele>
        <time>2025-03-02T10:56:59Z</time>
      </trkpt>
      <trkpt lat="45.72877" lon="4.61201">
        <ele>671.6</ele>
        <time>2025-03-02T10:57:00Z</time>
      </trkpt>
      <trkpt lat="45.72881" lon="4.61204">
        <ele>671.4</ele>
        <time>2025-03-02T10:57:01Z</time>
      </trkpt>
      <trkpt lat="45.72885" lon="4.61208">
        <ele>671</ele>
        <time>2025-03-02T10:57:02Z</time>
      </trkpt>
      <trkpt lat="45.7289" lon="4.61212">
        <ele>670.8</ele>
        <time>2025-03-02T10:57:03Z</time>
      </trkpt>
      <trkpt lat="45.72894" lon="4.61215">
        <ele>670.6</ele>
        <time>2025-03-02T10:57:04Z</time>
      </trkpt>
      <trkpt lat="45.72899" lon="4.61219">
        <ele>670.6</ele>
        <time>2025-03-02T10:57:05Z</time>
      </trkpt>
      <trkpt lat="45.72904" lon="4.61221">
        <ele>670.6</ele>
        <time>2025-03-02T10:57:06Z</time>
      </trkpt>
      <trkpt lat="45.72908" lon="4.61225">
        <ele>670.4</ele>
        <time>2025-03-02T10:57:07Z</time>
      </trkpt>
      <trkpt lat="45.72914" lon="4.61229">
        <ele>670.2</ele>
        <time>2025-03-02T10:57:08Z</time>
      </trkpt>
      <trkpt lat="45.72919" lon="4.61233">
        <ele>670.2</ele>
        <time>2025-03-02T10:57:09Z</time>
      </trkpt>
      <trkpt lat="45.72924" lon="4.61236">
        <ele>670</ele>
        <time>2025-03-02T10:57:10Z</time>
      </trkpt>
      <trkpt lat="45.72929" lon="4.61239">
        <ele>669.8</ele>
        <time>2025-03-02T10:57:11Z</time>
      </trkpt>
      <trkpt lat="45.72934" lon="4.61241">
        <ele>669.8</ele>
        <time>2025-03-02T10:57:12Z</time>
      </trkpt>
      <trkpt lat="45.72939" lon="4.61243">
        <ele>669.6</ele>
        <time>2025-03-02T10:57:13Z</time>
      </trkpt>
      <trkpt lat="45.72944" lon="4.61244">
        <ele>669.4</ele>
        <time>2025-03-02T10:57:14Z</time>
      </trkpt>
      <trkpt lat="45.72948" lon="4.61245">
        <ele>669.4</ele>
        <time>2025-03-02T10:57:15Z</time>
      </trkpt>
      <trkpt lat="45.72953" lon="4.61245">
        <ele>669.2</ele>
        <time>2025-03-02T10:57:16Z</time>
      </trkpt>
      <trkpt lat="45.72957" lon="4.61244">
        <ele>669</ele>
        <time>2025-03-02T10:57:17Z</time>
      </trkpt>
      <trkpt lat="45.72962" lon="4.61244">
        <ele>668.8</ele>
        <time>2025-03-02T10:57:18Z</time>
      </trkpt>
      <trkpt lat="45.72967" lon="4.61245">
        <ele>668.6</ele>
        <time>2025-03-02T10:57:19Z</time>
      </trkpt>
      <trkpt lat="45.72971" lon="4.61245">
        <ele>668.6</ele>
        <time>2025-03-02T10:57:20Z</time>
      </trkpt>
      <trkpt lat="45.72973" lon="4.61246">
        <ele>668.6</ele>
        <time>2025-03-02T10:57:21Z</time>
      </trkpt>
      <trkpt lat="45.72976" lon="4.61246">
        <ele>668.6</ele>
        <time>2025-03-02T10:57:22Z</time>
      </trkpt>
      <trkpt lat="45.72977" lon="4.61247">
        <ele>668.6</ele>
        <time>2025-03-02T10:57:23Z</time>
      </trkpt>
      <trkpt lat="45.72977" lon="4.61247">
        <ele>668.6</ele>
        <time>2025-03-02T10:57:24Z</time>
      </trkpt>
      <trkpt lat="45.72977" lon="4.61247">
        <ele>668.6</ele>
        <time>2025-03-02T10:57:25Z</time>
      </trkpt>
      <trkpt lat="45.72977" lon="4.61247">
        <ele>668.6</ele>
        <time>2025-03-02T10:57:26Z</time>
      </trkpt>
      <trkpt lat="45.72977" lon="4.61247">
        <ele>668.6</ele>
        <time>2025-03-02T10:57:27Z</time>
      </trkpt>
      <trkpt lat="45.72977" lon="4.61247">
        <ele>668.6</ele>
        <time>2025-03-02T10:57:28Z</time>
      </trkpt>
      <trkpt lat="45.72977" lon="4.61247">
        <ele>668.6</ele>
        <time>2025-03-02T10:57:29Z</time>
      </trkpt>
      <trkpt lat="45.72977" lon="4.61247">
        <ele>668.6</ele>
        <time>2025-03-02T10:57:30Z</time>
      </trkpt>
      <trkpt lat="45.72977" lon="4.61247">
        <ele>668.4</ele>
        <time>2025-03-02T10:57:31Z</time>
      </trkpt>
      <trkpt lat="45.72977" lon="4.61247">
        <ele>668.4</ele>
        <time>2025-03-02T10:57:32Z</time>
      </trkpt>
      <trkpt lat="45.72977" lon="4.61247">
        <ele>668.4</ele>
        <time>2025-03-02T10:57:33Z</time>
      </trkpt>
      <trkpt lat="45.72977" lon="4.61247">
        <ele>668.4</ele>
        <time>2025-03-02T10:57:34Z</time>
      </trkpt>
      <trkpt lat="45.72978" lon="4.61247">
        <ele>668.4</ele>
        <time>2025-03-02T10:57:35Z</time>
      </trkpt>
      <trkpt lat="45.7298" lon="4.61248">
        <ele>668.4</ele>
        <time>2025-03-02T10:57:36Z</time>
      </trkpt>
      <trkpt lat="45.72983" lon="4.61249">
        <ele>668.2</ele>
        <time>2025-03-02T10:57:37Z</time>
      </trkpt>
      <trkpt lat="45.72986" lon="4.6125">
        <ele>668</ele>
        <time>2025-03-02T10:57:38Z</time>
      </trkpt>
      <trkpt lat="45.7299" lon="4.61252">
        <ele>667.4</ele>
        <time>2025-03-02T10:57:39Z</time>
      </trkpt>
      <trkpt lat="45.72994" lon="4.61252">
        <ele>666.8</ele>
        <time>2025-03-02T10:57:40Z</time>
      </trkpt>
      <trkpt lat="45.72999" lon="4.6125">
        <ele>665.8</ele>
        <time>2025-03-02T10:57:41Z</time>
      </trkpt>
      <trkpt lat="45.73004" lon="4.61246">
        <ele>665.2</ele>
        <time>2025-03-02T10:57:42Z</time>
      </trkpt>
      <trkpt lat="45.73008" lon="4.61242">
        <ele>664.6</ele>
        <time>2025-03-02T10:57:43Z</time>
      </trkpt>
      <trkpt lat="45.73013" lon="4.61238">
        <ele>664.2</ele>
        <time>2025-03-02T10:57:44Z</time>
      </trkpt>
      <trkpt lat="45.73017" lon="4.61233">
        <ele>664.2</ele>
        <time>2025-03-02T10:57:45Z</time>
      </trkpt>
      <trkpt lat="45.73021" lon="4.61228">
        <ele>664.2</ele>
        <time>2025-03-02T10:57:46Z</time>
      </trkpt>
      <trkpt lat="45.73025" lon="4.61224">
        <ele>664.2</ele>
        <time>2025-03-02T10:57:47Z</time>
      </trkpt>
      <trkpt lat="45.73029" lon="4.61219">
        <ele>664.4</ele>
        <time>2025-03-02T10:57:48Z</time>
      </trkpt>
      <trkpt lat="45.73032" lon="4.61214">
        <ele>664.6</ele>
        <time>2025-03-02T10:57:49Z</time>
      </trkpt>
      <trkpt lat="45.73035" lon="4.6121">
        <ele>664.8</ele>
        <time>2025-03-02T10:57:50Z</time>
      </trkpt>
      <trkpt lat="45.73039" lon="4.61205">
        <ele>664.8</ele>
        <time>2025-03-02T10:57:51Z</time>
      </trkpt>
      <trkpt lat="45.73043" lon="4.61201">
        <ele>665.4</ele>
        <time>2025-03-02T10:57:52Z</time>
      </trkpt>
      <trkpt lat="45.73046" lon="4.61197">
        <ele>665.6</ele>
        <time>2025-03-02T10:57:53Z</time>
      </trkpt>
      <trkpt lat="45.7305" lon="4.61192">
        <ele>665.8</ele>
        <time>2025-03-02T10:57:54Z</time>
      </trkpt>
      <trkpt lat="45.73054" lon="4.61188">
        <ele>666</ele>
        <time>2025-03-02T10:57:55Z</time>
      </trkpt>
      <trkpt lat="45.73057" lon="4.61183">
        <ele>666.2</ele>
        <time>2025-03-02T10:57:56Z</time>
      </trkpt>
      <trkpt lat="45.73061" lon="4.61177">
        <ele>666.6</ele>
        <time>2025-03-02T10:57:57Z</time>
      </trkpt>
      <trkpt lat="45.73065" lon="4.61173">
        <ele>666.8</ele>
        <time>2025-03-02T10:57:58Z</time>
      </trkpt>
      <trkpt lat="45.7307" lon="4.61168">
        <ele>666.8</ele>
        <time>2025-03-02T10:57:59Z</time>
      </trkpt>
      <trkpt lat="45.73075" lon="4.61163">
        <ele>667</ele>
        <time>2025-03-02T10:58:00Z</time>
      </trkpt>
      <trkpt lat="45.7308" lon="4.6116">
        <ele>667</ele>
        <time>2025-03-02T10:58:01Z</time>
      </trkpt>
      <trkpt lat="45.73084" lon="4.61157">
        <ele>667</ele>
        <time>2025-03-02T10:58:02Z</time>
      </trkpt>
      <trkpt lat="45.73089" lon="4.61155">
        <ele>667.2</ele>
        <time>2025-03-02T10:58:03Z</time>
      </trkpt>
      <trkpt lat="45.73094" lon="4.61153">
        <ele>667.2</ele>
        <time>2025-03-02T10:58:04Z</time>
      </trkpt>
      <trkpt lat="45.73097" lon="4.61152">
        <ele>667.4</ele>
        <time>2025-03-02T10:58:05Z</time>
      </trkpt>
      <trkpt lat="45.73102" lon="4.6115">
        <ele>667.8</ele>
        <time>2025-03-02T10:58:06Z</time>
      </trkpt>
      <trkpt lat="45.73107" lon="4.61149">
        <ele>668</ele>
        <time>2025-03-02T10:58:07Z</time>
      </trkpt>
      <trkpt lat="45.73111" lon="4.61147">
        <ele>668</ele>
        <time>2025-03-02T10:58:08Z</time>
      </trkpt>
      <trkpt lat="45.73116" lon="4.61144">
        <ele>668.2</ele>
        <time>2025-03-02T10:58:09Z</time>
      </trkpt>
      <trkpt lat="45.73121" lon="4.6114">
        <ele>668.2</ele>
        <time>2025-03-02T10:58:10Z</time>
      </trkpt>
      <trkpt lat="45.73125" lon="4.61137">
        <ele>668</ele>
        <time>2025-03-02T10:58:11Z</time>
      </trkpt>
      <trkpt lat="45.7313" lon="4.61132">
        <ele>668</ele>
        <time>2025-03-02T10:58:12Z</time>
      </trkpt>
      <trkpt lat="45.73135" lon="4.61128">
        <ele>668</ele>
        <time>2025-03-02T10:58:13Z</time>
      </trkpt>
      <trkpt lat="45.73141" lon="4.61123">
        <ele>667.8</ele>
        <time>2025-03-02T10:58:14Z</time>
      </trkpt>
      <trkpt lat="45.73146" lon="4.61118">
        <ele>667.8</ele>
        <time>2025-03-02T10:58:15Z</time>
      </trkpt>
      <trkpt lat="45.73151" lon="4.61114">
        <ele>667.8</ele>
        <time>2025-03-02T10:58:16Z</time>
      </trkpt>
      <trkpt lat="45.73155" lon="4.61109">
        <ele>667.8</ele>
        <time>2025-03-02T10:58:17Z</time>
      </trkpt>
      <trkpt lat="45.73159" lon="4.61104">
        <ele>667.8</ele>
        <time>2025-03-02T10:58:18Z</time>
      </trkpt>
      <trkpt lat="45.73164" lon="4.61098">
        <ele>667.8</ele>
        <time>2025-03-02T10:58:19Z</time>
      </trkpt>
      <trkpt lat="45.73168" lon="4.61093">
        <ele>667.8</ele>
        <time>2025-03-02T10:58:20Z</time>
      </trkpt>
      <trkpt lat="45.73172" lon="4.61088">
        <ele>667.6</ele>
        <time>2025-03-02T10:58:21Z</time>
      </trkpt>
      <trkpt lat="45.73176" lon="4.61083">
        <ele>667.6</ele>
        <time>2025-03-02T10:58:22Z</time>
      </trkpt>
      <trkpt lat="45.7318" lon="4.61078">
        <ele>667.6</ele>
        <time>2025-03-02T10:58:23Z</time>
      </trkpt>
      <trkpt lat="45.73185" lon="4.61076">
        <ele>667.4</ele>
        <time>2025-03-02T10:58:24Z</time>
      </trkpt>
      <trkpt lat="45.7319" lon="4.61076">
        <ele>667.4</ele>
        <time>2025-03-02T10:58:25Z</time>
      </trkpt>
      <trkpt lat="45.73195" lon="4.61077">
        <ele>667.6</ele>
        <time>2025-03-02T10:58:26Z</time>
      </trkpt>
      <trkpt lat="45.73197" lon="4.61079">
        <ele>667.6</ele>
        <time>2025-03-02T10:58:27Z</time>
      </trkpt>
      <trkpt lat="45.73199" lon="4.61079">
        <ele>667.6</ele>
        <time>2025-03-02T10:58:28Z</time>
      </trkpt>
      <trkpt lat="45.73201" lon="4.61081">
        <ele>668</ele>
        <time>2025-03-02T10:58:29Z</time>
      </trkpt>
      <trkpt lat="45.73202" lon="4.61082">
        <ele>668.4</ele>
        <time>2025-03-02T10:58:30Z</time>
      </trkpt>
      <trkpt lat="45.73203" lon="4.61083">
        <ele>669.4</ele>
        <time>2025-03-02T10:58:31Z</time>
      </trkpt>
      <trkpt lat="45.73204" lon="4.61084">
        <ele>670</ele>
        <time>2025-03-02T10:58:32Z</time>
      </trkpt>
      <trkpt lat="45.73205" lon="4.61086">
        <ele>670.2</ele>
        <time>2025-03-02T10:58:33Z</time>
      </trkpt>
      <trkpt lat="45.73206" lon="4.61088">
        <ele>670.4</ele>
        <time>2025-03-02T10:58:34Z</time>
      </trkpt>
      <trkpt lat="45.73207" lon="4.61091">
        <ele>670.4</ele>
        <time>2025-03-02T10:58:35Z</time>
      </trkpt>
      <trkpt lat="45.73207" lon="4.61094">
        <ele>670.6</ele>
        <time>2025-03-02T10:58:36Z</time>
      </trkpt>
      <trkpt lat="45.73209" lon="4.61098">
        <ele>670.4</ele>
        <time>2025-03-02T10:58:37Z</time>
      </trkpt>
      <trkpt lat="45.7321" lon="4.61103">
        <ele>670.4</ele>
        <time>2025-03-02T10:58:38Z</time>
      </trkpt>
      <trkpt lat="45.73212" lon="4.61108">
        <ele>670</ele>
        <time>2025-03-02T10:58:39Z</time>
      </trkpt>
      <trkpt lat="45.73214" lon="4.61113">
        <ele>669.8</ele>
        <time>2025-03-02T10:58:40Z</time>
      </trkpt>
      <trkpt lat="45.73216" lon="4.61121">
        <ele>669.6</ele>
        <time>2025-03-02T10:58:41Z</time>
      </trkpt>
      <trkpt lat="45.73217" lon="4.61128">
        <ele>669.4</ele>
        <time>2025-03-02T10:58:42Z</time>
      </trkpt>
      <trkpt lat="45.73218" lon="4.61135">
        <ele>669.2</ele>
        <time>2025-03-02T10:58:43Z</time>
      </trkpt>
      <trkpt lat="45.7322" lon="4.61142">
        <ele>668.6</ele>
        <time>2025-03-02T10:58:44Z</time>
      </trkpt>
      <trkpt lat="45.73222" lon="4.61149">
        <ele>668.4</ele>
        <time>2025-03-02T10:58:45Z</time>
      </trkpt>
      <trkpt lat="45.73224" lon="4.61158">
        <ele>668.2</ele>
        <time>2025-03-02T10:58:46Z</time>
      </trkpt>
      <trkpt lat="45.73226" lon="4.61165">
        <ele>668.2</ele>
        <time>2025-03-02T10:58:47Z</time>
      </trkpt>
      <trkpt lat="45.73226" lon="4.61172">
        <ele>668.2</ele>
        <time>2025-03-02T10:58:48Z</time>
      </trkpt>
      <trkpt lat="45.73227" lon="4.61179">
        <ele>668.2</ele>
        <time>2025-03-02T10:58:49Z</time>
      </trkpt>
      <trkpt lat="45.73227" lon="4.61187">
        <ele>668.4</ele>
        <time>2025-03-02T10:58:50Z</time>
      </trkpt>
      <trkpt lat="45.73227" lon="4.61195">
        <ele>668.4</ele>
        <time>2025-03-02T10:58:51Z</time>
      </trkpt>
      <trkpt lat="45.73228" lon="4.61203">
        <ele>668.4</ele>
        <time>2025-03-02T10:58:52Z</time>
      </trkpt>
      <trkpt lat="45.73228" lon="4.61211">
        <ele>668.4</ele>
        <time>2025-03-02T10:58:53Z</time>
      </trkpt>
      <trkpt lat="45.73228" lon="4.61218">
        <ele>668.4</ele>
        <time>2025-03-02T10:58:54Z</time>
      </trkpt>
      <trkpt lat="45.73228" lon="4.61226">
        <ele>668.4</ele>
        <time>2025-03-02T10:58:55Z</time>
      </trkpt>
      <trkpt lat="45.73228" lon="4.61237">
        <ele>668.4</ele>
        <time>2025-03-02T10:58:56Z</time>
      </trkpt>
      <trkpt lat="45.73228" lon="4.61246">
        <ele>668.2</ele>
        <time>2025-03-02T10:58:57Z</time>
      </trkpt>
      <trkpt lat="45.73228" lon="4.61255">
        <ele>668</ele>
        <time>2025-03-02T10:58:58Z</time>
      </trkpt>
      <trkpt lat="45.73229" lon="4.61264">
        <ele>667.8</ele>
        <time>2025-03-02T10:58:59Z</time>
      </trkpt>
      <trkpt lat="45.73229" lon="4.61272">
        <ele>667.4</ele>
        <time>2025-03-02T10:59:00Z</time>
      </trkpt>
      <trkpt lat="45.73229" lon="4.61281">
        <ele>667.2</ele>
        <time>2025-03-02T10:59:01Z</time>
      </trkpt>
      <trkpt lat="45.7323" lon="4.6129">
        <ele>667</ele>
        <time>2025-03-02T10:59:02Z</time>
      </trkpt>
      <trkpt lat="45.73232" lon="4.61299">
        <ele>666.8</ele>
        <time>2025-03-02T10:59:03Z</time>
      </trkpt>
      <trkpt lat="45.73235" lon="4.61306">
        <ele>666.6</ele>
        <time>2025-03-02T10:59:04Z</time>
      </trkpt>
      <trkpt lat="45.73237" lon="4.61312">
        <ele>666.6</ele>
        <time>2025-03-02T10:59:05Z</time>
      </trkpt>
      <trkpt lat="45.7324" lon="4.61319">
        <ele>666.6</ele>
        <time>2025-03-02T10:59:06Z</time>
      </trkpt>
      <trkpt lat="45.73243" lon="4.61326">
        <ele>666.6</ele>
        <time>2025-03-02T10:59:07Z</time>
      </trkpt>
      <trkpt lat="45.73246" lon="4.61333">
        <ele>666.4</ele>
        <time>2025-03-02T10:59:08Z</time>
      </trkpt>
      <trkpt lat="45.73249" lon="4.61339">
        <ele>666.4</ele>
        <time>2025-03-02T10:59:09Z</time>
      </trkpt>
      <trkpt lat="45.73253" lon="4.61344">
        <ele>666.4</ele>
        <time>2025-03-02T10:59:10Z</time>
      </trkpt>
      <trkpt lat="45.73256" lon="4.6135">
        <ele>666.4</ele>
        <time>2025-03-02T10:59:11Z</time>
      </trkpt>
      <trkpt lat="45.73259" lon="4.61354">
        <ele>666.4</ele>
        <time>2025-03-02T10:59:12Z</time>
      </trkpt>
      <trkpt lat="45.73262" lon="4.61358">
        <ele>666.6</ele>
        <time>2025-03-02T10:59:13Z</time>
      </trkpt>
      <trkpt lat="45.73264" lon="4.61362">
        <ele>666.8</ele>
        <time>2025-03-02T10:59:14Z</time>
      </trkpt>
      <trkpt lat="45.73267" lon="4.61366">
        <ele>667.6</ele>
        <time>2025-03-02T10:59:15Z</time>
      </trkpt>
      <trkpt lat="45.7327" lon="4.61369">
        <ele>668</ele>
        <time>2025-03-02T10:59:16Z</time>
      </trkpt>
      <trkpt lat="45.73273" lon="4.61372">
        <ele>668.2</ele>
        <time>2025-03-02T10:59:17Z</time>
      </trkpt>
      <trkpt lat="45.73276" lon="4.61375">
        <ele>668.2</ele>
        <time>2025-03-02T10:59:18Z</time>
      </trkpt>
      <trkpt lat="45.73279" lon="4.61379">
        <ele>668.4</ele>
        <time>2025-03-02T10:59:19Z</time>
      </trkpt>
      <trkpt lat="45.73283" lon="4.61383">
        <ele>668.4</ele>
        <time>2025-03-02T10:59:20Z</time>
      </trkpt>
      <trkpt lat="45.73287" lon="4.61386">
        <ele>668.4</ele>
        <time>2025-03-02T10:59:21Z</time>
      </trkpt>
      <trkpt lat="45.73292" lon="4.61389">
        <ele>668.2</ele>
        <time>2025-03-02T10:59:22Z</time>
      </trkpt>
      <trkpt lat="45.73295" lon="4.61391">
        <ele>667.6</ele>
        <time>2025-03-02T10:59:23Z</time>
      </trkpt>
      <trkpt lat="45.733" lon="4.61394">
        <ele>667.4</ele>
        <time>2025-03-02T10:59:24Z</time>
      </trkpt>
      <trkpt lat="45.73306" lon="4.61396">
        <ele>666.6</ele>
        <time>2025-03-02T10:59:25Z</time>
      </trkpt>
      <trkpt lat="45.73311" lon="4.61397">
        <ele>666.2</ele>
        <time>2025-03-02T10:59:26Z</time>
      </trkpt>
      <trkpt lat="45.73319" lon="4.61398">
        <ele>664.6</ele>
        <time>2025-03-02T10:59:27Z</time>
      </trkpt>
      <trkpt lat="45.73326" lon="4.61399">
        <ele>663.4</ele>
        <time>2025-03-02T10:59:28Z</time>
      </trkpt>
      <trkpt lat="45.73331" lon="4.61399">
        <ele>662.4</ele>
        <time>2025-03-02T10:59:29Z</time>
      </trkpt>
      <trkpt lat="45.73337" lon="4.61399">
        <ele>662.2</ele>
        <time>2025-03-02T10:59:30Z</time>
      </trkpt>
      <trkpt lat="45.73344" lon="4.614">
        <ele>661.8</ele>
        <time>2025-03-02T10:59:31Z</time>
      </trkpt>
      <trkpt lat="45.7335" lon="4.61401">
        <ele>661.8</ele>
        <time>2025-03-02T10:59:32Z</time>
      </trkpt>
      <trkpt lat="45.73355" lon="4.61403">
        <ele>661.8</ele>
        <time>2025-03-02T10:59:33Z</time>
      </trkpt>
      <trkpt lat="45.73359" lon="4.61403">
        <ele>661.8</ele>
        <time>2025-03-02T10:59:34Z</time>
      </trkpt>
      <trkpt lat="45.73364" lon="4.61404">
        <ele>662</ele>
        <time>2025-03-02T10:59:35Z</time>
      </trkpt>
      <trkpt lat="45.73368" lon="4.61405">
        <ele>662.2</ele>
        <time>2025-03-02T10:59:36Z</time>
      </trkpt>
      <trkpt lat="45.73372" lon="4.61406">
        <ele>662.2</ele>
        <time>2025-03-02T10:59:37Z</time>
      </trkpt>
      <trkpt lat="45.73377" lon="4.61407">
        <ele>662.2</ele>
        <time>2025-03-02T10:59:38Z</time>
      </trkpt>
      <trkpt lat="45.73381" lon="4.61408">
        <ele>662.4</ele>
        <time>2025-03-02T10:59:39Z</time>
      </trkpt>
      <trkpt lat="45.73385" lon="4.61408">
        <ele>662.6</ele>
        <time>2025-03-02T10:59:40Z</time>
      </trkpt>
      <trkpt lat="45.73388" lon="4.61408">
        <ele>663</ele>
        <time>2025-03-02T10:59:41Z</time>
      </trkpt>
      <trkpt lat="45.73389" lon="4.61408">
        <ele>663.2</ele>
        <time>2025-03-02T10:59:42Z</time>
      </trkpt>
      <trkpt lat="45.73391" lon="4.61408">
        <ele>663.6</ele>
        <time>2025-03-02T10:59:43Z</time>
      </trkpt>
      <trkpt lat="45.73393" lon="4.61409">
        <ele>663.8</ele>
        <time>2025-03-02T10:59:44Z</time>
      </trkpt>
      <trkpt lat="45.73394" lon="4.61409">
        <ele>664</ele>
        <time>2025-03-02T10:59:45Z</time>
      </trkpt>
      <trkpt lat="45.73394" lon="4.6141">
        <ele>664.2</ele>
        <time>2025-03-02T10:59:46Z</time>
      </trkpt>
      <trkpt lat="45.73395" lon="4.61411">
        <ele>664.2</ele>
        <time>2025-03-02T10:59:47Z</time>
      </trkpt>
      <trkpt lat="45.73395" lon="4.61412">
        <ele>664.6</ele>
        <time>2025-03-02T10:59:48Z</time>
      </trkpt>
      <trkpt lat="45.73395" lon="4.61414">
        <ele>664.8</ele>
        <time>2025-03-02T10:59:49Z</time>
      </trkpt>
      <trkpt lat="45.73396" lon="4.61415">
        <ele>665</ele>
        <time>2025-03-02T10:59:50Z</time>
      </trkpt>
      <trkpt lat="45.73398" lon="4.61417">
        <ele>665.2</ele>
        <time>2025-03-02T10:59:51Z</time>
      </trkpt>
      <trkpt lat="45.73398" lon="4.61421">
        <ele>665.2</ele>
        <time>2025-03-02T10:59:52Z</time>
      </trkpt>
      <trkpt lat="45.73397" lon="4.61425">
        <ele>665.2</ele>
        <time>2025-03-02T10:59:53Z</time>
      </trkpt>
      <trkpt lat="45.73397" lon="4.61428">
        <ele>665.2</ele>
        <time>2025-03-02T10:59:54Z</time>
      </trkpt>
      <trkpt lat="45.73396" lon="4.61433">
        <ele>665</ele>
        <time>2025-03-02T10:59:55Z</time>
      </trkpt>
      <trkpt lat="45.73395" lon="4.61437">
        <ele>664.8</ele>
        <time>2025-03-02T10:59:56Z</time>
      </trkpt>
      <trkpt lat="45.73394" lon="4.61443">
        <ele>664.6</ele>
        <time>2025-03-02T10:59:57Z</time>
      </trkpt>
      <trkpt lat="45.73392" lon="4.61448">
        <ele>664.6</ele>
        <time>2025-03-02T10:59:58Z</time>
      </trkpt>
      <trkpt lat="45.7339" lon="4.61454">
        <ele>664.6</ele>
        <time>2025-03-02T10:59:59Z</time>
      </trkpt>
      <trkpt lat="45.73389" lon="4.61459">
        <ele>664.6</ele>
        <time>2025-03-02T11:00:00Z</time>
      </trkpt>
      <trkpt lat="45.73388" lon="4.61465">
        <ele>664.6</ele>
        <time>2025-03-02T11:00:01Z</time>
      </trkpt>
      <trkpt lat="45.73386" lon="4.61472">
        <ele>664.4</ele>
        <time>2025-03-02T11:00:02Z</time>
      </trkpt>
      <trkpt lat="45.73385" lon="4.61477">
        <ele>664.4</ele>
        <time>2025-03-02T11:00:03Z</time>
      </trkpt>
      <trkpt lat="45.73383" lon="4.61483">
        <ele>664.4</ele>
        <time>2025-03-02T11:00:04Z</time>
      </trkpt>
      <trkpt lat="45.73382" lon="4.6149">
        <ele>664.4</ele>
        <time>2025-03-02T11:00:05Z</time>
      </trkpt>
      <trkpt lat="45.73381" lon="4.61496">
        <ele>664.4</ele>
        <time>2025-03-02T11:00:06Z</time>
      </trkpt>
      <trkpt lat="45.73379" lon="4.61501">
        <ele>664.4</ele>
        <time>2025-03-02T11:00:07Z</time>
      </trkpt>
      <trkpt lat="45.73378" lon="4.61506">
        <ele>664.4</ele>
        <time>2025-03-02T11:00:08Z</time>
      </trkpt>
      <trkpt lat="45.73377" lon="4.61511">
        <ele>664.6</ele>
        <time>2025-03-02T11:00:09Z</time>
      </trkpt>
      <trkpt lat="45.73376" lon="4.61515">
        <ele>665</ele>
        <time>2025-03-02T11:00:10Z</time>
      </trkpt>
      <trkpt lat="45.73375" lon="4.61517">
        <ele>665.4</ele>
        <time>2025-03-02T11:00:11Z</time>
      </trkpt>
      <trkpt lat="45.73374" lon="4.6152">
        <ele>665.4</ele>
        <time>2025-03-02T11:00:12Z</time>
      </trkpt>
      <trkpt lat="45.73373" lon="4.61524">
        <ele>665.6</ele>
        <time>2025-03-02T11:00:13Z</time>
      </trkpt>
      <trkpt lat="45.73372" lon="4.61528">
        <ele>666</ele>
        <time>2025-03-02T11:00:14Z</time>
      </trkpt>
      <trkpt lat="45.73371" lon="4.6153">
        <ele>666</ele>
        <time>2025-03-02T11:00:15Z</time>
      </trkpt>
      <trkpt lat="45.73371" lon="4.61535">
        <ele>666</ele>
        <time>2025-03-02T11:00:16Z</time>
      </trkpt>
      <trkpt lat="45.73369" lon="4.6154">
        <ele>666</ele>
        <time>2025-03-02T11:00:17Z</time>
      </trkpt>
      <trkpt lat="45.73367" lon="4.61545">
        <ele>666</ele>
        <time>2025-03-02T11:00:18Z</time>
      </trkpt>
      <trkpt lat="45.73366" lon="4.6155">
        <ele>666</ele>
        <time>2025-03-02T11:00:19Z</time>
      </trkpt>
      <trkpt lat="45.73365" lon="4.61555">
        <ele>665.8</ele>
        <time>2025-03-02T11:00:20Z</time>
      </trkpt>
      <trkpt lat="45.73363" lon="4.61559">
        <ele>665.8</ele>
        <time>2025-03-02T11:00:21Z</time>
      </trkpt>
      <trkpt lat="45.73359" lon="4.61566">
        <ele>665.8</ele>
        <time>2025-03-02T11:00:22Z</time>
      </trkpt>
      <trkpt lat="45.73357" lon="4.61572">
        <ele>665.6</ele>
        <time>2025-03-02T11:00:23Z</time>
      </trkpt>
      <trkpt lat="45.73355" lon="4.61576">
        <ele>665.6</ele>
        <time>2025-03-02T11:00:24Z</time>
      </trkpt>
      <trkpt lat="45.73351" lon="4.61581">
        <ele>665.6</ele>
        <time>2025-03-02T11:00:25Z</time>
      </trkpt>
      <trkpt lat="45.7335" lon="4.61585">
        <ele>665.4</ele>
        <time>2025-03-02T11:00:26Z</time>
      </trkpt>
      <trkpt lat="45.73347" lon="4.61588">
        <ele>665.4</ele>
        <time>2025-03-02T11:00:27Z</time>
      </trkpt>
      <trkpt lat="45.73343" lon="4.61595">
        <ele>665.4</ele>
        <time>2025-03-02T11:00:28Z</time>
      </trkpt>
      <trkpt lat="45.7334" lon="4.616">
        <ele>665</ele>
        <time>2025-03-02T11:00:29Z</time>
      </trkpt>
      <trkpt lat="45.73338" lon="4.61604">
        <ele>664.4</ele>
        <time>2025-03-02T11:00:30Z</time>
      </trkpt>
      <trkpt lat="45.73335" lon="4.61608">
        <ele>664</ele>
        <time>2025-03-02T11:00:31Z</time>
      </trkpt>
      <trkpt lat="45.73332" lon="4.61618">
        <ele>663.8</ele>
        <time>2025-03-02T11:00:32Z</time>
      </trkpt>
      <trkpt lat="45.73332" lon="4.61626">
        <ele>663.6</ele>
        <time>2025-03-02T11:00:33Z</time>
      </trkpt>
      <trkpt lat="45.73328" lon="4.61633">
        <ele>663.2</ele>
        <time>2025-03-02T11:00:34Z</time>
      </trkpt>
      <trkpt lat="45.73326" lon="4.61638">
        <ele>662.8</ele>
        <time>2025-03-02T11:00:35Z</time>
      </trkpt>
      <trkpt lat="45.73321" lon="4.61646">
        <ele>662</ele>
        <time>2025-03-02T11:00:36Z</time>
      </trkpt>
      <trkpt lat="45.73318" lon="4.61652">
        <ele>662</ele>
        <time>2025-03-02T11:00:37Z</time>
      </trkpt>
      <trkpt lat="45.73315" lon="4.61657">
        <ele>661.8</ele>
        <time>2025-03-02T11:00:38Z</time>
      </trkpt>
      <trkpt lat="45.73312" lon="4.61662">
        <ele>661.8</ele>
        <time>2025-03-02T11:00:39Z</time>
      </trkpt>
      <trkpt lat="45.7331" lon="4.61667">
        <ele>661.8</ele>
        <time>2025-03-02T11:00:40Z</time>
      </trkpt>
      <trkpt lat="45.73308" lon="4.61673">
        <ele>661.8</ele>
        <time>2025-03-02T11:00:41Z</time>
      </trkpt>
      <trkpt lat="45.73306" lon="4.61677">
        <ele>661.8</ele>
        <time>2025-03-02T11:00:42Z</time>
      </trkpt>
      <trkpt lat="45.73305" lon="4.61682">
        <ele>661.6</ele>
        <time>2025-03-02T11:00:43Z</time>
      </trkpt>
      <trkpt lat="45.73303" lon="4.61689">
        <ele>661.6</ele>
        <time>2025-03-02T11:00:44Z</time>
      </trkpt>
      <trkpt lat="45.73302" lon="4.61695">
        <ele>661.6</ele>
        <time>2025-03-02T11:00:45Z</time>
      </trkpt>
      <trkpt lat="45.73301" lon="4.61701">
        <ele>661.4</ele>
        <time>2025-03-02T11:00:46Z</time>
      </trkpt>
      <trkpt lat="45.733" lon="4.61705">
        <ele>661.4</ele>
        <time>2025-03-02T11:00:47Z</time>
      </trkpt>
      <trkpt lat="45.733" lon="4.6171">
        <ele>661.4</ele>
        <time>2025-03-02T11:00:48Z</time>
      </trkpt>
      <trkpt lat="45.733" lon="4.61715">
        <ele>661.4</ele>
        <time>2025-03-02T11:00:49Z</time>
      </trkpt>
      <trkpt lat="45.733" lon="4.61719">
        <ele>661.2</ele>
        <time>2025-03-02T11:00:50Z</time>
      </trkpt>
      <trkpt lat="45.733" lon="4.61722">
        <ele>661.2</ele>
        <time>2025-03-02T11:00:51Z</time>
      </trkpt>
      <trkpt lat="45.73299" lon="4.61723">
        <ele>661.2</ele>
        <time>2025-03-02T11:00:52Z</time>
      </trkpt>
      <trkpt lat="45.73298" lon="4.61723">
        <ele>661.2</ele>
        <time>2025-03-02T11:00:53Z</time>
      </trkpt>
      <trkpt lat="45.73298" lon="4.61722">
        <ele>661</ele>
        <time>2025-03-02T11:00:54Z</time>
      </trkpt>
      <trkpt lat="45.73298" lon="4.61722">
        <ele>661</ele>
        <time>2025-03-02T11:00:55Z</time>
      </trkpt>
      <trkpt lat="45.73298" lon="4.61722">
        <ele>661</ele>
        <time>2025-03-02T11:00:56Z</time>
      </trkpt>
      <trkpt lat="45.73298" lon="4.61722">
        <ele>660.8</ele>
        <time>2025-03-02T11:00:57Z</time>
      </trkpt>
      <trkpt lat="45.73297" lon="4.61721">
        <ele>660.8</ele>
        <time>2025-03-02T11:00:58Z</time>
      </trkpt>
      <trkpt lat="45.73297" lon="4.6172">
        <ele>660.8</ele>
        <time>2025-03-02T11:00:59Z</time>
      </trkpt>
      <trkpt lat="45.73296" lon="4.61718">
        <ele>660.6</ele>
        <time>2025-03-02T11:01:00Z</time>
      </trkpt>
      <trkpt lat="45.73295" lon="4.61715">
        <ele>660.6</ele>
        <time>2025-03-02T11:01:01Z</time>
      </trkpt>
      <trkpt lat="45.73294" lon="4.61712">
        <ele>660</ele>
        <time>2025-03-02T11:01:02Z</time>
      </trkpt>
      <trkpt lat="45.73293" lon="4.61709">
        <ele>658.8</ele>
        <time>2025-03-02T11:01:03Z</time>
      </trkpt>
      <trkpt lat="45.73291" lon="4.61707">
        <ele>658</ele>
        <time>2025-03-02T11:01:04Z</time>
      </trkpt>
      <trkpt lat="45.7329" lon="4.61707">
        <ele>657</ele>
        <time>2025-03-02T11:01:05Z</time>
      </trkpt>
      <trkpt lat="45.73288" lon="4.61707">
        <ele>656.2</ele>
        <time>2025-03-02T11:01:06Z</time>
      </trkpt>
      <trkpt lat="45.73287" lon="4.6171">
        <ele>655.4</ele>
        <time>2025-03-02T11:01:07Z</time>
      </trkpt>
      <trkpt lat="45.73285" lon="4.61713">
        <ele>654.8</ele>
        <time>2025-03-02T11:01:08Z</time>
      </trkpt>
      <trkpt lat="45.73282" lon="4.61717">
        <ele>654.2</ele>
        <time>2025-03-02T11:01:09Z</time>
      </trkpt>
      <trkpt lat="45.73279" lon="4.61719">
        <ele>653.2</ele>
        <time>2025-03-02T11:01:10Z</time>
      </trkpt>
      <trkpt lat="45.73275" lon="4.61722">
        <ele>652</ele>
        <time>2025-03-02T11:01:11Z</time>
      </trkpt>
      <trkpt lat="45.73272" lon="4.61724">
        <ele>651</ele>
        <time>2025-03-02T11:01:12Z</time>
      </trkpt>
      <trkpt lat="45.73269" lon="4.61725">
        <ele>649.8</ele>
        <time>2025-03-02T11:01:13Z</time>
      </trkpt>
      <trkpt lat="45.73266" lon="4.61727">
        <ele>648.6</ele>
        <time>2025-03-02T11:01:14Z</time>
      </trkpt>
      <trkpt lat="45.73262" lon="4.6173">
        <ele>647.4</ele>
        <time>2025-03-02T11:01:15Z</time>
      </trkpt>
      <trkpt lat="45.7326" lon="4.61733">
        <ele>645.8</ele>
        <time>2025-03-02T11:01:16Z</time>
      </trkpt>
      <trkpt lat="45.73257" lon="4.61737">
        <ele>644.8</ele>
        <time>2025-03-02T11:01:17Z</time>
      </trkpt>
      <trkpt lat="45.73255" lon="4.6174">
        <ele>643.4</ele>
        <time>2025-03-02T11:01:18Z</time>
      </trkpt>
      <trkpt lat="45.73254" lon="4.61742">
        <ele>642.2</ele>
        <time>2025-03-02T11:01:19Z</time>
      </trkpt>
      <trkpt lat="45.73254" lon="4.61743">
        <ele>641</ele>
        <time>2025-03-02T11:01:20Z</time>
      </trkpt>
      <trkpt lat="45.73254" lon="4.61743">
        <ele>640</ele>
        <time>2025-03-02T11:01:21Z</time>
      </trkpt>
      <trkpt lat="45.73254" lon="4.61743">
        <ele>639.4</ele>
        <time>2025-03-02T11:01:22Z</time>
      </trkpt>
      <trkpt lat="45.73254" lon="4.61743">
        <ele>639</ele>
        <time>2025-03-02T11:01:23Z</time>
      </trkpt>
      <trkpt lat="45.73254" lon="4.61743">
        <ele>638.6</ele>
        <time>2025-03-02T11:01:24Z</time>
      </trkpt>
      <trkpt lat="45.73254" lon="4.61743">
        <ele>638.6</ele>
        <time>2025-03-02T11:01:25Z</time>
      </trkpt>
      <trkpt lat="45.73253" lon="4.61743">
        <ele>638.4</ele>
        <time>2025-03-02T11:01:26Z</time>
      </trkpt>
      <trkpt lat="45.73251" lon="4.61743">
        <ele>638.4</ele>
        <time>2025-03-02T11:01:27Z</time>
      </trkpt>
      <trkpt lat="45.73249" lon="4.61742">
        <ele>638.2</ele>
        <time>2025-03-02T11:01:28Z</time>
      </trkpt>
      <trkpt lat="45.73248" lon="4.61741">
        <ele>638</ele>
        <time>2025-03-02T11:01:29Z</time>
      </trkpt>
      <trkpt lat="45.73246" lon="4.61738">
        <ele>637.8</ele>
        <time>2025-03-02T11:01:30Z</time>
      </trkpt>
      <trkpt lat="45.73245" lon="4.61736">
        <ele>637.2</ele>
        <time>2025-03-02T11:01:31Z</time>
      </trkpt>
      <trkpt lat="45.73244" lon="4.61734">
        <ele>636.6</ele>
        <time>2025-03-02T11:01:32Z</time>
      </trkpt>
      <trkpt lat="45.73243" lon="4.61735">
        <ele>636</ele>
        <time>2025-03-02T11:01:33Z</time>
      </trkpt>
      <trkpt lat="45.73242" lon="4.61738">
        <ele>635.4</ele>
        <time>2025-03-02T11:01:34Z</time>
      </trkpt>
      <trkpt lat="45.73241" lon="4.61743">
        <ele>635</ele>
        <time>2025-03-02T11:01:35Z</time>
      </trkpt>
      <trkpt lat="45.7324" lon="4.61748">
        <ele>634.4</ele>
        <time>2025-03-02T11:01:36Z</time>
      </trkpt>
      <trkpt lat="45.73239" lon="4.61753">
        <ele>633.8</ele>
        <time>2025-03-02T11:01:37Z</time>
      </trkpt>
      <trkpt lat="45.73238" lon="4.61758">
        <ele>632.8</ele>
        <time>2025-03-02T11:01:38Z</time>
      </trkpt>
      <trkpt lat="45.73238" lon="4.61762">
        <ele>631.8</ele>
        <time>2025-03-02T11:01:39Z</time>
      </trkpt>
      <trkpt lat="45.73239" lon="4.61767">
        <ele>631</ele>
        <time>2025-03-02T11:01:40Z</time>
      </trkpt>
      <trkpt lat="45.7324" lon="4.61774">
        <ele>630.4</ele>
        <time>2025-03-02T11:01:41Z</time>
      </trkpt>
      <trkpt lat="45.7324" lon="4.61781">
        <ele>630</ele>
        <time>2025-03-02T11:01:42Z</time>
      </trkpt>
      <trkpt lat="45.73241" lon="4.61789">
        <ele>629</ele>
        <time>2025-03-02T11:01:43Z</time>
      </trkpt>
      <trkpt lat="45.73242" lon="4.61798">
        <ele>628</ele>
        <time>2025-03-02T11:01:44Z</time>
      </trkpt>
      <trkpt lat="45.73244" lon="4.61807">
        <ele>627</ele>
        <time>2025-03-02T11:01:45Z</time>
      </trkpt>
      <trkpt lat="45.73246" lon="4.61816">
        <ele>626.2</ele>
        <time>2025-03-02T11:01:46Z</time>
      </trkpt>
      <trkpt lat="45.73247" lon="4.61826">
        <ele>625.4</ele>
        <time>2025-03-02T11:01:47Z</time>
      </trkpt>
      <trkpt lat="45.73249" lon="4.61835">
        <ele>624.6</ele>
        <time>2025-03-02T11:01:48Z</time>
      </trkpt>
      <trkpt lat="45.7325" lon="4.61845">
        <ele>623.8</ele>
        <time>2025-03-02T11:01:49Z</time>
      </trkpt>
      <trkpt lat="45.73252" lon="4.61854">
        <ele>623.6</ele>
        <time>2025-03-02T11:01:50Z</time>
      </trkpt>
      <trkpt lat="45.73253" lon="4.61864">
        <ele>623.4</ele>
        <time>2025-03-02T11:01:51Z</time>
      </trkpt>
      <trkpt lat="45.73254" lon="4.61875">
        <ele>622.4</ele>
        <time>2025-03-02T11:01:52Z</time>
      </trkpt>
      <trkpt lat="45.73255" lon="4.61885">
        <ele>621.6</ele>
        <time>2025-03-02T11:01:53Z</time>
      </trkpt>
      <trkpt lat="45.73255" lon="4.61894">
        <ele>621</ele>
        <time>2025-03-02T11:01:54Z</time>
      </trkpt>
      <trkpt lat="45.73255" lon="4.61902">
        <ele>620.8</ele>
        <time>2025-03-02T11:01:55Z</time>
      </trkpt>
      <trkpt lat="45.73255" lon="4.61907">
        <ele>620.8</ele>
        <time>2025-03-02T11:01:56Z</time>
      </trkpt>
      <trkpt lat="45.73256" lon="4.61908">
        <ele>620.8</ele>
        <time>2025-03-02T11:01:57Z</time>
      </trkpt>
      <trkpt lat="45.73256" lon="4.61908">
        <ele>621</ele>
        <time>2025-03-02T11:01:58Z</time>
      </trkpt>
      <trkpt lat="45.73256" lon="4.61908">
        <ele>621.4</ele>
        <time>2025-03-02T11:01:59Z</time>
      </trkpt>
      <trkpt lat="45.73256" lon="4.61908">
        <ele>621.6</ele>
        <time>2025-03-02T11:02:00Z</time>
      </trkpt>
      <trkpt lat="45.73256" lon="4.61908">
        <ele>621.6</ele>
        <time>2025-03-02T11:02:01Z</time>
      </trkpt>
      <trkpt lat="45.73256" lon="4.61908">
        <ele>621.6</ele>
        <time>2025-03-02T11:02:02Z</time>
      </trkpt>
      <trkpt lat="45.73256" lon="4.61908">
        <ele>621.6</ele>
        <time>2025-03-02T11:02:03Z</time>
      </trkpt>
      <trkpt lat="45.73256" lon="4.61908">
        <ele>621.6</ele>
        <time>2025-03-02T11:02:04Z</time>
      </trkpt>
      <trkpt lat="45.73256" lon="4.61908">
        <ele>621.6</ele>
        <time>2025-03-02T11:02:05Z</time>
      </trkpt>
      <trkpt lat="45.73256" lon="4.61908">
        <ele>621.6</ele>
        <time>2025-03-02T11:02:06Z</time>
      </trkpt>
      <trkpt lat="45.73256" lon="4.61908">
        <ele>621.8</ele>
        <time>2025-03-02T11:02:07Z</time>
      </trkpt>
      <trkpt lat="45.73256" lon="4.61908">
        <ele>621.8</ele>
        <time>2025-03-02T11:02:08Z</time>
      </trkpt>
      <trkpt lat="45.73256" lon="4.61908">
        <ele>621.8</ele>
        <time>2025-03-02T11:02:09Z</time>
      </trkpt>
      <trkpt lat="45.73256" lon="4.61908">
        <ele>622</ele>
        <time>2025-03-02T11:02:10Z</time>
      </trkpt>
      <trkpt lat="45.73256" lon="4.61908">
        <ele>622</ele>
        <time>2025-03-02T11:02:11Z</time>
      </trkpt>
      <trkpt lat="45.73256" lon="4.61908">
        <ele>622</ele>
        <time>2025-03-02T11:02:12Z</time>
      </trkpt>
      <trkpt lat="45.73256" lon="4.61908">
        <ele>622</ele>
        <time>2025-03-02T11:02:13Z</time>
      </trkpt>
      <trkpt lat="45.73256" lon="4.61908">
        <ele>622.2</ele>
        <time>2025-03-02T11:02:14Z</time>
      </trkpt>
      <trkpt lat="45.73256" lon="4.61908">
        <ele>622</ele>
        <time>2025-03-02T11:02:15Z</time>
      </trkpt>
      <trkpt lat="45.73256" lon="4.61908">
        <ele>622</ele>
        <time>2025-03-02T11:02:16Z</time>
      </trkpt>
      <trkpt lat="45.73256" lon="4.61908">
        <ele>622</ele>
        <time>2025-03-02T11:02:17Z</time>
      </trkpt>
      <trkpt lat="45.73256" lon="4.61908">
        <ele>622</ele>
        <time>2025-03-02T11:02:18Z</time>
      </trkpt>
      <trkpt lat="45.73256" lon="4.61908">
        <ele>622</ele>
        <time>2025-03-02T11:02:19Z</time>
      </trkpt>
      <trkpt lat="45.73256" lon="4.61908">
        <ele>622</ele>
        <time>2025-03-02T11:02:20Z</time>
      </trkpt>
      <trkpt lat="45.73256" lon="4.61908">
        <ele>622</ele>
        <time>2025-03-02T11:02:21Z</time>
      </trkpt>
      <trkpt lat="45.73256" lon="4.61908">
        <ele>622</ele>
        <time>2025-03-02T11:02:22Z</time>
      </trkpt>
      <trkpt lat="45.73256" lon="4.61908">
        <ele>622</ele>
        <time>2025-03-02T11:02:23Z</time>
      </trkpt>
      <trkpt lat="45.73256" lon="4.61908">
        <ele>622</ele>
        <time>2025-03-02T11:02:24Z</time>
      </trkpt>
      <trkpt lat="45.73256" lon="4.61908">
        <ele>622</ele>
        <time>2025-03-02T11:02:25Z</time>
      </trkpt>
      <trkpt lat="45.73256" lon="4.61908">
        <ele>622</ele>
        <time>2025-03-02T11:02:26Z</time>
      </trkpt>
      <trkpt lat="45.73256" lon="4.61908">
        <ele>622</ele>
        <time>2025-03-02T11:02:27Z</time>
      </trkpt>
      <trkpt lat="45.73256" lon="4.61908">
        <ele>622</ele>
        <time>2025-03-02T11:02:28Z</time>
      </trkpt>
      <trkpt lat="45.73256" lon="4.61908">
        <ele>622</ele>
        <time>2025-03-02T11:02:29Z</time>
      </trkpt>
      <trkpt lat="45.73256" lon="4.61908">
        <ele>622</ele>
        <time>2025-03-02T11:02:30Z</time>
      </trkpt>
      <trkpt lat="45.73256" lon="4.61908">
        <ele>622</ele>
        <time>2025-03-02T11:02:31Z</time>
      </trkpt>
      <trkpt lat="45.73256" lon="4.61908">
        <ele>622</ele>
        <time>2025-03-02T11:02:32Z</time>
      </trkpt>
      <trkpt lat="45.73256" lon="4.61908">
        <ele>622</ele>
        <time>2025-03-02T11:02:33Z</time>
      </trkpt>
      <trkpt lat="45.73256" lon="4.61908">
        <ele>622</ele>
        <time>2025-03-02T11:02:34Z</time>
      </trkpt>
      <trkpt lat="45.73256" lon="4.61908">
        <ele>622</ele>
        <time>2025-03-02T11:02:35Z</time>
      </trkpt>
      <trkpt lat="45.73256" lon="4.61908">
        <ele>622</ele>
        <time>2025-03-02T11:02:36Z</time>
      </trkpt>
      <trkpt lat="45.73256" lon="4.61908">
        <ele>622</ele>
        <time>2025-03-02T11:02:37Z</time>
      </trkpt>
      <trkpt lat="45.73256" lon="4.61908">
        <ele>622</ele>
        <time>2025-03-02T11:02:38Z</time>
      </trkpt>
      <trkpt lat="45.73256" lon="4.61908">
        <ele>622</ele>
        <time>2025-03-02T11:02:39Z</time>
      </trkpt>
      <trkpt lat="45.73256" lon="4.61908">
        <ele>622</ele>
        <time>2025-03-02T11:02:40Z</time>
      </trkpt>
      <trkpt lat="45.73256" lon="4.61908">
        <ele>622</ele>
        <time>2025-03-02T11:02:41Z</time>
      </trkpt>
      <trkpt lat="45.73256" lon="4.61908">
        <ele>622</ele>
        <time>2025-03-02T11:02:42Z</time>
      </trkpt>
      <trkpt lat="45.73256" lon="4.61908">
        <ele>621.8</ele>
        <time>2025-03-02T11:02:43Z</time>
      </trkpt>
      <trkpt lat="45.73256" lon="4.61908">
        <ele>621.8</ele>
        <time>2025-03-02T11:02:44Z</time>
      </trkpt>
      <trkpt lat="45.73256" lon="4.61908">
        <ele>622</ele>
        <time>2025-03-02T11:02:45Z</time>
      </trkpt>
      <trkpt lat="45.73256" lon="4.61908">
        <ele>622</ele>
        <time>2025-03-02T11:02:46Z</time>
      </trkpt>
      <trkpt lat="45.73256" lon="4.61908">
        <ele>621.8</ele>
        <time>2025-03-02T11:02:47Z</time>
      </trkpt>
      <trkpt lat="45.73256" lon="4.61908">
        <ele>622</ele>
        <time>2025-03-02T11:02:48Z</time>
      </trkpt>
      <trkpt lat="45.73256" lon="4.61908">
        <ele>622.2</ele>
        <time>2025-03-02T11:02:49Z</time>
      </trkpt>
      <trkpt lat="45.73256" lon="4.61908">
        <ele>622.2</ele>
        <time>2025-03-02T11:02:50Z</time>
      </trkpt>
      <trkpt lat="45.73256" lon="4.61908">
        <ele>622.4</ele>
        <time>2025-03-02T11:02:51Z</time>
      </trkpt>
      <trkpt lat="45.73256" lon="4.61908">
        <ele>622.4</ele>
        <time>2025-03-02T11:02:52Z</time>
      </trkpt>
      <trkpt lat="45.73256" lon="4.61908">
        <ele>622.2</ele>
        <time>2025-03-02T11:02:53Z</time>
      </trkpt>
      <trkpt lat="45.73256" lon="4.61908">
        <ele>622.2</ele>
        <time>2025-03-02T11:02:54Z</time>
      </trkpt>
      <trkpt lat="45.73256" lon="4.61908">
        <ele>622.2</ele>
        <time>2025-03-02T11:02:55Z</time>
      </trkpt>
      <trkpt lat="45.73256" lon="4.61908">
        <ele>622.2</ele>
        <time>2025-03-02T11:02:56Z</time>
      </trkpt>
      <trkpt lat="45.73256" lon="4.61908">
        <ele>622.2</ele>
        <time>2025-03-02T11:02:57Z</time>
      </trkpt>
      <trkpt lat="45.73256" lon="4.61908">
        <ele>622.2</ele>
        <time>2025-03-02T11:02:58Z</time>
      </trkpt>
      <trkpt lat="45.73256" lon="4.61908">
        <ele>622</ele>
        <time>2025-03-02T11:02:59Z</time>
      </trkpt>
      <trkpt lat="45.73256" lon="4.61908">
        <ele>622</ele>
        <time>2025-03-02T11:03:00Z</time>
      </trkpt>
      <trkpt lat="45.73256" lon="4.61908">
        <ele>622</ele>
        <time>2025-03-02T11:03:01Z</time>
      </trkpt>
      <trkpt lat="45.73256" lon="4.61908">
        <ele>622</ele>
        <time>2025-03-02T11:03:02Z</time>
      </trkpt>
      <trkpt lat="45.73256" lon="4.61908">
        <ele>622</ele>
        <time>2025-03-02T11:03:03Z</time>
      </trkpt>
      <trkpt lat="45.73256" lon="4.61908">
        <ele>622</ele>
        <time>2025-03-02T11:03:04Z</time>
      </trkpt>
      <trkpt lat="45.73255" lon="4.61909">
        <ele>622</ele>
        <time>2025-03-02T11:03:05Z</time>
      </trkpt>
      <trkpt lat="45.73255" lon="4.61911">
        <ele>622</ele>
        <time>2025-03-02T11:03:06Z</time>
      </trkpt>
      <trkpt lat="45.73254" lon="4.61916">
        <ele>623</ele>
        <time>2025-03-02T11:03:07Z</time>
      </trkpt>
      <trkpt lat="45.73254" lon="4.61921">
        <ele>623</ele>
        <time>2025-03-02T11:03:08Z</time>
      </trkpt>
      <trkpt lat="45.73253" lon="4.61926">
        <ele>622.8</ele>
        <time>2025-03-02T11:03:09Z</time>
      </trkpt>
      <trkpt lat="45.73252" lon="4.61931">
        <ele>621.8</ele>
        <time>2025-03-02T11:03:10Z</time>
      </trkpt>
      <trkpt lat="45.73253" lon="4.61935">
        <ele>620.8</ele>
        <time>2025-03-02T11:03:11Z</time>
      </trkpt>
      <trkpt lat="45.73253" lon="4.6194">
        <ele>620.2</ele>
        <time>2025-03-02T11:03:12Z</time>
      </trkpt>
      <trkpt lat="45.73253" lon="4.61945">
        <ele>619.8</ele>
        <time>2025-03-02T11:03:13Z</time>
      </trkpt>
      <trkpt lat="45.73253" lon="4.61951">
        <ele>618.6</ele>
        <time>2025-03-02T11:03:14Z</time>
      </trkpt>
      <trkpt lat="45.73251" lon="4.61957">
        <ele>618</ele>
        <time>2025-03-02T11:03:15Z</time>
      </trkpt>
      <trkpt lat="45.7325" lon="4.61964">
        <ele>617.4</ele>
        <time>2025-03-02T11:03:16Z</time>
      </trkpt>
      <trkpt lat="45.73249" lon="4.6197">
        <ele>616</ele>
        <time>2025-03-02T11:03:17Z</time>
      </trkpt>
      <trkpt lat="45.73248" lon="4.61976">
        <ele>614.8</ele>
        <time>2025-03-02T11:03:18Z</time>
      </trkpt>
      <trkpt lat="45.73247" lon="4.61982">
        <ele>614</ele>
        <time>2025-03-02T11:03:19Z</time>
      </trkpt>
      <trkpt lat="45.73246" lon="4.61986">
        <ele>613</ele>
        <time>2025-03-02T11:03:20Z</time>
      </trkpt>
      <trkpt lat="45.73245" lon="4.61992">
        <ele>612.4</ele>
        <time>2025-03-02T11:03:21Z</time>
      </trkpt>
      <trkpt lat="45.73244" lon="4.61998">
        <ele>612</ele>
        <time>2025-03-02T11:03:22Z</time>
      </trkpt>
      <trkpt lat="45.73244" lon="4.62003">
        <ele>611</ele>
        <time>2025-03-02T11:03:23Z</time>
      </trkpt>
      <trkpt lat="45.73245" lon="4.62008">
        <ele>610.4</ele>
        <time>2025-03-02T11:03:24Z</time>
      </trkpt>
      <trkpt lat="45.73246" lon="4.62012">
        <ele>609.8</ele>
        <time>2025-03-02T11:03:25Z</time>
      </trkpt>
      <trkpt lat="45.73247" lon="4.62016">
        <ele>609.2</ele>
        <time>2025-03-02T11:03:26Z</time>
      </trkpt>
      <trkpt lat="45.73249" lon="4.6202">
        <ele>608.6</ele>
        <time>2025-03-02T11:03:27Z</time>
      </trkpt>
      <trkpt lat="45.73251" lon="4.62026">
        <ele>607.8</ele>
        <time>2025-03-02T11:03:28Z</time>
      </trkpt>
      <trkpt lat="45.73255" lon="4.62033">
        <ele>607.4</ele>
        <time>2025-03-02T11:03:29Z</time>
      </trkpt>
      <trkpt lat="45.73259" lon="4.62039">
        <ele>606.6</ele>
        <time>2025-03-02T11:03:30Z</time>
      </trkpt>
      <trkpt lat="45.73263" lon="4.62046">
        <ele>605.4</ele>
        <time>2025-03-02T11:03:31Z</time>
      </trkpt>
      <trkpt lat="45.73265" lon="4.62053">
        <ele>604.2</ele>
        <time>2025-03-02T11:03:32Z</time>
      </trkpt>
      <trkpt lat="45.73268" lon="4.6206">
        <ele>603.2</ele>
        <time>2025-03-02T11:03:33Z</time>
      </trkpt>
      <trkpt lat="45.73268" lon="4.62065">
        <ele>602.2</ele>
        <time>2025-03-02T11:03:34Z</time>
      </trkpt>
      <trkpt lat="45.73268" lon="4.62069">
        <ele>601.6</ele>
        <time>2025-03-02T11:03:35Z</time>
      </trkpt>
      <trkpt lat="45.73267" lon="4.62074">
        <ele>600.8</ele>
        <time>2025-03-02T11:03:36Z</time>
      </trkpt>
      <trkpt lat="45.73266" lon="4.62078">
        <ele>600.4</ele>
        <time>2025-03-02T11:03:37Z</time>
      </trkpt>
      <trkpt lat="45.73266" lon="4.62083">
        <ele>600</ele>
        <time>2025-03-02T11:03:38Z</time>
      </trkpt>
      <trkpt lat="45.73266" lon="4.62088">
        <ele>598.8</ele>
        <time>2025-03-02T11:03:39Z</time>
      </trkpt>
      <trkpt lat="45.73265" lon="4.62094">
        <ele>598.2</ele>
        <time>2025-03-02T11:03:40Z</time>
      </trkpt>
      <trkpt lat="45.73264" lon="4.62099">
        <ele>597.8</ele>
        <time>2025-03-02T11:03:41Z</time>
      </trkpt>
      <trkpt lat="45.73263" lon="4.62102">
        <ele>596.8</ele>
        <time>2025-03-02T11:03:42Z</time>
      </trkpt>
      <trkpt lat="45.73262" lon="4.62107">
        <ele>595.8</ele>
        <time>2025-03-02T11:03:43Z</time>
      </trkpt>
      <trkpt lat="45.7326" lon="4.62111">
        <ele>595.4</ele>
        <time>2025-03-02T11:03:44Z</time>
      </trkpt>
      <trkpt lat="45.73259" lon="4.62115">
        <ele>594.6</ele>
        <time>2025-03-02T11:03:45Z</time>
      </trkpt>
      <trkpt lat="45.73259" lon="4.62118">
        <ele>594</ele>
        <time>2025-03-02T11:03:46Z</time>
      </trkpt>
      <trkpt lat="45.73258" lon="4.62121">
        <ele>593</ele>
        <time>2025-03-02T11:03:47Z</time>
      </trkpt>
      <trkpt lat="45.73257" lon="4.62122">
        <ele>592.6</ele>
        <time>2025-03-02T11:03:48Z</time>
      </trkpt>
      <trkpt lat="45.73255" lon="4.62123">
        <ele>592</ele>
        <time>2025-03-02T11:03:49Z</time>
      </trkpt>
      <trkpt lat="45.73254" lon="4.62123">
        <ele>591.4</ele>
        <time>2025-03-02T11:03:50Z</time>
      </trkpt>
      <trkpt lat="45.73254" lon="4.62122">
        <ele>591.2</ele>
        <time>2025-03-02T11:03:51Z</time>
      </trkpt>
      <trkpt lat="45.73254" lon="4.62121">
        <ele>591</ele>
        <time>2025-03-02T11:03:52Z</time>
      </trkpt>
      <trkpt lat="45.73254" lon="4.62121">
        <ele>590.8</ele>
        <time>2025-03-02T11:03:53Z</time>
      </trkpt>
      <trkpt lat="45.73254" lon="4.62121">
        <ele>590.8</ele>
        <time>2025-03-02T11:03:54Z</time>
      </trkpt>
      <trkpt lat="45.73254" lon="4.62121">
        <ele>590.8</ele>
        <time>2025-03-02T11:03:55Z</time>
      </trkpt>
      <trkpt lat="45.73254" lon="4.62121">
        <ele>590.8</ele>
        <time>2025-03-02T11:03:56Z</time>
      </trkpt>
      <trkpt lat="45.73254" lon="4.62121">
        <ele>590.8</ele>
        <time>2025-03-02T11:03:57Z</time>
      </trkpt>
      <trkpt lat="45.73254" lon="4.62121">
        <ele>591</ele>
        <time>2025-03-02T11:03:58Z</time>
      </trkpt>
      <trkpt lat="45.73254" lon="4.62119">
        <ele>591</ele>
        <time>2025-03-02T11:03:59Z</time>
      </trkpt>
      <trkpt lat="45.73254" lon="4.62117">
        <ele>591</ele>
        <time>2025-03-02T11:04:00Z</time>
      </trkpt>
      <trkpt lat="45.73254" lon="4.62114">
        <ele>591</ele>
        <time>2025-03-02T11:04:01Z</time>
      </trkpt>
      <trkpt lat="45.73253" lon="4.62111">
        <ele>590.8</ele>
        <time>2025-03-02T11:04:02Z</time>
      </trkpt>
      <trkpt lat="45.73253" lon="4.62107">
        <ele>590.8</ele>
        <time>2025-03-02T11:04:03Z</time>
      </trkpt>
      <trkpt lat="45.73253" lon="4.62104">
        <ele>590.8</ele>
        <time>2025-03-02T11:04:04Z</time>
      </trkpt>
      <trkpt lat="45.73252" lon="4.62099">
        <ele>590.8</ele>
        <time>2025-03-02T11:04:05Z</time>
      </trkpt>
      <trkpt lat="45.73253" lon="4.62095">
        <ele>590.8</ele>
        <time>2025-03-02T11:04:06Z</time>
      </trkpt>
      <trkpt lat="45.73254" lon="4.6209">
        <ele>591</ele>
        <time>2025-03-02T11:04:07Z</time>
      </trkpt>
      <trkpt lat="45.73254" lon="4.62086">
        <ele>591.2</ele>
        <time>2025-03-02T11:04:08Z</time>
      </trkpt>
      <trkpt lat="45.73255" lon="4.62081">
        <ele>591.6</ele>
        <time>2025-03-02T11:04:09Z</time>
      </trkpt>
      <trkpt lat="45.73255" lon="4.62077">
        <ele>592.2</ele>
        <time>2025-03-02T11:04:10Z</time>
      </trkpt>
      <trkpt lat="45.73255" lon="4.62072">
        <ele>592.8</ele>
        <time>2025-03-02T11:04:11Z</time>
      </trkpt>
      <trkpt lat="45.73255" lon="4.62067">
        <ele>593.4</ele>
        <time>2025-03-02T11:04:12Z</time>
      </trkpt>
      <trkpt lat="45.73254" lon="4.62063">
        <ele>594.2</ele>
        <time>2025-03-02T11:04:13Z</time>
      </trkpt>
      <trkpt lat="45.73253" lon="4.62059">
        <ele>594.8</ele>
        <time>2025-03-02T11:04:14Z</time>
      </trkpt>
      <trkpt lat="45.73252" lon="4.62055">
        <ele>595.4</ele>
        <time>2025-03-02T11:04:15Z</time>
      </trkpt>
      <trkpt lat="45.7325" lon="4.62051">
        <ele>596</ele>
        <time>2025-03-02T11:04:16Z</time>
      </trkpt>
      <trkpt lat="45.73249" lon="4.62048">
        <ele>596.6</ele>
        <time>2025-03-02T11:04:17Z</time>
      </trkpt>
      <trkpt lat="45.73247" lon="4.62045">
        <ele>597.2</ele>
        <time>2025-03-02T11:04:18Z</time>
      </trkpt>
      <trkpt lat="45.73246" lon="4.62042">
        <ele>597.6</ele>
        <time>2025-03-02T11:04:19Z</time>
      </trkpt>
      <trkpt lat="45.73244" lon="4.62039">
        <ele>598.4</ele>
        <time>2025-03-02T11:04:20Z</time>
      </trkpt>
      <trkpt lat="45.73242" lon="4.62035">
        <ele>599</ele>
        <time>2025-03-02T11:04:21Z</time>
      </trkpt>
      <trkpt lat="45.73241" lon="4.62033">
        <ele>599.6</ele>
        <time>2025-03-02T11:04:22Z</time>
      </trkpt>
      <trkpt lat="45.73239" lon="4.6203">
        <ele>600</ele>
        <time>2025-03-02T11:04:23Z</time>
      </trkpt>
      <trkpt lat="45.73237" lon="4.62028">
        <ele>600.4</ele>
        <time>2025-03-02T11:04:24Z</time>
      </trkpt>
      <trkpt lat="45.73235" lon="4.62025">
        <ele>601</ele>
        <time>2025-03-02T11:04:25Z</time>
      </trkpt>
      <trkpt lat="45.73234" lon="4.62023">
        <ele>601.4</ele>
        <time>2025-03-02T11:04:26Z</time>
      </trkpt>
      <trkpt lat="45.73233" lon="4.6202">
        <ele>601.8</ele>
        <time>2025-03-02T11:04:27Z</time>
      </trkpt>
      <trkpt lat="45.73232" lon="4.62016">
        <ele>602.4</ele>
        <time>2025-03-02T11:04:28Z</time>
      </trkpt>
      <trkpt lat="45.73232" lon="4.62012">
        <ele>602.8</ele>
        <time>2025-03-02T11:04:29Z</time>
      </trkpt>
      <trkpt lat="45.73232" lon="4.62008">
        <ele>603</ele>
        <time>2025-03-02T11:04:30Z</time>
      </trkpt>
      <trkpt lat="45.73232" lon="4.62005">
        <ele>603.6</ele>
        <time>2025-03-02T11:04:31Z</time>
      </trkpt>
      <trkpt lat="45.73233" lon="4.62002">
        <ele>604.2</ele>
        <time>2025-03-02T11:04:32Z</time>
      </trkpt>
      <trkpt lat="45.73233" lon="4.62">
        <ele>604.8</ele>
        <time>2025-03-02T11:04:33Z</time>
      </trkpt>
      <trkpt lat="45.73232" lon="4.61997">
        <ele>605.2</ele>
        <time>2025-03-02T11:04:34Z</time>
      </trkpt>
      <trkpt lat="45.73232" lon="4.61994">
        <ele>605.8</ele>
        <time>2025-03-02T11:04:35Z</time>
      </trkpt>
      <trkpt lat="45.73232" lon="4.61993">
        <ele>606.2</ele>
        <time>2025-03-02T11:04:36Z</time>
      </trkpt>
      <trkpt lat="45.73231" lon="4.61992">
        <ele>606.6</ele>
        <time>2025-03-02T11:04:37Z</time>
      </trkpt>
      <trkpt lat="45.73231" lon="4.61992">
        <ele>606.6</ele>
        <time>2025-03-02T11:04:38Z</time>
      </trkpt>
      <trkpt lat="45.73231" lon="4.61992">
        <ele>606.8</ele>
        <time>2025-03-02T11:04:39Z</time>
      </trkpt>
      <trkpt lat="45.73231" lon="4.61992">
        <ele>606.8</ele>
        <time>2025-03-02T11:04:40Z</time>
      </trkpt>
      <trkpt lat="45.73231" lon="4.61992">
        <ele>607</ele>
        <time>2025-03-02T11:04:41Z</time>
      </trkpt>
      <trkpt lat="45.73231" lon="4.61992">
        <ele>607</ele>
        <time>2025-03-02T11:04:42Z</time>
      </trkpt>
      <trkpt lat="45.73231" lon="4.61992">
        <ele>607</ele>
        <time>2025-03-02T11:04:43Z</time>
      </trkpt>
      <trkpt lat="45.73231" lon="4.61992">
        <ele>607.2</ele>
        <time>2025-03-02T11:04:44Z</time>
      </trkpt>
      <trkpt lat="45.73231" lon="4.61992">
        <ele>607.2</ele>
        <time>2025-03-02T11:04:45Z</time>
      </trkpt>
      <trkpt lat="45.73231" lon="4.61992">
        <ele>607.2</ele>
        <time>2025-03-02T11:04:46Z</time>
      </trkpt>
      <trkpt lat="45.73231" lon="4.61992">
        <ele>607.2</ele>
        <time>2025-03-02T11:04:47Z</time>
      </trkpt>
      <trkpt lat="45.73231" lon="4.61992">
        <ele>607.2</ele>
        <time>2025-03-02T11:04:48Z</time>
      </trkpt>
      <trkpt lat="45.73231" lon="4.61992">
        <ele>607.2</ele>
        <time>2025-03-02T11:04:49Z</time>
      </trkpt>
      <trkpt lat="45.73231" lon="4.61992">
        <ele>607.2</ele>
        <time>2025-03-02T11:04:50Z</time>
      </trkpt>
      <trkpt lat="45.73231" lon="4.61992">
        <ele>607.2</ele>
        <time>2025-03-02T11:04:51Z</time>
      </trkpt>
      <trkpt lat="45.73231" lon="4.61992">
        <ele>607.2</ele>
        <time>2025-03-02T11:04:52Z</time>
      </trkpt>
      <trkpt lat="45.73231" lon="4.61992">
        <ele>607.2</ele>
        <time>2025-03-02T11:04:53Z</time>
      </trkpt>
      <trkpt lat="45.73231" lon="4.61992">
        <ele>607.2</ele>
        <time>2025-03-02T11:04:54Z</time>
      </trkpt>
      <trkpt lat="45.73231" lon="4.61992">
        <ele>607.2</ele>
        <time>2025-03-02T11:04:55Z</time>
      </trkpt>
      <trkpt lat="45.73231" lon="4.61992">
        <ele>608</ele>
        <time>2025-03-02T11:04:56Z</time>
      </trkpt>
      <trkpt lat="45.73231" lon="4.61992">
        <ele>608</ele>
        <time>2025-03-02T11:04:57Z</time>
      </trkpt>
      <trkpt lat="45.73231" lon="4.61992">
        <ele>608</ele>
        <time>2025-03-02T11:04:58Z</time>
      </trkpt>
      <trkpt lat="45.73231" lon="4.61992">
        <ele>608</ele>
        <time>2025-03-02T11:04:59Z</time>
      </trkpt>
      <trkpt lat="45.73231" lon="4.61992">
        <ele>607.8</ele>
        <time>2025-03-02T11:05:00Z</time>
      </trkpt>
      <trkpt lat="45.73232" lon="4.61992">
        <ele>607.6</ele>
        <time>2025-03-02T11:05:01Z</time>
      </trkpt>
      <trkpt lat="45.73232" lon="4.61992">
        <ele>607.6</ele>
        <time>2025-03-02T11:05:02Z</time>
      </trkpt>
      <trkpt lat="45.73232" lon="4.61992">
        <ele>607.4</ele>
        <time>2025-03-02T11:05:03Z</time>
      </trkpt>
      <trkpt lat="45.73232" lon="4.61992">
        <ele>607.2</ele>
        <time>2025-03-02T11:05:04Z</time>
      </trkpt>
      <trkpt lat="45.73232" lon="4.61992">
        <ele>607.2</ele>
        <time>2025-03-02T11:05:05Z</time>
      </trkpt>
      <trkpt lat="45.73232" lon="4.61991">
        <ele>607.2</ele>
        <time>2025-03-02T11:05:06Z</time>
      </trkpt>
      <trkpt lat="45.73232" lon="4.6199">
        <ele>607.2</ele>
        <time>2025-03-02T11:05:07Z</time>
      </trkpt>
      <trkpt lat="45.73232" lon="4.6199">
        <ele>607.2</ele>
        <time>2025-03-02T11:05:08Z</time>
      </trkpt>
      <trkpt lat="45.73232" lon="4.6199">
        <ele>607.2</ele>
        <time>2025-03-02T11:05:09Z</time>
      </trkpt>
      <trkpt lat="45.73233" lon="4.6199">
        <ele>607</ele>
        <time>2025-03-02T11:05:10Z</time>
      </trkpt>
      <trkpt lat="45.73233" lon="4.61992">
        <ele>606.8</ele>
        <time>2025-03-02T11:05:11Z</time>
      </trkpt>
      <trkpt lat="45.73233" lon="4.61993">
        <ele>606.8</ele>
        <time>2025-03-02T11:05:12Z</time>
      </trkpt>
      <trkpt lat="45.73233" lon="4.61993">
        <ele>606.8</ele>
        <time>2025-03-02T11:05:13Z</time>
      </trkpt>
      <trkpt lat="45.73233" lon="4.61993">
        <ele>606.8</ele>
        <time>2025-03-02T11:05:14Z</time>
      </trkpt>
      <trkpt lat="45.73233" lon="4.61993">
        <ele>606.8</ele>
        <time>2025-03-02T11:05:15Z</time>
      </trkpt>
      <trkpt lat="45.73233" lon="4.61993">
        <ele>607</ele>
        <time>2025-03-02T11:05:16Z</time>
      </trkpt>
      <trkpt lat="45.73233" lon="4.61993">
        <ele>607</ele>
        <time>2025-03-02T11:05:17Z</time>
      </trkpt>
      <trkpt lat="45.73233" lon="4.61993">
        <ele>607</ele>
        <time>2025-03-02T11:05:18Z</time>
      </trkpt>
      <trkpt lat="45.73234" lon="4.61992">
        <ele>606.8</ele>
        <time>2025-03-02T11:05:19Z</time>
      </trkpt>
      <trkpt lat="45.73234" lon="4.61992">
        <ele>606.8</ele>
        <time>2025-03-02T11:05:20Z</time>
      </trkpt>
      <trkpt lat="45.73234" lon="4.61992">
        <ele>606.8</ele>
        <time>2025-03-02T11:05:21Z</time>
      </trkpt>
      <trkpt lat="45.73234" lon="4.61992">
        <ele>607</ele>
        <time>2025-03-02T11:05:22Z</time>
      </trkpt>
      <trkpt lat="45.73234" lon="4.61992">
        <ele>607</ele>
        <time>2025-03-02T11:05:23Z</time>
      </trkpt>
      <trkpt lat="45.73234" lon="4.61992">
        <ele>607</ele>
        <time>2025-03-02T11:05:24Z</time>
      </trkpt>
      <trkpt lat="45.73234" lon="4.61992">
        <ele>607</ele>
        <time>2025-03-02T11:05:25Z</time>
      </trkpt>
      <trkpt lat="45.73234" lon="4.61992">
        <ele>607</ele>
        <time>2025-03-02T11:05:26Z</time>
      </trkpt>
      <trkpt lat="45.73234" lon="4.61992">
        <ele>606.8</ele>
        <time>2025-03-02T11:05:27Z</time>
      </trkpt>
      <trkpt lat="45.73234" lon="4.61992">
        <ele>606.8</ele>
        <time>2025-03-02T11:05:28Z</time>
      </trkpt>
      <trkpt lat="45.73234" lon="4.61992">
        <ele>606.6</ele>
        <time>2025-03-02T11:05:29Z</time>
      </trkpt>
      <trkpt lat="45.7324" lon="4.61996">
        <ele>606</ele>
        <time>2025-03-02T11:11:09Z</time>
      </trkpt>
      <trkpt lat="45.73236" lon="4.62001">
        <ele>606</ele>
        <time>2025-03-02T11:11:10Z</time>
      </trkpt>
      <trkpt lat="45.73231" lon="4.62005">
        <ele>606</ele>
        <time>2025-03-02T11:11:11Z</time>
      </trkpt>
      <trkpt lat="45.73231" lon="4.62008">
        <ele>606</ele>
        <time>2025-03-02T11:11:12Z</time>
      </trkpt>
      <trkpt lat="45.73229" lon="4.62008">
        <ele>606</ele>
        <time>2025-03-02T11:11:13Z</time>
      </trkpt>
      <trkpt lat="45.73228" lon="4.62009">
        <ele>606</ele>
        <time>2025-03-02T11:11:14Z</time>
      </trkpt>
      <trkpt lat="45.73228" lon="4.62009">
        <ele>606</ele>
        <time>2025-03-02T11:11:15Z</time>
      </trkpt>
      <trkpt lat="45.73228" lon="4.62008">
        <ele>606</ele>
        <time>2025-03-02T11:11:16Z</time>
      </trkpt>
      <trkpt lat="45.73228" lon="4.62006">
        <ele>606</ele>
        <time>2025-03-02T11:11:17Z</time>
      </trkpt>
      <trkpt lat="45.73229" lon="4.62005">
        <ele>606</ele>
        <time>2025-03-02T11:11:18Z</time>
      </trkpt>
      <trkpt lat="45.73228" lon="4.62003">
        <ele>606</ele>
        <time>2025-03-02T11:11:19Z</time>
      </trkpt>
      <trkpt lat="45.73228" lon="4.62002">
        <ele>606</ele>
        <time>2025-03-02T11:11:20Z</time>
      </trkpt>
      <trkpt lat="45.73228" lon="4.62001">
        <ele>606</ele>
        <time>2025-03-02T11:11:21Z</time>
      </trkpt>
      <trkpt lat="45.73228" lon="4.62001">
        <ele>606</ele>
        <time>2025-03-02T11:11:22Z</time>
      </trkpt>
      <trkpt lat="45.7323" lon="4.62003">
        <ele>606</ele>
        <time>2025-03-02T11:11:23Z</time>
      </trkpt>
      <trkpt lat="45.73232" lon="4.62003">
        <ele>606</ele>
        <time>2025-03-02T11:11:24Z</time>
      </trkpt>
      <trkpt lat="45.73232" lon="4.62003">
        <ele>606</ele>
        <time>2025-03-02T11:11:25Z</time>
      </trkpt>
      <trkpt lat="45.73233" lon="4.62003">
        <ele>606</ele>
        <time>2025-03-02T11:11:26Z</time>
      </trkpt>
      <trkpt lat="45.73233" lon="4.62003">
        <ele>606</ele>
        <time>2025-03-02T11:11:27Z</time>
      </trkpt>
      <trkpt lat="45.73233" lon="4.62003">
        <ele>606</ele>
        <time>2025-03-02T11:11:28Z</time>
      </trkpt>
      <trkpt lat="45.73233" lon="4.62002">
        <ele>606</ele>
        <time>2025-03-02T11:11:29Z</time>
      </trkpt>
      <trkpt lat="45.73233" lon="4.62001">
        <ele>606</ele>
        <time>2025-03-02T11:11:30Z</time>
      </trkpt>
      <trkpt lat="45.73233" lon="4.62001">
        <ele>606</ele>
        <time>2025-03-02T11:11:31Z</time>
      </trkpt>
      <trkpt lat="45.73233" lon="4.62">
        <ele>606</ele>
        <time>2025-03-02T11:11:32Z</time>
      </trkpt>
      <trkpt lat="45.73233" lon="4.62">
        <ele>606</ele>
        <time>2025-03-02T11:11:33Z</time>
      </trkpt>
      <trkpt lat="45.73233" lon="4.62">
        <ele>606</ele>
        <time>2025-03-02T11:11:34Z</time>
      </trkpt>
      <trkpt lat="45.73233" lon="4.62">
        <ele>606</ele>
        <time>2025-03-02T11:11:35Z</time>
      </trkpt>
      <trkpt lat="45.73233" lon="4.62">
        <ele>606</ele>
        <time>2025-03-02T11:11:36Z</time>
      </trkpt>
      <trkpt lat="45.73233" lon="4.62">
        <ele>606</ele>
        <time>2025-03-02T11:11:37Z</time>
      </trkpt>
      <trkpt lat="45.73233" lon="4.62">
        <ele>606</ele>
        <time>2025-03-02T11:11:38Z</time>
      </trkpt>
      <trkpt lat="45.73233" lon="4.62">
        <ele>606</ele>
        <time>2025-03-02T11:11:39Z</time>
      </trkpt>
      <trkpt lat="45.73233" lon="4.62">
        <ele>606</ele>
        <time>2025-03-02T11:11:40Z</time>
      </trkpt>
      <trkpt lat="45.73233" lon="4.62">
        <ele>606</ele>
        <time>2025-03-02T11:11:41Z</time>
      </trkpt>
      <trkpt lat="45.73233" lon="4.62">
        <ele>606</ele>
        <time>2025-03-02T11:11:42Z</time>
      </trkpt>
      <trkpt lat="45.73233" lon="4.62">
        <ele>606</ele>
        <time>2025-03-02T11:11:43Z</time>
      </trkpt>
      <trkpt lat="45.73233" lon="4.62">
        <ele>606</ele>
        <time>2025-03-02T11:11:44Z</time>
      </trkpt>
      <trkpt lat="45.73233" lon="4.62">
        <ele>606</ele>
        <time>2025-03-02T11:11:45Z</time>
      </trkpt>
      <trkpt lat="45.73233" lon="4.62">
        <ele>606</ele>
        <time>2025-03-02T11:11:46Z</time>
      </trkpt>
      <trkpt lat="45.73233" lon="4.62">
        <ele>606</ele>
        <time>2025-03-02T11:11:47Z</time>
      </trkpt>
      <trkpt lat="45.73233" lon="4.62">
        <ele>606</ele>
        <time>2025-03-02T11:11:48Z</time>
      </trkpt>
      <trkpt lat="45.73233" lon="4.61999">
        <ele>606.8</ele>
        <time>2025-03-02T11:11:49Z</time>
      </trkpt>
      <trkpt lat="45.73233" lon="4.61999">
        <ele>606.8</ele>
        <time>2025-03-02T11:11:50Z</time>
      </trkpt>
      <trkpt lat="45.73233" lon="4.61999">
        <ele>606.2</ele>
        <time>2025-03-02T11:11:51Z</time>
      </trkpt>
      <trkpt lat="45.73233" lon="4.61998">
        <ele>606</ele>
        <time>2025-03-02T11:11:52Z</time>
      </trkpt>
      <trkpt lat="45.73233" lon="4.61998">
        <ele>606</ele>
        <time>2025-03-02T11:11:53Z</time>
      </trkpt>
      <trkpt lat="45.73233" lon="4.61998">
        <ele>606</ele>
        <time>2025-03-02T11:11:54Z</time>
      </trkpt>
      <trkpt lat="45.73233" lon="4.61998">
        <ele>606.2</ele>
        <time>2025-03-02T11:11:55Z</time>
      </trkpt>
      <trkpt lat="45.73233" lon="4.61998">
        <ele>606.2</ele>
        <time>2025-03-02T11:11:56Z</time>
      </trkpt>
      <trkpt lat="45.73233" lon="4.61998">
        <ele>606.4</ele>
        <time>2025-03-02T11:11:57Z</time>
      </trkpt>
      <trkpt lat="45.73233" lon="4.61997">
        <ele>606.6</ele>
        <time>2025-03-02T11:11:58Z</time>
      </trkpt>
      <trkpt lat="45.73233" lon="4.61997">
        <ele>606.6</ele>
        <time>2025-03-02T11:11:59Z</time>
      </trkpt>
      <trkpt lat="45.73233" lon="4.61997">
        <ele>606.6</ele>
        <time>2025-03-02T11:12:00Z</time>
      </trkpt>
      <trkpt lat="45.73233" lon="4.61997">
        <ele>606.8</ele>
        <time>2025-03-02T11:12:01Z</time>
      </trkpt>
      <trkpt lat="45.73233" lon="4.61997">
        <ele>606.8</ele>
        <time>2025-03-02T11:12:02Z</time>
      </trkpt>
      <trkpt lat="45.73233" lon="4.61997">
        <ele>606.8</ele>
        <time>2025-03-02T11:12:03Z</time>
      </trkpt>
      <trkpt lat="45.73233" lon="4.61997">
        <ele>607</ele>
        <time>2025-03-02T11:12:04Z</time>
      </trkpt>
      <trkpt lat="45.73233" lon="4.61997">
        <ele>607</ele>
        <time>2025-03-02T11:12:05Z</time>
      </trkpt>
      <trkpt lat="45.73233" lon="4.61997">
        <ele>607</ele>
        <time>2025-03-02T11:12:06Z</time>
      </trkpt>
      <trkpt lat="45.73233" lon="4.61997">
        <ele>607</ele>
        <time>2025-03-02T11:12:07Z</time>
      </trkpt>
      <trkpt lat="45.73234" lon="4.61997">
        <ele>607.2</ele>
        <time>2025-03-02T11:12:08Z</time>
      </trkpt>
      <trkpt lat="45.73234" lon="4.61997">
        <ele>607.2</ele>
        <time>2025-03-02T11:12:09Z</time>
      </trkpt>
      <trkpt lat="45.73234" lon="4.61997">
        <ele>607.2</ele>
        <time>2025-03-02T11:12:10Z</time>
      </trkpt>
      <trkpt lat="45.73234" lon="4.61997">
        <ele>607.2</ele>
        <time>2025-03-02T11:12:11Z</time>
      </trkpt>
      <trkpt lat="45.73234" lon="4.61997">
        <ele>607.2</ele>
        <time>2025-03-02T11:12:12Z</time>
      </trkpt>
      <trkpt lat="45.73233" lon="4.61997">
        <ele>607.2</ele>
        <time>2025-03-02T11:12:13Z</time>
      </trkpt>
      <trkpt lat="45.73234" lon="4.61998">
        <ele>607.2</ele>
        <time>2025-03-02T11:12:14Z</time>
      </trkpt>
      <trkpt lat="45.73234" lon="4.61998">
        <ele>607.4</ele>
        <time>2025-03-02T11:12:15Z</time>
      </trkpt>
      <trkpt lat="45.73234" lon="4.61999">
        <ele>607.4</ele>
        <time>2025-03-02T11:12:16Z</time>
      </trkpt>
      <trkpt lat="45.73234" lon="4.62001">
        <ele>607.4</ele>
        <time>2025-03-02T11:12:17Z</time>
      </trkpt>
      <trkpt lat="45.73234" lon="4.62004">
        <ele>607.4</ele>
        <time>2025-03-02T11:12:18Z</time>
      </trkpt>
      <trkpt lat="45.73234" lon="4.62008">
        <ele>607.2</ele>
        <time>2025-03-02T11:12:19Z</time>
      </trkpt>
      <trkpt lat="45.73233" lon="4.62012">
        <ele>607</ele>
        <time>2025-03-02T11:12:20Z</time>
      </trkpt>
      <trkpt lat="45.73232" lon="4.62016">
        <ele>606.8</ele>
        <time>2025-03-02T11:12:21Z</time>
      </trkpt>
      <trkpt lat="45.7323" lon="4.6202">
        <ele>606.4</ele>
        <time>2025-03-02T11:12:22Z</time>
      </trkpt>
      <trkpt lat="45.73228" lon="4.62021">
        <ele>605.6</ele>
        <time>2025-03-02T11:12:23Z</time>
      </trkpt>
      <trkpt lat="45.73226" lon="4.62021">
        <ele>605</ele>
        <time>2025-03-02T11:12:24Z</time>
      </trkpt>
      <trkpt lat="45.73223" lon="4.62019">
        <ele>604.6</ele>
        <time>2025-03-02T11:12:25Z</time>
      </trkpt>
      <trkpt lat="45.73222" lon="4.62016">
        <ele>604.6</ele>
        <time>2025-03-02T11:12:26Z</time>
      </trkpt>
      <trkpt lat="45.73221" lon="4.62012">
        <ele>604.6</ele>
        <time>2025-03-02T11:12:27Z</time>
      </trkpt>
      <trkpt lat="45.7322" lon="4.62009">
        <ele>604.6</ele>
        <time>2025-03-02T11:12:28Z</time>
      </trkpt>
      <trkpt lat="45.73219" lon="4.62006">
        <ele>604.6</ele>
        <time>2025-03-02T11:12:29Z</time>
      </trkpt>
      <trkpt lat="45.73218" lon="4.62003">
        <ele>604.6</ele>
        <time>2025-03-02T11:12:30Z</time>
      </trkpt>
      <trkpt lat="45.73218" lon="4.62">
        <ele>604.8</ele>
        <time>2025-03-02T11:12:31Z</time>
      </trkpt>
      <trkpt lat="45.73218" lon="4.61998">
        <ele>605</ele>
        <time>2025-03-02T11:12:32Z</time>
      </trkpt>
      <trkpt lat="45.73218" lon="4.61996">
        <ele>605</ele>
        <time>2025-03-02T11:12:33Z</time>
      </trkpt>
      <trkpt lat="45.73218" lon="4.61995">
        <ele>605</ele>
        <time>2025-03-02T11:12:34Z</time>
      </trkpt>
      <trkpt lat="45.73217" lon="4.61995">
        <ele>605.2</ele>
        <time>2025-03-02T11:12:35Z</time>
      </trkpt>
      <trkpt lat="45.73217" lon="4.61995">
        <ele>605.2</ele>
        <time>2025-03-02T11:12:36Z</time>
      </trkpt>
      <trkpt lat="45.73218" lon="4.61995">
        <ele>605.2</ele>
        <time>2025-03-02T11:12:37Z</time>
      </trkpt>
      <trkpt lat="45.73218" lon="4.61995">
        <ele>605.2</ele>
        <time>2025-03-02T11:12:38Z</time>
      </trkpt>
      <trkpt lat="45.73218" lon="4.61995">
        <ele>605</ele>
        <time>2025-03-02T11:12:39Z</time>
      </trkpt>
      <trkpt lat="45.73218" lon="4.61995">
        <ele>605</ele>
        <time>2025-03-02T11:12:40Z</time>
      </trkpt>
      <trkpt lat="45.73218" lon="4.61995">
        <ele>605</ele>
        <time>2025-03-02T11:12:41Z</time>
      </trkpt>
      <trkpt lat="45.73218" lon="4.61995">
        <ele>605</ele>
        <time>2025-03-02T11:12:42Z</time>
      </trkpt>
      <trkpt lat="45.73218" lon="4.61995">
        <ele>604.8</ele>
        <time>2025-03-02T11:12:43Z</time>
      </trkpt>
      <trkpt lat="45.73219" lon="4.61995">
        <ele>604.8</ele>
        <time>2025-03-02T11:12:44Z</time>
      </trkpt>
      <trkpt lat="45.73219" lon="4.61995">
        <ele>604.8</ele>
        <time>2025-03-02T11:12:45Z</time>
      </trkpt>
      <trkpt lat="45.73219" lon="4.61995">
        <ele>604.8</ele>
        <time>2025-03-02T11:12:46Z</time>
      </trkpt>
      <trkpt lat="45.73219" lon="4.61995">
        <ele>604.8</ele>
        <time>2025-03-02T11:12:47Z</time>
      </trkpt>
      <trkpt lat="45.73219" lon="4.61995">
        <ele>604.8</ele>
        <time>2025-03-02T11:12:48Z</time>
      </trkpt>
      <trkpt lat="45.73219" lon="4.61995">
        <ele>604.8</ele>
        <time>2025-03-02T11:12:49Z</time>
      </trkpt>
      <trkpt lat="45.73219" lon="4.61995">
        <ele>604.8</ele>
        <time>2025-03-02T11:12:50Z</time>
      </trkpt>
      <trkpt lat="45.73219" lon="4.61995">
        <ele>604.8</ele>
        <time>2025-03-02T11:12:51Z</time>
      </trkpt>
      <trkpt lat="45.73219" lon="4.61995">
        <ele>604.8</ele>
        <time>2025-03-02T11:12:52Z</time>
      </trkpt>
      <trkpt lat="45.73219" lon="4.61995">
        <ele>604.8</ele>
        <time>2025-03-02T11:12:53Z</time>
      </trkpt>
      <trkpt lat="45.73219" lon="4.61995">
        <ele>604.6</ele>
        <time>2025-03-02T11:12:54Z</time>
      </trkpt>
      <trkpt lat="45.73219" lon="4.61995">
        <ele>604.6</ele>
        <time>2025-03-02T11:12:55Z</time>
      </trkpt>
      <trkpt lat="45.73219" lon="4.61995">
        <ele>604.6</ele>
        <time>2025-03-02T11:12:56Z</time>
      </trkpt>
      <trkpt lat="45.73219" lon="4.61995">
        <ele>604.6</ele>
        <time>2025-03-02T11:12:57Z</time>
      </trkpt>
      <trkpt lat="45.73219" lon="4.61995">
        <ele>604.4</ele>
        <time>2025-03-02T11:12:58Z</time>
      </trkpt>
      <trkpt lat="45.73219" lon="4.61995">
        <ele>604.4</ele>
        <time>2025-03-02T11:12:59Z</time>
      </trkpt>
      <trkpt lat="45.73219" lon="4.61995">
        <ele>604.4</ele>
        <time>2025-03-02T11:13:00Z</time>
      </trkpt>
      <trkpt lat="45.73219" lon="4.61995">
        <ele>604.4</ele>
        <time>2025-03-02T11:13:01Z</time>
      </trkpt>
      <trkpt lat="45.73219" lon="4.61995">
        <ele>604.4</ele>
        <time>2025-03-02T11:13:02Z</time>
      </trkpt>
      <trkpt lat="45.73219" lon="4.61995">
        <ele>604.2</ele>
        <time>2025-03-02T11:13:03Z</time>
      </trkpt>
      <trkpt lat="45.73219" lon="4.61995">
        <ele>604.2</ele>
        <time>2025-03-02T11:13:04Z</time>
      </trkpt>
      <trkpt lat="45.73219" lon="4.61996">
        <ele>604.2</ele>
        <time>2025-03-02T11:13:05Z</time>
      </trkpt>
      <trkpt lat="45.73218" lon="4.61996">
        <ele>604.2</ele>
        <time>2025-03-02T11:13:06Z</time>
      </trkpt>
      <trkpt lat="45.73218" lon="4.61996">
        <ele>604.2</ele>
        <time>2025-03-02T11:13:07Z</time>
      </trkpt>
      <trkpt lat="45.73218" lon="4.61996">
        <ele>604.2</ele>
        <time>2025-03-02T11:13:08Z</time>
      </trkpt>
      <trkpt lat="45.73219" lon="4.61996">
        <ele>604.2</ele>
        <time>2025-03-02T11:13:09Z</time>
      </trkpt>
      <trkpt lat="45.73219" lon="4.61996">
        <ele>604.2</ele>
        <time>2025-03-02T11:13:10Z</time>
      </trkpt>
      <trkpt lat="45.73219" lon="4.61996">
        <ele>604</ele>
        <time>2025-03-02T11:13:11Z</time>
      </trkpt>
      <trkpt lat="45.73219" lon="4.61996">
        <ele>604</ele>
        <time>2025-03-02T11:13:12Z</time>
      </trkpt>
      <trkpt lat="45.73219" lon="4.61996">
        <ele>604</ele>
        <time>2025-03-02T11:13:13Z</time>
      </trkpt>
      <trkpt lat="45.73219" lon="4.61996">
        <ele>604</ele>
        <time>2025-03-02T11:13:14Z</time>
      </trkpt>
      <trkpt lat="45.73219" lon="4.61996">
        <ele>604</ele>
        <time>2025-03-02T11:13:15Z</time>
      </trkpt>
      <trkpt lat="45.73219" lon="4.61996">
        <ele>604</ele>
        <time>2025-03-02T11:13:16Z</time>
      </trkpt>
      <trkpt lat="45.73219" lon="4.61996">
        <ele>604</ele>
        <time>2025-03-02T11:13:17Z</time>
      </trkpt>
      <trkpt lat="45.73219" lon="4.61996">
        <ele>604</ele>
        <time>2025-03-02T11:13:18Z</time>
      </trkpt>
      <trkpt lat="45.73219" lon="4.61996">
        <ele>604</ele>
        <time>2025-03-02T11:13:19Z</time>
      </trkpt>
      <trkpt lat="45.73219" lon="4.61996">
        <ele>604</ele>
        <time>2025-03-02T11:13:20Z</time>
      </trkpt>
      <trkpt lat="45.73219" lon="4.61996">
        <ele>604</ele>
        <time>2025-03-02T11:13:21Z</time>
      </trkpt>
      <trkpt lat="45.73219" lon="4.61996">
        <ele>604</ele>
        <time>2025-03-02T11:13:22Z</time>
      </trkpt>
      <trkpt lat="45.73219" lon="4.61996">
        <ele>604</ele>
        <time>2025-03-02T11:13:23Z</time>
      </trkpt>
      <trkpt lat="45.73218" lon="4.61996">
        <ele>604</ele>
        <time>2025-03-02T11:13:24Z</time>
      </trkpt>
      <trkpt lat="45.73218" lon="4.61996">
        <ele>604</ele>
        <time>2025-03-02T11:13:25Z</time>
      </trkpt>
      <trkpt lat="45.73218" lon="4.61996">
        <ele>604</ele>
        <time>2025-03-02T11:13:26Z</time>
      </trkpt>
      <trkpt lat="45.73218" lon="4.61996">
        <ele>604</ele>
        <time>2025-03-02T11:13:27Z</time>
      </trkpt>
      <trkpt lat="45.73218" lon="4.61996">
        <ele>604</ele>
        <time>2025-03-02T11:13:28Z</time>
      </trkpt>
      <trkpt lat="45.73218" lon="4.61996">
        <ele>603.8</ele>
        <time>2025-03-02T11:13:29Z</time>
      </trkpt>
      <trkpt lat="45.73218" lon="4.61996">
        <ele>603.8</ele>
        <time>2025-03-02T11:13:30Z</time>
      </trkpt>
      <trkpt lat="45.73218" lon="4.61996">
        <ele>603.8</ele>
        <time>2025-03-02T11:13:31Z</time>
      </trkpt>
      <trkpt lat="45.73218" lon="4.61996">
        <ele>603.8</ele>
        <time>2025-03-02T11:13:32Z</time>
      </trkpt>
      <trkpt lat="45.73218" lon="4.61996">
        <ele>603.8</ele>
        <time>2025-03-02T11:13:33Z</time>
      </trkpt>
      <trkpt lat="45.73218" lon="4.61996">
        <ele>603.8</ele>
        <time>2025-03-02T11:13:34Z</time>
      </trkpt>
      <trkpt lat="45.73218" lon="4.61996">
        <ele>603.8</ele>
        <time>2025-03-02T11:13:35Z</time>
      </trkpt>
      <trkpt lat="45.73218" lon="4.61996">
        <ele>603.8</ele>
        <time>2025-03-02T11:13:36Z</time>
      </trkpt>
      <trkpt lat="45.73218" lon="4.61996">
        <ele>603.8</ele>
        <time>2025-03-02T11:13:37Z</time>
      </trkpt>
      <trkpt lat="45.73218" lon="4.61996">
        <ele>603.8</ele>
        <time>2025-03-02T11:13:38Z</time>
      </trkpt>
      <trkpt lat="45.73218" lon="4.61996">
        <ele>603.8</ele>
        <time>2025-03-02T11:13:39Z</time>
      </trkpt>
      <trkpt lat="45.73218" lon="4.61996">
        <ele>603.8</ele>
        <time>2025-03-02T11:13:40Z</time>
      </trkpt>
      <trkpt lat="45.73218" lon="4.61996">
        <ele>603.8</ele>
        <time>2025-03-02T11:13:41Z</time>
      </trkpt>
      <trkpt lat="45.73218" lon="4.61996">
        <ele>603.8</ele>
        <time>2025-03-02T11:13:42Z</time>
      </trkpt>
      <trkpt lat="45.73218" lon="4.61996">
        <ele>603.8</ele>
        <time>2025-03-02T11:13:43Z</time>
      </trkpt>
      <trkpt lat="45.73218" lon="4.61996">
        <ele>603.8</ele>
        <time>2025-03-02T11:13:44Z</time>
      </trkpt>
      <trkpt lat="45.73218" lon="4.61996">
        <ele>603.8</ele>
        <time>2025-03-02T11:13:45Z</time>
      </trkpt>
      <trkpt lat="45.73218" lon="4.61996">
        <ele>603.8</ele>
        <time>2025-03-02T11:13:46Z</time>
      </trkpt>
      <trkpt lat="45.73218" lon="4.61997">
        <ele>603.8</ele>
        <time>2025-03-02T11:13:47Z</time>
      </trkpt>
      <trkpt lat="45.73218" lon="4.61997">
        <ele>603.6</ele>
        <time>2025-03-02T11:13:48Z</time>
      </trkpt>
      <trkpt lat="45.73218" lon="4.61997">
        <ele>603.6</ele>
        <time>2025-03-02T11:13:49Z</time>
      </trkpt>
      <trkpt lat="45.73218" lon="4.61997">
        <ele>603.6</ele>
        <time>2025-03-02T11:13:50Z</time>
      </trkpt>
      <trkpt lat="45.73218" lon="4.61997">
        <ele>603.6</ele>
        <time>2025-03-02T11:13:51Z</time>
      </trkpt>
      <trkpt lat="45.73218" lon="4.61997">
        <ele>603.6</ele>
        <time>2025-03-02T11:13:52Z</time>
      </trkpt>
      <trkpt lat="45.73218" lon="4.61997">
        <ele>603.6</ele>
        <time>2025-03-02T11:13:53Z</time>
      </trkpt>
      <trkpt lat="45.73218" lon="4.61997">
        <ele>603.6</ele>
        <time>2025-03-02T11:13:54Z</time>
      </trkpt>
      <trkpt lat="45.73218" lon="4.61997">
        <ele>603.6</ele>
        <time>2025-03-02T11:13:55Z</time>
      </trkpt>
      <trkpt lat="45.73217" lon="4.61997">
        <ele>603.6</ele>
        <time>2025-03-02T11:13:56Z</time>
      </trkpt>
      <trkpt lat="45.73217" lon="4.61997">
        <ele>603.4</ele>
        <time>2025-03-02T11:13:57Z</time>
      </trkpt>
      <trkpt lat="45.73217" lon="4.61997">
        <ele>603.4</ele>
        <time>2025-03-02T11:13:58Z</time>
      </trkpt>
      <trkpt lat="45.73217" lon="4.61997">
        <ele>603.4</ele>
        <time>2025-03-02T11:13:59Z</time>
      </trkpt>
      <trkpt lat="45.73217" lon="4.61997">
        <ele>603.4</ele>
        <time>2025-03-02T11:14:00Z</time>
      </trkpt>
      <trkpt lat="45.73217" lon="4.61997">
        <ele>603.4</ele>
        <time>2025-03-02T11:14:01Z</time>
      </trkpt>
      <trkpt lat="45.73217" lon="4.61997">
        <ele>603.4</ele>
        <time>2025-03-02T11:14:02Z</time>
      </trkpt>
      <trkpt lat="45.73217" lon="4.61997">
        <ele>603.4</ele>
        <time>2025-03-02T11:14:03Z</time>
      </trkpt>
      <trkpt lat="45.73217" lon="4.61996">
        <ele>603.4</ele>
        <time>2025-03-02T11:14:04Z</time>
      </trkpt>
      <trkpt lat="45.73217" lon="4.61996">
        <ele>603.4</ele>
        <time>2025-03-02T11:14:05Z</time>
      </trkpt>
      <trkpt lat="45.73217" lon="4.61996">
        <ele>603.4</ele>
        <time>2025-03-02T11:14:06Z</time>
      </trkpt>
      <trkpt lat="45.73217" lon="4.61996">
        <ele>603.4</ele>
        <time>2025-03-02T11:14:07Z</time>
      </trkpt>
      <trkpt lat="45.73217" lon="4.61996">
        <ele>603.4</ele>
        <time>2025-03-02T11:14:08Z</time>
      </trkpt>
      <trkpt lat="45.73217" lon="4.61996">
        <ele>603.4</ele>
        <time>2025-03-02T11:14:09Z</time>
      </trkpt>
      <trkpt lat="45.73217" lon="4.61996">
        <ele>603.4</ele>
        <time>2025-03-02T11:14:10Z</time>
      </trkpt>
      <trkpt lat="45.73217" lon="4.61996">
        <ele>603.4</ele>
        <time>2025-03-02T11:14:11Z</time>
      </trkpt>
      <trkpt lat="45.73217" lon="4.61996">
        <ele>603.4</ele>
        <time>2025-03-02T11:14:12Z</time>
      </trkpt>
      <trkpt lat="45.73217" lon="4.61996">
        <ele>603.4</ele>
        <time>2025-03-02T11:14:13Z</time>
      </trkpt>
      <trkpt lat="45.73217" lon="4.61996">
        <ele>603.4</ele>
        <time>2025-03-02T11:14:14Z</time>
      </trkpt>
      <trkpt lat="45.73217" lon="4.61996">
        <ele>603.4</ele>
        <time>2025-03-02T11:14:15Z</time>
      </trkpt>
      <trkpt lat="45.73217" lon="4.61996">
        <ele>603.4</ele>
        <time>2025-03-02T11:14:16Z</time>
      </trkpt>
      <trkpt lat="45.73217" lon="4.61996">
        <ele>603.4</ele>
        <time>2025-03-02T11:14:17Z</time>
      </trkpt>
      <trkpt lat="45.73217" lon="4.61996">
        <ele>603.4</ele>
        <time>2025-03-02T11:14:18Z</time>
      </trkpt>
      <trkpt lat="45.73217" lon="4.61996">
        <ele>603.4</ele>
        <time>2025-03-02T11:14:19Z</time>
      </trkpt>
      <trkpt lat="45.73217" lon="4.61996">
        <ele>603.4</ele>
        <time>2025-03-02T11:14:20Z</time>
      </trkpt>
      <trkpt lat="45.73217" lon="4.61996">
        <ele>603.4</ele>
        <time>2025-03-02T11:14:21Z</time>
      </trkpt>
      <trkpt lat="45.73217" lon="4.61996">
        <ele>603.4</ele>
        <time>2025-03-02T11:14:22Z</time>
      </trkpt>
      <trkpt lat="45.73217" lon="4.61996">
        <ele>603.4</ele>
        <time>2025-03-02T11:14:23Z</time>
      </trkpt>
      <trkpt lat="45.73217" lon="4.61996">
        <ele>603.4</ele>
        <time>2025-03-02T11:14:24Z</time>
      </trkpt>
      <trkpt lat="45.73216" lon="4.61996">
        <ele>603.2</ele>
        <time>2025-03-02T11:14:25Z</time>
      </trkpt>
      <trkpt lat="45.73216" lon="4.61996">
        <ele>603.2</ele>
        <time>2025-03-02T11:14:26Z</time>
      </trkpt>
      <trkpt lat="45.73216" lon="4.61996">
        <ele>603.2</ele>
        <time>2025-03-02T11:14:27Z</time>
      </trkpt>
      <trkpt lat="45.73216" lon="4.61996">
        <ele>603.2</ele>
        <time>2025-03-02T11:14:28Z</time>
      </trkpt>
      <trkpt lat="45.73216" lon="4.61996">
        <ele>603.2</ele>
        <time>2025-03-02T11:14:29Z</time>
      </trkpt>
      <trkpt lat="45.73216" lon="4.61997">
        <ele>603.2</ele>
        <time>2025-03-02T11:14:30Z</time>
      </trkpt>
      <trkpt lat="45.73216" lon="4.61997">
        <ele>603.2</ele>
        <time>2025-03-02T11:14:31Z</time>
      </trkpt>
      <trkpt lat="45.73216" lon="4.61997">
        <ele>603.2</ele>
        <time>2025-03-02T11:14:32Z</time>
      </trkpt>
      <trkpt lat="45.73216" lon="4.61997">
        <ele>603.2</ele>
        <time>2025-03-02T11:14:33Z</time>
      </trkpt>
      <trkpt lat="45.73216" lon="4.61997">
        <ele>603.2</ele>
        <time>2025-03-02T11:14:34Z</time>
      </trkpt>
      <trkpt lat="45.73216" lon="4.61997">
        <ele>603.2</ele>
        <time>2025-03-02T11:14:35Z</time>
      </trkpt>
      <trkpt lat="45.73216" lon="4.61997">
        <ele>603.2</ele>
        <time>2025-03-02T11:14:36Z</time>
      </trkpt>
      <trkpt lat="45.73216" lon="4.61997">
        <ele>603.6</ele>
        <time>2025-03-02T11:14:37Z</time>
      </trkpt>
      <trkpt lat="45.73216" lon="4.61997">
        <ele>603.6</ele>
        <time>2025-03-02T11:14:38Z</time>
      </trkpt>
      <trkpt lat="45.73215" lon="4.61998">
        <ele>603.6</ele>
        <time>2025-03-02T11:14:39Z</time>
      </trkpt>
      <trkpt lat="45.73216" lon="4.62">
        <ele>603.4</ele>
        <time>2025-03-02T11:14:40Z</time>
      </trkpt>
      <trkpt lat="45.73217" lon="4.62003">
        <ele>603.4</ele>
        <time>2025-03-02T11:14:41Z</time>
      </trkpt>
      <trkpt lat="45.73218" lon="4.62006">
        <ele>603.2</ele>
        <time>2025-03-02T11:14:42Z</time>
      </trkpt>
      <trkpt lat="45.73219" lon="4.62009">
        <ele>603</ele>
        <time>2025-03-02T11:14:43Z</time>
      </trkpt>
      <trkpt lat="45.7322" lon="4.62012">
        <ele>603</ele>
        <time>2025-03-02T11:14:44Z</time>
      </trkpt>
      <trkpt lat="45.73221" lon="4.62014">
        <ele>603</ele>
        <time>2025-03-02T11:14:45Z</time>
      </trkpt>
      <trkpt lat="45.73221" lon="4.62016">
        <ele>602.8</ele>
        <time>2025-03-02T11:14:46Z</time>
      </trkpt>
      <trkpt lat="45.73221" lon="4.62017">
        <ele>602.8</ele>
        <time>2025-03-02T11:14:47Z</time>
      </trkpt>
      <trkpt lat="45.73221" lon="4.62017">
        <ele>602.8</ele>
        <time>2025-03-02T11:14:48Z</time>
      </trkpt>
      <trkpt lat="45.73221" lon="4.62017">
        <ele>602.8</ele>
        <time>2025-03-02T11:14:49Z</time>
      </trkpt>
      <trkpt lat="45.73221" lon="4.62017">
        <ele>602.8</ele>
        <time>2025-03-02T11:14:50Z</time>
      </trkpt>
      <trkpt lat="45.73221" lon="4.62017">
        <ele>602.8</ele>
        <time>2025-03-02T11:14:51Z</time>
      </trkpt>
      <trkpt lat="45.73221" lon="4.62017">
        <ele>602.8</ele>
        <time>2025-03-02T11:14:52Z</time>
      </trkpt>
      <trkpt lat="45.73222" lon="4.62018">
        <ele>602.8</ele>
        <time>2025-03-02T11:14:53Z</time>
      </trkpt>
      <trkpt lat="45.73222" lon="4.62018">
        <ele>602.8</ele>
        <time>2025-03-02T11:14:54Z</time>
      </trkpt>
      <trkpt lat="45.73223" lon="4.62019">
        <ele>602.8</ele>
        <time>2025-03-02T11:14:55Z</time>
      </trkpt>
      <trkpt lat="45.73225" lon="4.6202">
        <ele>602.6</ele>
        <time>2025-03-02T11:14:56Z</time>
      </trkpt>
      <trkpt lat="45.73227" lon="4.62021">
        <ele>602.6</ele>
        <time>2025-03-02T11:14:57Z</time>
      </trkpt>
      <trkpt lat="45.73229" lon="4.62023">
        <ele>602.6</ele>
        <time>2025-03-02T11:14:58Z</time>
      </trkpt>
      <trkpt lat="45.73231" lon="4.62026">
        <ele>602.4</ele>
        <time>2025-03-02T11:14:59Z</time>
      </trkpt>
      <trkpt lat="45.73233" lon="4.6203">
        <ele>602.4</ele>
        <time>2025-03-02T11:15:00Z</time>
      </trkpt>
      <trkpt lat="45.73237" lon="4.62035">
        <ele>602.2</ele>
        <time>2025-03-02T11:15:01Z</time>
      </trkpt>
      <trkpt lat="45.7324" lon="4.62041">
        <ele>601.8</ele>
        <time>2025-03-02T11:15:02Z</time>
      </trkpt>
      <trkpt lat="45.73244" lon="4.62048">
        <ele>601.4</ele>
        <time>2025-03-02T11:15:03Z</time>
      </trkpt>
      <trkpt lat="45.73248" lon="4.62055">
        <ele>600.2</ele>
        <time>2025-03-02T11:15:04Z</time>
      </trkpt>
      <trkpt lat="45.7325" lon="4.62062">
        <ele>598.6</ele>
        <time>2025-03-02T11:15:05Z</time>
      </trkpt>
      <trkpt lat="45.73252" lon="4.6207">
        <ele>597.4</ele>
        <time>2025-03-02T11:15:06Z</time>
      </trkpt>
      <trkpt lat="45.73253" lon="4.62078">
        <ele>596.4</ele>
        <time>2025-03-02T11:15:07Z</time>
      </trkpt>
      <trkpt lat="45.73252" lon="4.62086">
        <ele>595</ele>
        <time>2025-03-02T11:15:08Z</time>
      </trkpt>
      <trkpt lat="45.73251" lon="4.62095">
        <ele>594.2</ele>
        <time>2025-03-02T11:15:09Z</time>
      </trkpt>
      <trkpt lat="45.73251" lon="4.62104">
        <ele>593.2</ele>
        <time>2025-03-02T11:15:10Z</time>
      </trkpt>
      <trkpt lat="45.73252" lon="4.62111">
        <ele>591.8</ele>
        <time>2025-03-02T11:15:11Z</time>
      </trkpt>
      <trkpt lat="45.73253" lon="4.62119">
        <ele>590.8</ele>
        <time>2025-03-02T11:15:12Z</time>
      </trkpt>
      <trkpt lat="45.73254" lon="4.62127">
        <ele>590.2</ele>
        <time>2025-03-02T11:15:13Z</time>
      </trkpt>
      <trkpt lat="45.73253" lon="4.62135">
        <ele>589.8</ele>
        <time>2025-03-02T11:15:14Z</time>
      </trkpt>
      <trkpt lat="45.73252" lon="4.62145">
        <ele>589.2</ele>
        <time>2025-03-02T11:15:15Z</time>
      </trkpt>
      <trkpt lat="45.73251" lon="4.62153">
        <ele>588.4</ele>
        <time>2025-03-02T11:15:16Z</time>
      </trkpt>
      <trkpt lat="45.7325" lon="4.62161">
        <ele>587.8</ele>
        <time>2025-03-02T11:15:17Z</time>
      </trkpt>
      <trkpt lat="45.7325" lon="4.62167">
        <ele>587.8</ele>
        <time>2025-03-02T11:15:18Z</time>
      </trkpt>
      <trkpt lat="45.73251" lon="4.62173">
        <ele>587.8</ele>
        <time>2025-03-02T11:15:19Z</time>
      </trkpt>
      <trkpt lat="45.73251" lon="4.62179">
        <ele>587.8</ele>
        <time>2025-03-02T11:15:20Z</time>
      </trkpt>
      <trkpt lat="45.73252" lon="4.62185">
        <ele>588.4</ele>
        <time>2025-03-02T11:15:21Z</time>
      </trkpt>
      <trkpt lat="45.73252" lon="4.62191">
        <ele>588.8</ele>
        <time>2025-03-02T11:15:22Z</time>
      </trkpt>
      <trkpt lat="45.73253" lon="4.62196">
        <ele>589</ele>
        <time>2025-03-02T11:15:23Z</time>
      </trkpt>
      <trkpt lat="45.73254" lon="4.62202">
        <ele>589.2</ele>
        <time>2025-03-02T11:15:24Z</time>
      </trkpt>
      <trkpt lat="45.73254" lon="4.62207">
        <ele>589.6</ele>
        <time>2025-03-02T11:15:25Z</time>
      </trkpt>
      <trkpt lat="45.73254" lon="4.62212">
        <ele>590.2</ele>
        <time>2025-03-02T11:15:26Z</time>
      </trkpt>
      <trkpt lat="45.73254" lon="4.62217">
        <ele>590.4</ele>
        <time>2025-03-02T11:15:27Z</time>
      </trkpt>
      <trkpt lat="45.73255" lon="4.62222">
        <ele>590.6</ele>
        <time>2025-03-02T11:15:28Z</time>
      </trkpt>
      <trkpt lat="45.73255" lon="4.62228">
        <ele>591</ele>
        <time>2025-03-02T11:15:29Z</time>
      </trkpt>
      <trkpt lat="45.73255" lon="4.62233">
        <ele>591.4</ele>
        <time>2025-03-02T11:15:30Z</time>
      </trkpt>
      <trkpt lat="45.73255" lon="4.62239">
        <ele>591.6</ele>
        <time>2025-03-02T11:15:31Z</time>
      </trkpt>
      <trkpt lat="45.73255" lon="4.62244">
        <ele>592</ele>
        <time>2025-03-02T11:15:32Z</time>
      </trkpt>
      <trkpt lat="45.73255" lon="4.62249">
        <ele>592.4</ele>
        <time>2025-03-02T11:15:33Z</time>
      </trkpt>
      <trkpt lat="45.73255" lon="4.62254">
        <ele>592.8</ele>
        <time>2025-03-02T11:15:34Z</time>
      </trkpt>
      <trkpt lat="45.73255" lon="4.62259">
        <ele>593.2</ele>
        <time>2025-03-02T11:15:35Z</time>
      </trkpt>
      <trkpt lat="45.73255" lon="4.62263">
        <ele>593.8</ele>
        <time>2025-03-02T11:15:36Z</time>
      </trkpt>
      <trkpt lat="45.73255" lon="4.62267">
        <ele>594.2</ele>
        <time>2025-03-02T11:15:37Z</time>
      </trkpt>
      <trkpt lat="45.73254" lon="4.62271">
        <ele>594.6</ele>
        <time>2025-03-02T11:15:38Z</time>
      </trkpt>
      <trkpt lat="45.73254" lon="4.62274">
        <ele>595.2</ele>
        <time>2025-03-02T11:15:39Z</time>
      </trkpt>
      <trkpt lat="45.73254" lon="4.62277">
        <ele>595.6</ele>
        <time>2025-03-02T11:15:40Z</time>
      </trkpt>
      <trkpt lat="45.73254" lon="4.6228">
        <ele>596.2</ele>
        <time>2025-03-02T11:15:41Z</time>
      </trkpt>
      <trkpt lat="45.73254" lon="4.62284">
        <ele>596.6</ele>
        <time>2025-03-02T11:15:42Z</time>
      </trkpt>
      <trkpt lat="45.73254" lon="4.62288">
        <ele>596.8</ele>
        <time>2025-03-02T11:15:43Z</time>
      </trkpt>
      <trkpt lat="45.73255" lon="4.62292">
        <ele>597.4</ele>
        <time>2025-03-02T11:15:44Z</time>
      </trkpt>
      <trkpt lat="45.73255" lon="4.62296">
        <ele>597.6</ele>
        <time>2025-03-02T11:15:45Z</time>
      </trkpt>
      <trkpt lat="45.73255" lon="4.623">
        <ele>598</ele>
        <time>2025-03-02T11:15:46Z</time>
      </trkpt>
      <trkpt lat="45.73254" lon="4.62304">
        <ele>598.4</ele>
        <time>2025-03-02T11:15:47Z</time>
      </trkpt>
      <trkpt lat="45.73253" lon="4.62308">
        <ele>598.6</ele>
        <time>2025-03-02T11:15:48Z</time>
      </trkpt>
      <trkpt lat="45.73253" lon="4.62312">
        <ele>599</ele>
        <time>2025-03-02T11:15:49Z</time>
      </trkpt>
      <trkpt lat="45.73254" lon="4.62316">
        <ele>599.2</ele>
        <time>2025-03-02T11:15:50Z</time>
      </trkpt>
      <trkpt lat="45.73254" lon="4.6232">
        <ele>599.6</ele>
        <time>2025-03-02T11:15:51Z</time>
      </trkpt>
      <trkpt lat="45.73255" lon="4.62324">
        <ele>600</ele>
        <time>2025-03-02T11:15:52Z</time>
      </trkpt>
      <trkpt lat="45.73255" lon="4.62328">
        <ele>600.2</ele>
        <time>2025-03-02T11:15:53Z</time>
      </trkpt>
      <trkpt lat="45.73256" lon="4.62333">
        <ele>600.4</ele>
        <time>2025-03-02T11:15:54Z</time>
      </trkpt>
      <trkpt lat="45.73256" lon="4.62337">
        <ele>600.8</ele>
        <time>2025-03-02T11:15:55Z</time>
      </trkpt>
      <trkpt lat="45.73256" lon="4.62341">
        <ele>601</ele>
        <time>2025-03-02T11:15:56Z</time>
      </trkpt>
      <trkpt lat="45.73257" lon="4.62346">
        <ele>601.2</ele>
        <time>2025-03-02T11:15:57Z</time>
      </trkpt>
      <trkpt lat="45.73257" lon="4.6235">
        <ele>601.4</ele>
        <time>2025-03-02T11:15:58Z</time>
      </trkpt>
      <trkpt lat="45.73257" lon="4.62354">
        <ele>601.8</ele>
        <time>2025-03-02T11:15:59Z</time>
      </trkpt>
      <trkpt lat="45.73257" lon="4.62358">
        <ele>602.2</ele>
        <time>2025-03-02T11:16:00Z</time>
      </trkpt>
      <trkpt lat="45.73258" lon="4.62362">
        <ele>602.6</ele>
        <time>2025-03-02T11:16:01Z</time>
      </trkpt>
      <trkpt lat="45.73258" lon="4.62367">
        <ele>603</ele>
        <time>2025-03-02T11:16:02Z</time>
      </trkpt>
      <trkpt lat="45.73258" lon="4.62371">
        <ele>603.4</ele>
        <time>2025-03-02T11:16:03Z</time>
      </trkpt>
      <trkpt lat="45.73258" lon="4.62375">
        <ele>603.8</ele>
        <time>2025-03-02T11:16:04Z</time>
      </trkpt>
      <trkpt lat="45.73258" lon="4.62378">
        <ele>604.2</ele>
        <time>2025-03-02T11:16:05Z</time>
      </trkpt>
      <trkpt lat="45.73257" lon="4.62382">
        <ele>604.6</ele>
        <time>2025-03-02T11:16:06Z</time>
      </trkpt>
      <trkpt lat="45.73258" lon="4.62387">
        <ele>605</ele>
        <time>2025-03-02T11:16:07Z</time>
      </trkpt>
      <trkpt lat="45.73257" lon="4.62391">
        <ele>605.2</ele>
        <time>2025-03-02T11:16:08Z</time>
      </trkpt>
      <trkpt lat="45.73258" lon="4.62396">
        <ele>605.4</ele>
        <time>2025-03-02T11:16:09Z</time>
      </trkpt>
      <trkpt lat="45.73257" lon="4.624">
        <ele>605.6</ele>
        <time>2025-03-02T11:16:10Z</time>
      </trkpt>
      <trkpt lat="45.73257" lon="4.62405">
        <ele>605.8</ele>
        <time>2025-03-02T11:16:11Z</time>
      </trkpt>
      <trkpt lat="45.73257" lon="4.6241">
        <ele>605.8</ele>
        <time>2025-03-02T11:16:12Z</time>
      </trkpt>
      <trkpt lat="45.73257" lon="4.62414">
        <ele>606</ele>
        <time>2025-03-02T11:16:13Z</time>
      </trkpt>
      <trkpt lat="45.73257" lon="4.62418">
        <ele>606</ele>
        <time>2025-03-02T11:16:14Z</time>
      </trkpt>
      <trkpt lat="45.73257" lon="4.62422">
        <ele>606.2</ele>
        <time>2025-03-02T11:16:15Z</time>
      </trkpt>
      <trkpt lat="45.73256" lon="4.62426">
        <ele>606.6</ele>
        <time>2025-03-02T11:16:16Z</time>
      </trkpt>
      <trkpt lat="45.73256" lon="4.6243">
        <ele>606.8</ele>
        <time>2025-03-02T11:16:17Z</time>
      </trkpt>
      <trkpt lat="45.73257" lon="4.62434">
        <ele>607.2</ele>
        <time>2025-03-02T11:16:18Z</time>
      </trkpt>
      <trkpt lat="45.73257" lon="4.62439">
        <ele>607.4</ele>
        <time>2025-03-02T11:16:19Z</time>
      </trkpt>
      <trkpt lat="45.73256" lon="4.62443">
        <ele>607.6</ele>
        <time>2025-03-02T11:16:20Z</time>
      </trkpt>
      <trkpt lat="45.73257" lon="4.62448">
        <ele>607.6</ele>
        <time>2025-03-02T11:16:21Z</time>
      </trkpt>
      <trkpt lat="45.73257" lon="4.62451">
        <ele>607.6</ele>
        <time>2025-03-02T11:16:22Z</time>
      </trkpt>
      <trkpt lat="45.73258" lon="4.62457">
        <ele>607.8</ele>
        <time>2025-03-02T11:16:23Z</time>
      </trkpt>
      <trkpt lat="45.7326" lon="4.62461">
        <ele>607.8</ele>
        <time>2025-03-02T11:16:24Z</time>
      </trkpt>
      <trkpt lat="45.73261" lon="4.62465">
        <ele>607.8</ele>
        <time>2025-03-02T11:16:25Z</time>
      </trkpt>
      <trkpt lat="45.73263" lon="4.62469">
        <ele>607.8</ele>
        <time>2025-03-02T11:16:26Z</time>
      </trkpt>
      <trkpt lat="45.73264" lon="4.62472">
        <ele>607.8</ele>
        <time>2025-03-02T11:16:27Z</time>
      </trkpt>
      <trkpt lat="45.73266" lon="4.62476">
        <ele>607.8</ele>
        <time>2025-03-02T11:16:28Z</time>
      </trkpt>
      <trkpt lat="45.73268" lon="4.62479">
        <ele>608.2</ele>
        <time>2025-03-02T11:16:29Z</time>
      </trkpt>
      <trkpt lat="45.73271" lon="4.62483">
        <ele>608.6</ele>
        <time>2025-03-02T11:16:30Z</time>
      </trkpt>
      <trkpt lat="45.73273" lon="4.62486">
        <ele>608.8</ele>
        <time>2025-03-02T11:16:31Z</time>
      </trkpt>
      <trkpt lat="45.73275" lon="4.6249">
        <ele>608.8</ele>
        <time>2025-03-02T11:16:32Z</time>
      </trkpt>
      <trkpt lat="45.73277" lon="4.62493">
        <ele>609</ele>
        <time>2025-03-02T11:16:33Z</time>
      </trkpt>
      <trkpt lat="45.7328" lon="4.62496">
        <ele>609</ele>
        <time>2025-03-02T11:16:34Z</time>
      </trkpt>
      <trkpt lat="45.73282" lon="4.625">
        <ele>609</ele>
        <time>2025-03-02T11:16:35Z</time>
      </trkpt>
      <trkpt lat="45.73284" lon="4.62504">
        <ele>609.2</ele>
        <time>2025-03-02T11:16:36Z</time>
      </trkpt>
      <trkpt lat="45.73286" lon="4.62507">
        <ele>609.4</ele>
        <time>2025-03-02T11:16:37Z</time>
      </trkpt>
      <trkpt lat="45.73288" lon="4.62511">
        <ele>609.6</ele>
        <time>2025-03-02T11:16:38Z</time>
      </trkpt>
      <trkpt lat="45.73289" lon="4.62515">
        <ele>609.6</ele>
        <time>2025-03-02T11:16:39Z</time>
      </trkpt>
      <trkpt lat="45.7329" lon="4.62519">
        <ele>609.8</ele>
        <time>2025-03-02T11:16:40Z</time>
      </trkpt>
      <trkpt lat="45.73291" lon="4.62523">
        <ele>610</ele>
        <time>2025-03-02T11:16:41Z</time>
      </trkpt>
      <trkpt lat="45.73291" lon="4.62527">
        <ele>610.2</ele>
        <time>2025-03-02T11:16:42Z</time>
      </trkpt>
      <trkpt lat="45.73291" lon="4.6253">
        <ele>610.6</ele>
        <time>2025-03-02T11:16:43Z</time>
      </trkpt>
      <trkpt lat="45.7329" lon="4.62534">
        <ele>610.8</ele>
        <time>2025-03-02T11:16:44Z</time>
      </trkpt>
      <trkpt lat="45.73289" lon="4.62537">
        <ele>611.2</ele>
        <time>2025-03-02T11:16:45Z</time>
      </trkpt>
      <trkpt lat="45.73287" lon="4.62541">
        <ele>611.6</ele>
        <time>2025-03-02T11:16:46Z</time>
      </trkpt>
      <trkpt lat="45.73285" lon="4.62544">
        <ele>612</ele>
        <time>2025-03-02T11:16:47Z</time>
      </trkpt>
      <trkpt lat="45.73283" lon="4.62548">
        <ele>612.2</ele>
        <time>2025-03-02T11:16:48Z</time>
      </trkpt>
      <trkpt lat="45.7328" lon="4.62551">
        <ele>612.2</ele>
        <time>2025-03-02T11:16:49Z</time>
      </trkpt>
      <trkpt lat="45.73277" lon="4.62555">
        <ele>612.2</ele>
        <time>2025-03-02T11:16:50Z</time>
      </trkpt>
      <trkpt lat="45.73274" lon="4.62559">
        <ele>612.2</ele>
        <time>2025-03-02T11:16:51Z</time>
      </trkpt>
      <trkpt lat="45.73271" lon="4.62563">
        <ele>612.2</ele>
        <time>2025-03-02T11:16:52Z</time>
      </trkpt>
      <trkpt lat="45.73269" lon="4.62568">
        <ele>612.2</ele>
        <time>2025-03-02T11:16:53Z</time>
      </trkpt>
      <trkpt lat="45.73267" lon="4.62574">
        <ele>612.2</ele>
        <time>2025-03-02T11:16:54Z</time>
      </trkpt>
      <trkpt lat="45.73265" lon="4.62579">
        <ele>612.2</ele>
        <time>2025-03-02T11:16:55Z</time>
      </trkpt>
      <trkpt lat="45.73263" lon="4.62584">
        <ele>612.2</ele>
        <time>2025-03-02T11:16:56Z</time>
      </trkpt>
      <trkpt lat="45.73261" lon="4.62589">
        <ele>612.2</ele>
        <time>2025-03-02T11:16:57Z</time>
      </trkpt>
      <trkpt lat="45.73258" lon="4.62594">
        <ele>612.4</ele>
        <time>2025-03-02T11:16:58Z</time>
      </trkpt>
      <trkpt lat="45.73256" lon="4.62598">
        <ele>612.4</ele>
        <time>2025-03-02T11:16:59Z</time>
      </trkpt>
      <trkpt lat="45.73254" lon="4.62603">
        <ele>612.6</ele>
        <time>2025-03-02T11:17:00Z</time>
      </trkpt>
      <trkpt lat="45.73251" lon="4.62608">
        <ele>612.6</ele>
        <time>2025-03-02T11:17:01Z</time>
      </trkpt>
      <trkpt lat="45.73249" lon="4.62613">
        <ele>612.8</ele>
        <time>2025-03-02T11:17:02Z</time>
      </trkpt>
      <trkpt lat="45.73246" lon="4.62618">
        <ele>612.8</ele>
        <time>2025-03-02T11:17:03Z</time>
      </trkpt>
      <trkpt lat="45.73244" lon="4.62622">
        <ele>613</ele>
        <time>2025-03-02T11:17:04Z</time>
      </trkpt>
      <trkpt lat="45.73242" lon="4.62626">
        <ele>613.2</ele>
        <time>2025-03-02T11:17:05Z</time>
      </trkpt>
      <trkpt lat="45.73239" lon="4.62632">
        <ele>613.2</ele>
        <time>2025-03-02T11:17:06Z</time>
      </trkpt>
      <trkpt lat="45.73237" lon="4.62636">
        <ele>613.2</ele>
        <time>2025-03-02T11:17:07Z</time>
      </trkpt>
      <trkpt lat="45.73235" lon="4.62641">
        <ele>613.2</ele>
        <time>2025-03-02T11:17:08Z</time>
      </trkpt>
      <trkpt lat="45.73233" lon="4.62646">
        <ele>613.2</ele>
        <time>2025-03-02T11:17:09Z</time>
      </trkpt>
      <trkpt lat="45.7323" lon="4.62652">
        <ele>613.2</ele>
        <time>2025-03-02T11:17:10Z</time>
      </trkpt>
      <trkpt lat="45.73228" lon="4.62657">
        <ele>613.4</ele>
        <time>2025-03-02T11:17:11Z</time>
      </trkpt>
      <trkpt lat="45.73226" lon="4.62662">
        <ele>613.6</ele>
        <time>2025-03-02T11:17:12Z</time>
      </trkpt>
      <trkpt lat="45.73224" lon="4.62667">
        <ele>613.6</ele>
        <time>2025-03-02T11:17:13Z</time>
      </trkpt>
      <trkpt lat="45.73221" lon="4.62671">
        <ele>613.6</ele>
        <time>2025-03-02T11:17:14Z</time>
      </trkpt>
      <trkpt lat="45.73219" lon="4.62676">
        <ele>613.8</ele>
        <time>2025-03-02T11:17:15Z</time>
      </trkpt>
      <trkpt lat="45.73217" lon="4.6268">
        <ele>614</ele>
        <time>2025-03-02T11:17:16Z</time>
      </trkpt>
      <trkpt lat="45.73215" lon="4.62683">
        <ele>614.4</ele>
        <time>2025-03-02T11:17:17Z</time>
      </trkpt>
      <trkpt lat="45.73213" lon="4.62687">
        <ele>614.6</ele>
        <time>2025-03-02T11:17:18Z</time>
      </trkpt>
      <trkpt lat="45.73211" lon="4.62691">
        <ele>614.8</ele>
        <time>2025-03-02T11:17:19Z</time>
      </trkpt>
      <trkpt lat="45.7321" lon="4.62694">
        <ele>615</ele>
        <time>2025-03-02T11:17:20Z</time>
      </trkpt>
      <trkpt lat="45.73208" lon="4.62698">
        <ele>615.2</ele>
        <time>2025-03-02T11:17:21Z</time>
      </trkpt>
      <trkpt lat="45.73206" lon="4.62701">
        <ele>615.4</ele>
        <time>2025-03-02T11:17:22Z</time>
      </trkpt>
      <trkpt lat="45.73205" lon="4.62704">
        <ele>615.6</ele>
        <time>2025-03-02T11:17:23Z</time>
      </trkpt>
      <trkpt lat="45.73203" lon="4.62707">
        <ele>615.8</ele>
        <time>2025-03-02T11:17:24Z</time>
      </trkpt>
      <trkpt lat="45.73202" lon="4.6271">
        <ele>616</ele>
        <time>2025-03-02T11:17:25Z</time>
      </trkpt>
      <trkpt lat="45.732" lon="4.62713">
        <ele>616.2</ele>
        <time>2025-03-02T11:17:26Z</time>
      </trkpt>
      <trkpt lat="45.73199" lon="4.62715">
        <ele>616.6</ele>
        <time>2025-03-02T11:17:27Z</time>
      </trkpt>
      <trkpt lat="45.73198" lon="4.62718">
        <ele>616.6</ele>
        <time>2025-03-02T11:17:28Z</time>
      </trkpt>
      <trkpt lat="45.73198" lon="4.6272">
        <ele>617</ele>
        <time>2025-03-02T11:17:29Z</time>
      </trkpt>
      <trkpt lat="45.73197" lon="4.62722">
        <ele>617</ele>
        <time>2025-03-02T11:17:30Z</time>
      </trkpt>
      <trkpt lat="45.73197" lon="4.62725">
        <ele>617.2</ele>
        <time>2025-03-02T11:17:31Z</time>
      </trkpt>
      <trkpt lat="45.73197" lon="4.62728">
        <ele>617.2</ele>
        <time>2025-03-02T11:17:32Z</time>
      </trkpt>
      <trkpt lat="45.73196" lon="4.62732">
        <ele>617.2</ele>
        <time>2025-03-02T11:17:33Z</time>
      </trkpt>
      <trkpt lat="45.73196" lon="4.62736">
        <ele>617</ele>
        <time>2025-03-02T11:17:34Z</time>
      </trkpt>
      <trkpt lat="45.73195" lon="4.62741">
        <ele>617</ele>
        <time>2025-03-02T11:17:35Z</time>
      </trkpt>
      <trkpt lat="45.73195" lon="4.62745">
        <ele>617</ele>
        <time>2025-03-02T11:17:36Z</time>
      </trkpt>
      <trkpt lat="45.73193" lon="4.62752">
        <ele>616.8</ele>
        <time>2025-03-02T11:17:37Z</time>
      </trkpt>
      <trkpt lat="45.73191" lon="4.62759">
        <ele>616.6</ele>
        <time>2025-03-02T11:17:38Z</time>
      </trkpt>
      <trkpt lat="45.7319" lon="4.62766">
        <ele>616.2</ele>
        <time>2025-03-02T11:17:39Z</time>
      </trkpt>
      <trkpt lat="45.73188" lon="4.62773">
        <ele>615.8</ele>
        <time>2025-03-02T11:17:40Z</time>
      </trkpt>
      <trkpt lat="45.73187" lon="4.62779">
        <ele>615.2</ele>
        <time>2025-03-02T11:17:41Z</time>
      </trkpt>
      <trkpt lat="45.73185" lon="4.62789">
        <ele>614.8</ele>
        <time>2025-03-02T11:17:42Z</time>
      </trkpt>
      <trkpt lat="45.73182" lon="4.62797">
        <ele>614.4</ele>
        <time>2025-03-02T11:17:43Z</time>
      </trkpt>
      <trkpt lat="45.7318" lon="4.62805">
        <ele>613.8</ele>
        <time>2025-03-02T11:17:44Z</time>
      </trkpt>
      <trkpt lat="45.73176" lon="4.62814">
        <ele>613.2</ele>
        <time>2025-03-02T11:17:45Z</time>
      </trkpt>
      <trkpt lat="45.73173" lon="4.62822">
        <ele>612.6</ele>
        <time>2025-03-02T11:17:46Z</time>
      </trkpt>
      <trkpt lat="45.73169" lon="4.62831">
        <ele>611.4</ele>
        <time>2025-03-02T11:17:47Z</time>
      </trkpt>
      <trkpt lat="45.73166" lon="4.62841">
        <ele>610.6</ele>
        <time>2025-03-02T11:17:48Z</time>
      </trkpt>
      <trkpt lat="45.73164" lon="4.62849">
        <ele>610</ele>
        <time>2025-03-02T11:17:49Z</time>
      </trkpt>
      <trkpt lat="45.73162" lon="4.62861">
        <ele>609.2</ele>
        <time>2025-03-02T11:17:50Z</time>
      </trkpt>
      <trkpt lat="45.7316" lon="4.62871">
        <ele>608.6</ele>
        <time>2025-03-02T11:17:51Z</time>
      </trkpt>
      <trkpt lat="45.73158" lon="4.62881">
        <ele>608.2</ele>
        <time>2025-03-02T11:17:52Z</time>
      </trkpt>
      <trkpt lat="45.73157" lon="4.62891">
        <ele>608</ele>
        <time>2025-03-02T11:17:53Z</time>
      </trkpt>
      <trkpt lat="45.73156" lon="4.62902">
        <ele>607.2</ele>
        <time>2025-03-02T11:17:54Z</time>
      </trkpt>
      <trkpt lat="45.73156" lon="4.62912">
        <ele>606.8</ele>
        <time>2025-03-02T11:17:55Z</time>
      </trkpt>
      <trkpt lat="45.73156" lon="4.62923">
        <ele>606.8</ele>
        <time>2025-03-02T11:17:56Z</time>
      </trkpt>
      <trkpt lat="45.73156" lon="4.62933">
        <ele>606.6</ele>
        <time>2025-03-02T11:17:57Z</time>
      </trkpt>
      <trkpt lat="45.73156" lon="4.62944">
        <ele>606.4</ele>
        <time>2025-03-02T11:17:58Z</time>
      </trkpt>
      <trkpt lat="45.73155" lon="4.62954">
        <ele>606.4</ele>
        <time>2025-03-02T11:17:59Z</time>
      </trkpt>
      <trkpt lat="45.73155" lon="4.62965">
        <ele>605.4</ele>
        <time>2025-03-02T11:18:00Z</time>
      </trkpt>
      <trkpt lat="45.73155" lon="4.62975">
        <ele>605</ele>
        <time>2025-03-02T11:18:01Z</time>
      </trkpt>
      <trkpt lat="45.73155" lon="4.62985">
        <ele>604.4</ele>
        <time>2025-03-02T11:18:02Z</time>
      </trkpt>
      <trkpt lat="45.73155" lon="4.62995">
        <ele>604.2</ele>
        <time>2025-03-02T11:18:03Z</time>
      </trkpt>
      <trkpt lat="45.73155" lon="4.63004">
        <ele>604</ele>
        <time>2025-03-02T11:18:04Z</time>
      </trkpt>
      <trkpt lat="45.73156" lon="4.63013">
        <ele>603.8</ele>
        <time>2025-03-02T11:18:05Z</time>
      </trkpt>
      <trkpt lat="45.73157" lon="4.63019">
        <ele>603.8</ele>
        <time>2025-03-02T11:18:06Z</time>
      </trkpt>
      <trkpt lat="45.73158" lon="4.63026">
        <ele>603.8</ele>
        <time>2025-03-02T11:18:07Z</time>
      </trkpt>
      <trkpt lat="45.73159" lon="4.63033">
        <ele>603.8</ele>
        <time>2025-03-02T11:18:08Z</time>
      </trkpt>
      <trkpt lat="45.7316" lon="4.63036">
        <ele>603.8</ele>
        <time>2025-03-02T11:18:09Z</time>
      </trkpt>
      <trkpt lat="45.73161" lon="4.63037">
        <ele>604</ele>
        <time>2025-03-02T11:18:10Z</time>
      </trkpt>
      <trkpt lat="45.73161" lon="4.63037">
        <ele>604.2</ele>
        <time>2025-03-02T11:18:11Z</time>
      </trkpt>
      <trkpt lat="45.73161" lon="4.63037">
        <ele>604.6</ele>
        <time>2025-03-02T11:18:12Z</time>
      </trkpt>
      <trkpt lat="45.73161" lon="4.63037">
        <ele>605</ele>
        <time>2025-03-02T11:18:13Z</time>
      </trkpt>
      <trkpt lat="45.73161" lon="4.63037">
        <ele>605</ele>
        <time>2025-03-02T11:18:14Z</time>
      </trkpt>
      <trkpt lat="45.73161" lon="4.63037">
        <ele>605</ele>
        <time>2025-03-02T11:18:15Z</time>
      </trkpt>
      <trkpt lat="45.73161" lon="4.63037">
        <ele>605.2</ele>
        <time>2025-03-02T11:18:16Z</time>
      </trkpt>
      <trkpt lat="45.7316" lon="4.63037">
        <ele>605.2</ele>
        <time>2025-03-02T11:18:17Z</time>
      </trkpt>
      <trkpt lat="45.7316" lon="4.63036">
        <ele>605.2</ele>
        <time>2025-03-02T11:18:18Z</time>
      </trkpt>
      <trkpt lat="45.7316" lon="4.63036">
        <ele>605.2</ele>
        <time>2025-03-02T11:18:19Z</time>
      </trkpt>
      <trkpt lat="45.73159" lon="4.63036">
        <ele>605.2</ele>
        <time>2025-03-02T11:18:20Z</time>
      </trkpt>
      <trkpt lat="45.73157" lon="4.63037">
        <ele>605.2</ele>
        <time>2025-03-02T11:18:21Z</time>
      </trkpt>
      <trkpt lat="45.73155" lon="4.63039">
        <ele>605.2</ele>
        <time>2025-03-02T11:18:22Z</time>
      </trkpt>
      <trkpt lat="45.73154" lon="4.63044">
        <ele>605.2</ele>
        <time>2025-03-02T11:18:23Z</time>
      </trkpt>
      <trkpt lat="45.73154" lon="4.6305">
        <ele>605</ele>
        <time>2025-03-02T11:18:24Z</time>
      </trkpt>
      <trkpt lat="45.73154" lon="4.63057">
        <ele>604.8</ele>
        <time>2025-03-02T11:18:25Z</time>
      </trkpt>
      <trkpt lat="45.73154" lon="4.63064">
        <ele>604.2</ele>
        <time>2025-03-02T11:18:26Z</time>
      </trkpt>
      <trkpt lat="45.73155" lon="4.63071">
        <ele>603.8</ele>
        <time>2025-03-02T11:18:27Z</time>
      </trkpt>
      <trkpt lat="45.73155" lon="4.63079">
        <ele>603.2</ele>
        <time>2025-03-02T11:18:28Z</time>
      </trkpt>
      <trkpt lat="45.73156" lon="4.63087">
        <ele>602.8</ele>
        <time>2025-03-02T11:18:29Z</time>
      </trkpt>
      <trkpt lat="45.73156" lon="4.63094">
        <ele>602.4</ele>
        <time>2025-03-02T11:18:30Z</time>
      </trkpt>
      <trkpt lat="45.73157" lon="4.63102">
        <ele>602.2</ele>
        <time>2025-03-02T11:18:31Z</time>
      </trkpt>
      <trkpt lat="45.73158" lon="4.63108">
        <ele>602</ele>
        <time>2025-03-02T11:18:32Z</time>
      </trkpt>
      <trkpt lat="45.73158" lon="4.63116">
        <ele>601.8</ele>
        <time>2025-03-02T11:18:33Z</time>
      </trkpt>
      <trkpt lat="45.73158" lon="4.63123">
        <ele>601.8</ele>
        <time>2025-03-02T11:18:34Z</time>
      </trkpt>
      <trkpt lat="45.73158" lon="4.6313">
        <ele>601.6</ele>
        <time>2025-03-02T11:18:35Z</time>
      </trkpt>
      <trkpt lat="45.73158" lon="4.63138">
        <ele>601.6</ele>
        <time>2025-03-02T11:18:36Z</time>
      </trkpt>
      <trkpt lat="45.73159" lon="4.63145">
        <ele>601.4</ele>
        <time>2025-03-02T11:18:37Z</time>
      </trkpt>
      <trkpt lat="45.7316" lon="4.63154">
        <ele>600.8</ele>
        <time>2025-03-02T11:18:38Z</time>
      </trkpt>
      <trkpt lat="45.7316" lon="4.63162">
        <ele>600.8</ele>
        <time>2025-03-02T11:18:39Z</time>
      </trkpt>
      <trkpt lat="45.7316" lon="4.6317">
        <ele>600.2</ele>
        <time>2025-03-02T11:18:40Z</time>
      </trkpt>
      <trkpt lat="45.73158" lon="4.63179">
        <ele>600.2</ele>
        <time>2025-03-02T11:18:41Z</time>
      </trkpt>
      <trkpt lat="45.73156" lon="4.63187">
        <ele>600</ele>
        <time>2025-03-02T11:18:42Z</time>
      </trkpt>
      <trkpt lat="45.73156" lon="4.63194">
        <ele>600</ele>
        <time>2025-03-02T11:18:43Z</time>
      </trkpt>
      <trkpt lat="45.73156" lon="4.63202">
        <ele>600</ele>
        <time>2025-03-02T11:18:44Z</time>
      </trkpt>
      <trkpt lat="45.73156" lon="4.6321">
        <ele>600</ele>
        <time>2025-03-02T11:18:45Z</time>
      </trkpt>
      <trkpt lat="45.73155" lon="4.63218">
        <ele>600</ele>
        <time>2025-03-02T11:18:46Z</time>
      </trkpt>
      <trkpt lat="45.73153" lon="4.63225">
        <ele>599.8</ele>
        <time>2025-03-02T11:18:47Z</time>
      </trkpt>
      <trkpt lat="45.73153" lon="4.63233">
        <ele>599.8</ele>
        <time>2025-03-02T11:18:48Z</time>
      </trkpt>
      <trkpt lat="45.73152" lon="4.63242">
        <ele>599.8</ele>
        <time>2025-03-02T11:18:49Z</time>
      </trkpt>
      <trkpt lat="45.73152" lon="4.6325">
        <ele>599.8</ele>
        <time>2025-03-02T11:18:50Z</time>
      </trkpt>
      <trkpt lat="45.7315" lon="4.63259">
        <ele>599.8</ele>
        <time>2025-03-02T11:18:51Z</time>
      </trkpt>
      <trkpt lat="45.73146" lon="4.63267">
        <ele>599.6</ele>
        <time>2025-03-02T11:18:52Z</time>
      </trkpt>
      <trkpt lat="45.73144" lon="4.63275">
        <ele>599.6</ele>
        <time>2025-03-02T11:18:53Z</time>
      </trkpt>
      <trkpt lat="45.73144" lon="4.63283">
        <ele>599.4</ele>
        <time>2025-03-02T11:18:54Z</time>
      </trkpt>
      <trkpt lat="45.73144" lon="4.63291">
        <ele>599.4</ele>
        <time>2025-03-02T11:18:55Z</time>
      </trkpt>
      <trkpt lat="45.73143" lon="4.63298">
        <ele>599.6</ele>
        <time>2025-03-02T11:18:56Z</time>
      </trkpt>
      <trkpt lat="45.73142" lon="4.63305">
        <ele>599.6</ele>
        <time>2025-03-02T11:18:57Z</time>
      </trkpt>
      <trkpt lat="45.73142" lon="4.63312">
        <ele>599.8</ele>
        <time>2025-03-02T11:18:58Z</time>
      </trkpt>
      <trkpt lat="45.73142" lon="4.63319">
        <ele>600</ele>
        <time>2025-03-02T11:18:59Z</time>
      </trkpt>
      <trkpt lat="45.73142" lon="4.63327">
        <ele>600.2</ele>
        <time>2025-03-02T11:19:00Z</time>
      </trkpt>
      <trkpt lat="45.73141" lon="4.63334">
        <ele>600.4</ele>
        <time>2025-03-02T11:19:01Z</time>
      </trkpt>
      <trkpt lat="45.73141" lon="4.63342">
        <ele>600.4</ele>
        <time>2025-03-02T11:19:02Z</time>
      </trkpt>
      <trkpt lat="45.73141" lon="4.63349">
        <ele>600.6</ele>
        <time>2025-03-02T11:19:03Z</time>
      </trkpt>
      <trkpt lat="45.73141" lon="4.63357">
        <ele>600.6</ele>
        <time>2025-03-02T11:19:04Z</time>
      </trkpt>
      <trkpt lat="45.73141" lon="4.63364">
        <ele>600.6</ele>
        <time>2025-03-02T11:19:05Z</time>
      </trkpt>
      <trkpt lat="45.73141" lon="4.63372">
        <ele>600.6</ele>
        <time>2025-03-02T11:19:06Z</time>
      </trkpt>
      <trkpt lat="45.73139" lon="4.6338">
        <ele>600.6</ele>
        <time>2025-03-02T11:19:07Z</time>
      </trkpt>
      <trkpt lat="45.73137" lon="4.63387">
        <ele>600.6</ele>
        <time>2025-03-02T11:19:08Z</time>
      </trkpt>
      <trkpt lat="45.73135" lon="4.63395">
        <ele>600.4</ele>
        <time>2025-03-02T11:19:09Z</time>
      </trkpt>
      <trkpt lat="45.73133" lon="4.63402">
        <ele>600.4</ele>
        <time>2025-03-02T11:19:10Z</time>
      </trkpt>
      <trkpt lat="45.73131" lon="4.63409">
        <ele>600.4</ele>
        <time>2025-03-02T11:19:11Z</time>
      </trkpt>
      <trkpt lat="45.73129" lon="4.63416">
        <ele>600.4</ele>
        <time>2025-03-02T11:19:12Z</time>
      </trkpt>
      <trkpt lat="45.73128" lon="4.63423">
        <ele>600.6</ele>
        <time>2025-03-02T11:19:13Z</time>
      </trkpt>
      <trkpt lat="45.73128" lon="4.6343">
        <ele>600.6</ele>
        <time>2025-03-02T11:19:14Z</time>
      </trkpt>
      <trkpt lat="45.73127" lon="4.63435">
        <ele>600.6</ele>
        <time>2025-03-02T11:19:15Z</time>
      </trkpt>
      <trkpt lat="45.73125" lon="4.63443">
        <ele>600.8</ele>
        <time>2025-03-02T11:19:16Z</time>
      </trkpt>
      <trkpt lat="45.73122" lon="4.6345">
        <ele>600.6</ele>
        <time>2025-03-02T11:19:17Z</time>
      </trkpt>
      <trkpt lat="45.73121" lon="4.63458">
        <ele>600.6</ele>
        <time>2025-03-02T11:19:18Z</time>
      </trkpt>
      <trkpt lat="45.73119" lon="4.63466">
        <ele>600.2</ele>
        <time>2025-03-02T11:19:19Z</time>
      </trkpt>
      <trkpt lat="45.73117" lon="4.63473">
        <ele>600</ele>
        <time>2025-03-02T11:19:20Z</time>
      </trkpt>
      <trkpt lat="45.73115" lon="4.63482">
        <ele>599.8</ele>
        <time>2025-03-02T11:19:21Z</time>
      </trkpt>
      <trkpt lat="45.73114" lon="4.63494">
        <ele>598.8</ele>
        <time>2025-03-02T11:19:22Z</time>
      </trkpt>
      <trkpt lat="45.73114" lon="4.63506">
        <ele>597.8</ele>
        <time>2025-03-02T11:19:23Z</time>
      </trkpt>
      <trkpt lat="45.73113" lon="4.63518">
        <ele>597</ele>
        <time>2025-03-02T11:19:24Z</time>
      </trkpt>
      <trkpt lat="45.73112" lon="4.63529">
        <ele>596</ele>
        <time>2025-03-02T11:19:25Z</time>
      </trkpt>
      <trkpt lat="45.7311" lon="4.63539">
        <ele>595</ele>
        <time>2025-03-02T11:19:26Z</time>
      </trkpt>
      <trkpt lat="45.73106" lon="4.63554">
        <ele>593.2</ele>
        <time>2025-03-02T11:19:27Z</time>
      </trkpt>
      <trkpt lat="45.73103" lon="4.63568">
        <ele>591.8</ele>
        <time>2025-03-02T11:19:28Z</time>
      </trkpt>
      <trkpt lat="45.73101" lon="4.63581">
        <ele>590.4</ele>
        <time>2025-03-02T11:19:29Z</time>
      </trkpt>
      <trkpt lat="45.73099" lon="4.63592">
        <ele>589.2</ele>
        <time>2025-03-02T11:19:30Z</time>
      </trkpt>
      <trkpt lat="45.73097" lon="4.63606">
        <ele>587.6</ele>
        <time>2025-03-02T11:19:31Z</time>
      </trkpt>
      <trkpt lat="45.73095" lon="4.63619">
        <ele>586.8</ele>
        <time>2025-03-02T11:19:32Z</time>
      </trkpt>
      <trkpt lat="45.73092" lon="4.63631">
        <ele>586.4</ele>
        <time>2025-03-02T11:19:33Z</time>
      </trkpt>
      <trkpt lat="45.7309" lon="4.63644">
        <ele>586.2</ele>
        <time>2025-03-02T11:19:34Z</time>
      </trkpt>
      <trkpt lat="45.73089" lon="4.63655">
        <ele>586</ele>
        <time>2025-03-02T11:19:35Z</time>
      </trkpt>
      <trkpt lat="45.73089" lon="4.63665">
        <ele>586</ele>
        <time>2025-03-02T11:19:36Z</time>
      </trkpt>
      <trkpt lat="45.7309" lon="4.63675">
        <ele>586</ele>
        <time>2025-03-02T11:19:37Z</time>
      </trkpt>
      <trkpt lat="45.73091" lon="4.63684">
        <ele>586.2</ele>
        <time>2025-03-02T11:19:38Z</time>
      </trkpt>
      <trkpt lat="45.73092" lon="4.63693">
        <ele>586.4</ele>
        <time>2025-03-02T11:19:39Z</time>
      </trkpt>
      <trkpt lat="45.73092" lon="4.63702">
        <ele>586.4</ele>
        <time>2025-03-02T11:19:40Z</time>
      </trkpt>
      <trkpt lat="45.73093" lon="4.63713">
        <ele>586.4</ele>
        <time>2025-03-02T11:19:41Z</time>
      </trkpt>
      <trkpt lat="45.73095" lon="4.63722">
        <ele>586.2</ele>
        <time>2025-03-02T11:19:42Z</time>
      </trkpt>
      <trkpt lat="45.73097" lon="4.6373">
        <ele>586</ele>
        <time>2025-03-02T11:19:43Z</time>
      </trkpt>
      <trkpt lat="45.73098" lon="4.63739">
        <ele>585.6</ele>
        <time>2025-03-02T11:19:44Z</time>
      </trkpt>
      <trkpt lat="45.73099" lon="4.63749">
        <ele>585.4</ele>
        <time>2025-03-02T11:19:45Z</time>
      </trkpt>
      <trkpt lat="45.731" lon="4.63759">
        <ele>585.2</ele>
        <time>2025-03-02T11:19:46Z</time>
      </trkpt>
      <trkpt lat="45.731" lon="4.6377">
        <ele>584.8</ele>
        <time>2025-03-02T11:19:47Z</time>
      </trkpt>
      <trkpt lat="45.73101" lon="4.63781">
        <ele>584</ele>
        <time>2025-03-02T11:19:48Z</time>
      </trkpt>
      <trkpt lat="45.73102" lon="4.63792">
        <ele>582.4</ele>
        <time>2025-03-02T11:19:49Z</time>
      </trkpt>
      <trkpt lat="45.73102" lon="4.63803">
        <ele>581.6</ele>
        <time>2025-03-02T11:19:50Z</time>
      </trkpt>
      <trkpt lat="45.73103" lon="4.63814">
        <ele>580.4</ele>
        <time>2025-03-02T11:19:51Z</time>
      </trkpt>
      <trkpt lat="45.73103" lon="4.63826">
        <ele>579.6</ele>
        <time>2025-03-02T11:19:52Z</time>
      </trkpt>
      <trkpt lat="45.73103" lon="4.63837">
        <ele>579.2</ele>
        <time>2025-03-02T11:19:53Z</time>
      </trkpt>
      <trkpt lat="45.73103" lon="4.63849">
        <ele>578.8</ele>
        <time>2025-03-02T11:19:54Z</time>
      </trkpt>
      <trkpt lat="45.731" lon="4.63861">
        <ele>577.8</ele>
        <time>2025-03-02T11:19:55Z</time>
      </trkpt>
      <trkpt lat="45.73097" lon="4.63872">
        <ele>577.2</ele>
        <time>2025-03-02T11:19:56Z</time>
      </trkpt>
      <trkpt lat="45.73095" lon="4.63882">
        <ele>576</ele>
        <time>2025-03-02T11:19:57Z</time>
      </trkpt>
      <trkpt lat="45.73092" lon="4.63893">
        <ele>575.4</ele>
        <time>2025-03-02T11:19:58Z</time>
      </trkpt>
      <trkpt lat="45.73089" lon="4.63901">
        <ele>574.8</ele>
        <time>2025-03-02T11:19:59Z</time>
      </trkpt>
      <trkpt lat="45.73085" lon="4.63914">
        <ele>574.2</ele>
        <time>2025-03-02T11:20:00Z</time>
      </trkpt>
      <trkpt lat="45.73081" lon="4.63925">
        <ele>573.6</ele>
        <time>2025-03-02T11:20:01Z</time>
      </trkpt>
      <trkpt lat="45.73077" lon="4.63936">
        <ele>572.2</ele>
        <time>2025-03-02T11:20:02Z</time>
      </trkpt>
      <trkpt lat="45.73073" lon="4.63947">
        <ele>571.2</ele>
        <time>2025-03-02T11:20:03Z</time>
      </trkpt>
      <trkpt lat="45.73069" lon="4.63959">
        <ele>571</ele>
        <time>2025-03-02T11:20:04Z</time>
      </trkpt>
      <trkpt lat="45.73066" lon="4.63971">
        <ele>570</ele>
        <time>2025-03-02T11:20:05Z</time>
      </trkpt>
      <trkpt lat="45.73064" lon="4.63982">
        <ele>569</ele>
        <time>2025-03-02T11:20:06Z</time>
      </trkpt>
      <trkpt lat="45.73061" lon="4.63993">
        <ele>568.4</ele>
        <time>2025-03-02T11:20:07Z</time>
      </trkpt>
      <trkpt lat="45.73059" lon="4.64002">
        <ele>568.2</ele>
        <time>2025-03-02T11:20:08Z</time>
      </trkpt>
      <trkpt lat="45.73057" lon="4.64011">
        <ele>568</ele>
        <time>2025-03-02T11:20:09Z</time>
      </trkpt>
      <trkpt lat="45.73054" lon="4.64019">
        <ele>567.8</ele>
        <time>2025-03-02T11:20:10Z</time>
      </trkpt>
      <trkpt lat="45.73052" lon="4.64028">
        <ele>567.6</ele>
        <time>2025-03-02T11:20:11Z</time>
      </trkpt>
      <trkpt lat="45.7305" lon="4.64037">
        <ele>567</ele>
        <time>2025-03-02T11:20:12Z</time>
      </trkpt>
      <trkpt lat="45.73046" lon="4.64046">
        <ele>566</ele>
        <time>2025-03-02T11:20:13Z</time>
      </trkpt>
      <trkpt lat="45.73043" lon="4.64055">
        <ele>565.4</ele>
        <time>2025-03-02T11:20:14Z</time>
      </trkpt>
      <trkpt lat="45.73041" lon="4.64062">
        <ele>564</ele>
        <time>2025-03-02T11:20:15Z</time>
      </trkpt>
      <trkpt lat="45.7304" lon="4.64069">
        <ele>563.8</ele>
        <time>2025-03-02T11:20:16Z</time>
      </trkpt>
      <trkpt lat="45.73038" lon="4.64075">
        <ele>563.4</ele>
        <time>2025-03-02T11:20:17Z</time>
      </trkpt>
      <trkpt lat="45.73037" lon="4.64081">
        <ele>562.8</ele>
        <time>2025-03-02T11:20:18Z</time>
      </trkpt>
      <trkpt lat="45.73035" lon="4.64086">
        <ele>562.6</ele>
        <time>2025-03-02T11:20:19Z</time>
      </trkpt>
      <trkpt lat="45.73034" lon="4.64091">
        <ele>562.2</ele>
        <time>2025-03-02T11:20:20Z</time>
      </trkpt>
      <trkpt lat="45.73032" lon="4.64097">
        <ele>561.8</ele>
        <time>2025-03-02T11:20:21Z</time>
      </trkpt>
      <trkpt lat="45.7303" lon="4.64103">
        <ele>561.4</ele>
        <time>2025-03-02T11:20:22Z</time>
      </trkpt>
      <trkpt lat="45.73027" lon="4.64111">
        <ele>560.6</ele>
        <time>2025-03-02T11:20:23Z</time>
      </trkpt>
      <trkpt lat="45.73025" lon="4.64118">
        <ele>560</ele>
        <time>2025-03-02T11:20:24Z</time>
      </trkpt>
      <trkpt lat="45.73022" lon="4.64126">
        <ele>558.6</ele>
        <time>2025-03-02T11:20:25Z</time>
      </trkpt>
      <trkpt lat="45.73018" lon="4.64135">
        <ele>557.4</ele>
        <time>2025-03-02T11:20:26Z</time>
      </trkpt>
      <trkpt lat="45.73016" lon="4.64145">
        <ele>555</ele>
        <time>2025-03-02T11:20:27Z</time>
      </trkpt>
      <trkpt lat="45.73014" lon="4.64153">
        <ele>554.2</ele>
        <time>2025-03-02T11:20:28Z</time>
      </trkpt>
      <trkpt lat="45.73013" lon="4.64161">
        <ele>552.2</ele>
        <time>2025-03-02T11:20:29Z</time>
      </trkpt>
      <trkpt lat="45.73011" lon="4.64168">
        <ele>551.6</ele>
        <time>2025-03-02T11:20:30Z</time>
      </trkpt>
      <trkpt lat="45.73009" lon="4.64175">
        <ele>551.2</ele>
        <time>2025-03-02T11:20:31Z</time>
      </trkpt>
      <trkpt lat="45.73007" lon="4.64182">
        <ele>550.6</ele>
        <time>2025-03-02T11:20:32Z</time>
      </trkpt>
      <trkpt lat="45.73006" lon="4.64189">
        <ele>550.2</ele>
        <time>2025-03-02T11:20:33Z</time>
      </trkpt>
      <trkpt lat="45.73005" lon="4.64195">
        <ele>550</ele>
        <time>2025-03-02T11:20:34Z</time>
      </trkpt>
      <trkpt lat="45.73004" lon="4.64202">
        <ele>549.2</ele>
        <time>2025-03-02T11:20:35Z</time>
      </trkpt>
      <trkpt lat="45.73002" lon="4.64209">
        <ele>548.6</ele>
        <time>2025-03-02T11:20:36Z</time>
      </trkpt>
      <trkpt lat="45.73002" lon="4.64215">
        <ele>547.6</ele>
        <time>2025-03-02T11:20:37Z</time>
      </trkpt>
      <trkpt lat="45.73001" lon="4.64219">
        <ele>546.6</ele>
        <time>2025-03-02T11:20:38Z</time>
      </trkpt>
      <trkpt lat="45.73001" lon="4.64223">
        <ele>546.2</ele>
        <time>2025-03-02T11:20:39Z</time>
      </trkpt>
      <trkpt lat="45.73002" lon="4.64228">
        <ele>546</ele>
        <time>2025-03-02T11:20:40Z</time>
      </trkpt>
      <trkpt lat="45.73002" lon="4.64234">
        <ele>546</ele>
        <time>2025-03-02T11:20:41Z</time>
      </trkpt>
      <trkpt lat="45.73002" lon="4.64239">
        <ele>545.8</ele>
        <time>2025-03-02T11:20:42Z</time>
      </trkpt>
      <trkpt lat="45.73002" lon="4.64247">
        <ele>544.6</ele>
        <time>2025-03-02T11:20:43Z</time>
      </trkpt>
      <trkpt lat="45.73004" lon="4.64253">
        <ele>543.8</ele>
        <time>2025-03-02T11:20:44Z</time>
      </trkpt>
      <trkpt lat="45.73006" lon="4.64259">
        <ele>543</ele>
        <time>2025-03-02T11:20:45Z</time>
      </trkpt>
      <trkpt lat="45.73007" lon="4.64266">
        <ele>542</ele>
        <time>2025-03-02T11:20:46Z</time>
      </trkpt>
      <trkpt lat="45.73009" lon="4.64272">
        <ele>541.2</ele>
        <time>2025-03-02T11:20:47Z</time>
      </trkpt>
      <trkpt lat="45.7301" lon="4.64277">
        <ele>540</ele>
        <time>2025-03-02T11:20:48Z</time>
      </trkpt>
      <trkpt lat="45.73012" lon="4.64282">
        <ele>539.2</ele>
        <time>2025-03-02T11:20:49Z</time>
      </trkpt>
      <trkpt lat="45.73013" lon="4.64286">
        <ele>538.6</ele>
        <time>2025-03-02T11:20:50Z</time>
      </trkpt>
      <trkpt lat="45.73015" lon="4.64291">
        <ele>538.2</ele>
        <time>2025-03-02T11:20:51Z</time>
      </trkpt>
      <trkpt lat="45.73017" lon="4.64296">
        <ele>538</ele>
        <time>2025-03-02T11:20:52Z</time>
      </trkpt>
      <trkpt lat="45.73019" lon="4.64301">
        <ele>537.2</ele>
        <time>2025-03-02T11:20:53Z</time>
      </trkpt>
      <trkpt lat="45.73022" lon="4.64306">
        <ele>536.8</ele>
        <time>2025-03-02T11:20:54Z</time>
      </trkpt>
      <trkpt lat="45.73025" lon="4.6431">
        <ele>536.2</ele>
        <time>2025-03-02T11:20:55Z</time>
      </trkpt>
      <trkpt lat="45.73027" lon="4.64315">
        <ele>536</ele>
        <time>2025-03-02T11:20:56Z</time>
      </trkpt>
      <trkpt lat="45.7303" lon="4.6432">
        <ele>535.8</ele>
        <time>2025-03-02T11:20:57Z</time>
      </trkpt>
      <trkpt lat="45.73032" lon="4.64326">
        <ele>535.6</ele>
        <time>2025-03-02T11:20:58Z</time>
      </trkpt>
      <trkpt lat="45.73035" lon="4.64334">
        <ele>535</ele>
        <time>2025-03-02T11:20:59Z</time>
      </trkpt>
      <trkpt lat="45.73038" lon="4.64343">
        <ele>534.4</ele>
        <time>2025-03-02T11:21:00Z</time>
      </trkpt>
      <trkpt lat="45.73042" lon="4.64352">
        <ele>533.2</ele>
        <time>2025-03-02T11:21:01Z</time>
      </trkpt>
      <trkpt lat="45.73045" lon="4.64359">
        <ele>532.2</ele>
        <time>2025-03-02T11:21:02Z</time>
      </trkpt>
      <trkpt lat="45.73048" lon="4.64366">
        <ele>531</ele>
        <time>2025-03-02T11:21:03Z</time>
      </trkpt>
      <trkpt lat="45.7305" lon="4.64371">
        <ele>530.4</ele>
        <time>2025-03-02T11:21:04Z</time>
      </trkpt>
      <trkpt lat="45.7305" lon="4.64374">
        <ele>529.6</ele>
        <time>2025-03-02T11:21:05Z</time>
      </trkpt>
      <trkpt lat="45.73051" lon="4.64379">
        <ele>529.4</ele>
        <time>2025-03-02T11:21:06Z</time>
      </trkpt>
      <trkpt lat="45.73052" lon="4.64384">
        <ele>529.2</ele>
        <time>2025-03-02T11:21:07Z</time>
      </trkpt>
      <trkpt lat="45.73053" lon="4.6439">
        <ele>529</ele>
        <time>2025-03-02T11:21:08Z</time>
      </trkpt>
      <trkpt lat="45.73055" lon="4.64396">
        <ele>528.6</ele>
        <time>2025-03-02T11:21:09Z</time>
      </trkpt>
      <trkpt lat="45.73057" lon="4.64402">
        <ele>528</ele>
        <time>2025-03-02T11:21:10Z</time>
      </trkpt>
      <trkpt lat="45.73059" lon="4.64408">
        <ele>527.2</ele>
        <time>2025-03-02T11:21:11Z</time>
      </trkpt>
      <trkpt lat="45.7306" lon="4.64414">
        <ele>525.6</ele>
        <time>2025-03-02T11:21:12Z</time>
      </trkpt>
      <trkpt lat="45.73062" lon="4.6442">
        <ele>524.6</ele>
        <time>2025-03-02T11:21:13Z</time>
      </trkpt>
      <trkpt lat="45.73065" lon="4.64425">
        <ele>523.8</ele>
        <time>2025-03-02T11:21:14Z</time>
      </trkpt>
      <trkpt lat="45.73067" lon="4.6443">
        <ele>522.8</ele>
        <time>2025-03-02T11:21:15Z</time>
      </trkpt>
      <trkpt lat="45.7307" lon="4.64436">
        <ele>522</ele>
        <time>2025-03-02T11:21:16Z</time>
      </trkpt>
      <trkpt lat="45.7307" lon="4.64443">
        <ele>521.4</ele>
        <time>2025-03-02T11:21:17Z</time>
      </trkpt>
      <trkpt lat="45.7307" lon="4.6445">
        <ele>520.6</ele>
        <time>2025-03-02T11:21:18Z</time>
      </trkpt>
      <trkpt lat="45.7307" lon="4.64458">
        <ele>520</ele>
        <time>2025-03-02T11:21:19Z</time>
      </trkpt>
      <trkpt lat="45.73069" lon="4.64465">
        <ele>519.2</ele>
        <time>2025-03-02T11:21:20Z</time>
      </trkpt>
      <trkpt lat="45.73068" lon="4.64471">
        <ele>518</ele>
        <time>2025-03-02T11:21:21Z</time>
      </trkpt>
      <trkpt lat="45.73068" lon="4.64477">
        <ele>516.8</ele>
        <time>2025-03-02T11:21:22Z</time>
      </trkpt>
      <trkpt lat="45.73068" lon="4.64482">
        <ele>515.8</ele>
        <time>2025-03-02T11:21:23Z</time>
      </trkpt>
      <trkpt lat="45.73068" lon="4.64487">
        <ele>515.4</ele>
        <time>2025-03-02T11:21:24Z</time>
      </trkpt>
      <trkpt lat="45.73068" lon="4.64492">
        <ele>514.6</ele>
        <time>2025-03-02T11:21:25Z</time>
      </trkpt>
      <trkpt lat="45.73067" lon="4.64498">
        <ele>514.2</ele>
        <time>2025-03-02T11:21:26Z</time>
      </trkpt>
      <trkpt lat="45.73069" lon="4.64503">
        <ele>513.2</ele>
        <time>2025-03-02T11:21:27Z</time>
      </trkpt>
      <trkpt lat="45.7307" lon="4.64509">
        <ele>512.4</ele>
        <time>2025-03-02T11:21:28Z</time>
      </trkpt>
      <trkpt lat="45.73071" lon="4.64514">
        <ele>511.4</ele>
        <time>2025-03-02T11:21:29Z</time>
      </trkpt>
      <trkpt lat="45.73071" lon="4.6452">
        <ele>510.4</ele>
        <time>2025-03-02T11:21:30Z</time>
      </trkpt>
      <trkpt lat="45.73071" lon="4.64526">
        <ele>509.6</ele>
        <time>2025-03-02T11:21:31Z</time>
      </trkpt>
      <trkpt lat="45.73071" lon="4.64532">
        <ele>508.8</ele>
        <time>2025-03-02T11:21:32Z</time>
      </trkpt>
      <trkpt lat="45.73072" lon="4.64537">
        <ele>508</ele>
        <time>2025-03-02T11:21:33Z</time>
      </trkpt>
      <trkpt lat="45.73073" lon="4.64542">
        <ele>506.6</ele>
        <time>2025-03-02T11:21:34Z</time>
      </trkpt>
      <trkpt lat="45.73075" lon="4.64547">
        <ele>505.8</ele>
        <time>2025-03-02T11:21:35Z</time>
      </trkpt>
      <trkpt lat="45.73077" lon="4.64551">
        <ele>505.2</ele>
        <time>2025-03-02T11:21:36Z</time>
      </trkpt>
      <trkpt lat="45.7308" lon="4.64555">
        <ele>504.2</ele>
        <time>2025-03-02T11:21:37Z</time>
      </trkpt>
      <trkpt lat="45.73084" lon="4.64558">
        <ele>503.2</ele>
        <time>2025-03-02T11:21:38Z</time>
      </trkpt>
      <trkpt lat="45.73088" lon="4.64562">
        <ele>502.2</ele>
        <time>2025-03-02T11:21:39Z</time>
      </trkpt>
      <trkpt lat="45.73091" lon="4.64565">
        <ele>501</ele>
        <time>2025-03-02T11:21:40Z</time>
      </trkpt>
      <trkpt lat="45.73092" lon="4.64569">
        <ele>500.2</ele>
        <time>2025-03-02T11:21:41Z</time>
      </trkpt>
      <trkpt lat="45.73092" lon="4.64573">
        <ele>499.4</ele>
        <time>2025-03-02T11:21:42Z</time>
      </trkpt>
      <trkpt lat="45.7309" lon="4.64576">
        <ele>499</ele>
        <time>2025-03-02T11:21:43Z</time>
      </trkpt>
      <trkpt lat="45.73087" lon="4.6458">
        <ele>498</ele>
        <time>2025-03-02T11:21:44Z</time>
      </trkpt>
      <trkpt lat="45.73083" lon="4.64583">
        <ele>497.2</ele>
        <time>2025-03-02T11:21:45Z</time>
      </trkpt>
      <trkpt lat="45.7308" lon="4.64587">
        <ele>496.4</ele>
        <time>2025-03-02T11:21:46Z</time>
      </trkpt>
      <trkpt lat="45.73078" lon="4.64592">
        <ele>495</ele>
        <time>2025-03-02T11:21:47Z</time>
      </trkpt>
      <trkpt lat="45.73078" lon="4.64598">
        <ele>493.8</ele>
        <time>2025-03-02T11:21:48Z</time>
      </trkpt>
      <trkpt lat="45.73079" lon="4.64603">
        <ele>492.6</ele>
        <time>2025-03-02T11:21:49Z</time>
      </trkpt>
      <trkpt lat="45.73081" lon="4.64609">
        <ele>491.4</ele>
        <time>2025-03-02T11:21:50Z</time>
      </trkpt>
      <trkpt lat="45.73085" lon="4.64614">
        <ele>490.2</ele>
        <time>2025-03-02T11:21:51Z</time>
      </trkpt>
      <trkpt lat="45.73089" lon="4.64618">
        <ele>489</ele>
        <time>2025-03-02T11:21:52Z</time>
      </trkpt>
      <trkpt lat="45.73093" lon="4.64623">
        <ele>487.8</ele>
        <time>2025-03-02T11:21:53Z</time>
      </trkpt>
      <trkpt lat="45.73095" lon="4.64627">
        <ele>486.6</ele>
        <time>2025-03-02T11:21:54Z</time>
      </trkpt>
      <trkpt lat="45.73096" lon="4.64632">
        <ele>485.6</ele>
        <time>2025-03-02T11:21:55Z</time>
      </trkpt>
      <trkpt lat="45.73096" lon="4.64637">
        <ele>484.6</ele>
        <time>2025-03-02T11:21:56Z</time>
      </trkpt>
      <trkpt lat="45.73095" lon="4.64641">
        <ele>483.8</ele>
        <time>2025-03-02T11:21:57Z</time>
      </trkpt>
      <trkpt lat="45.73092" lon="4.64645">
        <ele>483.6</ele>
        <time>2025-03-02T11:21:58Z</time>
      </trkpt>
      <trkpt lat="45.73088" lon="4.64648">
        <ele>482.6</ele>
        <time>2025-03-02T11:21:59Z</time>
      </trkpt>
      <trkpt lat="45.73084" lon="4.64651">
        <ele>482</ele>
        <time>2025-03-02T11:22:00Z</time>
      </trkpt>
      <trkpt lat="45.73078" lon="4.64654">
        <ele>481.4</ele>
        <time>2025-03-02T11:22:01Z</time>
      </trkpt>
      <trkpt lat="45.73073" lon="4.64656">
        <ele>481</ele>
        <time>2025-03-02T11:22:02Z</time>
      </trkpt>
      <trkpt lat="45.73067" lon="4.64658">
        <ele>480</ele>
        <time>2025-03-02T11:22:03Z</time>
      </trkpt>
      <trkpt lat="45.7306" lon="4.6466">
        <ele>478.8</ele>
        <time>2025-03-02T11:22:04Z</time>
      </trkpt>
      <trkpt lat="45.73053" lon="4.64663">
        <ele>478.4</ele>
        <time>2025-03-02T11:22:05Z</time>
      </trkpt>
      <trkpt lat="45.73047" lon="4.64665">
        <ele>477.4</ele>
        <time>2025-03-02T11:22:06Z</time>
      </trkpt>
      <trkpt lat="45.73041" lon="4.64668">
        <ele>475.8</ele>
        <time>2025-03-02T11:22:07Z</time>
      </trkpt>
      <trkpt lat="45.73037" lon="4.64669">
        <ele>475.2</ele>
        <time>2025-03-02T11:22:08Z</time>
      </trkpt>
      <trkpt lat="45.73031" lon="4.64673">
        <ele>475</ele>
        <time>2025-03-02T11:22:09Z</time>
      </trkpt>
      <trkpt lat="45.73027" lon="4.64676">
        <ele>474.8</ele>
        <time>2025-03-02T11:22:10Z</time>
      </trkpt>
      <trkpt lat="45.73023" lon="4.64682">
        <ele>474.4</ele>
        <time>2025-03-02T11:22:11Z</time>
      </trkpt>
      <trkpt lat="45.73017" lon="4.64688">
        <ele>474.2</ele>
        <time>2025-03-02T11:22:12Z</time>
      </trkpt>
      <trkpt lat="45.73012" lon="4.64693">
        <ele>473.8</ele>
        <time>2025-03-02T11:22:13Z</time>
      </trkpt>
      <trkpt lat="45.73006" lon="4.64699">
        <ele>472.2</ele>
        <time>2025-03-02T11:22:14Z</time>
      </trkpt>
      <trkpt lat="45.73002" lon="4.64703">
        <ele>470.6</ele>
        <time>2025-03-02T11:22:15Z</time>
      </trkpt>
      <trkpt lat="45.72997" lon="4.64707">
        <ele>469.8</ele>
        <time>2025-03-02T11:22:16Z</time>
      </trkpt>
      <trkpt lat="45.72993" lon="4.6471">
        <ele>469.2</ele>
        <time>2025-03-02T11:22:17Z</time>
      </trkpt>
      <trkpt lat="45.72989" lon="4.64712">
        <ele>469</ele>
        <time>2025-03-02T11:22:18Z</time>
      </trkpt>
      <trkpt lat="45.72986" lon="4.64714">
        <ele>468.8</ele>
        <time>2025-03-02T11:22:19Z</time>
      </trkpt>
      <trkpt lat="45.72984" lon="4.64716">
        <ele>468.4</ele>
        <time>2025-03-02T11:22:20Z</time>
      </trkpt>
      <trkpt lat="45.72984" lon="4.64718">
        <ele>468</ele>
        <time>2025-03-02T11:22:21Z</time>
      </trkpt>
      <trkpt lat="45.72984" lon="4.64719">
        <ele>467.8</ele>
        <time>2025-03-02T11:22:22Z</time>
      </trkpt>
      <trkpt lat="45.72984" lon="4.64719">
        <ele>467.6</ele>
        <time>2025-03-02T11:22:23Z</time>
      </trkpt>
      <trkpt lat="45.72984" lon="4.64719">
        <ele>467.2</ele>
        <time>2025-03-02T11:22:24Z</time>
      </trkpt>
      <trkpt lat="45.72984" lon="4.64719">
        <ele>467.2</ele>
        <time>2025-03-02T11:22:25Z</time>
      </trkpt>
      <trkpt lat="45.72984" lon="4.64719">
        <ele>467</ele>
        <time>2025-03-02T11:22:26Z</time>
      </trkpt>
      <trkpt lat="45.72984" lon="4.6472">
        <ele>467</ele>
        <time>2025-03-02T11:22:27Z</time>
      </trkpt>
      <trkpt lat="45.72984" lon="4.64721">
        <ele>466.8</ele>
        <time>2025-03-02T11:22:28Z</time>
      </trkpt>
      <trkpt lat="45.72984" lon="4.64723">
        <ele>466.8</ele>
        <time>2025-03-02T11:22:29Z</time>
      </trkpt>
      <trkpt lat="45.72984" lon="4.64726">
        <ele>466.8</ele>
        <time>2025-03-02T11:22:30Z</time>
      </trkpt>
      <trkpt lat="45.72985" lon="4.6473">
        <ele>466.6</ele>
        <time>2025-03-02T11:22:31Z</time>
      </trkpt>
      <trkpt lat="45.72985" lon="4.64734">
        <ele>466.2</ele>
        <time>2025-03-02T11:22:32Z</time>
      </trkpt>
      <trkpt lat="45.72985" lon="4.6474">
        <ele>465.4</ele>
        <time>2025-03-02T11:22:33Z</time>
      </trkpt>
      <trkpt lat="45.72985" lon="4.64747">
        <ele>465</ele>
        <time>2025-03-02T11:22:34Z</time>
      </trkpt>
      <trkpt lat="45.72986" lon="4.64754">
        <ele>464.2</ele>
        <time>2025-03-02T11:22:35Z</time>
      </trkpt>
      <trkpt lat="45.72985" lon="4.64761">
        <ele>462.8</ele>
        <time>2025-03-02T11:22:36Z</time>
      </trkpt>
      <trkpt lat="45.72982" lon="4.64767">
        <ele>461.6</ele>
        <time>2025-03-02T11:22:37Z</time>
      </trkpt>
      <trkpt lat="45.72977" lon="4.64772">
        <ele>460.2</ele>
        <time>2025-03-02T11:22:38Z</time>
      </trkpt>
      <trkpt lat="45.7297" lon="4.64776">
        <ele>459.2</ele>
        <time>2025-03-02T11:22:39Z</time>
      </trkpt>
      <trkpt lat="45.72962" lon="4.64781">
        <ele>457.4</ele>
        <time>2025-03-02T11:22:40Z</time>
      </trkpt>
      <trkpt lat="45.72952" lon="4.64786">
        <ele>454.8</ele>
        <time>2025-03-02T11:22:41Z</time>
      </trkpt>
      <trkpt lat="45.72943" lon="4.64791">
        <ele>452.8</ele>
        <time>2025-03-02T11:22:42Z</time>
      </trkpt>
      <trkpt lat="45.72934" lon="4.64795">
        <ele>451.2</ele>
        <time>2025-03-02T11:22:43Z</time>
      </trkpt>
      <trkpt lat="45.72926" lon="4.64799">
        <ele>449.2</ele>
        <time>2025-03-02T11:22:44Z</time>
      </trkpt>
      <trkpt lat="45.72921" lon="4.64803">
        <ele>448.8</ele>
        <time>2025-03-02T11:22:45Z</time>
      </trkpt>
      <trkpt lat="45.72918" lon="4.64807">
        <ele>448.8</ele>
        <time>2025-03-02T11:22:46Z</time>
      </trkpt>
      <trkpt lat="45.72917" lon="4.64813">
        <ele>448.6</ele>
        <time>2025-03-02T11:22:47Z</time>
      </trkpt>
      <trkpt lat="45.72916" lon="4.6482">
        <ele>448.4</ele>
        <time>2025-03-02T11:22:48Z</time>
      </trkpt>
      <trkpt lat="45.72916" lon="4.64827">
        <ele>448.4</ele>
        <time>2025-03-02T11:22:49Z</time>
      </trkpt>
      <trkpt lat="45.72914" lon="4.64833">
        <ele>447.8</ele>
        <time>2025-03-02T11:22:50Z</time>
      </trkpt>
      <trkpt lat="45.72911" lon="4.64837">
        <ele>447.6</ele>
        <time>2025-03-02T11:22:51Z</time>
      </trkpt>
      <trkpt lat="45.72906" lon="4.64843">
        <ele>447.4</ele>
        <time>2025-03-02T11:22:52Z</time>
      </trkpt>
      <trkpt lat="45.72902" lon="4.64849">
        <ele>446.6</ele>
        <time>2025-03-02T11:22:53Z</time>
      </trkpt>
      <trkpt lat="45.72899" lon="4.64854">
        <ele>446</ele>
        <time>2025-03-02T11:22:54Z</time>
      </trkpt>
      <trkpt lat="45.72895" lon="4.6486">
        <ele>445.2</ele>
        <time>2025-03-02T11:22:55Z</time>
      </trkpt>
      <trkpt lat="45.72892" lon="4.64865">
        <ele>444.4</ele>
        <time>2025-03-02T11:22:56Z</time>
      </trkpt>
      <trkpt lat="45.72889" lon="4.64869">
        <ele>444.2</ele>
        <time>2025-03-02T11:22:57Z</time>
      </trkpt>
      <trkpt lat="45.72887" lon="4.64873">
        <ele>444.2</ele>
        <time>2025-03-02T11:22:58Z</time>
      </trkpt>
      <trkpt lat="45.72885" lon="4.64877">
        <ele>444</ele>
        <time>2025-03-02T11:22:59Z</time>
      </trkpt>
      <trkpt lat="45.72883" lon="4.64882">
        <ele>444</ele>
        <time>2025-03-02T11:23:00Z</time>
      </trkpt>
      <trkpt lat="45.72881" lon="4.64887">
        <ele>443.8</ele>
        <time>2025-03-02T11:23:01Z</time>
      </trkpt>
      <trkpt lat="45.72879" lon="4.64893">
        <ele>443.4</ele>
        <time>2025-03-02T11:23:02Z</time>
      </trkpt>
      <trkpt lat="45.72878" lon="4.64901">
        <ele>443</ele>
        <time>2025-03-02T11:23:03Z</time>
      </trkpt>
      <trkpt lat="45.72875" lon="4.64908">
        <ele>442.6</ele>
        <time>2025-03-02T11:23:04Z</time>
      </trkpt>
      <trkpt lat="45.72872" lon="4.64915">
        <ele>441.8</ele>
        <time>2025-03-02T11:23:05Z</time>
      </trkpt>
      <trkpt lat="45.72869" lon="4.64923">
        <ele>441.2</ele>
        <time>2025-03-02T11:23:06Z</time>
      </trkpt>
      <trkpt lat="45.72866" lon="4.64931">
        <ele>440.8</ele>
        <time>2025-03-02T11:23:07Z</time>
      </trkpt>
      <trkpt lat="45.72863" lon="4.64939">
        <ele>440.4</ele>
        <time>2025-03-02T11:23:08Z</time>
      </trkpt>
      <trkpt lat="45.7286" lon="4.64945">
        <ele>440.4</ele>
        <time>2025-03-02T11:23:09Z</time>
      </trkpt>
      <trkpt lat="45.72856" lon="4.64951">
        <ele>440.2</ele>
        <time>2025-03-02T11:23:10Z</time>
      </trkpt>
      <trkpt lat="45.72853" lon="4.64958">
        <ele>440</ele>
        <time>2025-03-02T11:23:11Z</time>
      </trkpt>
      <trkpt lat="45.7285" lon="4.64964">
        <ele>440</ele>
        <time>2025-03-02T11:23:12Z</time>
      </trkpt>
      <trkpt lat="45.72848" lon="4.64969">
        <ele>440</ele>
        <time>2025-03-02T11:23:13Z</time>
      </trkpt>
      <trkpt lat="45.72845" lon="4.64976">
        <ele>440</ele>
        <time>2025-03-02T11:23:14Z</time>
      </trkpt>
      <trkpt lat="45.72843" lon="4.64982">
        <ele>440.2</ele>
        <time>2025-03-02T11:23:15Z</time>
      </trkpt>
      <trkpt lat="45.72841" lon="4.64989">
        <ele>440.2</ele>
        <time>2025-03-02T11:23:16Z</time>
      </trkpt>
      <trkpt lat="45.7284" lon="4.64996">
        <ele>440</ele>
        <time>2025-03-02T11:23:17Z</time>
      </trkpt>
      <trkpt lat="45.72838" lon="4.65003">
        <ele>440</ele>
        <time>2025-03-02T11:23:18Z</time>
      </trkpt>
      <trkpt lat="45.72838" lon="4.65011">
        <ele>440</ele>
        <time>2025-03-02T11:23:19Z</time>
      </trkpt>
      <trkpt lat="45.72837" lon="4.65018">
        <ele>439.8</ele>
        <time>2025-03-02T11:23:20Z</time>
      </trkpt>
      <trkpt lat="45.72838" lon="4.65025">
        <ele>439.8</ele>
        <time>2025-03-02T11:23:21Z</time>
      </trkpt>
      <trkpt lat="45.72838" lon="4.65033">
        <ele>439.6</ele>
        <time>2025-03-02T11:23:22Z</time>
      </trkpt>
      <trkpt lat="45.7284" lon="4.6504">
        <ele>439.4</ele>
        <time>2025-03-02T11:23:23Z</time>
      </trkpt>
      <trkpt lat="45.72841" lon="4.65048">
        <ele>439.4</ele>
        <time>2025-03-02T11:23:24Z</time>
      </trkpt>
      <trkpt lat="45.72842" lon="4.65055">
        <ele>439.2</ele>
        <time>2025-03-02T11:23:25Z</time>
      </trkpt>
      <trkpt lat="45.72843" lon="4.65063">
        <ele>439</ele>
        <time>2025-03-02T11:23:26Z</time>
      </trkpt>
      <trkpt lat="45.72844" lon="4.6507">
        <ele>438.8</ele>
        <time>2025-03-02T11:23:27Z</time>
      </trkpt>
      <trkpt lat="45.72845" lon="4.65077">
        <ele>438.8</ele>
        <time>2025-03-02T11:23:28Z</time>
      </trkpt>
      <trkpt lat="45.72846" lon="4.65085">
        <ele>438.8</ele>
        <time>2025-03-02T11:23:29Z</time>
      </trkpt>
      <trkpt lat="45.72846" lon="4.65093">
        <ele>438.6</ele>
        <time>2025-03-02T11:23:30Z</time>
      </trkpt>
      <trkpt lat="45.72847" lon="4.65102">
        <ele>438</ele>
        <time>2025-03-02T11:23:31Z</time>
      </trkpt>
      <trkpt lat="45.72847" lon="4.6511">
        <ele>437.2</ele>
        <time>2025-03-02T11:23:32Z</time>
      </trkpt>
      <trkpt lat="45.72848" lon="4.6512">
        <ele>436.8</ele>
        <time>2025-03-02T11:23:33Z</time>
      </trkpt>
      <trkpt lat="45.72848" lon="4.65128">
        <ele>436.4</ele>
        <time>2025-03-02T11:23:34Z</time>
      </trkpt>
      <trkpt lat="45.72849" lon="4.65139">
        <ele>435.8</ele>
        <time>2025-03-02T11:23:35Z</time>
      </trkpt>
      <trkpt lat="45.7285" lon="4.65149">
        <ele>434.8</ele>
        <time>2025-03-02T11:23:36Z</time>
      </trkpt>
      <trkpt lat="45.72851" lon="4.65158">
        <ele>433.8</ele>
        <time>2025-03-02T11:23:37Z</time>
      </trkpt>
      <trkpt lat="45.7285" lon="4.65169">
        <ele>432.8</ele>
        <time>2025-03-02T11:23:38Z</time>
      </trkpt>
      <trkpt lat="45.7285" lon="4.6518">
        <ele>431.6</ele>
        <time>2025-03-02T11:23:39Z</time>
      </trkpt>
      <trkpt lat="45.72849" lon="4.65191">
        <ele>430.6</ele>
        <time>2025-03-02T11:23:40Z</time>
      </trkpt>
      <trkpt lat="45.72848" lon="4.65201">
        <ele>429.2</ele>
        <time>2025-03-02T11:23:41Z</time>
      </trkpt>
      <trkpt lat="45.72847" lon="4.65212">
        <ele>427.6</ele>
        <time>2025-03-02T11:23:42Z</time>
      </trkpt>
      <trkpt lat="45.72846" lon="4.65224">
        <ele>426.8</ele>
        <time>2025-03-02T11:23:43Z</time>
      </trkpt>
      <trkpt lat="45.72846" lon="4.65235">
        <ele>424.4</ele>
        <time>2025-03-02T11:23:44Z</time>
      </trkpt>
      <trkpt lat="45.72845" lon="4.65245">
        <ele>423.6</ele>
        <time>2025-03-02T11:23:45Z</time>
      </trkpt>
      <trkpt lat="45.72845" lon="4.65255">
        <ele>423</ele>
        <time>2025-03-02T11:23:46Z</time>
      </trkpt>
      <trkpt lat="45.72845" lon="4.65263">
        <ele>421.8</ele>
        <time>2025-03-02T11:23:47Z</time>
      </trkpt>
      <trkpt lat="45.72845" lon="4.65272">
        <ele>420.8</ele>
        <time>2025-03-02T11:23:48Z</time>
      </trkpt>
      <trkpt lat="45.72845" lon="4.65282">
        <ele>420.2</ele>
        <time>2025-03-02T11:23:49Z</time>
      </trkpt>
      <trkpt lat="45.72845" lon="4.65293">
        <ele>419.6</ele>
        <time>2025-03-02T11:23:50Z</time>
      </trkpt>
      <trkpt lat="45.72845" lon="4.65303">
        <ele>418.2</ele>
        <time>2025-03-02T11:23:51Z</time>
      </trkpt>
      <trkpt lat="45.72845" lon="4.65313">
        <ele>416.4</ele>
        <time>2025-03-02T11:23:52Z</time>
      </trkpt>
      <trkpt lat="45.72846" lon="4.65322">
        <ele>414.8</ele>
        <time>2025-03-02T11:23:53Z</time>
      </trkpt>
      <trkpt lat="45.72846" lon="4.65331">
        <ele>414.2</ele>
        <time>2025-03-02T11:23:54Z</time>
      </trkpt>
      <trkpt lat="45.72846" lon="4.65341">
        <ele>413</ele>
        <time>2025-03-02T11:23:55Z</time>
      </trkpt>
      <trkpt lat="45.72846" lon="4.65349">
        <ele>412</ele>
        <time>2025-03-02T11:23:56Z</time>
      </trkpt>
      <trkpt lat="45.72847" lon="4.65359">
        <ele>411</ele>
        <time>2025-03-02T11:23:57Z</time>
      </trkpt>
      <trkpt lat="45.72847" lon="4.65367">
        <ele>410</ele>
        <time>2025-03-02T11:23:58Z</time>
      </trkpt>
      <trkpt lat="45.72848" lon="4.65374">
        <ele>408.2</ele>
        <time>2025-03-02T11:23:59Z</time>
      </trkpt>
      <trkpt lat="45.72848" lon="4.65381">
        <ele>408</ele>
        <time>2025-03-02T11:24:00Z</time>
      </trkpt>
      <trkpt lat="45.72848" lon="4.65389">
        <ele>407</ele>
        <time>2025-03-02T11:24:01Z</time>
      </trkpt>
      <trkpt lat="45.72849" lon="4.65398">
        <ele>406.6</ele>
        <time>2025-03-02T11:24:02Z</time>
      </trkpt>
      <trkpt lat="45.72849" lon="4.65407">
        <ele>405.8</ele>
        <time>2025-03-02T11:24:03Z</time>
      </trkpt>
      <trkpt lat="45.72849" lon="4.65416">
        <ele>405</ele>
        <time>2025-03-02T11:24:04Z</time>
      </trkpt>
      <trkpt lat="45.72849" lon="4.65425">
        <ele>402.4</ele>
        <time>2025-03-02T11:24:05Z</time>
      </trkpt>
      <trkpt lat="45.72849" lon="4.65436">
        <ele>401.4</ele>
        <time>2025-03-02T11:24:06Z</time>
      </trkpt>
      <trkpt lat="45.72849" lon="4.65447">
        <ele>400.4</ele>
        <time>2025-03-02T11:24:07Z</time>
      </trkpt>
      <trkpt lat="45.72849" lon="4.6546">
        <ele>398.8</ele>
        <time>2025-03-02T11:24:08Z</time>
      </trkpt>
      <trkpt lat="45.72849" lon="4.65472">
        <ele>396.8</ele>
        <time>2025-03-02T11:24:09Z</time>
      </trkpt>
      <trkpt lat="45.7285" lon="4.65485">
        <ele>394.8</ele>
        <time>2025-03-02T11:24:10Z</time>
      </trkpt>
      <trkpt lat="45.7285" lon="4.65497">
        <ele>392.4</ele>
        <time>2025-03-02T11:24:11Z</time>
      </trkpt>
      <trkpt lat="45.72851" lon="4.65509">
        <ele>390.4</ele>
        <time>2025-03-02T11:24:12Z</time>
      </trkpt>
      <trkpt lat="45.72851" lon="4.65519">
        <ele>389.2</ele>
        <time>2025-03-02T11:24:13Z</time>
      </trkpt>
      <trkpt lat="45.72851" lon="4.65529">
        <ele>388.8</ele>
        <time>2025-03-02T11:24:14Z</time>
      </trkpt>
      <trkpt lat="45.72851" lon="4.65537">
        <ele>388.4</ele>
        <time>2025-03-02T11:24:15Z</time>
      </trkpt>
      <trkpt lat="45.72852" lon="4.65545">
        <ele>388</ele>
        <time>2025-03-02T11:24:16Z</time>
      </trkpt>
      <trkpt lat="45.72852" lon="4.65553">
        <ele>387.6</ele>
        <time>2025-03-02T11:24:17Z</time>
      </trkpt>
      <trkpt lat="45.72851" lon="4.6556">
        <ele>387.2</ele>
        <time>2025-03-02T11:24:18Z</time>
      </trkpt>
      <trkpt lat="45.7285" lon="4.65567">
        <ele>386.8</ele>
        <time>2025-03-02T11:24:19Z</time>
      </trkpt>
      <trkpt lat="45.72849" lon="4.65575">
        <ele>386.4</ele>
        <time>2025-03-02T11:24:20Z</time>
      </trkpt>
      <trkpt lat="45.72847" lon="4.65584">
        <ele>385.6</ele>
        <time>2025-03-02T11:24:21Z</time>
      </trkpt>
      <trkpt lat="45.72844" lon="4.65595">
        <ele>384.8</ele>
        <time>2025-03-02T11:24:22Z</time>
      </trkpt>
      <trkpt lat="45.72841" lon="4.65606">
        <ele>384.2</ele>
        <time>2025-03-02T11:24:23Z</time>
      </trkpt>
      <trkpt lat="45.72839" lon="4.65617">
        <ele>382.4</ele>
        <time>2025-03-02T11:24:24Z</time>
      </trkpt>
      <trkpt lat="45.72836" lon="4.65627">
        <ele>380.6</ele>
        <time>2025-03-02T11:24:25Z</time>
      </trkpt>
      <trkpt lat="45.72834" lon="4.65636">
        <ele>379.2</ele>
        <time>2025-03-02T11:24:26Z</time>
      </trkpt>
      <trkpt lat="45.72831" lon="4.65643">
        <ele>378.4</ele>
        <time>2025-03-02T11:24:27Z</time>
      </trkpt>
      <trkpt lat="45.7283" lon="4.65648">
        <ele>378</ele>
        <time>2025-03-02T11:24:28Z</time>
      </trkpt>
      <trkpt lat="45.72831" lon="4.65653">
        <ele>377.8</ele>
        <time>2025-03-02T11:24:29Z</time>
      </trkpt>
      <trkpt lat="45.72831" lon="4.65658">
        <ele>377.6</ele>
        <time>2025-03-02T11:24:30Z</time>
      </trkpt>
      <trkpt lat="45.72832" lon="4.65662">
        <ele>377.4</ele>
        <time>2025-03-02T11:24:31Z</time>
      </trkpt>
      <trkpt lat="45.72834" lon="4.65666">
        <ele>377.4</ele>
        <time>2025-03-02T11:24:32Z</time>
      </trkpt>
      <trkpt lat="45.72837" lon="4.6567">
        <ele>377</ele>
        <time>2025-03-02T11:24:33Z</time>
      </trkpt>
      <trkpt lat="45.7284" lon="4.65673">
        <ele>376.8</ele>
        <time>2025-03-02T11:24:34Z</time>
      </trkpt>
      <trkpt lat="45.72843" lon="4.65675">
        <ele>376.4</ele>
        <time>2025-03-02T11:24:35Z</time>
      </trkpt>
      <trkpt lat="45.72847" lon="4.65678">
        <ele>376</ele>
        <time>2025-03-02T11:24:36Z</time>
      </trkpt>
      <trkpt lat="45.72849" lon="4.6568">
        <ele>375.8</ele>
        <time>2025-03-02T11:24:37Z</time>
      </trkpt>
      <trkpt lat="45.72852" lon="4.65682">
        <ele>375.6</ele>
        <time>2025-03-02T11:24:38Z</time>
      </trkpt>
      <trkpt lat="45.72855" lon="4.65683">
        <ele>375.6</ele>
        <time>2025-03-02T11:24:39Z</time>
      </trkpt>
      <trkpt lat="45.72857" lon="4.65684">
        <ele>375.6</ele>
        <time>2025-03-02T11:24:40Z</time>
      </trkpt>
      <trkpt lat="45.7286" lon="4.65685">
        <ele>375.6</ele>
        <time>2025-03-02T11:24:41Z</time>
      </trkpt>
      <trkpt lat="45.72863" lon="4.65687">
        <ele>375.2</ele>
        <time>2025-03-02T11:24:42Z</time>
      </trkpt>
      <trkpt lat="45.72866" lon="4.65689">
        <ele>374.8</ele>
        <time>2025-03-02T11:24:43Z</time>
      </trkpt>
      <trkpt lat="45.72869" lon="4.6569">
        <ele>374.6</ele>
        <time>2025-03-02T11:24:44Z</time>
      </trkpt>
      <trkpt lat="45.72872" lon="4.65692">
        <ele>374.6</ele>
        <time>2025-03-02T11:24:45Z</time>
      </trkpt>
      <trkpt lat="45.72874" lon="4.65695">
        <ele>374.2</ele>
        <time>2025-03-02T11:24:46Z</time>
      </trkpt>
      <trkpt lat="45.72875" lon="4.65697">
        <ele>374.2</ele>
        <time>2025-03-02T11:24:47Z</time>
      </trkpt>
      <trkpt lat="45.72875" lon="4.65699">
        <ele>374.2</ele>
        <time>2025-03-02T11:24:48Z</time>
      </trkpt>
      <trkpt lat="45.72875" lon="4.65701">
        <ele>374.2</ele>
        <time>2025-03-02T11:24:49Z</time>
      </trkpt>
      <trkpt lat="45.72875" lon="4.65702">
        <ele>374.2</ele>
        <time>2025-03-02T11:24:50Z</time>
      </trkpt>
      <trkpt lat="45.72874" lon="4.65704">
        <ele>374.2</ele>
        <time>2025-03-02T11:24:51Z</time>
      </trkpt>
      <trkpt lat="45.72873" lon="4.65707">
        <ele>374.2</ele>
        <time>2025-03-02T11:24:52Z</time>
      </trkpt>
      <trkpt lat="45.72872" lon="4.6571">
        <ele>374.2</ele>
        <time>2025-03-02T11:24:53Z</time>
      </trkpt>
      <trkpt lat="45.7287" lon="4.65715">
        <ele>374</ele>
        <time>2025-03-02T11:24:54Z</time>
      </trkpt>
      <trkpt lat="45.72869" lon="4.65721">
        <ele>373.4</ele>
        <time>2025-03-02T11:24:55Z</time>
      </trkpt>
      <trkpt lat="45.72867" lon="4.65729">
        <ele>372.4</ele>
        <time>2025-03-02T11:24:56Z</time>
      </trkpt>
      <trkpt lat="45.72866" lon="4.65737">
        <ele>371.2</ele>
        <time>2025-03-02T11:24:57Z</time>
      </trkpt>
      <trkpt lat="45.72864" lon="4.65747">
        <ele>370.6</ele>
        <time>2025-03-02T11:24:58Z</time>
      </trkpt>
      <trkpt lat="45.72863" lon="4.65758">
        <ele>369.6</ele>
        <time>2025-03-02T11:24:59Z</time>
      </trkpt>
      <trkpt lat="45.72861" lon="4.6577">
        <ele>368.6</ele>
        <time>2025-03-02T11:25:00Z</time>
      </trkpt>
      <trkpt lat="45.7286" lon="4.65782">
        <ele>367.4</ele>
        <time>2025-03-02T11:25:01Z</time>
      </trkpt>
      <trkpt lat="45.72858" lon="4.65796">
        <ele>365.8</ele>
        <time>2025-03-02T11:25:02Z</time>
      </trkpt>
      <trkpt lat="45.72856" lon="4.65811">
        <ele>363.8</ele>
        <time>2025-03-02T11:25:03Z</time>
      </trkpt>
      <trkpt lat="45.72853" lon="4.65826">
        <ele>362</ele>
        <time>2025-03-02T11:25:04Z</time>
      </trkpt>
      <trkpt lat="45.72848" lon="4.65842">
        <ele>360.6</ele>
        <time>2025-03-02T11:25:05Z</time>
      </trkpt>
      <trkpt lat="45.72844" lon="4.65858">
        <ele>358.8</ele>
        <time>2025-03-02T11:25:06Z</time>
      </trkpt>
      <trkpt lat="45.72841" lon="4.65874">
        <ele>357.4</ele>
        <time>2025-03-02T11:25:07Z</time>
      </trkpt>
      <trkpt lat="45.72837" lon="4.65891">
        <ele>355.4</ele>
        <time>2025-03-02T11:25:08Z</time>
      </trkpt>
      <trkpt lat="45.72833" lon="4.65908">
        <ele>353.4</ele>
        <time>2025-03-02T11:25:09Z</time>
      </trkpt>
      <trkpt lat="45.72829" lon="4.65926">
        <ele>351.2</ele>
        <time>2025-03-02T11:25:10Z</time>
      </trkpt>
      <trkpt lat="45.72825" lon="4.65943">
        <ele>349.2</ele>
        <time>2025-03-02T11:25:11Z</time>
      </trkpt>
      <trkpt lat="45.72821" lon="4.65961">
        <ele>347.6</ele>
        <time>2025-03-02T11:25:12Z</time>
      </trkpt>
      <trkpt lat="45.72816" lon="4.65979">
        <ele>345.8</ele>
        <time>2025-03-02T11:25:13Z</time>
      </trkpt>
      <trkpt lat="45.72811" lon="4.65997">
        <ele>343.8</ele>
        <time>2025-03-02T11:25:14Z</time>
      </trkpt>
      <trkpt lat="45.72806" lon="4.66015">
        <ele>342.8</ele>
        <time>2025-03-02T11:25:15Z</time>
      </trkpt>
      <trkpt lat="45.728" lon="4.66031">
        <ele>342</ele>
        <time>2025-03-02T11:25:16Z</time>
      </trkpt>
      <trkpt lat="45.72795" lon="4.66047">
        <ele>341.4</ele>
        <time>2025-03-02T11:25:17Z</time>
      </trkpt>
      <trkpt lat="45.72789" lon="4.66063">
        <ele>341</ele>
        <time>2025-03-02T11:25:18Z</time>
      </trkpt>
      <trkpt lat="45.72784" lon="4.66078">
        <ele>341</ele>
        <time>2025-03-02T11:25:19Z</time>
      </trkpt>
      <trkpt lat="45.72779" lon="4.66093">
        <ele>341</ele>
        <time>2025-03-02T11:25:20Z</time>
      </trkpt>
      <trkpt lat="45.72774" lon="4.66108">
        <ele>340.8</ele>
        <time>2025-03-02T11:25:21Z</time>
      </trkpt>
      <trkpt lat="45.7277" lon="4.6612">
        <ele>340.8</ele>
        <time>2025-03-02T11:25:22Z</time>
      </trkpt>
      <trkpt lat="45.72765" lon="4.66137">
        <ele>340.6</ele>
        <time>2025-03-02T11:25:23Z</time>
      </trkpt>
      <trkpt lat="45.7276" lon="4.66151">
        <ele>340.2</ele>
        <time>2025-03-02T11:25:24Z</time>
      </trkpt>
      <trkpt lat="45.72756" lon="4.66165">
        <ele>339.6</ele>
        <time>2025-03-02T11:25:25Z</time>
      </trkpt>
      <trkpt lat="45.72751" lon="4.66179">
        <ele>339.4</ele>
        <time>2025-03-02T11:25:26Z</time>
      </trkpt>
      <trkpt lat="45.72746" lon="4.66192">
        <ele>338.8</ele>
        <time>2025-03-02T11:25:27Z</time>
      </trkpt>
      <trkpt lat="45.72741" lon="4.66205">
        <ele>338.6</ele>
        <time>2025-03-02T11:25:28Z</time>
      </trkpt>
      <trkpt lat="45.72736" lon="4.66218">
        <ele>338.4</ele>
        <time>2025-03-02T11:25:29Z</time>
      </trkpt>
      <trkpt lat="45.72731" lon="4.66231">
        <ele>338.2</ele>
        <time>2025-03-02T11:25:30Z</time>
      </trkpt>
      <trkpt lat="45.72727" lon="4.66244">
        <ele>337.8</ele>
        <time>2025-03-02T11:25:31Z</time>
      </trkpt>
      <trkpt lat="45.72722" lon="4.66257">
        <ele>337</ele>
        <time>2025-03-02T11:25:32Z</time>
      </trkpt>
      <trkpt lat="45.72718" lon="4.6627">
        <ele>335.6</ele>
        <time>2025-03-02T11:25:33Z</time>
      </trkpt>
      <trkpt lat="45.72713" lon="4.66284">
        <ele>335</ele>
        <time>2025-03-02T11:25:34Z</time>
      </trkpt>
      <trkpt lat="45.72709" lon="4.66297">
        <ele>334.4</ele>
        <time>2025-03-02T11:25:35Z</time>
      </trkpt>
      <trkpt lat="45.72704" lon="4.66311">
        <ele>334</ele>
        <time>2025-03-02T11:25:36Z</time>
      </trkpt>
      <trkpt lat="45.72699" lon="4.66324">
        <ele>333.4</ele>
        <time>2025-03-02T11:25:37Z</time>
      </trkpt>
      <trkpt lat="45.72695" lon="4.66338">
        <ele>332.6</ele>
        <time>2025-03-02T11:25:38Z</time>
      </trkpt>
      <trkpt lat="45.7269" lon="4.66351">
        <ele>331.8</ele>
        <time>2025-03-02T11:25:39Z</time>
      </trkpt>
      <trkpt lat="45.72686" lon="4.66363">
        <ele>331</ele>
        <time>2025-03-02T11:25:40Z</time>
      </trkpt>
      <trkpt lat="45.72681" lon="4.66375">
        <ele>330.2</ele>
        <time>2025-03-02T11:25:41Z</time>
      </trkpt>
      <trkpt lat="45.72676" lon="4.66388">
        <ele>329</ele>
        <time>2025-03-02T11:25:42Z</time>
      </trkpt>
      <trkpt lat="45.72672" lon="4.66399">
        <ele>329.2</ele>
        <time>2025-03-02T11:25:43Z</time>
      </trkpt>
      <trkpt lat="45.72667" lon="4.66411">
        <ele>329.2</ele>
        <time>2025-03-02T11:25:44Z</time>
      </trkpt>
      <trkpt lat="45.72662" lon="4.66423">
        <ele>329</ele>
        <time>2025-03-02T11:25:45Z</time>
      </trkpt>
      <trkpt lat="45.72658" lon="4.66434">
        <ele>329</ele>
        <time>2025-03-02T11:25:46Z</time>
      </trkpt>
      <trkpt lat="45.72653" lon="4.66445">
        <ele>329</ele>
        <time>2025-03-02T11:25:47Z</time>
      </trkpt>
      <trkpt lat="45.72649" lon="4.66457">
        <ele>328.8</ele>
        <time>2025-03-02T11:25:48Z</time>
      </trkpt>
      <trkpt lat="45.72644" lon="4.66468">
        <ele>328.2</ele>
        <time>2025-03-02T11:25:49Z</time>
      </trkpt>
      <trkpt lat="45.7264" lon="4.66479">
        <ele>328</ele>
        <time>2025-03-02T11:25:50Z</time>
      </trkpt>
      <trkpt lat="45.72635" lon="4.6649">
        <ele>328</ele>
        <time>2025-03-02T11:25:51Z</time>
      </trkpt>
      <trkpt lat="45.72631" lon="4.665">
        <ele>327.6</ele>
        <time>2025-03-02T11:25:52Z</time>
      </trkpt>
      <trkpt lat="45.72627" lon="4.66511">
        <ele>327</ele>
        <time>2025-03-02T11:25:53Z</time>
      </trkpt>
      <trkpt lat="45.72622" lon="4.66522">
        <ele>326.6</ele>
        <time>2025-03-02T11:25:54Z</time>
      </trkpt>
      <trkpt lat="45.72618" lon="4.66533">
        <ele>326</ele>
        <time>2025-03-02T11:25:55Z</time>
      </trkpt>
      <trkpt lat="45.72614" lon="4.66545">
        <ele>325.8</ele>
        <time>2025-03-02T11:25:56Z</time>
      </trkpt>
      <trkpt lat="45.7261" lon="4.66556">
        <ele>325.6</ele>
        <time>2025-03-02T11:25:57Z</time>
      </trkpt>
      <trkpt lat="45.72607" lon="4.66568">
        <ele>325</ele>
        <time>2025-03-02T11:25:58Z</time>
      </trkpt>
      <trkpt lat="45.72603" lon="4.66581">
        <ele>324.4</ele>
        <time>2025-03-02T11:25:59Z</time>
      </trkpt>
      <trkpt lat="45.726" lon="4.66593">
        <ele>324</ele>
        <time>2025-03-02T11:26:00Z</time>
      </trkpt>
      <trkpt lat="45.72597" lon="4.66606">
        <ele>323.4</ele>
        <time>2025-03-02T11:26:01Z</time>
      </trkpt>
      <trkpt lat="45.72593" lon="4.66618">
        <ele>322.4</ele>
        <time>2025-03-02T11:26:02Z</time>
      </trkpt>
      <trkpt lat="45.7259" lon="4.66629">
        <ele>321.8</ele>
        <time>2025-03-02T11:26:03Z</time>
      </trkpt>
      <trkpt lat="45.72586" lon="4.6664">
        <ele>321.6</ele>
        <time>2025-03-02T11:26:04Z</time>
      </trkpt>
      <trkpt lat="45.72583" lon="4.66648">
        <ele>321.6</ele>
        <time>2025-03-02T11:26:05Z</time>
      </trkpt>
      <trkpt lat="45.7258" lon="4.66659">
        <ele>321.6</ele>
        <time>2025-03-02T11:26:06Z</time>
      </trkpt>
      <trkpt lat="45.72577" lon="4.66669">
        <ele>321.8</ele>
        <time>2025-03-02T11:26:07Z</time>
      </trkpt>
      <trkpt lat="45.72574" lon="4.66678">
        <ele>322</ele>
        <time>2025-03-02T11:26:08Z</time>
      </trkpt>
      <trkpt lat="45.72571" lon="4.66688">
        <ele>322</ele>
        <time>2025-03-02T11:26:09Z</time>
      </trkpt>
      <trkpt lat="45.72568" lon="4.66697">
        <ele>322</ele>
        <time>2025-03-02T11:26:10Z</time>
      </trkpt>
      <trkpt lat="45.72566" lon="4.66707">
        <ele>322</ele>
        <time>2025-03-02T11:26:11Z</time>
      </trkpt>
      <trkpt lat="45.72563" lon="4.66717">
        <ele>322</ele>
        <time>2025-03-02T11:26:12Z</time>
      </trkpt>
      <trkpt lat="45.7256" lon="4.66728">
        <ele>321.8</ele>
        <time>2025-03-02T11:26:13Z</time>
      </trkpt>
      <trkpt lat="45.72558" lon="4.66739">
        <ele>321</ele>
        <time>2025-03-02T11:26:14Z</time>
      </trkpt>
      <trkpt lat="45.72555" lon="4.6675">
        <ele>320.8</ele>
        <time>2025-03-02T11:26:15Z</time>
      </trkpt>
      <trkpt lat="45.72552" lon="4.66762">
        <ele>319.6</ele>
        <time>2025-03-02T11:26:16Z</time>
      </trkpt>
      <trkpt lat="45.72549" lon="4.66774">
        <ele>319</ele>
        <time>2025-03-02T11:26:17Z</time>
      </trkpt>
      <trkpt lat="45.72547" lon="4.66786">
        <ele>317.6</ele>
        <time>2025-03-02T11:26:18Z</time>
      </trkpt>
      <trkpt lat="45.72543" lon="4.66799">
        <ele>317</ele>
        <time>2025-03-02T11:26:19Z</time>
      </trkpt>
      <trkpt lat="45.7254" lon="4.66811">
        <ele>316.2</ele>
        <time>2025-03-02T11:26:20Z</time>
      </trkpt>
      <trkpt lat="45.72537" lon="4.66824">
        <ele>314.8</ele>
        <time>2025-03-02T11:26:21Z</time>
      </trkpt>
      <trkpt lat="45.72533" lon="4.66836">
        <ele>314</ele>
        <time>2025-03-02T11:26:22Z</time>
      </trkpt>
      <trkpt lat="45.7253" lon="4.66848">
        <ele>313.2</ele>
        <time>2025-03-02T11:26:23Z</time>
      </trkpt>
      <trkpt lat="45.72528" lon="4.6686">
        <ele>312.6</ele>
        <time>2025-03-02T11:26:24Z</time>
      </trkpt>
      <trkpt lat="45.72527" lon="4.6687">
        <ele>312.4</ele>
        <time>2025-03-02T11:26:25Z</time>
      </trkpt>
      <trkpt lat="45.72527" lon="4.66881">
        <ele>312.2</ele>
        <time>2025-03-02T11:26:26Z</time>
      </trkpt>
      <trkpt lat="45.72528" lon="4.66889">
        <ele>312.2</ele>
        <time>2025-03-02T11:26:27Z</time>
      </trkpt>
      <trkpt lat="45.7253" lon="4.66901">
        <ele>312</ele>
        <time>2025-03-02T11:26:28Z</time>
      </trkpt>
      <trkpt lat="45.72531" lon="4.66911">
        <ele>311.8</ele>
        <time>2025-03-02T11:26:29Z</time>
      </trkpt>
      <trkpt lat="45.72531" lon="4.66921">
        <ele>311.6</ele>
        <time>2025-03-02T11:26:30Z</time>
      </trkpt>
      <trkpt lat="45.7253" lon="4.66931">
        <ele>311.2</ele>
        <time>2025-03-02T11:26:31Z</time>
      </trkpt>
      <trkpt lat="45.7253" lon="4.66942">
        <ele>310.6</ele>
        <time>2025-03-02T11:26:32Z</time>
      </trkpt>
      <trkpt lat="45.72529" lon="4.66952">
        <ele>310.4</ele>
        <time>2025-03-02T11:26:33Z</time>
      </trkpt>
      <trkpt lat="45.72528" lon="4.66962">
        <ele>310.4</ele>
        <time>2025-03-02T11:26:34Z</time>
      </trkpt>
      <trkpt lat="45.72526" lon="4.66972">
        <ele>310.2</ele>
        <time>2025-03-02T11:26:35Z</time>
      </trkpt>
      <trkpt lat="45.72524" lon="4.66981">
        <ele>310.2</ele>
        <time>2025-03-02T11:26:36Z</time>
      </trkpt>
      <trkpt lat="45.72522" lon="4.66989">
        <ele>310.2</ele>
        <time>2025-03-02T11:26:37Z</time>
      </trkpt>
      <trkpt lat="45.7252" lon="4.66998">
        <ele>310</ele>
        <time>2025-03-02T11:26:38Z</time>
      </trkpt>
      <trkpt lat="45.72517" lon="4.67007">
        <ele>310</ele>
        <time>2025-03-02T11:26:39Z</time>
      </trkpt>
      <trkpt lat="45.72515" lon="4.67017">
        <ele>309.8</ele>
        <time>2025-03-02T11:26:40Z</time>
      </trkpt>
      <trkpt lat="45.72513" lon="4.67026">
        <ele>309.6</ele>
        <time>2025-03-02T11:26:41Z</time>
      </trkpt>
      <trkpt lat="45.72511" lon="4.67032">
        <ele>309.6</ele>
        <time>2025-03-02T11:26:42Z</time>
      </trkpt>
      <trkpt lat="45.72509" lon="4.67037">
        <ele>309.6</ele>
        <time>2025-03-02T11:26:43Z</time>
      </trkpt>
      <trkpt lat="45.72508" lon="4.67042">
        <ele>309.6</ele>
        <time>2025-03-02T11:26:44Z</time>
      </trkpt>
      <trkpt lat="45.72507" lon="4.67046">
        <ele>309.8</ele>
        <time>2025-03-02T11:26:45Z</time>
      </trkpt>
      <trkpt lat="45.72507" lon="4.67051">
        <ele>309.8</ele>
        <time>2025-03-02T11:26:46Z</time>
      </trkpt>
      <trkpt lat="45.72506" lon="4.67055">
        <ele>309.8</ele>
        <time>2025-03-02T11:26:47Z</time>
      </trkpt>
      <trkpt lat="45.72506" lon="4.6706">
        <ele>309.8</ele>
        <time>2025-03-02T11:26:48Z</time>
      </trkpt>
      <trkpt lat="45.72505" lon="4.67064">
        <ele>309.8</ele>
        <time>2025-03-02T11:26:49Z</time>
      </trkpt>
      <trkpt lat="45.72505" lon="4.67067">
        <ele>309.6</ele>
        <time>2025-03-02T11:26:50Z</time>
      </trkpt>
      <trkpt lat="45.72506" lon="4.67069">
        <ele>309.6</ele>
        <time>2025-03-02T11:26:51Z</time>
      </trkpt>
      <trkpt lat="45.72506" lon="4.67072">
        <ele>309.6</ele>
        <time>2025-03-02T11:26:52Z</time>
      </trkpt>
      <trkpt lat="45.72506" lon="4.67074">
        <ele>309.6</ele>
        <time>2025-03-02T11:26:53Z</time>
      </trkpt>
      <trkpt lat="45.72506" lon="4.67075">
        <ele>309.4</ele>
        <time>2025-03-02T11:26:54Z</time>
      </trkpt>
      <trkpt lat="45.72507" lon="4.67078">
        <ele>309.4</ele>
        <time>2025-03-02T11:26:55Z</time>
      </trkpt>
      <trkpt lat="45.72507" lon="4.6708">
        <ele>309.4</ele>
        <time>2025-03-02T11:26:56Z</time>
      </trkpt>
      <trkpt lat="45.72507" lon="4.67083">
        <ele>309.4</ele>
        <time>2025-03-02T11:26:57Z</time>
      </trkpt>
      <trkpt lat="45.72507" lon="4.67086">
        <ele>309.4</ele>
        <time>2025-03-02T11:26:58Z</time>
      </trkpt>
      <trkpt lat="45.72507" lon="4.67088">
        <ele>309.4</ele>
        <time>2025-03-02T11:26:59Z</time>
      </trkpt>
      <trkpt lat="45.72507" lon="4.6709">
        <ele>309.4</ele>
        <time>2025-03-02T11:27:00Z</time>
      </trkpt>
      <trkpt lat="45.72508" lon="4.67092">
        <ele>309.6</ele>
        <time>2025-03-02T11:27:01Z</time>
      </trkpt>
      <trkpt lat="45.72508" lon="4.67094">
        <ele>309.6</ele>
        <time>2025-03-02T11:27:02Z</time>
      </trkpt>
      <trkpt lat="45.72507" lon="4.67095">
        <ele>309.6</ele>
        <time>2025-03-02T11:27:03Z</time>
      </trkpt>
      <trkpt lat="45.72507" lon="4.67097">
        <ele>309.8</ele>
        <time>2025-03-02T11:27:04Z</time>
      </trkpt>
      <trkpt lat="45.72507" lon="4.67099">
        <ele>310</ele>
        <time>2025-03-02T11:27:05Z</time>
      </trkpt>
      <trkpt lat="45.72507" lon="4.67102">
        <ele>310</ele>
        <time>2025-03-02T11:27:06Z</time>
      </trkpt>
      <trkpt lat="45.72507" lon="4.67104">
        <ele>310</ele>
        <time>2025-03-02T11:27:07Z</time>
      </trkpt>
      <trkpt lat="45.72506" lon="4.67106">
        <ele>310</ele>
        <time>2025-03-02T11:27:08Z</time>
      </trkpt>
      <trkpt lat="45.72505" lon="4.6711">
        <ele>310</ele>
        <time>2025-03-02T11:27:09Z</time>
      </trkpt>
      <trkpt lat="45.72504" lon="4.67112">
        <ele>310</ele>
        <time>2025-03-02T11:27:10Z</time>
      </trkpt>
      <trkpt lat="45.72503" lon="4.67116">
        <ele>310</ele>
        <time>2025-03-02T11:27:11Z</time>
      </trkpt>
      <trkpt lat="45.72501" lon="4.6712">
        <ele>309.8</ele>
        <time>2025-03-02T11:27:12Z</time>
      </trkpt>
      <trkpt lat="45.725" lon="4.67124">
        <ele>310</ele>
        <time>2025-03-02T11:27:13Z</time>
      </trkpt>
      <trkpt lat="45.72498" lon="4.67127">
        <ele>309.8</ele>
        <time>2025-03-02T11:27:14Z</time>
      </trkpt>
      <trkpt lat="45.72497" lon="4.67132">
        <ele>309.8</ele>
        <time>2025-03-02T11:27:15Z</time>
      </trkpt>
      <trkpt lat="45.72495" lon="4.67136">
        <ele>310</ele>
        <time>2025-03-02T11:27:16Z</time>
      </trkpt>
      <trkpt lat="45.72492" lon="4.67141">
        <ele>310</ele>
        <time>2025-03-02T11:27:17Z</time>
      </trkpt>
      <trkpt lat="45.72489" lon="4.67145">
        <ele>310</ele>
        <time>2025-03-02T11:27:18Z</time>
      </trkpt>
      <trkpt lat="45.72487" lon="4.67149">
        <ele>310.2</ele>
        <time>2025-03-02T11:27:19Z</time>
      </trkpt>
      <trkpt lat="45.72485" lon="4.67152">
        <ele>310.6</ele>
        <time>2025-03-02T11:27:20Z</time>
      </trkpt>
      <trkpt lat="45.72482" lon="4.67155">
        <ele>311</ele>
        <time>2025-03-02T11:27:21Z</time>
      </trkpt>
      <trkpt lat="45.72479" lon="4.67158">
        <ele>311.4</ele>
        <time>2025-03-02T11:27:22Z</time>
      </trkpt>
      <trkpt lat="45.72475" lon="4.6716">
        <ele>312</ele>
        <time>2025-03-02T11:27:23Z</time>
      </trkpt>
      <trkpt lat="45.72471" lon="4.67163">
        <ele>312</ele>
        <time>2025-03-02T11:27:24Z</time>
      </trkpt>
      <trkpt lat="45.72466" lon="4.67166">
        <ele>312</ele>
        <time>2025-03-02T11:27:25Z</time>
      </trkpt>
      <trkpt lat="45.72462" lon="4.6717">
        <ele>312</ele>
        <time>2025-03-02T11:27:26Z</time>
      </trkpt>
      <trkpt lat="45.72457" lon="4.67173">
        <ele>312</ele>
        <time>2025-03-02T11:27:27Z</time>
      </trkpt>
      <trkpt lat="45.72452" lon="4.67177">
        <ele>311.8</ele>
        <time>2025-03-02T11:27:28Z</time>
      </trkpt>
      <trkpt lat="45.72447" lon="4.67181">
        <ele>311.8</ele>
        <time>2025-03-02T11:27:29Z</time>
      </trkpt>
      <trkpt lat="45.72442" lon="4.67185">
        <ele>311.8</ele>
        <time>2025-03-02T11:27:30Z</time>
      </trkpt>
      <trkpt lat="45.72438" lon="4.6719">
        <ele>311.8</ele>
        <time>2025-03-02T11:27:31Z</time>
      </trkpt>
      <trkpt lat="45.72433" lon="4.67194">
        <ele>311.8</ele>
        <time>2025-03-02T11:27:32Z</time>
      </trkpt>
      <trkpt lat="45.72429" lon="4.67198">
        <ele>311.8</ele>
        <time>2025-03-02T11:27:33Z</time>
      </trkpt>
      <trkpt lat="45.72424" lon="4.67202">
        <ele>312</ele>
        <time>2025-03-02T11:27:34Z</time>
      </trkpt>
      <trkpt lat="45.7242" lon="4.67206">
        <ele>312.4</ele>
        <time>2025-03-02T11:27:35Z</time>
      </trkpt>
      <trkpt lat="45.72416" lon="4.6721">
        <ele>312.6</ele>
        <time>2025-03-02T11:27:36Z</time>
      </trkpt>
      <trkpt lat="45.72412" lon="4.67214">
        <ele>312.8</ele>
        <time>2025-03-02T11:27:37Z</time>
      </trkpt>
      <trkpt lat="45.72408" lon="4.67218">
        <ele>312.8</ele>
        <time>2025-03-02T11:27:38Z</time>
      </trkpt>
      <trkpt lat="45.72404" lon="4.67221">
        <ele>312.8</ele>
        <time>2025-03-02T11:27:39Z</time>
      </trkpt>
      <trkpt lat="45.724" lon="4.67225">
        <ele>313</ele>
        <time>2025-03-02T11:27:40Z</time>
      </trkpt>
      <trkpt lat="45.72397" lon="4.67229">
        <ele>313.2</ele>
        <time>2025-03-02T11:27:41Z</time>
      </trkpt>
      <trkpt lat="45.72393" lon="4.67233">
        <ele>313.2</ele>
        <time>2025-03-02T11:27:42Z</time>
      </trkpt>
      <trkpt lat="45.7239" lon="4.67237">
        <ele>313.4</ele>
        <time>2025-03-02T11:27:43Z</time>
      </trkpt>
      <trkpt lat="45.72387" lon="4.67241">
        <ele>313.4</ele>
        <time>2025-03-02T11:27:44Z</time>
      </trkpt>
      <trkpt lat="45.72384" lon="4.67246">
        <ele>313.8</ele>
        <time>2025-03-02T11:27:45Z</time>
      </trkpt>
      <trkpt lat="45.72381" lon="4.67251">
        <ele>314</ele>
        <time>2025-03-02T11:27:46Z</time>
      </trkpt>
      <trkpt lat="45.72378" lon="4.67256">
        <ele>314.4</ele>
        <time>2025-03-02T11:27:47Z</time>
      </trkpt>
      <trkpt lat="45.72374" lon="4.67261">
        <ele>314.6</ele>
        <time>2025-03-02T11:27:48Z</time>
      </trkpt>
      <trkpt lat="45.72372" lon="4.67267">
        <ele>315.2</ele>
        <time>2025-03-02T11:27:49Z</time>
      </trkpt>
      <trkpt lat="45.72369" lon="4.67272">
        <ele>315.2</ele>
        <time>2025-03-02T11:27:50Z</time>
      </trkpt>
      <trkpt lat="45.72366" lon="4.67278">
        <ele>315.6</ele>
        <time>2025-03-02T11:27:51Z</time>
      </trkpt>
      <trkpt lat="45.72363" lon="4.67284">
        <ele>315.8</ele>
        <time>2025-03-02T11:27:52Z</time>
      </trkpt>
      <trkpt lat="45.72361" lon="4.67288">
        <ele>316</ele>
        <time>2025-03-02T11:27:53Z</time>
      </trkpt>
      <trkpt lat="45.72358" lon="4.67295">
        <ele>316.2</ele>
        <time>2025-03-02T11:27:54Z</time>
      </trkpt>
      <trkpt lat="45.72355" lon="4.673">
        <ele>316.2</ele>
        <time>2025-03-02T11:27:55Z</time>
      </trkpt>
      <trkpt lat="45.72353" lon="4.67306">
        <ele>316.4</ele>
        <time>2025-03-02T11:27:56Z</time>
      </trkpt>
      <trkpt lat="45.7235" lon="4.67312">
        <ele>316.6</ele>
        <time>2025-03-02T11:27:57Z</time>
      </trkpt>
      <trkpt lat="45.72347" lon="4.67318">
        <ele>316.8</ele>
        <time>2025-03-02T11:27:58Z</time>
      </trkpt>
      <trkpt lat="45.72344" lon="4.67323">
        <ele>317</ele>
        <time>2025-03-02T11:27:59Z</time>
      </trkpt>
      <trkpt lat="45.72342" lon="4.67329">
        <ele>317.2</ele>
        <time>2025-03-02T11:28:00Z</time>
      </trkpt>
      <trkpt lat="45.72339" lon="4.67335">
        <ele>317.2</ele>
        <time>2025-03-02T11:28:01Z</time>
      </trkpt>
      <trkpt lat="45.72336" lon="4.6734">
        <ele>317.4</ele>
        <time>2025-03-02T11:28:02Z</time>
      </trkpt>
      <trkpt lat="45.72333" lon="4.67346">
        <ele>317.4</ele>
        <time>2025-03-02T11:28:03Z</time>
      </trkpt>
      <trkpt lat="45.7233" lon="4.67351">
        <ele>317.4</ele>
        <time>2025-03-02T11:28:04Z</time>
      </trkpt>
      <trkpt lat="45.72328" lon="4.67357">
        <ele>317.6</ele>
        <time>2025-03-02T11:28:05Z</time>
      </trkpt>
      <trkpt lat="45.72325" lon="4.67363">
        <ele>317.6</ele>
        <time>2025-03-02T11:28:06Z</time>
      </trkpt>
      <trkpt lat="45.72323" lon="4.67368">
        <ele>317.6</ele>
        <time>2025-03-02T11:28:07Z</time>
      </trkpt>
      <trkpt lat="45.7232" lon="4.67374">
        <ele>317.6</ele>
        <time>2025-03-02T11:28:08Z</time>
      </trkpt>
      <trkpt lat="45.72317" lon="4.6738">
        <ele>317.8</ele>
        <time>2025-03-02T11:28:09Z</time>
      </trkpt>
      <trkpt lat="45.72314" lon="4.67386">
        <ele>318</ele>
        <time>2025-03-02T11:28:10Z</time>
      </trkpt>
      <trkpt lat="45.72311" lon="4.67392">
        <ele>318.4</ele>
        <time>2025-03-02T11:28:11Z</time>
      </trkpt>
      <trkpt lat="45.72308" lon="4.67399">
        <ele>318.8</ele>
        <time>2025-03-02T11:28:12Z</time>
      </trkpt>
      <trkpt lat="45.72305" lon="4.67406">
        <ele>318.8</ele>
        <time>2025-03-02T11:28:13Z</time>
      </trkpt>
      <trkpt lat="45.72302" lon="4.67413">
        <ele>319</ele>
        <time>2025-03-02T11:28:14Z</time>
      </trkpt>
      <trkpt lat="45.72298" lon="4.67421">
        <ele>319.2</ele>
        <time>2025-03-02T11:28:15Z</time>
      </trkpt>
      <trkpt lat="45.72295" lon="4.67428">
        <ele>319.2</ele>
        <time>2025-03-02T11:28:16Z</time>
      </trkpt>
      <trkpt lat="45.72292" lon="4.67435">
        <ele>319.2</ele>
        <time>2025-03-02T11:28:17Z</time>
      </trkpt>
      <trkpt lat="45.72288" lon="4.67442">
        <ele>319.4</ele>
        <time>2025-03-02T11:28:18Z</time>
      </trkpt>
      <trkpt lat="45.72285" lon="4.6745">
        <ele>319.6</ele>
        <time>2025-03-02T11:28:19Z</time>
      </trkpt>
      <trkpt lat="45.72282" lon="4.67457">
        <ele>319.6</ele>
        <time>2025-03-02T11:28:20Z</time>
      </trkpt>
      <trkpt lat="45.72279" lon="4.67464">
        <ele>319.8</ele>
        <time>2025-03-02T11:28:21Z</time>
      </trkpt>
      <trkpt lat="45.72276" lon="4.6747">
        <ele>320</ele>
        <time>2025-03-02T11:28:22Z</time>
      </trkpt>
      <trkpt lat="45.72273" lon="4.67477">
        <ele>320.2</ele>
        <time>2025-03-02T11:28:23Z</time>
      </trkpt>
      <trkpt lat="45.7227" lon="4.67484">
        <ele>320.6</ele>
        <time>2025-03-02T11:28:24Z</time>
      </trkpt>
      <trkpt lat="45.72267" lon="4.67492">
        <ele>321</ele>
        <time>2025-03-02T11:28:25Z</time>
      </trkpt>
      <trkpt lat="45.72263" lon="4.67499">
        <ele>321.4</ele>
        <time>2025-03-02T11:28:26Z</time>
      </trkpt>
      <trkpt lat="45.7226" lon="4.67505">
        <ele>321.6</ele>
        <time>2025-03-02T11:28:27Z</time>
      </trkpt>
      <trkpt lat="45.72257" lon="4.67512">
        <ele>321.8</ele>
        <time>2025-03-02T11:28:28Z</time>
      </trkpt>
      <trkpt lat="45.72253" lon="4.67519">
        <ele>321.8</ele>
        <time>2025-03-02T11:28:29Z</time>
      </trkpt>
      <trkpt lat="45.72251" lon="4.67526">
        <ele>322.2</ele>
        <time>2025-03-02T11:28:30Z</time>
      </trkpt>
      <trkpt lat="45.72248" lon="4.67533">
        <ele>322.4</ele>
        <time>2025-03-02T11:28:31Z</time>
      </trkpt>
      <trkpt lat="45.72245" lon="4.67541">
        <ele>322.8</ele>
        <time>2025-03-02T11:28:32Z</time>
      </trkpt>
      <trkpt lat="45.72242" lon="4.67548">
        <ele>323.4</ele>
        <time>2025-03-02T11:28:33Z</time>
      </trkpt>
      <trkpt lat="45.7224" lon="4.67555">
        <ele>323.6</ele>
        <time>2025-03-02T11:28:34Z</time>
      </trkpt>
      <trkpt lat="45.72237" lon="4.67561">
        <ele>323.8</ele>
        <time>2025-03-02T11:28:35Z</time>
      </trkpt>
      <trkpt lat="45.72234" lon="4.67567">
        <ele>324.2</ele>
        <time>2025-03-02T11:28:36Z</time>
      </trkpt>
      <trkpt lat="45.72232" lon="4.67576">
        <ele>324.6</ele>
        <time>2025-03-02T11:28:37Z</time>
      </trkpt>
      <trkpt lat="45.72229" lon="4.67583">
        <ele>324.8</ele>
        <time>2025-03-02T11:28:38Z</time>
      </trkpt>
      <trkpt lat="45.72227" lon="4.67591">
        <ele>325.2</ele>
        <time>2025-03-02T11:28:39Z</time>
      </trkpt>
      <trkpt lat="45.72224" lon="4.67598">
        <ele>325.4</ele>
        <time>2025-03-02T11:28:40Z</time>
      </trkpt>
      <trkpt lat="45.72222" lon="4.67606">
        <ele>325.4</ele>
        <time>2025-03-02T11:28:41Z</time>
      </trkpt>
      <trkpt lat="45.72219" lon="4.67614">
        <ele>325.6</ele>
        <time>2025-03-02T11:28:42Z</time>
      </trkpt>
      <trkpt lat="45.72216" lon="4.67622">
        <ele>325.8</ele>
        <time>2025-03-02T11:28:43Z</time>
      </trkpt>
      <trkpt lat="45.72213" lon="4.67629">
        <ele>325.8</ele>
        <time>2025-03-02T11:28:44Z</time>
      </trkpt>
      <trkpt lat="45.7221" lon="4.67637">
        <ele>325.8</ele>
        <time>2025-03-02T11:28:45Z</time>
      </trkpt>
      <trkpt lat="45.72207" lon="4.67645">
        <ele>325.8</ele>
        <time>2025-03-02T11:28:46Z</time>
      </trkpt>
      <trkpt lat="45.72204" lon="4.67652">
        <ele>325.8</ele>
        <time>2025-03-02T11:28:47Z</time>
      </trkpt>
      <trkpt lat="45.72201" lon="4.67659">
        <ele>325.6</ele>
        <time>2025-03-02T11:28:48Z</time>
      </trkpt>
      <trkpt lat="45.72198" lon="4.67667">
        <ele>325.6</ele>
        <time>2025-03-02T11:28:49Z</time>
      </trkpt>
      <trkpt lat="45.72196" lon="4.67674">
        <ele>325.6</ele>
        <time>2025-03-02T11:28:50Z</time>
      </trkpt>
      <trkpt lat="45.72193" lon="4.67682">
        <ele>325.6</ele>
        <time>2025-03-02T11:28:51Z</time>
      </trkpt>
      <trkpt lat="45.7219" lon="4.67689">
        <ele>325.8</ele>
        <time>2025-03-02T11:28:52Z</time>
      </trkpt>
      <trkpt lat="45.72187" lon="4.67696">
        <ele>326</ele>
        <time>2025-03-02T11:28:53Z</time>
      </trkpt>
      <trkpt lat="45.72184" lon="4.67703">
        <ele>326</ele>
        <time>2025-03-02T11:28:54Z</time>
      </trkpt>
      <trkpt lat="45.72181" lon="4.6771">
        <ele>326.2</ele>
        <time>2025-03-02T11:28:55Z</time>
      </trkpt>
      <trkpt lat="45.72179" lon="4.67716">
        <ele>326.4</ele>
        <time>2025-03-02T11:28:56Z</time>
      </trkpt>
      <trkpt lat="45.72176" lon="4.67722">
        <ele>326.6</ele>
        <time>2025-03-02T11:28:57Z</time>
      </trkpt>
      <trkpt lat="45.72173" lon="4.67728">
        <ele>326.8</ele>
        <time>2025-03-02T11:28:58Z</time>
      </trkpt>
      <trkpt lat="45.7217" lon="4.67733">
        <ele>327.4</ele>
        <time>2025-03-02T11:28:59Z</time>
      </trkpt>
      <trkpt lat="45.72167" lon="4.67739">
        <ele>327.6</ele>
        <time>2025-03-02T11:29:00Z</time>
      </trkpt>
      <trkpt lat="45.72163" lon="4.67745">
        <ele>327.6</ele>
        <time>2025-03-02T11:29:01Z</time>
      </trkpt>
      <trkpt lat="45.72159" lon="4.67751">
        <ele>328</ele>
        <time>2025-03-02T11:29:02Z</time>
      </trkpt>
      <trkpt lat="45.72155" lon="4.67758">
        <ele>328.8</ele>
        <time>2025-03-02T11:29:03Z</time>
      </trkpt>
      <trkpt lat="45.72151" lon="4.67764">
        <ele>329.2</ele>
        <time>2025-03-02T11:29:04Z</time>
      </trkpt>
      <trkpt lat="45.72147" lon="4.6777">
        <ele>329.6</ele>
        <time>2025-03-02T11:29:05Z</time>
      </trkpt>
      <trkpt lat="45.72143" lon="4.67776">
        <ele>329.8</ele>
        <time>2025-03-02T11:29:06Z</time>
      </trkpt>
      <trkpt lat="45.7214" lon="4.67783">
        <ele>329.8</ele>
        <time>2025-03-02T11:29:07Z</time>
      </trkpt>
      <trkpt lat="45.72136" lon="4.67789">
        <ele>330.2</ele>
        <time>2025-03-02T11:29:08Z</time>
      </trkpt>
      <trkpt lat="45.72132" lon="4.67795">
        <ele>330.6</ele>
        <time>2025-03-02T11:29:09Z</time>
      </trkpt>
      <trkpt lat="45.72129" lon="4.67801">
        <ele>331</ele>
        <time>2025-03-02T11:29:10Z</time>
      </trkpt>
      <trkpt lat="45.72125" lon="4.67808">
        <ele>331</ele>
        <time>2025-03-02T11:29:11Z</time>
      </trkpt>
      <trkpt lat="45.72121" lon="4.67814">
        <ele>331</ele>
        <time>2025-03-02T11:29:12Z</time>
      </trkpt>
      <trkpt lat="45.72117" lon="4.67821">
        <ele>331.2</ele>
        <time>2025-03-02T11:29:13Z</time>
      </trkpt>
      <trkpt lat="45.72114" lon="4.67828">
        <ele>331.2</ele>
        <time>2025-03-02T11:29:14Z</time>
      </trkpt>
      <trkpt lat="45.7211" lon="4.67835">
        <ele>331.2</ele>
        <time>2025-03-02T11:29:15Z</time>
      </trkpt>
      <trkpt lat="45.72107" lon="4.67842">
        <ele>331.4</ele>
        <time>2025-03-02T11:29:16Z</time>
      </trkpt>
      <trkpt lat="45.72104" lon="4.67849">
        <ele>332</ele>
        <time>2025-03-02T11:29:17Z</time>
      </trkpt>
      <trkpt lat="45.72101" lon="4.67856">
        <ele>332.4</ele>
        <time>2025-03-02T11:29:18Z</time>
      </trkpt>
      <trkpt lat="45.72098" lon="4.67861">
        <ele>332.4</ele>
        <time>2025-03-02T11:29:19Z</time>
      </trkpt>
      <trkpt lat="45.72094" lon="4.6787">
        <ele>332.4</ele>
        <time>2025-03-02T11:29:20Z</time>
      </trkpt>
      <trkpt lat="45.72091" lon="4.67878">
        <ele>332.4</ele>
        <time>2025-03-02T11:29:21Z</time>
      </trkpt>
      <trkpt lat="45.72088" lon="4.67885">
        <ele>332.4</ele>
        <time>2025-03-02T11:29:22Z</time>
      </trkpt>
      <trkpt lat="45.72085" lon="4.67892">
        <ele>332.4</ele>
        <time>2025-03-02T11:29:23Z</time>
      </trkpt>
      <trkpt lat="45.72082" lon="4.679">
        <ele>332.4</ele>
        <time>2025-03-02T11:29:24Z</time>
      </trkpt>
      <trkpt lat="45.72079" lon="4.67907">
        <ele>332.4</ele>
        <time>2025-03-02T11:29:25Z</time>
      </trkpt>
      <trkpt lat="45.72076" lon="4.67914">
        <ele>333</ele>
        <time>2025-03-02T11:29:26Z</time>
      </trkpt>
      <trkpt lat="45.72073" lon="4.67921">
        <ele>333.2</ele>
        <time>2025-03-02T11:29:27Z</time>
      </trkpt>
      <trkpt lat="45.7207" lon="4.67928">
        <ele>333.4</ele>
        <time>2025-03-02T11:29:28Z</time>
      </trkpt>
      <trkpt lat="45.72067" lon="4.67935">
        <ele>333.6</ele>
        <time>2025-03-02T11:29:29Z</time>
      </trkpt>
      <trkpt lat="45.72064" lon="4.67942">
        <ele>333.8</ele>
        <time>2025-03-02T11:29:30Z</time>
      </trkpt>
      <trkpt lat="45.72062" lon="4.67948">
        <ele>333.8</ele>
        <time>2025-03-02T11:29:31Z</time>
      </trkpt>
      <trkpt lat="45.72059" lon="4.67954">
        <ele>334</ele>
        <time>2025-03-02T11:29:32Z</time>
      </trkpt>
      <trkpt lat="45.72057" lon="4.67961">
        <ele>334.6</ele>
        <time>2025-03-02T11:29:33Z</time>
      </trkpt>
      <trkpt lat="45.72054" lon="4.67969">
        <ele>334.8</ele>
        <time>2025-03-02T11:29:34Z</time>
      </trkpt>
      <trkpt lat="45.72052" lon="4.67977">
        <ele>334.8</ele>
        <time>2025-03-02T11:29:35Z</time>
      </trkpt>
      <trkpt lat="45.7205" lon="4.67985">
        <ele>334.8</ele>
        <time>2025-03-02T11:29:36Z</time>
      </trkpt>
      <trkpt lat="45.72048" lon="4.67993">
        <ele>334.8</ele>
        <time>2025-03-02T11:29:37Z</time>
      </trkpt>
      <trkpt lat="45.72045" lon="4.68001">
        <ele>334.8</ele>
        <time>2025-03-02T11:29:38Z</time>
      </trkpt>
      <trkpt lat="45.72043" lon="4.6801">
        <ele>334.8</ele>
        <time>2025-03-02T11:29:39Z</time>
      </trkpt>
      <trkpt lat="45.72041" lon="4.68018">
        <ele>334.8</ele>
        <time>2025-03-02T11:29:40Z</time>
      </trkpt>
      <trkpt lat="45.72039" lon="4.68027">
        <ele>334.6</ele>
        <time>2025-03-02T11:29:41Z</time>
      </trkpt>
      <trkpt lat="45.72037" lon="4.68036">
        <ele>334.6</ele>
        <time>2025-03-02T11:29:42Z</time>
      </trkpt>
      <trkpt lat="45.72034" lon="4.68045">
        <ele>334.4</ele>
        <time>2025-03-02T11:29:43Z</time>
      </trkpt>
      <trkpt lat="45.72032" lon="4.68054">
        <ele>334.2</ele>
        <time>2025-03-02T11:29:44Z</time>
      </trkpt>
      <trkpt lat="45.7203" lon="4.68062">
        <ele>333.4</ele>
        <time>2025-03-02T11:29:45Z</time>
      </trkpt>
      <trkpt lat="45.72028" lon="4.6807">
        <ele>333.2</ele>
        <time>2025-03-02T11:29:46Z</time>
      </trkpt>
      <trkpt lat="45.72026" lon="4.68079">
        <ele>333</ele>
        <time>2025-03-02T11:29:47Z</time>
      </trkpt>
      <trkpt lat="45.72024" lon="4.68088">
        <ele>333</ele>
        <time>2025-03-02T11:29:48Z</time>
      </trkpt>
      <trkpt lat="45.72022" lon="4.68097">
        <ele>333</ele>
        <time>2025-03-02T11:29:49Z</time>
      </trkpt>
      <trkpt lat="45.72021" lon="4.68106">
        <ele>333</ele>
        <time>2025-03-02T11:29:50Z</time>
      </trkpt>
      <trkpt lat="45.72019" lon="4.68114">
        <ele>333.4</ele>
        <time>2025-03-02T11:29:51Z</time>
      </trkpt>
      <trkpt lat="45.72016" lon="4.68123">
        <ele>333.4</ele>
        <time>2025-03-02T11:29:52Z</time>
      </trkpt>
      <trkpt lat="45.72014" lon="4.68132">
        <ele>333.4</ele>
        <time>2025-03-02T11:29:53Z</time>
      </trkpt>
      <trkpt lat="45.72012" lon="4.68142">
        <ele>333.4</ele>
        <time>2025-03-02T11:29:54Z</time>
      </trkpt>
      <trkpt lat="45.7201" lon="4.68151">
        <ele>333.4</ele>
        <time>2025-03-02T11:29:55Z</time>
      </trkpt>
      <trkpt lat="45.72007" lon="4.68159">
        <ele>333.4</ele>
        <time>2025-03-02T11:29:56Z</time>
      </trkpt>
      <trkpt lat="45.72006" lon="4.68168">
        <ele>333.2</ele>
        <time>2025-03-02T11:29:57Z</time>
      </trkpt>
      <trkpt lat="45.72003" lon="4.68178">
        <ele>332.8</ele>
        <time>2025-03-02T11:29:58Z</time>
      </trkpt>
      <trkpt lat="45.72001" lon="4.68187">
        <ele>332.6</ele>
        <time>2025-03-02T11:29:59Z</time>
      </trkpt>
      <trkpt lat="45.71998" lon="4.68195">
        <ele>332.2</ele>
        <time>2025-03-02T11:30:00Z</time>
      </trkpt>
      <trkpt lat="45.71996" lon="4.68204">
        <ele>332</ele>
        <time>2025-03-02T11:30:01Z</time>
      </trkpt>
      <trkpt lat="45.71994" lon="4.68211">
        <ele>331.8</ele>
        <time>2025-03-02T11:30:02Z</time>
      </trkpt>
      <trkpt lat="45.7199" lon="4.68222">
        <ele>331.2</ele>
        <time>2025-03-02T11:30:03Z</time>
      </trkpt>
      <trkpt lat="45.71987" lon="4.6823">
        <ele>331.2</ele>
        <time>2025-03-02T11:30:04Z</time>
      </trkpt>
      <trkpt lat="45.71984" lon="4.68239">
        <ele>331</ele>
        <time>2025-03-02T11:30:05Z</time>
      </trkpt>
      <trkpt lat="45.71982" lon="4.68247">
        <ele>330.8</ele>
        <time>2025-03-02T11:30:06Z</time>
      </trkpt>
      <trkpt lat="45.71979" lon="4.68256">
        <ele>330.8</ele>
        <time>2025-03-02T11:30:07Z</time>
      </trkpt>
      <trkpt lat="45.71976" lon="4.68265">
        <ele>330.8</ele>
        <time>2025-03-02T11:30:08Z</time>
      </trkpt>
      <trkpt lat="45.71973" lon="4.68273">
        <ele>330.6</ele>
        <time>2025-03-02T11:30:09Z</time>
      </trkpt>
      <trkpt lat="45.71971" lon="4.68282">
        <ele>330.6</ele>
        <time>2025-03-02T11:30:10Z</time>
      </trkpt>
      <trkpt lat="45.71968" lon="4.6829">
        <ele>330.6</ele>
        <time>2025-03-02T11:30:11Z</time>
      </trkpt>
      <trkpt lat="45.71965" lon="4.68298">
        <ele>330.4</ele>
        <time>2025-03-02T11:30:12Z</time>
      </trkpt>
      <trkpt lat="45.71962" lon="4.68307">
        <ele>330.2</ele>
        <time>2025-03-02T11:30:13Z</time>
      </trkpt>
      <trkpt lat="45.71959" lon="4.68315">
        <ele>330</ele>
        <time>2025-03-02T11:30:14Z</time>
      </trkpt>
      <trkpt lat="45.71956" lon="4.68323">
        <ele>329.8</ele>
        <time>2025-03-02T11:30:15Z</time>
      </trkpt>
      <trkpt lat="45.71953" lon="4.68331">
        <ele>329.6</ele>
        <time>2025-03-02T11:30:16Z</time>
      </trkpt>
      <trkpt lat="45.7195" lon="4.6834">
        <ele>329.6</ele>
        <time>2025-03-02T11:30:17Z</time>
      </trkpt>
      <trkpt lat="45.71947" lon="4.68348">
        <ele>329.4</ele>
        <time>2025-03-02T11:30:18Z</time>
      </trkpt>
      <trkpt lat="45.71945" lon="4.68356">
        <ele>328.8</ele>
        <time>2025-03-02T11:30:19Z</time>
      </trkpt>
      <trkpt lat="45.71943" lon="4.68364">
        <ele>328.6</ele>
        <time>2025-03-02T11:30:20Z</time>
      </trkpt>
      <trkpt lat="45.7194" lon="4.68373">
        <ele>328.4</ele>
        <time>2025-03-02T11:30:21Z</time>
      </trkpt>
      <trkpt lat="45.71937" lon="4.68381">
        <ele>328.2</ele>
        <time>2025-03-02T11:30:22Z</time>
      </trkpt>
      <trkpt lat="45.71934" lon="4.6839">
        <ele>328</ele>
        <time>2025-03-02T11:30:23Z</time>
      </trkpt>
      <trkpt lat="45.71931" lon="4.68398">
        <ele>328</ele>
        <time>2025-03-02T11:30:24Z</time>
      </trkpt>
      <trkpt lat="45.71928" lon="4.68406">
        <ele>328</ele>
        <time>2025-03-02T11:30:25Z</time>
      </trkpt>
      <trkpt lat="45.71924" lon="4.68415">
        <ele>327.8</ele>
        <time>2025-03-02T11:30:26Z</time>
      </trkpt>
      <trkpt lat="45.71921" lon="4.68422">
        <ele>327.8</ele>
        <time>2025-03-02T11:30:27Z</time>
      </trkpt>
      <trkpt lat="45.71918" lon="4.6843">
        <ele>327.8</ele>
        <time>2025-03-02T11:30:28Z</time>
      </trkpt>
      <trkpt lat="45.71915" lon="4.68438">
        <ele>327.8</ele>
        <time>2025-03-02T11:30:29Z</time>
      </trkpt>
      <trkpt lat="45.71912" lon="4.68446">
        <ele>327.8</ele>
        <time>2025-03-02T11:30:30Z</time>
      </trkpt>
      <trkpt lat="45.71909" lon="4.68453">
        <ele>327.6</ele>
        <time>2025-03-02T11:30:31Z</time>
      </trkpt>
      <trkpt lat="45.71906" lon="4.68461">
        <ele>327.4</ele>
        <time>2025-03-02T11:30:32Z</time>
      </trkpt>
      <trkpt lat="45.71903" lon="4.68468">
        <ele>327.4</ele>
        <time>2025-03-02T11:30:33Z</time>
      </trkpt>
      <trkpt lat="45.71899" lon="4.68475">
        <ele>327.4</ele>
        <time>2025-03-02T11:30:34Z</time>
      </trkpt>
      <trkpt lat="45.71895" lon="4.68483">
        <ele>327</ele>
        <time>2025-03-02T11:30:35Z</time>
      </trkpt>
      <trkpt lat="45.71892" lon="4.6849">
        <ele>327</ele>
        <time>2025-03-02T11:30:36Z</time>
      </trkpt>
      <trkpt lat="45.71889" lon="4.68497">
        <ele>327</ele>
        <time>2025-03-02T11:30:37Z</time>
      </trkpt>
      <trkpt lat="45.71885" lon="4.68504">
        <ele>327</ele>
        <time>2025-03-02T11:30:38Z</time>
      </trkpt>
      <trkpt lat="45.71883" lon="4.6851">
        <ele>327</ele>
        <time>2025-03-02T11:30:39Z</time>
      </trkpt>
      <trkpt lat="45.71879" lon="4.68518">
        <ele>327</ele>
        <time>2025-03-02T11:30:40Z</time>
      </trkpt>
      <trkpt lat="45.71875" lon="4.68524">
        <ele>327</ele>
        <time>2025-03-02T11:30:41Z</time>
      </trkpt>
      <trkpt lat="45.71872" lon="4.6853">
        <ele>327</ele>
        <time>2025-03-02T11:30:42Z</time>
      </trkpt>
      <trkpt lat="45.71868" lon="4.68537">
        <ele>327</ele>
        <time>2025-03-02T11:30:43Z</time>
      </trkpt>
      <trkpt lat="45.71865" lon="4.68544">
        <ele>327</ele>
        <time>2025-03-02T11:30:44Z</time>
      </trkpt>
      <trkpt lat="45.71863" lon="4.68549">
        <ele>326.8</ele>
        <time>2025-03-02T11:30:45Z</time>
      </trkpt>
      <trkpt lat="45.71858" lon="4.68556">
        <ele>326.8</ele>
        <time>2025-03-02T11:30:46Z</time>
      </trkpt>
      <trkpt lat="45.71855" lon="4.68563">
        <ele>326.8</ele>
        <time>2025-03-02T11:30:47Z</time>
      </trkpt>
      <trkpt lat="45.71851" lon="4.68569">
        <ele>326.8</ele>
        <time>2025-03-02T11:30:48Z</time>
      </trkpt>
      <trkpt lat="45.71848" lon="4.68576">
        <ele>326.8</ele>
        <time>2025-03-02T11:30:49Z</time>
      </trkpt>
      <trkpt lat="45.71844" lon="4.68583">
        <ele>326.8</ele>
        <time>2025-03-02T11:30:50Z</time>
      </trkpt>
      <trkpt lat="45.71841" lon="4.6859">
        <ele>326.8</ele>
        <time>2025-03-02T11:30:51Z</time>
      </trkpt>
      <trkpt lat="45.71837" lon="4.68597">
        <ele>327</ele>
        <time>2025-03-02T11:30:52Z</time>
      </trkpt>
      <trkpt lat="45.71834" lon="4.68605">
        <ele>327</ele>
        <time>2025-03-02T11:30:53Z</time>
      </trkpt>
      <trkpt lat="45.7183" lon="4.68612">
        <ele>327</ele>
        <time>2025-03-02T11:30:54Z</time>
      </trkpt>
      <trkpt lat="45.71827" lon="4.6862">
        <ele>327</ele>
        <time>2025-03-02T11:30:55Z</time>
      </trkpt>
      <trkpt lat="45.71824" lon="4.68627">
        <ele>326.6</ele>
        <time>2025-03-02T11:30:56Z</time>
      </trkpt>
      <trkpt lat="45.71821" lon="4.68634">
        <ele>326.4</ele>
        <time>2025-03-02T11:30:57Z</time>
      </trkpt>
      <trkpt lat="45.71818" lon="4.68641">
        <ele>326</ele>
        <time>2025-03-02T11:30:58Z</time>
      </trkpt>
      <trkpt lat="45.71815" lon="4.68647">
        <ele>326</ele>
        <time>2025-03-02T11:30:59Z</time>
      </trkpt>
      <trkpt lat="45.71813" lon="4.68653">
        <ele>326</ele>
        <time>2025-03-02T11:31:00Z</time>
      </trkpt>
      <trkpt lat="45.71811" lon="4.68659">
        <ele>326</ele>
        <time>2025-03-02T11:31:01Z</time>
      </trkpt>
      <trkpt lat="45.71809" lon="4.68666">
        <ele>326.2</ele>
        <time>2025-03-02T11:31:02Z</time>
      </trkpt>
      <trkpt lat="45.71807" lon="4.68673">
        <ele>326.2</ele>
        <time>2025-03-02T11:31:03Z</time>
      </trkpt>
      <trkpt lat="45.71805" lon="4.68679">
        <ele>326.4</ele>
        <time>2025-03-02T11:31:04Z</time>
      </trkpt>
      <trkpt lat="45.71803" lon="4.68686">
        <ele>326.4</ele>
        <time>2025-03-02T11:31:05Z</time>
      </trkpt>
      <trkpt lat="45.71802" lon="4.68692">
        <ele>326.8</ele>
        <time>2025-03-02T11:31:06Z</time>
      </trkpt>
      <trkpt lat="45.71801" lon="4.68697">
        <ele>327</ele>
        <time>2025-03-02T11:31:07Z</time>
      </trkpt>
      <trkpt lat="45.718" lon="4.68703">
        <ele>327.2</ele>
        <time>2025-03-02T11:31:08Z</time>
      </trkpt>
      <trkpt lat="45.71799" lon="4.68707">
        <ele>327.2</ele>
        <time>2025-03-02T11:31:09Z</time>
      </trkpt>
      <trkpt lat="45.71797" lon="4.6871">
        <ele>327.4</ele>
        <time>2025-03-02T11:31:10Z</time>
      </trkpt>
      <trkpt lat="45.71795" lon="4.68712">
        <ele>327.6</ele>
        <time>2025-03-02T11:31:11Z</time>
      </trkpt>
      <trkpt lat="45.71794" lon="4.68713">
        <ele>327.8</ele>
        <time>2025-03-02T11:31:12Z</time>
      </trkpt>
      <trkpt lat="45.71794" lon="4.68713">
        <ele>328</ele>
        <time>2025-03-02T11:31:13Z</time>
      </trkpt>
      <trkpt lat="45.71794" lon="4.68713">
        <ele>328</ele>
        <time>2025-03-02T11:31:14Z</time>
      </trkpt>
      <trkpt lat="45.71794" lon="4.68713">
        <ele>328</ele>
        <time>2025-03-02T11:31:15Z</time>
      </trkpt>
      <trkpt lat="45.71794" lon="4.68713">
        <ele>328.2</ele>
        <time>2025-03-02T11:31:16Z</time>
      </trkpt>
      <trkpt lat="45.71794" lon="4.68713">
        <ele>328.2</ele>
        <time>2025-03-02T11:31:17Z</time>
      </trkpt>
      <trkpt lat="45.71794" lon="4.68713">
        <ele>328.2</ele>
        <time>2025-03-02T11:31:18Z</time>
      </trkpt>
      <trkpt lat="45.71794" lon="4.68713">
        <ele>328.2</ele>
        <time>2025-03-02T11:31:19Z</time>
      </trkpt>
      <trkpt lat="45.71794" lon="4.68713">
        <ele>328.2</ele>
        <time>2025-03-02T11:31:20Z</time>
      </trkpt>
      <trkpt lat="45.71794" lon="4.68713">
        <ele>328.2</ele>
        <time>2025-03-02T11:31:21Z</time>
      </trkpt>
      <trkpt lat="45.71794" lon="4.68713">
        <ele>328.2</ele>
        <time>2025-03-02T11:31:22Z</time>
      </trkpt>
      <trkpt lat="45.71794" lon="4.68713">
        <ele>328.2</ele>
        <time>2025-03-02T11:31:23Z</time>
      </trkpt>
      <trkpt lat="45.71794" lon="4.68713">
        <ele>328.2</ele>
        <time>2025-03-02T11:31:24Z</time>
      </trkpt>
      <trkpt lat="45.71794" lon="4.68713">
        <ele>328.2</ele>
        <time>2025-03-02T11:31:25Z</time>
      </trkpt>
      <trkpt lat="45.71794" lon="4.68713">
        <ele>328.2</ele>
        <time>2025-03-02T11:31:26Z</time>
      </trkpt>
      <trkpt lat="45.71794" lon="4.68713">
        <ele>328.2</ele>
        <time>2025-03-02T11:31:27Z</time>
      </trkpt>
      <trkpt lat="45.71794" lon="4.68713">
        <ele>328</ele>
        <time>2025-03-02T11:31:28Z</time>
      </trkpt>
      <trkpt lat="45.71794" lon="4.68713">
        <ele>328</ele>
        <time>2025-03-02T11:31:29Z</time>
      </trkpt>
      <trkpt lat="45.71794" lon="4.68713">
        <ele>328</ele>
        <time>2025-03-02T11:31:30Z</time>
      </trkpt>
      <trkpt lat="45.71794" lon="4.68713">
        <ele>328</ele>
        <time>2025-03-02T11:31:31Z</time>
      </trkpt>
      <trkpt lat="45.71793" lon="4.68713">
        <ele>328</ele>
        <time>2025-03-02T11:31:32Z</time>
      </trkpt>
      <trkpt lat="45.71791" lon="4.68715">
        <ele>327.8</ele>
        <time>2025-03-02T11:31:33Z</time>
      </trkpt>
      <trkpt lat="45.71789" lon="4.68718">
        <ele>327.8</ele>
        <time>2025-03-02T11:31:34Z</time>
      </trkpt>
      <trkpt lat="45.71787" lon="4.68722">
        <ele>327.8</ele>
        <time>2025-03-02T11:31:35Z</time>
      </trkpt>
      <trkpt lat="45.71785" lon="4.68727">
        <ele>327.6</ele>
        <time>2025-03-02T11:31:36Z</time>
      </trkpt>
      <trkpt lat="45.71783" lon="4.68733">
        <ele>327</ele>
        <time>2025-03-02T11:31:37Z</time>
      </trkpt>
      <trkpt lat="45.7178" lon="4.68739">
        <ele>326.6</ele>
        <time>2025-03-02T11:31:38Z</time>
      </trkpt>
      <trkpt lat="45.71776" lon="4.68746">
        <ele>325.8</ele>
        <time>2025-03-02T11:31:39Z</time>
      </trkpt>
      <trkpt lat="45.71773" lon="4.68753">
        <ele>324.8</ele>
        <time>2025-03-02T11:31:40Z</time>
      </trkpt>
      <trkpt lat="45.71769" lon="4.6876">
        <ele>324.6</ele>
        <time>2025-03-02T11:31:41Z</time>
      </trkpt>
      <trkpt lat="45.71765" lon="4.68768">
        <ele>323.4</ele>
        <time>2025-03-02T11:31:42Z</time>
      </trkpt>
      <trkpt lat="45.71761" lon="4.68775">
        <ele>322.6</ele>
        <time>2025-03-02T11:31:43Z</time>
      </trkpt>
      <trkpt lat="45.71757" lon="4.68783">
        <ele>322.2</ele>
        <time>2025-03-02T11:31:44Z</time>
      </trkpt>
      <trkpt lat="45.71753" lon="4.6879">
        <ele>321.4</ele>
        <time>2025-03-02T11:31:45Z</time>
      </trkpt>
      <trkpt lat="45.71749" lon="4.68798">
        <ele>321.2</ele>
        <time>2025-03-02T11:31:46Z</time>
      </trkpt>
      <trkpt lat="45.71745" lon="4.68806">
        <ele>321</ele>
        <time>2025-03-02T11:31:47Z</time>
      </trkpt>
      <trkpt lat="45.71741" lon="4.68813">
        <ele>320.6</ele>
        <time>2025-03-02T11:31:48Z</time>
      </trkpt>
      <trkpt lat="45.71738" lon="4.6882">
        <ele>320.2</ele>
        <time>2025-03-02T11:31:49Z</time>
      </trkpt>
      <trkpt lat="45.71735" lon="4.68826">
        <ele>320</ele>
        <time>2025-03-02T11:31:50Z</time>
      </trkpt>
      <trkpt lat="45.7173" lon="4.68834">
        <ele>319.8</ele>
        <time>2025-03-02T11:31:51Z</time>
      </trkpt>
      <trkpt lat="45.71727" lon="4.6884">
        <ele>319.8</ele>
        <time>2025-03-02T11:31:52Z</time>
      </trkpt>
      <trkpt lat="45.71723" lon="4.68847">
        <ele>319.6</ele>
        <time>2025-03-02T11:31:53Z</time>
      </trkpt>
      <trkpt lat="45.71719" lon="4.68853">
        <ele>319.6</ele>
        <time>2025-03-02T11:31:54Z</time>
      </trkpt>
      <trkpt lat="45.71715" lon="4.6886">
        <ele>319.6</ele>
        <time>2025-03-02T11:31:55Z</time>
      </trkpt>
      <trkpt lat="45.71711" lon="4.68867">
        <ele>319.8</ele>
        <time>2025-03-02T11:31:56Z</time>
      </trkpt>
      <trkpt lat="45.71708" lon="4.68873">
        <ele>319.8</ele>
        <time>2025-03-02T11:31:57Z</time>
      </trkpt>
      <trkpt lat="45.71704" lon="4.6888">
        <ele>320</ele>
        <time>2025-03-02T11:31:58Z</time>
      </trkpt>
      <trkpt lat="45.717" lon="4.68886">
        <ele>320.2</ele>
        <time>2025-03-02T11:31:59Z</time>
      </trkpt>
      <trkpt lat="45.71696" lon="4.68892">
        <ele>320.4</ele>
        <time>2025-03-02T11:32:00Z</time>
      </trkpt>
      <trkpt lat="45.71692" lon="4.68899">
        <ele>320.6</ele>
        <time>2025-03-02T11:32:01Z</time>
      </trkpt>
      <trkpt lat="45.71688" lon="4.68905">
        <ele>320.6</ele>
        <time>2025-03-02T11:32:02Z</time>
      </trkpt>
      <trkpt lat="45.71684" lon="4.68911">
        <ele>320.8</ele>
        <time>2025-03-02T11:32:03Z</time>
      </trkpt>
      <trkpt lat="45.7168" lon="4.68918">
        <ele>320.8</ele>
        <time>2025-03-02T11:32:04Z</time>
      </trkpt>
      <trkpt lat="45.71677" lon="4.68924">
        <ele>321</ele>
        <time>2025-03-02T11:32:05Z</time>
      </trkpt>
      <trkpt lat="45.71674" lon="4.68931">
        <ele>321.2</ele>
        <time>2025-03-02T11:32:06Z</time>
      </trkpt>
      <trkpt lat="45.71672" lon="4.68937">
        <ele>321.2</ele>
        <time>2025-03-02T11:32:07Z</time>
      </trkpt>
      <trkpt lat="45.71669" lon="4.68943">
        <ele>321.6</ele>
        <time>2025-03-02T11:32:08Z</time>
      </trkpt>
      <trkpt lat="45.71667" lon="4.68949">
        <ele>321.8</ele>
        <time>2025-03-02T11:32:09Z</time>
      </trkpt>
      <trkpt lat="45.71664" lon="4.68954">
        <ele>322</ele>
        <time>2025-03-02T11:32:10Z</time>
      </trkpt>
      <trkpt lat="45.71661" lon="4.68959">
        <ele>322.4</ele>
        <time>2025-03-02T11:32:11Z</time>
      </trkpt>
      <trkpt lat="45.71659" lon="4.68963">
        <ele>322.8</ele>
        <time>2025-03-02T11:32:12Z</time>
      </trkpt>
      <trkpt lat="45.71656" lon="4.68969">
        <ele>322.8</ele>
        <time>2025-03-02T11:32:13Z</time>
      </trkpt>
      <trkpt lat="45.71653" lon="4.68975">
        <ele>323</ele>
        <time>2025-03-02T11:32:14Z</time>
      </trkpt>
      <trkpt lat="45.7165" lon="4.68981">
        <ele>323.2</ele>
        <time>2025-03-02T11:32:15Z</time>
      </trkpt>
      <trkpt lat="45.71647" lon="4.68987">
        <ele>323.6</ele>
        <time>2025-03-02T11:32:16Z</time>
      </trkpt>
      <trkpt lat="45.71644" lon="4.68993">
        <ele>323.6</ele>
        <time>2025-03-02T11:32:17Z</time>
      </trkpt>
      <trkpt lat="45.71641" lon="4.68999">
        <ele>323.6</ele>
        <time>2025-03-02T11:32:18Z</time>
      </trkpt>
      <trkpt lat="45.71638" lon="4.69005">
        <ele>323.6</ele>
        <time>2025-03-02T11:32:19Z</time>
      </trkpt>
      <trkpt lat="45.71635" lon="4.69012">
        <ele>323.6</ele>
        <time>2025-03-02T11:32:20Z</time>
      </trkpt>
      <trkpt lat="45.71632" lon="4.69019">
        <ele>323.6</ele>
        <time>2025-03-02T11:32:21Z</time>
      </trkpt>
      <trkpt lat="45.71628" lon="4.69025">
        <ele>323.4</ele>
        <time>2025-03-02T11:32:22Z</time>
      </trkpt>
      <trkpt lat="45.71625" lon="4.69032">
        <ele>323.4</ele>
        <time>2025-03-02T11:32:23Z</time>
      </trkpt>
      <trkpt lat="45.71622" lon="4.6904">
        <ele>323.4</ele>
        <time>2025-03-02T11:32:24Z</time>
      </trkpt>
      <trkpt lat="45.71619" lon="4.69047">
        <ele>323.4</ele>
        <time>2025-03-02T11:32:25Z</time>
      </trkpt>
      <trkpt lat="45.71616" lon="4.69053">
        <ele>323.4</ele>
        <time>2025-03-02T11:32:26Z</time>
      </trkpt>
      <trkpt lat="45.71613" lon="4.6906">
        <ele>323.4</ele>
        <time>2025-03-02T11:32:27Z</time>
      </trkpt>
      <trkpt lat="45.7161" lon="4.69066">
        <ele>323.4</ele>
        <time>2025-03-02T11:32:28Z</time>
      </trkpt>
      <trkpt lat="45.71607" lon="4.69072">
        <ele>323.4</ele>
        <time>2025-03-02T11:32:29Z</time>
      </trkpt>
      <trkpt lat="45.71604" lon="4.69079">
        <ele>323.4</ele>
        <time>2025-03-02T11:32:30Z</time>
      </trkpt>
      <trkpt lat="45.71602" lon="4.69085">
        <ele>323.4</ele>
        <time>2025-03-02T11:32:31Z</time>
      </trkpt>
      <trkpt lat="45.716" lon="4.69091">
        <ele>323.2</ele>
        <time>2025-03-02T11:32:32Z</time>
      </trkpt>
      <trkpt lat="45.71598" lon="4.69094">
        <ele>323.2</ele>
        <time>2025-03-02T11:32:33Z</time>
      </trkpt>
      <trkpt lat="45.71597" lon="4.69098">
        <ele>323.2</ele>
        <time>2025-03-02T11:32:34Z</time>
      </trkpt>
      <trkpt lat="45.71596" lon="4.691">
        <ele>323.2</ele>
        <time>2025-03-02T11:32:35Z</time>
      </trkpt>
      <trkpt lat="45.71595" lon="4.69104">
        <ele>323.2</ele>
        <time>2025-03-02T11:32:36Z</time>
      </trkpt>
      <trkpt lat="45.71594" lon="4.69107">
        <ele>323.2</ele>
        <time>2025-03-02T11:32:37Z</time>
      </trkpt>
      <trkpt lat="45.71593" lon="4.69111">
        <ele>323.2</ele>
        <time>2025-03-02T11:32:38Z</time>
      </trkpt>
      <trkpt lat="45.71592" lon="4.69115">
        <ele>323.2</ele>
        <time>2025-03-02T11:32:39Z</time>
      </trkpt>
      <trkpt lat="45.7159" lon="4.69119">
        <ele>323.2</ele>
        <time>2025-03-02T11:32:40Z</time>
      </trkpt>
      <trkpt lat="45.71589" lon="4.69125">
        <ele>323</ele>
        <time>2025-03-02T11:32:41Z</time>
      </trkpt>
      <trkpt lat="45.71586" lon="4.69131">
        <ele>322.8</ele>
        <time>2025-03-02T11:32:42Z</time>
      </trkpt>
      <trkpt lat="45.71582" lon="4.69138">
        <ele>322.4</ele>
        <time>2025-03-02T11:32:43Z</time>
      </trkpt>
      <trkpt lat="45.71578" lon="4.69145">
        <ele>322</ele>
        <time>2025-03-02T11:32:44Z</time>
      </trkpt>
      <trkpt lat="45.71574" lon="4.69152">
        <ele>321.8</ele>
        <time>2025-03-02T11:32:45Z</time>
      </trkpt>
      <trkpt lat="45.7157" lon="4.69159">
        <ele>321.4</ele>
        <time>2025-03-02T11:32:46Z</time>
      </trkpt>
      <trkpt lat="45.71567" lon="4.69167">
        <ele>321.2</ele>
        <time>2025-03-02T11:32:47Z</time>
      </trkpt>
      <trkpt lat="45.71563" lon="4.69174">
        <ele>320.8</ele>
        <time>2025-03-02T11:32:48Z</time>
      </trkpt>
      <trkpt lat="45.71558" lon="4.69182">
        <ele>320.6</ele>
        <time>2025-03-02T11:32:49Z</time>
      </trkpt>
      <trkpt lat="45.71554" lon="4.69189">
        <ele>320.4</ele>
        <time>2025-03-02T11:32:50Z</time>
      </trkpt>
      <trkpt lat="45.7155" lon="4.69197">
        <ele>320.4</ele>
        <time>2025-03-02T11:32:51Z</time>
      </trkpt>
      <trkpt lat="45.71546" lon="4.69204">
        <ele>320.4</ele>
        <time>2025-03-02T11:32:52Z</time>
      </trkpt>
      <trkpt lat="45.71542" lon="4.69211">
        <ele>320.2</ele>
        <time>2025-03-02T11:32:53Z</time>
      </trkpt>
      <trkpt lat="45.71539" lon="4.69219">
        <ele>320.2</ele>
        <time>2025-03-02T11:32:54Z</time>
      </trkpt>
      <trkpt lat="45.71536" lon="4.69224">
        <ele>320</ele>
        <time>2025-03-02T11:32:55Z</time>
      </trkpt>
      <trkpt lat="45.71531" lon="4.69233">
        <ele>320</ele>
        <time>2025-03-02T11:32:56Z</time>
      </trkpt>
      <trkpt lat="45.71527" lon="4.69239">
        <ele>319.6</ele>
        <time>2025-03-02T11:32:57Z</time>
      </trkpt>
      <trkpt lat="45.71524" lon="4.69246">
        <ele>319.4</ele>
        <time>2025-03-02T11:32:58Z</time>
      </trkpt>
      <trkpt lat="45.71521" lon="4.69253">
        <ele>319.2</ele>
        <time>2025-03-02T11:32:59Z</time>
      </trkpt>
      <trkpt lat="45.71518" lon="4.6926">
        <ele>319</ele>
        <time>2025-03-02T11:33:00Z</time>
      </trkpt>
      <trkpt lat="45.71515" lon="4.69266">
        <ele>318.6</ele>
        <time>2025-03-02T11:33:01Z</time>
      </trkpt>
      <trkpt lat="45.71512" lon="4.69272">
        <ele>318.6</ele>
        <time>2025-03-02T11:33:02Z</time>
      </trkpt>
      <trkpt lat="45.71508" lon="4.69278">
        <ele>318.6</ele>
        <time>2025-03-02T11:33:03Z</time>
      </trkpt>
      <trkpt lat="45.71506" lon="4.69285">
        <ele>318.4</ele>
        <time>2025-03-02T11:33:04Z</time>
      </trkpt>
      <trkpt lat="45.71503" lon="4.69291">
        <ele>318.4</ele>
        <time>2025-03-02T11:33:05Z</time>
      </trkpt>
      <trkpt lat="45.715" lon="4.69297">
        <ele>318.4</ele>
        <time>2025-03-02T11:33:06Z</time>
      </trkpt>
      <trkpt lat="45.71497" lon="4.69303">
        <ele>318.4</ele>
        <time>2025-03-02T11:33:07Z</time>
      </trkpt>
      <trkpt lat="45.71494" lon="4.69308">
        <ele>318.4</ele>
        <time>2025-03-02T11:33:08Z</time>
      </trkpt>
      <trkpt lat="45.71491" lon="4.69313">
        <ele>318.4</ele>
        <time>2025-03-02T11:33:09Z</time>
      </trkpt>
      <trkpt lat="45.71488" lon="4.69317">
        <ele>318.4</ele>
        <time>2025-03-02T11:33:10Z</time>
      </trkpt>
      <trkpt lat="45.71485" lon="4.69321">
        <ele>318.6</ele>
        <time>2025-03-02T11:33:11Z</time>
      </trkpt>
      <trkpt lat="45.71482" lon="4.69327">
        <ele>318.6</ele>
        <time>2025-03-02T11:33:12Z</time>
      </trkpt>
      <trkpt lat="45.71479" lon="4.69333">
        <ele>318.6</ele>
        <time>2025-03-02T11:33:13Z</time>
      </trkpt>
      <trkpt lat="45.71475" lon="4.6934">
        <ele>318.6</ele>
        <time>2025-03-02T11:33:14Z</time>
      </trkpt>
      <trkpt lat="45.71471" lon="4.69346">
        <ele>318.2</ele>
        <time>2025-03-02T11:33:15Z</time>
      </trkpt>
      <trkpt lat="45.71467" lon="4.69353">
        <ele>317.8</ele>
        <time>2025-03-02T11:33:16Z</time>
      </trkpt>
      <trkpt lat="45.71463" lon="4.6936">
        <ele>317.6</ele>
        <time>2025-03-02T11:33:17Z</time>
      </trkpt>
      <trkpt lat="45.71459" lon="4.69366">
        <ele>317.6</ele>
        <time>2025-03-02T11:33:18Z</time>
      </trkpt>
      <trkpt lat="45.71455" lon="4.69372">
        <ele>317.6</ele>
        <time>2025-03-02T11:33:19Z</time>
      </trkpt>
      <trkpt lat="45.71451" lon="4.69379">
        <ele>317.6</ele>
        <time>2025-03-02T11:33:20Z</time>
      </trkpt>
      <trkpt lat="45.71446" lon="4.69385">
        <ele>317.8</ele>
        <time>2025-03-02T11:33:21Z</time>
      </trkpt>
      <trkpt lat="45.71442" lon="4.69392">
        <ele>317.8</ele>
        <time>2025-03-02T11:33:22Z</time>
      </trkpt>
      <trkpt lat="45.71438" lon="4.69398">
        <ele>318</ele>
        <time>2025-03-02T11:33:23Z</time>
      </trkpt>
      <trkpt lat="45.71434" lon="4.69405">
        <ele>318</ele>
        <time>2025-03-02T11:33:24Z</time>
      </trkpt>
      <trkpt lat="45.71429" lon="4.69412">
        <ele>318.2</ele>
        <time>2025-03-02T11:33:25Z</time>
      </trkpt>
      <trkpt lat="45.71425" lon="4.69419">
        <ele>318.2</ele>
        <time>2025-03-02T11:33:26Z</time>
      </trkpt>
      <trkpt lat="45.71421" lon="4.69426">
        <ele>318.2</ele>
        <time>2025-03-02T11:33:27Z</time>
      </trkpt>
      <trkpt lat="45.71417" lon="4.69433">
        <ele>318</ele>
        <time>2025-03-02T11:33:28Z</time>
      </trkpt>
      <trkpt lat="45.71413" lon="4.6944">
        <ele>317.8</ele>
        <time>2025-03-02T11:33:29Z</time>
      </trkpt>
      <trkpt lat="45.71409" lon="4.69447">
        <ele>317.6</ele>
        <time>2025-03-02T11:33:30Z</time>
      </trkpt>
      <trkpt lat="45.71406" lon="4.69454">
        <ele>317.4</ele>
        <time>2025-03-02T11:33:31Z</time>
      </trkpt>
      <trkpt lat="45.71402" lon="4.69461">
        <ele>317.2</ele>
        <time>2025-03-02T11:33:32Z</time>
      </trkpt>
      <trkpt lat="45.71398" lon="4.69468">
        <ele>317.2</ele>
        <time>2025-03-02T11:33:33Z</time>
      </trkpt>
      <trkpt lat="45.71395" lon="4.69475">
        <ele>317.2</ele>
        <time>2025-03-02T11:33:34Z</time>
      </trkpt>
      <trkpt lat="45.71392" lon="4.69482">
        <ele>317.2</ele>
        <time>2025-03-02T11:33:35Z</time>
      </trkpt>
      <trkpt lat="45.71388" lon="4.69489">
        <ele>317.4</ele>
        <time>2025-03-02T11:33:36Z</time>
      </trkpt>
      <trkpt lat="45.71385" lon="4.69496">
        <ele>317.4</ele>
        <time>2025-03-02T11:33:37Z</time>
      </trkpt>
      <trkpt lat="45.71382" lon="4.69502">
        <ele>317.4</ele>
        <time>2025-03-02T11:33:38Z</time>
      </trkpt>
      <trkpt lat="45.71378" lon="4.69511">
        <ele>317.4</ele>
        <time>2025-03-02T11:33:39Z</time>
      </trkpt>
      <trkpt lat="45.71375" lon="4.69517">
        <ele>317.4</ele>
        <time>2025-03-02T11:33:40Z</time>
      </trkpt>
      <trkpt lat="45.71371" lon="4.69527">
        <ele>317.2</ele>
        <time>2025-03-02T11:33:41Z</time>
      </trkpt>
      <trkpt lat="45.71367" lon="4.69534">
        <ele>317</ele>
        <time>2025-03-02T11:33:42Z</time>
      </trkpt>
      <trkpt lat="45.71364" lon="4.69542">
        <ele>316.6</ele>
        <time>2025-03-02T11:33:43Z</time>
      </trkpt>
      <trkpt lat="45.7136" lon="4.6955">
        <ele>316</ele>
        <time>2025-03-02T11:33:44Z</time>
      </trkpt>
      <trkpt lat="45.71357" lon="4.69557">
        <ele>315.8</ele>
        <time>2025-03-02T11:33:45Z</time>
      </trkpt>
      <trkpt lat="45.71353" lon="4.69565">
        <ele>315.6</ele>
        <time>2025-03-02T11:33:46Z</time>
      </trkpt>
      <trkpt lat="45.7135" lon="4.69573">
        <ele>315.6</ele>
        <time>2025-03-02T11:33:47Z</time>
      </trkpt>
      <trkpt lat="45.71347" lon="4.6958">
        <ele>315.6</ele>
        <time>2025-03-02T11:33:48Z</time>
      </trkpt>
      <trkpt lat="45.71343" lon="4.69587">
        <ele>315.6</ele>
        <time>2025-03-02T11:33:49Z</time>
      </trkpt>
      <trkpt lat="45.7134" lon="4.69593">
        <ele>315.6</ele>
        <time>2025-03-02T11:33:50Z</time>
      </trkpt>
      <trkpt lat="45.71337" lon="4.69599">
        <ele>315.6</ele>
        <time>2025-03-02T11:33:51Z</time>
      </trkpt>
      <trkpt lat="45.71335" lon="4.69605">
        <ele>315.8</ele>
        <time>2025-03-02T11:33:52Z</time>
      </trkpt>
      <trkpt lat="45.71332" lon="4.69611">
        <ele>316</ele>
        <time>2025-03-02T11:33:53Z</time>
      </trkpt>
      <trkpt lat="45.71329" lon="4.69616">
        <ele>316</ele>
        <time>2025-03-02T11:33:54Z</time>
      </trkpt>
      <trkpt lat="45.71326" lon="4.69622">
        <ele>316.4</ele>
        <time>2025-03-02T11:33:55Z</time>
      </trkpt>
      <trkpt lat="45.71323" lon="4.69628">
        <ele>316.4</ele>
        <time>2025-03-02T11:33:56Z</time>
      </trkpt>
      <trkpt lat="45.7132" lon="4.69634">
        <ele>316.4</ele>
        <time>2025-03-02T11:33:57Z</time>
      </trkpt>
      <trkpt lat="45.71317" lon="4.69641">
        <ele>316.4</ele>
        <time>2025-03-02T11:33:58Z</time>
      </trkpt>
      <trkpt lat="45.71314" lon="4.69648">
        <ele>316.4</ele>
        <time>2025-03-02T11:33:59Z</time>
      </trkpt>
      <trkpt lat="45.71311" lon="4.69655">
        <ele>316.4</ele>
        <time>2025-03-02T11:34:00Z</time>
      </trkpt>
      <trkpt lat="45.71307" lon="4.69662">
        <ele>316.2</ele>
        <time>2025-03-02T11:34:01Z</time>
      </trkpt>
      <trkpt lat="45.71304" lon="4.69669">
        <ele>316.2</ele>
        <time>2025-03-02T11:34:02Z</time>
      </trkpt>
      <trkpt lat="45.71301" lon="4.69676">
        <ele>316</ele>
        <time>2025-03-02T11:34:03Z</time>
      </trkpt>
      <trkpt lat="45.71297" lon="4.69684">
        <ele>315.8</ele>
        <time>2025-03-02T11:34:04Z</time>
      </trkpt>
      <trkpt lat="45.71294" lon="4.69691">
        <ele>315.6</ele>
        <time>2025-03-02T11:34:05Z</time>
      </trkpt>
      <trkpt lat="45.7129" lon="4.69698">
        <ele>315.6</ele>
        <time>2025-03-02T11:34:06Z</time>
      </trkpt>
      <trkpt lat="45.71286" lon="4.69705">
        <ele>315.6</ele>
        <time>2025-03-02T11:34:07Z</time>
      </trkpt>
      <trkpt lat="45.71283" lon="4.69713">
        <ele>315.6</ele>
        <time>2025-03-02T11:34:08Z</time>
      </trkpt>
      <trkpt lat="45.71279" lon="4.6972">
        <ele>315.4</ele>
        <time>2025-03-02T11:34:09Z</time>
      </trkpt>
      <trkpt lat="45.71276" lon="4.69728">
        <ele>315.4</ele>
        <time>2025-03-02T11:34:10Z</time>
      </trkpt>
      <trkpt lat="45.71272" lon="4.69736">
        <ele>315.2</ele>
        <time>2025-03-02T11:34:11Z</time>
      </trkpt>
      <trkpt lat="45.71268" lon="4.69743">
        <ele>315.2</ele>
        <time>2025-03-02T11:34:12Z</time>
      </trkpt>
      <trkpt lat="45.71265" lon="4.69751">
        <ele>315.2</ele>
        <time>2025-03-02T11:34:13Z</time>
      </trkpt>
      <trkpt lat="45.71261" lon="4.69758">
        <ele>315</ele>
        <time>2025-03-02T11:34:14Z</time>
      </trkpt>
      <trkpt lat="45.71257" lon="4.69766">
        <ele>315</ele>
        <time>2025-03-02T11:34:15Z</time>
      </trkpt>
      <trkpt lat="45.71253" lon="4.69773">
        <ele>315</ele>
        <time>2025-03-02T11:34:16Z</time>
      </trkpt>
      <trkpt lat="45.7125" lon="4.69781">
        <ele>315</ele>
        <time>2025-03-02T11:34:17Z</time>
      </trkpt>
      <trkpt lat="45.71246" lon="4.69788">
        <ele>314.6</ele>
        <time>2025-03-02T11:34:18Z</time>
      </trkpt>
      <trkpt lat="45.71243" lon="4.69796">
        <ele>314.2</ele>
        <time>2025-03-02T11:34:19Z</time>
      </trkpt>
      <trkpt lat="45.7124" lon="4.69804">
        <ele>314.2</ele>
        <time>2025-03-02T11:34:20Z</time>
      </trkpt>
      <trkpt lat="45.71237" lon="4.6981">
        <ele>314.2</ele>
        <time>2025-03-02T11:34:21Z</time>
      </trkpt>
      <trkpt lat="45.71232" lon="4.69818">
        <ele>314.2</ele>
        <time>2025-03-02T11:34:22Z</time>
      </trkpt>
      <trkpt lat="45.71229" lon="4.69826">
        <ele>314</ele>
        <time>2025-03-02T11:34:23Z</time>
      </trkpt>
      <trkpt lat="45.71225" lon="4.69833">
        <ele>314</ele>
        <time>2025-03-02T11:34:24Z</time>
      </trkpt>
      <trkpt lat="45.71222" lon="4.69841">
        <ele>314</ele>
        <time>2025-03-02T11:34:25Z</time>
      </trkpt>
      <trkpt lat="45.71219" lon="4.69848">
        <ele>313.8</ele>
        <time>2025-03-02T11:34:26Z</time>
      </trkpt>
      <trkpt lat="45.71215" lon="4.69856">
        <ele>313.8</ele>
        <time>2025-03-02T11:34:27Z</time>
      </trkpt>
      <trkpt lat="45.71211" lon="4.69863">
        <ele>313.6</ele>
        <time>2025-03-02T11:34:28Z</time>
      </trkpt>
      <trkpt lat="45.71207" lon="4.6987">
        <ele>313.6</ele>
        <time>2025-03-02T11:34:29Z</time>
      </trkpt>
      <trkpt lat="45.71203" lon="4.69878">
        <ele>313.4</ele>
        <time>2025-03-02T11:34:30Z</time>
      </trkpt>
      <trkpt lat="45.71199" lon="4.69885">
        <ele>313.4</ele>
        <time>2025-03-02T11:34:31Z</time>
      </trkpt>
      <trkpt lat="45.71195" lon="4.69891">
        <ele>313.4</ele>
        <time>2025-03-02T11:34:32Z</time>
      </trkpt>
      <trkpt lat="45.7119" lon="4.69898">
        <ele>313.4</ele>
        <time>2025-03-02T11:34:33Z</time>
      </trkpt>
      <trkpt lat="45.71186" lon="4.69905">
        <ele>313.4</ele>
        <time>2025-03-02T11:34:34Z</time>
      </trkpt>
      <trkpt lat="45.71181" lon="4.69912">
        <ele>313.2</ele>
        <time>2025-03-02T11:34:35Z</time>
      </trkpt>
      <trkpt lat="45.71177" lon="4.69919">
        <ele>313</ele>
        <time>2025-03-02T11:34:36Z</time>
      </trkpt>
      <trkpt lat="45.71172" lon="4.69925">
        <ele>313</ele>
        <time>2025-03-02T11:34:37Z</time>
      </trkpt>
      <trkpt lat="45.71168" lon="4.69932">
        <ele>312.8</ele>
        <time>2025-03-02T11:34:38Z</time>
      </trkpt>
      <trkpt lat="45.71164" lon="4.69939">
        <ele>312.8</ele>
        <time>2025-03-02T11:34:39Z</time>
      </trkpt>
      <trkpt lat="45.7116" lon="4.69945">
        <ele>312.8</ele>
        <time>2025-03-02T11:34:40Z</time>
      </trkpt>
      <trkpt lat="45.71155" lon="4.69952">
        <ele>312.8</ele>
        <time>2025-03-02T11:34:41Z</time>
      </trkpt>
      <trkpt lat="45.7115" lon="4.69959">
        <ele>312.8</ele>
        <time>2025-03-02T11:34:42Z</time>
      </trkpt>
      <trkpt lat="45.71146" lon="4.69966">
        <ele>312.8</ele>
        <time>2025-03-02T11:34:43Z</time>
      </trkpt>
      <trkpt lat="45.71141" lon="4.69972">
        <ele>312.8</ele>
        <time>2025-03-02T11:34:44Z</time>
      </trkpt>
      <trkpt lat="45.71137" lon="4.69979">
        <ele>312.8</ele>
        <time>2025-03-02T11:34:45Z</time>
      </trkpt>
      <trkpt lat="45.71132" lon="4.69986">
        <ele>312.8</ele>
        <time>2025-03-02T11:34:46Z</time>
      </trkpt>
      <trkpt lat="45.71128" lon="4.69992">
        <ele>312.6</ele>
        <time>2025-03-02T11:34:47Z</time>
      </trkpt>
      <trkpt lat="45.71123" lon="4.69999">
        <ele>312.6</ele>
        <time>2025-03-02T11:34:48Z</time>
      </trkpt>
      <trkpt lat="45.71119" lon="4.70006">
        <ele>312.6</ele>
        <time>2025-03-02T11:34:49Z</time>
      </trkpt>
      <trkpt lat="45.71115" lon="4.70013">
        <ele>312.6</ele>
        <time>2025-03-02T11:34:50Z</time>
      </trkpt>
      <trkpt lat="45.7111" lon="4.7002">
        <ele>312.6</ele>
        <time>2025-03-02T11:34:51Z</time>
      </trkpt>
      <trkpt lat="45.71106" lon="4.70027">
        <ele>312.4</ele>
        <time>2025-03-02T11:34:52Z</time>
      </trkpt>
      <trkpt lat="45.71102" lon="4.70034">
        <ele>312.4</ele>
        <time>2025-03-02T11:34:53Z</time>
      </trkpt>
      <trkpt lat="45.71097" lon="4.70041">
        <ele>312.2</ele>
        <time>2025-03-02T11:34:54Z</time>
      </trkpt>
      <trkpt lat="45.71093" lon="4.70048">
        <ele>312</ele>
        <time>2025-03-02T11:34:55Z</time>
      </trkpt>
      <trkpt lat="45.71089" lon="4.70055">
        <ele>312</ele>
        <time>2025-03-02T11:34:56Z</time>
      </trkpt>
      <trkpt lat="45.71084" lon="4.70062">
        <ele>312</ele>
        <time>2025-03-02T11:34:57Z</time>
      </trkpt>
      <trkpt lat="45.7108" lon="4.70069">
        <ele>312</ele>
        <time>2025-03-02T11:34:58Z</time>
      </trkpt>
      <trkpt lat="45.71076" lon="4.70075">
        <ele>312</ele>
        <time>2025-03-02T11:34:59Z</time>
      </trkpt>
      <trkpt lat="45.71072" lon="4.70082">
        <ele>312</ele>
        <time>2025-03-02T11:35:00Z</time>
      </trkpt>
      <trkpt lat="45.71068" lon="4.70089">
        <ele>312</ele>
        <time>2025-03-02T11:35:01Z</time>
      </trkpt>
      <trkpt lat="45.71065" lon="4.70096">
        <ele>312</ele>
        <time>2025-03-02T11:35:02Z</time>
      </trkpt>
      <trkpt lat="45.71061" lon="4.70104">
        <ele>312</ele>
        <time>2025-03-02T11:35:03Z</time>
      </trkpt>
      <trkpt lat="45.71058" lon="4.7011">
        <ele>312</ele>
        <time>2025-03-02T11:35:04Z</time>
      </trkpt>
      <trkpt lat="45.71054" lon="4.70118">
        <ele>311.8</ele>
        <time>2025-03-02T11:35:05Z</time>
      </trkpt>
      <trkpt lat="45.7105" lon="4.70125">
        <ele>311.8</ele>
        <time>2025-03-02T11:35:06Z</time>
      </trkpt>
      <trkpt lat="45.71046" lon="4.70132">
        <ele>311.8</ele>
        <time>2025-03-02T11:35:07Z</time>
      </trkpt>
      <trkpt lat="45.71043" lon="4.70139">
        <ele>311.8</ele>
        <time>2025-03-02T11:35:08Z</time>
      </trkpt>
      <trkpt lat="45.7104" lon="4.70146">
        <ele>312</ele>
        <time>2025-03-02T11:35:09Z</time>
      </trkpt>
      <trkpt lat="45.71036" lon="4.70154">
        <ele>312.2</ele>
        <time>2025-03-02T11:35:10Z</time>
      </trkpt>
      <trkpt lat="45.71032" lon="4.70161">
        <ele>312.2</ele>
        <time>2025-03-02T11:35:11Z</time>
      </trkpt>
      <trkpt lat="45.71029" lon="4.70168">
        <ele>312.2</ele>
        <time>2025-03-02T11:35:12Z</time>
      </trkpt>
      <trkpt lat="45.71025" lon="4.70176">
        <ele>312.2</ele>
        <time>2025-03-02T11:35:13Z</time>
      </trkpt>
      <trkpt lat="45.71022" lon="4.70183">
        <ele>312.2</ele>
        <time>2025-03-02T11:35:14Z</time>
      </trkpt>
      <trkpt lat="45.71019" lon="4.7019">
        <ele>312.2</ele>
        <time>2025-03-02T11:35:15Z</time>
      </trkpt>
      <trkpt lat="45.71015" lon="4.70197">
        <ele>312.2</ele>
        <time>2025-03-02T11:35:16Z</time>
      </trkpt>
      <trkpt lat="45.71012" lon="4.70205">
        <ele>312.4</ele>
        <time>2025-03-02T11:35:17Z</time>
      </trkpt>
      <trkpt lat="45.71009" lon="4.70212">
        <ele>312.4</ele>
        <time>2025-03-02T11:35:18Z</time>
      </trkpt>
      <trkpt lat="45.71005" lon="4.70219">
        <ele>312.4</ele>
        <time>2025-03-02T11:35:19Z</time>
      </trkpt>
      <trkpt lat="45.71002" lon="4.70226">
        <ele>312.4</ele>
        <time>2025-03-02T11:35:20Z</time>
      </trkpt>
      <trkpt lat="45.70999" lon="4.70233">
        <ele>312.4</ele>
        <time>2025-03-02T11:35:21Z</time>
      </trkpt>
      <trkpt lat="45.70995" lon="4.7024">
        <ele>312.4</ele>
        <time>2025-03-02T11:35:22Z</time>
      </trkpt>
      <trkpt lat="45.70992" lon="4.70248">
        <ele>312.4</ele>
        <time>2025-03-02T11:35:23Z</time>
      </trkpt>
      <trkpt lat="45.70989" lon="4.70255">
        <ele>312.4</ele>
        <time>2025-03-02T11:35:24Z</time>
      </trkpt>
      <trkpt lat="45.70986" lon="4.70262">
        <ele>312.4</ele>
        <time>2025-03-02T11:35:25Z</time>
      </trkpt>
      <trkpt lat="45.70983" lon="4.70267">
        <ele>312.4</ele>
        <time>2025-03-02T11:35:26Z</time>
      </trkpt>
      <trkpt lat="45.70979" lon="4.70275">
        <ele>312.4</ele>
        <time>2025-03-02T11:35:27Z</time>
      </trkpt>
      <trkpt lat="45.70976" lon="4.70282">
        <ele>312.6</ele>
        <time>2025-03-02T11:35:28Z</time>
      </trkpt>
      <trkpt lat="45.70972" lon="4.70289">
        <ele>312.6</ele>
        <time>2025-03-02T11:35:29Z</time>
      </trkpt>
      <trkpt lat="45.70969" lon="4.70296">
        <ele>312.8</ele>
        <time>2025-03-02T11:35:30Z</time>
      </trkpt>
      <trkpt lat="45.70966" lon="4.70303">
        <ele>313</ele>
        <time>2025-03-02T11:35:31Z</time>
      </trkpt>
      <trkpt lat="45.70963" lon="4.7031">
        <ele>313.2</ele>
        <time>2025-03-02T11:35:32Z</time>
      </trkpt>
      <trkpt lat="45.7096" lon="4.70316">
        <ele>313.4</ele>
        <time>2025-03-02T11:35:33Z</time>
      </trkpt>
      <trkpt lat="45.70957" lon="4.70323">
        <ele>313.4</ele>
        <time>2025-03-02T11:35:34Z</time>
      </trkpt>
      <trkpt lat="45.70953" lon="4.7033">
        <ele>313.8</ele>
        <time>2025-03-02T11:35:35Z</time>
      </trkpt>
      <trkpt lat="45.7095" lon="4.70336">
        <ele>314</ele>
        <time>2025-03-02T11:35:36Z</time>
      </trkpt>
      <trkpt lat="45.70947" lon="4.70342">
        <ele>314.2</ele>
        <time>2025-03-02T11:35:37Z</time>
      </trkpt>
      <trkpt lat="45.70944" lon="4.70347">
        <ele>314.6</ele>
        <time>2025-03-02T11:35:38Z</time>
      </trkpt>
      <trkpt lat="45.70942" lon="4.70352">
        <ele>314.8</ele>
        <time>2025-03-02T11:35:39Z</time>
      </trkpt>
      <trkpt lat="45.7094" lon="4.70357">
        <ele>314.8</ele>
        <time>2025-03-02T11:35:40Z</time>
      </trkpt>
      <trkpt lat="45.70937" lon="4.70363">
        <ele>315</ele>
        <time>2025-03-02T11:35:41Z</time>
      </trkpt>
      <trkpt lat="45.70934" lon="4.70368">
        <ele>315</ele>
        <time>2025-03-02T11:35:42Z</time>
      </trkpt>
      <trkpt lat="45.70932" lon="4.70374">
        <ele>315</ele>
        <time>2025-03-02T11:35:43Z</time>
      </trkpt>
      <trkpt lat="45.70929" lon="4.70379">
        <ele>315.2</ele>
        <time>2025-03-02T11:35:44Z</time>
      </trkpt>
      <trkpt lat="45.70925" lon="4.70384">
        <ele>315.2</ele>
        <time>2025-03-02T11:35:45Z</time>
      </trkpt>
      <trkpt lat="45.70922" lon="4.70388">
        <ele>315.2</ele>
        <time>2025-03-02T11:35:46Z</time>
      </trkpt>
      <trkpt lat="45.7092" lon="4.70392">
        <ele>315.2</ele>
        <time>2025-03-02T11:35:47Z</time>
      </trkpt>
      <trkpt lat="45.70919" lon="4.70396">
        <ele>315.4</ele>
        <time>2025-03-02T11:35:48Z</time>
      </trkpt>
      <trkpt lat="45.70919" lon="4.70402">
        <ele>315.4</ele>
        <time>2025-03-02T11:35:49Z</time>
      </trkpt>
      <trkpt lat="45.70919" lon="4.70409">
        <ele>315.4</ele>
        <time>2025-03-02T11:35:50Z</time>
      </trkpt>
      <trkpt lat="45.70918" lon="4.70416">
        <ele>315.4</ele>
        <time>2025-03-02T11:35:51Z</time>
      </trkpt>
      <trkpt lat="45.70917" lon="4.70423">
        <ele>315.6</ele>
        <time>2025-03-02T11:35:52Z</time>
      </trkpt>
      <trkpt lat="45.70914" lon="4.70429">
        <ele>315.6</ele>
        <time>2025-03-02T11:35:53Z</time>
      </trkpt>
      <trkpt lat="45.70911" lon="4.70435">
        <ele>315.6</ele>
        <time>2025-03-02T11:35:54Z</time>
      </trkpt>
      <trkpt lat="45.70907" lon="4.70441">
        <ele>315.4</ele>
        <time>2025-03-02T11:35:55Z</time>
      </trkpt>
      <trkpt lat="45.70904" lon="4.70448">
        <ele>315.8</ele>
        <time>2025-03-02T11:35:56Z</time>
      </trkpt>
      <trkpt lat="45.70901" lon="4.70454">
        <ele>316.2</ele>
        <time>2025-03-02T11:35:57Z</time>
      </trkpt>
      <trkpt lat="45.70897" lon="4.70459">
        <ele>316.4</ele>
        <time>2025-03-02T11:35:58Z</time>
      </trkpt>
      <trkpt lat="45.70894" lon="4.70464">
        <ele>316.4</ele>
        <time>2025-03-02T11:35:59Z</time>
      </trkpt>
      <trkpt lat="45.70889" lon="4.70468">
        <ele>316.4</ele>
        <time>2025-03-02T11:36:00Z</time>
      </trkpt>
      <trkpt lat="45.70884" lon="4.7047">
        <ele>316.6</ele>
        <time>2025-03-02T11:36:01Z</time>
      </trkpt>
      <trkpt lat="45.70879" lon="4.7047">
        <ele>316.8</ele>
        <time>2025-03-02T11:36:02Z</time>
      </trkpt>
      <trkpt lat="45.70874" lon="4.70467">
        <ele>316.8</ele>
        <time>2025-03-02T11:36:03Z</time>
      </trkpt>
      <trkpt lat="45.70869" lon="4.70464">
        <ele>317</ele>
        <time>2025-03-02T11:36:04Z</time>
      </trkpt>
      <trkpt lat="45.70864" lon="4.70459">
        <ele>317.2</ele>
        <time>2025-03-02T11:36:05Z</time>
      </trkpt>
      <trkpt lat="45.7086" lon="4.70453">
        <ele>317.4</ele>
        <time>2025-03-02T11:36:06Z</time>
      </trkpt>
      <trkpt lat="45.70856" lon="4.70448">
        <ele>317.6</ele>
        <time>2025-03-02T11:36:07Z</time>
      </trkpt>
      <trkpt lat="45.70852" lon="4.70443">
        <ele>317.6</ele>
        <time>2025-03-02T11:36:08Z</time>
      </trkpt>
      <trkpt lat="45.70848" lon="4.70439">
        <ele>317.8</ele>
        <time>2025-03-02T11:36:09Z</time>
      </trkpt>
      <trkpt lat="45.70843" lon="4.70433">
        <ele>318</ele>
        <time>2025-03-02T11:36:10Z</time>
      </trkpt>
      <trkpt lat="45.70838" lon="4.70428">
        <ele>318</ele>
        <time>2025-03-02T11:36:11Z</time>
      </trkpt>
      <trkpt lat="45.70834" lon="4.70423">
        <ele>318.2</ele>
        <time>2025-03-02T11:36:12Z</time>
      </trkpt>
      <trkpt lat="45.7083" lon="4.70418">
        <ele>318.2</ele>
        <time>2025-03-02T11:36:13Z</time>
      </trkpt>
      <trkpt lat="45.70825" lon="4.70413">
        <ele>318.4</ele>
        <time>2025-03-02T11:36:14Z</time>
      </trkpt>
      <trkpt lat="45.7082" lon="4.70411">
        <ele>318.4</ele>
        <time>2025-03-02T11:36:15Z</time>
      </trkpt>
      <trkpt lat="45.70815" lon="4.70411">
        <ele>318.4</ele>
        <time>2025-03-02T11:36:16Z</time>
      </trkpt>
      <trkpt lat="45.70811" lon="4.70416">
        <ele>318.4</ele>
        <time>2025-03-02T11:36:17Z</time>
      </trkpt>
      <trkpt lat="45.70808" lon="4.70422">
        <ele>318.4</ele>
        <time>2025-03-02T11:36:18Z</time>
      </trkpt>
      <trkpt lat="45.70807" lon="4.7043">
        <ele>318.2</ele>
        <time>2025-03-02T11:36:19Z</time>
      </trkpt>
      <trkpt lat="45.70806" lon="4.70438">
        <ele>318</ele>
        <time>2025-03-02T11:36:20Z</time>
      </trkpt>
      <trkpt lat="45.70805" lon="4.70447">
        <ele>317.8</ele>
        <time>2025-03-02T11:36:21Z</time>
      </trkpt>
      <trkpt lat="45.70804" lon="4.70455">
        <ele>317.8</ele>
        <time>2025-03-02T11:36:22Z</time>
      </trkpt>
      <trkpt lat="45.70803" lon="4.70463">
        <ele>317.8</ele>
        <time>2025-03-02T11:36:23Z</time>
      </trkpt>
      <trkpt lat="45.70801" lon="4.70471">
        <ele>317.6</ele>
        <time>2025-03-02T11:36:24Z</time>
      </trkpt>
      <trkpt lat="45.70799" lon="4.70479">
        <ele>317.6</ele>
        <time>2025-03-02T11:36:25Z</time>
      </trkpt>
      <trkpt lat="45.70797" lon="4.70487">
        <ele>317.6</ele>
        <time>2025-03-02T11:36:26Z</time>
      </trkpt>
      <trkpt lat="45.70796" lon="4.70494">
        <ele>317.4</ele>
        <time>2025-03-02T11:36:27Z</time>
      </trkpt>
      <trkpt lat="45.70794" lon="4.70502">
        <ele>317.4</ele>
        <time>2025-03-02T11:36:28Z</time>
      </trkpt>
      <trkpt lat="45.70792" lon="4.7051">
        <ele>317.4</ele>
        <time>2025-03-02T11:36:29Z</time>
      </trkpt>
      <trkpt lat="45.70791" lon="4.70517">
        <ele>317.4</ele>
        <time>2025-03-02T11:36:30Z</time>
      </trkpt>
      <trkpt lat="45.70789" lon="4.70525">
        <ele>317.4</ele>
        <time>2025-03-02T11:36:31Z</time>
      </trkpt>
      <trkpt lat="45.70787" lon="4.70532">
        <ele>317.4</ele>
        <time>2025-03-02T11:36:32Z</time>
      </trkpt>
      <trkpt lat="45.70784" lon="4.7054">
        <ele>317.6</ele>
        <time>2025-03-02T11:36:33Z</time>
      </trkpt>
      <trkpt lat="45.70782" lon="4.70547">
        <ele>318</ele>
        <time>2025-03-02T11:36:34Z</time>
      </trkpt>
      <trkpt lat="45.70778" lon="4.70554">
        <ele>318</ele>
        <time>2025-03-02T11:36:35Z</time>
      </trkpt>
      <trkpt lat="45.70775" lon="4.70561">
        <ele>318.2</ele>
        <time>2025-03-02T11:36:36Z</time>
      </trkpt>
      <trkpt lat="45.70773" lon="4.70568">
        <ele>318.2</ele>
        <time>2025-03-02T11:36:37Z</time>
      </trkpt>
      <trkpt lat="45.7077" lon="4.70575">
        <ele>318.2</ele>
        <time>2025-03-02T11:36:38Z</time>
      </trkpt>
      <trkpt lat="45.70766" lon="4.70582">
        <ele>318.2</ele>
        <time>2025-03-02T11:36:39Z</time>
      </trkpt>
      <trkpt lat="45.70763" lon="4.70589">
        <ele>318.2</ele>
        <time>2025-03-02T11:36:40Z</time>
      </trkpt>
      <trkpt lat="45.70759" lon="4.70596">
        <ele>318</ele>
        <time>2025-03-02T11:36:41Z</time>
      </trkpt>
      <trkpt lat="45.70755" lon="4.70602">
        <ele>318</ele>
        <time>2025-03-02T11:36:42Z</time>
      </trkpt>
      <trkpt lat="45.70751" lon="4.70609">
        <ele>317.8</ele>
        <time>2025-03-02T11:36:43Z</time>
      </trkpt>
      <trkpt lat="45.70747" lon="4.70616">
        <ele>317.6</ele>
        <time>2025-03-02T11:36:44Z</time>
      </trkpt>
      <trkpt lat="45.70743" lon="4.70623">
        <ele>317.2</ele>
        <time>2025-03-02T11:36:45Z</time>
      </trkpt>
      <trkpt lat="45.7074" lon="4.70629">
        <ele>316.6</ele>
        <time>2025-03-02T11:36:46Z</time>
      </trkpt>
      <trkpt lat="45.70736" lon="4.70636">
        <ele>316.4</ele>
        <time>2025-03-02T11:36:47Z</time>
      </trkpt>
      <trkpt lat="45.70732" lon="4.70643">
        <ele>315.8</ele>
        <time>2025-03-02T11:36:48Z</time>
      </trkpt>
      <trkpt lat="45.70728" lon="4.70651">
        <ele>315.6</ele>
        <time>2025-03-02T11:36:49Z</time>
      </trkpt>
      <trkpt lat="45.70723" lon="4.70658">
        <ele>315.6</ele>
        <time>2025-03-02T11:36:50Z</time>
      </trkpt>
      <trkpt lat="45.70719" lon="4.70666">
        <ele>315.2</ele>
        <time>2025-03-02T11:36:51Z</time>
      </trkpt>
      <trkpt lat="45.70714" lon="4.70674">
        <ele>314.8</ele>
        <time>2025-03-02T11:36:52Z</time>
      </trkpt>
      <trkpt lat="45.70709" lon="4.70683">
        <ele>314.4</ele>
        <time>2025-03-02T11:36:53Z</time>
      </trkpt>
      <trkpt lat="45.70704" lon="4.70691">
        <ele>313.8</ele>
        <time>2025-03-02T11:36:54Z</time>
      </trkpt>
      <trkpt lat="45.70699" lon="4.707">
        <ele>313</ele>
        <time>2025-03-02T11:36:55Z</time>
      </trkpt>
      <trkpt lat="45.70693" lon="4.70708">
        <ele>312.8</ele>
        <time>2025-03-02T11:36:56Z</time>
      </trkpt>
      <trkpt lat="45.70687" lon="4.70716">
        <ele>312.6</ele>
        <time>2025-03-02T11:36:57Z</time>
      </trkpt>
      <trkpt lat="45.70681" lon="4.70724">
        <ele>312</ele>
        <time>2025-03-02T11:36:58Z</time>
      </trkpt>
      <trkpt lat="45.70675" lon="4.70732">
        <ele>311.6</ele>
        <time>2025-03-02T11:36:59Z</time>
      </trkpt>
      <trkpt lat="45.70669" lon="4.70739">
        <ele>311</ele>
        <time>2025-03-02T11:37:00Z</time>
      </trkpt>
      <trkpt lat="45.70663" lon="4.70746">
        <ele>310.8</ele>
        <time>2025-03-02T11:37:01Z</time>
      </trkpt>
      <trkpt lat="45.70657" lon="4.70754">
        <ele>310.2</ele>
        <time>2025-03-02T11:37:02Z</time>
      </trkpt>
      <trkpt lat="45.70651" lon="4.70762">
        <ele>309.8</ele>
        <time>2025-03-02T11:37:03Z</time>
      </trkpt>
      <trkpt lat="45.70646" lon="4.7077">
        <ele>309.6</ele>
        <time>2025-03-02T11:37:04Z</time>
      </trkpt>
      <trkpt lat="45.7064" lon="4.70778">
        <ele>309</ele>
        <time>2025-03-02T11:37:05Z</time>
      </trkpt>
      <trkpt lat="45.70635" lon="4.70787">
        <ele>308.8</ele>
        <time>2025-03-02T11:37:06Z</time>
      </trkpt>
      <trkpt lat="45.70629" lon="4.70795">
        <ele>308.6</ele>
        <time>2025-03-02T11:37:07Z</time>
      </trkpt>
      <trkpt lat="45.70624" lon="4.70803">
        <ele>308.2</ele>
        <time>2025-03-02T11:37:08Z</time>
      </trkpt>
      <trkpt lat="45.70618" lon="4.70811">
        <ele>307.8</ele>
        <time>2025-03-02T11:37:09Z</time>
      </trkpt>
      <trkpt lat="45.70612" lon="4.70818">
        <ele>307.8</ele>
        <time>2025-03-02T11:37:10Z</time>
      </trkpt>
      <trkpt lat="45.70607" lon="4.70826">
        <ele>307.8</ele>
        <time>2025-03-02T11:37:11Z</time>
      </trkpt>
      <trkpt lat="45.70601" lon="4.70833">
        <ele>307.8</ele>
        <time>2025-03-02T11:37:12Z</time>
      </trkpt>
      <trkpt lat="45.70596" lon="4.70841">
        <ele>307.8</ele>
        <time>2025-03-02T11:37:13Z</time>
      </trkpt>
      <trkpt lat="45.70591" lon="4.70848">
        <ele>307.8</ele>
        <time>2025-03-02T11:37:14Z</time>
      </trkpt>
      <trkpt lat="45.70585" lon="4.70856">
        <ele>307.8</ele>
        <time>2025-03-02T11:37:15Z</time>
      </trkpt>
      <trkpt lat="45.7058" lon="4.70863">
        <ele>307.8</ele>
        <time>2025-03-02T11:37:16Z</time>
      </trkpt>
      <trkpt lat="45.70575" lon="4.70871">
        <ele>307.8</ele>
        <time>2025-03-02T11:37:17Z</time>
      </trkpt>
      <trkpt lat="45.7057" lon="4.70879">
        <ele>307.8</ele>
        <time>2025-03-02T11:37:18Z</time>
      </trkpt>
      <trkpt lat="45.70566" lon="4.70886">
        <ele>307.8</ele>
        <time>2025-03-02T11:37:19Z</time>
      </trkpt>
      <trkpt lat="45.70561" lon="4.70893">
        <ele>307.8</ele>
        <time>2025-03-02T11:37:20Z</time>
      </trkpt>
      <trkpt lat="45.70558" lon="4.70902">
        <ele>307.6</ele>
        <time>2025-03-02T11:37:21Z</time>
      </trkpt>
      <trkpt lat="45.70555" lon="4.7091">
        <ele>307.6</ele>
        <time>2025-03-02T11:37:22Z</time>
      </trkpt>
      <trkpt lat="45.70552" lon="4.70919">
        <ele>307.6</ele>
        <time>2025-03-02T11:37:23Z</time>
      </trkpt>
      <trkpt lat="45.7055" lon="4.70928">
        <ele>307.6</ele>
        <time>2025-03-02T11:37:24Z</time>
      </trkpt>
      <trkpt lat="45.70548" lon="4.70937">
        <ele>307.8</ele>
        <time>2025-03-02T11:37:25Z</time>
      </trkpt>
      <trkpt lat="45.70547" lon="4.70946">
        <ele>307.6</ele>
        <time>2025-03-02T11:37:26Z</time>
      </trkpt>
      <trkpt lat="45.70546" lon="4.70956">
        <ele>307.6</ele>
        <time>2025-03-02T11:37:27Z</time>
      </trkpt>
      <trkpt lat="45.70544" lon="4.70965">
        <ele>307.6</ele>
        <time>2025-03-02T11:37:28Z</time>
      </trkpt>
      <trkpt lat="45.70543" lon="4.70974">
        <ele>307.2</ele>
        <time>2025-03-02T11:37:29Z</time>
      </trkpt>
      <trkpt lat="45.70542" lon="4.70983">
        <ele>307.2</ele>
        <time>2025-03-02T11:37:30Z</time>
      </trkpt>
      <trkpt lat="45.70541" lon="4.70992">
        <ele>307</ele>
        <time>2025-03-02T11:37:31Z</time>
      </trkpt>
      <trkpt lat="45.70541" lon="4.71001">
        <ele>306.6</ele>
        <time>2025-03-02T11:37:32Z</time>
      </trkpt>
      <trkpt lat="45.7054" lon="4.7101">
        <ele>306.6</ele>
        <time>2025-03-02T11:37:33Z</time>
      </trkpt>
      <trkpt lat="45.70539" lon="4.71019">
        <ele>306.6</ele>
        <time>2025-03-02T11:37:34Z</time>
      </trkpt>
      <trkpt lat="45.70538" lon="4.71026">
        <ele>306.6</ele>
        <time>2025-03-02T11:37:35Z</time>
      </trkpt>
      <trkpt lat="45.70538" lon="4.71036">
        <ele>306.8</ele>
        <time>2025-03-02T11:37:36Z</time>
      </trkpt>
      <trkpt lat="45.70539" lon="4.71045">
        <ele>307</ele>
        <time>2025-03-02T11:37:37Z</time>
      </trkpt>
      <trkpt lat="45.70539" lon="4.71054">
        <ele>307</ele>
        <time>2025-03-02T11:37:38Z</time>
      </trkpt>
      <trkpt lat="45.7054" lon="4.71063">
        <ele>307</ele>
        <time>2025-03-02T11:37:39Z</time>
      </trkpt>
      <trkpt lat="45.70541" lon="4.71072">
        <ele>307</ele>
        <time>2025-03-02T11:37:40Z</time>
      </trkpt>
      <trkpt lat="45.70543" lon="4.71078">
        <ele>306.8</ele>
        <time>2025-03-02T11:37:41Z</time>
      </trkpt>
      <trkpt lat="45.70544" lon="4.71088">
        <ele>306.6</ele>
        <time>2025-03-02T11:37:42Z</time>
      </trkpt>
      <trkpt lat="45.70545" lon="4.71096">
        <ele>306.6</ele>
        <time>2025-03-02T11:37:43Z</time>
      </trkpt>
      <trkpt lat="45.70546" lon="4.71104">
        <ele>306.6</ele>
        <time>2025-03-02T11:37:44Z</time>
      </trkpt>
      <trkpt lat="45.70547" lon="4.71112">
        <ele>306.6</ele>
        <time>2025-03-02T11:37:45Z</time>
      </trkpt>
      <trkpt lat="45.70548" lon="4.71119">
        <ele>306.8</ele>
        <time>2025-03-02T11:37:46Z</time>
      </trkpt>
      <trkpt lat="45.70548" lon="4.71125">
        <ele>307.2</ele>
        <time>2025-03-02T11:37:47Z</time>
      </trkpt>
      <trkpt lat="45.70548" lon="4.71131">
        <ele>307.4</ele>
        <time>2025-03-02T11:37:48Z</time>
      </trkpt>
      <trkpt lat="45.70548" lon="4.71137">
        <ele>308</ele>
        <time>2025-03-02T11:37:49Z</time>
      </trkpt>
      <trkpt lat="45.70547" lon="4.71143">
        <ele>308.4</ele>
        <time>2025-03-02T11:37:50Z</time>
      </trkpt>
      <trkpt lat="45.70546" lon="4.7115">
        <ele>308.6</ele>
        <time>2025-03-02T11:37:51Z</time>
      </trkpt>
      <trkpt lat="45.70545" lon="4.71156">
        <ele>308.8</ele>
        <time>2025-03-02T11:37:52Z</time>
      </trkpt>
      <trkpt lat="45.70544" lon="4.71163">
        <ele>308.8</ele>
        <time>2025-03-02T11:37:53Z</time>
      </trkpt>
      <trkpt lat="45.70543" lon="4.71171">
        <ele>308.8</ele>
        <time>2025-03-02T11:37:54Z</time>
      </trkpt>
      <trkpt lat="45.70542" lon="4.71179">
        <ele>308.6</ele>
        <time>2025-03-02T11:37:55Z</time>
      </trkpt>
      <trkpt lat="45.70541" lon="4.71187">
        <ele>308.6</ele>
        <time>2025-03-02T11:37:56Z</time>
      </trkpt>
      <trkpt lat="45.70539" lon="4.71193">
        <ele>308.6</ele>
        <time>2025-03-02T11:37:57Z</time>
      </trkpt>
      <trkpt lat="45.70537" lon="4.71203">
        <ele>308.6</ele>
        <time>2025-03-02T11:37:58Z</time>
      </trkpt>
      <trkpt lat="45.70536" lon="4.71211">
        <ele>308.8</ele>
        <time>2025-03-02T11:37:59Z</time>
      </trkpt>
      <trkpt lat="45.70534" lon="4.71219">
        <ele>309.2</ele>
        <time>2025-03-02T11:38:00Z</time>
      </trkpt>
      <trkpt lat="45.70532" lon="4.71227">
        <ele>309.8</ele>
        <time>2025-03-02T11:38:01Z</time>
      </trkpt>
      <trkpt lat="45.7053" lon="4.71234">
        <ele>310.6</ele>
        <time>2025-03-02T11:38:02Z</time>
      </trkpt>
      <trkpt lat="45.70528" lon="4.71242">
        <ele>311</ele>
        <time>2025-03-02T11:38:03Z</time>
      </trkpt>
      <trkpt lat="45.70525" lon="4.7125">
        <ele>311.2</ele>
        <time>2025-03-02T11:38:04Z</time>
      </trkpt>
      <trkpt lat="45.70523" lon="4.71257">
        <ele>311.4</ele>
        <time>2025-03-02T11:38:05Z</time>
      </trkpt>
      <trkpt lat="45.70521" lon="4.71265">
        <ele>311.6</ele>
        <time>2025-03-02T11:38:06Z</time>
      </trkpt>
      <trkpt lat="45.70519" lon="4.71273">
        <ele>311.6</ele>
        <time>2025-03-02T11:38:07Z</time>
      </trkpt>
      <trkpt lat="45.70516" lon="4.71281">
        <ele>311.8</ele>
        <time>2025-03-02T11:38:08Z</time>
      </trkpt>
      <trkpt lat="45.70514" lon="4.71289">
        <ele>311.8</ele>
        <time>2025-03-02T11:38:09Z</time>
      </trkpt>
      <trkpt lat="45.70512" lon="4.71296">
        <ele>312</ele>
        <time>2025-03-02T11:38:10Z</time>
      </trkpt>
      <trkpt lat="45.7051" lon="4.71304">
        <ele>312.2</ele>
        <time>2025-03-02T11:38:11Z</time>
      </trkpt>
      <trkpt lat="45.70508" lon="4.71311">
        <ele>312.2</ele>
        <time>2025-03-02T11:38:12Z</time>
      </trkpt>
      <trkpt lat="45.70506" lon="4.71318">
        <ele>312.8</ele>
        <time>2025-03-02T11:38:13Z</time>
      </trkpt>
      <trkpt lat="45.70504" lon="4.71325">
        <ele>313.2</ele>
        <time>2025-03-02T11:38:14Z</time>
      </trkpt>
      <trkpt lat="45.70501" lon="4.71332">
        <ele>313.6</ele>
        <time>2025-03-02T11:38:15Z</time>
      </trkpt>
      <trkpt lat="45.70499" lon="4.71339">
        <ele>314</ele>
        <time>2025-03-02T11:38:16Z</time>
      </trkpt>
      <trkpt lat="45.70496" lon="4.71346">
        <ele>314.2</ele>
        <time>2025-03-02T11:38:17Z</time>
      </trkpt>
      <trkpt lat="45.70493" lon="4.71352">
        <ele>314.6</ele>
        <time>2025-03-02T11:38:18Z</time>
      </trkpt>
      <trkpt lat="45.7049" lon="4.71358">
        <ele>314.8</ele>
        <time>2025-03-02T11:38:19Z</time>
      </trkpt>
      <trkpt lat="45.70488" lon="4.71365">
        <ele>315</ele>
        <time>2025-03-02T11:38:20Z</time>
      </trkpt>
      <trkpt lat="45.70485" lon="4.71372">
        <ele>315.4</ele>
        <time>2025-03-02T11:38:21Z</time>
      </trkpt>
      <trkpt lat="45.70482" lon="4.71378">
        <ele>315.6</ele>
        <time>2025-03-02T11:38:22Z</time>
      </trkpt>
      <trkpt lat="45.7048" lon="4.71385">
        <ele>316</ele>
        <time>2025-03-02T11:38:23Z</time>
      </trkpt>
      <trkpt lat="45.70477" lon="4.71391">
        <ele>316.2</ele>
        <time>2025-03-02T11:38:24Z</time>
      </trkpt>
      <trkpt lat="45.70475" lon="4.71398">
        <ele>316.6</ele>
        <time>2025-03-02T11:38:25Z</time>
      </trkpt>
      <trkpt lat="45.70473" lon="4.71404">
        <ele>316.8</ele>
        <time>2025-03-02T11:38:26Z</time>
      </trkpt>
      <trkpt lat="45.70471" lon="4.71411">
        <ele>317</ele>
        <time>2025-03-02T11:38:27Z</time>
      </trkpt>
      <trkpt lat="45.70469" lon="4.71417">
        <ele>317</ele>
        <time>2025-03-02T11:38:28Z</time>
      </trkpt>
      <trkpt lat="45.70467" lon="4.71424">
        <ele>317.2</ele>
        <time>2025-03-02T11:38:29Z</time>
      </trkpt>
      <trkpt lat="45.70465" lon="4.71431">
        <ele>317.2</ele>
        <time>2025-03-02T11:38:30Z</time>
      </trkpt>
      <trkpt lat="45.70463" lon="4.71438">
        <ele>317.4</ele>
        <time>2025-03-02T11:38:31Z</time>
      </trkpt>
      <trkpt lat="45.70462" lon="4.71445">
        <ele>317.8</ele>
        <time>2025-03-02T11:38:32Z</time>
      </trkpt>
      <trkpt lat="45.70459" lon="4.71452">
        <ele>317.8</ele>
        <time>2025-03-02T11:38:33Z</time>
      </trkpt>
      <trkpt lat="45.70457" lon="4.71459">
        <ele>318.2</ele>
        <time>2025-03-02T11:38:34Z</time>
      </trkpt>
      <trkpt lat="45.70455" lon="4.71466">
        <ele>318.4</ele>
        <time>2025-03-02T11:38:35Z</time>
      </trkpt>
      <trkpt lat="45.70453" lon="4.71474">
        <ele>318.6</ele>
        <time>2025-03-02T11:38:36Z</time>
      </trkpt>
      <trkpt lat="45.70451" lon="4.71481">
        <ele>318.8</ele>
        <time>2025-03-02T11:38:37Z</time>
      </trkpt>
      <trkpt lat="45.7045" lon="4.71488">
        <ele>319</ele>
        <time>2025-03-02T11:38:38Z</time>
      </trkpt>
      <trkpt lat="45.70448" lon="4.71496">
        <ele>319</ele>
        <time>2025-03-02T11:38:39Z</time>
      </trkpt>
      <trkpt lat="45.70446" lon="4.71501">
        <ele>319.4</ele>
        <time>2025-03-02T11:38:40Z</time>
      </trkpt>
      <trkpt lat="45.70444" lon="4.7151">
        <ele>319.6</ele>
        <time>2025-03-02T11:38:41Z</time>
      </trkpt>
      <trkpt lat="45.70442" lon="4.71517">
        <ele>319.8</ele>
        <time>2025-03-02T11:38:42Z</time>
      </trkpt>
      <trkpt lat="45.7044" lon="4.71524">
        <ele>319.8</ele>
        <time>2025-03-02T11:38:43Z</time>
      </trkpt>
      <trkpt lat="45.70438" lon="4.71531">
        <ele>320</ele>
        <time>2025-03-02T11:38:44Z</time>
      </trkpt>
      <trkpt lat="45.70437" lon="4.71537">
        <ele>320</ele>
        <time>2025-03-02T11:38:45Z</time>
      </trkpt>
      <trkpt lat="45.70435" lon="4.71544">
        <ele>320.2</ele>
        <time>2025-03-02T11:38:46Z</time>
      </trkpt>
      <trkpt lat="45.70433" lon="4.71551">
        <ele>320.6</ele>
        <time>2025-03-02T11:38:47Z</time>
      </trkpt>
      <trkpt lat="45.70432" lon="4.71558">
        <ele>320.8</ele>
        <time>2025-03-02T11:38:48Z</time>
      </trkpt>
      <trkpt lat="45.7043" lon="4.71565">
        <ele>321</ele>
        <time>2025-03-02T11:38:49Z</time>
      </trkpt>
      <trkpt lat="45.70429" lon="4.71572">
        <ele>321.2</ele>
        <time>2025-03-02T11:38:50Z</time>
      </trkpt>
      <trkpt lat="45.70427" lon="4.71579">
        <ele>321.4</ele>
        <time>2025-03-02T11:38:51Z</time>
      </trkpt>
      <trkpt lat="45.70426" lon="4.71585">
        <ele>321.8</ele>
        <time>2025-03-02T11:38:52Z</time>
      </trkpt>
      <trkpt lat="45.70425" lon="4.71592">
        <ele>322.4</ele>
        <time>2025-03-02T11:38:53Z</time>
      </trkpt>
      <trkpt lat="45.70424" lon="4.71599">
        <ele>322.6</ele>
        <time>2025-03-02T11:38:54Z</time>
      </trkpt>
      <trkpt lat="45.70424" lon="4.71606">
        <ele>322.8</ele>
        <time>2025-03-02T11:38:55Z</time>
      </trkpt>
      <trkpt lat="45.70423" lon="4.71614">
        <ele>322.8</ele>
        <time>2025-03-02T11:38:56Z</time>
      </trkpt>
      <trkpt lat="45.70422" lon="4.71621">
        <ele>322.8</ele>
        <time>2025-03-02T11:38:57Z</time>
      </trkpt>
      <trkpt lat="45.70421" lon="4.71629">
        <ele>322.8</ele>
        <time>2025-03-02T11:38:58Z</time>
      </trkpt>
      <trkpt lat="45.7042" lon="4.71638">
        <ele>322.8</ele>
        <time>2025-03-02T11:38:59Z</time>
      </trkpt>
      <trkpt lat="45.70419" lon="4.71646">
        <ele>322.8</ele>
        <time>2025-03-02T11:39:00Z</time>
      </trkpt>
      <trkpt lat="45.70418" lon="4.71655">
        <ele>322.8</ele>
        <time>2025-03-02T11:39:01Z</time>
      </trkpt>
      <trkpt lat="45.70417" lon="4.71662">
        <ele>322.8</ele>
        <time>2025-03-02T11:39:02Z</time>
      </trkpt>
      <trkpt lat="45.70417" lon="4.71672">
        <ele>322.8</ele>
        <time>2025-03-02T11:39:03Z</time>
      </trkpt>
      <trkpt lat="45.70416" lon="4.7168">
        <ele>322.8</ele>
        <time>2025-03-02T11:39:04Z</time>
      </trkpt>
      <trkpt lat="45.70416" lon="4.71688">
        <ele>322.8</ele>
        <time>2025-03-02T11:39:05Z</time>
      </trkpt>
      <trkpt lat="45.70415" lon="4.71696">
        <ele>322.6</ele>
        <time>2025-03-02T11:39:06Z</time>
      </trkpt>
      <trkpt lat="45.70414" lon="4.71705">
        <ele>322.6</ele>
        <time>2025-03-02T11:39:07Z</time>
      </trkpt>
      <trkpt lat="45.70413" lon="4.71713">
        <ele>322.6</ele>
        <time>2025-03-02T11:39:08Z</time>
      </trkpt>
      <trkpt lat="45.70413" lon="4.71722">
        <ele>322.4</ele>
        <time>2025-03-02T11:39:09Z</time>
      </trkpt>
      <trkpt lat="45.70412" lon="4.71731">
        <ele>322.2</ele>
        <time>2025-03-02T11:39:10Z</time>
      </trkpt>
      <trkpt lat="45.70411" lon="4.7174">
        <ele>322</ele>
        <time>2025-03-02T11:39:11Z</time>
      </trkpt>
      <trkpt lat="45.7041" lon="4.71749">
        <ele>321.8</ele>
        <time>2025-03-02T11:39:12Z</time>
      </trkpt>
      <trkpt lat="45.70409" lon="4.71759">
        <ele>321.8</ele>
        <time>2025-03-02T11:39:13Z</time>
      </trkpt>
      <trkpt lat="45.70408" lon="4.71768">
        <ele>321.8</ele>
        <time>2025-03-02T11:39:14Z</time>
      </trkpt>
      <trkpt lat="45.70408" lon="4.71778">
        <ele>321.8</ele>
        <time>2025-03-02T11:39:15Z</time>
      </trkpt>
      <trkpt lat="45.70406" lon="4.71788">
        <ele>321.8</ele>
        <time>2025-03-02T11:39:16Z</time>
      </trkpt>
      <trkpt lat="45.70405" lon="4.71798">
        <ele>321.4</ele>
        <time>2025-03-02T11:39:17Z</time>
      </trkpt>
      <trkpt lat="45.70404" lon="4.71808">
        <ele>321.2</ele>
        <time>2025-03-02T11:39:18Z</time>
      </trkpt>
      <trkpt lat="45.70403" lon="4.71818">
        <ele>320.8</ele>
        <time>2025-03-02T11:39:19Z</time>
      </trkpt>
      <trkpt lat="45.70402" lon="4.71828">
        <ele>320.4</ele>
        <time>2025-03-02T11:39:20Z</time>
      </trkpt>
      <trkpt lat="45.70401" lon="4.71838">
        <ele>320</ele>
        <time>2025-03-02T11:39:21Z</time>
      </trkpt>
      <trkpt lat="45.704" lon="4.71849">
        <ele>319.6</ele>
        <time>2025-03-02T11:39:22Z</time>
      </trkpt>
      <trkpt lat="45.704" lon="4.7186">
        <ele>319.2</ele>
        <time>2025-03-02T11:39:23Z</time>
      </trkpt>
      <trkpt lat="45.70399" lon="4.7187">
        <ele>319</ele>
        <time>2025-03-02T11:39:24Z</time>
      </trkpt>
      <trkpt lat="45.70398" lon="4.71881">
        <ele>318.4</ele>
        <time>2025-03-02T11:39:25Z</time>
      </trkpt>
      <trkpt lat="45.70398" lon="4.71891">
        <ele>317.4</ele>
        <time>2025-03-02T11:39:26Z</time>
      </trkpt>
      <trkpt lat="45.70397" lon="4.71901">
        <ele>317.4</ele>
        <time>2025-03-02T11:39:27Z</time>
      </trkpt>
      <trkpt lat="45.70397" lon="4.71911">
        <ele>317.2</ele>
        <time>2025-03-02T11:39:28Z</time>
      </trkpt>
      <trkpt lat="45.70396" lon="4.71921">
        <ele>317.2</ele>
        <time>2025-03-02T11:39:29Z</time>
      </trkpt>
      <trkpt lat="45.70395" lon="4.71931">
        <ele>316.6</ele>
        <time>2025-03-02T11:39:30Z</time>
      </trkpt>
      <trkpt lat="45.70395" lon="4.71941">
        <ele>316.6</ele>
        <time>2025-03-02T11:39:31Z</time>
      </trkpt>
      <trkpt lat="45.70394" lon="4.7195">
        <ele>316.4</ele>
        <time>2025-03-02T11:39:32Z</time>
      </trkpt>
      <trkpt lat="45.70393" lon="4.71959">
        <ele>316.4</ele>
        <time>2025-03-02T11:39:33Z</time>
      </trkpt>
      <trkpt lat="45.70392" lon="4.71968">
        <ele>316.2</ele>
        <time>2025-03-02T11:39:34Z</time>
      </trkpt>
      <trkpt lat="45.70391" lon="4.71975">
        <ele>316</ele>
        <time>2025-03-02T11:39:35Z</time>
      </trkpt>
      <trkpt lat="45.70388" lon="4.71986">
        <ele>316</ele>
        <time>2025-03-02T11:39:36Z</time>
      </trkpt>
      <trkpt lat="45.70387" lon="4.71993">
        <ele>315.8</ele>
        <time>2025-03-02T11:39:37Z</time>
      </trkpt>
      <trkpt lat="45.70385" lon="4.72001">
        <ele>315.8</ele>
        <time>2025-03-02T11:39:38Z</time>
      </trkpt>
      <trkpt lat="45.70383" lon="4.7201">
        <ele>315.8</ele>
        <time>2025-03-02T11:39:39Z</time>
      </trkpt>
      <trkpt lat="45.70381" lon="4.72021">
        <ele>315.6</ele>
        <time>2025-03-02T11:39:40Z</time>
      </trkpt>
      <trkpt lat="45.70379" lon="4.72028">
        <ele>315.4</ele>
        <time>2025-03-02T11:39:41Z</time>
      </trkpt>
      <trkpt lat="45.70378" lon="4.72038">
        <ele>315</ele>
        <time>2025-03-02T11:39:42Z</time>
      </trkpt>
      <trkpt lat="45.70376" lon="4.72047">
        <ele>314.8</ele>
        <time>2025-03-02T11:39:43Z</time>
      </trkpt>
      <trkpt lat="45.70374" lon="4.72058">
        <ele>314.8</ele>
        <time>2025-03-02T11:39:44Z</time>
      </trkpt>
      <trkpt lat="45.70374" lon="4.72065">
        <ele>314.6</ele>
        <time>2025-03-02T11:39:45Z</time>
      </trkpt>
      <trkpt lat="45.70374" lon="4.72076">
        <ele>314.4</ele>
        <time>2025-03-02T11:39:46Z</time>
      </trkpt>
      <trkpt lat="45.70373" lon="4.72083">
        <ele>314.4</ele>
        <time>2025-03-02T11:39:47Z</time>
      </trkpt>
      <trkpt lat="45.70373" lon="4.72092">
        <ele>314.4</ele>
        <time>2025-03-02T11:39:48Z</time>
      </trkpt>
      <trkpt lat="45.70372" lon="4.72102">
        <ele>314.4</ele>
        <time>2025-03-02T11:39:49Z</time>
      </trkpt>
      <trkpt lat="45.70372" lon="4.7211">
        <ele>314.2</ele>
        <time>2025-03-02T11:39:50Z</time>
      </trkpt>
      <trkpt lat="45.70372" lon="4.72116">
        <ele>314</ele>
        <time>2025-03-02T11:39:51Z</time>
      </trkpt>
      <trkpt lat="45.70372" lon="4.72124">
        <ele>314</ele>
        <time>2025-03-02T11:39:52Z</time>
      </trkpt>
      <trkpt lat="45.70372" lon="4.72133">
        <ele>314</ele>
        <time>2025-03-02T11:39:53Z</time>
      </trkpt>
      <trkpt lat="45.70373" lon="4.72142">
        <ele>314</ele>
        <time>2025-03-02T11:39:54Z</time>
      </trkpt>
      <trkpt lat="45.70372" lon="4.72149">
        <ele>313.8</ele>
        <time>2025-03-02T11:39:55Z</time>
      </trkpt>
      <trkpt lat="45.70372" lon="4.72157">
        <ele>314</ele>
        <time>2025-03-02T11:39:56Z</time>
      </trkpt>
      <trkpt lat="45.70372" lon="4.72166">
        <ele>314</ele>
        <time>2025-03-02T11:39:57Z</time>
      </trkpt>
      <trkpt lat="45.70372" lon="4.72177">
        <ele>314</ele>
        <time>2025-03-02T11:39:58Z</time>
      </trkpt>
      <trkpt lat="45.70372" lon="4.72186">
        <ele>314</ele>
        <time>2025-03-02T11:39:59Z</time>
      </trkpt>
      <trkpt lat="45.70371" lon="4.72193">
        <ele>314</ele>
        <time>2025-03-02T11:40:00Z</time>
      </trkpt>
      <trkpt lat="45.70371" lon="4.72202">
        <ele>314</ele>
        <time>2025-03-02T11:40:01Z</time>
      </trkpt>
      <trkpt lat="45.70371" lon="4.72213">
        <ele>314</ele>
        <time>2025-03-02T11:40:02Z</time>
      </trkpt>
      <trkpt lat="45.70371" lon="4.72222">
        <ele>314</ele>
        <time>2025-03-02T11:40:03Z</time>
      </trkpt>
      <trkpt lat="45.70371" lon="4.72229">
        <ele>314</ele>
        <time>2025-03-02T11:40:04Z</time>
      </trkpt>
      <trkpt lat="45.70371" lon="4.72238">
        <ele>314</ele>
        <time>2025-03-02T11:40:05Z</time>
      </trkpt>
      <trkpt lat="45.70371" lon="4.72249">
        <ele>314</ele>
        <time>2025-03-02T11:40:06Z</time>
      </trkpt>
      <trkpt lat="45.70371" lon="4.72257">
        <ele>313.8</ele>
        <time>2025-03-02T11:40:07Z</time>
      </trkpt>
      <trkpt lat="45.70372" lon="4.72268">
        <ele>313.6</ele>
        <time>2025-03-02T11:40:08Z</time>
      </trkpt>
      <trkpt lat="45.70372" lon="4.72275">
        <ele>313.2</ele>
        <time>2025-03-02T11:40:09Z</time>
      </trkpt>
      <trkpt lat="45.70372" lon="4.72284">
        <ele>313</ele>
        <time>2025-03-02T11:40:10Z</time>
      </trkpt>
      <trkpt lat="45.70372" lon="4.72295">
        <ele>312.4</ele>
        <time>2025-03-02T11:40:11Z</time>
      </trkpt>
      <trkpt lat="45.70372" lon="4.72304">
        <ele>312.2</ele>
        <time>2025-03-02T11:40:12Z</time>
      </trkpt>
      <trkpt lat="45.70372" lon="4.72311">
        <ele>312.2</ele>
        <time>2025-03-02T11:40:13Z</time>
      </trkpt>
      <trkpt lat="45.70373" lon="4.72319">
        <ele>312.2</ele>
        <time>2025-03-02T11:40:14Z</time>
      </trkpt>
      <trkpt lat="45.70373" lon="4.7233">
        <ele>312.2</ele>
        <time>2025-03-02T11:40:15Z</time>
      </trkpt>
      <trkpt lat="45.70374" lon="4.72339">
        <ele>312.2</ele>
        <time>2025-03-02T11:40:16Z</time>
      </trkpt>
      <trkpt lat="45.70374" lon="4.72346">
        <ele>312.2</ele>
        <time>2025-03-02T11:40:17Z</time>
      </trkpt>
      <trkpt lat="45.70375" lon="4.72354">
        <ele>312.4</ele>
        <time>2025-03-02T11:40:18Z</time>
      </trkpt>
      <trkpt lat="45.70376" lon="4.72365">
        <ele>312.4</ele>
        <time>2025-03-02T11:40:19Z</time>
      </trkpt>
      <trkpt lat="45.70377" lon="4.72374">
        <ele>312.4</ele>
        <time>2025-03-02T11:40:20Z</time>
      </trkpt>
      <trkpt lat="45.70378" lon="4.72382">
        <ele>312.4</ele>
        <time>2025-03-02T11:40:21Z</time>
      </trkpt>
      <trkpt lat="45.70379" lon="4.72389">
        <ele>312.6</ele>
        <time>2025-03-02T11:40:22Z</time>
      </trkpt>
      <trkpt lat="45.7038" lon="4.72398">
        <ele>312.6</ele>
        <time>2025-03-02T11:40:23Z</time>
      </trkpt>
      <trkpt lat="45.70382" lon="4.72409">
        <ele>312.6</ele>
        <time>2025-03-02T11:40:24Z</time>
      </trkpt>
      <trkpt lat="45.70383" lon="4.72416">
        <ele>312.6</ele>
        <time>2025-03-02T11:40:25Z</time>
      </trkpt>
      <trkpt lat="45.70384" lon="4.72425">
        <ele>312.6</ele>
        <time>2025-03-02T11:40:26Z</time>
      </trkpt>
      <trkpt lat="45.70385" lon="4.72434">
        <ele>312.6</ele>
        <time>2025-03-02T11:40:27Z</time>
      </trkpt>
      <trkpt lat="45.70387" lon="4.72443">
        <ele>312.6</ele>
        <time>2025-03-02T11:40:28Z</time>
      </trkpt>
      <trkpt lat="45.70388" lon="4.72452">
        <ele>312.6</ele>
        <time>2025-03-02T11:40:29Z</time>
      </trkpt>
      <trkpt lat="45.7039" lon="4.72463">
        <ele>312.6</ele>
        <time>2025-03-02T11:40:30Z</time>
      </trkpt>
      <trkpt lat="45.70391" lon="4.72471">
        <ele>312.4</ele>
        <time>2025-03-02T11:40:31Z</time>
      </trkpt>
      <trkpt lat="45.70392" lon="4.7248">
        <ele>312.2</ele>
        <time>2025-03-02T11:40:32Z</time>
      </trkpt>
      <trkpt lat="45.70393" lon="4.72489">
        <ele>312.2</ele>
        <time>2025-03-02T11:40:33Z</time>
      </trkpt>
      <trkpt lat="45.70395" lon="4.72499">
        <ele>312</ele>
        <time>2025-03-02T11:40:34Z</time>
      </trkpt>
      <trkpt lat="45.70396" lon="4.72506">
        <ele>311.8</ele>
        <time>2025-03-02T11:40:35Z</time>
      </trkpt>
      <trkpt lat="45.70397" lon="4.72515">
        <ele>311.8</ele>
        <time>2025-03-02T11:40:36Z</time>
      </trkpt>
      <trkpt lat="45.70399" lon="4.72524">
        <ele>311.6</ele>
        <time>2025-03-02T11:40:37Z</time>
      </trkpt>
      <trkpt lat="45.70401" lon="4.72535">
        <ele>311.4</ele>
        <time>2025-03-02T11:40:38Z</time>
      </trkpt>
      <trkpt lat="45.70402" lon="4.72541">
        <ele>310.8</ele>
        <time>2025-03-02T11:40:39Z</time>
      </trkpt>
      <trkpt lat="45.70403" lon="4.7255">
        <ele>310.6</ele>
        <time>2025-03-02T11:40:40Z</time>
      </trkpt>
      <trkpt lat="45.70405" lon="4.72559">
        <ele>310.4</ele>
        <time>2025-03-02T11:40:41Z</time>
      </trkpt>
      <trkpt lat="45.70407" lon="4.72569">
        <ele>310</ele>
        <time>2025-03-02T11:40:42Z</time>
      </trkpt>
      <trkpt lat="45.70408" lon="4.72576">
        <ele>309.6</ele>
        <time>2025-03-02T11:40:43Z</time>
      </trkpt>
      <trkpt lat="45.7041" lon="4.72585">
        <ele>309.6</ele>
        <time>2025-03-02T11:40:44Z</time>
      </trkpt>
      <trkpt lat="45.70412" lon="4.72594">
        <ele>309.4</ele>
        <time>2025-03-02T11:40:45Z</time>
      </trkpt>
      <trkpt lat="45.70414" lon="4.72605">
        <ele>309.4</ele>
        <time>2025-03-02T11:40:46Z</time>
      </trkpt>
      <trkpt lat="45.70415" lon="4.72613">
        <ele>309.4</ele>
        <time>2025-03-02T11:40:47Z</time>
      </trkpt>
      <trkpt lat="45.70416" lon="4.7262">
        <ele>309.4</ele>
        <time>2025-03-02T11:40:48Z</time>
      </trkpt>
      <trkpt lat="45.70418" lon="4.72629">
        <ele>309.4</ele>
        <time>2025-03-02T11:40:49Z</time>
      </trkpt>
      <trkpt lat="45.70419" lon="4.72638">
        <ele>309.4</ele>
        <time>2025-03-02T11:40:50Z</time>
      </trkpt>
      <trkpt lat="45.70421" lon="4.72649">
        <ele>309.4</ele>
        <time>2025-03-02T11:40:51Z</time>
      </trkpt>
      <trkpt lat="45.70422" lon="4.72656">
        <ele>309.4</ele>
        <time>2025-03-02T11:40:52Z</time>
      </trkpt>
      <trkpt lat="45.70424" lon="4.72665">
        <ele>309.4</ele>
        <time>2025-03-02T11:40:53Z</time>
      </trkpt>
      <trkpt lat="45.70425" lon="4.72676">
        <ele>309.4</ele>
        <time>2025-03-02T11:40:54Z</time>
      </trkpt>
      <trkpt lat="45.70427" lon="4.72685">
        <ele>309.4</ele>
        <time>2025-03-02T11:40:55Z</time>
      </trkpt>
      <trkpt lat="45.70428" lon="4.72694">
        <ele>309.2</ele>
        <time>2025-03-02T11:40:56Z</time>
      </trkpt>
      <trkpt lat="45.70429" lon="4.72702">
        <ele>309.2</ele>
        <time>2025-03-02T11:40:57Z</time>
      </trkpt>
      <trkpt lat="45.70431" lon="4.72711">
        <ele>309.2</ele>
        <time>2025-03-02T11:40:58Z</time>
      </trkpt>
      <trkpt lat="45.70433" lon="4.72722">
        <ele>309</ele>
        <time>2025-03-02T11:40:59Z</time>
      </trkpt>
      <trkpt lat="45.70434" lon="4.72729">
        <ele>309</ele>
        <time>2025-03-02T11:41:00Z</time>
      </trkpt>
      <trkpt lat="45.70436" lon="4.72738">
        <ele>309</ele>
        <time>2025-03-02T11:41:01Z</time>
      </trkpt>
      <trkpt lat="45.70437" lon="4.72747">
        <ele>309</ele>
        <time>2025-03-02T11:41:02Z</time>
      </trkpt>
      <trkpt lat="45.70438" lon="4.72757">
        <ele>309</ele>
        <time>2025-03-02T11:41:03Z</time>
      </trkpt>
      <trkpt lat="45.70439" lon="4.72766">
        <ele>308.8</ele>
        <time>2025-03-02T11:41:04Z</time>
      </trkpt>
      <trkpt lat="45.7044" lon="4.72774">
        <ele>308.8</ele>
        <time>2025-03-02T11:41:05Z</time>
      </trkpt>
      <trkpt lat="45.70441" lon="4.72783">
        <ele>308.6</ele>
        <time>2025-03-02T11:41:06Z</time>
      </trkpt>
      <trkpt lat="45.70441" lon="4.72794">
        <ele>308.6</ele>
        <time>2025-03-02T11:41:07Z</time>
      </trkpt>
      <trkpt lat="45.70441" lon="4.72803">
        <ele>308.4</ele>
        <time>2025-03-02T11:41:08Z</time>
      </trkpt>
      <trkpt lat="45.70439" lon="4.72811">
        <ele>308.4</ele>
        <time>2025-03-02T11:41:09Z</time>
      </trkpt>
      <trkpt lat="45.70437" lon="4.72818">
        <ele>308.4</ele>
        <time>2025-03-02T11:41:10Z</time>
      </trkpt>
      <trkpt lat="45.70434" lon="4.72826">
        <ele>308.4</ele>
        <time>2025-03-02T11:41:11Z</time>
      </trkpt>
      <trkpt lat="45.70431" lon="4.72834">
        <ele>308.4</ele>
        <time>2025-03-02T11:41:12Z</time>
      </trkpt>
      <trkpt lat="45.70427" lon="4.72844">
        <ele>308.4</ele>
        <time>2025-03-02T11:41:13Z</time>
      </trkpt>
      <trkpt lat="45.70425" lon="4.7285">
        <ele>308.4</ele>
        <time>2025-03-02T11:41:14Z</time>
      </trkpt>
      <trkpt lat="45.70421" lon="4.72857">
        <ele>308.4</ele>
        <time>2025-03-02T11:41:15Z</time>
      </trkpt>
      <trkpt lat="45.70416" lon="4.72866">
        <ele>308.4</ele>
        <time>2025-03-02T11:41:16Z</time>
      </trkpt>
      <trkpt lat="45.70413" lon="4.72873">
        <ele>308.4</ele>
        <time>2025-03-02T11:41:17Z</time>
      </trkpt>
      <trkpt lat="45.70409" lon="4.7288">
        <ele>308.4</ele>
        <time>2025-03-02T11:41:18Z</time>
      </trkpt>
      <trkpt lat="45.70406" lon="4.72886">
        <ele>308.4</ele>
        <time>2025-03-02T11:41:19Z</time>
      </trkpt>
      <trkpt lat="45.70402" lon="4.72895">
        <ele>308.6</ele>
        <time>2025-03-02T11:41:20Z</time>
      </trkpt>
      <trkpt lat="45.70398" lon="4.72902">
        <ele>308.6</ele>
        <time>2025-03-02T11:41:21Z</time>
      </trkpt>
      <trkpt lat="45.70394" lon="4.72909">
        <ele>308.6</ele>
        <time>2025-03-02T11:41:22Z</time>
      </trkpt>
      <trkpt lat="45.70392" lon="4.72915">
        <ele>308.6</ele>
        <time>2025-03-02T11:41:23Z</time>
      </trkpt>
      <trkpt lat="45.70388" lon="4.72922">
        <ele>308.6</ele>
        <time>2025-03-02T11:41:24Z</time>
      </trkpt>
      <trkpt lat="45.70384" lon="4.72931">
        <ele>308.6</ele>
        <time>2025-03-02T11:41:25Z</time>
      </trkpt>
      <trkpt lat="45.7038" lon="4.72938">
        <ele>308.6</ele>
        <time>2025-03-02T11:41:26Z</time>
      </trkpt>
      <trkpt lat="45.70377" lon="4.72944">
        <ele>308.6</ele>
        <time>2025-03-02T11:41:27Z</time>
      </trkpt>
      <trkpt lat="45.70374" lon="4.72952">
        <ele>308.6</ele>
        <time>2025-03-02T11:41:28Z</time>
      </trkpt>
      <trkpt lat="45.7037" lon="4.72961">
        <ele>308.6</ele>
        <time>2025-03-02T11:41:29Z</time>
      </trkpt>
      <trkpt lat="45.70367" lon="4.72968">
        <ele>308.6</ele>
        <time>2025-03-02T11:41:30Z</time>
      </trkpt>
      <trkpt lat="45.70364" lon="4.72974">
        <ele>308.4</ele>
        <time>2025-03-02T11:41:31Z</time>
      </trkpt>
      <trkpt lat="45.70361" lon="4.72981">
        <ele>308.4</ele>
        <time>2025-03-02T11:41:32Z</time>
      </trkpt>
      <trkpt lat="45.70358" lon="4.72989">
        <ele>308.4</ele>
        <time>2025-03-02T11:41:33Z</time>
      </trkpt>
      <trkpt lat="45.70354" lon="4.72998">
        <ele>308.4</ele>
        <time>2025-03-02T11:41:34Z</time>
      </trkpt>
      <trkpt lat="45.70351" lon="4.73005">
        <ele>308.2</ele>
        <time>2025-03-02T11:41:35Z</time>
      </trkpt>
      <trkpt lat="45.70349" lon="4.73012">
        <ele>308.4</ele>
        <time>2025-03-02T11:41:36Z</time>
      </trkpt>
      <trkpt lat="45.70346" lon="4.73019">
        <ele>308.4</ele>
        <time>2025-03-02T11:41:37Z</time>
      </trkpt>
      <trkpt lat="45.70342" lon="4.73028">
        <ele>308.4</ele>
        <time>2025-03-02T11:41:38Z</time>
      </trkpt>
      <trkpt lat="45.70339" lon="4.73036">
        <ele>308.6</ele>
        <time>2025-03-02T11:41:39Z</time>
      </trkpt>
      <trkpt lat="45.70337" lon="4.73042">
        <ele>308.6</ele>
        <time>2025-03-02T11:41:40Z</time>
      </trkpt>
      <trkpt lat="45.70335" lon="4.73049">
        <ele>308.6</ele>
        <time>2025-03-02T11:41:41Z</time>
      </trkpt>
      <trkpt lat="45.70333" lon="4.73057">
        <ele>308.6</ele>
        <time>2025-03-02T11:41:42Z</time>
      </trkpt>
      <trkpt lat="45.70331" lon="4.73064">
        <ele>308.6</ele>
        <time>2025-03-02T11:41:43Z</time>
      </trkpt>
      <trkpt lat="45.70329" lon="4.73071">
        <ele>309</ele>
        <time>2025-03-02T11:41:44Z</time>
      </trkpt>
      <trkpt lat="45.70328" lon="4.73076">
        <ele>309.4</ele>
        <time>2025-03-02T11:41:45Z</time>
      </trkpt>
      <trkpt lat="45.70326" lon="4.73082">
        <ele>309.6</ele>
        <time>2025-03-02T11:41:46Z</time>
      </trkpt>
      <trkpt lat="45.70325" lon="4.7309">
        <ele>309.6</ele>
        <time>2025-03-02T11:41:47Z</time>
      </trkpt>
      <trkpt lat="45.70323" lon="4.73094">
        <ele>309.8</ele>
        <time>2025-03-02T11:41:48Z</time>
      </trkpt>
      <trkpt lat="45.70323" lon="4.73097">
        <ele>309.8</ele>
        <time>2025-03-02T11:41:49Z</time>
      </trkpt>
      <trkpt lat="45.70323" lon="4.73099">
        <ele>310</ele>
        <time>2025-03-02T11:41:50Z</time>
      </trkpt>
      <trkpt lat="45.70323" lon="4.73099">
        <ele>309.8</ele>
        <time>2025-03-02T11:41:51Z</time>
      </trkpt>
      <trkpt lat="45.70323" lon="4.73099">
        <ele>310</ele>
        <time>2025-03-02T11:41:52Z</time>
      </trkpt>
      <trkpt lat="45.70323" lon="4.73099">
        <ele>310.2</ele>
        <time>2025-03-02T11:41:53Z</time>
      </trkpt>
      <trkpt lat="45.70323" lon="4.73099">
        <ele>310.2</ele>
        <time>2025-03-02T11:41:54Z</time>
      </trkpt>
      <trkpt lat="45.70323" lon="4.73099">
        <ele>310.2</ele>
        <time>2025-03-02T11:41:55Z</time>
      </trkpt>
      <trkpt lat="45.70324" lon="4.731">
        <ele>310.2</ele>
        <time>2025-03-02T11:41:56Z</time>
      </trkpt>
      <trkpt lat="45.70324" lon="4.73102">
        <ele>310.2</ele>
        <time>2025-03-02T11:41:57Z</time>
      </trkpt>
      <trkpt lat="45.70325" lon="4.73103">
        <ele>310.2</ele>
        <time>2025-03-02T11:41:58Z</time>
      </trkpt>
      <trkpt lat="45.70327" lon="4.73104">
        <ele>310.2</ele>
        <time>2025-03-02T11:41:59Z</time>
      </trkpt>
      <trkpt lat="45.70329" lon="4.73106">
        <ele>310</ele>
        <time>2025-03-02T11:42:00Z</time>
      </trkpt>
      <trkpt lat="45.70329" lon="4.73107">
        <ele>309.8</ele>
        <time>2025-03-02T11:42:01Z</time>
      </trkpt>
      <trkpt lat="45.70329" lon="4.73107">
        <ele>309.8</ele>
        <time>2025-03-02T11:42:02Z</time>
      </trkpt>
      <trkpt lat="45.70329" lon="4.73107">
        <ele>309.8</ele>
        <time>2025-03-02T11:42:03Z</time>
      </trkpt>
      <trkpt lat="45.70329" lon="4.73107">
        <ele>309.8</ele>
        <time>2025-03-02T11:42:04Z</time>
      </trkpt>
      <trkpt lat="45.70329" lon="4.73107">
        <ele>309.8</ele>
        <time>2025-03-02T11:42:05Z</time>
      </trkpt>
      <trkpt lat="45.70329" lon="4.73107">
        <ele>309.8</ele>
        <time>2025-03-02T11:42:06Z</time>
      </trkpt>
      <trkpt lat="45.70329" lon="4.73107">
        <ele>309.8</ele>
        <time>2025-03-02T11:42:07Z</time>
      </trkpt>
      <trkpt lat="45.70329" lon="4.73107">
        <ele>309.8</ele>
        <time>2025-03-02T11:42:08Z</time>
      </trkpt>
      <trkpt lat="45.70329" lon="4.73107">
        <ele>309.8</ele>
        <time>2025-03-02T11:42:09Z</time>
      </trkpt>
      <trkpt lat="45.70329" lon="4.73107">
        <ele>309.8</ele>
        <time>2025-03-02T11:42:10Z</time>
      </trkpt>
      <trkpt lat="45.70329" lon="4.73107">
        <ele>309.8</ele>
        <time>2025-03-02T11:42:11Z</time>
      </trkpt>
      <trkpt lat="45.70329" lon="4.73107">
        <ele>309.8</ele>
        <time>2025-03-02T11:42:12Z</time>
      </trkpt>
      <trkpt lat="45.70329" lon="4.73107">
        <ele>309.6</ele>
        <time>2025-03-02T11:42:13Z</time>
      </trkpt>
      <trkpt lat="45.70329" lon="4.73107">
        <ele>309.6</ele>
        <time>2025-03-02T11:42:14Z</time>
      </trkpt>
      <trkpt lat="45.70329" lon="4.73107">
        <ele>309.6</ele>
        <time>2025-03-02T11:42:15Z</time>
      </trkpt>
      <trkpt lat="45.70329" lon="4.73107">
        <ele>309.6</ele>
        <time>2025-03-02T11:42:16Z</time>
      </trkpt>
      <trkpt lat="45.70329" lon="4.73107">
        <ele>309.6</ele>
        <time>2025-03-02T11:42:17Z</time>
      </trkpt>
      <trkpt lat="45.70329" lon="4.73107">
        <ele>309.6</ele>
        <time>2025-03-02T11:42:18Z</time>
      </trkpt>
      <trkpt lat="45.70329" lon="4.73107">
        <ele>309.6</ele>
        <time>2025-03-02T11:42:19Z</time>
      </trkpt>
      <trkpt lat="45.70329" lon="4.73107">
        <ele>309.6</ele>
        <time>2025-03-02T11:42:20Z</time>
      </trkpt>
      <trkpt lat="45.70329" lon="4.73107">
        <ele>309.6</ele>
        <time>2025-03-02T11:42:21Z</time>
      </trkpt>
      <trkpt lat="45.70329" lon="4.73107">
        <ele>309.6</ele>
        <time>2025-03-02T11:42:22Z</time>
      </trkpt>
      <trkpt lat="45.70329" lon="4.73107">
        <ele>309.4</ele>
        <time>2025-03-02T11:42:23Z</time>
      </trkpt>
      <trkpt lat="45.70329" lon="4.73107">
        <ele>309.4</ele>
        <time>2025-03-02T11:42:24Z</time>
      </trkpt>
      <trkpt lat="45.70329" lon="4.73107">
        <ele>309.4</ele>
        <time>2025-03-02T11:42:25Z</time>
      </trkpt>
      <trkpt lat="45.70329" lon="4.73107">
        <ele>309.4</ele>
        <time>2025-03-02T11:42:26Z</time>
      </trkpt>
      <trkpt lat="45.70329" lon="4.73107">
        <ele>309.4</ele>
        <time>2025-03-02T11:42:27Z</time>
      </trkpt>
      <trkpt lat="45.70329" lon="4.73107">
        <ele>309.4</ele>
        <time>2025-03-02T11:42:28Z</time>
      </trkpt>
      <trkpt lat="45.70329" lon="4.73107">
        <ele>309.4</ele>
        <time>2025-03-02T11:42:29Z</time>
      </trkpt>
      <trkpt lat="45.70329" lon="4.73107">
        <ele>309.4</ele>
        <time>2025-03-02T11:42:30Z</time>
      </trkpt>
      <trkpt lat="45.70329" lon="4.73107">
        <ele>309.4</ele>
        <time>2025-03-02T11:42:31Z</time>
      </trkpt>
      <trkpt lat="45.70329" lon="4.73107">
        <ele>309.4</ele>
        <time>2025-03-02T11:42:32Z</time>
      </trkpt>
      <trkpt lat="45.70329" lon="4.73107">
        <ele>309.4</ele>
        <time>2025-03-02T11:42:33Z</time>
      </trkpt>
      <trkpt lat="45.70329" lon="4.73107">
        <ele>309.2</ele>
        <time>2025-03-02T11:42:34Z</time>
      </trkpt>
      <trkpt lat="45.70329" lon="4.73107">
        <ele>309.2</ele>
        <time>2025-03-02T11:42:35Z</time>
      </trkpt>
      <trkpt lat="45.70329" lon="4.73107">
        <ele>309.2</ele>
        <time>2025-03-02T11:42:36Z</time>
      </trkpt>
      <trkpt lat="45.70329" lon="4.73107">
        <ele>309.2</ele>
        <time>2025-03-02T11:42:37Z</time>
      </trkpt>
      <trkpt lat="45.70329" lon="4.73107">
        <ele>309.2</ele>
        <time>2025-03-02T11:42:38Z</time>
      </trkpt>
      <trkpt lat="45.70329" lon="4.73107">
        <ele>309.2</ele>
        <time>2025-03-02T11:42:39Z</time>
      </trkpt>
      <trkpt lat="45.70329" lon="4.73107">
        <ele>309.2</ele>
        <time>2025-03-02T11:42:40Z</time>
      </trkpt>
      <trkpt lat="45.70329" lon="4.73107">
        <ele>309.2</ele>
        <time>2025-03-02T11:42:41Z</time>
      </trkpt>
      <trkpt lat="45.70329" lon="4.73107">
        <ele>309.2</ele>
        <time>2025-03-02T11:42:42Z</time>
      </trkpt>
      <trkpt lat="45.70329" lon="4.73107">
        <ele>309.2</ele>
        <time>2025-03-02T11:42:43Z</time>
      </trkpt>
      <trkpt lat="45.70329" lon="4.73107">
        <ele>309.2</ele>
        <time>2025-03-02T11:42:44Z</time>
      </trkpt>
      <trkpt lat="45.70329" lon="4.73107">
        <ele>309.2</ele>
        <time>2025-03-02T11:42:45Z</time>
      </trkpt>
      <trkpt lat="45.70329" lon="4.73107">
        <ele>309.2</ele>
        <time>2025-03-02T11:42:46Z</time>
      </trkpt>
      <trkpt lat="45.70329" lon="4.73107">
        <ele>309.2</ele>
        <time>2025-03-02T11:42:47Z</time>
      </trkpt>
      <trkpt lat="45.70329" lon="4.73107">
        <ele>309</ele>
        <time>2025-03-02T11:42:48Z</time>
      </trkpt>
      <trkpt lat="45.70329" lon="4.73107">
        <ele>309</ele>
        <time>2025-03-02T11:42:49Z</time>
      </trkpt>
      <trkpt lat="45.70329" lon="4.73107">
        <ele>309</ele>
        <time>2025-03-02T11:42:50Z</time>
      </trkpt>
      <trkpt lat="45.70329" lon="4.73107">
        <ele>309</ele>
        <time>2025-03-02T11:42:51Z</time>
      </trkpt>
      <trkpt lat="45.70329" lon="4.73107">
        <ele>309</ele>
        <time>2025-03-02T11:42:52Z</time>
      </trkpt>
      <trkpt lat="45.70329" lon="4.73107">
        <ele>309</ele>
        <time>2025-03-02T11:42:53Z</time>
      </trkpt>
      <trkpt lat="45.70329" lon="4.73107">
        <ele>309</ele>
        <time>2025-03-02T11:42:54Z</time>
      </trkpt>
      <trkpt lat="45.70329" lon="4.73107">
        <ele>309</ele>
        <time>2025-03-02T11:42:55Z</time>
      </trkpt>
      <trkpt lat="45.70329" lon="4.73107">
        <ele>309</ele>
        <time>2025-03-02T11:42:56Z</time>
      </trkpt>
      <trkpt lat="45.70329" lon="4.73107">
        <ele>309</ele>
        <time>2025-03-02T11:42:57Z</time>
      </trkpt>
      <trkpt lat="45.70329" lon="4.73107">
        <ele>309</ele>
        <time>2025-03-02T11:42:58Z</time>
      </trkpt>
      <trkpt lat="45.70329" lon="4.73107">
        <ele>309</ele>
        <time>2025-03-02T11:42:59Z</time>
      </trkpt>
      <trkpt lat="45.70329" lon="4.73107">
        <ele>309</ele>
        <time>2025-03-02T11:43:00Z</time>
      </trkpt>
      <trkpt lat="45.70329" lon="4.73107">
        <ele>309</ele>
        <time>2025-03-02T11:43:01Z</time>
      </trkpt>
      <trkpt lat="45.70329" lon="4.73107">
        <ele>309</ele>
        <time>2025-03-02T11:43:02Z</time>
      </trkpt>
      <trkpt lat="45.70329" lon="4.73107">
        <ele>308.8</ele>
        <time>2025-03-02T11:43:03Z</time>
      </trkpt>
      <trkpt lat="45.70329" lon="4.73107">
        <ele>308.8</ele>
        <time>2025-03-02T11:43:04Z</time>
      </trkpt>
      <trkpt lat="45.70329" lon="4.73107">
        <ele>308.8</ele>
        <time>2025-03-02T11:43:05Z</time>
      </trkpt>
      <trkpt lat="45.70329" lon="4.73107">
        <ele>308.8</ele>
        <time>2025-03-02T11:43:06Z</time>
      </trkpt>
      <trkpt lat="45.70329" lon="4.73107">
        <ele>308.8</ele>
        <time>2025-03-02T11:43:07Z</time>
      </trkpt>
      <trkpt lat="45.70329" lon="4.73107">
        <ele>309</ele>
        <time>2025-03-02T11:43:08Z</time>
      </trkpt>
      <trkpt lat="45.70329" lon="4.73107">
        <ele>309</ele>
        <time>2025-03-02T11:43:09Z</time>
      </trkpt>
      <trkpt lat="45.70329" lon="4.73107">
        <ele>309</ele>
        <time>2025-03-02T11:43:10Z</time>
      </trkpt>
      <trkpt lat="45.70329" lon="4.73107">
        <ele>309</ele>
        <time>2025-03-02T11:43:11Z</time>
      </trkpt>
      <trkpt lat="45.70329" lon="4.73107">
        <ele>309</ele>
        <time>2025-03-02T11:43:12Z</time>
      </trkpt>
      <trkpt lat="45.70329" lon="4.73107">
        <ele>309</ele>
        <time>2025-03-02T11:43:13Z</time>
      </trkpt>
      <trkpt lat="45.70329" lon="4.73107">
        <ele>309</ele>
        <time>2025-03-02T11:43:14Z</time>
      </trkpt>
      <trkpt lat="45.70329" lon="4.73107">
        <ele>309</ele>
        <time>2025-03-02T11:43:15Z</time>
      </trkpt>
      <trkpt lat="45.70329" lon="4.73107">
        <ele>309.2</ele>
        <time>2025-03-02T11:43:16Z</time>
      </trkpt>
      <trkpt lat="45.70329" lon="4.73107">
        <ele>309.2</ele>
        <time>2025-03-02T11:43:17Z</time>
      </trkpt>
      <trkpt lat="45.7033" lon="4.73107">
        <ele>309.2</ele>
        <time>2025-03-02T11:43:18Z</time>
      </trkpt>
      <trkpt lat="45.70331" lon="4.73106">
        <ele>309.2</ele>
        <time>2025-03-02T11:43:19Z</time>
      </trkpt>
      <trkpt lat="45.70333" lon="4.73105">
        <ele>309.2</ele>
        <time>2025-03-02T11:43:20Z</time>
      </trkpt>
      <trkpt lat="45.70336" lon="4.73106">
        <ele>309.2</ele>
        <time>2025-03-02T11:43:21Z</time>
      </trkpt>
      <trkpt lat="45.7034" lon="4.73109">
        <ele>309.2</ele>
        <time>2025-03-02T11:43:22Z</time>
      </trkpt>
      <trkpt lat="45.70343" lon="4.73114">
        <ele>308.8</ele>
        <time>2025-03-02T11:43:23Z</time>
      </trkpt>
      <trkpt lat="45.70347" lon="4.73119">
        <ele>308.2</ele>
        <time>2025-03-02T11:43:24Z</time>
      </trkpt>
      <trkpt lat="45.70351" lon="4.73124">
        <ele>307.8</ele>
        <time>2025-03-02T11:43:25Z</time>
      </trkpt>
      <trkpt lat="45.70356" lon="4.7313">
        <ele>307.2</ele>
        <time>2025-03-02T11:43:26Z</time>
      </trkpt>
      <trkpt lat="45.70361" lon="4.73136">
        <ele>307</ele>
        <time>2025-03-02T11:43:27Z</time>
      </trkpt>
      <trkpt lat="45.70366" lon="4.73142">
        <ele>306.8</ele>
        <time>2025-03-02T11:43:28Z</time>
      </trkpt>
      <trkpt lat="45.70371" lon="4.73148">
        <ele>306.6</ele>
        <time>2025-03-02T11:43:29Z</time>
      </trkpt>
      <trkpt lat="45.70376" lon="4.73153">
        <ele>306.6</ele>
        <time>2025-03-02T11:43:30Z</time>
      </trkpt>
      <trkpt lat="45.70382" lon="4.73158">
        <ele>306.6</ele>
        <time>2025-03-02T11:43:31Z</time>
      </trkpt>
      <trkpt lat="45.70387" lon="4.73163">
        <ele>306.6</ele>
        <time>2025-03-02T11:43:32Z</time>
      </trkpt>
      <trkpt lat="45.70392" lon="4.73167">
        <ele>306.6</ele>
        <time>2025-03-02T11:43:33Z</time>
      </trkpt>
      <trkpt lat="45.70398" lon="4.73171">
        <ele>306.6</ele>
        <time>2025-03-02T11:43:34Z</time>
      </trkpt>
      <trkpt lat="45.70403" lon="4.73175">
        <ele>306.6</ele>
        <time>2025-03-02T11:43:35Z</time>
      </trkpt>
      <trkpt lat="45.70409" lon="4.73179">
        <ele>306.6</ele>
        <time>2025-03-02T11:43:36Z</time>
      </trkpt>
      <trkpt lat="45.70414" lon="4.73182">
        <ele>306.4</ele>
        <time>2025-03-02T11:43:37Z</time>
      </trkpt>
      <trkpt lat="45.7042" lon="4.73186">
        <ele>306.4</ele>
        <time>2025-03-02T11:43:38Z</time>
      </trkpt>
      <trkpt lat="45.70426" lon="4.7319">
        <ele>306.4</ele>
        <time>2025-03-02T11:43:39Z</time>
      </trkpt>
      <trkpt lat="45.70431" lon="4.73194">
        <ele>306.4</ele>
        <time>2025-03-02T11:43:40Z</time>
      </trkpt>
      <trkpt lat="45.70437" lon="4.73198">
        <ele>306.4</ele>
        <time>2025-03-02T11:43:41Z</time>
      </trkpt>
      <trkpt lat="45.70442" lon="4.73202">
        <ele>306.4</ele>
        <time>2025-03-02T11:43:42Z</time>
      </trkpt>
      <trkpt lat="45.70447" lon="4.73205">
        <ele>306.4</ele>
        <time>2025-03-02T11:43:43Z</time>
      </trkpt>
      <trkpt lat="45.70454" lon="4.7321">
        <ele>306.6</ele>
        <time>2025-03-02T11:43:44Z</time>
      </trkpt>
      <trkpt lat="45.7046" lon="4.73214">
        <ele>306.6</ele>
        <time>2025-03-02T11:43:45Z</time>
      </trkpt>
      <trkpt lat="45.70465" lon="4.73218">
        <ele>306.6</ele>
        <time>2025-03-02T11:43:46Z</time>
      </trkpt>
      <trkpt lat="45.70471" lon="4.73221">
        <ele>306.6</ele>
        <time>2025-03-02T11:43:47Z</time>
      </trkpt>
      <trkpt lat="45.70477" lon="4.73225">
        <ele>306.6</ele>
        <time>2025-03-02T11:43:48Z</time>
      </trkpt>
      <trkpt lat="45.70482" lon="4.73229">
        <ele>306.6</ele>
        <time>2025-03-02T11:43:49Z</time>
      </trkpt>
      <trkpt lat="45.70488" lon="4.73233">
        <ele>306.2</ele>
        <time>2025-03-02T11:43:50Z</time>
      </trkpt>
      <trkpt lat="45.70494" lon="4.73237">
        <ele>306.2</ele>
        <time>2025-03-02T11:43:51Z</time>
      </trkpt>
      <trkpt lat="45.70499" lon="4.73241">
        <ele>306</ele>
        <time>2025-03-02T11:43:52Z</time>
      </trkpt>
      <trkpt lat="45.70505" lon="4.73244">
        <ele>305.8</ele>
        <time>2025-03-02T11:43:53Z</time>
      </trkpt>
      <trkpt lat="45.70511" lon="4.73248">
        <ele>305.6</ele>
        <time>2025-03-02T11:43:54Z</time>
      </trkpt>
      <trkpt lat="45.70516" lon="4.73252">
        <ele>305.8</ele>
        <time>2025-03-02T11:43:55Z</time>
      </trkpt>
      <trkpt lat="45.70522" lon="4.73256">
        <ele>305.8</ele>
        <time>2025-03-02T11:43:56Z</time>
      </trkpt>
      <trkpt lat="45.70527" lon="4.7326">
        <ele>305.8</ele>
        <time>2025-03-02T11:43:57Z</time>
      </trkpt>
      <trkpt lat="45.70533" lon="4.73263">
        <ele>305.8</ele>
        <time>2025-03-02T11:43:58Z</time>
      </trkpt>
      <trkpt lat="45.70538" lon="4.73267">
        <ele>306</ele>
        <time>2025-03-02T11:43:59Z</time>
      </trkpt>
      <trkpt lat="45.70544" lon="4.73272">
        <ele>306.2</ele>
        <time>2025-03-02T11:44:00Z</time>
      </trkpt>
      <trkpt lat="45.70549" lon="4.73276">
        <ele>306.2</ele>
        <time>2025-03-02T11:44:01Z</time>
      </trkpt>
      <trkpt lat="45.70554" lon="4.73281">
        <ele>306.2</ele>
        <time>2025-03-02T11:44:02Z</time>
      </trkpt>
      <trkpt lat="45.70559" lon="4.73286">
        <ele>306.4</ele>
        <time>2025-03-02T11:44:03Z</time>
      </trkpt>
      <trkpt lat="45.70564" lon="4.7329">
        <ele>306.4</ele>
        <time>2025-03-02T11:44:04Z</time>
      </trkpt>
      <trkpt lat="45.70569" lon="4.73295">
        <ele>306.4</ele>
        <time>2025-03-02T11:44:05Z</time>
      </trkpt>
      <trkpt lat="45.70574" lon="4.73301">
        <ele>306.4</ele>
        <time>2025-03-02T11:44:06Z</time>
      </trkpt>
      <trkpt lat="45.70579" lon="4.73306">
        <ele>306.4</ele>
        <time>2025-03-02T11:44:07Z</time>
      </trkpt>
      <trkpt lat="45.70583" lon="4.73312">
        <ele>306.6</ele>
        <time>2025-03-02T11:44:08Z</time>
      </trkpt>
      <trkpt lat="45.70588" lon="4.73319">
        <ele>306.6</ele>
        <time>2025-03-02T11:44:09Z</time>
      </trkpt>
      <trkpt lat="45.70592" lon="4.73325">
        <ele>306.6</ele>
        <time>2025-03-02T11:44:10Z</time>
      </trkpt>
      <trkpt lat="45.70596" lon="4.73331">
        <ele>306.8</ele>
        <time>2025-03-02T11:44:11Z</time>
      </trkpt>
      <trkpt lat="45.706" lon="4.73337">
        <ele>306.8</ele>
        <time>2025-03-02T11:44:12Z</time>
      </trkpt>
      <trkpt lat="45.70605" lon="4.73343">
        <ele>306.8</ele>
        <time>2025-03-02T11:44:13Z</time>
      </trkpt>
      <trkpt lat="45.70609" lon="4.73349">
        <ele>306.8</ele>
        <time>2025-03-02T11:44:14Z</time>
      </trkpt>
      <trkpt lat="45.70613" lon="4.73355">
        <ele>306.8</ele>
        <time>2025-03-02T11:44:15Z</time>
      </trkpt>
      <trkpt lat="45.70618" lon="4.73361">
        <ele>306.8</ele>
        <time>2025-03-02T11:44:16Z</time>
      </trkpt>
      <trkpt lat="45.70622" lon="4.73367">
        <ele>306.8</ele>
        <time>2025-03-02T11:44:17Z</time>
      </trkpt>
      <trkpt lat="45.70625" lon="4.73373">
        <ele>306.6</ele>
        <time>2025-03-02T11:44:18Z</time>
      </trkpt>
      <trkpt lat="45.7063" lon="4.7338">
        <ele>306.6</ele>
        <time>2025-03-02T11:44:19Z</time>
      </trkpt>
      <trkpt lat="45.70634" lon="4.73386">
        <ele>306.6</ele>
        <time>2025-03-02T11:44:20Z</time>
      </trkpt>
      <trkpt lat="45.70638" lon="4.73391">
        <ele>306.8</ele>
        <time>2025-03-02T11:44:21Z</time>
      </trkpt>
      <trkpt lat="45.70642" lon="4.73397">
        <ele>306.8</ele>
        <time>2025-03-02T11:44:22Z</time>
      </trkpt>
      <trkpt lat="45.70647" lon="4.73403">
        <ele>307.4</ele>
        <time>2025-03-02T11:44:23Z</time>
      </trkpt>
      <trkpt lat="45.70651" lon="4.73408">
        <ele>307.6</ele>
        <time>2025-03-02T11:44:24Z</time>
      </trkpt>
      <trkpt lat="45.70655" lon="4.73414">
        <ele>307.8</ele>
        <time>2025-03-02T11:44:25Z</time>
      </trkpt>
      <trkpt lat="45.70658" lon="4.73419">
        <ele>307.8</ele>
        <time>2025-03-02T11:44:26Z</time>
      </trkpt>
      <trkpt lat="45.70663" lon="4.73425">
        <ele>308</ele>
        <time>2025-03-02T11:44:27Z</time>
      </trkpt>
      <trkpt lat="45.70667" lon="4.73431">
        <ele>308.4</ele>
        <time>2025-03-02T11:44:28Z</time>
      </trkpt>
      <trkpt lat="45.70671" lon="4.73436">
        <ele>308.6</ele>
        <time>2025-03-02T11:44:29Z</time>
      </trkpt>
      <trkpt lat="45.70675" lon="4.73441">
        <ele>308.6</ele>
        <time>2025-03-02T11:44:30Z</time>
      </trkpt>
      <trkpt lat="45.70679" lon="4.73447">
        <ele>309</ele>
        <time>2025-03-02T11:44:31Z</time>
      </trkpt>
      <trkpt lat="45.70683" lon="4.73452">
        <ele>309.2</ele>
        <time>2025-03-02T11:44:32Z</time>
      </trkpt>
      <trkpt lat="45.70687" lon="4.73458">
        <ele>309.8</ele>
        <time>2025-03-02T11:44:33Z</time>
      </trkpt>
      <trkpt lat="45.70691" lon="4.73463">
        <ele>310</ele>
        <time>2025-03-02T11:44:34Z</time>
      </trkpt>
      <trkpt lat="45.70695" lon="4.73468">
        <ele>310</ele>
        <time>2025-03-02T11:44:35Z</time>
      </trkpt>
      <trkpt lat="45.707" lon="4.73473">
        <ele>310</ele>
        <time>2025-03-02T11:44:36Z</time>
      </trkpt>
      <trkpt lat="45.70704" lon="4.73477">
        <ele>310</ele>
        <time>2025-03-02T11:44:37Z</time>
      </trkpt>
      <trkpt lat="45.70708" lon="4.73481">
        <ele>310</ele>
        <time>2025-03-02T11:44:38Z</time>
      </trkpt>
      <trkpt lat="45.70713" lon="4.73486">
        <ele>310</ele>
        <time>2025-03-02T11:44:39Z</time>
      </trkpt>
      <trkpt lat="45.70718" lon="4.7349">
        <ele>310</ele>
        <time>2025-03-02T11:44:40Z</time>
      </trkpt>
      <trkpt lat="45.70721" lon="4.73494">
        <ele>310.2</ele>
        <time>2025-03-02T11:44:41Z</time>
      </trkpt>
      <trkpt lat="45.70727" lon="4.73499">
        <ele>310.2</ele>
        <time>2025-03-02T11:44:42Z</time>
      </trkpt>
      <trkpt lat="45.70731" lon="4.73504">
        <ele>310.2</ele>
        <time>2025-03-02T11:44:43Z</time>
      </trkpt>
      <trkpt lat="45.70735" lon="4.73509">
        <ele>310.2</ele>
        <time>2025-03-02T11:44:44Z</time>
      </trkpt>
      <trkpt lat="45.7074" lon="4.73513">
        <ele>310.2</ele>
        <time>2025-03-02T11:44:45Z</time>
      </trkpt>
      <trkpt lat="45.70744" lon="4.73518">
        <ele>310.2</ele>
        <time>2025-03-02T11:44:46Z</time>
      </trkpt>
      <trkpt lat="45.70749" lon="4.73523">
        <ele>310</ele>
        <time>2025-03-02T11:44:47Z</time>
      </trkpt>
      <trkpt lat="45.70754" lon="4.73528">
        <ele>310</ele>
        <time>2025-03-02T11:44:48Z</time>
      </trkpt>
      <trkpt lat="45.70758" lon="4.73532">
        <ele>310</ele>
        <time>2025-03-02T11:44:49Z</time>
      </trkpt>
      <trkpt lat="45.70762" lon="4.73537">
        <ele>310</ele>
        <time>2025-03-02T11:44:50Z</time>
      </trkpt>
      <trkpt lat="45.70766" lon="4.73541">
        <ele>310.2</ele>
        <time>2025-03-02T11:44:51Z</time>
      </trkpt>
      <trkpt lat="45.70771" lon="4.73545">
        <ele>310.4</ele>
        <time>2025-03-02T11:44:52Z</time>
      </trkpt>
      <trkpt lat="45.70775" lon="4.7355">
        <ele>310.4</ele>
        <time>2025-03-02T11:44:53Z</time>
      </trkpt>
      <trkpt lat="45.70779" lon="4.73554">
        <ele>310.4</ele>
        <time>2025-03-02T11:44:54Z</time>
      </trkpt>
      <trkpt lat="45.70784" lon="4.73559">
        <ele>310.4</ele>
        <time>2025-03-02T11:44:55Z</time>
      </trkpt>
      <trkpt lat="45.70788" lon="4.73563">
        <ele>310.4</ele>
        <time>2025-03-02T11:44:56Z</time>
      </trkpt>
      <trkpt lat="45.70792" lon="4.73567">
        <ele>310.6</ele>
        <time>2025-03-02T11:44:57Z</time>
      </trkpt>
      <trkpt lat="45.70796" lon="4.73571">
        <ele>311</ele>
        <time>2025-03-02T11:44:58Z</time>
      </trkpt>
      <trkpt lat="45.70801" lon="4.73576">
        <ele>311.2</ele>
        <time>2025-03-02T11:44:59Z</time>
      </trkpt>
      <trkpt lat="45.70806" lon="4.7358">
        <ele>311.2</ele>
        <time>2025-03-02T11:45:00Z</time>
      </trkpt>
      <trkpt lat="45.70811" lon="4.73585">
        <ele>311.2</ele>
        <time>2025-03-02T11:45:01Z</time>
      </trkpt>
      <trkpt lat="45.70815" lon="4.73589">
        <ele>311.4</ele>
        <time>2025-03-02T11:45:02Z</time>
      </trkpt>
      <trkpt lat="45.7082" lon="4.73594">
        <ele>311.4</ele>
        <time>2025-03-02T11:45:03Z</time>
      </trkpt>
      <trkpt lat="45.70825" lon="4.73599">
        <ele>311.2</ele>
        <time>2025-03-02T11:45:04Z</time>
      </trkpt>
      <trkpt lat="45.7083" lon="4.73604">
        <ele>311.2</ele>
        <time>2025-03-02T11:45:05Z</time>
      </trkpt>
      <trkpt lat="45.70835" lon="4.73609">
        <ele>311.4</ele>
        <time>2025-03-02T11:45:06Z</time>
      </trkpt>
      <trkpt lat="45.7084" lon="4.73614">
        <ele>311.4</ele>
        <time>2025-03-02T11:45:07Z</time>
      </trkpt>
      <trkpt lat="45.70845" lon="4.73619">
        <ele>311.6</ele>
        <time>2025-03-02T11:45:08Z</time>
      </trkpt>
      <trkpt lat="45.70849" lon="4.73623">
        <ele>311.6</ele>
        <time>2025-03-02T11:45:09Z</time>
      </trkpt>
      <trkpt lat="45.70855" lon="4.73629">
        <ele>311.6</ele>
        <time>2025-03-02T11:45:10Z</time>
      </trkpt>
      <trkpt lat="45.7086" lon="4.73633">
        <ele>311.6</ele>
        <time>2025-03-02T11:45:11Z</time>
      </trkpt>
      <trkpt lat="45.70864" lon="4.73638">
        <ele>311.6</ele>
        <time>2025-03-02T11:45:12Z</time>
      </trkpt>
      <trkpt lat="45.70869" lon="4.73644">
        <ele>311.8</ele>
        <time>2025-03-02T11:45:13Z</time>
      </trkpt>
      <trkpt lat="45.70874" lon="4.73649">
        <ele>311.8</ele>
        <time>2025-03-02T11:45:14Z</time>
      </trkpt>
      <trkpt lat="45.70879" lon="4.73655">
        <ele>311.8</ele>
        <time>2025-03-02T11:45:15Z</time>
      </trkpt>
      <trkpt lat="45.70884" lon="4.7366">
        <ele>311.8</ele>
        <time>2025-03-02T11:45:16Z</time>
      </trkpt>
      <trkpt lat="45.70888" lon="4.73666">
        <ele>311.8</ele>
        <time>2025-03-02T11:45:17Z</time>
      </trkpt>
      <trkpt lat="45.70892" lon="4.73672">
        <ele>311.8</ele>
        <time>2025-03-02T11:45:18Z</time>
      </trkpt>
      <trkpt lat="45.70897" lon="4.73677">
        <ele>311.8</ele>
        <time>2025-03-02T11:45:19Z</time>
      </trkpt>
      <trkpt lat="45.70902" lon="4.73681">
        <ele>311.8</ele>
        <time>2025-03-02T11:45:20Z</time>
      </trkpt>
      <trkpt lat="45.70907" lon="4.73685">
        <ele>311.8</ele>
        <time>2025-03-02T11:45:21Z</time>
      </trkpt>
      <trkpt lat="45.70912" lon="4.73689">
        <ele>311.8</ele>
        <time>2025-03-02T11:45:22Z</time>
      </trkpt>
      <trkpt lat="45.70916" lon="4.73694">
        <ele>311.8</ele>
        <time>2025-03-02T11:45:23Z</time>
      </trkpt>
      <trkpt lat="45.70921" lon="4.73699">
        <ele>311.8</ele>
        <time>2025-03-02T11:45:24Z</time>
      </trkpt>
      <trkpt lat="45.70925" lon="4.73704">
        <ele>311.8</ele>
        <time>2025-03-02T11:45:25Z</time>
      </trkpt>
      <trkpt lat="45.70929" lon="4.7371">
        <ele>311.8</ele>
        <time>2025-03-02T11:45:26Z</time>
      </trkpt>
      <trkpt lat="45.70933" lon="4.73715">
        <ele>311.8</ele>
        <time>2025-03-02T11:45:27Z</time>
      </trkpt>
      <trkpt lat="45.70937" lon="4.73721">
        <ele>311.8</ele>
        <time>2025-03-02T11:45:28Z</time>
      </trkpt>
      <trkpt lat="45.70941" lon="4.73726">
        <ele>312.2</ele>
        <time>2025-03-02T11:45:29Z</time>
      </trkpt>
      <trkpt lat="45.70946" lon="4.73732">
        <ele>312.4</ele>
        <time>2025-03-02T11:45:30Z</time>
      </trkpt>
      <trkpt lat="45.70949" lon="4.73736">
        <ele>312.4</ele>
        <time>2025-03-02T11:45:31Z</time>
      </trkpt>
      <trkpt lat="45.70954" lon="4.73742">
        <ele>312.4</ele>
        <time>2025-03-02T11:45:32Z</time>
      </trkpt>
      <trkpt lat="45.70958" lon="4.73747">
        <ele>312.6</ele>
        <time>2025-03-02T11:45:33Z</time>
      </trkpt>
      <trkpt lat="45.70963" lon="4.73752">
        <ele>312.6</ele>
        <time>2025-03-02T11:45:34Z</time>
      </trkpt>
      <trkpt lat="45.70967" lon="4.73757">
        <ele>312.6</ele>
        <time>2025-03-02T11:45:35Z</time>
      </trkpt>
      <trkpt lat="45.70971" lon="4.73763">
        <ele>313</ele>
        <time>2025-03-02T11:45:36Z</time>
      </trkpt>
      <trkpt lat="45.70975" lon="4.73768">
        <ele>313.2</ele>
        <time>2025-03-02T11:45:37Z</time>
      </trkpt>
      <trkpt lat="45.70979" lon="4.73773">
        <ele>313.4</ele>
        <time>2025-03-02T11:45:38Z</time>
      </trkpt>
      <trkpt lat="45.70983" lon="4.73778">
        <ele>313.4</ele>
        <time>2025-03-02T11:45:39Z</time>
      </trkpt>
      <trkpt lat="45.70987" lon="4.73783">
        <ele>313.4</ele>
        <time>2025-03-02T11:45:40Z</time>
      </trkpt>
      <trkpt lat="45.70991" lon="4.73788">
        <ele>313.4</ele>
        <time>2025-03-02T11:45:41Z</time>
      </trkpt>
      <trkpt lat="45.70995" lon="4.73791">
        <ele>313.6</ele>
        <time>2025-03-02T11:45:42Z</time>
      </trkpt>
      <trkpt lat="45.71" lon="4.73797">
        <ele>313.8</ele>
        <time>2025-03-02T11:45:43Z</time>
      </trkpt>
      <trkpt lat="45.71004" lon="4.73802">
        <ele>314</ele>
        <time>2025-03-02T11:45:44Z</time>
      </trkpt>
      <trkpt lat="45.71008" lon="4.73806">
        <ele>314.4</ele>
        <time>2025-03-02T11:45:45Z</time>
      </trkpt>
      <trkpt lat="45.71012" lon="4.7381">
        <ele>314.8</ele>
        <time>2025-03-02T11:45:46Z</time>
      </trkpt>
      <trkpt lat="45.71017" lon="4.73814">
        <ele>315.2</ele>
        <time>2025-03-02T11:45:47Z</time>
      </trkpt>
      <trkpt lat="45.71021" lon="4.73819">
        <ele>315.4</ele>
        <time>2025-03-02T11:45:48Z</time>
      </trkpt>
      <trkpt lat="45.71026" lon="4.73824">
        <ele>315.4</ele>
        <time>2025-03-02T11:45:49Z</time>
      </trkpt>
      <trkpt lat="45.7103" lon="4.73828">
        <ele>315.4</ele>
        <time>2025-03-02T11:45:50Z</time>
      </trkpt>
      <trkpt lat="45.71035" lon="4.73833">
        <ele>315.6</ele>
        <time>2025-03-02T11:45:51Z</time>
      </trkpt>
      <trkpt lat="45.71038" lon="4.73837">
        <ele>315.6</ele>
        <time>2025-03-02T11:45:52Z</time>
      </trkpt>
      <trkpt lat="45.71044" lon="4.73843">
        <ele>315.6</ele>
        <time>2025-03-02T11:45:53Z</time>
      </trkpt>
      <trkpt lat="45.71048" lon="4.73848">
        <ele>315.6</ele>
        <time>2025-03-02T11:45:54Z</time>
      </trkpt>
      <trkpt lat="45.71053" lon="4.73852">
        <ele>315.6</ele>
        <time>2025-03-02T11:45:55Z</time>
      </trkpt>
      <trkpt lat="45.71057" lon="4.73856">
        <ele>315.8</ele>
        <time>2025-03-02T11:45:56Z</time>
      </trkpt>
      <trkpt lat="45.71062" lon="4.73861">
        <ele>316</ele>
        <time>2025-03-02T11:45:57Z</time>
      </trkpt>
      <trkpt lat="45.71066" lon="4.73865">
        <ele>316</ele>
        <time>2025-03-02T11:45:58Z</time>
      </trkpt>
      <trkpt lat="45.7107" lon="4.73869">
        <ele>316.2</ele>
        <time>2025-03-02T11:45:59Z</time>
      </trkpt>
      <trkpt lat="45.71074" lon="4.73874">
        <ele>316.4</ele>
        <time>2025-03-02T11:46:00Z</time>
      </trkpt>
      <trkpt lat="45.71078" lon="4.73878">
        <ele>316.4</ele>
        <time>2025-03-02T11:46:01Z</time>
      </trkpt>
      <trkpt lat="45.71082" lon="4.73883">
        <ele>316.6</ele>
        <time>2025-03-02T11:46:02Z</time>
      </trkpt>
      <trkpt lat="45.71085" lon="4.73888">
        <ele>316.8</ele>
        <time>2025-03-02T11:46:03Z</time>
      </trkpt>
      <trkpt lat="45.71089" lon="4.73893">
        <ele>317</ele>
        <time>2025-03-02T11:46:04Z</time>
      </trkpt>
      <trkpt lat="45.71092" lon="4.73898">
        <ele>317.2</ele>
        <time>2025-03-02T11:46:05Z</time>
      </trkpt>
      <trkpt lat="45.71096" lon="4.73904">
        <ele>317.4</ele>
        <time>2025-03-02T11:46:06Z</time>
      </trkpt>
      <trkpt lat="45.711" lon="4.73908">
        <ele>317.6</ele>
        <time>2025-03-02T11:46:07Z</time>
      </trkpt>
      <trkpt lat="45.71105" lon="4.7391">
        <ele>317.8</ele>
        <time>2025-03-02T11:46:08Z</time>
      </trkpt>
      <trkpt lat="45.7111" lon="4.73913">
        <ele>317.8</ele>
        <time>2025-03-02T11:46:09Z</time>
      </trkpt>
      <trkpt lat="45.71115" lon="4.73914">
        <ele>317.8</ele>
        <time>2025-03-02T11:46:10Z</time>
      </trkpt>
      <trkpt lat="45.71121" lon="4.73916">
        <ele>317.8</ele>
        <time>2025-03-02T11:46:11Z</time>
      </trkpt>
      <trkpt lat="45.71126" lon="4.7392">
        <ele>318</ele>
        <time>2025-03-02T11:46:12Z</time>
      </trkpt>
      <trkpt lat="45.7113" lon="4.73924">
        <ele>318</ele>
        <time>2025-03-02T11:46:13Z</time>
      </trkpt>
      <trkpt lat="45.71135" lon="4.73929">
        <ele>318</ele>
        <time>2025-03-02T11:46:14Z</time>
      </trkpt>
      <trkpt lat="45.71139" lon="4.73933">
        <ele>318</ele>
        <time>2025-03-02T11:46:15Z</time>
      </trkpt>
      <trkpt lat="45.71144" lon="4.73938">
        <ele>318</ele>
        <time>2025-03-02T11:46:16Z</time>
      </trkpt>
      <trkpt lat="45.71148" lon="4.73942">
        <ele>318.2</ele>
        <time>2025-03-02T11:46:17Z</time>
      </trkpt>
      <trkpt lat="45.71153" lon="4.73946">
        <ele>318.6</ele>
        <time>2025-03-02T11:46:18Z</time>
      </trkpt>
      <trkpt lat="45.71157" lon="4.73951">
        <ele>318.8</ele>
        <time>2025-03-02T11:46:19Z</time>
      </trkpt>
      <trkpt lat="45.71162" lon="4.73955">
        <ele>319.2</ele>
        <time>2025-03-02T11:46:20Z</time>
      </trkpt>
      <trkpt lat="45.71166" lon="4.73959">
        <ele>319.2</ele>
        <time>2025-03-02T11:46:21Z</time>
      </trkpt>
      <trkpt lat="45.7117" lon="4.73965">
        <ele>319.4</ele>
        <time>2025-03-02T11:46:22Z</time>
      </trkpt>
      <trkpt lat="45.71171" lon="4.73971">
        <ele>319.6</ele>
        <time>2025-03-02T11:46:23Z</time>
      </trkpt>
      <trkpt lat="45.71171" lon="4.73979">
        <ele>319.6</ele>
        <time>2025-03-02T11:46:24Z</time>
      </trkpt>
      <trkpt lat="45.71171" lon="4.73987">
        <ele>319.8</ele>
        <time>2025-03-02T11:46:25Z</time>
      </trkpt>
      <trkpt lat="45.7117" lon="4.73995">
        <ele>320</ele>
        <time>2025-03-02T11:46:26Z</time>
      </trkpt>
      <trkpt lat="45.71168" lon="4.74003">
        <ele>320.2</ele>
        <time>2025-03-02T11:46:27Z</time>
      </trkpt>
      <trkpt lat="45.71167" lon="4.74011">
        <ele>320.4</ele>
        <time>2025-03-02T11:46:28Z</time>
      </trkpt>
      <trkpt lat="45.71166" lon="4.74019">
        <ele>320.6</ele>
        <time>2025-03-02T11:46:29Z</time>
      </trkpt>
      <trkpt lat="45.71166" lon="4.74028">
        <ele>320.6</ele>
        <time>2025-03-02T11:46:30Z</time>
      </trkpt>
      <trkpt lat="45.71165" lon="4.74036">
        <ele>320.6</ele>
        <time>2025-03-02T11:46:31Z</time>
      </trkpt>
      <trkpt lat="45.71164" lon="4.74045">
        <ele>320.6</ele>
        <time>2025-03-02T11:46:32Z</time>
      </trkpt>
      <trkpt lat="45.71163" lon="4.74054">
        <ele>320.4</ele>
        <time>2025-03-02T11:46:33Z</time>
      </trkpt>
      <trkpt lat="45.71162" lon="4.74063">
        <ele>320.2</ele>
        <time>2025-03-02T11:46:34Z</time>
      </trkpt>
      <trkpt lat="45.71162" lon="4.7407">
        <ele>320.2</ele>
        <time>2025-03-02T11:46:35Z</time>
      </trkpt>
      <trkpt lat="45.71162" lon="4.74081">
        <ele>320.2</ele>
        <time>2025-03-02T11:46:36Z</time>
      </trkpt>
      <trkpt lat="45.71163" lon="4.74091">
        <ele>320</ele>
        <time>2025-03-02T11:46:37Z</time>
      </trkpt>
      <trkpt lat="45.71164" lon="4.741">
        <ele>320</ele>
        <time>2025-03-02T11:46:38Z</time>
      </trkpt>
      <trkpt lat="45.71165" lon="4.74109">
        <ele>319.6</ele>
        <time>2025-03-02T11:46:39Z</time>
      </trkpt>
      <trkpt lat="45.71168" lon="4.74118">
        <ele>318.8</ele>
        <time>2025-03-02T11:46:40Z</time>
      </trkpt>
      <trkpt lat="45.71169" lon="4.74127">
        <ele>318.2</ele>
        <time>2025-03-02T11:46:41Z</time>
      </trkpt>
      <trkpt lat="45.71172" lon="4.74136">
        <ele>317.6</ele>
        <time>2025-03-02T11:46:42Z</time>
      </trkpt>
      <trkpt lat="45.71173" lon="4.74146">
        <ele>317.4</ele>
        <time>2025-03-02T11:46:43Z</time>
      </trkpt>
      <trkpt lat="45.71175" lon="4.74155">
        <ele>317.2</ele>
        <time>2025-03-02T11:46:44Z</time>
      </trkpt>
      <trkpt lat="45.71177" lon="4.74164">
        <ele>316.6</ele>
        <time>2025-03-02T11:46:45Z</time>
      </trkpt>
      <trkpt lat="45.71178" lon="4.74173">
        <ele>316.2</ele>
        <time>2025-03-02T11:46:46Z</time>
      </trkpt>
      <trkpt lat="45.7118" lon="4.74182">
        <ele>316.2</ele>
        <time>2025-03-02T11:46:47Z</time>
      </trkpt>
      <trkpt lat="45.71182" lon="4.74191">
        <ele>316</ele>
        <time>2025-03-02T11:46:48Z</time>
      </trkpt>
      <trkpt lat="45.71183" lon="4.742">
        <ele>316</ele>
        <time>2025-03-02T11:46:49Z</time>
      </trkpt>
      <trkpt lat="45.71185" lon="4.74209">
        <ele>316</ele>
        <time>2025-03-02T11:46:50Z</time>
      </trkpt>
      <trkpt lat="45.71186" lon="4.74218">
        <ele>316</ele>
        <time>2025-03-02T11:46:51Z</time>
      </trkpt>
      <trkpt lat="45.71188" lon="4.74228">
        <ele>316.2</ele>
        <time>2025-03-02T11:46:52Z</time>
      </trkpt>
      <trkpt lat="45.7119" lon="4.74237">
        <ele>316.2</ele>
        <time>2025-03-02T11:46:53Z</time>
      </trkpt>
      <trkpt lat="45.71192" lon="4.74247">
        <ele>316.2</ele>
        <time>2025-03-02T11:46:54Z</time>
      </trkpt>
      <trkpt lat="45.71194" lon="4.74256">
        <ele>316.2</ele>
        <time>2025-03-02T11:46:55Z</time>
      </trkpt>
      <trkpt lat="45.71196" lon="4.74265">
        <ele>316</ele>
        <time>2025-03-02T11:46:56Z</time>
      </trkpt>
      <trkpt lat="45.71197" lon="4.74273">
        <ele>315.2</ele>
        <time>2025-03-02T11:46:57Z</time>
      </trkpt>
      <trkpt lat="45.712" lon="4.74283">
        <ele>314.6</ele>
        <time>2025-03-02T11:46:58Z</time>
      </trkpt>
      <trkpt lat="45.71203" lon="4.74292">
        <ele>314.6</ele>
        <time>2025-03-02T11:46:59Z</time>
      </trkpt>
      <trkpt lat="45.71205" lon="4.74301">
        <ele>314.4</ele>
        <time>2025-03-02T11:47:00Z</time>
      </trkpt>
      <trkpt lat="45.71207" lon="4.74309">
        <ele>314.4</ele>
        <time>2025-03-02T11:47:01Z</time>
      </trkpt>
      <trkpt lat="45.71209" lon="4.74317">
        <ele>314</ele>
        <time>2025-03-02T11:47:02Z</time>
      </trkpt>
      <trkpt lat="45.71211" lon="4.74325">
        <ele>314</ele>
        <time>2025-03-02T11:47:03Z</time>
      </trkpt>
      <trkpt lat="45.71213" lon="4.74333">
        <ele>314</ele>
        <time>2025-03-02T11:47:04Z</time>
      </trkpt>
      <trkpt lat="45.71215" lon="4.7434">
        <ele>314</ele>
        <time>2025-03-02T11:47:05Z</time>
      </trkpt>
      <trkpt lat="45.71217" lon="4.74348">
        <ele>314.4</ele>
        <time>2025-03-02T11:47:06Z</time>
      </trkpt>
      <trkpt lat="45.71219" lon="4.74357">
        <ele>315.2</ele>
        <time>2025-03-02T11:47:07Z</time>
      </trkpt>
      <trkpt lat="45.7122" lon="4.74365">
        <ele>315.8</ele>
        <time>2025-03-02T11:47:08Z</time>
      </trkpt>
      <trkpt lat="45.71222" lon="4.74373">
        <ele>316.4</ele>
        <time>2025-03-02T11:47:09Z</time>
      </trkpt>
      <trkpt lat="45.71223" lon="4.74382">
        <ele>316.4</ele>
        <time>2025-03-02T11:47:10Z</time>
      </trkpt>
      <trkpt lat="45.71224" lon="4.7439">
        <ele>316.6</ele>
        <time>2025-03-02T11:47:11Z</time>
      </trkpt>
      <trkpt lat="45.71225" lon="4.74398">
        <ele>316.8</ele>
        <time>2025-03-02T11:47:12Z</time>
      </trkpt>
      <trkpt lat="45.71225" lon="4.74407">
        <ele>317</ele>
        <time>2025-03-02T11:47:13Z</time>
      </trkpt>
      <trkpt lat="45.71226" lon="4.74415">
        <ele>317.2</ele>
        <time>2025-03-02T11:47:14Z</time>
      </trkpt>
      <trkpt lat="45.71226" lon="4.74424">
        <ele>317.4</ele>
        <time>2025-03-02T11:47:15Z</time>
      </trkpt>
      <trkpt lat="45.71225" lon="4.74432">
        <ele>318</ele>
        <time>2025-03-02T11:47:16Z</time>
      </trkpt>
      <trkpt lat="45.71225" lon="4.7444">
        <ele>318.6</ele>
        <time>2025-03-02T11:47:17Z</time>
      </trkpt>
      <trkpt lat="45.71224" lon="4.74449">
        <ele>318.8</ele>
        <time>2025-03-02T11:47:18Z</time>
      </trkpt>
      <trkpt lat="45.71224" lon="4.74458">
        <ele>319</ele>
        <time>2025-03-02T11:47:19Z</time>
      </trkpt>
      <trkpt lat="45.71224" lon="4.74467">
        <ele>319.2</ele>
        <time>2025-03-02T11:47:20Z</time>
      </trkpt>
      <trkpt lat="45.71224" lon="4.74475">
        <ele>319.4</ele>
        <time>2025-03-02T11:47:21Z</time>
      </trkpt>
      <trkpt lat="45.71224" lon="4.74484">
        <ele>319.6</ele>
        <time>2025-03-02T11:47:22Z</time>
      </trkpt>
      <trkpt lat="45.71223" lon="4.74493">
        <ele>319.8</ele>
        <time>2025-03-02T11:47:23Z</time>
      </trkpt>
      <trkpt lat="45.71223" lon="4.74502">
        <ele>319.8</ele>
        <time>2025-03-02T11:47:24Z</time>
      </trkpt>
      <trkpt lat="45.71222" lon="4.74511">
        <ele>320</ele>
        <time>2025-03-02T11:47:25Z</time>
      </trkpt>
      <trkpt lat="45.71221" lon="4.7452">
        <ele>320</ele>
        <time>2025-03-02T11:47:26Z</time>
      </trkpt>
      <trkpt lat="45.7122" lon="4.74529">
        <ele>320</ele>
        <time>2025-03-02T11:47:27Z</time>
      </trkpt>
      <trkpt lat="45.71218" lon="4.74538">
        <ele>320</ele>
        <time>2025-03-02T11:47:28Z</time>
      </trkpt>
      <trkpt lat="45.71217" lon="4.74547">
        <ele>320</ele>
        <time>2025-03-02T11:47:29Z</time>
      </trkpt>
      <trkpt lat="45.71215" lon="4.74556">
        <ele>319.8</ele>
        <time>2025-03-02T11:47:30Z</time>
      </trkpt>
      <trkpt lat="45.71213" lon="4.74565">
        <ele>319.8</ele>
        <time>2025-03-02T11:47:31Z</time>
      </trkpt>
      <trkpt lat="45.71211" lon="4.74574">
        <ele>319.8</ele>
        <time>2025-03-02T11:47:32Z</time>
      </trkpt>
      <trkpt lat="45.71209" lon="4.74583">
        <ele>319.6</ele>
        <time>2025-03-02T11:47:33Z</time>
      </trkpt>
      <trkpt lat="45.71208" lon="4.74593">
        <ele>319.6</ele>
        <time>2025-03-02T11:47:34Z</time>
      </trkpt>
      <trkpt lat="45.71206" lon="4.74602">
        <ele>319.2</ele>
        <time>2025-03-02T11:47:35Z</time>
      </trkpt>
      <trkpt lat="45.71205" lon="4.74612">
        <ele>319</ele>
        <time>2025-03-02T11:47:36Z</time>
      </trkpt>
      <trkpt lat="45.71205" lon="4.74621">
        <ele>319</ele>
        <time>2025-03-02T11:47:37Z</time>
      </trkpt>
      <trkpt lat="45.71204" lon="4.74631">
        <ele>318.8</ele>
        <time>2025-03-02T11:47:38Z</time>
      </trkpt>
      <trkpt lat="45.71204" lon="4.74641">
        <ele>318.8</ele>
        <time>2025-03-02T11:47:39Z</time>
      </trkpt>
      <trkpt lat="45.71204" lon="4.7465">
        <ele>318.8</ele>
        <time>2025-03-02T11:47:40Z</time>
      </trkpt>
      <trkpt lat="45.71204" lon="4.7466">
        <ele>318.6</ele>
        <time>2025-03-02T11:47:41Z</time>
      </trkpt>
      <trkpt lat="45.71203" lon="4.74669">
        <ele>318.4</ele>
        <time>2025-03-02T11:47:42Z</time>
      </trkpt>
      <trkpt lat="45.71202" lon="4.74678">
        <ele>318</ele>
        <time>2025-03-02T11:47:43Z</time>
      </trkpt>
      <trkpt lat="45.71202" lon="4.74688">
        <ele>317.6</ele>
        <time>2025-03-02T11:47:44Z</time>
      </trkpt>
      <trkpt lat="45.71201" lon="4.74697">
        <ele>317.4</ele>
        <time>2025-03-02T11:47:45Z</time>
      </trkpt>
      <trkpt lat="45.712" lon="4.74707">
        <ele>317.4</ele>
        <time>2025-03-02T11:47:46Z</time>
      </trkpt>
      <trkpt lat="45.71199" lon="4.74716">
        <ele>317.4</ele>
        <time>2025-03-02T11:47:47Z</time>
      </trkpt>
      <trkpt lat="45.71199" lon="4.74726">
        <ele>317.4</ele>
        <time>2025-03-02T11:47:48Z</time>
      </trkpt>
      <trkpt lat="45.71198" lon="4.74736">
        <ele>317.4</ele>
        <time>2025-03-02T11:47:49Z</time>
      </trkpt>
      <trkpt lat="45.71199" lon="4.74745">
        <ele>317.4</ele>
        <time>2025-03-02T11:47:50Z</time>
      </trkpt>
      <trkpt lat="45.71202" lon="4.74754">
        <ele>317.4</ele>
        <time>2025-03-02T11:47:51Z</time>
      </trkpt>
      <trkpt lat="45.71205" lon="4.74762">
        <ele>317.2</ele>
        <time>2025-03-02T11:47:52Z</time>
      </trkpt>
      <trkpt lat="45.71209" lon="4.7477">
        <ele>316.6</ele>
        <time>2025-03-02T11:47:53Z</time>
      </trkpt>
      <trkpt lat="45.71212" lon="4.74779">
        <ele>316.2</ele>
        <time>2025-03-02T11:47:54Z</time>
      </trkpt>
      <trkpt lat="45.71214" lon="4.74787">
        <ele>316</ele>
        <time>2025-03-02T11:47:55Z</time>
      </trkpt>
      <trkpt lat="45.71217" lon="4.74796">
        <ele>316</ele>
        <time>2025-03-02T11:47:56Z</time>
      </trkpt>
      <trkpt lat="45.7122" lon="4.74805">
        <ele>315.8</ele>
        <time>2025-03-02T11:47:57Z</time>
      </trkpt>
      <trkpt lat="45.71222" lon="4.74814">
        <ele>315.8</ele>
        <time>2025-03-02T11:47:58Z</time>
      </trkpt>
      <trkpt lat="45.71224" lon="4.74823">
        <ele>315.2</ele>
        <time>2025-03-02T11:47:59Z</time>
      </trkpt>
      <trkpt lat="45.71227" lon="4.74831">
        <ele>315</ele>
        <time>2025-03-02T11:48:00Z</time>
      </trkpt>
      <trkpt lat="45.7123" lon="4.7484">
        <ele>314.6</ele>
        <time>2025-03-02T11:48:01Z</time>
      </trkpt>
      <trkpt lat="45.71232" lon="4.74848">
        <ele>314.4</ele>
        <time>2025-03-02T11:48:02Z</time>
      </trkpt>
      <trkpt lat="45.71232" lon="4.74857">
        <ele>314.4</ele>
        <time>2025-03-02T11:48:03Z</time>
      </trkpt>
      <trkpt lat="45.71232" lon="4.74866">
        <ele>314.4</ele>
        <time>2025-03-02T11:48:04Z</time>
      </trkpt>
      <trkpt lat="45.71231" lon="4.74874">
        <ele>314.4</ele>
        <time>2025-03-02T11:48:05Z</time>
      </trkpt>
      <trkpt lat="45.7123" lon="4.74882">
        <ele>314.6</ele>
        <time>2025-03-02T11:48:06Z</time>
      </trkpt>
      <trkpt lat="45.71229" lon="4.74888">
        <ele>314.6</ele>
        <time>2025-03-02T11:48:07Z</time>
      </trkpt>
      <trkpt lat="45.71228" lon="4.74897">
        <ele>314.8</ele>
        <time>2025-03-02T11:48:08Z</time>
      </trkpt>
      <trkpt lat="45.71227" lon="4.74904">
        <ele>315.2</ele>
        <time>2025-03-02T11:48:09Z</time>
      </trkpt>
      <trkpt lat="45.71226" lon="4.7491">
        <ele>315.8</ele>
        <time>2025-03-02T11:48:10Z</time>
      </trkpt>
      <trkpt lat="45.71224" lon="4.74916">
        <ele>316.6</ele>
        <time>2025-03-02T11:48:11Z</time>
      </trkpt>
      <trkpt lat="45.71222" lon="4.74921">
        <ele>317</ele>
        <time>2025-03-02T11:48:12Z</time>
      </trkpt>
      <trkpt lat="45.71218" lon="4.74926">
        <ele>317.6</ele>
        <time>2025-03-02T11:48:13Z</time>
      </trkpt>
      <trkpt lat="45.71214" lon="4.74929">
        <ele>318</ele>
        <time>2025-03-02T11:48:14Z</time>
      </trkpt>
      <trkpt lat="45.7121" lon="4.74933">
        <ele>318.4</ele>
        <time>2025-03-02T11:48:15Z</time>
      </trkpt>
      <trkpt lat="45.71206" lon="4.74936">
        <ele>318.6</ele>
        <time>2025-03-02T11:48:16Z</time>
      </trkpt>
      <trkpt lat="45.71202" lon="4.74939">
        <ele>318.6</ele>
        <time>2025-03-02T11:48:17Z</time>
      </trkpt>
      <trkpt lat="45.71197" lon="4.74942">
        <ele>318.6</ele>
        <time>2025-03-02T11:48:18Z</time>
      </trkpt>
      <trkpt lat="45.71192" lon="4.74945">
        <ele>318.6</ele>
        <time>2025-03-02T11:48:19Z</time>
      </trkpt>
      <trkpt lat="45.71187" lon="4.74948">
        <ele>318.2</ele>
        <time>2025-03-02T11:48:20Z</time>
      </trkpt>
      <trkpt lat="45.71181" lon="4.74952">
        <ele>317.8</ele>
        <time>2025-03-02T11:48:21Z</time>
      </trkpt>
      <trkpt lat="45.71175" lon="4.74955">
        <ele>317.4</ele>
        <time>2025-03-02T11:48:22Z</time>
      </trkpt>
      <trkpt lat="45.71169" lon="4.74958">
        <ele>316.8</ele>
        <time>2025-03-02T11:48:23Z</time>
      </trkpt>
      <trkpt lat="45.71163" lon="4.7496">
        <ele>316.4</ele>
        <time>2025-03-02T11:48:24Z</time>
      </trkpt>
      <trkpt lat="45.71157" lon="4.74963">
        <ele>316.2</ele>
        <time>2025-03-02T11:48:25Z</time>
      </trkpt>
      <trkpt lat="45.71151" lon="4.74966">
        <ele>315.8</ele>
        <time>2025-03-02T11:48:26Z</time>
      </trkpt>
      <trkpt lat="45.71145" lon="4.7497">
        <ele>315.8</ele>
        <time>2025-03-02T11:48:27Z</time>
      </trkpt>
      <trkpt lat="45.71139" lon="4.74977">
        <ele>315.6</ele>
        <time>2025-03-02T11:48:28Z</time>
      </trkpt>
      <trkpt lat="45.71136" lon="4.74985">
        <ele>315.4</ele>
        <time>2025-03-02T11:48:29Z</time>
      </trkpt>
      <trkpt lat="45.71134" lon="4.74996">
        <ele>315.4</ele>
        <time>2025-03-02T11:48:30Z</time>
      </trkpt>
      <trkpt lat="45.71133" lon="4.75006">
        <ele>314.6</ele>
        <time>2025-03-02T11:48:31Z</time>
      </trkpt>
      <trkpt lat="45.71131" lon="4.75016">
        <ele>313.6</ele>
        <time>2025-03-02T11:48:32Z</time>
      </trkpt>
      <trkpt lat="45.71129" lon="4.75027">
        <ele>313</ele>
        <time>2025-03-02T11:48:33Z</time>
      </trkpt>
      <trkpt lat="45.71126" lon="4.75037">
        <ele>312.4</ele>
        <time>2025-03-02T11:48:34Z</time>
      </trkpt>
      <trkpt lat="45.71123" lon="4.75049">
        <ele>312</ele>
        <time>2025-03-02T11:48:35Z</time>
      </trkpt>
      <trkpt lat="45.71117" lon="4.75059">
        <ele>311.4</ele>
        <time>2025-03-02T11:48:36Z</time>
      </trkpt>
      <trkpt lat="45.71113" lon="4.7507">
        <ele>309.8</ele>
        <time>2025-03-02T11:48:37Z</time>
      </trkpt>
      <trkpt lat="45.71108" lon="4.75083">
        <ele>309.2</ele>
        <time>2025-03-02T11:48:38Z</time>
      </trkpt>
      <trkpt lat="45.71105" lon="4.75096">
        <ele>308.6</ele>
        <time>2025-03-02T11:48:39Z</time>
      </trkpt>
      <trkpt lat="45.71103" lon="4.75111">
        <ele>307</ele>
        <time>2025-03-02T11:48:40Z</time>
      </trkpt>
      <trkpt lat="45.71103" lon="4.75127">
        <ele>305</ele>
        <time>2025-03-02T11:48:41Z</time>
      </trkpt>
      <trkpt lat="45.71104" lon="4.75143">
        <ele>302.4</ele>
        <time>2025-03-02T11:48:42Z</time>
      </trkpt>
      <trkpt lat="45.71107" lon="4.75159">
        <ele>299.8</ele>
        <time>2025-03-02T11:48:43Z</time>
      </trkpt>
      <trkpt lat="45.7111" lon="4.75174">
        <ele>297.8</ele>
        <time>2025-03-02T11:48:44Z</time>
      </trkpt>
      <trkpt lat="45.71112" lon="4.7519">
        <ele>296.8</ele>
        <time>2025-03-02T11:48:45Z</time>
      </trkpt>
      <trkpt lat="45.71114" lon="4.75206">
        <ele>295</ele>
        <time>2025-03-02T11:48:46Z</time>
      </trkpt>
      <trkpt lat="45.71113" lon="4.75221">
        <ele>295</ele>
        <time>2025-03-02T11:48:47Z</time>
      </trkpt>
      <trkpt lat="45.71112" lon="4.75235">
        <ele>295</ele>
        <time>2025-03-02T11:48:48Z</time>
      </trkpt>
      <trkpt lat="45.7111" lon="4.75248">
        <ele>295</ele>
        <time>2025-03-02T11:48:49Z</time>
      </trkpt>
      <trkpt lat="45.71107" lon="4.7526">
        <ele>295.6</ele>
        <time>2025-03-02T11:48:50Z</time>
      </trkpt>
      <trkpt lat="45.71103" lon="4.75271">
        <ele>296.4</ele>
        <time>2025-03-02T11:48:51Z</time>
      </trkpt>
      <trkpt lat="45.71099" lon="4.75279">
        <ele>297.2</ele>
        <time>2025-03-02T11:48:52Z</time>
      </trkpt>
      <trkpt lat="45.71096" lon="4.75287">
        <ele>298.2</ele>
        <time>2025-03-02T11:48:53Z</time>
      </trkpt>
      <trkpt lat="45.71093" lon="4.75294">
        <ele>299.2</ele>
        <time>2025-03-02T11:48:54Z</time>
      </trkpt>
      <trkpt lat="45.7109" lon="4.753">
        <ele>300.4</ele>
        <time>2025-03-02T11:48:55Z</time>
      </trkpt>
      <trkpt lat="45.71088" lon="4.75306">
        <ele>301.6</ele>
        <time>2025-03-02T11:48:56Z</time>
      </trkpt>
      <trkpt lat="45.71086" lon="4.75312">
        <ele>302.8</ele>
        <time>2025-03-02T11:48:57Z</time>
      </trkpt>
      <trkpt lat="45.71083" lon="4.75317">
        <ele>304</ele>
        <time>2025-03-02T11:48:58Z</time>
      </trkpt>
      <trkpt lat="45.71081" lon="4.75323">
        <ele>304.6</ele>
        <time>2025-03-02T11:48:59Z</time>
      </trkpt>
      <trkpt lat="45.7108" lon="4.75328">
        <ele>305.4</ele>
        <time>2025-03-02T11:49:00Z</time>
      </trkpt>
      <trkpt lat="45.71078" lon="4.75333">
        <ele>306.2</ele>
        <time>2025-03-02T11:49:01Z</time>
      </trkpt>
      <trkpt lat="45.71077" lon="4.75339">
        <ele>307.2</ele>
        <time>2025-03-02T11:49:02Z</time>
      </trkpt>
      <trkpt lat="45.71075" lon="4.75344">
        <ele>308</ele>
        <time>2025-03-02T11:49:03Z</time>
      </trkpt>
      <trkpt lat="45.71074" lon="4.7535">
        <ele>308.6</ele>
        <time>2025-03-02T11:49:04Z</time>
      </trkpt>
      <trkpt lat="45.71073" lon="4.75356">
        <ele>309.4</ele>
        <time>2025-03-02T11:49:05Z</time>
      </trkpt>
      <trkpt lat="45.71072" lon="4.75362">
        <ele>310</ele>
        <time>2025-03-02T11:49:06Z</time>
      </trkpt>
      <trkpt lat="45.71071" lon="4.75368">
        <ele>310.6</ele>
        <time>2025-03-02T11:49:07Z</time>
      </trkpt>
      <trkpt lat="45.71069" lon="4.75373">
        <ele>311</ele>
        <time>2025-03-02T11:49:08Z</time>
      </trkpt>
      <trkpt lat="45.71067" lon="4.75379">
        <ele>311</ele>
        <time>2025-03-02T11:49:09Z</time>
      </trkpt>
      <trkpt lat="45.71066" lon="4.75385">
        <ele>311.4</ele>
        <time>2025-03-02T11:49:10Z</time>
      </trkpt>
      <trkpt lat="45.71064" lon="4.7539">
        <ele>311.6</ele>
        <time>2025-03-02T11:49:11Z</time>
      </trkpt>
      <trkpt lat="45.71063" lon="4.75395">
        <ele>312</ele>
        <time>2025-03-02T11:49:12Z</time>
      </trkpt>
      <trkpt lat="45.71061" lon="4.754">
        <ele>312.4</ele>
        <time>2025-03-02T11:49:13Z</time>
      </trkpt>
      <trkpt lat="45.7106" lon="4.75405">
        <ele>312.8</ele>
        <time>2025-03-02T11:49:14Z</time>
      </trkpt>
      <trkpt lat="45.71059" lon="4.7541">
        <ele>313.2</ele>
        <time>2025-03-02T11:49:15Z</time>
      </trkpt>
      <trkpt lat="45.71057" lon="4.75415">
        <ele>313.4</ele>
        <time>2025-03-02T11:49:16Z</time>
      </trkpt>
      <trkpt lat="45.71056" lon="4.75419">
        <ele>313.4</ele>
        <time>2025-03-02T11:49:17Z</time>
      </trkpt>
      <trkpt lat="45.71056" lon="4.75424">
        <ele>313.6</ele>
        <time>2025-03-02T11:49:18Z</time>
      </trkpt>
      <trkpt lat="45.71055" lon="4.75428">
        <ele>313.8</ele>
        <time>2025-03-02T11:49:19Z</time>
      </trkpt>
      <trkpt lat="45.71055" lon="4.75433">
        <ele>313.8</ele>
        <time>2025-03-02T11:49:20Z</time>
      </trkpt>
      <trkpt lat="45.71055" lon="4.75437">
        <ele>313.8</ele>
        <time>2025-03-02T11:49:21Z</time>
      </trkpt>
      <trkpt lat="45.71055" lon="4.75442">
        <ele>313.8</ele>
        <time>2025-03-02T11:49:22Z</time>
      </trkpt>
      <trkpt lat="45.71055" lon="4.75448">
        <ele>313.8</ele>
        <time>2025-03-02T11:49:23Z</time>
      </trkpt>
      <trkpt lat="45.71055" lon="4.75455">
        <ele>313.6</ele>
        <time>2025-03-02T11:49:24Z</time>
      </trkpt>
      <trkpt lat="45.71055" lon="4.75462">
        <ele>313.4</ele>
        <time>2025-03-02T11:49:25Z</time>
      </trkpt>
      <trkpt lat="45.71055" lon="4.75469">
        <ele>313.2</ele>
        <time>2025-03-02T11:49:26Z</time>
      </trkpt>
      <trkpt lat="45.71055" lon="4.75476">
        <ele>313</ele>
        <time>2025-03-02T11:49:27Z</time>
      </trkpt>
      <trkpt lat="45.71055" lon="4.75482">
        <ele>312.6</ele>
        <time>2025-03-02T11:49:28Z</time>
      </trkpt>
      <trkpt lat="45.71055" lon="4.75491">
        <ele>312.6</ele>
        <time>2025-03-02T11:49:29Z</time>
      </trkpt>
      <trkpt lat="45.71055" lon="4.75499">
        <ele>312.4</ele>
        <time>2025-03-02T11:49:30Z</time>
      </trkpt>
      <trkpt lat="45.71055" lon="4.75507">
        <ele>312</ele>
        <time>2025-03-02T11:49:31Z</time>
      </trkpt>
      <trkpt lat="45.71055" lon="4.75515">
        <ele>312</ele>
        <time>2025-03-02T11:49:32Z</time>
      </trkpt>
      <trkpt lat="45.71055" lon="4.75522">
        <ele>312</ele>
        <time>2025-03-02T11:49:33Z</time>
      </trkpt>
      <trkpt lat="45.71055" lon="4.7553">
        <ele>312</ele>
        <time>2025-03-02T11:49:34Z</time>
      </trkpt>
      <trkpt lat="45.71056" lon="4.75536">
        <ele>312</ele>
        <time>2025-03-02T11:49:35Z</time>
      </trkpt>
      <trkpt lat="45.71059" lon="4.7554">
        <ele>312</ele>
        <time>2025-03-02T11:49:36Z</time>
      </trkpt>
      <trkpt lat="45.71063" lon="4.75542">
        <ele>312</ele>
        <time>2025-03-02T11:49:37Z</time>
      </trkpt>
      <trkpt lat="45.71067" lon="4.75542">
        <ele>312.4</ele>
        <time>2025-03-02T11:49:38Z</time>
      </trkpt>
      <trkpt lat="45.7107" lon="4.75542">
        <ele>312.8</ele>
        <time>2025-03-02T11:49:39Z</time>
      </trkpt>
      <trkpt lat="45.71073" lon="4.75543">
        <ele>313.4</ele>
        <time>2025-03-02T11:49:40Z</time>
      </trkpt>
      <trkpt lat="45.71075" lon="4.75546">
        <ele>313.8</ele>
        <time>2025-03-02T11:49:41Z</time>
      </trkpt>
      <trkpt lat="45.71076" lon="4.75549">
        <ele>314.2</ele>
        <time>2025-03-02T11:49:42Z</time>
      </trkpt>
      <trkpt lat="45.71076" lon="4.75552">
        <ele>314.6</ele>
        <time>2025-03-02T11:49:43Z</time>
      </trkpt>
      <trkpt lat="45.71078" lon="4.75554">
        <ele>314.8</ele>
        <time>2025-03-02T11:49:44Z</time>
      </trkpt>
      <trkpt lat="45.71078" lon="4.75556">
        <ele>315</ele>
        <time>2025-03-02T11:49:45Z</time>
      </trkpt>
      <trkpt lat="45.71078" lon="4.75556">
        <ele>315.2</ele>
        <time>2025-03-02T11:49:46Z</time>
      </trkpt>
      <trkpt lat="45.71078" lon="4.75556">
        <ele>315.6</ele>
        <time>2025-03-02T11:49:47Z</time>
      </trkpt>
      <trkpt lat="45.71078" lon="4.75556">
        <ele>315.6</ele>
        <time>2025-03-02T11:49:48Z</time>
      </trkpt>
      <trkpt lat="45.71078" lon="4.75556">
        <ele>315.8</ele>
        <time>2025-03-02T11:49:49Z</time>
      </trkpt>
      <trkpt lat="45.71078" lon="4.75556">
        <ele>315.8</ele>
        <time>2025-03-02T11:49:50Z</time>
      </trkpt>
      <trkpt lat="45.71078" lon="4.75556">
        <ele>315.8</ele>
        <time>2025-03-02T11:49:51Z</time>
      </trkpt>
      <trkpt lat="45.71078" lon="4.75556">
        <ele>315.8</ele>
        <time>2025-03-02T11:49:52Z</time>
      </trkpt>
      <trkpt lat="45.71078" lon="4.75556">
        <ele>315.8</ele>
        <time>2025-03-02T11:49:53Z</time>
      </trkpt>
      <trkpt lat="45.71078" lon="4.75556">
        <ele>315.8</ele>
        <time>2025-03-02T11:49:54Z</time>
      </trkpt>
      <trkpt lat="45.71078" lon="4.75556">
        <ele>315.8</ele>
        <time>2025-03-02T11:49:55Z</time>
      </trkpt>
      <trkpt lat="45.71078" lon="4.75556">
        <ele>315.8</ele>
        <time>2025-03-02T11:49:56Z</time>
      </trkpt>
      <trkpt lat="45.71078" lon="4.75556">
        <ele>315.8</ele>
        <time>2025-03-02T11:49:57Z</time>
      </trkpt>
      <trkpt lat="45.71078" lon="4.75556">
        <ele>315.8</ele>
        <time>2025-03-02T11:49:58Z</time>
      </trkpt>
      <trkpt lat="45.71078" lon="4.75556">
        <ele>316.8</ele>
        <time>2025-03-02T11:49:59Z</time>
      </trkpt>
      <trkpt lat="45.71078" lon="4.75556">
        <ele>316.8</ele>
        <time>2025-03-02T11:50:00Z</time>
      </trkpt>
      <trkpt lat="45.71078" lon="4.75558">
        <ele>316.8</ele>
        <time>2025-03-02T11:50:01Z</time>
      </trkpt>
      <trkpt lat="45.71078" lon="4.75558">
        <ele>316.8</ele>
        <time>2025-03-02T11:50:02Z</time>
      </trkpt>
      <trkpt lat="45.71078" lon="4.75558">
        <ele>316.6</ele>
        <time>2025-03-02T11:50:03Z</time>
      </trkpt>
      <trkpt lat="45.71078" lon="4.75558">
        <ele>316.4</ele>
        <time>2025-03-02T11:50:04Z</time>
      </trkpt>
      <trkpt lat="45.71078" lon="4.75558">
        <ele>316</ele>
        <time>2025-03-02T11:50:05Z</time>
      </trkpt>
      <trkpt lat="45.71079" lon="4.75558">
        <ele>316</ele>
        <time>2025-03-02T11:50:06Z</time>
      </trkpt>
      <trkpt lat="45.71079" lon="4.75558">
        <ele>315.8</ele>
        <time>2025-03-02T11:50:07Z</time>
      </trkpt>
      <trkpt lat="45.71079" lon="4.75558">
        <ele>315.8</ele>
        <time>2025-03-02T11:50:08Z</time>
      </trkpt>
      <trkpt lat="45.71078" lon="4.75557">
        <ele>315.8</ele>
        <time>2025-03-02T11:50:09Z</time>
      </trkpt>
      <trkpt lat="45.71078" lon="4.75556">
        <ele>315.8</ele>
        <time>2025-03-02T11:50:10Z</time>
      </trkpt>
      <trkpt lat="45.71078" lon="4.75556">
        <ele>315.8</ele>
        <time>2025-03-02T11:50:11Z</time>
      </trkpt>
      <trkpt lat="45.71078" lon="4.75556">
        <ele>315.6</ele>
        <time>2025-03-02T11:50:12Z</time>
      </trkpt>
      <trkpt lat="45.71078" lon="4.75556">
        <ele>315.4</ele>
        <time>2025-03-02T11:50:13Z</time>
      </trkpt>
      <trkpt lat="45.71078" lon="4.75556">
        <ele>315</ele>
        <time>2025-03-02T11:50:14Z</time>
      </trkpt>
      <trkpt lat="45.71078" lon="4.75556">
        <ele>315</ele>
        <time>2025-03-02T11:50:15Z</time>
      </trkpt>
      <trkpt lat="45.71078" lon="4.75556">
        <ele>315</ele>
        <time>2025-03-02T11:50:16Z</time>
      </trkpt>
      <trkpt lat="45.71078" lon="4.75556">
        <ele>315</ele>
        <time>2025-03-02T11:50:17Z</time>
      </trkpt>
      <trkpt lat="45.71078" lon="4.75556">
        <ele>315</ele>
        <time>2025-03-02T11:50:18Z</time>
      </trkpt>
      <trkpt lat="45.71078" lon="4.75556">
        <ele>315</ele>
        <time>2025-03-02T11:50:19Z</time>
      </trkpt>
      <trkpt lat="45.71078" lon="4.75556">
        <ele>315</ele>
        <time>2025-03-02T11:50:20Z</time>
      </trkpt>
      <trkpt lat="45.71078" lon="4.75556">
        <ele>315</ele>
        <time>2025-03-02T11:50:21Z</time>
      </trkpt>
      <trkpt lat="45.71078" lon="4.75556">
        <ele>315</ele>
        <time>2025-03-02T11:50:22Z</time>
      </trkpt>
      <trkpt lat="45.71078" lon="4.75556">
        <ele>315</ele>
        <time>2025-03-02T11:50:23Z</time>
      </trkpt>
      <trkpt lat="45.71078" lon="4.75556">
        <ele>315</ele>
        <time>2025-03-02T11:50:24Z</time>
      </trkpt>
      <trkpt lat="45.71078" lon="4.75556">
        <ele>315</ele>
        <time>2025-03-02T11:50:25Z</time>
      </trkpt>
      <trkpt lat="45.71078" lon="4.75556">
        <ele>315</ele>
        <time>2025-03-02T11:50:26Z</time>
      </trkpt>
      <trkpt lat="45.71078" lon="4.75556">
        <ele>315</ele>
        <time>2025-03-02T11:50:27Z</time>
      </trkpt>
      <trkpt lat="45.71078" lon="4.75556">
        <ele>315</ele>
        <time>2025-03-02T11:50:28Z</time>
      </trkpt>
      <trkpt lat="45.71078" lon="4.75556">
        <ele>315</ele>
        <time>2025-03-02T11:50:29Z</time>
      </trkpt>
      <trkpt lat="45.71078" lon="4.75556">
        <ele>315</ele>
        <time>2025-03-02T11:50:30Z</time>
      </trkpt>
      <trkpt lat="45.71078" lon="4.75556">
        <ele>315</ele>
        <time>2025-03-02T11:50:31Z</time>
      </trkpt>
      <trkpt lat="45.71078" lon="4.75556">
        <ele>315</ele>
        <time>2025-03-02T11:50:32Z</time>
      </trkpt>
      <trkpt lat="45.71078" lon="4.75556">
        <ele>315</ele>
        <time>2025-03-02T11:50:33Z</time>
      </trkpt>
      <trkpt lat="45.71078" lon="4.75556">
        <ele>315</ele>
        <time>2025-03-02T11:50:34Z</time>
      </trkpt>
      <trkpt lat="45.71078" lon="4.75556">
        <ele>315.2</ele>
        <time>2025-03-02T11:50:35Z</time>
      </trkpt>
      <trkpt lat="45.71078" lon="4.75556">
        <ele>315</ele>
        <time>2025-03-02T11:50:36Z</time>
      </trkpt>
      <trkpt lat="45.71078" lon="4.75556">
        <ele>315.2</ele>
        <time>2025-03-02T11:50:37Z</time>
      </trkpt>
      <trkpt lat="45.71078" lon="4.75556">
        <ele>315.2</ele>
        <time>2025-03-02T11:50:38Z</time>
      </trkpt>
      <trkpt lat="45.71078" lon="4.75556">
        <ele>315.2</ele>
        <time>2025-03-02T11:50:39Z</time>
      </trkpt>
      <trkpt lat="45.71077" lon="4.75556">
        <ele>315.2</ele>
        <time>2025-03-02T11:50:40Z</time>
      </trkpt>
      <trkpt lat="45.71063" lon="4.75535">
        <ele>314.4</ele>
        <time>2025-03-02T11:50:59Z</time>
      </trkpt>
      <trkpt lat="45.71063" lon="4.75535">
        <ele>314.4</ele>
        <time>2025-03-02T11:51:00Z</time>
      </trkpt>
      <trkpt lat="45.7107" lon="4.7554">
        <ele>314.4</ele>
        <time>2025-03-02T11:51:01Z</time>
      </trkpt>
      <trkpt lat="45.7107" lon="4.7554">
        <ele>314.4</ele>
        <time>2025-03-02T11:51:02Z</time>
      </trkpt>
      <trkpt lat="45.7107" lon="4.7554">
        <ele>314.4</ele>
        <time>2025-03-02T11:51:03Z</time>
      </trkpt>
      <trkpt lat="45.7107" lon="4.7554">
        <ele>314.6</ele>
        <time>2025-03-02T11:51:04Z</time>
      </trkpt>
      <trkpt lat="45.7107" lon="4.7554">
        <ele>314.6</ele>
        <time>2025-03-02T11:51:05Z</time>
      </trkpt>
      <trkpt lat="45.7107" lon="4.7554">
        <ele>314.6</ele>
        <time>2025-03-02T11:51:06Z</time>
      </trkpt>
      <trkpt lat="45.7107" lon="4.7554">
        <ele>314.6</ele>
        <time>2025-03-02T11:51:07Z</time>
      </trkpt>
      <trkpt lat="45.7107" lon="4.7554">
        <ele>314.6</ele>
        <time>2025-03-02T11:51:08Z</time>
      </trkpt>
      <trkpt lat="45.7107" lon="4.7554">
        <ele>314.6</ele>
        <time>2025-03-02T11:51:09Z</time>
      </trkpt>
      <trkpt lat="45.7107" lon="4.7554">
        <ele>314.6</ele>
        <time>2025-03-02T11:51:10Z</time>
      </trkpt>
      <trkpt lat="45.7107" lon="4.7554">
        <ele>314.6</ele>
        <time>2025-03-02T11:51:11Z</time>
      </trkpt>
      <trkpt lat="45.7107" lon="4.7554">
        <ele>314.6</ele>
        <time>2025-03-02T11:51:12Z</time>
      </trkpt>
      <trkpt lat="45.7107" lon="4.7554">
        <ele>314.6</ele>
        <time>2025-03-02T11:51:13Z</time>
      </trkpt>
      <trkpt lat="45.7107" lon="4.7554">
        <ele>314.6</ele>
        <time>2025-03-02T11:51:14Z</time>
      </trkpt>
      <trkpt lat="45.7107" lon="4.7554">
        <ele>314.6</ele>
        <time>2025-03-02T11:51:15Z</time>
      </trkpt>
      <trkpt lat="45.7107" lon="4.7554">
        <ele>314.6</ele>
        <time>2025-03-02T11:51:16Z</time>
      </trkpt>
      <trkpt lat="45.7107" lon="4.75541">
        <ele>314.8</ele>
        <time>2025-03-02T11:51:17Z</time>
      </trkpt>
      <trkpt lat="45.7107" lon="4.75541">
        <ele>314.8</ele>
        <time>2025-03-02T11:51:18Z</time>
      </trkpt>
      <trkpt lat="45.7107" lon="4.75541">
        <ele>314.8</ele>
        <time>2025-03-02T11:51:19Z</time>
      </trkpt>
      <trkpt lat="45.7107" lon="4.75541">
        <ele>314.8</ele>
        <time>2025-03-02T11:51:20Z</time>
      </trkpt>
      <trkpt lat="45.7107" lon="4.75541">
        <ele>314.8</ele>
        <time>2025-03-02T11:51:21Z</time>
      </trkpt>
      <trkpt lat="45.7107" lon="4.75542">
        <ele>314.8</ele>
        <time>2025-03-02T11:51:22Z</time>
      </trkpt>
      <trkpt lat="45.7107" lon="4.75542">
        <ele>314.8</ele>
        <time>2025-03-02T11:51:23Z</time>
      </trkpt>
      <trkpt lat="45.7107" lon="4.75542">
        <ele>314.8</ele>
        <time>2025-03-02T11:51:24Z</time>
      </trkpt>
      <trkpt lat="45.71071" lon="4.75543">
        <ele>314.8</ele>
        <time>2025-03-02T11:51:25Z</time>
      </trkpt>
      <trkpt lat="45.71071" lon="4.75543">
        <ele>314.8</ele>
        <time>2025-03-02T11:51:26Z</time>
      </trkpt>
      <trkpt lat="45.71071" lon="4.75543">
        <ele>314.8</ele>
        <time>2025-03-02T11:51:27Z</time>
      </trkpt>
      <trkpt lat="45.71071" lon="4.75543">
        <ele>314.8</ele>
        <time>2025-03-02T11:51:28Z</time>
      </trkpt>
      <trkpt lat="45.71072" lon="4.75544">
        <ele>314.8</ele>
        <time>2025-03-02T11:51:29Z</time>
      </trkpt>
      <trkpt lat="45.71072" lon="4.75544">
        <ele>314.8</ele>
        <time>2025-03-02T11:51:30Z</time>
      </trkpt>
      <trkpt lat="45.71072" lon="4.75544">
        <ele>314.8</ele>
        <time>2025-03-02T11:51:31Z</time>
      </trkpt>
      <trkpt lat="45.71072" lon="4.75544">
        <ele>314.8</ele>
        <time>2025-03-02T11:51:32Z</time>
      </trkpt>
      <trkpt lat="45.71072" lon="4.75544">
        <ele>314.8</ele>
        <time>2025-03-02T11:51:33Z</time>
      </trkpt>
      <trkpt lat="45.71075" lon="4.75554">
        <ele>314.8</ele>
        <time>2025-03-02T11:51:34Z</time>
      </trkpt>
      <trkpt lat="45.71076" lon="4.75553">
        <ele>314.8</ele>
        <time>2025-03-02T11:51:35Z</time>
      </trkpt>
      <trkpt lat="45.71076" lon="4.75553">
        <ele>314.8</ele>
        <time>2025-03-02T11:51:36Z</time>
      </trkpt>
      <trkpt lat="45.71076" lon="4.75553">
        <ele>314.8</ele>
        <time>2025-03-02T11:51:37Z</time>
      </trkpt>
      <trkpt lat="45.71076" lon="4.75553">
        <ele>314.8</ele>
        <time>2025-03-02T11:51:38Z</time>
      </trkpt>
      <trkpt lat="45.71076" lon="4.75553">
        <ele>314.8</ele>
        <time>2025-03-02T11:51:39Z</time>
      </trkpt>
      <trkpt lat="45.71076" lon="4.75553">
        <ele>314.8</ele>
        <time>2025-03-02T11:51:40Z</time>
      </trkpt>
      <trkpt lat="45.71076" lon="4.75553">
        <ele>314.8</ele>
        <time>2025-03-02T11:51:41Z</time>
      </trkpt>
      <trkpt lat="45.71076" lon="4.75553">
        <ele>314.8</ele>
        <time>2025-03-02T11:51:42Z</time>
      </trkpt>
      <trkpt lat="45.71076" lon="4.75552">
        <ele>314.8</ele>
        <time>2025-03-02T11:51:43Z</time>
      </trkpt>
      <trkpt lat="45.71076" lon="4.75552">
        <ele>314.8</ele>
        <time>2025-03-02T11:51:44Z</time>
      </trkpt>
      <trkpt lat="45.71076" lon="4.75551">
        <ele>314.8</ele>
        <time>2025-03-02T11:51:45Z</time>
      </trkpt>
      <trkpt lat="45.71073" lon="4.7555">
        <ele>314.8</ele>
        <time>2025-03-02T11:51:46Z</time>
      </trkpt>
      <trkpt lat="45.71073" lon="4.7555">
        <ele>314.8</ele>
        <time>2025-03-02T11:51:47Z</time>
      </trkpt>
      <trkpt lat="45.71073" lon="4.75549">
        <ele>314.8</ele>
        <time>2025-03-02T11:51:48Z</time>
      </trkpt>
      <trkpt lat="45.71074" lon="4.7555">
        <ele>314.8</ele>
        <time>2025-03-02T11:51:49Z</time>
      </trkpt>
      <trkpt lat="45.71074" lon="4.7555">
        <ele>314.8</ele>
        <time>2025-03-02T11:51:50Z</time>
      </trkpt>
      <trkpt lat="45.71074" lon="4.7555">
        <ele>314.8</ele>
        <time>2025-03-02T11:51:51Z</time>
      </trkpt>
      <trkpt lat="45.71074" lon="4.75549">
        <ele>314.8</ele>
        <time>2025-03-02T11:51:52Z</time>
      </trkpt>
      <trkpt lat="45.71074" lon="4.75549">
        <ele>314.8</ele>
        <time>2025-03-02T11:51:53Z</time>
      </trkpt>
      <trkpt lat="45.71075" lon="4.7555">
        <ele>314.8</ele>
        <time>2025-03-02T11:51:54Z</time>
      </trkpt>
      <trkpt lat="45.71075" lon="4.7555">
        <ele>314.8</ele>
        <time>2025-03-02T11:51:55Z</time>
      </trkpt>
      <trkpt lat="45.71074" lon="4.75549">
        <ele>314.8</ele>
        <time>2025-03-02T11:51:56Z</time>
      </trkpt>
      <trkpt lat="45.71074" lon="4.7555">
        <ele>314.8</ele>
        <time>2025-03-02T11:51:57Z</time>
      </trkpt>
      <trkpt lat="45.71075" lon="4.75552">
        <ele>314.8</ele>
        <time>2025-03-02T11:51:58Z</time>
      </trkpt>
      <trkpt lat="45.71074" lon="4.75551">
        <ele>314.8</ele>
        <time>2025-03-02T11:51:59Z</time>
      </trkpt>
      <trkpt lat="45.71075" lon="4.75554">
        <ele>314.8</ele>
        <time>2025-03-02T11:52:00Z</time>
      </trkpt>
      <trkpt lat="45.71075" lon="4.75555">
        <ele>314.8</ele>
        <time>2025-03-02T11:52:01Z</time>
      </trkpt>
      <trkpt lat="45.71076" lon="4.75555">
        <ele>314.8</ele>
        <time>2025-03-02T11:52:02Z</time>
      </trkpt>
      <trkpt lat="45.71076" lon="4.75555">
        <ele>314.8</ele>
        <time>2025-03-02T11:52:03Z</time>
      </trkpt>
      <trkpt lat="45.71076" lon="4.75555">
        <ele>314.8</ele>
        <time>2025-03-02T11:52:04Z</time>
      </trkpt>
      <trkpt lat="45.71076" lon="4.75555">
        <ele>314.8</ele>
        <time>2025-03-02T11:52:05Z</time>
      </trkpt>
      <trkpt lat="45.71077" lon="4.75554">
        <ele>314.8</ele>
        <time>2025-03-02T11:52:06Z</time>
      </trkpt>
      <trkpt lat="45.71076" lon="4.75554">
        <ele>314.8</ele>
        <time>2025-03-02T11:52:07Z</time>
      </trkpt>
      <trkpt lat="45.71076" lon="4.75554">
        <ele>314.8</ele>
        <time>2025-03-02T11:52:08Z</time>
      </trkpt>
      <trkpt lat="45.71076" lon="4.75554">
        <ele>314.8</ele>
        <time>2025-03-02T11:52:09Z</time>
      </trkpt>
      <trkpt lat="45.71076" lon="4.75554">
        <ele>314.8</ele>
        <time>2025-03-02T11:52:10Z</time>
      </trkpt>
      <trkpt lat="45.71076" lon="4.75554">
        <ele>314.8</ele>
        <time>2025-03-02T11:52:11Z</time>
      </trkpt>
      <trkpt lat="45.71076" lon="4.75554">
        <ele>314.8</ele>
        <time>2025-03-02T11:52:12Z</time>
      </trkpt>
      <trkpt lat="45.71076" lon="4.75554">
        <ele>314.8</ele>
        <time>2025-03-02T11:52:13Z</time>
      </trkpt>
      <trkpt lat="45.71077" lon="4.75554">
        <ele>314.8</ele>
        <time>2025-03-02T11:52:14Z</time>
      </trkpt>
      <trkpt lat="45.71077" lon="4.75554">
        <ele>314.8</ele>
        <time>2025-03-02T11:52:15Z</time>
      </trkpt>
      <trkpt lat="45.71077" lon="4.75554">
        <ele>314.8</ele>
        <time>2025-03-02T11:52:16Z</time>
      </trkpt>
    </trkseg>
  </trk>
</gpx>